<?xml version="1.0" encoding="UTF-8"?>
<gpx version="1.1" creator="https://www.www-youtrack-es.amenigma.com" xsi:schemaLocation="http://www.topografix.com/GPX/1/1 http://www.topografix.com/GPX/1/1/gpx.xsd http://www.garmin.com/xmlschemas/GpxExtensions/v3 http://www.garmin.com/xmlschemas/GpxExtensionsv3.xsd http://www.garmin.com/xmlschemas/TrackPointExtension/v1 http://www.garmin.com/xmlschemas/TrackPointExtensionv1.xsd" xmlns:gpxtpx="http://www.garmin.com/xmlschemas/TrackPointExtension/v1" xmlns:gpxx="http://www.garmin.com/xmlschemas/GpxExtensions/v3" xmlns:xsi="http://www.w3.org/2001/XMLSchema-instance">
  <metadata>
    <link href="https://www.www-youtrack-es.amenigma.com">
      <text>YouTrack.es</text>
    </link>
    <time>2026-08-31T05:14:03Z</time>
  </metadata>
  <trk>
    <src>https://www.www-youtrack-es.amenigma.com</src>
    <link href="https://www.www-youtrack-es.amenigma.com/ruta/13321-gavatxa-new-bonastre">
      <text>YouTrack.es</text>
    </link>
    <trkseg>
      <trkpt lat="41.217941" lon="1.525405">
        <ele>59.2</ele>
        <time>1970-01-01T00:00:00.000Z</time>
      </trkpt>
      <trkpt lat="41.218009" lon="1.525418">
        <ele>59.4</ele>
        <time>1970-01-01T00:03:31.000Z</time>
      </trkpt>
      <trkpt lat="41.218015" lon="1.525458">
        <ele>59.4</ele>
        <time>1970-01-01T00:03:37.000Z</time>
      </trkpt>
      <trkpt lat="41.218021" lon="1.525493">
        <ele>59.5</ele>
        <time>1970-01-01T00:03:43.000Z</time>
      </trkpt>
      <trkpt lat="41.218044" lon="1.525512">
        <ele>59.5</ele>
        <time>1970-01-01T00:03:46.000Z</time>
      </trkpt>
      <trkpt lat="41.218069" lon="1.525501">
        <ele>59.5</ele>
        <time>1970-01-01T00:03:53.000Z</time>
      </trkpt>
      <trkpt lat="41.21808" lon="1.525534">
        <ele>59.5</ele>
        <time>1970-01-01T00:03:55.000Z</time>
      </trkpt>
      <trkpt lat="41.218079" lon="1.525492">
        <ele>59.5</ele>
        <time>1970-01-01T00:04:00.000Z</time>
      </trkpt>
      <trkpt lat="41.218068" lon="1.525457">
        <ele>59.5</ele>
        <time>1970-01-01T00:04:01.000Z</time>
      </trkpt>
      <trkpt lat="41.218072" lon="1.525412">
        <ele>59.4</ele>
        <time>1970-01-01T00:04:04.000Z</time>
      </trkpt>
      <trkpt lat="41.218046" lon="1.525407">
        <ele>59.3</ele>
        <time>1970-01-01T00:04:10.000Z</time>
      </trkpt>
      <trkpt lat="41.218006" lon="1.525405">
        <ele>59.3</ele>
        <time>1970-01-01T00:04:30.000Z</time>
      </trkpt>
      <trkpt lat="41.217977" lon="1.525421">
        <ele>59.2</ele>
        <time>1970-01-01T00:04:31.000Z</time>
      </trkpt>
      <trkpt lat="41.217944" lon="1.525427">
        <ele>59.1</ele>
        <time>1970-01-01T00:04:32.000Z</time>
      </trkpt>
      <trkpt lat="41.217909" lon="1.525442">
        <ele>59.1</ele>
        <time>1970-01-01T00:04:33.000Z</time>
      </trkpt>
      <trkpt lat="41.217873" lon="1.525468">
        <ele>58.9</ele>
        <time>1970-01-01T00:04:34.000Z</time>
      </trkpt>
      <trkpt lat="41.217833" lon="1.525498">
        <ele>58.8</ele>
        <time>1970-01-01T00:04:35.000Z</time>
      </trkpt>
      <trkpt lat="41.217794" lon="1.52552">
        <ele>58.6</ele>
        <time>1970-01-01T00:04:36.000Z</time>
      </trkpt>
      <trkpt lat="41.217759" lon="1.525544">
        <ele>58.4</ele>
        <time>1970-01-01T00:04:37.000Z</time>
      </trkpt>
      <trkpt lat="41.217715" lon="1.525563">
        <ele>58.3</ele>
        <time>1970-01-01T00:04:38.000Z</time>
      </trkpt>
      <trkpt lat="41.217674" lon="1.52558">
        <ele>58</ele>
        <time>1970-01-01T00:04:39.000Z</time>
      </trkpt>
      <trkpt lat="41.217629" lon="1.525595">
        <ele>57.8</ele>
        <time>1970-01-01T00:04:40.000Z</time>
      </trkpt>
      <trkpt lat="41.217584" lon="1.525603">
        <ele>57.6</ele>
        <time>1970-01-01T00:04:41.000Z</time>
      </trkpt>
      <trkpt lat="41.217541" lon="1.525604">
        <ele>57.4</ele>
        <time>1970-01-01T00:04:42.000Z</time>
      </trkpt>
      <trkpt lat="41.217493" lon="1.525599">
        <ele>57.3</ele>
        <time>1970-01-01T00:04:43.000Z</time>
      </trkpt>
      <trkpt lat="41.217449" lon="1.525574">
        <ele>57.3</ele>
        <time>1970-01-01T00:04:44.000Z</time>
      </trkpt>
      <trkpt lat="41.217401" lon="1.525519">
        <ele>57.2</ele>
        <time>1970-01-01T00:04:45.000Z</time>
      </trkpt>
      <trkpt lat="41.217359" lon="1.525466">
        <ele>57.1</ele>
        <time>1970-01-01T00:04:46.000Z</time>
      </trkpt>
      <trkpt lat="41.217319" lon="1.525412">
        <ele>57.1</ele>
        <time>1970-01-01T00:04:47.000Z</time>
      </trkpt>
      <trkpt lat="41.217287" lon="1.525369">
        <ele>57</ele>
        <time>1970-01-01T00:04:48.000Z</time>
      </trkpt>
      <trkpt lat="41.217249" lon="1.525313">
        <ele>57</ele>
        <time>1970-01-01T00:04:49.000Z</time>
      </trkpt>
      <trkpt lat="41.21722" lon="1.525251">
        <ele>56.9</ele>
        <time>1970-01-01T00:04:50.000Z</time>
      </trkpt>
      <trkpt lat="41.217197" lon="1.525185">
        <ele>56.9</ele>
        <time>1970-01-01T00:04:51.000Z</time>
      </trkpt>
      <trkpt lat="41.217182" lon="1.525119">
        <ele>56.8</ele>
        <time>1970-01-01T00:04:52.000Z</time>
      </trkpt>
      <trkpt lat="41.217163" lon="1.525054">
        <ele>56.8</ele>
        <time>1970-01-01T00:04:53.000Z</time>
      </trkpt>
      <trkpt lat="41.217142" lon="1.524988">
        <ele>56.7</ele>
        <time>1970-01-01T00:04:54.000Z</time>
      </trkpt>
      <trkpt lat="41.21712" lon="1.524921">
        <ele>56.7</ele>
        <time>1970-01-01T00:04:55.000Z</time>
      </trkpt>
      <trkpt lat="41.217096" lon="1.524857">
        <ele>54.9</ele>
        <time>1970-01-01T00:04:56.000Z</time>
      </trkpt>
      <trkpt lat="41.217068" lon="1.524806">
        <ele>54.8</ele>
        <time>1970-01-01T00:04:57.000Z</time>
      </trkpt>
      <trkpt lat="41.217038" lon="1.524777">
        <ele>54.6</ele>
        <time>1970-01-01T00:04:58.000Z</time>
      </trkpt>
      <trkpt lat="41.217005" lon="1.524782">
        <ele>54.5</ele>
        <time>1970-01-01T00:04:59.000Z</time>
      </trkpt>
      <trkpt lat="41.216986" lon="1.524815">
        <ele>54.4</ele>
        <time>1970-01-01T00:05:00.000Z</time>
      </trkpt>
      <trkpt lat="41.21697" lon="1.524862">
        <ele>54.3</ele>
        <time>1970-01-01T00:05:01.000Z</time>
      </trkpt>
      <trkpt lat="41.216954" lon="1.524892">
        <ele>54.1</ele>
        <time>1970-01-01T00:05:02.000Z</time>
      </trkpt>
      <trkpt lat="41.216919" lon="1.524856">
        <ele>54.1</ele>
        <time>1970-01-01T00:05:04.000Z</time>
      </trkpt>
      <trkpt lat="41.216913" lon="1.524803">
        <ele>54.1</ele>
        <time>1970-01-01T00:05:05.000Z</time>
      </trkpt>
      <trkpt lat="41.216895" lon="1.524741">
        <ele>54.1</ele>
        <time>1970-01-01T00:05:06.000Z</time>
      </trkpt>
      <trkpt lat="41.216881" lon="1.52468">
        <ele>54.1</ele>
        <time>1970-01-01T00:05:07.000Z</time>
      </trkpt>
      <trkpt lat="41.21687" lon="1.524618">
        <ele>54.1</ele>
        <time>1970-01-01T00:05:08.000Z</time>
      </trkpt>
      <trkpt lat="41.216863" lon="1.524549">
        <ele>54.1</ele>
        <time>1970-01-01T00:05:09.000Z</time>
      </trkpt>
      <trkpt lat="41.216848" lon="1.524487">
        <ele>54.1</ele>
        <time>1970-01-01T00:05:10.000Z</time>
      </trkpt>
      <trkpt lat="41.216838" lon="1.524419">
        <ele>54.1</ele>
        <time>1970-01-01T00:05:11.000Z</time>
      </trkpt>
      <trkpt lat="41.216824" lon="1.524353">
        <ele>54.1</ele>
        <time>1970-01-01T00:05:12.000Z</time>
      </trkpt>
      <trkpt lat="41.216808" lon="1.524295">
        <ele>54.1</ele>
        <time>1970-01-01T00:05:13.000Z</time>
      </trkpt>
      <trkpt lat="41.216798" lon="1.524238">
        <ele>54.1</ele>
        <time>1970-01-01T00:05:14.000Z</time>
      </trkpt>
      <trkpt lat="41.216788" lon="1.524181">
        <ele>54.2</ele>
        <time>1970-01-01T00:05:15.000Z</time>
      </trkpt>
      <trkpt lat="41.216774" lon="1.524123">
        <ele>54.2</ele>
        <time>1970-01-01T00:05:16.000Z</time>
      </trkpt>
      <trkpt lat="41.216759" lon="1.524071">
        <ele>54.2</ele>
        <time>1970-01-01T00:05:17.000Z</time>
      </trkpt>
      <trkpt lat="41.216743" lon="1.524011">
        <ele>54.2</ele>
        <time>1970-01-01T00:05:18.000Z</time>
      </trkpt>
      <trkpt lat="41.216731" lon="1.523947">
        <ele>54.3</ele>
        <time>1970-01-01T00:05:19.000Z</time>
      </trkpt>
      <trkpt lat="41.216721" lon="1.523891">
        <ele>54.3</ele>
        <time>1970-01-01T00:05:20.000Z</time>
      </trkpt>
      <trkpt lat="41.216713" lon="1.523821">
        <ele>54.3</ele>
        <time>1970-01-01T00:05:21.000Z</time>
      </trkpt>
      <trkpt lat="41.216701" lon="1.52376">
        <ele>54.3</ele>
        <time>1970-01-01T00:05:22.000Z</time>
      </trkpt>
      <trkpt lat="41.216685" lon="1.523697">
        <ele>54.4</ele>
        <time>1970-01-01T00:05:23.000Z</time>
      </trkpt>
      <trkpt lat="41.216674" lon="1.523628">
        <ele>54.4</ele>
        <time>1970-01-01T00:05:24.000Z</time>
      </trkpt>
      <trkpt lat="41.216662" lon="1.523562">
        <ele>54.4</ele>
        <time>1970-01-01T00:05:25.000Z</time>
      </trkpt>
      <trkpt lat="41.216649" lon="1.523494">
        <ele>54.4</ele>
        <time>1970-01-01T00:05:26.000Z</time>
      </trkpt>
      <trkpt lat="41.216635" lon="1.523429">
        <ele>54.4</ele>
        <time>1970-01-01T00:05:27.000Z</time>
      </trkpt>
      <trkpt lat="41.216623" lon="1.523347">
        <ele>54.4</ele>
        <time>1970-01-01T00:05:28.000Z</time>
      </trkpt>
      <trkpt lat="41.216603" lon="1.523276">
        <ele>54.4</ele>
        <time>1970-01-01T00:05:29.000Z</time>
      </trkpt>
      <trkpt lat="41.216583" lon="1.523217">
        <ele>54.4</ele>
        <time>1970-01-01T00:05:30.000Z</time>
      </trkpt>
      <trkpt lat="41.216574" lon="1.523153">
        <ele>54.4</ele>
        <time>1970-01-01T00:05:31.000Z</time>
      </trkpt>
      <trkpt lat="41.216565" lon="1.523084">
        <ele>54.4</ele>
        <time>1970-01-01T00:05:32.000Z</time>
      </trkpt>
      <trkpt lat="41.216552" lon="1.523021">
        <ele>54.3</ele>
        <time>1970-01-01T00:05:33.000Z</time>
      </trkpt>
      <trkpt lat="41.216537" lon="1.522953">
        <ele>54.3</ele>
        <time>1970-01-01T00:05:34.000Z</time>
      </trkpt>
      <trkpt lat="41.21652" lon="1.522893">
        <ele>54.3</ele>
        <time>1970-01-01T00:05:35.000Z</time>
      </trkpt>
      <trkpt lat="41.216495" lon="1.522829">
        <ele>54.2</ele>
        <time>1970-01-01T00:05:36.000Z</time>
      </trkpt>
      <trkpt lat="41.216455" lon="1.522769">
        <ele>54.1</ele>
        <time>1970-01-01T00:05:37.000Z</time>
      </trkpt>
      <trkpt lat="41.216398" lon="1.522757">
        <ele>53.9</ele>
        <time>1970-01-01T00:05:38.000Z</time>
      </trkpt>
      <trkpt lat="41.216332" lon="1.522795">
        <ele>53.7</ele>
        <time>1970-01-01T00:05:39.000Z</time>
      </trkpt>
      <trkpt lat="41.21627" lon="1.522838">
        <ele>53.5</ele>
        <time>1970-01-01T00:05:40.000Z</time>
      </trkpt>
      <trkpt lat="41.216209" lon="1.522866">
        <ele>53.4</ele>
        <time>1970-01-01T00:05:41.000Z</time>
      </trkpt>
      <trkpt lat="41.216157" lon="1.522889">
        <ele>53.3</ele>
        <time>1970-01-01T00:05:42.000Z</time>
      </trkpt>
      <trkpt lat="41.216096" lon="1.52292">
        <ele>53.1</ele>
        <time>1970-01-01T00:05:43.000Z</time>
      </trkpt>
      <trkpt lat="41.216039" lon="1.522935">
        <ele>53</ele>
        <time>1970-01-01T00:05:44.000Z</time>
      </trkpt>
      <trkpt lat="41.21599" lon="1.522962">
        <ele>52.9</ele>
        <time>1970-01-01T00:05:45.000Z</time>
      </trkpt>
      <trkpt lat="41.215939" lon="1.52298">
        <ele>52.8</ele>
        <time>1970-01-01T00:05:46.000Z</time>
      </trkpt>
      <trkpt lat="41.21589" lon="1.523011">
        <ele>52.6</ele>
        <time>1970-01-01T00:05:47.000Z</time>
      </trkpt>
      <trkpt lat="41.21584" lon="1.523021">
        <ele>52.5</ele>
        <time>1970-01-01T00:05:48.000Z</time>
      </trkpt>
      <trkpt lat="41.215785" lon="1.523034">
        <ele>52.3</ele>
        <time>1970-01-01T00:05:49.000Z</time>
      </trkpt>
      <trkpt lat="41.215733" lon="1.523027">
        <ele>52.2</ele>
        <time>1970-01-01T00:05:50.000Z</time>
      </trkpt>
      <trkpt lat="41.215685" lon="1.522999">
        <ele>52</ele>
        <time>1970-01-01T00:05:51.000Z</time>
      </trkpt>
      <trkpt lat="41.215644" lon="1.522944">
        <ele>52.2</ele>
        <time>1970-01-01T00:05:52.000Z</time>
      </trkpt>
      <trkpt lat="41.215634" lon="1.522884">
        <ele>52.3</ele>
        <time>1970-01-01T00:05:53.000Z</time>
      </trkpt>
      <trkpt lat="41.21564" lon="1.522809">
        <ele>52.5</ele>
        <time>1970-01-01T00:05:54.000Z</time>
      </trkpt>
      <trkpt lat="41.215648" lon="1.522739">
        <ele>52.7</ele>
        <time>1970-01-01T00:05:55.000Z</time>
      </trkpt>
      <trkpt lat="41.215655" lon="1.522676">
        <ele>52.8</ele>
        <time>1970-01-01T00:05:56.000Z</time>
      </trkpt>
      <trkpt lat="41.215663" lon="1.522607">
        <ele>53.1</ele>
        <time>1970-01-01T00:05:57.000Z</time>
      </trkpt>
      <trkpt lat="41.215671" lon="1.522547">
        <ele>53.2</ele>
        <time>1970-01-01T00:05:58.000Z</time>
      </trkpt>
      <trkpt lat="41.215679" lon="1.522484">
        <ele>53.3</ele>
        <time>1970-01-01T00:05:59.000Z</time>
      </trkpt>
      <trkpt lat="41.215686" lon="1.522424">
        <ele>53.5</ele>
        <time>1970-01-01T00:06:00.000Z</time>
      </trkpt>
      <trkpt lat="41.215689" lon="1.522362">
        <ele>53.6</ele>
        <time>1970-01-01T00:06:01.000Z</time>
      </trkpt>
      <trkpt lat="41.215695" lon="1.522304">
        <ele>53.8</ele>
        <time>1970-01-01T00:06:02.000Z</time>
      </trkpt>
      <trkpt lat="41.215689" lon="1.522253">
        <ele>53.9</ele>
        <time>1970-01-01T00:06:03.000Z</time>
      </trkpt>
      <trkpt lat="41.215695" lon="1.522189">
        <ele>54.1</ele>
        <time>1970-01-01T00:06:04.000Z</time>
      </trkpt>
      <trkpt lat="41.215698" lon="1.522126">
        <ele>54.2</ele>
        <time>1970-01-01T00:06:05.000Z</time>
      </trkpt>
      <trkpt lat="41.215705" lon="1.522071">
        <ele>54.3</ele>
        <time>1970-01-01T00:06:06.000Z</time>
      </trkpt>
      <trkpt lat="41.215709" lon="1.522013">
        <ele>54.5</ele>
        <time>1970-01-01T00:06:07.000Z</time>
      </trkpt>
      <trkpt lat="41.215709" lon="1.521949">
        <ele>54.6</ele>
        <time>1970-01-01T00:06:08.000Z</time>
      </trkpt>
      <trkpt lat="41.215712" lon="1.521886">
        <ele>54.8</ele>
        <time>1970-01-01T00:06:09.000Z</time>
      </trkpt>
      <trkpt lat="41.215711" lon="1.521826">
        <ele>54.9</ele>
        <time>1970-01-01T00:06:10.000Z</time>
      </trkpt>
      <trkpt lat="41.215712" lon="1.521774">
        <ele>55.1</ele>
        <time>1970-01-01T00:06:11.000Z</time>
      </trkpt>
      <trkpt lat="41.215712" lon="1.521721">
        <ele>55.2</ele>
        <time>1970-01-01T00:06:12.000Z</time>
      </trkpt>
      <trkpt lat="41.215713" lon="1.521674">
        <ele>55.3</ele>
        <time>1970-01-01T00:06:13.000Z</time>
      </trkpt>
      <trkpt lat="41.215723" lon="1.521616">
        <ele>55.5</ele>
        <time>1970-01-01T00:06:14.000Z</time>
      </trkpt>
      <trkpt lat="41.215731" lon="1.521559">
        <ele>55.6</ele>
        <time>1970-01-01T00:06:15.000Z</time>
      </trkpt>
      <trkpt lat="41.215738" lon="1.521505">
        <ele>55.8</ele>
        <time>1970-01-01T00:06:16.000Z</time>
      </trkpt>
      <trkpt lat="41.215746" lon="1.521451">
        <ele>55.9</ele>
        <time>1970-01-01T00:06:17.000Z</time>
      </trkpt>
      <trkpt lat="41.215746" lon="1.521406">
        <ele>56</ele>
        <time>1970-01-01T00:06:18.000Z</time>
      </trkpt>
      <trkpt lat="41.215751" lon="1.521345">
        <ele>56.2</ele>
        <time>1970-01-01T00:06:19.000Z</time>
      </trkpt>
      <trkpt lat="41.215757" lon="1.521286">
        <ele>56.3</ele>
        <time>1970-01-01T00:06:20.000Z</time>
      </trkpt>
      <trkpt lat="41.215762" lon="1.521232">
        <ele>56.5</ele>
        <time>1970-01-01T00:06:21.000Z</time>
      </trkpt>
      <trkpt lat="41.215766" lon="1.521179">
        <ele>56.6</ele>
        <time>1970-01-01T00:06:22.000Z</time>
      </trkpt>
      <trkpt lat="41.215769" lon="1.521116">
        <ele>56.7</ele>
        <time>1970-01-01T00:06:23.000Z</time>
      </trkpt>
      <trkpt lat="41.215772" lon="1.521064">
        <ele>56.9</ele>
        <time>1970-01-01T00:06:24.000Z</time>
      </trkpt>
      <trkpt lat="41.215775" lon="1.521011">
        <ele>57</ele>
        <time>1970-01-01T00:06:25.000Z</time>
      </trkpt>
      <trkpt lat="41.215779" lon="1.520954">
        <ele>57.1</ele>
        <time>1970-01-01T00:06:26.000Z</time>
      </trkpt>
      <trkpt lat="41.215778" lon="1.520903">
        <ele>57.3</ele>
        <time>1970-01-01T00:06:27.000Z</time>
      </trkpt>
      <trkpt lat="41.215778" lon="1.52085">
        <ele>57.4</ele>
        <time>1970-01-01T00:06:28.000Z</time>
      </trkpt>
      <trkpt lat="41.215787" lon="1.520788">
        <ele>57.6</ele>
        <time>1970-01-01T00:06:29.000Z</time>
      </trkpt>
      <trkpt lat="41.215786" lon="1.520734">
        <ele>57.7</ele>
        <time>1970-01-01T00:06:30.000Z</time>
      </trkpt>
      <trkpt lat="41.215788" lon="1.520683">
        <ele>57.8</ele>
        <time>1970-01-01T00:06:31.000Z</time>
      </trkpt>
      <trkpt lat="41.215788" lon="1.520631">
        <ele>58</ele>
        <time>1970-01-01T00:06:32.000Z</time>
      </trkpt>
      <trkpt lat="41.215792" lon="1.520579">
        <ele>58.1</ele>
        <time>1970-01-01T00:06:33.000Z</time>
      </trkpt>
      <trkpt lat="41.215792" lon="1.520537">
        <ele>58.2</ele>
        <time>1970-01-01T00:06:34.000Z</time>
      </trkpt>
      <trkpt lat="41.215794" lon="1.520484">
        <ele>58.4</ele>
        <time>1970-01-01T00:06:35.000Z</time>
      </trkpt>
      <trkpt lat="41.215793" lon="1.520417">
        <ele>58.6</ele>
        <time>1970-01-01T00:06:36.000Z</time>
      </trkpt>
      <trkpt lat="41.215789" lon="1.520352">
        <ele>58.8</ele>
        <time>1970-01-01T00:06:37.000Z</time>
      </trkpt>
      <trkpt lat="41.21578" lon="1.520285">
        <ele>59</ele>
        <time>1970-01-01T00:06:38.000Z</time>
      </trkpt>
      <trkpt lat="41.215779" lon="1.520228">
        <ele>59.2</ele>
        <time>1970-01-01T00:06:39.000Z</time>
      </trkpt>
      <trkpt lat="41.215773" lon="1.520171">
        <ele>59.3</ele>
        <time>1970-01-01T00:06:40.000Z</time>
      </trkpt>
      <trkpt lat="41.215765" lon="1.520118">
        <ele>59.5</ele>
        <time>1970-01-01T00:06:41.000Z</time>
      </trkpt>
      <trkpt lat="41.215765" lon="1.520063">
        <ele>59.6</ele>
        <time>1970-01-01T00:06:42.000Z</time>
      </trkpt>
      <trkpt lat="41.215767" lon="1.520014">
        <ele>59.7</ele>
        <time>1970-01-01T00:06:43.000Z</time>
      </trkpt>
      <trkpt lat="41.215774" lon="1.519956">
        <ele>59.8</ele>
        <time>1970-01-01T00:06:44.000Z</time>
      </trkpt>
      <trkpt lat="41.215775" lon="1.5199">
        <ele>59.9</ele>
        <time>1970-01-01T00:06:45.000Z</time>
      </trkpt>
      <trkpt lat="41.215777" lon="1.519837">
        <ele>60.1</ele>
        <time>1970-01-01T00:06:46.000Z</time>
      </trkpt>
      <trkpt lat="41.215775" lon="1.519783">
        <ele>60.2</ele>
        <time>1970-01-01T00:06:47.000Z</time>
      </trkpt>
      <trkpt lat="41.215771" lon="1.519719">
        <ele>60.4</ele>
        <time>1970-01-01T00:06:48.000Z</time>
      </trkpt>
      <trkpt lat="41.21577" lon="1.519667">
        <ele>60.5</ele>
        <time>1970-01-01T00:06:49.000Z</time>
      </trkpt>
      <trkpt lat="41.215766" lon="1.519606">
        <ele>60.7</ele>
        <time>1970-01-01T00:06:50.000Z</time>
      </trkpt>
      <trkpt lat="41.215769" lon="1.519547">
        <ele>60.8</ele>
        <time>1970-01-01T00:06:51.000Z</time>
      </trkpt>
      <trkpt lat="41.215765" lon="1.519493">
        <ele>60.9</ele>
        <time>1970-01-01T00:06:52.000Z</time>
      </trkpt>
      <trkpt lat="41.215762" lon="1.519436">
        <ele>61.1</ele>
        <time>1970-01-01T00:06:53.000Z</time>
      </trkpt>
      <trkpt lat="41.215762" lon="1.519382">
        <ele>61.2</ele>
        <time>1970-01-01T00:06:54.000Z</time>
      </trkpt>
      <trkpt lat="41.215759" lon="1.519328">
        <ele>61.3</ele>
        <time>1970-01-01T00:06:55.000Z</time>
      </trkpt>
      <trkpt lat="41.215756" lon="1.519266">
        <ele>61.5</ele>
        <time>1970-01-01T00:06:56.000Z</time>
      </trkpt>
      <trkpt lat="41.215754" lon="1.519203">
        <ele>61.7</ele>
        <time>1970-01-01T00:06:57.000Z</time>
      </trkpt>
      <trkpt lat="41.215751" lon="1.519143">
        <ele>61.9</ele>
        <time>1970-01-01T00:06:58.000Z</time>
      </trkpt>
      <trkpt lat="41.215746" lon="1.519085">
        <ele>62</ele>
        <time>1970-01-01T00:06:59.000Z</time>
      </trkpt>
      <trkpt lat="41.215749" lon="1.519028">
        <ele>62.1</ele>
        <time>1970-01-01T00:07:00.000Z</time>
      </trkpt>
      <trkpt lat="41.215747" lon="1.518974">
        <ele>62.2</ele>
        <time>1970-01-01T00:07:01.000Z</time>
      </trkpt>
      <trkpt lat="41.215747" lon="1.518901">
        <ele>62.3</ele>
        <time>1970-01-01T00:07:02.000Z</time>
      </trkpt>
      <trkpt lat="41.215744" lon="1.518841">
        <ele>62.4</ele>
        <time>1970-01-01T00:07:03.000Z</time>
      </trkpt>
      <trkpt lat="41.215737" lon="1.51878">
        <ele>62.5</ele>
        <time>1970-01-01T00:07:04.000Z</time>
      </trkpt>
      <trkpt lat="41.215736" lon="1.518718">
        <ele>62.6</ele>
        <time>1970-01-01T00:07:05.000Z</time>
      </trkpt>
      <trkpt lat="41.215728" lon="1.518666">
        <ele>62.7</ele>
        <time>1970-01-01T00:07:06.000Z</time>
      </trkpt>
      <trkpt lat="41.215733" lon="1.518611">
        <ele>62.9</ele>
        <time>1970-01-01T00:07:07.000Z</time>
      </trkpt>
      <trkpt lat="41.215732" lon="1.518545">
        <ele>63</ele>
        <time>1970-01-01T00:07:08.000Z</time>
      </trkpt>
      <trkpt lat="41.215729" lon="1.518494">
        <ele>63.1</ele>
        <time>1970-01-01T00:07:09.000Z</time>
      </trkpt>
      <trkpt lat="41.215728" lon="1.51844">
        <ele>63.2</ele>
        <time>1970-01-01T00:07:10.000Z</time>
      </trkpt>
      <trkpt lat="41.215727" lon="1.518378">
        <ele>63.4</ele>
        <time>1970-01-01T00:07:11.000Z</time>
      </trkpt>
      <trkpt lat="41.215731" lon="1.518315">
        <ele>63.6</ele>
        <time>1970-01-01T00:07:12.000Z</time>
      </trkpt>
      <trkpt lat="41.215733" lon="1.518251">
        <ele>63.7</ele>
        <time>1970-01-01T00:07:13.000Z</time>
      </trkpt>
      <trkpt lat="41.215733" lon="1.518184">
        <ele>64</ele>
        <time>1970-01-01T00:07:14.000Z</time>
      </trkpt>
      <trkpt lat="41.215733" lon="1.518123">
        <ele>64.1</ele>
        <time>1970-01-01T00:07:15.000Z</time>
      </trkpt>
      <trkpt lat="41.215729" lon="1.518065">
        <ele>64.3</ele>
        <time>1970-01-01T00:07:16.000Z</time>
      </trkpt>
      <trkpt lat="41.215727" lon="1.518008">
        <ele>64.4</ele>
        <time>1970-01-01T00:07:17.000Z</time>
      </trkpt>
      <trkpt lat="41.215723" lon="1.517949">
        <ele>64.6</ele>
        <time>1970-01-01T00:07:18.000Z</time>
      </trkpt>
      <trkpt lat="41.215716" lon="1.517898">
        <ele>64.7</ele>
        <time>1970-01-01T00:07:19.000Z</time>
      </trkpt>
      <trkpt lat="41.215701" lon="1.517847">
        <ele>64.9</ele>
        <time>1970-01-01T00:07:20.000Z</time>
      </trkpt>
      <trkpt lat="41.215688" lon="1.517793">
        <ele>65</ele>
        <time>1970-01-01T00:07:21.000Z</time>
      </trkpt>
      <trkpt lat="41.215671" lon="1.517733">
        <ele>65.2</ele>
        <time>1970-01-01T00:07:22.000Z</time>
      </trkpt>
      <trkpt lat="41.215653" lon="1.517682">
        <ele>65.4</ele>
        <time>1970-01-01T00:07:23.000Z</time>
      </trkpt>
      <trkpt lat="41.215632" lon="1.517628">
        <ele>65.5</ele>
        <time>1970-01-01T00:07:24.000Z</time>
      </trkpt>
      <trkpt lat="41.215615" lon="1.517571">
        <ele>65.7</ele>
        <time>1970-01-01T00:07:25.000Z</time>
      </trkpt>
      <trkpt lat="41.215602" lon="1.517517">
        <ele>65.8</ele>
        <time>1970-01-01T00:07:26.000Z</time>
      </trkpt>
      <trkpt lat="41.215591" lon="1.517468">
        <ele>66</ele>
        <time>1970-01-01T00:07:27.000Z</time>
      </trkpt>
      <trkpt lat="41.215575" lon="1.517427">
        <ele>66.2</ele>
        <time>1970-01-01T00:07:28.000Z</time>
      </trkpt>
      <trkpt lat="41.215559" lon="1.517387">
        <ele>66.3</ele>
        <time>1970-01-01T00:07:29.000Z</time>
      </trkpt>
      <trkpt lat="41.215548" lon="1.517346">
        <ele>66.5</ele>
        <time>1970-01-01T00:07:30.000Z</time>
      </trkpt>
      <trkpt lat="41.215533" lon="1.517293">
        <ele>66.6</ele>
        <time>1970-01-01T00:07:31.000Z</time>
      </trkpt>
      <trkpt lat="41.215514" lon="1.517243">
        <ele>66.8</ele>
        <time>1970-01-01T00:07:32.000Z</time>
      </trkpt>
      <trkpt lat="41.215505" lon="1.517187">
        <ele>66.9</ele>
        <time>1970-01-01T00:07:33.000Z</time>
      </trkpt>
      <trkpt lat="41.215493" lon="1.51713">
        <ele>67.2</ele>
        <time>1970-01-01T00:07:34.000Z</time>
      </trkpt>
      <trkpt lat="41.215478" lon="1.517073">
        <ele>67.4</ele>
        <time>1970-01-01T00:07:35.000Z</time>
      </trkpt>
      <trkpt lat="41.215465" lon="1.517018">
        <ele>67.6</ele>
        <time>1970-01-01T00:07:36.000Z</time>
      </trkpt>
      <trkpt lat="41.215452" lon="1.516964">
        <ele>67.9</ele>
        <time>1970-01-01T00:07:37.000Z</time>
      </trkpt>
      <trkpt lat="41.215439" lon="1.516911">
        <ele>68.1</ele>
        <time>1970-01-01T00:07:38.000Z</time>
      </trkpt>
      <trkpt lat="41.215423" lon="1.516866">
        <ele>68.3</ele>
        <time>1970-01-01T00:07:39.000Z</time>
      </trkpt>
      <trkpt lat="41.215411" lon="1.516818">
        <ele>68.6</ele>
        <time>1970-01-01T00:07:40.000Z</time>
      </trkpt>
      <trkpt lat="41.215397" lon="1.516776">
        <ele>68.9</ele>
        <time>1970-01-01T00:07:41.000Z</time>
      </trkpt>
      <trkpt lat="41.215385" lon="1.51674">
        <ele>69</ele>
        <time>1970-01-01T00:07:42.000Z</time>
      </trkpt>
      <trkpt lat="41.215377" lon="1.516686">
        <ele>69.3</ele>
        <time>1970-01-01T00:07:43.000Z</time>
      </trkpt>
      <trkpt lat="41.215364" lon="1.516638">
        <ele>69.6</ele>
        <time>1970-01-01T00:07:44.000Z</time>
      </trkpt>
      <trkpt lat="41.215354" lon="1.516598">
        <ele>69.8</ele>
        <time>1970-01-01T00:07:45.000Z</time>
      </trkpt>
      <trkpt lat="41.215341" lon="1.516554">
        <ele>70</ele>
        <time>1970-01-01T00:07:46.000Z</time>
      </trkpt>
      <trkpt lat="41.215333" lon="1.516508">
        <ele>70.2</ele>
        <time>1970-01-01T00:07:47.000Z</time>
      </trkpt>
      <trkpt lat="41.215321" lon="1.516469">
        <ele>70.3</ele>
        <time>1970-01-01T00:07:48.000Z</time>
      </trkpt>
      <trkpt lat="41.215307" lon="1.516426">
        <ele>70.5</ele>
        <time>1970-01-01T00:07:49.000Z</time>
      </trkpt>
      <trkpt lat="41.215295" lon="1.51638">
        <ele>70.7</ele>
        <time>1970-01-01T00:07:50.000Z</time>
      </trkpt>
      <trkpt lat="41.215284" lon="1.516336">
        <ele>70.9</ele>
        <time>1970-01-01T00:07:51.000Z</time>
      </trkpt>
      <trkpt lat="41.215268" lon="1.516299">
        <ele>71</ele>
        <time>1970-01-01T00:07:52.000Z</time>
      </trkpt>
      <trkpt lat="41.215254" lon="1.516251">
        <ele>71.2</ele>
        <time>1970-01-01T00:07:53.000Z</time>
      </trkpt>
      <trkpt lat="41.215234" lon="1.516202">
        <ele>71.5</ele>
        <time>1970-01-01T00:07:54.000Z</time>
      </trkpt>
      <trkpt lat="41.215228" lon="1.516161">
        <ele>71.6</ele>
        <time>1970-01-01T00:07:55.000Z</time>
      </trkpt>
      <trkpt lat="41.215214" lon="1.516116">
        <ele>71.8</ele>
        <time>1970-01-01T00:07:56.000Z</time>
      </trkpt>
      <trkpt lat="41.215196" lon="1.516068">
        <ele>72</ele>
        <time>1970-01-01T00:07:57.000Z</time>
      </trkpt>
      <trkpt lat="41.215183" lon="1.516018">
        <ele>72.2</ele>
        <time>1970-01-01T00:07:58.000Z</time>
      </trkpt>
      <trkpt lat="41.215169" lon="1.515981">
        <ele>72.4</ele>
        <time>1970-01-01T00:07:59.000Z</time>
      </trkpt>
      <trkpt lat="41.215161" lon="1.515907">
        <ele>72.6</ele>
        <time>1970-01-01T00:08:01.000Z</time>
      </trkpt>
      <trkpt lat="41.215167" lon="1.515856">
        <ele>72.8</ele>
        <time>1970-01-01T00:08:02.000Z</time>
      </trkpt>
      <trkpt lat="41.215172" lon="1.515814">
        <ele>73</ele>
        <time>1970-01-01T00:08:03.000Z</time>
      </trkpt>
      <trkpt lat="41.215187" lon="1.51577">
        <ele>73.1</ele>
        <time>1970-01-01T00:08:04.000Z</time>
      </trkpt>
      <trkpt lat="41.215193" lon="1.515726">
        <ele>73.2</ele>
        <time>1970-01-01T00:08:05.000Z</time>
      </trkpt>
      <trkpt lat="41.215195" lon="1.515675">
        <ele>73.2</ele>
        <time>1970-01-01T00:08:06.000Z</time>
      </trkpt>
      <trkpt lat="41.215204" lon="1.515628">
        <ele>73.4</ele>
        <time>1970-01-01T00:08:07.000Z</time>
      </trkpt>
      <trkpt lat="41.215212" lon="1.515572">
        <ele>73.6</ele>
        <time>1970-01-01T00:08:08.000Z</time>
      </trkpt>
      <trkpt lat="41.215216" lon="1.51552">
        <ele>73.8</ele>
        <time>1970-01-01T00:08:09.000Z</time>
      </trkpt>
      <trkpt lat="41.215203" lon="1.515463">
        <ele>74</ele>
        <time>1970-01-01T00:08:10.000Z</time>
      </trkpt>
      <trkpt lat="41.215187" lon="1.515412">
        <ele>74.1</ele>
        <time>1970-01-01T00:08:11.000Z</time>
      </trkpt>
      <trkpt lat="41.215163" lon="1.515367">
        <ele>74.3</ele>
        <time>1970-01-01T00:08:12.000Z</time>
      </trkpt>
      <trkpt lat="41.215141" lon="1.515322">
        <ele>74.4</ele>
        <time>1970-01-01T00:08:13.000Z</time>
      </trkpt>
      <trkpt lat="41.215127" lon="1.515271">
        <ele>74.6</ele>
        <time>1970-01-01T00:08:14.000Z</time>
      </trkpt>
      <trkpt lat="41.215118" lon="1.515223">
        <ele>74.7</ele>
        <time>1970-01-01T00:08:15.000Z</time>
      </trkpt>
      <trkpt lat="41.215099" lon="1.515177">
        <ele>74.8</ele>
        <time>1970-01-01T00:08:16.000Z</time>
      </trkpt>
      <trkpt lat="41.215083" lon="1.51514">
        <ele>74.9</ele>
        <time>1970-01-01T00:08:17.000Z</time>
      </trkpt>
      <trkpt lat="41.215062" lon="1.515091">
        <ele>75</ele>
        <time>1970-01-01T00:08:18.000Z</time>
      </trkpt>
      <trkpt lat="41.215045" lon="1.515052">
        <ele>75.1</ele>
        <time>1970-01-01T00:08:19.000Z</time>
      </trkpt>
      <trkpt lat="41.215026" lon="1.515013">
        <ele>75.2</ele>
        <time>1970-01-01T00:08:20.000Z</time>
      </trkpt>
      <trkpt lat="41.215002" lon="1.514972">
        <ele>75.3</ele>
        <time>1970-01-01T00:08:21.000Z</time>
      </trkpt>
      <trkpt lat="41.214983" lon="1.514932">
        <ele>75.4</ele>
        <time>1970-01-01T00:08:22.000Z</time>
      </trkpt>
      <trkpt lat="41.214965" lon="1.514873">
        <ele>75.6</ele>
        <time>1970-01-01T00:08:23.000Z</time>
      </trkpt>
      <trkpt lat="41.214944" lon="1.514827">
        <ele>75.7</ele>
        <time>1970-01-01T00:08:24.000Z</time>
      </trkpt>
      <trkpt lat="41.214924" lon="1.514786">
        <ele>75.8</ele>
        <time>1970-01-01T00:08:25.000Z</time>
      </trkpt>
      <trkpt lat="41.2149" lon="1.51476">
        <ele>75.9</ele>
        <time>1970-01-01T00:08:26.000Z</time>
      </trkpt>
      <trkpt lat="41.214874" lon="1.514719">
        <ele>76.1</ele>
        <time>1970-01-01T00:08:27.000Z</time>
      </trkpt>
      <trkpt lat="41.214854" lon="1.51466">
        <ele>76.2</ele>
        <time>1970-01-01T00:08:28.000Z</time>
      </trkpt>
      <trkpt lat="41.214827" lon="1.514618">
        <ele>76.4</ele>
        <time>1970-01-01T00:08:29.000Z</time>
      </trkpt>
      <trkpt lat="41.214801" lon="1.51457">
        <ele>76.5</ele>
        <time>1970-01-01T00:08:30.000Z</time>
      </trkpt>
      <trkpt lat="41.214776" lon="1.51453">
        <ele>76.7</ele>
        <time>1970-01-01T00:08:31.000Z</time>
      </trkpt>
      <trkpt lat="41.214747" lon="1.514483">
        <ele>76.8</ele>
        <time>1970-01-01T00:08:32.000Z</time>
      </trkpt>
      <trkpt lat="41.21472" lon="1.514439">
        <ele>77</ele>
        <time>1970-01-01T00:08:33.000Z</time>
      </trkpt>
      <trkpt lat="41.214697" lon="1.514398">
        <ele>77.2</ele>
        <time>1970-01-01T00:08:34.000Z</time>
      </trkpt>
      <trkpt lat="41.214671" lon="1.514349">
        <ele>77.4</ele>
        <time>1970-01-01T00:08:35.000Z</time>
      </trkpt>
      <trkpt lat="41.214653" lon="1.514299">
        <ele>77.6</ele>
        <time>1970-01-01T00:08:36.000Z</time>
      </trkpt>
      <trkpt lat="41.214631" lon="1.514255">
        <ele>77.7</ele>
        <time>1970-01-01T00:08:37.000Z</time>
      </trkpt>
      <trkpt lat="41.214612" lon="1.514213">
        <ele>77.9</ele>
        <time>1970-01-01T00:08:38.000Z</time>
      </trkpt>
      <trkpt lat="41.214589" lon="1.514171">
        <ele>78.1</ele>
        <time>1970-01-01T00:08:39.000Z</time>
      </trkpt>
      <trkpt lat="41.214566" lon="1.514128">
        <ele>78.3</ele>
        <time>1970-01-01T00:08:40.000Z</time>
      </trkpt>
      <trkpt lat="41.214547" lon="1.514087">
        <ele>78.5</ele>
        <time>1970-01-01T00:08:41.000Z</time>
      </trkpt>
      <trkpt lat="41.214523" lon="1.514049">
        <ele>78.6</ele>
        <time>1970-01-01T00:08:42.000Z</time>
      </trkpt>
      <trkpt lat="41.214496" lon="1.51402">
        <ele>78.8</ele>
        <time>1970-01-01T00:08:43.000Z</time>
      </trkpt>
      <trkpt lat="41.214476" lon="1.513986">
        <ele>78.9</ele>
        <time>1970-01-01T00:08:44.000Z</time>
      </trkpt>
      <trkpt lat="41.214443" lon="1.513949">
        <ele>79.1</ele>
        <time>1970-01-01T00:08:45.000Z</time>
      </trkpt>
      <trkpt lat="41.214421" lon="1.513906">
        <ele>79.2</ele>
        <time>1970-01-01T00:08:46.000Z</time>
      </trkpt>
      <trkpt lat="41.214403" lon="1.513864">
        <ele>79.3</ele>
        <time>1970-01-01T00:08:47.000Z</time>
      </trkpt>
      <trkpt lat="41.214382" lon="1.513821">
        <ele>79.5</ele>
        <time>1970-01-01T00:08:48.000Z</time>
      </trkpt>
      <trkpt lat="41.214355" lon="1.513783">
        <ele>79.6</ele>
        <time>1970-01-01T00:08:49.000Z</time>
      </trkpt>
      <trkpt lat="41.214333" lon="1.513754">
        <ele>79.7</ele>
        <time>1970-01-01T00:08:50.000Z</time>
      </trkpt>
      <trkpt lat="41.214296" lon="1.513722">
        <ele>79.8</ele>
        <time>1970-01-01T00:08:51.000Z</time>
      </trkpt>
      <trkpt lat="41.214261" lon="1.513692">
        <ele>79.9</ele>
        <time>1970-01-01T00:08:52.000Z</time>
      </trkpt>
      <trkpt lat="41.214223" lon="1.513664">
        <ele>80</ele>
        <time>1970-01-01T00:08:53.000Z</time>
      </trkpt>
      <trkpt lat="41.214184" lon="1.513636">
        <ele>80.1</ele>
        <time>1970-01-01T00:08:54.000Z</time>
      </trkpt>
      <trkpt lat="41.214146" lon="1.513608">
        <ele>80.2</ele>
        <time>1970-01-01T00:08:55.000Z</time>
      </trkpt>
      <trkpt lat="41.214118" lon="1.513588">
        <ele>80.3</ele>
        <time>1970-01-01T00:08:56.000Z</time>
      </trkpt>
      <trkpt lat="41.214083" lon="1.513567">
        <ele>80.3</ele>
        <time>1970-01-01T00:08:57.000Z</time>
      </trkpt>
      <trkpt lat="41.214047" lon="1.513546">
        <ele>80.4</ele>
        <time>1970-01-01T00:08:58.000Z</time>
      </trkpt>
      <trkpt lat="41.214017" lon="1.513527">
        <ele>80.5</ele>
        <time>1970-01-01T00:08:59.000Z</time>
      </trkpt>
      <trkpt lat="41.213981" lon="1.513507">
        <ele>80.6</ele>
        <time>1970-01-01T00:09:00.000Z</time>
      </trkpt>
      <trkpt lat="41.213943" lon="1.513482">
        <ele>80.7</ele>
        <time>1970-01-01T00:09:01.000Z</time>
      </trkpt>
      <trkpt lat="41.213909" lon="1.513457">
        <ele>80.8</ele>
        <time>1970-01-01T00:09:02.000Z</time>
      </trkpt>
      <trkpt lat="41.213871" lon="1.513432">
        <ele>81</ele>
        <time>1970-01-01T00:09:03.000Z</time>
      </trkpt>
      <trkpt lat="41.213837" lon="1.513407">
        <ele>81.1</ele>
        <time>1970-01-01T00:09:04.000Z</time>
      </trkpt>
      <trkpt lat="41.213809" lon="1.51338">
        <ele>81.2</ele>
        <time>1970-01-01T00:09:05.000Z</time>
      </trkpt>
      <trkpt lat="41.213778" lon="1.513347">
        <ele>81.4</ele>
        <time>1970-01-01T00:09:06.000Z</time>
      </trkpt>
      <trkpt lat="41.213753" lon="1.51332">
        <ele>81.5</ele>
        <time>1970-01-01T00:09:07.000Z</time>
      </trkpt>
      <trkpt lat="41.213726" lon="1.51328">
        <ele>81.7</ele>
        <time>1970-01-01T00:09:08.000Z</time>
      </trkpt>
      <trkpt lat="41.213689" lon="1.513245">
        <ele>81.9</ele>
        <time>1970-01-01T00:09:09.000Z</time>
      </trkpt>
      <trkpt lat="41.213661" lon="1.513218">
        <ele>82</ele>
        <time>1970-01-01T00:09:10.000Z</time>
      </trkpt>
      <trkpt lat="41.213628" lon="1.513183">
        <ele>82.2</ele>
        <time>1970-01-01T00:09:11.000Z</time>
      </trkpt>
      <trkpt lat="41.213597" lon="1.513147">
        <ele>82.4</ele>
        <time>1970-01-01T00:09:12.000Z</time>
      </trkpt>
      <trkpt lat="41.213579" lon="1.513111">
        <ele>82.5</ele>
        <time>1970-01-01T00:09:13.000Z</time>
      </trkpt>
      <trkpt lat="41.213543" lon="1.513084">
        <ele>82.6</ele>
        <time>1970-01-01T00:09:14.000Z</time>
      </trkpt>
      <trkpt lat="41.213502" lon="1.513066">
        <ele>82.8</ele>
        <time>1970-01-01T00:09:15.000Z</time>
      </trkpt>
      <trkpt lat="41.213467" lon="1.513059">
        <ele>82.9</ele>
        <time>1970-01-01T00:09:16.000Z</time>
      </trkpt>
      <trkpt lat="41.213428" lon="1.513053">
        <ele>83.1</ele>
        <time>1970-01-01T00:09:17.000Z</time>
      </trkpt>
      <trkpt lat="41.213393" lon="1.513043">
        <ele>83.3</ele>
        <time>1970-01-01T00:09:18.000Z</time>
      </trkpt>
      <trkpt lat="41.213355" lon="1.513033">
        <ele>83.5</ele>
        <time>1970-01-01T00:09:19.000Z</time>
      </trkpt>
      <trkpt lat="41.213323" lon="1.513021">
        <ele>83.8</ele>
        <time>1970-01-01T00:09:20.000Z</time>
      </trkpt>
      <trkpt lat="41.21329" lon="1.513013">
        <ele>84</ele>
        <time>1970-01-01T00:09:21.000Z</time>
      </trkpt>
      <trkpt lat="41.213254" lon="1.513001">
        <ele>84.2</ele>
        <time>1970-01-01T00:09:22.000Z</time>
      </trkpt>
      <trkpt lat="41.213218" lon="1.512984">
        <ele>84.5</ele>
        <time>1970-01-01T00:09:23.000Z</time>
      </trkpt>
      <trkpt lat="41.213182" lon="1.512983">
        <ele>84.8</ele>
        <time>1970-01-01T00:09:24.000Z</time>
      </trkpt>
      <trkpt lat="41.213144" lon="1.512989">
        <ele>85.1</ele>
        <time>1970-01-01T00:09:25.000Z</time>
      </trkpt>
      <trkpt lat="41.213106" lon="1.513003">
        <ele>85.4</ele>
        <time>1970-01-01T00:09:26.000Z</time>
      </trkpt>
      <trkpt lat="41.213072" lon="1.513014">
        <ele>85.7</ele>
        <time>1970-01-01T00:09:27.000Z</time>
      </trkpt>
      <trkpt lat="41.213033" lon="1.513032">
        <ele>86</ele>
        <time>1970-01-01T00:09:28.000Z</time>
      </trkpt>
      <trkpt lat="41.212996" lon="1.513042">
        <ele>86.3</ele>
        <time>1970-01-01T00:09:29.000Z</time>
      </trkpt>
      <trkpt lat="41.21296" lon="1.513052">
        <ele>86.5</ele>
        <time>1970-01-01T00:09:30.000Z</time>
      </trkpt>
      <trkpt lat="41.212922" lon="1.513046">
        <ele>86.7</ele>
        <time>1970-01-01T00:09:31.000Z</time>
      </trkpt>
      <trkpt lat="41.212883" lon="1.513046">
        <ele>86.9</ele>
        <time>1970-01-01T00:09:32.000Z</time>
      </trkpt>
      <trkpt lat="41.212852" lon="1.513059">
        <ele>87</ele>
        <time>1970-01-01T00:09:33.000Z</time>
      </trkpt>
      <trkpt lat="41.21282" lon="1.51307">
        <ele>87</ele>
        <time>1970-01-01T00:09:34.000Z</time>
      </trkpt>
      <trkpt lat="41.212783" lon="1.513078">
        <ele>87.1</ele>
        <time>1970-01-01T00:09:35.000Z</time>
      </trkpt>
      <trkpt lat="41.212745" lon="1.513084">
        <ele>87.2</ele>
        <time>1970-01-01T00:09:36.000Z</time>
      </trkpt>
      <trkpt lat="41.212706" lon="1.513083">
        <ele>87.2</ele>
        <time>1970-01-01T00:09:37.000Z</time>
      </trkpt>
      <trkpt lat="41.212663" lon="1.513087">
        <ele>87.2</ele>
        <time>1970-01-01T00:09:38.000Z</time>
      </trkpt>
      <trkpt lat="41.21262" lon="1.51308">
        <ele>87.2</ele>
        <time>1970-01-01T00:09:39.000Z</time>
      </trkpt>
      <trkpt lat="41.212579" lon="1.513049">
        <ele>87.2</ele>
        <time>1970-01-01T00:09:40.000Z</time>
      </trkpt>
      <trkpt lat="41.212551" lon="1.513001">
        <ele>87.2</ele>
        <time>1970-01-01T00:09:41.000Z</time>
      </trkpt>
      <trkpt lat="41.212519" lon="1.512955">
        <ele>87.2</ele>
        <time>1970-01-01T00:09:42.000Z</time>
      </trkpt>
      <trkpt lat="41.212494" lon="1.512909">
        <ele>86.9</ele>
        <time>1970-01-01T00:09:43.000Z</time>
      </trkpt>
      <trkpt lat="41.212481" lon="1.512858">
        <ele>86.7</ele>
        <time>1970-01-01T00:09:44.000Z</time>
      </trkpt>
      <trkpt lat="41.212471" lon="1.51281">
        <ele>86.5</ele>
        <time>1970-01-01T00:09:45.000Z</time>
      </trkpt>
      <trkpt lat="41.212487" lon="1.512756">
        <ele>86.4</ele>
        <time>1970-01-01T00:09:46.000Z</time>
      </trkpt>
      <trkpt lat="41.212494" lon="1.512688">
        <ele>86.4</ele>
        <time>1970-01-01T00:09:47.000Z</time>
      </trkpt>
      <trkpt lat="41.212497" lon="1.512621">
        <ele>86.4</ele>
        <time>1970-01-01T00:09:48.000Z</time>
      </trkpt>
      <trkpt lat="41.212508" lon="1.512561">
        <ele>86.4</ele>
        <time>1970-01-01T00:09:49.000Z</time>
      </trkpt>
      <trkpt lat="41.212518" lon="1.512499">
        <ele>86.3</ele>
        <time>1970-01-01T00:09:50.000Z</time>
      </trkpt>
      <trkpt lat="41.212524" lon="1.512455">
        <ele>86.3</ele>
        <time>1970-01-01T00:09:51.000Z</time>
      </trkpt>
      <trkpt lat="41.212531" lon="1.512392">
        <ele>86.3</ele>
        <time>1970-01-01T00:09:52.000Z</time>
      </trkpt>
      <trkpt lat="41.212533" lon="1.512326">
        <ele>86.3</ele>
        <time>1970-01-01T00:09:53.000Z</time>
      </trkpt>
      <trkpt lat="41.212533" lon="1.512255">
        <ele>86.2</ele>
        <time>1970-01-01T00:09:54.000Z</time>
      </trkpt>
      <trkpt lat="41.212541" lon="1.51219">
        <ele>86.2</ele>
        <time>1970-01-01T00:09:55.000Z</time>
      </trkpt>
      <trkpt lat="41.212551" lon="1.512127">
        <ele>86.1</ele>
        <time>1970-01-01T00:09:56.000Z</time>
      </trkpt>
      <trkpt lat="41.212561" lon="1.512065">
        <ele>86.1</ele>
        <time>1970-01-01T00:09:57.000Z</time>
      </trkpt>
      <trkpt lat="41.212589" lon="1.512024">
        <ele>86.1</ele>
        <time>1970-01-01T00:09:58.000Z</time>
      </trkpt>
      <trkpt lat="41.212632" lon="1.512006">
        <ele>86.1</ele>
        <time>1970-01-01T00:09:59.000Z</time>
      </trkpt>
      <trkpt lat="41.212684" lon="1.512013">
        <ele>86.1</ele>
        <time>1970-01-01T00:10:00.000Z</time>
      </trkpt>
      <trkpt lat="41.212736" lon="1.512017">
        <ele>86.1</ele>
        <time>1970-01-01T00:10:01.000Z</time>
      </trkpt>
      <trkpt lat="41.212778" lon="1.512028">
        <ele>86.1</ele>
        <time>1970-01-01T00:10:02.000Z</time>
      </trkpt>
      <trkpt lat="41.212824" lon="1.512043">
        <ele>86.1</ele>
        <time>1970-01-01T00:10:03.000Z</time>
      </trkpt>
      <trkpt lat="41.212872" lon="1.51206">
        <ele>86.1</ele>
        <time>1970-01-01T00:10:04.000Z</time>
      </trkpt>
      <trkpt lat="41.212921" lon="1.512084">
        <ele>86.1</ele>
        <time>1970-01-01T00:10:05.000Z</time>
      </trkpt>
      <trkpt lat="41.212985" lon="1.512106">
        <ele>86.1</ele>
        <time>1970-01-01T00:10:06.000Z</time>
      </trkpt>
      <trkpt lat="41.213051" lon="1.512126">
        <ele>86.1</ele>
        <time>1970-01-01T00:10:07.000Z</time>
      </trkpt>
      <trkpt lat="41.21312" lon="1.51214">
        <ele>86.1</ele>
        <time>1970-01-01T00:10:08.000Z</time>
      </trkpt>
      <trkpt lat="41.213194" lon="1.51216">
        <ele>86.1</ele>
        <time>1970-01-01T00:10:09.000Z</time>
      </trkpt>
      <trkpt lat="41.21326" lon="1.512176">
        <ele>86.1</ele>
        <time>1970-01-01T00:10:10.000Z</time>
      </trkpt>
      <trkpt lat="41.21333" lon="1.512193">
        <ele>86.1</ele>
        <time>1970-01-01T00:10:11.000Z</time>
      </trkpt>
      <trkpt lat="41.213404" lon="1.512219">
        <ele>86.1</ele>
        <time>1970-01-01T00:10:12.000Z</time>
      </trkpt>
      <trkpt lat="41.213468" lon="1.512241">
        <ele>86.1</ele>
        <time>1970-01-01T00:10:13.000Z</time>
      </trkpt>
      <trkpt lat="41.213519" lon="1.512258">
        <ele>86.1</ele>
        <time>1970-01-01T00:10:14.000Z</time>
      </trkpt>
      <trkpt lat="41.213565" lon="1.512277">
        <ele>86.1</ele>
        <time>1970-01-01T00:10:15.000Z</time>
      </trkpt>
      <trkpt lat="41.213609" lon="1.512291">
        <ele>86</ele>
        <time>1970-01-01T00:10:16.000Z</time>
      </trkpt>
      <trkpt lat="41.213662" lon="1.512311">
        <ele>86</ele>
        <time>1970-01-01T00:10:17.000Z</time>
      </trkpt>
      <trkpt lat="41.21372" lon="1.512325">
        <ele>86</ele>
        <time>1970-01-01T00:10:18.000Z</time>
      </trkpt>
      <trkpt lat="41.213773" lon="1.51233">
        <ele>86</ele>
        <time>1970-01-01T00:10:19.000Z</time>
      </trkpt>
      <trkpt lat="41.213822" lon="1.512336">
        <ele>85.9</ele>
        <time>1970-01-01T00:10:20.000Z</time>
      </trkpt>
      <trkpt lat="41.213869" lon="1.512348">
        <ele>85.8</ele>
        <time>1970-01-01T00:10:21.000Z</time>
      </trkpt>
      <trkpt lat="41.213917" lon="1.512363">
        <ele>85.7</ele>
        <time>1970-01-01T00:10:22.000Z</time>
      </trkpt>
      <trkpt lat="41.213962" lon="1.512384">
        <ele>85.6</ele>
        <time>1970-01-01T00:10:23.000Z</time>
      </trkpt>
      <trkpt lat="41.214023" lon="1.51241">
        <ele>85.3</ele>
        <time>1970-01-01T00:10:24.000Z</time>
      </trkpt>
      <trkpt lat="41.214096" lon="1.512439">
        <ele>85</ele>
        <time>1970-01-01T00:10:25.000Z</time>
      </trkpt>
      <trkpt lat="41.214145" lon="1.512457">
        <ele>84.8</ele>
        <time>1970-01-01T00:10:26.000Z</time>
      </trkpt>
      <trkpt lat="41.214208" lon="1.512474">
        <ele>84.6</ele>
        <time>1970-01-01T00:10:27.000Z</time>
      </trkpt>
      <trkpt lat="41.214278" lon="1.512487">
        <ele>84.4</ele>
        <time>1970-01-01T00:10:28.000Z</time>
      </trkpt>
      <trkpt lat="41.214335" lon="1.512504">
        <ele>84.3</ele>
        <time>1970-01-01T00:10:29.000Z</time>
      </trkpt>
      <trkpt lat="41.214401" lon="1.512516">
        <ele>84.2</ele>
        <time>1970-01-01T00:10:30.000Z</time>
      </trkpt>
      <trkpt lat="41.214464" lon="1.512539">
        <ele>84.1</ele>
        <time>1970-01-01T00:10:31.000Z</time>
      </trkpt>
      <trkpt lat="41.214531" lon="1.512562">
        <ele>84.1</ele>
        <time>1970-01-01T00:10:32.000Z</time>
      </trkpt>
      <trkpt lat="41.214596" lon="1.512588">
        <ele>84.1</ele>
        <time>1970-01-01T00:10:33.000Z</time>
      </trkpt>
      <trkpt lat="41.21466" lon="1.512614">
        <ele>84.1</ele>
        <time>1970-01-01T00:10:34.000Z</time>
      </trkpt>
      <trkpt lat="41.214719" lon="1.512636">
        <ele>84.1</ele>
        <time>1970-01-01T00:10:35.000Z</time>
      </trkpt>
      <trkpt lat="41.214777" lon="1.512659">
        <ele>84.1</ele>
        <time>1970-01-01T00:10:36.000Z</time>
      </trkpt>
      <trkpt lat="41.214837" lon="1.512683">
        <ele>84.1</ele>
        <time>1970-01-01T00:10:37.000Z</time>
      </trkpt>
      <trkpt lat="41.214888" lon="1.512702">
        <ele>84.1</ele>
        <time>1970-01-01T00:10:38.000Z</time>
      </trkpt>
      <trkpt lat="41.214944" lon="1.512731">
        <ele>84.1</ele>
        <time>1970-01-01T00:10:39.000Z</time>
      </trkpt>
      <trkpt lat="41.215001" lon="1.512751">
        <ele>84.1</ele>
        <time>1970-01-01T00:10:40.000Z</time>
      </trkpt>
      <trkpt lat="41.215053" lon="1.512768">
        <ele>84.1</ele>
        <time>1970-01-01T00:10:41.000Z</time>
      </trkpt>
      <trkpt lat="41.215111" lon="1.512777">
        <ele>84.1</ele>
        <time>1970-01-01T00:10:42.000Z</time>
      </trkpt>
      <trkpt lat="41.215183" lon="1.512788">
        <ele>84.1</ele>
        <time>1970-01-01T00:10:43.000Z</time>
      </trkpt>
      <trkpt lat="41.21525" lon="1.512795">
        <ele>84.1</ele>
        <time>1970-01-01T00:10:44.000Z</time>
      </trkpt>
      <trkpt lat="41.215321" lon="1.512802">
        <ele>84.1</ele>
        <time>1970-01-01T00:10:45.000Z</time>
      </trkpt>
      <trkpt lat="41.215379" lon="1.512816">
        <ele>84.1</ele>
        <time>1970-01-01T00:10:46.000Z</time>
      </trkpt>
      <trkpt lat="41.215435" lon="1.512844">
        <ele>84.1</ele>
        <time>1970-01-01T00:10:47.000Z</time>
      </trkpt>
      <trkpt lat="41.215477" lon="1.512866">
        <ele>84.1</ele>
        <time>1970-01-01T00:10:48.000Z</time>
      </trkpt>
      <trkpt lat="41.21553" lon="1.512891">
        <ele>84.1</ele>
        <time>1970-01-01T00:10:49.000Z</time>
      </trkpt>
      <trkpt lat="41.215591" lon="1.512917">
        <ele>84.1</ele>
        <time>1970-01-01T00:10:50.000Z</time>
      </trkpt>
      <trkpt lat="41.215647" lon="1.512942">
        <ele>84.1</ele>
        <time>1970-01-01T00:10:51.000Z</time>
      </trkpt>
      <trkpt lat="41.215691" lon="1.512967">
        <ele>84.1</ele>
        <time>1970-01-01T00:10:52.000Z</time>
      </trkpt>
      <trkpt lat="41.215763" lon="1.512984">
        <ele>84.1</ele>
        <time>1970-01-01T00:10:53.000Z</time>
      </trkpt>
      <trkpt lat="41.215819" lon="1.513004">
        <ele>84.1</ele>
        <time>1970-01-01T00:10:54.000Z</time>
      </trkpt>
      <trkpt lat="41.215866" lon="1.513039">
        <ele>84.1</ele>
        <time>1970-01-01T00:10:55.000Z</time>
      </trkpt>
      <trkpt lat="41.215916" lon="1.513065">
        <ele>84.1</ele>
        <time>1970-01-01T00:10:56.000Z</time>
      </trkpt>
      <trkpt lat="41.215979" lon="1.513089">
        <ele>84.1</ele>
        <time>1970-01-01T00:10:57.000Z</time>
      </trkpt>
      <trkpt lat="41.216039" lon="1.513115">
        <ele>84.1</ele>
        <time>1970-01-01T00:10:58.000Z</time>
      </trkpt>
      <trkpt lat="41.216094" lon="1.513136">
        <ele>84.1</ele>
        <time>1970-01-01T00:10:59.000Z</time>
      </trkpt>
      <trkpt lat="41.216146" lon="1.513152">
        <ele>84.1</ele>
        <time>1970-01-01T00:11:00.000Z</time>
      </trkpt>
      <trkpt lat="41.216201" lon="1.51317">
        <ele>84.1</ele>
        <time>1970-01-01T00:11:01.000Z</time>
      </trkpt>
      <trkpt lat="41.216262" lon="1.513191">
        <ele>84.1</ele>
        <time>1970-01-01T00:11:02.000Z</time>
      </trkpt>
      <trkpt lat="41.216318" lon="1.513217">
        <ele>84.1</ele>
        <time>1970-01-01T00:11:03.000Z</time>
      </trkpt>
      <trkpt lat="41.216382" lon="1.513242">
        <ele>84.1</ele>
        <time>1970-01-01T00:11:04.000Z</time>
      </trkpt>
      <trkpt lat="41.216432" lon="1.513265">
        <ele>84.1</ele>
        <time>1970-01-01T00:11:05.000Z</time>
      </trkpt>
      <trkpt lat="41.216493" lon="1.513294">
        <ele>84.1</ele>
        <time>1970-01-01T00:11:06.000Z</time>
      </trkpt>
      <trkpt lat="41.216556" lon="1.513315">
        <ele>84.1</ele>
        <time>1970-01-01T00:11:07.000Z</time>
      </trkpt>
      <trkpt lat="41.216605" lon="1.513329">
        <ele>84.1</ele>
        <time>1970-01-01T00:11:08.000Z</time>
      </trkpt>
      <trkpt lat="41.216652" lon="1.513322">
        <ele>84.6</ele>
        <time>1970-01-01T00:11:09.000Z</time>
      </trkpt>
      <trkpt lat="41.216685" lon="1.51328">
        <ele>85</ele>
        <time>1970-01-01T00:11:10.000Z</time>
      </trkpt>
      <trkpt lat="41.21671" lon="1.513217">
        <ele>85.6</ele>
        <time>1970-01-01T00:11:11.000Z</time>
      </trkpt>
      <trkpt lat="41.216718" lon="1.513169">
        <ele>85.9</ele>
        <time>1970-01-01T00:11:12.000Z</time>
      </trkpt>
      <trkpt lat="41.216729" lon="1.513116">
        <ele>86.4</ele>
        <time>1970-01-01T00:11:13.000Z</time>
      </trkpt>
      <trkpt lat="41.216748" lon="1.513056">
        <ele>86.8</ele>
        <time>1970-01-01T00:11:14.000Z</time>
      </trkpt>
      <trkpt lat="41.216776" lon="1.512993">
        <ele>87.3</ele>
        <time>1970-01-01T00:11:15.000Z</time>
      </trkpt>
      <trkpt lat="41.216792" lon="1.512951">
        <ele>87.6</ele>
        <time>1970-01-01T00:11:16.000Z</time>
      </trkpt>
      <trkpt lat="41.216804" lon="1.51291">
        <ele>87.9</ele>
        <time>1970-01-01T00:11:17.000Z</time>
      </trkpt>
      <trkpt lat="41.216823" lon="1.512846">
        <ele>88.4</ele>
        <time>1970-01-01T00:11:19.000Z</time>
      </trkpt>
      <trkpt lat="41.216815" lon="1.512808">
        <ele>88.7</ele>
        <time>1970-01-01T00:11:20.000Z</time>
      </trkpt>
      <trkpt lat="41.216812" lon="1.512769">
        <ele>88.9</ele>
        <time>1970-01-01T00:11:21.000Z</time>
      </trkpt>
      <trkpt lat="41.216802" lon="1.512727">
        <ele>89.2</ele>
        <time>1970-01-01T00:11:22.000Z</time>
      </trkpt>
      <trkpt lat="41.216797" lon="1.51269">
        <ele>89.4</ele>
        <time>1970-01-01T00:11:23.000Z</time>
      </trkpt>
      <trkpt lat="41.216792" lon="1.512654">
        <ele>89.7</ele>
        <time>1970-01-01T00:11:24.000Z</time>
      </trkpt>
      <trkpt lat="41.216788" lon="1.512615">
        <ele>89.9</ele>
        <time>1970-01-01T00:11:25.000Z</time>
      </trkpt>
      <trkpt lat="41.2168" lon="1.512578">
        <ele>90.2</ele>
        <time>1970-01-01T00:11:26.000Z</time>
      </trkpt>
      <trkpt lat="41.216807" lon="1.51254">
        <ele>90.5</ele>
        <time>1970-01-01T00:11:27.000Z</time>
      </trkpt>
      <trkpt lat="41.216808" lon="1.512475">
        <ele>90.9</ele>
        <time>1970-01-01T00:11:29.000Z</time>
      </trkpt>
      <trkpt lat="41.216809" lon="1.512436">
        <ele>91.2</ele>
        <time>1970-01-01T00:11:30.000Z</time>
      </trkpt>
      <trkpt lat="41.216815" lon="1.512397">
        <ele>91.4</ele>
        <time>1970-01-01T00:11:31.000Z</time>
      </trkpt>
      <trkpt lat="41.216821" lon="1.512329">
        <ele>91.9</ele>
        <time>1970-01-01T00:11:33.000Z</time>
      </trkpt>
      <trkpt lat="41.216817" lon="1.512257">
        <ele>92.4</ele>
        <time>1970-01-01T00:11:35.000Z</time>
      </trkpt>
      <trkpt lat="41.21682" lon="1.512186">
        <ele>92.8</ele>
        <time>1970-01-01T00:11:37.000Z</time>
      </trkpt>
      <trkpt lat="41.21682" lon="1.51214">
        <ele>93.1</ele>
        <time>1970-01-01T00:11:38.000Z</time>
      </trkpt>
      <trkpt lat="41.21682" lon="1.5121">
        <ele>93.4</ele>
        <time>1970-01-01T00:11:39.000Z</time>
      </trkpt>
      <trkpt lat="41.216827" lon="1.512054">
        <ele>93.7</ele>
        <time>1970-01-01T00:11:40.000Z</time>
      </trkpt>
      <trkpt lat="41.216825" lon="1.511993">
        <ele>94.1</ele>
        <time>1970-01-01T00:11:42.000Z</time>
      </trkpt>
      <trkpt lat="41.216816" lon="1.511909">
        <ele>94.6</ele>
        <time>1970-01-01T00:11:44.000Z</time>
      </trkpt>
      <trkpt lat="41.216814" lon="1.511868">
        <ele>94.9</ele>
        <time>1970-01-01T00:11:45.000Z</time>
      </trkpt>
      <trkpt lat="41.216814" lon="1.511832">
        <ele>95.1</ele>
        <time>1970-01-01T00:11:46.000Z</time>
      </trkpt>
      <trkpt lat="41.216818" lon="1.511792">
        <ele>95.4</ele>
        <time>1970-01-01T00:11:47.000Z</time>
      </trkpt>
      <trkpt lat="41.216827" lon="1.511754">
        <ele>95.6</ele>
        <time>1970-01-01T00:11:48.000Z</time>
      </trkpt>
      <trkpt lat="41.21683" lon="1.511686">
        <ele>96.1</ele>
        <time>1970-01-01T00:11:50.000Z</time>
      </trkpt>
      <trkpt lat="41.21683" lon="1.511647">
        <ele>96.3</ele>
        <time>1970-01-01T00:11:51.000Z</time>
      </trkpt>
      <trkpt lat="41.216835" lon="1.511584">
        <ele>96.9</ele>
        <time>1970-01-01T00:11:53.000Z</time>
      </trkpt>
      <trkpt lat="41.216831" lon="1.511542">
        <ele>97.3</ele>
        <time>1970-01-01T00:11:54.000Z</time>
      </trkpt>
      <trkpt lat="41.216833" lon="1.511494">
        <ele>97.8</ele>
        <time>1970-01-01T00:11:55.000Z</time>
      </trkpt>
      <trkpt lat="41.216835" lon="1.511457">
        <ele>98.1</ele>
        <time>1970-01-01T00:11:56.000Z</time>
      </trkpt>
      <trkpt lat="41.216847" lon="1.511382">
        <ele>98.8</ele>
        <time>1970-01-01T00:11:58.000Z</time>
      </trkpt>
      <trkpt lat="41.216847" lon="1.511345">
        <ele>99</ele>
        <time>1970-01-01T00:11:59.000Z</time>
      </trkpt>
      <trkpt lat="41.216847" lon="1.511308">
        <ele>99.2</ele>
        <time>1970-01-01T00:12:00.000Z</time>
      </trkpt>
      <trkpt lat="41.216849" lon="1.511243">
        <ele>99.6</ele>
        <time>1970-01-01T00:12:02.000Z</time>
      </trkpt>
      <trkpt lat="41.216855" lon="1.511168">
        <ele>100.1</ele>
        <time>1970-01-01T00:12:04.000Z</time>
      </trkpt>
      <trkpt lat="41.216856" lon="1.511131">
        <ele>100.3</ele>
        <time>1970-01-01T00:12:05.000Z</time>
      </trkpt>
      <trkpt lat="41.21687" lon="1.511062">
        <ele>100.7</ele>
        <time>1970-01-01T00:12:07.000Z</time>
      </trkpt>
      <trkpt lat="41.216877" lon="1.51102">
        <ele>101</ele>
        <time>1970-01-01T00:12:08.000Z</time>
      </trkpt>
      <trkpt lat="41.216894" lon="1.51094">
        <ele>101.4</ele>
        <time>1970-01-01T00:12:10.000Z</time>
      </trkpt>
      <trkpt lat="41.216897" lon="1.510901">
        <ele>101.7</ele>
        <time>1970-01-01T00:12:11.000Z</time>
      </trkpt>
      <trkpt lat="41.216906" lon="1.510839">
        <ele>102</ele>
        <time>1970-01-01T00:12:13.000Z</time>
      </trkpt>
      <trkpt lat="41.216911" lon="1.510778">
        <ele>102.3</ele>
        <time>1970-01-01T00:12:15.000Z</time>
      </trkpt>
      <trkpt lat="41.216925" lon="1.510718">
        <ele>102.6</ele>
        <time>1970-01-01T00:12:17.000Z</time>
      </trkpt>
      <trkpt lat="41.216947" lon="1.510656">
        <ele>103</ele>
        <time>1970-01-01T00:12:19.000Z</time>
      </trkpt>
      <trkpt lat="41.216961" lon="1.510586">
        <ele>103.5</ele>
        <time>1970-01-01T00:12:21.000Z</time>
      </trkpt>
      <trkpt lat="41.216979" lon="1.510536">
        <ele>103.9</ele>
        <time>1970-01-01T00:12:23.000Z</time>
      </trkpt>
      <trkpt lat="41.217002" lon="1.510478">
        <ele>104.2</ele>
        <time>1970-01-01T00:12:25.000Z</time>
      </trkpt>
      <trkpt lat="41.217027" lon="1.510414">
        <ele>104.6</ele>
        <time>1970-01-01T00:12:27.000Z</time>
      </trkpt>
      <trkpt lat="41.217043" lon="1.510352">
        <ele>104.9</ele>
        <time>1970-01-01T00:12:29.000Z</time>
      </trkpt>
      <trkpt lat="41.217053" lon="1.510295">
        <ele>105.3</ele>
        <time>1970-01-01T00:12:31.000Z</time>
      </trkpt>
      <trkpt lat="41.217066" lon="1.510234">
        <ele>105.7</ele>
        <time>1970-01-01T00:12:33.000Z</time>
      </trkpt>
      <trkpt lat="41.217068" lon="1.510179">
        <ele>106</ele>
        <time>1970-01-01T00:12:35.000Z</time>
      </trkpt>
      <trkpt lat="41.217075" lon="1.510142">
        <ele>106.4</ele>
        <time>1970-01-01T00:12:36.000Z</time>
      </trkpt>
      <trkpt lat="41.217079" lon="1.510073">
        <ele>107</ele>
        <time>1970-01-01T00:12:38.000Z</time>
      </trkpt>
      <trkpt lat="41.21708" lon="1.510036">
        <ele>107.3</ele>
        <time>1970-01-01T00:12:39.000Z</time>
      </trkpt>
      <trkpt lat="41.217096" lon="1.50997">
        <ele>107.9</ele>
        <time>1970-01-01T00:12:41.000Z</time>
      </trkpt>
      <trkpt lat="41.217095" lon="1.509913">
        <ele>108.3</ele>
        <time>1970-01-01T00:12:43.000Z</time>
      </trkpt>
      <trkpt lat="41.217099" lon="1.509855">
        <ele>108.6</ele>
        <time>1970-01-01T00:12:45.000Z</time>
      </trkpt>
      <trkpt lat="41.217103" lon="1.509816">
        <ele>108.8</ele>
        <time>1970-01-01T00:12:46.000Z</time>
      </trkpt>
      <trkpt lat="41.217105" lon="1.509744">
        <ele>109.1</ele>
        <time>1970-01-01T00:12:48.000Z</time>
      </trkpt>
      <trkpt lat="41.217109" lon="1.509677">
        <ele>109.4</ele>
        <time>1970-01-01T00:12:50.000Z</time>
      </trkpt>
      <trkpt lat="41.217105" lon="1.509612">
        <ele>109.8</ele>
        <time>1970-01-01T00:12:52.000Z</time>
      </trkpt>
      <trkpt lat="41.217092" lon="1.509547">
        <ele>110.2</ele>
        <time>1970-01-01T00:12:54.000Z</time>
      </trkpt>
      <trkpt lat="41.217071" lon="1.509511">
        <ele>110.5</ele>
        <time>1970-01-01T00:12:55.000Z</time>
      </trkpt>
      <trkpt lat="41.217045" lon="1.509473">
        <ele>110.5</ele>
        <time>1970-01-01T00:12:56.000Z</time>
      </trkpt>
      <trkpt lat="41.217028" lon="1.509437">
        <ele>110.6</ele>
        <time>1970-01-01T00:12:57.000Z</time>
      </trkpt>
      <trkpt lat="41.217012" lon="1.509399">
        <ele>110.6</ele>
        <time>1970-01-01T00:12:58.000Z</time>
      </trkpt>
      <trkpt lat="41.216993" lon="1.509353">
        <ele>110.7</ele>
        <time>1970-01-01T00:12:59.000Z</time>
      </trkpt>
      <trkpt lat="41.216976" lon="1.50931">
        <ele>110.7</ele>
        <time>1970-01-01T00:13:00.000Z</time>
      </trkpt>
      <trkpt lat="41.216961" lon="1.509265">
        <ele>110.7</ele>
        <time>1970-01-01T00:13:01.000Z</time>
      </trkpt>
      <trkpt lat="41.216942" lon="1.509224">
        <ele>110.7</ele>
        <time>1970-01-01T00:13:02.000Z</time>
      </trkpt>
      <trkpt lat="41.216925" lon="1.509181">
        <ele>110.8</ele>
        <time>1970-01-01T00:13:03.000Z</time>
      </trkpt>
      <trkpt lat="41.216907" lon="1.509131">
        <ele>110.8</ele>
        <time>1970-01-01T00:13:04.000Z</time>
      </trkpt>
      <trkpt lat="41.21688" lon="1.509092">
        <ele>110.8</ele>
        <time>1970-01-01T00:13:05.000Z</time>
      </trkpt>
      <trkpt lat="41.216863" lon="1.509035">
        <ele>110.8</ele>
        <time>1970-01-01T00:13:06.000Z</time>
      </trkpt>
      <trkpt lat="41.216842" lon="1.508979">
        <ele>110.9</ele>
        <time>1970-01-01T00:13:07.000Z</time>
      </trkpt>
      <trkpt lat="41.216821" lon="1.508923">
        <ele>110.9</ele>
        <time>1970-01-01T00:13:08.000Z</time>
      </trkpt>
      <trkpt lat="41.216804" lon="1.508876">
        <ele>110.9</ele>
        <time>1970-01-01T00:13:09.000Z</time>
      </trkpt>
      <trkpt lat="41.216785" lon="1.508829">
        <ele>110.9</ele>
        <time>1970-01-01T00:13:10.000Z</time>
      </trkpt>
      <trkpt lat="41.216759" lon="1.508786">
        <ele>111</ele>
        <time>1970-01-01T00:13:11.000Z</time>
      </trkpt>
      <trkpt lat="41.21674" lon="1.508737">
        <ele>111</ele>
        <time>1970-01-01T00:13:12.000Z</time>
      </trkpt>
      <trkpt lat="41.216717" lon="1.508688">
        <ele>111</ele>
        <time>1970-01-01T00:13:13.000Z</time>
      </trkpt>
      <trkpt lat="41.216693" lon="1.508644">
        <ele>111.1</ele>
        <time>1970-01-01T00:13:14.000Z</time>
      </trkpt>
      <trkpt lat="41.216676" lon="1.508599">
        <ele>111.1</ele>
        <time>1970-01-01T00:13:15.000Z</time>
      </trkpt>
      <trkpt lat="41.21665" lon="1.508549">
        <ele>111.1</ele>
        <time>1970-01-01T00:13:16.000Z</time>
      </trkpt>
      <trkpt lat="41.21662" lon="1.508498">
        <ele>111.2</ele>
        <time>1970-01-01T00:13:17.000Z</time>
      </trkpt>
      <trkpt lat="41.216588" lon="1.508459">
        <ele>111.2</ele>
        <time>1970-01-01T00:13:18.000Z</time>
      </trkpt>
      <trkpt lat="41.216563" lon="1.508411">
        <ele>111.2</ele>
        <time>1970-01-01T00:13:19.000Z</time>
      </trkpt>
      <trkpt lat="41.216536" lon="1.50838">
        <ele>111.2</ele>
        <time>1970-01-01T00:13:20.000Z</time>
      </trkpt>
      <trkpt lat="41.216508" lon="1.508336">
        <ele>111.2</ele>
        <time>1970-01-01T00:13:21.000Z</time>
      </trkpt>
      <trkpt lat="41.216484" lon="1.508297">
        <ele>111.3</ele>
        <time>1970-01-01T00:13:22.000Z</time>
      </trkpt>
      <trkpt lat="41.216461" lon="1.508265">
        <ele>111.3</ele>
        <time>1970-01-01T00:13:23.000Z</time>
      </trkpt>
      <trkpt lat="41.216428" lon="1.508236">
        <ele>111.3</ele>
        <time>1970-01-01T00:13:24.000Z</time>
      </trkpt>
      <trkpt lat="41.2164" lon="1.508201">
        <ele>111.3</ele>
        <time>1970-01-01T00:13:25.000Z</time>
      </trkpt>
      <trkpt lat="41.216378" lon="1.508167">
        <ele>111.3</ele>
        <time>1970-01-01T00:13:26.000Z</time>
      </trkpt>
      <trkpt lat="41.21637" lon="1.508112">
        <ele>111.3</ele>
        <time>1970-01-01T00:13:27.000Z</time>
      </trkpt>
      <trkpt lat="41.216381" lon="1.508068">
        <ele>111.7</ele>
        <time>1970-01-01T00:13:28.000Z</time>
      </trkpt>
      <trkpt lat="41.216421" lon="1.508032">
        <ele>112</ele>
        <time>1970-01-01T00:13:29.000Z</time>
      </trkpt>
      <trkpt lat="41.216465" lon="1.507999">
        <ele>112.3</ele>
        <time>1970-01-01T00:13:30.000Z</time>
      </trkpt>
      <trkpt lat="41.216502" lon="1.507947">
        <ele>112.6</ele>
        <time>1970-01-01T00:13:31.000Z</time>
      </trkpt>
      <trkpt lat="41.216539" lon="1.507897">
        <ele>113</ele>
        <time>1970-01-01T00:13:32.000Z</time>
      </trkpt>
      <trkpt lat="41.216573" lon="1.507865">
        <ele>113.3</ele>
        <time>1970-01-01T00:13:33.000Z</time>
      </trkpt>
      <trkpt lat="41.21661" lon="1.507818">
        <ele>113.8</ele>
        <time>1970-01-01T00:13:34.000Z</time>
      </trkpt>
      <trkpt lat="41.216646" lon="1.507774">
        <ele>114.2</ele>
        <time>1970-01-01T00:13:35.000Z</time>
      </trkpt>
      <trkpt lat="41.216676" lon="1.507732">
        <ele>114.5</ele>
        <time>1970-01-01T00:13:36.000Z</time>
      </trkpt>
      <trkpt lat="41.216707" lon="1.507682">
        <ele>114.9</ele>
        <time>1970-01-01T00:13:37.000Z</time>
      </trkpt>
      <trkpt lat="41.216737" lon="1.507644">
        <ele>115.3</ele>
        <time>1970-01-01T00:13:38.000Z</time>
      </trkpt>
      <trkpt lat="41.216775" lon="1.507597">
        <ele>115.7</ele>
        <time>1970-01-01T00:13:39.000Z</time>
      </trkpt>
      <trkpt lat="41.216806" lon="1.50755">
        <ele>116.1</ele>
        <time>1970-01-01T00:13:40.000Z</time>
      </trkpt>
      <trkpt lat="41.216835" lon="1.507508">
        <ele>116.5</ele>
        <time>1970-01-01T00:13:41.000Z</time>
      </trkpt>
      <trkpt lat="41.216866" lon="1.507449">
        <ele>116.8</ele>
        <time>1970-01-01T00:13:42.000Z</time>
      </trkpt>
      <trkpt lat="41.216888" lon="1.507402">
        <ele>116.5</ele>
        <time>1970-01-01T00:13:43.000Z</time>
      </trkpt>
      <trkpt lat="41.216901" lon="1.507347">
        <ele>116.3</ele>
        <time>1970-01-01T00:13:44.000Z</time>
      </trkpt>
      <trkpt lat="41.21689" lon="1.507282">
        <ele>116.1</ele>
        <time>1970-01-01T00:13:45.000Z</time>
      </trkpt>
      <trkpt lat="41.216868" lon="1.507226">
        <ele>116</ele>
        <time>1970-01-01T00:13:46.000Z</time>
      </trkpt>
      <trkpt lat="41.216845" lon="1.50717">
        <ele>115.9</ele>
        <time>1970-01-01T00:13:47.000Z</time>
      </trkpt>
      <trkpt lat="41.216828" lon="1.50711">
        <ele>115.9</ele>
        <time>1970-01-01T00:13:48.000Z</time>
      </trkpt>
      <trkpt lat="41.216814" lon="1.507037">
        <ele>115.8</ele>
        <time>1970-01-01T00:13:49.000Z</time>
      </trkpt>
      <trkpt lat="41.216799" lon="1.506975">
        <ele>115.7</ele>
        <time>1970-01-01T00:13:50.000Z</time>
      </trkpt>
      <trkpt lat="41.216787" lon="1.50691">
        <ele>115.6</ele>
        <time>1970-01-01T00:13:51.000Z</time>
      </trkpt>
      <trkpt lat="41.216781" lon="1.506841">
        <ele>115.6</ele>
        <time>1970-01-01T00:13:52.000Z</time>
      </trkpt>
      <trkpt lat="41.216766" lon="1.506765">
        <ele>115.6</ele>
        <time>1970-01-01T00:13:53.000Z</time>
      </trkpt>
      <trkpt lat="41.216749" lon="1.506697">
        <ele>115.5</ele>
        <time>1970-01-01T00:13:54.000Z</time>
      </trkpt>
      <trkpt lat="41.216733" lon="1.506633">
        <ele>115.5</ele>
        <time>1970-01-01T00:13:55.000Z</time>
      </trkpt>
      <trkpt lat="41.216721" lon="1.506583">
        <ele>115.5</ele>
        <time>1970-01-01T00:13:56.000Z</time>
      </trkpt>
      <trkpt lat="41.21675" lon="1.506544">
        <ele>116.2</ele>
        <time>1970-01-01T00:13:58.000Z</time>
      </trkpt>
      <trkpt lat="41.21679" lon="1.506554">
        <ele>116.6</ele>
        <time>1970-01-01T00:13:59.000Z</time>
      </trkpt>
      <trkpt lat="41.21682" lon="1.506547">
        <ele>116.8</ele>
        <time>1970-01-01T00:14:00.000Z</time>
      </trkpt>
      <trkpt lat="41.216856" lon="1.50654">
        <ele>117.1</ele>
        <time>1970-01-01T00:14:01.000Z</time>
      </trkpt>
      <trkpt lat="41.216896" lon="1.506544">
        <ele>117.4</ele>
        <time>1970-01-01T00:14:02.000Z</time>
      </trkpt>
      <trkpt lat="41.216934" lon="1.506541">
        <ele>117.8</ele>
        <time>1970-01-01T00:14:03.000Z</time>
      </trkpt>
      <trkpt lat="41.216971" lon="1.506526">
        <ele>118.1</ele>
        <time>1970-01-01T00:14:04.000Z</time>
      </trkpt>
      <trkpt lat="41.217" lon="1.506518">
        <ele>118.4</ele>
        <time>1970-01-01T00:14:05.000Z</time>
      </trkpt>
      <trkpt lat="41.217034" lon="1.506502">
        <ele>118.7</ele>
        <time>1970-01-01T00:14:06.000Z</time>
      </trkpt>
      <trkpt lat="41.217072" lon="1.50648">
        <ele>119.1</ele>
        <time>1970-01-01T00:14:07.000Z</time>
      </trkpt>
      <trkpt lat="41.217107" lon="1.506478">
        <ele>119.5</ele>
        <time>1970-01-01T00:14:08.000Z</time>
      </trkpt>
      <trkpt lat="41.217136" lon="1.506475">
        <ele>119.7</ele>
        <time>1970-01-01T00:14:09.000Z</time>
      </trkpt>
      <trkpt lat="41.217168" lon="1.50648">
        <ele>119.9</ele>
        <time>1970-01-01T00:14:10.000Z</time>
      </trkpt>
      <trkpt lat="41.217204" lon="1.506478">
        <ele>120.2</ele>
        <time>1970-01-01T00:14:11.000Z</time>
      </trkpt>
      <trkpt lat="41.217236" lon="1.506476">
        <ele>120.5</ele>
        <time>1970-01-01T00:14:12.000Z</time>
      </trkpt>
      <trkpt lat="41.217267" lon="1.506472">
        <ele>120.7</ele>
        <time>1970-01-01T00:14:13.000Z</time>
      </trkpt>
      <trkpt lat="41.217301" lon="1.506464">
        <ele>120.9</ele>
        <time>1970-01-01T00:14:14.000Z</time>
      </trkpt>
      <trkpt lat="41.21733" lon="1.506451">
        <ele>121.2</ele>
        <time>1970-01-01T00:14:15.000Z</time>
      </trkpt>
      <trkpt lat="41.217359" lon="1.506441">
        <ele>121.4</ele>
        <time>1970-01-01T00:14:16.000Z</time>
      </trkpt>
      <trkpt lat="41.21739" lon="1.506435">
        <ele>121.6</ele>
        <time>1970-01-01T00:14:17.000Z</time>
      </trkpt>
      <trkpt lat="41.217417" lon="1.506425">
        <ele>121.8</ele>
        <time>1970-01-01T00:14:18.000Z</time>
      </trkpt>
      <trkpt lat="41.217442" lon="1.506406">
        <ele>121.9</ele>
        <time>1970-01-01T00:14:19.000Z</time>
      </trkpt>
      <trkpt lat="41.217468" lon="1.506383">
        <ele>122.1</ele>
        <time>1970-01-01T00:14:20.000Z</time>
      </trkpt>
      <trkpt lat="41.2175" lon="1.506365">
        <ele>122.2</ele>
        <time>1970-01-01T00:14:21.000Z</time>
      </trkpt>
      <trkpt lat="41.217535" lon="1.506352">
        <ele>122.4</ele>
        <time>1970-01-01T00:14:22.000Z</time>
      </trkpt>
      <trkpt lat="41.217565" lon="1.506342">
        <ele>122.6</ele>
        <time>1970-01-01T00:14:23.000Z</time>
      </trkpt>
      <trkpt lat="41.217596" lon="1.506333">
        <ele>122.8</ele>
        <time>1970-01-01T00:14:24.000Z</time>
      </trkpt>
      <trkpt lat="41.217643" lon="1.506327">
        <ele>123</ele>
        <time>1970-01-01T00:14:26.000Z</time>
      </trkpt>
      <trkpt lat="41.217669" lon="1.506306">
        <ele>123.2</ele>
        <time>1970-01-01T00:14:27.000Z</time>
      </trkpt>
      <trkpt lat="41.217705" lon="1.506264">
        <ele>123.5</ele>
        <time>1970-01-01T00:14:29.000Z</time>
      </trkpt>
      <trkpt lat="41.217716" lon="1.506229">
        <ele>123.7</ele>
        <time>1970-01-01T00:14:30.000Z</time>
      </trkpt>
      <trkpt lat="41.217731" lon="1.506188">
        <ele>123.9</ele>
        <time>1970-01-01T00:14:31.000Z</time>
      </trkpt>
      <trkpt lat="41.217741" lon="1.506141">
        <ele>124.1</ele>
        <time>1970-01-01T00:14:32.000Z</time>
      </trkpt>
      <trkpt lat="41.21774" lon="1.5061">
        <ele>124.3</ele>
        <time>1970-01-01T00:14:33.000Z</time>
      </trkpt>
      <trkpt lat="41.21775" lon="1.506054">
        <ele>124.5</ele>
        <time>1970-01-01T00:14:34.000Z</time>
      </trkpt>
      <trkpt lat="41.217771" lon="1.50601">
        <ele>124.8</ele>
        <time>1970-01-01T00:14:35.000Z</time>
      </trkpt>
      <trkpt lat="41.217798" lon="1.505964">
        <ele>125</ele>
        <time>1970-01-01T00:14:36.000Z</time>
      </trkpt>
      <trkpt lat="41.217822" lon="1.505919">
        <ele>125.2</ele>
        <time>1970-01-01T00:14:37.000Z</time>
      </trkpt>
      <trkpt lat="41.217839" lon="1.50589">
        <ele>125.3</ele>
        <time>1970-01-01T00:14:38.000Z</time>
      </trkpt>
      <trkpt lat="41.217862" lon="1.505856">
        <ele>125.5</ele>
        <time>1970-01-01T00:14:39.000Z</time>
      </trkpt>
      <trkpt lat="41.217886" lon="1.50583">
        <ele>125.7</ele>
        <time>1970-01-01T00:14:40.000Z</time>
      </trkpt>
      <trkpt lat="41.217907" lon="1.505797">
        <ele>125.8</ele>
        <time>1970-01-01T00:14:41.000Z</time>
      </trkpt>
      <trkpt lat="41.217923" lon="1.505762">
        <ele>126</ele>
        <time>1970-01-01T00:14:42.000Z</time>
      </trkpt>
      <trkpt lat="41.217954" lon="1.505699">
        <ele>126.2</ele>
        <time>1970-01-01T00:14:44.000Z</time>
      </trkpt>
      <trkpt lat="41.217975" lon="1.505666">
        <ele>126.3</ele>
        <time>1970-01-01T00:14:45.000Z</time>
      </trkpt>
      <trkpt lat="41.217994" lon="1.505629">
        <ele>126.4</ele>
        <time>1970-01-01T00:14:46.000Z</time>
      </trkpt>
      <trkpt lat="41.218019" lon="1.505602">
        <ele>126.4</ele>
        <time>1970-01-01T00:14:47.000Z</time>
      </trkpt>
      <trkpt lat="41.218034" lon="1.505565">
        <ele>126.5</ele>
        <time>1970-01-01T00:14:48.000Z</time>
      </trkpt>
      <trkpt lat="41.21805" lon="1.505529">
        <ele>126.7</ele>
        <time>1970-01-01T00:14:49.000Z</time>
      </trkpt>
      <trkpt lat="41.218067" lon="1.505494">
        <ele>126.8</ele>
        <time>1970-01-01T00:14:50.000Z</time>
      </trkpt>
      <trkpt lat="41.218082" lon="1.505451">
        <ele>127</ele>
        <time>1970-01-01T00:14:51.000Z</time>
      </trkpt>
      <trkpt lat="41.218101" lon="1.505414">
        <ele>127.2</ele>
        <time>1970-01-01T00:14:52.000Z</time>
      </trkpt>
      <trkpt lat="41.218128" lon="1.505388">
        <ele>127.4</ele>
        <time>1970-01-01T00:14:53.000Z</time>
      </trkpt>
      <trkpt lat="41.218151" lon="1.505353">
        <ele>127.6</ele>
        <time>1970-01-01T00:14:54.000Z</time>
      </trkpt>
      <trkpt lat="41.218174" lon="1.505318">
        <ele>127.8</ele>
        <time>1970-01-01T00:14:55.000Z</time>
      </trkpt>
      <trkpt lat="41.218198" lon="1.505265">
        <ele>128</ele>
        <time>1970-01-01T00:14:56.000Z</time>
      </trkpt>
      <trkpt lat="41.218214" lon="1.50522">
        <ele>128.2</ele>
        <time>1970-01-01T00:14:57.000Z</time>
      </trkpt>
      <trkpt lat="41.218228" lon="1.505174">
        <ele>128.4</ele>
        <time>1970-01-01T00:14:58.000Z</time>
      </trkpt>
      <trkpt lat="41.218243" lon="1.505131">
        <ele>128.6</ele>
        <time>1970-01-01T00:14:59.000Z</time>
      </trkpt>
      <trkpt lat="41.218256" lon="1.505094">
        <ele>128.7</ele>
        <time>1970-01-01T00:15:00.000Z</time>
      </trkpt>
      <trkpt lat="41.218279" lon="1.505063">
        <ele>128.9</ele>
        <time>1970-01-01T00:15:01.000Z</time>
      </trkpt>
      <trkpt lat="41.218304" lon="1.505033">
        <ele>129.2</ele>
        <time>1970-01-01T00:15:02.000Z</time>
      </trkpt>
      <trkpt lat="41.218332" lon="1.505005">
        <ele>129.5</ele>
        <time>1970-01-01T00:15:03.000Z</time>
      </trkpt>
      <trkpt lat="41.218364" lon="1.504984">
        <ele>129.7</ele>
        <time>1970-01-01T00:15:04.000Z</time>
      </trkpt>
      <trkpt lat="41.218395" lon="1.504961">
        <ele>129.9</ele>
        <time>1970-01-01T00:15:05.000Z</time>
      </trkpt>
      <trkpt lat="41.218428" lon="1.504927">
        <ele>130.1</ele>
        <time>1970-01-01T00:15:06.000Z</time>
      </trkpt>
      <trkpt lat="41.218457" lon="1.504897">
        <ele>130.3</ele>
        <time>1970-01-01T00:15:07.000Z</time>
      </trkpt>
      <trkpt lat="41.218488" lon="1.504874">
        <ele>130.5</ele>
        <time>1970-01-01T00:15:08.000Z</time>
      </trkpt>
      <trkpt lat="41.218521" lon="1.504847">
        <ele>130.7</ele>
        <time>1970-01-01T00:15:09.000Z</time>
      </trkpt>
      <trkpt lat="41.218553" lon="1.504808">
        <ele>131</ele>
        <time>1970-01-01T00:15:10.000Z</time>
      </trkpt>
      <trkpt lat="41.218579" lon="1.504782">
        <ele>131.2</ele>
        <time>1970-01-01T00:15:11.000Z</time>
      </trkpt>
      <trkpt lat="41.218605" lon="1.504772">
        <ele>131.3</ele>
        <time>1970-01-01T00:15:12.000Z</time>
      </trkpt>
      <trkpt lat="41.21863" lon="1.504749">
        <ele>131.4</ele>
        <time>1970-01-01T00:15:13.000Z</time>
      </trkpt>
      <trkpt lat="41.218657" lon="1.504726">
        <ele>131.5</ele>
        <time>1970-01-01T00:15:14.000Z</time>
      </trkpt>
      <trkpt lat="41.218682" lon="1.50471">
        <ele>131.6</ele>
        <time>1970-01-01T00:15:15.000Z</time>
      </trkpt>
      <trkpt lat="41.21871" lon="1.504695">
        <ele>131.6</ele>
        <time>1970-01-01T00:15:16.000Z</time>
      </trkpt>
      <trkpt lat="41.21874" lon="1.504683">
        <ele>131.7</ele>
        <time>1970-01-01T00:15:17.000Z</time>
      </trkpt>
      <trkpt lat="41.218767" lon="1.504672">
        <ele>131.8</ele>
        <time>1970-01-01T00:15:18.000Z</time>
      </trkpt>
      <trkpt lat="41.218812" lon="1.504644">
        <ele>131.9</ele>
        <time>1970-01-01T00:15:20.000Z</time>
      </trkpt>
      <trkpt lat="41.21885" lon="1.504596">
        <ele>132.1</ele>
        <time>1970-01-01T00:15:22.000Z</time>
      </trkpt>
      <trkpt lat="41.218872" lon="1.504563">
        <ele>132.2</ele>
        <time>1970-01-01T00:15:23.000Z</time>
      </trkpt>
      <trkpt lat="41.218893" lon="1.504538">
        <ele>132.3</ele>
        <time>1970-01-01T00:15:24.000Z</time>
      </trkpt>
      <trkpt lat="41.218919" lon="1.504507">
        <ele>132.4</ele>
        <time>1970-01-01T00:15:25.000Z</time>
      </trkpt>
      <trkpt lat="41.218942" lon="1.504486">
        <ele>132.5</ele>
        <time>1970-01-01T00:15:26.000Z</time>
      </trkpt>
      <trkpt lat="41.218967" lon="1.504463">
        <ele>132.5</ele>
        <time>1970-01-01T00:15:27.000Z</time>
      </trkpt>
      <trkpt lat="41.21899" lon="1.504433">
        <ele>132.6</ele>
        <time>1970-01-01T00:15:28.000Z</time>
      </trkpt>
      <trkpt lat="41.219006" lon="1.504398">
        <ele>132.7</ele>
        <time>1970-01-01T00:15:29.000Z</time>
      </trkpt>
      <trkpt lat="41.219031" lon="1.504371">
        <ele>132.8</ele>
        <time>1970-01-01T00:15:30.000Z</time>
      </trkpt>
      <trkpt lat="41.219056" lon="1.504339">
        <ele>132.9</ele>
        <time>1970-01-01T00:15:31.000Z</time>
      </trkpt>
      <trkpt lat="41.21909" lon="1.504322">
        <ele>133</ele>
        <time>1970-01-01T00:15:32.000Z</time>
      </trkpt>
      <trkpt lat="41.219128" lon="1.504305">
        <ele>133.1</ele>
        <time>1970-01-01T00:15:33.000Z</time>
      </trkpt>
      <trkpt lat="41.219163" lon="1.504288">
        <ele>133.2</ele>
        <time>1970-01-01T00:15:34.000Z</time>
      </trkpt>
      <trkpt lat="41.219198" lon="1.50426">
        <ele>133.3</ele>
        <time>1970-01-01T00:15:35.000Z</time>
      </trkpt>
      <trkpt lat="41.219223" lon="1.504222">
        <ele>133.4</ele>
        <time>1970-01-01T00:15:36.000Z</time>
      </trkpt>
      <trkpt lat="41.219253" lon="1.50419">
        <ele>133.5</ele>
        <time>1970-01-01T00:15:37.000Z</time>
      </trkpt>
      <trkpt lat="41.219296" lon="1.504171">
        <ele>133.8</ele>
        <time>1970-01-01T00:15:38.000Z</time>
      </trkpt>
      <trkpt lat="41.219338" lon="1.504154">
        <ele>133.9</ele>
        <time>1970-01-01T00:15:39.000Z</time>
      </trkpt>
      <trkpt lat="41.21936" lon="1.504124">
        <ele>134.1</ele>
        <time>1970-01-01T00:15:40.000Z</time>
      </trkpt>
      <trkpt lat="41.21936" lon="1.50407">
        <ele>134.3</ele>
        <time>1970-01-01T00:15:41.000Z</time>
      </trkpt>
      <trkpt lat="41.219345" lon="1.504011">
        <ele>134.5</ele>
        <time>1970-01-01T00:15:42.000Z</time>
      </trkpt>
      <trkpt lat="41.219339" lon="1.50396">
        <ele>134.6</ele>
        <time>1970-01-01T00:15:43.000Z</time>
      </trkpt>
      <trkpt lat="41.219333" lon="1.503911">
        <ele>134.8</ele>
        <time>1970-01-01T00:15:44.000Z</time>
      </trkpt>
      <trkpt lat="41.219326" lon="1.503863">
        <ele>135</ele>
        <time>1970-01-01T00:15:45.000Z</time>
      </trkpt>
      <trkpt lat="41.219322" lon="1.503816">
        <ele>135.2</ele>
        <time>1970-01-01T00:15:46.000Z</time>
      </trkpt>
      <trkpt lat="41.219343" lon="1.50378">
        <ele>135.4</ele>
        <time>1970-01-01T00:15:47.000Z</time>
      </trkpt>
      <trkpt lat="41.219376" lon="1.503771">
        <ele>135.5</ele>
        <time>1970-01-01T00:15:48.000Z</time>
      </trkpt>
      <trkpt lat="41.219408" lon="1.503765">
        <ele>135.7</ele>
        <time>1970-01-01T00:15:49.000Z</time>
      </trkpt>
      <trkpt lat="41.219436" lon="1.503778">
        <ele>135.9</ele>
        <time>1970-01-01T00:15:50.000Z</time>
      </trkpt>
      <trkpt lat="41.219464" lon="1.50379">
        <ele>136</ele>
        <time>1970-01-01T00:15:51.000Z</time>
      </trkpt>
      <trkpt lat="41.219495" lon="1.503798">
        <ele>136.1</ele>
        <time>1970-01-01T00:15:52.000Z</time>
      </trkpt>
      <trkpt lat="41.219528" lon="1.503805">
        <ele>136.2</ele>
        <time>1970-01-01T00:15:53.000Z</time>
      </trkpt>
      <trkpt lat="41.219555" lon="1.503818">
        <ele>136.3</ele>
        <time>1970-01-01T00:15:54.000Z</time>
      </trkpt>
      <trkpt lat="41.219611" lon="1.503839">
        <ele>136.5</ele>
        <time>1970-01-01T00:15:56.000Z</time>
      </trkpt>
      <trkpt lat="41.219641" lon="1.503841">
        <ele>136.7</ele>
        <time>1970-01-01T00:15:57.000Z</time>
      </trkpt>
      <trkpt lat="41.219671" lon="1.503852">
        <ele>136.8</ele>
        <time>1970-01-01T00:15:58.000Z</time>
      </trkpt>
      <trkpt lat="41.2197" lon="1.503865">
        <ele>137</ele>
        <time>1970-01-01T00:15:59.000Z</time>
      </trkpt>
      <trkpt lat="41.219735" lon="1.503875">
        <ele>137.1</ele>
        <time>1970-01-01T00:16:00.000Z</time>
      </trkpt>
      <trkpt lat="41.21979" lon="1.503895">
        <ele>137.2</ele>
        <time>1970-01-01T00:16:02.000Z</time>
      </trkpt>
      <trkpt lat="41.219827" lon="1.503899">
        <ele>137.3</ele>
        <time>1970-01-01T00:16:03.000Z</time>
      </trkpt>
      <trkpt lat="41.219861" lon="1.503917">
        <ele>137.4</ele>
        <time>1970-01-01T00:16:04.000Z</time>
      </trkpt>
      <trkpt lat="41.219909" lon="1.503951">
        <ele>137.6</ele>
        <time>1970-01-01T00:16:06.000Z</time>
      </trkpt>
      <trkpt lat="41.219939" lon="1.503961">
        <ele>137.8</ele>
        <time>1970-01-01T00:16:07.000Z</time>
      </trkpt>
      <trkpt lat="41.219969" lon="1.503962">
        <ele>137.9</ele>
        <time>1970-01-01T00:16:08.000Z</time>
      </trkpt>
      <trkpt lat="41.220002" lon="1.503964">
        <ele>138.1</ele>
        <time>1970-01-01T00:16:09.000Z</time>
      </trkpt>
      <trkpt lat="41.220035" lon="1.503963">
        <ele>138.3</ele>
        <time>1970-01-01T00:16:10.000Z</time>
      </trkpt>
      <trkpt lat="41.220071" lon="1.503966">
        <ele>138.5</ele>
        <time>1970-01-01T00:16:11.000Z</time>
      </trkpt>
      <trkpt lat="41.220112" lon="1.503962">
        <ele>138.7</ele>
        <time>1970-01-01T00:16:12.000Z</time>
      </trkpt>
      <trkpt lat="41.220163" lon="1.503962">
        <ele>139</ele>
        <time>1970-01-01T00:16:13.000Z</time>
      </trkpt>
      <trkpt lat="41.220201" lon="1.503966">
        <ele>139.2</ele>
        <time>1970-01-01T00:16:14.000Z</time>
      </trkpt>
      <trkpt lat="41.220227" lon="1.503951">
        <ele>139.4</ele>
        <time>1970-01-01T00:16:15.000Z</time>
      </trkpt>
      <trkpt lat="41.220277" lon="1.50394">
        <ele>139.9</ele>
        <time>1970-01-01T00:16:17.000Z</time>
      </trkpt>
      <trkpt lat="41.220306" lon="1.503934">
        <ele>140.1</ele>
        <time>1970-01-01T00:16:18.000Z</time>
      </trkpt>
      <trkpt lat="41.220322" lon="1.503902">
        <ele>140.4</ele>
        <time>1970-01-01T00:16:19.000Z</time>
      </trkpt>
      <trkpt lat="41.220351" lon="1.503876">
        <ele>140.6</ele>
        <time>1970-01-01T00:16:20.000Z</time>
      </trkpt>
      <trkpt lat="41.220376" lon="1.503841">
        <ele>140.8</ele>
        <time>1970-01-01T00:16:21.000Z</time>
      </trkpt>
      <trkpt lat="41.220394" lon="1.503803">
        <ele>141</ele>
        <time>1970-01-01T00:16:22.000Z</time>
      </trkpt>
      <trkpt lat="41.220415" lon="1.503773">
        <ele>141.1</ele>
        <time>1970-01-01T00:16:23.000Z</time>
      </trkpt>
      <trkpt lat="41.220444" lon="1.503759">
        <ele>141.3</ele>
        <time>1970-01-01T00:16:24.000Z</time>
      </trkpt>
      <trkpt lat="41.220468" lon="1.503734">
        <ele>141.5</ele>
        <time>1970-01-01T00:16:25.000Z</time>
      </trkpt>
      <trkpt lat="41.220496" lon="1.503714">
        <ele>141.7</ele>
        <time>1970-01-01T00:16:26.000Z</time>
      </trkpt>
      <trkpt lat="41.220545" lon="1.503695">
        <ele>142.1</ele>
        <time>1970-01-01T00:16:28.000Z</time>
      </trkpt>
      <trkpt lat="41.220586" lon="1.503658">
        <ele>142.5</ele>
        <time>1970-01-01T00:16:30.000Z</time>
      </trkpt>
      <trkpt lat="41.220636" lon="1.503613">
        <ele>142.9</ele>
        <time>1970-01-01T00:16:32.000Z</time>
      </trkpt>
      <trkpt lat="41.220668" lon="1.5036">
        <ele>143.1</ele>
        <time>1970-01-01T00:16:33.000Z</time>
      </trkpt>
      <trkpt lat="41.220699" lon="1.503575">
        <ele>143.2</ele>
        <time>1970-01-01T00:16:34.000Z</time>
      </trkpt>
      <trkpt lat="41.220725" lon="1.503558">
        <ele>143.4</ele>
        <time>1970-01-01T00:16:35.000Z</time>
      </trkpt>
      <trkpt lat="41.220756" lon="1.503507">
        <ele>143.6</ele>
        <time>1970-01-01T00:16:37.000Z</time>
      </trkpt>
      <trkpt lat="41.220805" lon="1.503528">
        <ele>143.8</ele>
        <time>1970-01-01T00:16:39.000Z</time>
      </trkpt>
      <trkpt lat="41.22085" lon="1.503557">
        <ele>144</ele>
        <time>1970-01-01T00:16:41.000Z</time>
      </trkpt>
      <trkpt lat="41.220888" lon="1.503562">
        <ele>144.2</ele>
        <time>1970-01-01T00:16:42.000Z</time>
      </trkpt>
      <trkpt lat="41.220923" lon="1.503563">
        <ele>144.4</ele>
        <time>1970-01-01T00:16:43.000Z</time>
      </trkpt>
      <trkpt lat="41.220952" lon="1.503578">
        <ele>144.6</ele>
        <time>1970-01-01T00:16:44.000Z</time>
      </trkpt>
      <trkpt lat="41.220988" lon="1.503589">
        <ele>144.8</ele>
        <time>1970-01-01T00:16:45.000Z</time>
      </trkpt>
      <trkpt lat="41.221015" lon="1.503606">
        <ele>145.1</ele>
        <time>1970-01-01T00:16:46.000Z</time>
      </trkpt>
      <trkpt lat="41.221048" lon="1.503613">
        <ele>145.3</ele>
        <time>1970-01-01T00:16:47.000Z</time>
      </trkpt>
      <trkpt lat="41.22108" lon="1.503613">
        <ele>145.5</ele>
        <time>1970-01-01T00:16:48.000Z</time>
      </trkpt>
      <trkpt lat="41.221114" lon="1.503604">
        <ele>145.6</ele>
        <time>1970-01-01T00:16:49.000Z</time>
      </trkpt>
      <trkpt lat="41.221151" lon="1.50359">
        <ele>145.8</ele>
        <time>1970-01-01T00:16:50.000Z</time>
      </trkpt>
      <trkpt lat="41.221183" lon="1.503583">
        <ele>146</ele>
        <time>1970-01-01T00:16:51.000Z</time>
      </trkpt>
      <trkpt lat="41.221216" lon="1.503578">
        <ele>146.1</ele>
        <time>1970-01-01T00:16:52.000Z</time>
      </trkpt>
      <trkpt lat="41.221235" lon="1.503551">
        <ele>146.2</ele>
        <time>1970-01-01T00:16:54.000Z</time>
      </trkpt>
      <trkpt lat="41.221282" lon="1.503499">
        <ele>146.5</ele>
        <time>1970-01-01T00:16:56.000Z</time>
      </trkpt>
      <trkpt lat="41.221306" lon="1.503467">
        <ele>146.7</ele>
        <time>1970-01-01T00:16:57.000Z</time>
      </trkpt>
      <trkpt lat="41.22133" lon="1.503445">
        <ele>146.8</ele>
        <time>1970-01-01T00:16:58.000Z</time>
      </trkpt>
      <trkpt lat="41.221354" lon="1.503411">
        <ele>146.9</ele>
        <time>1970-01-01T00:16:59.000Z</time>
      </trkpt>
      <trkpt lat="41.221384" lon="1.503371">
        <ele>147.1</ele>
        <time>1970-01-01T00:17:00.000Z</time>
      </trkpt>
      <trkpt lat="41.221417" lon="1.503331">
        <ele>147.2</ele>
        <time>1970-01-01T00:17:01.000Z</time>
      </trkpt>
      <trkpt lat="41.221443" lon="1.503299">
        <ele>147.3</ele>
        <time>1970-01-01T00:17:02.000Z</time>
      </trkpt>
      <trkpt lat="41.221466" lon="1.503272">
        <ele>147.4</ele>
        <time>1970-01-01T00:17:03.000Z</time>
      </trkpt>
      <trkpt lat="41.221495" lon="1.503214">
        <ele>147.6</ele>
        <time>1970-01-01T00:17:05.000Z</time>
      </trkpt>
      <trkpt lat="41.221516" lon="1.50318">
        <ele>147.9</ele>
        <time>1970-01-01T00:17:06.000Z</time>
      </trkpt>
      <trkpt lat="41.221546" lon="1.50315">
        <ele>148.1</ele>
        <time>1970-01-01T00:17:07.000Z</time>
      </trkpt>
      <trkpt lat="41.221565" lon="1.503118">
        <ele>148.3</ele>
        <time>1970-01-01T00:17:08.000Z</time>
      </trkpt>
      <trkpt lat="41.221603" lon="1.503076">
        <ele>148.5</ele>
        <time>1970-01-01T00:17:10.000Z</time>
      </trkpt>
      <trkpt lat="41.221628" lon="1.50306">
        <ele>148.7</ele>
        <time>1970-01-01T00:17:11.000Z</time>
      </trkpt>
      <trkpt lat="41.221663" lon="1.50304">
        <ele>148.9</ele>
        <time>1970-01-01T00:17:12.000Z</time>
      </trkpt>
      <trkpt lat="41.2217" lon="1.503034">
        <ele>149.1</ele>
        <time>1970-01-01T00:17:13.000Z</time>
      </trkpt>
      <trkpt lat="41.221751" lon="1.502994">
        <ele>149.4</ele>
        <time>1970-01-01T00:17:15.000Z</time>
      </trkpt>
      <trkpt lat="41.221779" lon="1.502965">
        <ele>149.6</ele>
        <time>1970-01-01T00:17:16.000Z</time>
      </trkpt>
      <trkpt lat="41.221811" lon="1.502942">
        <ele>149.8</ele>
        <time>1970-01-01T00:17:17.000Z</time>
      </trkpt>
      <trkpt lat="41.221835" lon="1.502915">
        <ele>149.9</ele>
        <time>1970-01-01T00:17:18.000Z</time>
      </trkpt>
      <trkpt lat="41.221862" lon="1.502888">
        <ele>150</ele>
        <time>1970-01-01T00:17:19.000Z</time>
      </trkpt>
      <trkpt lat="41.221892" lon="1.502863">
        <ele>150.1</ele>
        <time>1970-01-01T00:17:20.000Z</time>
      </trkpt>
      <trkpt lat="41.221925" lon="1.502845">
        <ele>150.3</ele>
        <time>1970-01-01T00:17:21.000Z</time>
      </trkpt>
      <trkpt lat="41.221954" lon="1.502833">
        <ele>150.4</ele>
        <time>1970-01-01T00:17:22.000Z</time>
      </trkpt>
      <trkpt lat="41.221979" lon="1.502807">
        <ele>150.5</ele>
        <time>1970-01-01T00:17:23.000Z</time>
      </trkpt>
      <trkpt lat="41.222016" lon="1.502801">
        <ele>150.7</ele>
        <time>1970-01-01T00:17:25.000Z</time>
      </trkpt>
      <trkpt lat="41.222046" lon="1.502801">
        <ele>150.9</ele>
        <time>1970-01-01T00:17:26.000Z</time>
      </trkpt>
      <trkpt lat="41.222075" lon="1.502797">
        <ele>151.1</ele>
        <time>1970-01-01T00:17:27.000Z</time>
      </trkpt>
      <trkpt lat="41.222103" lon="1.502793">
        <ele>151.3</ele>
        <time>1970-01-01T00:17:28.000Z</time>
      </trkpt>
      <trkpt lat="41.222157" lon="1.502792">
        <ele>151.7</ele>
        <time>1970-01-01T00:17:30.000Z</time>
      </trkpt>
      <trkpt lat="41.222202" lon="1.502779">
        <ele>152.2</ele>
        <time>1970-01-01T00:17:32.000Z</time>
      </trkpt>
      <trkpt lat="41.222247" lon="1.502753">
        <ele>152.6</ele>
        <time>1970-01-01T00:17:34.000Z</time>
      </trkpt>
      <trkpt lat="41.222263" lon="1.502708">
        <ele>152.9</ele>
        <time>1970-01-01T00:17:36.000Z</time>
      </trkpt>
      <trkpt lat="41.222299" lon="1.50268">
        <ele>153.3</ele>
        <time>1970-01-01T00:17:38.000Z</time>
      </trkpt>
      <trkpt lat="41.222346" lon="1.502678">
        <ele>153.7</ele>
        <time>1970-01-01T00:17:40.000Z</time>
      </trkpt>
      <trkpt lat="41.222362" lon="1.502644">
        <ele>153.9</ele>
        <time>1970-01-01T00:17:41.000Z</time>
      </trkpt>
      <trkpt lat="41.222385" lon="1.502596">
        <ele>154.3</ele>
        <time>1970-01-01T00:17:43.000Z</time>
      </trkpt>
      <trkpt lat="41.222414" lon="1.502579">
        <ele>154.6</ele>
        <time>1970-01-01T00:17:44.000Z</time>
      </trkpt>
      <trkpt lat="41.222431" lon="1.502551">
        <ele>154.8</ele>
        <time>1970-01-01T00:17:45.000Z</time>
      </trkpt>
      <trkpt lat="41.22244" lon="1.502505">
        <ele>155.2</ele>
        <time>1970-01-01T00:17:46.000Z</time>
      </trkpt>
      <trkpt lat="41.222451" lon="1.502468">
        <ele>155.5</ele>
        <time>1970-01-01T00:17:47.000Z</time>
      </trkpt>
      <trkpt lat="41.222502" lon="1.502432">
        <ele>155.9</ele>
        <time>1970-01-01T00:17:49.000Z</time>
      </trkpt>
      <trkpt lat="41.222535" lon="1.502419">
        <ele>156.1</ele>
        <time>1970-01-01T00:17:50.000Z</time>
      </trkpt>
      <trkpt lat="41.222568" lon="1.502411">
        <ele>156.4</ele>
        <time>1970-01-01T00:17:51.000Z</time>
      </trkpt>
      <trkpt lat="41.222603" lon="1.502393">
        <ele>156.8</ele>
        <time>1970-01-01T00:17:52.000Z</time>
      </trkpt>
      <trkpt lat="41.22264" lon="1.502372">
        <ele>157.3</ele>
        <time>1970-01-01T00:17:53.000Z</time>
      </trkpt>
      <trkpt lat="41.222677" lon="1.502351">
        <ele>157.8</ele>
        <time>1970-01-01T00:17:54.000Z</time>
      </trkpt>
      <trkpt lat="41.222718" lon="1.502327">
        <ele>158.4</ele>
        <time>1970-01-01T00:17:55.000Z</time>
      </trkpt>
      <trkpt lat="41.222762" lon="1.502304">
        <ele>159</ele>
        <time>1970-01-01T00:17:56.000Z</time>
      </trkpt>
      <trkpt lat="41.222809" lon="1.502269">
        <ele>159.7</ele>
        <time>1970-01-01T00:17:57.000Z</time>
      </trkpt>
      <trkpt lat="41.222844" lon="1.50222">
        <ele>160.3</ele>
        <time>1970-01-01T00:17:58.000Z</time>
      </trkpt>
      <trkpt lat="41.222874" lon="1.502177">
        <ele>160.8</ele>
        <time>1970-01-01T00:17:59.000Z</time>
      </trkpt>
      <trkpt lat="41.222886" lon="1.502121">
        <ele>161.3</ele>
        <time>1970-01-01T00:18:00.000Z</time>
      </trkpt>
      <trkpt lat="41.222914" lon="1.502079">
        <ele>161.8</ele>
        <time>1970-01-01T00:18:01.000Z</time>
      </trkpt>
      <trkpt lat="41.222928" lon="1.502044">
        <ele>162.2</ele>
        <time>1970-01-01T00:18:02.000Z</time>
      </trkpt>
      <trkpt lat="41.222952" lon="1.502021">
        <ele>162.6</ele>
        <time>1970-01-01T00:18:03.000Z</time>
      </trkpt>
      <trkpt lat="41.222988" lon="1.50197">
        <ele>163.4</ele>
        <time>1970-01-01T00:18:05.000Z</time>
      </trkpt>
      <trkpt lat="41.223013" lon="1.501947">
        <ele>163.9</ele>
        <time>1970-01-01T00:18:06.000Z</time>
      </trkpt>
      <trkpt lat="41.223042" lon="1.501932">
        <ele>164.4</ele>
        <time>1970-01-01T00:18:07.000Z</time>
      </trkpt>
      <trkpt lat="41.223082" lon="1.50188">
        <ele>165.3</ele>
        <time>1970-01-01T00:18:09.000Z</time>
      </trkpt>
      <trkpt lat="41.223097" lon="1.501844">
        <ele>165.9</ele>
        <time>1970-01-01T00:18:10.000Z</time>
      </trkpt>
      <trkpt lat="41.223114" lon="1.501789">
        <ele>166.8</ele>
        <time>1970-01-01T00:18:12.000Z</time>
      </trkpt>
      <trkpt lat="41.223134" lon="1.501762">
        <ele>167.4</ele>
        <time>1970-01-01T00:18:13.000Z</time>
      </trkpt>
      <trkpt lat="41.223162" lon="1.501714">
        <ele>168.3</ele>
        <time>1970-01-01T00:18:15.000Z</time>
      </trkpt>
      <trkpt lat="41.223178" lon="1.50168">
        <ele>169</ele>
        <time>1970-01-01T00:18:16.000Z</time>
      </trkpt>
      <trkpt lat="41.223209" lon="1.501637">
        <ele>169.9</ele>
        <time>1970-01-01T00:18:18.000Z</time>
      </trkpt>
      <trkpt lat="41.223233" lon="1.501603">
        <ele>170.8</ele>
        <time>1970-01-01T00:18:20.000Z</time>
      </trkpt>
      <trkpt lat="41.223257" lon="1.501566">
        <ele>172</ele>
        <time>1970-01-01T00:18:22.000Z</time>
      </trkpt>
      <trkpt lat="41.223288" lon="1.501506">
        <ele>173.2</ele>
        <time>1970-01-01T00:18:24.000Z</time>
      </trkpt>
      <trkpt lat="41.223303" lon="1.501469">
        <ele>173.8</ele>
        <time>1970-01-01T00:18:25.000Z</time>
      </trkpt>
      <trkpt lat="41.223329" lon="1.501442">
        <ele>174.5</ele>
        <time>1970-01-01T00:18:26.000Z</time>
      </trkpt>
      <trkpt lat="41.223359" lon="1.50142">
        <ele>175.1</ele>
        <time>1970-01-01T00:18:27.000Z</time>
      </trkpt>
      <trkpt lat="41.223383" lon="1.501394">
        <ele>175.7</ele>
        <time>1970-01-01T00:18:28.000Z</time>
      </trkpt>
      <trkpt lat="41.223409" lon="1.501362">
        <ele>176.1</ele>
        <time>1970-01-01T00:18:29.000Z</time>
      </trkpt>
      <trkpt lat="41.223428" lon="1.501325">
        <ele>176.6</ele>
        <time>1970-01-01T00:18:30.000Z</time>
      </trkpt>
      <trkpt lat="41.223452" lon="1.501283">
        <ele>177</ele>
        <time>1970-01-01T00:18:31.000Z</time>
      </trkpt>
      <trkpt lat="41.223469" lon="1.501245">
        <ele>177.3</ele>
        <time>1970-01-01T00:18:32.000Z</time>
      </trkpt>
      <trkpt lat="41.223476" lon="1.501205">
        <ele>177.6</ele>
        <time>1970-01-01T00:18:33.000Z</time>
      </trkpt>
      <trkpt lat="41.223493" lon="1.501167">
        <ele>177.9</ele>
        <time>1970-01-01T00:18:34.000Z</time>
      </trkpt>
      <trkpt lat="41.223493" lon="1.501124">
        <ele>178.1</ele>
        <time>1970-01-01T00:18:35.000Z</time>
      </trkpt>
      <trkpt lat="41.223492" lon="1.501084">
        <ele>178.3</ele>
        <time>1970-01-01T00:18:36.000Z</time>
      </trkpt>
      <trkpt lat="41.223489" lon="1.501042">
        <ele>178.5</ele>
        <time>1970-01-01T00:18:37.000Z</time>
      </trkpt>
      <trkpt lat="41.223488" lon="1.501002">
        <ele>178.6</ele>
        <time>1970-01-01T00:18:38.000Z</time>
      </trkpt>
      <trkpt lat="41.223484" lon="1.500962">
        <ele>178.8</ele>
        <time>1970-01-01T00:18:39.000Z</time>
      </trkpt>
      <trkpt lat="41.223475" lon="1.500926">
        <ele>178.9</ele>
        <time>1970-01-01T00:18:40.000Z</time>
      </trkpt>
      <trkpt lat="41.22346" lon="1.500893">
        <ele>179.1</ele>
        <time>1970-01-01T00:18:41.000Z</time>
      </trkpt>
      <trkpt lat="41.223444" lon="1.500852">
        <ele>179.2</ele>
        <time>1970-01-01T00:18:42.000Z</time>
      </trkpt>
      <trkpt lat="41.22344" lon="1.50081">
        <ele>179.3</ele>
        <time>1970-01-01T00:18:43.000Z</time>
      </trkpt>
      <trkpt lat="41.223431" lon="1.500744">
        <ele>179.5</ele>
        <time>1970-01-01T00:18:45.000Z</time>
      </trkpt>
      <trkpt lat="41.223425" lon="1.500672">
        <ele>179.7</ele>
        <time>1970-01-01T00:18:47.000Z</time>
      </trkpt>
      <trkpt lat="41.223416" lon="1.500634">
        <ele>179.8</ele>
        <time>1970-01-01T00:18:48.000Z</time>
      </trkpt>
      <trkpt lat="41.223397" lon="1.500593">
        <ele>179.9</ele>
        <time>1970-01-01T00:18:49.000Z</time>
      </trkpt>
      <trkpt lat="41.223377" lon="1.500566">
        <ele>180</ele>
        <time>1970-01-01T00:18:50.000Z</time>
      </trkpt>
      <trkpt lat="41.223362" lon="1.500529">
        <ele>180.1</ele>
        <time>1970-01-01T00:18:51.000Z</time>
      </trkpt>
      <trkpt lat="41.223332" lon="1.500468">
        <ele>180.2</ele>
        <time>1970-01-01T00:18:53.000Z</time>
      </trkpt>
      <trkpt lat="41.223318" lon="1.500414">
        <ele>180.4</ele>
        <time>1970-01-01T00:18:55.000Z</time>
      </trkpt>
      <trkpt lat="41.223302" lon="1.500378">
        <ele>180.5</ele>
        <time>1970-01-01T00:18:56.000Z</time>
      </trkpt>
      <trkpt lat="41.223292" lon="1.500342">
        <ele>180.6</ele>
        <time>1970-01-01T00:18:57.000Z</time>
      </trkpt>
      <trkpt lat="41.223281" lon="1.500304">
        <ele>180.7</ele>
        <time>1970-01-01T00:18:58.000Z</time>
      </trkpt>
      <trkpt lat="41.22327" lon="1.500269">
        <ele>180.9</ele>
        <time>1970-01-01T00:18:59.000Z</time>
      </trkpt>
      <trkpt lat="41.223254" lon="1.500227">
        <ele>181</ele>
        <time>1970-01-01T00:19:00.000Z</time>
      </trkpt>
      <trkpt lat="41.223236" lon="1.500195">
        <ele>181.2</ele>
        <time>1970-01-01T00:19:01.000Z</time>
      </trkpt>
      <trkpt lat="41.223234" lon="1.500156">
        <ele>181.3</ele>
        <time>1970-01-01T00:19:02.000Z</time>
      </trkpt>
      <trkpt lat="41.223215" lon="1.500124">
        <ele>181.5</ele>
        <time>1970-01-01T00:19:03.000Z</time>
      </trkpt>
      <trkpt lat="41.223197" lon="1.500084">
        <ele>181.7</ele>
        <time>1970-01-01T00:19:04.000Z</time>
      </trkpt>
      <trkpt lat="41.223172" lon="1.500027">
        <ele>182</ele>
        <time>1970-01-01T00:19:06.000Z</time>
      </trkpt>
      <trkpt lat="41.223162" lon="1.499966">
        <ele>182.2</ele>
        <time>1970-01-01T00:19:08.000Z</time>
      </trkpt>
      <trkpt lat="41.223162" lon="1.499902">
        <ele>182.6</ele>
        <time>1970-01-01T00:19:10.000Z</time>
      </trkpt>
      <trkpt lat="41.223176" lon="1.499836">
        <ele>182.9</ele>
        <time>1970-01-01T00:19:12.000Z</time>
      </trkpt>
      <trkpt lat="41.223204" lon="1.499788">
        <ele>183.3</ele>
        <time>1970-01-01T00:19:14.000Z</time>
      </trkpt>
      <trkpt lat="41.223226" lon="1.499741">
        <ele>183.6</ele>
        <time>1970-01-01T00:19:16.000Z</time>
      </trkpt>
      <trkpt lat="41.223243" lon="1.499711">
        <ele>183.9</ele>
        <time>1970-01-01T00:19:17.000Z</time>
      </trkpt>
      <trkpt lat="41.223267" lon="1.499689">
        <ele>184.1</ele>
        <time>1970-01-01T00:19:18.000Z</time>
      </trkpt>
      <trkpt lat="41.223296" lon="1.499641">
        <ele>184.5</ele>
        <time>1970-01-01T00:19:20.000Z</time>
      </trkpt>
      <trkpt lat="41.223326" lon="1.499598">
        <ele>184.8</ele>
        <time>1970-01-01T00:19:22.000Z</time>
      </trkpt>
      <trkpt lat="41.223352" lon="1.499556">
        <ele>185.2</ele>
        <time>1970-01-01T00:19:24.000Z</time>
      </trkpt>
      <trkpt lat="41.223371" lon="1.499495">
        <ele>185.6</ele>
        <time>1970-01-01T00:19:26.000Z</time>
      </trkpt>
      <trkpt lat="41.223392" lon="1.499446">
        <ele>186</ele>
        <time>1970-01-01T00:19:28.000Z</time>
      </trkpt>
      <trkpt lat="41.223408" lon="1.499402">
        <ele>186.3</ele>
        <time>1970-01-01T00:19:29.000Z</time>
      </trkpt>
      <trkpt lat="41.223423" lon="1.499365">
        <ele>186.5</ele>
        <time>1970-01-01T00:19:30.000Z</time>
      </trkpt>
      <trkpt lat="41.223445" lon="1.499316">
        <ele>186.9</ele>
        <time>1970-01-01T00:19:32.000Z</time>
      </trkpt>
      <trkpt lat="41.22348" lon="1.49927">
        <ele>187.4</ele>
        <time>1970-01-01T00:19:34.000Z</time>
      </trkpt>
      <trkpt lat="41.223497" lon="1.499241">
        <ele>187.6</ele>
        <time>1970-01-01T00:19:35.000Z</time>
      </trkpt>
      <trkpt lat="41.223514" lon="1.499205">
        <ele>187.9</ele>
        <time>1970-01-01T00:19:36.000Z</time>
      </trkpt>
      <trkpt lat="41.223521" lon="1.499166">
        <ele>188.2</ele>
        <time>1970-01-01T00:19:37.000Z</time>
      </trkpt>
      <trkpt lat="41.223516" lon="1.49912">
        <ele>188.5</ele>
        <time>1970-01-01T00:19:38.000Z</time>
      </trkpt>
      <trkpt lat="41.223503" lon="1.499068">
        <ele>189.2</ele>
        <time>1970-01-01T00:19:40.000Z</time>
      </trkpt>
      <trkpt lat="41.223484" lon="1.499005">
        <ele>189.6</ele>
        <time>1970-01-01T00:19:42.000Z</time>
      </trkpt>
      <trkpt lat="41.223474" lon="1.49897">
        <ele>189.8</ele>
        <time>1970-01-01T00:19:43.000Z</time>
      </trkpt>
      <trkpt lat="41.223437" lon="1.498906">
        <ele>190.1</ele>
        <time>1970-01-01T00:19:45.000Z</time>
      </trkpt>
      <trkpt lat="41.223396" lon="1.498855">
        <ele>190.5</ele>
        <time>1970-01-01T00:19:47.000Z</time>
      </trkpt>
      <trkpt lat="41.223375" lon="1.498825">
        <ele>190.6</ele>
        <time>1970-01-01T00:19:48.000Z</time>
      </trkpt>
      <trkpt lat="41.22334" lon="1.498771">
        <ele>190.9</ele>
        <time>1970-01-01T00:19:50.000Z</time>
      </trkpt>
      <trkpt lat="41.223313" lon="1.498715">
        <ele>191.2</ele>
        <time>1970-01-01T00:19:52.000Z</time>
      </trkpt>
      <trkpt lat="41.223276" lon="1.498669">
        <ele>191.5</ele>
        <time>1970-01-01T00:19:54.000Z</time>
      </trkpt>
      <trkpt lat="41.223255" lon="1.498645">
        <ele>191.7</ele>
        <time>1970-01-01T00:19:55.000Z</time>
      </trkpt>
      <trkpt lat="41.223232" lon="1.498626">
        <ele>191.8</ele>
        <time>1970-01-01T00:19:56.000Z</time>
      </trkpt>
      <trkpt lat="41.22321" lon="1.498597">
        <ele>192.1</ele>
        <time>1970-01-01T00:19:57.000Z</time>
      </trkpt>
      <trkpt lat="41.223168" lon="1.498551">
        <ele>192.5</ele>
        <time>1970-01-01T00:19:59.000Z</time>
      </trkpt>
      <trkpt lat="41.223148" lon="1.498514">
        <ele>192.7</ele>
        <time>1970-01-01T00:20:01.000Z</time>
      </trkpt>
      <trkpt lat="41.223119" lon="1.498469">
        <ele>193</ele>
        <time>1970-01-01T00:20:03.000Z</time>
      </trkpt>
      <trkpt lat="41.223094" lon="1.498439">
        <ele>193.2</ele>
        <time>1970-01-01T00:20:05.000Z</time>
      </trkpt>
      <trkpt lat="41.223073" lon="1.498408">
        <ele>193.3</ele>
        <time>1970-01-01T00:20:07.000Z</time>
      </trkpt>
      <trkpt lat="41.22305" lon="1.498361">
        <ele>193.5</ele>
        <time>1970-01-01T00:20:09.000Z</time>
      </trkpt>
      <trkpt lat="41.223018" lon="1.498328">
        <ele>193.7</ele>
        <time>1970-01-01T00:20:11.000Z</time>
      </trkpt>
      <trkpt lat="41.223018" lon="1.498281">
        <ele>194</ele>
        <time>1970-01-01T00:20:13.000Z</time>
      </trkpt>
      <trkpt lat="41.223017" lon="1.498228">
        <ele>194.2</ele>
        <time>1970-01-01T00:20:15.000Z</time>
      </trkpt>
      <trkpt lat="41.223021" lon="1.498177">
        <ele>194.5</ele>
        <time>1970-01-01T00:20:17.000Z</time>
      </trkpt>
      <trkpt lat="41.223028" lon="1.49813">
        <ele>194.7</ele>
        <time>1970-01-01T00:20:19.000Z</time>
      </trkpt>
      <trkpt lat="41.223022" lon="1.498079">
        <ele>195</ele>
        <time>1970-01-01T00:20:21.000Z</time>
      </trkpt>
      <trkpt lat="41.223032" lon="1.498024">
        <ele>195.2</ele>
        <time>1970-01-01T00:20:23.000Z</time>
      </trkpt>
      <trkpt lat="41.223047" lon="1.497994">
        <ele>195.3</ele>
        <time>1970-01-01T00:20:24.000Z</time>
      </trkpt>
      <trkpt lat="41.223079" lon="1.497939">
        <ele>195.6</ele>
        <time>1970-01-01T00:20:26.000Z</time>
      </trkpt>
      <trkpt lat="41.223094" lon="1.497895">
        <ele>195.8</ele>
        <time>1970-01-01T00:20:28.000Z</time>
      </trkpt>
      <trkpt lat="41.223096" lon="1.497834">
        <ele>196</ele>
        <time>1970-01-01T00:20:30.000Z</time>
      </trkpt>
      <trkpt lat="41.223108" lon="1.497785">
        <ele>196.3</ele>
        <time>1970-01-01T00:20:32.000Z</time>
      </trkpt>
      <trkpt lat="41.223116" lon="1.497727">
        <ele>196.5</ele>
        <time>1970-01-01T00:20:34.000Z</time>
      </trkpt>
      <trkpt lat="41.223138" lon="1.49768">
        <ele>196.8</ele>
        <time>1970-01-01T00:20:36.000Z</time>
      </trkpt>
      <trkpt lat="41.223151" lon="1.497643">
        <ele>197</ele>
        <time>1970-01-01T00:20:38.000Z</time>
      </trkpt>
      <trkpt lat="41.223175" lon="1.497599">
        <ele>197.1</ele>
        <time>1970-01-01T00:20:41.000Z</time>
      </trkpt>
      <trkpt lat="41.223197" lon="1.497558">
        <ele>197.2</ele>
        <time>1970-01-01T00:20:43.000Z</time>
      </trkpt>
      <trkpt lat="41.223201" lon="1.497507">
        <ele>197.4</ele>
        <time>1970-01-01T00:20:45.000Z</time>
      </trkpt>
      <trkpt lat="41.223203" lon="1.497466">
        <ele>197.5</ele>
        <time>1970-01-01T00:20:47.000Z</time>
      </trkpt>
      <trkpt lat="41.223211" lon="1.497406">
        <ele>197.7</ele>
        <time>1970-01-01T00:20:49.000Z</time>
      </trkpt>
      <trkpt lat="41.223201" lon="1.497348">
        <ele>197.8</ele>
        <time>1970-01-01T00:20:51.000Z</time>
      </trkpt>
      <trkpt lat="41.223202" lon="1.4973">
        <ele>198</ele>
        <time>1970-01-01T00:20:53.000Z</time>
      </trkpt>
      <trkpt lat="41.223183" lon="1.497245">
        <ele>198.2</ele>
        <time>1970-01-01T00:20:55.000Z</time>
      </trkpt>
      <trkpt lat="41.223183" lon="1.497188">
        <ele>198.4</ele>
        <time>1970-01-01T00:20:57.000Z</time>
      </trkpt>
      <trkpt lat="41.223169" lon="1.497119">
        <ele>198.8</ele>
        <time>1970-01-01T00:20:59.000Z</time>
      </trkpt>
      <trkpt lat="41.223173" lon="1.497078">
        <ele>198.9</ele>
        <time>1970-01-01T00:21:00.000Z</time>
      </trkpt>
      <trkpt lat="41.223159" lon="1.497005">
        <ele>199.2</ele>
        <time>1970-01-01T00:21:02.000Z</time>
      </trkpt>
      <trkpt lat="41.223154" lon="1.496969">
        <ele>199.3</ele>
        <time>1970-01-01T00:21:03.000Z</time>
      </trkpt>
      <trkpt lat="41.223142" lon="1.496911">
        <ele>199.5</ele>
        <time>1970-01-01T00:21:05.000Z</time>
      </trkpt>
      <trkpt lat="41.223131" lon="1.496875">
        <ele>199.6</ele>
        <time>1970-01-01T00:21:06.000Z</time>
      </trkpt>
      <trkpt lat="41.223114" lon="1.49684">
        <ele>199.8</ele>
        <time>1970-01-01T00:21:07.000Z</time>
      </trkpt>
      <trkpt lat="41.223107" lon="1.496802">
        <ele>200</ele>
        <time>1970-01-01T00:21:08.000Z</time>
      </trkpt>
      <trkpt lat="41.223088" lon="1.49676">
        <ele>200.2</ele>
        <time>1970-01-01T00:21:09.000Z</time>
      </trkpt>
      <trkpt lat="41.223067" lon="1.49672">
        <ele>200.4</ele>
        <time>1970-01-01T00:21:10.000Z</time>
      </trkpt>
      <trkpt lat="41.223048" lon="1.49668">
        <ele>200.5</ele>
        <time>1970-01-01T00:21:11.000Z</time>
      </trkpt>
      <trkpt lat="41.223027" lon="1.496638">
        <ele>200.7</ele>
        <time>1970-01-01T00:21:12.000Z</time>
      </trkpt>
      <trkpt lat="41.223009" lon="1.496607">
        <ele>200.8</ele>
        <time>1970-01-01T00:21:13.000Z</time>
      </trkpt>
      <trkpt lat="41.222982" lon="1.496569">
        <ele>201</ele>
        <time>1970-01-01T00:21:14.000Z</time>
      </trkpt>
      <trkpt lat="41.222953" lon="1.496546">
        <ele>201.2</ele>
        <time>1970-01-01T00:21:15.000Z</time>
      </trkpt>
      <trkpt lat="41.222922" lon="1.49654">
        <ele>201.5</ele>
        <time>1970-01-01T00:21:16.000Z</time>
      </trkpt>
      <trkpt lat="41.222892" lon="1.496526">
        <ele>201.8</ele>
        <time>1970-01-01T00:21:17.000Z</time>
      </trkpt>
      <trkpt lat="41.222866" lon="1.496514">
        <ele>202</ele>
        <time>1970-01-01T00:21:18.000Z</time>
      </trkpt>
      <trkpt lat="41.222823" lon="1.49649">
        <ele>202.2</ele>
        <time>1970-01-01T00:21:20.000Z</time>
      </trkpt>
      <trkpt lat="41.22279" lon="1.496474">
        <ele>202.5</ele>
        <time>1970-01-01T00:21:21.000Z</time>
      </trkpt>
      <trkpt lat="41.222738" lon="1.496439">
        <ele>202.8</ele>
        <time>1970-01-01T00:21:23.000Z</time>
      </trkpt>
      <trkpt lat="41.22271" lon="1.496407">
        <ele>203</ele>
        <time>1970-01-01T00:21:25.000Z</time>
      </trkpt>
      <trkpt lat="41.222693" lon="1.49636">
        <ele>203.2</ele>
        <time>1970-01-01T00:21:27.000Z</time>
      </trkpt>
      <trkpt lat="41.222667" lon="1.496303">
        <ele>203.4</ele>
        <time>1970-01-01T00:21:29.000Z</time>
      </trkpt>
      <trkpt lat="41.222626" lon="1.496277">
        <ele>203.6</ele>
        <time>1970-01-01T00:21:31.000Z</time>
      </trkpt>
      <trkpt lat="41.222612" lon="1.49623">
        <ele>203.7</ele>
        <time>1970-01-01T00:21:33.000Z</time>
      </trkpt>
      <trkpt lat="41.222609" lon="1.496176">
        <ele>203.9</ele>
        <time>1970-01-01T00:21:35.000Z</time>
      </trkpt>
      <trkpt lat="41.22261" lon="1.496121">
        <ele>204.1</ele>
        <time>1970-01-01T00:21:37.000Z</time>
      </trkpt>
      <trkpt lat="41.222631" lon="1.496078">
        <ele>204.4</ele>
        <time>1970-01-01T00:21:39.000Z</time>
      </trkpt>
      <trkpt lat="41.222662" lon="1.496049">
        <ele>204.6</ele>
        <time>1970-01-01T00:21:41.000Z</time>
      </trkpt>
      <trkpt lat="41.222688" lon="1.496017">
        <ele>204.8</ele>
        <time>1970-01-01T00:21:43.000Z</time>
      </trkpt>
      <trkpt lat="41.222728" lon="1.496003">
        <ele>205.1</ele>
        <time>1970-01-01T00:21:45.000Z</time>
      </trkpt>
      <trkpt lat="41.222768" lon="1.495978">
        <ele>205.3</ele>
        <time>1970-01-01T00:21:47.000Z</time>
      </trkpt>
      <trkpt lat="41.222785" lon="1.495916">
        <ele>205.5</ele>
        <time>1970-01-01T00:21:49.000Z</time>
      </trkpt>
      <trkpt lat="41.222799" lon="1.495872">
        <ele>205.7</ele>
        <time>1970-01-01T00:21:51.000Z</time>
      </trkpt>
      <trkpt lat="41.222816" lon="1.49581">
        <ele>206.1</ele>
        <time>1970-01-01T00:21:53.000Z</time>
      </trkpt>
      <trkpt lat="41.222847" lon="1.495754">
        <ele>206.4</ele>
        <time>1970-01-01T00:21:55.000Z</time>
      </trkpt>
      <trkpt lat="41.22289" lon="1.495713">
        <ele>206.7</ele>
        <time>1970-01-01T00:21:57.000Z</time>
      </trkpt>
      <trkpt lat="41.222924" lon="1.495687">
        <ele>206.8</ele>
        <time>1970-01-01T00:21:59.000Z</time>
      </trkpt>
      <trkpt lat="41.222963" lon="1.495666">
        <ele>207</ele>
        <time>1970-01-01T00:22:01.000Z</time>
      </trkpt>
      <trkpt lat="41.223" lon="1.495641">
        <ele>207.2</ele>
        <time>1970-01-01T00:22:03.000Z</time>
      </trkpt>
      <trkpt lat="41.223037" lon="1.49559">
        <ele>207.6</ele>
        <time>1970-01-01T00:22:05.000Z</time>
      </trkpt>
      <trkpt lat="41.223089" lon="1.495551">
        <ele>208</ele>
        <time>1970-01-01T00:22:07.000Z</time>
      </trkpt>
      <trkpt lat="41.223141" lon="1.495536">
        <ele>208.3</ele>
        <time>1970-01-01T00:22:09.000Z</time>
      </trkpt>
      <trkpt lat="41.223193" lon="1.49554">
        <ele>208.5</ele>
        <time>1970-01-01T00:22:11.000Z</time>
      </trkpt>
      <trkpt lat="41.223219" lon="1.495556">
        <ele>208.7</ele>
        <time>1970-01-01T00:22:12.000Z</time>
      </trkpt>
      <trkpt lat="41.223246" lon="1.495571">
        <ele>208.8</ele>
        <time>1970-01-01T00:22:13.000Z</time>
      </trkpt>
      <trkpt lat="41.223277" lon="1.495604">
        <ele>209.1</ele>
        <time>1970-01-01T00:22:15.000Z</time>
      </trkpt>
      <trkpt lat="41.223322" lon="1.495631">
        <ele>209.4</ele>
        <time>1970-01-01T00:22:17.000Z</time>
      </trkpt>
      <trkpt lat="41.223351" lon="1.495664">
        <ele>209.6</ele>
        <time>1970-01-01T00:22:19.000Z</time>
      </trkpt>
      <trkpt lat="41.223364" lon="1.495709">
        <ele>209.9</ele>
        <time>1970-01-01T00:22:21.000Z</time>
      </trkpt>
      <trkpt lat="41.223374" lon="1.495764">
        <ele>210.2</ele>
        <time>1970-01-01T00:22:23.000Z</time>
      </trkpt>
      <trkpt lat="41.223383" lon="1.495819">
        <ele>210.4</ele>
        <time>1970-01-01T00:22:25.000Z</time>
      </trkpt>
      <trkpt lat="41.223412" lon="1.495861">
        <ele>210.6</ele>
        <time>1970-01-01T00:22:27.000Z</time>
      </trkpt>
      <trkpt lat="41.223437" lon="1.495881">
        <ele>210.8</ele>
        <time>1970-01-01T00:22:28.000Z</time>
      </trkpt>
      <trkpt lat="41.223464" lon="1.495892">
        <ele>211</ele>
        <time>1970-01-01T00:22:29.000Z</time>
      </trkpt>
      <trkpt lat="41.223496" lon="1.495907">
        <ele>211.2</ele>
        <time>1970-01-01T00:22:31.000Z</time>
      </trkpt>
      <trkpt lat="41.223539" lon="1.495918">
        <ele>211.5</ele>
        <time>1970-01-01T00:22:33.000Z</time>
      </trkpt>
      <trkpt lat="41.223573" lon="1.495919">
        <ele>211.7</ele>
        <time>1970-01-01T00:22:35.000Z</time>
      </trkpt>
      <trkpt lat="41.223615" lon="1.495902">
        <ele>211.9</ele>
        <time>1970-01-01T00:22:37.000Z</time>
      </trkpt>
      <trkpt lat="41.223657" lon="1.495874">
        <ele>212.3</ele>
        <time>1970-01-01T00:22:39.000Z</time>
      </trkpt>
      <trkpt lat="41.223689" lon="1.495819">
        <ele>212.7</ele>
        <time>1970-01-01T00:22:41.000Z</time>
      </trkpt>
      <trkpt lat="41.223718" lon="1.495761">
        <ele>213.2</ele>
        <time>1970-01-01T00:22:43.000Z</time>
      </trkpt>
      <trkpt lat="41.223738" lon="1.495734">
        <ele>213.5</ele>
        <time>1970-01-01T00:22:44.000Z</time>
      </trkpt>
      <trkpt lat="41.223761" lon="1.495711">
        <ele>213.8</ele>
        <time>1970-01-01T00:22:45.000Z</time>
      </trkpt>
      <trkpt lat="41.223785" lon="1.495672">
        <ele>214.2</ele>
        <time>1970-01-01T00:22:46.000Z</time>
      </trkpt>
      <trkpt lat="41.223822" lon="1.495632">
        <ele>214.6</ele>
        <time>1970-01-01T00:22:48.000Z</time>
      </trkpt>
      <trkpt lat="41.223852" lon="1.495578">
        <ele>215</ele>
        <time>1970-01-01T00:22:50.000Z</time>
      </trkpt>
      <trkpt lat="41.223878" lon="1.495526">
        <ele>215.4</ele>
        <time>1970-01-01T00:22:52.000Z</time>
      </trkpt>
      <trkpt lat="41.223902" lon="1.495485">
        <ele>215.7</ele>
        <time>1970-01-01T00:22:54.000Z</time>
      </trkpt>
      <trkpt lat="41.223936" lon="1.495439">
        <ele>216.1</ele>
        <time>1970-01-01T00:22:56.000Z</time>
      </trkpt>
      <trkpt lat="41.223967" lon="1.495395">
        <ele>216.5</ele>
        <time>1970-01-01T00:22:58.000Z</time>
      </trkpt>
      <trkpt lat="41.223998" lon="1.495354">
        <ele>216.8</ele>
        <time>1970-01-01T00:23:00.000Z</time>
      </trkpt>
      <trkpt lat="41.22402" lon="1.495309">
        <ele>217.1</ele>
        <time>1970-01-01T00:23:02.000Z</time>
      </trkpt>
      <trkpt lat="41.224029" lon="1.495236">
        <ele>217.4</ele>
        <time>1970-01-01T00:23:04.000Z</time>
      </trkpt>
      <trkpt lat="41.224029" lon="1.495192">
        <ele>217.6</ele>
        <time>1970-01-01T00:23:05.000Z</time>
      </trkpt>
      <trkpt lat="41.22403" lon="1.495121">
        <ele>217.9</ele>
        <time>1970-01-01T00:23:07.000Z</time>
      </trkpt>
      <trkpt lat="41.224016" lon="1.495091">
        <ele>218.1</ele>
        <time>1970-01-01T00:23:08.000Z</time>
      </trkpt>
      <trkpt lat="41.224006" lon="1.495033">
        <ele>218.4</ele>
        <time>1970-01-01T00:23:10.000Z</time>
      </trkpt>
      <trkpt lat="41.224002" lon="1.49497">
        <ele>218.7</ele>
        <time>1970-01-01T00:23:12.000Z</time>
      </trkpt>
      <trkpt lat="41.224007" lon="1.494934">
        <ele>218.9</ele>
        <time>1970-01-01T00:23:13.000Z</time>
      </trkpt>
      <trkpt lat="41.224014" lon="1.494872">
        <ele>219.2</ele>
        <time>1970-01-01T00:23:15.000Z</time>
      </trkpt>
      <trkpt lat="41.224012" lon="1.494828">
        <ele>219.5</ele>
        <time>1970-01-01T00:23:17.000Z</time>
      </trkpt>
      <trkpt lat="41.224021" lon="1.494791">
        <ele>219.7</ele>
        <time>1970-01-01T00:23:19.000Z</time>
      </trkpt>
      <trkpt lat="41.224052" lon="1.494771">
        <ele>219.9</ele>
        <time>1970-01-01T00:23:21.000Z</time>
      </trkpt>
      <trkpt lat="41.224079" lon="1.494742">
        <ele>220.1</ele>
        <time>1970-01-01T00:23:23.000Z</time>
      </trkpt>
      <trkpt lat="41.224117" lon="1.494711">
        <ele>220.3</ele>
        <time>1970-01-01T00:23:25.000Z</time>
      </trkpt>
      <trkpt lat="41.224145" lon="1.494721">
        <ele>220.5</ele>
        <time>1970-01-01T00:23:26.000Z</time>
      </trkpt>
      <trkpt lat="41.224181" lon="1.494725">
        <ele>220.7</ele>
        <time>1970-01-01T00:23:28.000Z</time>
      </trkpt>
      <trkpt lat="41.224214" lon="1.494736">
        <ele>221</ele>
        <time>1970-01-01T00:23:29.000Z</time>
      </trkpt>
      <trkpt lat="41.224263" lon="1.494749">
        <ele>221.2</ele>
        <time>1970-01-01T00:23:31.000Z</time>
      </trkpt>
      <trkpt lat="41.224297" lon="1.494765">
        <ele>221.4</ele>
        <time>1970-01-01T00:23:33.000Z</time>
      </trkpt>
      <trkpt lat="41.224324" lon="1.494768">
        <ele>221.5</ele>
        <time>1970-01-01T00:23:35.000Z</time>
      </trkpt>
      <trkpt lat="41.224373" lon="1.494786">
        <ele>221.8</ele>
        <time>1970-01-01T00:23:37.000Z</time>
      </trkpt>
      <trkpt lat="41.224418" lon="1.494794">
        <ele>222</ele>
        <time>1970-01-01T00:23:39.000Z</time>
      </trkpt>
      <trkpt lat="41.224475" lon="1.494795">
        <ele>222.3</ele>
        <time>1970-01-01T00:23:41.000Z</time>
      </trkpt>
      <trkpt lat="41.224509" lon="1.494777">
        <ele>222.5</ele>
        <time>1970-01-01T00:23:43.000Z</time>
      </trkpt>
      <trkpt lat="41.22454" lon="1.494747">
        <ele>222.7</ele>
        <time>1970-01-01T00:23:45.000Z</time>
      </trkpt>
      <trkpt lat="41.224588" lon="1.494725">
        <ele>223</ele>
        <time>1970-01-01T00:23:47.000Z</time>
      </trkpt>
      <trkpt lat="41.22464" lon="1.494709">
        <ele>223.3</ele>
        <time>1970-01-01T00:23:49.000Z</time>
      </trkpt>
      <trkpt lat="41.224678" lon="1.494699">
        <ele>223.5</ele>
        <time>1970-01-01T00:23:51.000Z</time>
      </trkpt>
      <trkpt lat="41.224712" lon="1.494671">
        <ele>223.6</ele>
        <time>1970-01-01T00:23:53.000Z</time>
      </trkpt>
      <trkpt lat="41.224745" lon="1.494648">
        <ele>223.8</ele>
        <time>1970-01-01T00:23:55.000Z</time>
      </trkpt>
      <trkpt lat="41.224787" lon="1.494623">
        <ele>224</ele>
        <time>1970-01-01T00:23:57.000Z</time>
      </trkpt>
      <trkpt lat="41.224817" lon="1.494615">
        <ele>224.1</ele>
        <time>1970-01-01T00:23:59.000Z</time>
      </trkpt>
      <trkpt lat="41.224844" lon="1.494601">
        <ele>224.2</ele>
        <time>1970-01-01T00:24:00.000Z</time>
      </trkpt>
      <trkpt lat="41.22489" lon="1.49459">
        <ele>224.4</ele>
        <time>1970-01-01T00:24:02.000Z</time>
      </trkpt>
      <trkpt lat="41.224931" lon="1.494577">
        <ele>224.6</ele>
        <time>1970-01-01T00:24:04.000Z</time>
      </trkpt>
      <trkpt lat="41.224961" lon="1.494576">
        <ele>224.8</ele>
        <time>1970-01-01T00:24:06.000Z</time>
      </trkpt>
      <trkpt lat="41.225" lon="1.494581">
        <ele>225</ele>
        <time>1970-01-01T00:24:08.000Z</time>
      </trkpt>
      <trkpt lat="41.225041" lon="1.494599">
        <ele>225.3</ele>
        <time>1970-01-01T00:24:10.000Z</time>
      </trkpt>
      <trkpt lat="41.225094" lon="1.494593">
        <ele>225.6</ele>
        <time>1970-01-01T00:24:12.000Z</time>
      </trkpt>
      <trkpt lat="41.225133" lon="1.494606">
        <ele>225.9</ele>
        <time>1970-01-01T00:24:14.000Z</time>
      </trkpt>
      <trkpt lat="41.225179" lon="1.494627">
        <ele>226.2</ele>
        <time>1970-01-01T00:24:16.000Z</time>
      </trkpt>
      <trkpt lat="41.225217" lon="1.494625">
        <ele>226.5</ele>
        <time>1970-01-01T00:24:18.000Z</time>
      </trkpt>
      <trkpt lat="41.22524" lon="1.494596">
        <ele>226.7</ele>
        <time>1970-01-01T00:24:20.000Z</time>
      </trkpt>
      <trkpt lat="41.225259" lon="1.494563">
        <ele>226.9</ele>
        <time>1970-01-01T00:24:22.000Z</time>
      </trkpt>
      <trkpt lat="41.225288" lon="1.494543">
        <ele>227.2</ele>
        <time>1970-01-01T00:24:24.000Z</time>
      </trkpt>
      <trkpt lat="41.225322" lon="1.494523">
        <ele>227.4</ele>
        <time>1970-01-01T00:24:26.000Z</time>
      </trkpt>
      <trkpt lat="41.225334" lon="1.494489">
        <ele>227.6</ele>
        <time>1970-01-01T00:24:27.000Z</time>
      </trkpt>
      <trkpt lat="41.225364" lon="1.494446">
        <ele>227.8</ele>
        <time>1970-01-01T00:24:29.000Z</time>
      </trkpt>
      <trkpt lat="41.225401" lon="1.494436">
        <ele>228.1</ele>
        <time>1970-01-01T00:24:31.000Z</time>
      </trkpt>
      <trkpt lat="41.225439" lon="1.494415">
        <ele>228.3</ele>
        <time>1970-01-01T00:24:33.000Z</time>
      </trkpt>
      <trkpt lat="41.225471" lon="1.494383">
        <ele>228.6</ele>
        <time>1970-01-01T00:24:35.000Z</time>
      </trkpt>
      <trkpt lat="41.225488" lon="1.494342">
        <ele>228.8</ele>
        <time>1970-01-01T00:24:37.000Z</time>
      </trkpt>
      <trkpt lat="41.22551" lon="1.494295">
        <ele>229</ele>
        <time>1970-01-01T00:24:39.000Z</time>
      </trkpt>
      <trkpt lat="41.225538" lon="1.494264">
        <ele>229.2</ele>
        <time>1970-01-01T00:24:41.000Z</time>
      </trkpt>
      <trkpt lat="41.225576" lon="1.494221">
        <ele>229.5</ele>
        <time>1970-01-01T00:24:43.000Z</time>
      </trkpt>
      <trkpt lat="41.225601" lon="1.494205">
        <ele>229.6</ele>
        <time>1970-01-01T00:24:44.000Z</time>
      </trkpt>
      <trkpt lat="41.225643" lon="1.494179">
        <ele>229.8</ele>
        <time>1970-01-01T00:24:46.000Z</time>
      </trkpt>
      <trkpt lat="41.225666" lon="1.494148">
        <ele>229.9</ele>
        <time>1970-01-01T00:24:48.000Z</time>
      </trkpt>
      <trkpt lat="41.225698" lon="1.49413">
        <ele>230</ele>
        <time>1970-01-01T00:24:50.000Z</time>
      </trkpt>
      <trkpt lat="41.225737" lon="1.494095">
        <ele>230.2</ele>
        <time>1970-01-01T00:24:52.000Z</time>
      </trkpt>
      <trkpt lat="41.225764" lon="1.494074">
        <ele>230.3</ele>
        <time>1970-01-01T00:24:54.000Z</time>
      </trkpt>
      <trkpt lat="41.225796" lon="1.494049">
        <ele>230.4</ele>
        <time>1970-01-01T00:24:56.000Z</time>
      </trkpt>
      <trkpt lat="41.225826" lon="1.494002">
        <ele>230.6</ele>
        <time>1970-01-01T00:24:58.000Z</time>
      </trkpt>
      <trkpt lat="41.225856" lon="1.493962">
        <ele>230.7</ele>
        <time>1970-01-01T00:25:00.000Z</time>
      </trkpt>
      <trkpt lat="41.225862" lon="1.493917">
        <ele>230.8</ele>
        <time>1970-01-01T00:25:02.000Z</time>
      </trkpt>
      <trkpt lat="41.22587" lon="1.493865">
        <ele>230.9</ele>
        <time>1970-01-01T00:25:04.000Z</time>
      </trkpt>
      <trkpt lat="41.225887" lon="1.493826">
        <ele>230.9</ele>
        <time>1970-01-01T00:25:06.000Z</time>
      </trkpt>
      <trkpt lat="41.225911" lon="1.493771">
        <ele>231.1</ele>
        <time>1970-01-01T00:25:08.000Z</time>
      </trkpt>
      <trkpt lat="41.225931" lon="1.493731">
        <ele>231.1</ele>
        <time>1970-01-01T00:25:10.000Z</time>
      </trkpt>
      <trkpt lat="41.225959" lon="1.493704">
        <ele>231.3</ele>
        <time>1970-01-01T00:25:12.000Z</time>
      </trkpt>
      <trkpt lat="41.22599" lon="1.493655">
        <ele>231.4</ele>
        <time>1970-01-01T00:25:14.000Z</time>
      </trkpt>
      <trkpt lat="41.226006" lon="1.493609">
        <ele>231.5</ele>
        <time>1970-01-01T00:25:16.000Z</time>
      </trkpt>
      <trkpt lat="41.22603" lon="1.493587">
        <ele>231.6</ele>
        <time>1970-01-01T00:25:18.000Z</time>
      </trkpt>
      <trkpt lat="41.226058" lon="1.493558">
        <ele>231.7</ele>
        <time>1970-01-01T00:25:20.000Z</time>
      </trkpt>
      <trkpt lat="41.226086" lon="1.493522">
        <ele>231.8</ele>
        <time>1970-01-01T00:25:22.000Z</time>
      </trkpt>
      <trkpt lat="41.226106" lon="1.493489">
        <ele>231.8</ele>
        <time>1970-01-01T00:25:24.000Z</time>
      </trkpt>
      <trkpt lat="41.226116" lon="1.493436">
        <ele>231.9</ele>
        <time>1970-01-01T00:25:26.000Z</time>
      </trkpt>
      <trkpt lat="41.226132" lon="1.493381">
        <ele>232</ele>
        <time>1970-01-01T00:25:28.000Z</time>
      </trkpt>
      <trkpt lat="41.226133" lon="1.493328">
        <ele>232.1</ele>
        <time>1970-01-01T00:25:30.000Z</time>
      </trkpt>
      <trkpt lat="41.226137" lon="1.493282">
        <ele>232.2</ele>
        <time>1970-01-01T00:25:32.000Z</time>
      </trkpt>
      <trkpt lat="41.226142" lon="1.493225">
        <ele>232.3</ele>
        <time>1970-01-01T00:25:34.000Z</time>
      </trkpt>
      <trkpt lat="41.226151" lon="1.493162">
        <ele>232.5</ele>
        <time>1970-01-01T00:25:36.000Z</time>
      </trkpt>
      <trkpt lat="41.226184" lon="1.493125">
        <ele>232.6</ele>
        <time>1970-01-01T00:25:38.000Z</time>
      </trkpt>
      <trkpt lat="41.226199" lon="1.493081">
        <ele>232.7</ele>
        <time>1970-01-01T00:25:40.000Z</time>
      </trkpt>
      <trkpt lat="41.226221" lon="1.493042">
        <ele>232.9</ele>
        <time>1970-01-01T00:25:42.000Z</time>
      </trkpt>
      <trkpt lat="41.226243" lon="1.493009">
        <ele>233</ele>
        <time>1970-01-01T00:25:44.000Z</time>
      </trkpt>
      <trkpt lat="41.226271" lon="1.492966">
        <ele>233</ele>
        <time>1970-01-01T00:25:46.000Z</time>
      </trkpt>
      <trkpt lat="41.226296" lon="1.492935">
        <ele>233.1</ele>
        <time>1970-01-01T00:25:49.000Z</time>
      </trkpt>
      <trkpt lat="41.226324" lon="1.492894">
        <ele>233.2</ele>
        <time>1970-01-01T00:25:51.000Z</time>
      </trkpt>
      <trkpt lat="41.226349" lon="1.492875">
        <ele>233.2</ele>
        <time>1970-01-01T00:25:53.000Z</time>
      </trkpt>
      <trkpt lat="41.226378" lon="1.492853">
        <ele>233.3</ele>
        <time>1970-01-01T00:25:55.000Z</time>
      </trkpt>
      <trkpt lat="41.2264" lon="1.492826">
        <ele>233.4</ele>
        <time>1970-01-01T00:25:58.000Z</time>
      </trkpt>
      <trkpt lat="41.226419" lon="1.492772">
        <ele>233.4</ele>
        <time>1970-01-01T00:26:00.000Z</time>
      </trkpt>
      <trkpt lat="41.226428" lon="1.492708">
        <ele>233.5</ele>
        <time>1970-01-01T00:26:02.000Z</time>
      </trkpt>
      <trkpt lat="41.226434" lon="1.492652">
        <ele>233.6</ele>
        <time>1970-01-01T00:26:04.000Z</time>
      </trkpt>
      <trkpt lat="41.226459" lon="1.492608">
        <ele>233.6</ele>
        <time>1970-01-01T00:26:06.000Z</time>
      </trkpt>
      <trkpt lat="41.22648" lon="1.492549">
        <ele>233.7</ele>
        <time>1970-01-01T00:26:08.000Z</time>
      </trkpt>
      <trkpt lat="41.226489" lon="1.49251">
        <ele>233.7</ele>
        <time>1970-01-01T00:26:09.000Z</time>
      </trkpt>
      <trkpt lat="41.226495" lon="1.492466">
        <ele>233.8</ele>
        <time>1970-01-01T00:26:10.000Z</time>
      </trkpt>
      <trkpt lat="41.226489" lon="1.492416">
        <ele>233.8</ele>
        <time>1970-01-01T00:26:11.000Z</time>
      </trkpt>
      <trkpt lat="41.226479" lon="1.492374">
        <ele>233.9</ele>
        <time>1970-01-01T00:26:12.000Z</time>
      </trkpt>
      <trkpt lat="41.226468" lon="1.492341">
        <ele>234</ele>
        <time>1970-01-01T00:26:13.000Z</time>
      </trkpt>
      <trkpt lat="41.226448" lon="1.49229">
        <ele>234.2</ele>
        <time>1970-01-01T00:26:15.000Z</time>
      </trkpt>
      <trkpt lat="41.22645" lon="1.492248">
        <ele>234.3</ele>
        <time>1970-01-01T00:26:16.000Z</time>
      </trkpt>
      <trkpt lat="41.226456" lon="1.492191">
        <ele>234.6</ele>
        <time>1970-01-01T00:26:18.000Z</time>
      </trkpt>
      <trkpt lat="41.226444" lon="1.492136">
        <ele>235.1</ele>
        <time>1970-01-01T00:26:21.000Z</time>
      </trkpt>
      <trkpt lat="41.22648" lon="1.492102">
        <ele>235.5</ele>
        <time>1970-01-01T00:26:23.000Z</time>
      </trkpt>
      <trkpt lat="41.226499" lon="1.492063">
        <ele>235.8</ele>
        <time>1970-01-01T00:26:25.000Z</time>
      </trkpt>
      <trkpt lat="41.226518" lon="1.492031">
        <ele>236.3</ele>
        <time>1970-01-01T00:26:27.000Z</time>
      </trkpt>
      <trkpt lat="41.226532" lon="1.491997">
        <ele>236.7</ele>
        <time>1970-01-01T00:26:38.000Z</time>
      </trkpt>
      <trkpt lat="41.226506" lon="1.491971">
        <ele>237.3</ele>
        <time>1970-01-01T00:26:42.000Z</time>
      </trkpt>
      <trkpt lat="41.226507" lon="1.491929">
        <ele>238</ele>
        <time>1970-01-01T00:26:50.000Z</time>
      </trkpt>
      <trkpt lat="41.226534" lon="1.491926">
        <ele>238.6</ele>
        <time>1970-01-01T00:26:56.000Z</time>
      </trkpt>
      <trkpt lat="41.226527" lon="1.491891">
        <ele>239.2</ele>
        <time>1970-01-01T00:27:03.000Z</time>
      </trkpt>
      <trkpt lat="41.226512" lon="1.491856">
        <ele>239.9</ele>
        <time>1970-01-01T00:27:06.000Z</time>
      </trkpt>
      <trkpt lat="41.226514" lon="1.491812">
        <ele>240.5</ele>
        <time>1970-01-01T00:27:24.000Z</time>
      </trkpt>
      <trkpt lat="41.226525" lon="1.491775">
        <ele>241</ele>
        <time>1970-01-01T00:27:28.000Z</time>
      </trkpt>
      <trkpt lat="41.226552" lon="1.491764">
        <ele>241.5</ele>
        <time>1970-01-01T00:27:33.000Z</time>
      </trkpt>
      <trkpt lat="41.226583" lon="1.491775">
        <ele>242.1</ele>
        <time>1970-01-01T00:27:36.000Z</time>
      </trkpt>
      <trkpt lat="41.226625" lon="1.491778">
        <ele>242.8</ele>
        <time>1970-01-01T00:27:39.000Z</time>
      </trkpt>
      <trkpt lat="41.226677" lon="1.491778">
        <ele>243.4</ele>
        <time>1970-01-01T00:27:41.000Z</time>
      </trkpt>
      <trkpt lat="41.226727" lon="1.491778">
        <ele>244.1</ele>
        <time>1970-01-01T00:27:43.000Z</time>
      </trkpt>
      <trkpt lat="41.226773" lon="1.491798">
        <ele>244.8</ele>
        <time>1970-01-01T00:27:45.000Z</time>
      </trkpt>
      <trkpt lat="41.226802" lon="1.491802">
        <ele>245.1</ele>
        <time>1970-01-01T00:27:46.000Z</time>
      </trkpt>
      <trkpt lat="41.226854" lon="1.491797">
        <ele>245.7</ele>
        <time>1970-01-01T00:27:48.000Z</time>
      </trkpt>
      <trkpt lat="41.226898" lon="1.491786">
        <ele>246.1</ele>
        <time>1970-01-01T00:27:50.000Z</time>
      </trkpt>
      <trkpt lat="41.226938" lon="1.491764">
        <ele>246.6</ele>
        <time>1970-01-01T00:27:52.000Z</time>
      </trkpt>
      <trkpt lat="41.226971" lon="1.491752">
        <ele>247</ele>
        <time>1970-01-01T00:27:54.000Z</time>
      </trkpt>
      <trkpt lat="41.227007" lon="1.491725">
        <ele>247.4</ele>
        <time>1970-01-01T00:27:56.000Z</time>
      </trkpt>
      <trkpt lat="41.227033" lon="1.491705">
        <ele>247.7</ele>
        <time>1970-01-01T00:27:58.000Z</time>
      </trkpt>
      <trkpt lat="41.227053" lon="1.491671">
        <ele>247.9</ele>
        <time>1970-01-01T00:28:00.000Z</time>
      </trkpt>
      <trkpt lat="41.227069" lon="1.491632">
        <ele>248.2</ele>
        <time>1970-01-01T00:28:02.000Z</time>
      </trkpt>
      <trkpt lat="41.227102" lon="1.491596">
        <ele>248.6</ele>
        <time>1970-01-01T00:28:11.000Z</time>
      </trkpt>
      <trkpt lat="41.227114" lon="1.491561">
        <ele>248.8</ele>
        <time>1970-01-01T00:28:15.000Z</time>
      </trkpt>
      <trkpt lat="41.227131" lon="1.491522">
        <ele>249.2</ele>
        <time>1970-01-01T00:28:18.000Z</time>
      </trkpt>
      <trkpt lat="41.227136" lon="1.491475">
        <ele>249.8</ele>
        <time>1970-01-01T00:28:22.000Z</time>
      </trkpt>
      <trkpt lat="41.227161" lon="1.491447">
        <ele>250.2</ele>
        <time>1970-01-01T00:28:24.000Z</time>
      </trkpt>
      <trkpt lat="41.227193" lon="1.491408">
        <ele>250.7</ele>
        <time>1970-01-01T00:28:26.000Z</time>
      </trkpt>
      <trkpt lat="41.2272" lon="1.491355">
        <ele>251.2</ele>
        <time>1970-01-01T00:28:28.000Z</time>
      </trkpt>
      <trkpt lat="41.227222" lon="1.491326">
        <ele>251.7</ele>
        <time>1970-01-01T00:28:30.000Z</time>
      </trkpt>
      <trkpt lat="41.227245" lon="1.491298">
        <ele>252.2</ele>
        <time>1970-01-01T00:28:32.000Z</time>
      </trkpt>
      <trkpt lat="41.227277" lon="1.49129">
        <ele>252.6</ele>
        <time>1970-01-01T00:28:34.000Z</time>
      </trkpt>
      <trkpt lat="41.227307" lon="1.491292">
        <ele>253.2</ele>
        <time>1970-01-01T00:28:37.000Z</time>
      </trkpt>
      <trkpt lat="41.227338" lon="1.491316">
        <ele>253.4</ele>
        <time>1970-01-01T00:28:39.000Z</time>
      </trkpt>
      <trkpt lat="41.227358" lon="1.491341">
        <ele>253.5</ele>
        <time>1970-01-01T00:28:40.000Z</time>
      </trkpt>
      <trkpt lat="41.227386" lon="1.491368">
        <ele>253.7</ele>
        <time>1970-01-01T00:28:41.000Z</time>
      </trkpt>
      <trkpt lat="41.227408" lon="1.491394">
        <ele>253.9</ele>
        <time>1970-01-01T00:28:42.000Z</time>
      </trkpt>
      <trkpt lat="41.227453" lon="1.49144">
        <ele>254.3</ele>
        <time>1970-01-01T00:28:44.000Z</time>
      </trkpt>
      <trkpt lat="41.227478" lon="1.491464">
        <ele>254.4</ele>
        <time>1970-01-01T00:28:45.000Z</time>
      </trkpt>
      <trkpt lat="41.227515" lon="1.491504">
        <ele>254.9</ele>
        <time>1970-01-01T00:28:47.000Z</time>
      </trkpt>
      <trkpt lat="41.227541" lon="1.491514">
        <ele>255.1</ele>
        <time>1970-01-01T00:28:48.000Z</time>
      </trkpt>
      <trkpt lat="41.22759" lon="1.491543">
        <ele>255.6</ele>
        <time>1970-01-01T00:28:50.000Z</time>
      </trkpt>
      <trkpt lat="41.22764" lon="1.49157">
        <ele>255.9</ele>
        <time>1970-01-01T00:28:52.000Z</time>
      </trkpt>
      <trkpt lat="41.227673" lon="1.491588">
        <ele>256.1</ele>
        <time>1970-01-01T00:28:54.000Z</time>
      </trkpt>
      <trkpt lat="41.227714" lon="1.491591">
        <ele>256.2</ele>
        <time>1970-01-01T00:28:56.000Z</time>
      </trkpt>
      <trkpt lat="41.227743" lon="1.491594">
        <ele>256.2</ele>
        <time>1970-01-01T00:28:58.000Z</time>
      </trkpt>
      <trkpt lat="41.227778" lon="1.491601">
        <ele>256.3</ele>
        <time>1970-01-01T00:29:00.000Z</time>
      </trkpt>
      <trkpt lat="41.227808" lon="1.491621">
        <ele>256.3</ele>
        <time>1970-01-01T00:29:02.000Z</time>
      </trkpt>
      <trkpt lat="41.227851" lon="1.49162">
        <ele>256.4</ele>
        <time>1970-01-01T00:29:05.000Z</time>
      </trkpt>
      <trkpt lat="41.227902" lon="1.491612">
        <ele>256.5</ele>
        <time>1970-01-01T00:29:07.000Z</time>
      </trkpt>
      <trkpt lat="41.227934" lon="1.491669">
        <ele>256.6</ele>
        <time>1970-01-01T00:29:11.000Z</time>
      </trkpt>
      <trkpt lat="41.227955" lon="1.491715">
        <ele>256.7</ele>
        <time>1970-01-01T00:29:12.000Z</time>
      </trkpt>
      <trkpt lat="41.227969" lon="1.491754">
        <ele>256.9</ele>
        <time>1970-01-01T00:29:13.000Z</time>
      </trkpt>
      <trkpt lat="41.227992" lon="1.491782">
        <ele>257.1</ele>
        <time>1970-01-01T00:29:14.000Z</time>
      </trkpt>
      <trkpt lat="41.228025" lon="1.491836">
        <ele>257.3</ele>
        <time>1970-01-01T00:29:16.000Z</time>
      </trkpt>
      <trkpt lat="41.228036" lon="1.491871">
        <ele>257.4</ele>
        <time>1970-01-01T00:29:17.000Z</time>
      </trkpt>
      <trkpt lat="41.228074" lon="1.491915">
        <ele>257.7</ele>
        <time>1970-01-01T00:29:19.000Z</time>
      </trkpt>
      <trkpt lat="41.228119" lon="1.491956">
        <ele>257.9</ele>
        <time>1970-01-01T00:29:21.000Z</time>
      </trkpt>
      <trkpt lat="41.228149" lon="1.491996">
        <ele>258.1</ele>
        <time>1970-01-01T00:29:23.000Z</time>
      </trkpt>
      <trkpt lat="41.228184" lon="1.492027">
        <ele>258.4</ele>
        <time>1970-01-01T00:29:25.000Z</time>
      </trkpt>
      <trkpt lat="41.228212" lon="1.492065">
        <ele>258.8</ele>
        <time>1970-01-01T00:29:28.000Z</time>
      </trkpt>
      <trkpt lat="41.228242" lon="1.492099">
        <ele>259.1</ele>
        <time>1970-01-01T00:29:30.000Z</time>
      </trkpt>
      <trkpt lat="41.228269" lon="1.49212">
        <ele>259.4</ele>
        <time>1970-01-01T00:29:32.000Z</time>
      </trkpt>
      <trkpt lat="41.228299" lon="1.492164">
        <ele>259.7</ele>
        <time>1970-01-01T00:29:35.000Z</time>
      </trkpt>
      <trkpt lat="41.228318" lon="1.492206">
        <ele>260</ele>
        <time>1970-01-01T00:29:37.000Z</time>
      </trkpt>
      <trkpt lat="41.22833" lon="1.492259">
        <ele>260.6</ele>
        <time>1970-01-01T00:29:40.000Z</time>
      </trkpt>
      <trkpt lat="41.228342" lon="1.492299">
        <ele>261.1</ele>
        <time>1970-01-01T00:29:42.000Z</time>
      </trkpt>
      <trkpt lat="41.228361" lon="1.492345">
        <ele>261.8</ele>
        <time>1970-01-01T00:29:44.000Z</time>
      </trkpt>
      <trkpt lat="41.228382" lon="1.492378">
        <ele>262.5</ele>
        <time>1970-01-01T00:29:46.000Z</time>
      </trkpt>
      <trkpt lat="41.228409" lon="1.492386">
        <ele>263</ele>
        <time>1970-01-01T00:29:48.000Z</time>
      </trkpt>
      <trkpt lat="41.228435" lon="1.492402">
        <ele>263.5</ele>
        <time>1970-01-01T00:29:50.000Z</time>
      </trkpt>
      <trkpt lat="41.228467" lon="1.492403">
        <ele>264</ele>
        <time>1970-01-01T00:29:52.000Z</time>
      </trkpt>
      <trkpt lat="41.228497" lon="1.492399">
        <ele>264.4</ele>
        <time>1970-01-01T00:29:54.000Z</time>
      </trkpt>
      <trkpt lat="41.228536" lon="1.492399">
        <ele>264.7</ele>
        <time>1970-01-01T00:29:56.000Z</time>
      </trkpt>
      <trkpt lat="41.228568" lon="1.492393">
        <ele>265</ele>
        <time>1970-01-01T00:29:58.000Z</time>
      </trkpt>
      <trkpt lat="41.228598" lon="1.492387">
        <ele>265.2</ele>
        <time>1970-01-01T00:30:00.000Z</time>
      </trkpt>
      <trkpt lat="41.228629" lon="1.492387">
        <ele>265.4</ele>
        <time>1970-01-01T00:30:02.000Z</time>
      </trkpt>
      <trkpt lat="41.228673" lon="1.492368">
        <ele>265.8</ele>
        <time>1970-01-01T00:30:04.000Z</time>
      </trkpt>
      <trkpt lat="41.228706" lon="1.492352">
        <ele>266.1</ele>
        <time>1970-01-01T00:30:06.000Z</time>
      </trkpt>
      <trkpt lat="41.228743" lon="1.492335">
        <ele>266.4</ele>
        <time>1970-01-01T00:30:08.000Z</time>
      </trkpt>
      <trkpt lat="41.228784" lon="1.492331">
        <ele>266.7</ele>
        <time>1970-01-01T00:30:10.000Z</time>
      </trkpt>
      <trkpt lat="41.22882" lon="1.492327">
        <ele>267</ele>
        <time>1970-01-01T00:30:12.000Z</time>
      </trkpt>
      <trkpt lat="41.228851" lon="1.492315">
        <ele>267.3</ele>
        <time>1970-01-01T00:30:14.000Z</time>
      </trkpt>
      <trkpt lat="41.228885" lon="1.492318">
        <ele>267.5</ele>
        <time>1970-01-01T00:30:16.000Z</time>
      </trkpt>
      <trkpt lat="41.228916" lon="1.492319">
        <ele>267.8</ele>
        <time>1970-01-01T00:30:18.000Z</time>
      </trkpt>
      <trkpt lat="41.228949" lon="1.492309">
        <ele>268</ele>
        <time>1970-01-01T00:30:20.000Z</time>
      </trkpt>
      <trkpt lat="41.228979" lon="1.492298">
        <ele>268.3</ele>
        <time>1970-01-01T00:30:22.000Z</time>
      </trkpt>
      <trkpt lat="41.229016" lon="1.492284">
        <ele>268.6</ele>
        <time>1970-01-01T00:30:24.000Z</time>
      </trkpt>
      <trkpt lat="41.229049" lon="1.492274">
        <ele>269</ele>
        <time>1970-01-01T00:30:26.000Z</time>
      </trkpt>
      <trkpt lat="41.229086" lon="1.492264">
        <ele>269.3</ele>
        <time>1970-01-01T00:30:28.000Z</time>
      </trkpt>
      <trkpt lat="41.229112" lon="1.492277">
        <ele>269.6</ele>
        <time>1970-01-01T00:30:30.000Z</time>
      </trkpt>
      <trkpt lat="41.229148" lon="1.492296">
        <ele>270</ele>
        <time>1970-01-01T00:30:33.000Z</time>
      </trkpt>
      <trkpt lat="41.229192" lon="1.492291">
        <ele>270.7</ele>
        <time>1970-01-01T00:30:36.000Z</time>
      </trkpt>
      <trkpt lat="41.229229" lon="1.492294">
        <ele>271.2</ele>
        <time>1970-01-01T00:30:38.000Z</time>
      </trkpt>
      <trkpt lat="41.229264" lon="1.492309">
        <ele>271.5</ele>
        <time>1970-01-01T00:30:40.000Z</time>
      </trkpt>
      <trkpt lat="41.229295" lon="1.492335">
        <ele>271.8</ele>
        <time>1970-01-01T00:30:42.000Z</time>
      </trkpt>
      <trkpt lat="41.229334" lon="1.492346">
        <ele>272.2</ele>
        <time>1970-01-01T00:30:45.000Z</time>
      </trkpt>
      <trkpt lat="41.229373" lon="1.492365">
        <ele>272.6</ele>
        <time>1970-01-01T00:30:47.000Z</time>
      </trkpt>
      <trkpt lat="41.229399" lon="1.492377">
        <ele>272.5</ele>
        <time>1970-01-01T00:30:49.000Z</time>
      </trkpt>
      <trkpt lat="41.22943" lon="1.492377">
        <ele>272.5</ele>
        <time>1970-01-01T00:30:51.000Z</time>
      </trkpt>
      <trkpt lat="41.229451" lon="1.492401">
        <ele>272.4</ele>
        <time>1970-01-01T00:31:02.000Z</time>
      </trkpt>
      <trkpt lat="41.229501" lon="1.492398">
        <ele>272.3</ele>
        <time>1970-01-01T00:31:10.000Z</time>
      </trkpt>
      <trkpt lat="41.229548" lon="1.492384">
        <ele>272.1</ele>
        <time>1970-01-01T00:31:12.000Z</time>
      </trkpt>
      <trkpt lat="41.229575" lon="1.49236">
        <ele>271.9</ele>
        <time>1970-01-01T00:31:13.000Z</time>
      </trkpt>
      <trkpt lat="41.229612" lon="1.49234">
        <ele>271.8</ele>
        <time>1970-01-01T00:31:14.000Z</time>
      </trkpt>
      <trkpt lat="41.229653" lon="1.492329">
        <ele>271.6</ele>
        <time>1970-01-01T00:31:15.000Z</time>
      </trkpt>
      <trkpt lat="41.22969" lon="1.492354">
        <ele>271.3</ele>
        <time>1970-01-01T00:31:16.000Z</time>
      </trkpt>
      <trkpt lat="41.229721" lon="1.492404">
        <ele>271</ele>
        <time>1970-01-01T00:31:17.000Z</time>
      </trkpt>
      <trkpt lat="41.229749" lon="1.492449">
        <ele>270.6</ele>
        <time>1970-01-01T00:31:18.000Z</time>
      </trkpt>
      <trkpt lat="41.229791" lon="1.49247">
        <ele>270.1</ele>
        <time>1970-01-01T00:31:19.000Z</time>
      </trkpt>
      <trkpt lat="41.22984" lon="1.492468">
        <ele>269.6</ele>
        <time>1970-01-01T00:31:20.000Z</time>
      </trkpt>
      <trkpt lat="41.229892" lon="1.492471">
        <ele>269.1</ele>
        <time>1970-01-01T00:31:21.000Z</time>
      </trkpt>
      <trkpt lat="41.229945" lon="1.492501">
        <ele>268.5</ele>
        <time>1970-01-01T00:31:22.000Z</time>
      </trkpt>
      <trkpt lat="41.229994" lon="1.492537">
        <ele>267.8</ele>
        <time>1970-01-01T00:31:23.000Z</time>
      </trkpt>
      <trkpt lat="41.230029" lon="1.492568">
        <ele>267.3</ele>
        <time>1970-01-01T00:31:24.000Z</time>
      </trkpt>
      <trkpt lat="41.230077" lon="1.492606">
        <ele>266.6</ele>
        <time>1970-01-01T00:31:25.000Z</time>
      </trkpt>
      <trkpt lat="41.230113" lon="1.492644">
        <ele>266</ele>
        <time>1970-01-01T00:31:26.000Z</time>
      </trkpt>
      <trkpt lat="41.230154" lon="1.492696">
        <ele>265.3</ele>
        <time>1970-01-01T00:31:27.000Z</time>
      </trkpt>
      <trkpt lat="41.2302" lon="1.492745">
        <ele>264.5</ele>
        <time>1970-01-01T00:31:28.000Z</time>
      </trkpt>
      <trkpt lat="41.230239" lon="1.492772">
        <ele>263.8</ele>
        <time>1970-01-01T00:31:29.000Z</time>
      </trkpt>
      <trkpt lat="41.230275" lon="1.492804">
        <ele>263.2</ele>
        <time>1970-01-01T00:31:30.000Z</time>
      </trkpt>
      <trkpt lat="41.230299" lon="1.492849">
        <ele>262.7</ele>
        <time>1970-01-01T00:31:31.000Z</time>
      </trkpt>
      <trkpt lat="41.230319" lon="1.492903">
        <ele>262.1</ele>
        <time>1970-01-01T00:31:32.000Z</time>
      </trkpt>
      <trkpt lat="41.230349" lon="1.492964">
        <ele>261.4</ele>
        <time>1970-01-01T00:31:33.000Z</time>
      </trkpt>
      <trkpt lat="41.23036" lon="1.493036">
        <ele>260.6</ele>
        <time>1970-01-01T00:31:34.000Z</time>
      </trkpt>
      <trkpt lat="41.230381" lon="1.493101">
        <ele>259.8</ele>
        <time>1970-01-01T00:31:35.000Z</time>
      </trkpt>
      <trkpt lat="41.230408" lon="1.493162">
        <ele>259.1</ele>
        <time>1970-01-01T00:31:36.000Z</time>
      </trkpt>
      <trkpt lat="41.230425" lon="1.493201">
        <ele>258.9</ele>
        <time>1970-01-01T00:31:37.000Z</time>
      </trkpt>
      <trkpt lat="41.230452" lon="1.493238">
        <ele>258</ele>
        <time>1970-01-01T00:31:38.000Z</time>
      </trkpt>
      <trkpt lat="41.230495" lon="1.493254">
        <ele>257</ele>
        <time>1970-01-01T00:31:39.000Z</time>
      </trkpt>
      <trkpt lat="41.230548" lon="1.493243">
        <ele>256</ele>
        <time>1970-01-01T00:31:40.000Z</time>
      </trkpt>
      <trkpt lat="41.230594" lon="1.493251">
        <ele>255.1</ele>
        <time>1970-01-01T00:31:41.000Z</time>
      </trkpt>
      <trkpt lat="41.230635" lon="1.493252">
        <ele>254.5</ele>
        <time>1970-01-01T00:31:42.000Z</time>
      </trkpt>
      <trkpt lat="41.23067" lon="1.493266">
        <ele>254.1</ele>
        <time>1970-01-01T00:31:43.000Z</time>
      </trkpt>
      <trkpt lat="41.230709" lon="1.493296">
        <ele>253.7</ele>
        <time>1970-01-01T00:31:44.000Z</time>
      </trkpt>
      <trkpt lat="41.230749" lon="1.493317">
        <ele>253.5</ele>
        <time>1970-01-01T00:31:45.000Z</time>
      </trkpt>
      <trkpt lat="41.23079" lon="1.493342">
        <ele>253.4</ele>
        <time>1970-01-01T00:31:46.000Z</time>
      </trkpt>
      <trkpt lat="41.230831" lon="1.493363">
        <ele>253.2</ele>
        <time>1970-01-01T00:31:47.000Z</time>
      </trkpt>
      <trkpt lat="41.230875" lon="1.493377">
        <ele>253.1</ele>
        <time>1970-01-01T00:31:48.000Z</time>
      </trkpt>
      <trkpt lat="41.230914" lon="1.493376">
        <ele>252.9</ele>
        <time>1970-01-01T00:31:49.000Z</time>
      </trkpt>
      <trkpt lat="41.230942" lon="1.49337">
        <ele>252.8</ele>
        <time>1970-01-01T00:31:50.000Z</time>
      </trkpt>
      <trkpt lat="41.230974" lon="1.493347">
        <ele>252.6</ele>
        <time>1970-01-01T00:31:52.000Z</time>
      </trkpt>
      <trkpt lat="41.231001" lon="1.493333">
        <ele>252.5</ele>
        <time>1970-01-01T00:31:53.000Z</time>
      </trkpt>
      <trkpt lat="41.231034" lon="1.493279">
        <ele>252.1</ele>
        <time>1970-01-01T00:31:55.000Z</time>
      </trkpt>
      <trkpt lat="41.231034" lon="1.493236">
        <ele>252.1</ele>
        <time>1970-01-01T00:31:56.000Z</time>
      </trkpt>
      <trkpt lat="41.231015" lon="1.493187">
        <ele>251.9</ele>
        <time>1970-01-01T00:31:57.000Z</time>
      </trkpt>
      <trkpt lat="41.231007" lon="1.493131">
        <ele>251.8</ele>
        <time>1970-01-01T00:31:58.000Z</time>
      </trkpt>
      <trkpt lat="41.231013" lon="1.493084">
        <ele>251.7</ele>
        <time>1970-01-01T00:31:59.000Z</time>
      </trkpt>
      <trkpt lat="41.231025" lon="1.493034">
        <ele>251.6</ele>
        <time>1970-01-01T00:32:00.000Z</time>
      </trkpt>
      <trkpt lat="41.231033" lon="1.492977">
        <ele>251.5</ele>
        <time>1970-01-01T00:32:01.000Z</time>
      </trkpt>
      <trkpt lat="41.231047" lon="1.49292">
        <ele>251.4</ele>
        <time>1970-01-01T00:32:02.000Z</time>
      </trkpt>
      <trkpt lat="41.231059" lon="1.492874">
        <ele>251.3</ele>
        <time>1970-01-01T00:32:03.000Z</time>
      </trkpt>
      <trkpt lat="41.231079" lon="1.492827">
        <ele>251.2</ele>
        <time>1970-01-01T00:32:04.000Z</time>
      </trkpt>
      <trkpt lat="41.231116" lon="1.492771">
        <ele>251</ele>
        <time>1970-01-01T00:32:05.000Z</time>
      </trkpt>
      <trkpt lat="41.231145" lon="1.492727">
        <ele>250.8</ele>
        <time>1970-01-01T00:32:06.000Z</time>
      </trkpt>
      <trkpt lat="41.231183" lon="1.492685">
        <ele>250.6</ele>
        <time>1970-01-01T00:32:07.000Z</time>
      </trkpt>
      <trkpt lat="41.231215" lon="1.492638">
        <ele>250.3</ele>
        <time>1970-01-01T00:32:08.000Z</time>
      </trkpt>
      <trkpt lat="41.231245" lon="1.4926">
        <ele>250.1</ele>
        <time>1970-01-01T00:32:09.000Z</time>
      </trkpt>
      <trkpt lat="41.231269" lon="1.492565">
        <ele>250</ele>
        <time>1970-01-01T00:32:10.000Z</time>
      </trkpt>
      <trkpt lat="41.231293" lon="1.492511">
        <ele>249.7</ele>
        <time>1970-01-01T00:32:11.000Z</time>
      </trkpt>
      <trkpt lat="41.23132" lon="1.492464">
        <ele>249.5</ele>
        <time>1970-01-01T00:32:12.000Z</time>
      </trkpt>
      <trkpt lat="41.231353" lon="1.492421">
        <ele>249.3</ele>
        <time>1970-01-01T00:32:13.000Z</time>
      </trkpt>
      <trkpt lat="41.231393" lon="1.492389">
        <ele>249.1</ele>
        <time>1970-01-01T00:32:14.000Z</time>
      </trkpt>
      <trkpt lat="41.231439" lon="1.49235">
        <ele>248.7</ele>
        <time>1970-01-01T00:32:15.000Z</time>
      </trkpt>
      <trkpt lat="41.231468" lon="1.492296">
        <ele>248.3</ele>
        <time>1970-01-01T00:32:16.000Z</time>
      </trkpt>
      <trkpt lat="41.231504" lon="1.492236">
        <ele>247.9</ele>
        <time>1970-01-01T00:32:17.000Z</time>
      </trkpt>
      <trkpt lat="41.231541" lon="1.492174">
        <ele>247.4</ele>
        <time>1970-01-01T00:32:18.000Z</time>
      </trkpt>
      <trkpt lat="41.231577" lon="1.492115">
        <ele>246.9</ele>
        <time>1970-01-01T00:32:19.000Z</time>
      </trkpt>
      <trkpt lat="41.23162" lon="1.492072">
        <ele>246.4</ele>
        <time>1970-01-01T00:32:20.000Z</time>
      </trkpt>
      <trkpt lat="41.231663" lon="1.492032">
        <ele>245.9</ele>
        <time>1970-01-01T00:32:21.000Z</time>
      </trkpt>
      <trkpt lat="41.231704" lon="1.491993">
        <ele>245.5</ele>
        <time>1970-01-01T00:32:22.000Z</time>
      </trkpt>
      <trkpt lat="41.231748" lon="1.491958">
        <ele>245</ele>
        <time>1970-01-01T00:32:23.000Z</time>
      </trkpt>
      <trkpt lat="41.231785" lon="1.491927">
        <ele>244.3</ele>
        <time>1970-01-01T00:32:24.000Z</time>
      </trkpt>
      <trkpt lat="41.231813" lon="1.491877">
        <ele>243.6</ele>
        <time>1970-01-01T00:32:25.000Z</time>
      </trkpt>
      <trkpt lat="41.231832" lon="1.491824">
        <ele>242.9</ele>
        <time>1970-01-01T00:32:26.000Z</time>
      </trkpt>
      <trkpt lat="41.231862" lon="1.491799">
        <ele>242.3</ele>
        <time>1970-01-01T00:32:27.000Z</time>
      </trkpt>
      <trkpt lat="41.231907" lon="1.491782">
        <ele>241.5</ele>
        <time>1970-01-01T00:32:28.000Z</time>
      </trkpt>
      <trkpt lat="41.23193" lon="1.491742">
        <ele>240.8</ele>
        <time>1970-01-01T00:32:29.000Z</time>
      </trkpt>
      <trkpt lat="41.231958" lon="1.49171">
        <ele>240.1</ele>
        <time>1970-01-01T00:32:30.000Z</time>
      </trkpt>
      <trkpt lat="41.231985" lon="1.491674">
        <ele>239.6</ele>
        <time>1970-01-01T00:32:31.000Z</time>
      </trkpt>
      <trkpt lat="41.232012" lon="1.491635">
        <ele>239.1</ele>
        <time>1970-01-01T00:32:32.000Z</time>
      </trkpt>
      <trkpt lat="41.23203" lon="1.491574">
        <ele>238.4</ele>
        <time>1970-01-01T00:32:33.000Z</time>
      </trkpt>
      <trkpt lat="41.232044" lon="1.491507">
        <ele>237.4</ele>
        <time>1970-01-01T00:32:34.000Z</time>
      </trkpt>
      <trkpt lat="41.232067" lon="1.491467">
        <ele>236.6</ele>
        <time>1970-01-01T00:32:35.000Z</time>
      </trkpt>
      <trkpt lat="41.232095" lon="1.491433">
        <ele>235.8</ele>
        <time>1970-01-01T00:32:36.000Z</time>
      </trkpt>
      <trkpt lat="41.232115" lon="1.491378">
        <ele>234.9</ele>
        <time>1970-01-01T00:32:37.000Z</time>
      </trkpt>
      <trkpt lat="41.232115" lon="1.491297">
        <ele>233.9</ele>
        <time>1970-01-01T00:32:38.000Z</time>
      </trkpt>
      <trkpt lat="41.232113" lon="1.491237">
        <ele>233.1</ele>
        <time>1970-01-01T00:32:39.000Z</time>
      </trkpt>
      <trkpt lat="41.232111" lon="1.491196">
        <ele>232.6</ele>
        <time>1970-01-01T00:32:40.000Z</time>
      </trkpt>
      <trkpt lat="41.232124" lon="1.491158">
        <ele>232</ele>
        <time>1970-01-01T00:32:41.000Z</time>
      </trkpt>
      <trkpt lat="41.232156" lon="1.491134">
        <ele>231.3</ele>
        <time>1970-01-01T00:32:42.000Z</time>
      </trkpt>
      <trkpt lat="41.232195" lon="1.49111">
        <ele>231</ele>
        <time>1970-01-01T00:32:43.000Z</time>
      </trkpt>
      <trkpt lat="41.232227" lon="1.49108">
        <ele>230.7</ele>
        <time>1970-01-01T00:32:44.000Z</time>
      </trkpt>
      <trkpt lat="41.232262" lon="1.49103">
        <ele>230.4</ele>
        <time>1970-01-01T00:32:45.000Z</time>
      </trkpt>
      <trkpt lat="41.2323" lon="1.491019">
        <ele>230.1</ele>
        <time>1970-01-01T00:32:46.000Z</time>
      </trkpt>
      <trkpt lat="41.232355" lon="1.491038">
        <ele>229.7</ele>
        <time>1970-01-01T00:32:48.000Z</time>
      </trkpt>
      <trkpt lat="41.232384" lon="1.491031">
        <ele>229.5</ele>
        <time>1970-01-01T00:32:49.000Z</time>
      </trkpt>
      <trkpt lat="41.232421" lon="1.49102">
        <ele>229.1</ele>
        <time>1970-01-01T00:32:50.000Z</time>
      </trkpt>
      <trkpt lat="41.232458" lon="1.491049">
        <ele>228.7</ele>
        <time>1970-01-01T00:32:51.000Z</time>
      </trkpt>
      <trkpt lat="41.232504" lon="1.491088">
        <ele>228.2</ele>
        <time>1970-01-01T00:32:52.000Z</time>
      </trkpt>
      <trkpt lat="41.23256" lon="1.491093">
        <ele>227.7</ele>
        <time>1970-01-01T00:32:53.000Z</time>
      </trkpt>
      <trkpt lat="41.232615" lon="1.49109">
        <ele>227.3</ele>
        <time>1970-01-01T00:32:54.000Z</time>
      </trkpt>
      <trkpt lat="41.232666" lon="1.491079">
        <ele>227</ele>
        <time>1970-01-01T00:32:55.000Z</time>
      </trkpt>
      <trkpt lat="41.232728" lon="1.491066">
        <ele>226.6</ele>
        <time>1970-01-01T00:32:56.000Z</time>
      </trkpt>
      <trkpt lat="41.232785" lon="1.491059">
        <ele>226.3</ele>
        <time>1970-01-01T00:32:57.000Z</time>
      </trkpt>
      <trkpt lat="41.232829" lon="1.491051">
        <ele>226</ele>
        <time>1970-01-01T00:32:58.000Z</time>
      </trkpt>
      <trkpt lat="41.232872" lon="1.491026">
        <ele>225.7</ele>
        <time>1970-01-01T00:32:59.000Z</time>
      </trkpt>
      <trkpt lat="41.23292" lon="1.490994">
        <ele>225.4</ele>
        <time>1970-01-01T00:33:00.000Z</time>
      </trkpt>
      <trkpt lat="41.232982" lon="1.490969">
        <ele>224.9</ele>
        <time>1970-01-01T00:33:01.000Z</time>
      </trkpt>
      <trkpt lat="41.233043" lon="1.490942">
        <ele>224.5</ele>
        <time>1970-01-01T00:33:02.000Z</time>
      </trkpt>
      <trkpt lat="41.233112" lon="1.49092">
        <ele>224.1</ele>
        <time>1970-01-01T00:33:03.000Z</time>
      </trkpt>
      <trkpt lat="41.23318" lon="1.490905">
        <ele>223.6</ele>
        <time>1970-01-01T00:33:04.000Z</time>
      </trkpt>
      <trkpt lat="41.233254" lon="1.490879">
        <ele>223.1</ele>
        <time>1970-01-01T00:33:05.000Z</time>
      </trkpt>
      <trkpt lat="41.23332" lon="1.490841">
        <ele>222.7</ele>
        <time>1970-01-01T00:33:06.000Z</time>
      </trkpt>
      <trkpt lat="41.233379" lon="1.490801">
        <ele>222.3</ele>
        <time>1970-01-01T00:33:07.000Z</time>
      </trkpt>
      <trkpt lat="41.233431" lon="1.490763">
        <ele>221.7</ele>
        <time>1970-01-01T00:33:08.000Z</time>
      </trkpt>
      <trkpt lat="41.233495" lon="1.490759">
        <ele>221.7</ele>
        <time>1970-01-01T00:33:10.000Z</time>
      </trkpt>
      <trkpt lat="41.233543" lon="1.490745">
        <ele>221.6</ele>
        <time>1970-01-01T00:33:11.000Z</time>
      </trkpt>
      <trkpt lat="41.233588" lon="1.490727">
        <ele>221.6</ele>
        <time>1970-01-01T00:33:12.000Z</time>
      </trkpt>
      <trkpt lat="41.233649" lon="1.490708">
        <ele>221.6</ele>
        <time>1970-01-01T00:33:13.000Z</time>
      </trkpt>
      <trkpt lat="41.233707" lon="1.490695">
        <ele>221.5</ele>
        <time>1970-01-01T00:33:14.000Z</time>
      </trkpt>
      <trkpt lat="41.233766" lon="1.490679">
        <ele>221.4</ele>
        <time>1970-01-01T00:33:15.000Z</time>
      </trkpt>
      <trkpt lat="41.233831" lon="1.490655">
        <ele>221.3</ele>
        <time>1970-01-01T00:33:16.000Z</time>
      </trkpt>
      <trkpt lat="41.233895" lon="1.490625">
        <ele>221.3</ele>
        <time>1970-01-01T00:33:17.000Z</time>
      </trkpt>
      <trkpt lat="41.23395" lon="1.490591">
        <ele>221.2</ele>
        <time>1970-01-01T00:33:18.000Z</time>
      </trkpt>
      <trkpt lat="41.234007" lon="1.490557">
        <ele>221.1</ele>
        <time>1970-01-01T00:33:19.000Z</time>
      </trkpt>
      <trkpt lat="41.234055" lon="1.490526">
        <ele>221</ele>
        <time>1970-01-01T00:33:20.000Z</time>
      </trkpt>
      <trkpt lat="41.234098" lon="1.490491">
        <ele>220.9</ele>
        <time>1970-01-01T00:33:21.000Z</time>
      </trkpt>
      <trkpt lat="41.234134" lon="1.490465">
        <ele>220.8</ele>
        <time>1970-01-01T00:33:22.000Z</time>
      </trkpt>
      <trkpt lat="41.234179" lon="1.490437">
        <ele>220.7</ele>
        <time>1970-01-01T00:33:23.000Z</time>
      </trkpt>
      <trkpt lat="41.234225" lon="1.490394">
        <ele>220.6</ele>
        <time>1970-01-01T00:33:24.000Z</time>
      </trkpt>
      <trkpt lat="41.234275" lon="1.490354">
        <ele>220.4</ele>
        <time>1970-01-01T00:33:25.000Z</time>
      </trkpt>
      <trkpt lat="41.234336" lon="1.490306">
        <ele>220.1</ele>
        <time>1970-01-01T00:33:26.000Z</time>
      </trkpt>
      <trkpt lat="41.234386" lon="1.490247">
        <ele>219.8</ele>
        <time>1970-01-01T00:33:27.000Z</time>
      </trkpt>
      <trkpt lat="41.234427" lon="1.490189">
        <ele>219.5</ele>
        <time>1970-01-01T00:33:28.000Z</time>
      </trkpt>
      <trkpt lat="41.234458" lon="1.490123">
        <ele>219.2</ele>
        <time>1970-01-01T00:33:29.000Z</time>
      </trkpt>
      <trkpt lat="41.234479" lon="1.490042">
        <ele>218.9</ele>
        <time>1970-01-01T00:33:30.000Z</time>
      </trkpt>
      <trkpt lat="41.234493" lon="1.48996">
        <ele>218.6</ele>
        <time>1970-01-01T00:33:31.000Z</time>
      </trkpt>
      <trkpt lat="41.234492" lon="1.489909">
        <ele>218.4</ele>
        <time>1970-01-01T00:33:32.000Z</time>
      </trkpt>
      <trkpt lat="41.234492" lon="1.489845">
        <ele>218.1</ele>
        <time>1970-01-01T00:33:33.000Z</time>
      </trkpt>
      <trkpt lat="41.234506" lon="1.4898">
        <ele>217.9</ele>
        <time>1970-01-01T00:33:34.000Z</time>
      </trkpt>
      <trkpt lat="41.234523" lon="1.48976">
        <ele>217.8</ele>
        <time>1970-01-01T00:33:35.000Z</time>
      </trkpt>
      <trkpt lat="41.234545" lon="1.489723">
        <ele>217.6</ele>
        <time>1970-01-01T00:33:36.000Z</time>
      </trkpt>
      <trkpt lat="41.234564" lon="1.489681">
        <ele>217.4</ele>
        <time>1970-01-01T00:33:38.000Z</time>
      </trkpt>
      <trkpt lat="41.23458" lon="1.489636">
        <ele>217.1</ele>
        <time>1970-01-01T00:33:40.000Z</time>
      </trkpt>
      <trkpt lat="41.234596" lon="1.489595">
        <ele>216.9</ele>
        <time>1970-01-01T00:33:41.000Z</time>
      </trkpt>
      <trkpt lat="41.234623" lon="1.489547">
        <ele>216.6</ele>
        <time>1970-01-01T00:33:42.000Z</time>
      </trkpt>
      <trkpt lat="41.234658" lon="1.489489">
        <ele>216.1</ele>
        <time>1970-01-01T00:33:43.000Z</time>
      </trkpt>
      <trkpt lat="41.234687" lon="1.489443">
        <ele>215.8</ele>
        <time>1970-01-01T00:33:44.000Z</time>
      </trkpt>
      <trkpt lat="41.234725" lon="1.489405">
        <ele>215.3</ele>
        <time>1970-01-01T00:33:45.000Z</time>
      </trkpt>
      <trkpt lat="41.234779" lon="1.489373">
        <ele>214.6</ele>
        <time>1970-01-01T00:33:47.000Z</time>
      </trkpt>
      <trkpt lat="41.2348" lon="1.489318">
        <ele>214.1</ele>
        <time>1970-01-01T00:33:49.000Z</time>
      </trkpt>
      <trkpt lat="41.234801" lon="1.489274">
        <ele>209.9</ele>
        <time>1970-01-01T00:33:51.000Z</time>
      </trkpt>
      <trkpt lat="41.234837" lon="1.489261">
        <ele>209.4</ele>
        <time>1970-01-01T00:33:53.000Z</time>
      </trkpt>
      <trkpt lat="41.234831" lon="1.489194">
        <ele>208.7</ele>
        <time>1970-01-01T00:33:55.000Z</time>
      </trkpt>
      <trkpt lat="41.234798" lon="1.489174">
        <ele>208.2</ele>
        <time>1970-01-01T00:33:56.000Z</time>
      </trkpt>
      <trkpt lat="41.23476" lon="1.489149">
        <ele>207.7</ele>
        <time>1970-01-01T00:33:57.000Z</time>
      </trkpt>
      <trkpt lat="41.234718" lon="1.489121">
        <ele>207.2</ele>
        <time>1970-01-01T00:33:58.000Z</time>
      </trkpt>
      <trkpt lat="41.234682" lon="1.489083">
        <ele>206.7</ele>
        <time>1970-01-01T00:33:59.000Z</time>
      </trkpt>
      <trkpt lat="41.234647" lon="1.489017">
        <ele>206.1</ele>
        <time>1970-01-01T00:34:00.000Z</time>
      </trkpt>
      <trkpt lat="41.234632" lon="1.488962">
        <ele>205.6</ele>
        <time>1970-01-01T00:34:01.000Z</time>
      </trkpt>
      <trkpt lat="41.234623" lon="1.488891">
        <ele>205.1</ele>
        <time>1970-01-01T00:34:02.000Z</time>
      </trkpt>
      <trkpt lat="41.234595" lon="1.488835">
        <ele>204.7</ele>
        <time>1970-01-01T00:34:03.000Z</time>
      </trkpt>
      <trkpt lat="41.23456" lon="1.488777">
        <ele>204.2</ele>
        <time>1970-01-01T00:34:04.000Z</time>
      </trkpt>
      <trkpt lat="41.234529" lon="1.488715">
        <ele>203.7</ele>
        <time>1970-01-01T00:34:05.000Z</time>
      </trkpt>
      <trkpt lat="41.234507" lon="1.488656">
        <ele>203.3</ele>
        <time>1970-01-01T00:34:06.000Z</time>
      </trkpt>
      <trkpt lat="41.234498" lon="1.488603">
        <ele>202.9</ele>
        <time>1970-01-01T00:34:07.000Z</time>
      </trkpt>
      <trkpt lat="41.234525" lon="1.488545">
        <ele>202.5</ele>
        <time>1970-01-01T00:34:08.000Z</time>
      </trkpt>
      <trkpt lat="41.234559" lon="1.48848">
        <ele>202</ele>
        <time>1970-01-01T00:34:09.000Z</time>
      </trkpt>
      <trkpt lat="41.234586" lon="1.488422">
        <ele>201.6</ele>
        <time>1970-01-01T00:34:10.000Z</time>
      </trkpt>
      <trkpt lat="41.234609" lon="1.488355">
        <ele>201.1</ele>
        <time>1970-01-01T00:34:11.000Z</time>
      </trkpt>
      <trkpt lat="41.234637" lon="1.488295">
        <ele>200.6</ele>
        <time>1970-01-01T00:34:12.000Z</time>
      </trkpt>
      <trkpt lat="41.234654" lon="1.488216">
        <ele>200</ele>
        <time>1970-01-01T00:34:13.000Z</time>
      </trkpt>
      <trkpt lat="41.234655" lon="1.48813">
        <ele>199.4</ele>
        <time>1970-01-01T00:34:14.000Z</time>
      </trkpt>
      <trkpt lat="41.234649" lon="1.488035">
        <ele>198.6</ele>
        <time>1970-01-01T00:34:15.000Z</time>
      </trkpt>
      <trkpt lat="41.234645" lon="1.487946">
        <ele>197.9</ele>
        <time>1970-01-01T00:34:16.000Z</time>
      </trkpt>
      <trkpt lat="41.23464" lon="1.487854">
        <ele>197.2</ele>
        <time>1970-01-01T00:34:17.000Z</time>
      </trkpt>
      <trkpt lat="41.234648" lon="1.487746">
        <ele>196.3</ele>
        <time>1970-01-01T00:34:18.000Z</time>
      </trkpt>
      <trkpt lat="41.234665" lon="1.487634">
        <ele>195.3</ele>
        <time>1970-01-01T00:34:19.000Z</time>
      </trkpt>
      <trkpt lat="41.234678" lon="1.487523">
        <ele>194.4</ele>
        <time>1970-01-01T00:34:20.000Z</time>
      </trkpt>
      <trkpt lat="41.234666" lon="1.487429">
        <ele>193.7</ele>
        <time>1970-01-01T00:34:21.000Z</time>
      </trkpt>
      <trkpt lat="41.234649" lon="1.487337">
        <ele>192.8</ele>
        <time>1970-01-01T00:34:22.000Z</time>
      </trkpt>
      <trkpt lat="41.234638" lon="1.487244">
        <ele>191.9</ele>
        <time>1970-01-01T00:34:23.000Z</time>
      </trkpt>
      <trkpt lat="41.234638" lon="1.487174">
        <ele>191.2</ele>
        <time>1970-01-01T00:34:24.000Z</time>
      </trkpt>
      <trkpt lat="41.234652" lon="1.487132">
        <ele>190.9</ele>
        <time>1970-01-01T00:34:25.000Z</time>
      </trkpt>
      <trkpt lat="41.23469" lon="1.487127">
        <ele>190.5</ele>
        <time>1970-01-01T00:34:26.000Z</time>
      </trkpt>
      <trkpt lat="41.234752" lon="1.487133">
        <ele>189.9</ele>
        <time>1970-01-01T00:34:27.000Z</time>
      </trkpt>
      <trkpt lat="41.234832" lon="1.487157">
        <ele>189</ele>
        <time>1970-01-01T00:34:28.000Z</time>
      </trkpt>
      <trkpt lat="41.234913" lon="1.487166">
        <ele>188.1</ele>
        <time>1970-01-01T00:34:29.000Z</time>
      </trkpt>
      <trkpt lat="41.234999" lon="1.487176">
        <ele>187.1</ele>
        <time>1970-01-01T00:34:30.000Z</time>
      </trkpt>
      <trkpt lat="41.23506" lon="1.487173">
        <ele>186.5</ele>
        <time>1970-01-01T00:34:31.000Z</time>
      </trkpt>
      <trkpt lat="41.235111" lon="1.487146">
        <ele>185.9</ele>
        <time>1970-01-01T00:34:32.000Z</time>
      </trkpt>
      <trkpt lat="41.23514" lon="1.487096">
        <ele>185.4</ele>
        <time>1970-01-01T00:34:33.000Z</time>
      </trkpt>
      <trkpt lat="41.235165" lon="1.487035">
        <ele>184.9</ele>
        <time>1970-01-01T00:34:34.000Z</time>
      </trkpt>
      <trkpt lat="41.235181" lon="1.486993">
        <ele>184.5</ele>
        <time>1970-01-01T00:34:35.000Z</time>
      </trkpt>
      <trkpt lat="41.235213" lon="1.486943">
        <ele>184.2</ele>
        <time>1970-01-01T00:34:36.000Z</time>
      </trkpt>
      <trkpt lat="41.235248" lon="1.486899">
        <ele>183.8</ele>
        <time>1970-01-01T00:34:37.000Z</time>
      </trkpt>
      <trkpt lat="41.235278" lon="1.486849">
        <ele>183.5</ele>
        <time>1970-01-01T00:34:38.000Z</time>
      </trkpt>
      <trkpt lat="41.235304" lon="1.486812">
        <ele>183.4</ele>
        <time>1970-01-01T00:34:39.000Z</time>
      </trkpt>
      <trkpt lat="41.235355" lon="1.486752">
        <ele>183.2</ele>
        <time>1970-01-01T00:34:40.000Z</time>
      </trkpt>
      <trkpt lat="41.235393" lon="1.486705">
        <ele>183.1</ele>
        <time>1970-01-01T00:34:41.000Z</time>
      </trkpt>
      <trkpt lat="41.235427" lon="1.486668">
        <ele>183.1</ele>
        <time>1970-01-01T00:34:42.000Z</time>
      </trkpt>
      <trkpt lat="41.235459" lon="1.486644">
        <ele>183.2</ele>
        <time>1970-01-01T00:34:43.000Z</time>
      </trkpt>
      <trkpt lat="41.235496" lon="1.486623">
        <ele>183.4</ele>
        <time>1970-01-01T00:34:44.000Z</time>
      </trkpt>
      <trkpt lat="41.235521" lon="1.486606">
        <ele>183.5</ele>
        <time>1970-01-01T00:34:45.000Z</time>
      </trkpt>
      <trkpt lat="41.235554" lon="1.486583">
        <ele>183.6</ele>
        <time>1970-01-01T00:34:46.000Z</time>
      </trkpt>
      <trkpt lat="41.235586" lon="1.486562">
        <ele>183.8</ele>
        <time>1970-01-01T00:34:47.000Z</time>
      </trkpt>
      <trkpt lat="41.235625" lon="1.486538">
        <ele>184.1</ele>
        <time>1970-01-01T00:34:48.000Z</time>
      </trkpt>
      <trkpt lat="41.235672" lon="1.486516">
        <ele>184.4</ele>
        <time>1970-01-01T00:34:49.000Z</time>
      </trkpt>
      <trkpt lat="41.235712" lon="1.486495">
        <ele>184.7</ele>
        <time>1970-01-01T00:34:50.000Z</time>
      </trkpt>
      <trkpt lat="41.23576" lon="1.486468">
        <ele>185.1</ele>
        <time>1970-01-01T00:34:51.000Z</time>
      </trkpt>
      <trkpt lat="41.235802" lon="1.486432">
        <ele>184.4</ele>
        <time>1970-01-01T00:34:52.000Z</time>
      </trkpt>
      <trkpt lat="41.235836" lon="1.486357">
        <ele>183.9</ele>
        <time>1970-01-01T00:34:53.000Z</time>
      </trkpt>
      <trkpt lat="41.235862" lon="1.486287">
        <ele>183.5</ele>
        <time>1970-01-01T00:34:54.000Z</time>
      </trkpt>
      <trkpt lat="41.235908" lon="1.486228">
        <ele>182.9</ele>
        <time>1970-01-01T00:34:55.000Z</time>
      </trkpt>
      <trkpt lat="41.235948" lon="1.486178">
        <ele>182.3</ele>
        <time>1970-01-01T00:34:56.000Z</time>
      </trkpt>
      <trkpt lat="41.236001" lon="1.486142">
        <ele>181.7</ele>
        <time>1970-01-01T00:34:57.000Z</time>
      </trkpt>
      <trkpt lat="41.236059" lon="1.486097">
        <ele>180.9</ele>
        <time>1970-01-01T00:34:58.000Z</time>
      </trkpt>
      <trkpt lat="41.236116" lon="1.486049">
        <ele>180</ele>
        <time>1970-01-01T00:34:59.000Z</time>
      </trkpt>
      <trkpt lat="41.236155" lon="1.486001">
        <ele>179.4</ele>
        <time>1970-01-01T00:35:00.000Z</time>
      </trkpt>
      <trkpt lat="41.236193" lon="1.485946">
        <ele>178.6</ele>
        <time>1970-01-01T00:35:01.000Z</time>
      </trkpt>
      <trkpt lat="41.236222" lon="1.485886">
        <ele>177.8</ele>
        <time>1970-01-01T00:35:02.000Z</time>
      </trkpt>
      <trkpt lat="41.236237" lon="1.485818">
        <ele>177</ele>
        <time>1970-01-01T00:35:03.000Z</time>
      </trkpt>
      <trkpt lat="41.236262" lon="1.485736">
        <ele>176.4</ele>
        <time>1970-01-01T00:35:04.000Z</time>
      </trkpt>
      <trkpt lat="41.23627" lon="1.485675">
        <ele>176.2</ele>
        <time>1970-01-01T00:35:05.000Z</time>
      </trkpt>
      <trkpt lat="41.236295" lon="1.485619">
        <ele>176.1</ele>
        <time>1970-01-01T00:35:06.000Z</time>
      </trkpt>
      <trkpt lat="41.236342" lon="1.48556">
        <ele>176.3</ele>
        <time>1970-01-01T00:35:07.000Z</time>
      </trkpt>
      <trkpt lat="41.236376" lon="1.485499">
        <ele>176.5</ele>
        <time>1970-01-01T00:35:08.000Z</time>
      </trkpt>
      <trkpt lat="41.23641" lon="1.48544">
        <ele>176.6</ele>
        <time>1970-01-01T00:35:09.000Z</time>
      </trkpt>
      <trkpt lat="41.236442" lon="1.485381">
        <ele>176.7</ele>
        <time>1970-01-01T00:35:10.000Z</time>
      </trkpt>
      <trkpt lat="41.236472" lon="1.485326">
        <ele>176.8</ele>
        <time>1970-01-01T00:35:11.000Z</time>
      </trkpt>
      <trkpt lat="41.236502" lon="1.485281">
        <ele>176.9</ele>
        <time>1970-01-01T00:35:12.000Z</time>
      </trkpt>
      <trkpt lat="41.236553" lon="1.48522">
        <ele>177.1</ele>
        <time>1970-01-01T00:35:13.000Z</time>
      </trkpt>
      <trkpt lat="41.23659" lon="1.485154">
        <ele>177.3</ele>
        <time>1970-01-01T00:35:14.000Z</time>
      </trkpt>
      <trkpt lat="41.236632" lon="1.485091">
        <ele>177.4</ele>
        <time>1970-01-01T00:35:15.000Z</time>
      </trkpt>
      <trkpt lat="41.236677" lon="1.485031">
        <ele>177.5</ele>
        <time>1970-01-01T00:35:16.000Z</time>
      </trkpt>
      <trkpt lat="41.236716" lon="1.484996">
        <ele>177.6</ele>
        <time>1970-01-01T00:35:17.000Z</time>
      </trkpt>
      <trkpt lat="41.236771" lon="1.484968">
        <ele>177.6</ele>
        <time>1970-01-01T00:35:18.000Z</time>
      </trkpt>
      <trkpt lat="41.236809" lon="1.484982">
        <ele>177.7</ele>
        <time>1970-01-01T00:35:19.000Z</time>
      </trkpt>
      <trkpt lat="41.23686" lon="1.485009">
        <ele>177.7</ele>
        <time>1970-01-01T00:35:20.000Z</time>
      </trkpt>
      <trkpt lat="41.2369" lon="1.485034">
        <ele>177.8</ele>
        <time>1970-01-01T00:35:21.000Z</time>
      </trkpt>
      <trkpt lat="41.236931" lon="1.485062">
        <ele>177.9</ele>
        <time>1970-01-01T00:35:22.000Z</time>
      </trkpt>
      <trkpt lat="41.236975" lon="1.4851">
        <ele>177.9</ele>
        <time>1970-01-01T00:35:23.000Z</time>
      </trkpt>
      <trkpt lat="41.237014" lon="1.485135">
        <ele>178</ele>
        <time>1970-01-01T00:35:24.000Z</time>
      </trkpt>
      <trkpt lat="41.237058" lon="1.485164">
        <ele>178.1</ele>
        <time>1970-01-01T00:35:25.000Z</time>
      </trkpt>
      <trkpt lat="41.237129" lon="1.485176">
        <ele>178.2</ele>
        <time>1970-01-01T00:35:26.000Z</time>
      </trkpt>
      <trkpt lat="41.23717" lon="1.485178">
        <ele>178.3</ele>
        <time>1970-01-01T00:35:27.000Z</time>
      </trkpt>
      <trkpt lat="41.237207" lon="1.485178">
        <ele>178.4</ele>
        <time>1970-01-01T00:35:28.000Z</time>
      </trkpt>
      <trkpt lat="41.23726" lon="1.485175">
        <ele>178.5</ele>
        <time>1970-01-01T00:35:29.000Z</time>
      </trkpt>
      <trkpt lat="41.237308" lon="1.485177">
        <ele>178.7</ele>
        <time>1970-01-01T00:35:30.000Z</time>
      </trkpt>
      <trkpt lat="41.237356" lon="1.485182">
        <ele>178.8</ele>
        <time>1970-01-01T00:35:31.000Z</time>
      </trkpt>
      <trkpt lat="41.237403" lon="1.485168">
        <ele>179</ele>
        <time>1970-01-01T00:35:32.000Z</time>
      </trkpt>
      <trkpt lat="41.237449" lon="1.485149">
        <ele>179.2</ele>
        <time>1970-01-01T00:35:33.000Z</time>
      </trkpt>
      <trkpt lat="41.237488" lon="1.485116">
        <ele>179.5</ele>
        <time>1970-01-01T00:35:34.000Z</time>
      </trkpt>
      <trkpt lat="41.237527" lon="1.485078">
        <ele>179.7</ele>
        <time>1970-01-01T00:35:35.000Z</time>
      </trkpt>
      <trkpt lat="41.237568" lon="1.485064">
        <ele>179.9</ele>
        <time>1970-01-01T00:35:36.000Z</time>
      </trkpt>
      <trkpt lat="41.237604" lon="1.485042">
        <ele>180.1</ele>
        <time>1970-01-01T00:35:37.000Z</time>
      </trkpt>
      <trkpt lat="41.237643" lon="1.485023">
        <ele>180.3</ele>
        <time>1970-01-01T00:35:38.000Z</time>
      </trkpt>
      <trkpt lat="41.237686" lon="1.484987">
        <ele>180.5</ele>
        <time>1970-01-01T00:35:39.000Z</time>
      </trkpt>
      <trkpt lat="41.237739" lon="1.484955">
        <ele>180.8</ele>
        <time>1970-01-01T00:35:40.000Z</time>
      </trkpt>
      <trkpt lat="41.237788" lon="1.484919">
        <ele>181.1</ele>
        <time>1970-01-01T00:35:41.000Z</time>
      </trkpt>
      <trkpt lat="41.23783" lon="1.484893">
        <ele>181.4</ele>
        <time>1970-01-01T00:35:42.000Z</time>
      </trkpt>
      <trkpt lat="41.237869" lon="1.484861">
        <ele>181.6</ele>
        <time>1970-01-01T00:35:43.000Z</time>
      </trkpt>
      <trkpt lat="41.237908" lon="1.484834">
        <ele>181.8</ele>
        <time>1970-01-01T00:35:44.000Z</time>
      </trkpt>
      <trkpt lat="41.237946" lon="1.484803">
        <ele>182</ele>
        <time>1970-01-01T00:35:45.000Z</time>
      </trkpt>
      <trkpt lat="41.237985" lon="1.484776">
        <ele>182.1</ele>
        <time>1970-01-01T00:35:46.000Z</time>
      </trkpt>
      <trkpt lat="41.238021" lon="1.484746">
        <ele>182.3</ele>
        <time>1970-01-01T00:35:47.000Z</time>
      </trkpt>
      <trkpt lat="41.238053" lon="1.484716">
        <ele>182.5</ele>
        <time>1970-01-01T00:35:48.000Z</time>
      </trkpt>
      <trkpt lat="41.238085" lon="1.484677">
        <ele>182.7</ele>
        <time>1970-01-01T00:35:49.000Z</time>
      </trkpt>
      <trkpt lat="41.238111" lon="1.484629">
        <ele>182.8</ele>
        <time>1970-01-01T00:35:50.000Z</time>
      </trkpt>
      <trkpt lat="41.238138" lon="1.484579">
        <ele>183</ele>
        <time>1970-01-01T00:35:51.000Z</time>
      </trkpt>
      <trkpt lat="41.238161" lon="1.484535">
        <ele>183.2</ele>
        <time>1970-01-01T00:35:52.000Z</time>
      </trkpt>
      <trkpt lat="41.23819" lon="1.484495">
        <ele>183.3</ele>
        <time>1970-01-01T00:35:53.000Z</time>
      </trkpt>
      <trkpt lat="41.238218" lon="1.484448">
        <ele>183.4</ele>
        <time>1970-01-01T00:35:54.000Z</time>
      </trkpt>
      <trkpt lat="41.238239" lon="1.484402">
        <ele>183.5</ele>
        <time>1970-01-01T00:35:55.000Z</time>
      </trkpt>
      <trkpt lat="41.238257" lon="1.484357">
        <ele>183.6</ele>
        <time>1970-01-01T00:35:56.000Z</time>
      </trkpt>
      <trkpt lat="41.238273" lon="1.484311">
        <ele>183.8</ele>
        <time>1970-01-01T00:35:57.000Z</time>
      </trkpt>
      <trkpt lat="41.238284" lon="1.48427">
        <ele>183.9</ele>
        <time>1970-01-01T00:35:58.000Z</time>
      </trkpt>
      <trkpt lat="41.238302" lon="1.484229">
        <ele>184</ele>
        <time>1970-01-01T00:35:59.000Z</time>
      </trkpt>
      <trkpt lat="41.238319" lon="1.484186">
        <ele>184.1</ele>
        <time>1970-01-01T00:36:00.000Z</time>
      </trkpt>
      <trkpt lat="41.238343" lon="1.484137">
        <ele>184.3</ele>
        <time>1970-01-01T00:36:01.000Z</time>
      </trkpt>
      <trkpt lat="41.238373" lon="1.48409">
        <ele>184.4</ele>
        <time>1970-01-01T00:36:02.000Z</time>
      </trkpt>
      <trkpt lat="41.238404" lon="1.484043">
        <ele>184.6</ele>
        <time>1970-01-01T00:36:03.000Z</time>
      </trkpt>
      <trkpt lat="41.238432" lon="1.484005">
        <ele>184.8</ele>
        <time>1970-01-01T00:36:04.000Z</time>
      </trkpt>
      <trkpt lat="41.238468" lon="1.483992">
        <ele>184.6</ele>
        <time>1970-01-01T00:36:05.000Z</time>
      </trkpt>
      <trkpt lat="41.238515" lon="1.483983">
        <ele>184.4</ele>
        <time>1970-01-01T00:36:06.000Z</time>
      </trkpt>
      <trkpt lat="41.238565" lon="1.484015">
        <ele>184.2</ele>
        <time>1970-01-01T00:36:07.000Z</time>
      </trkpt>
      <trkpt lat="41.238607" lon="1.484051">
        <ele>183.9</ele>
        <time>1970-01-01T00:36:08.000Z</time>
      </trkpt>
      <trkpt lat="41.238649" lon="1.484072">
        <ele>183.7</ele>
        <time>1970-01-01T00:36:09.000Z</time>
      </trkpt>
      <trkpt lat="41.238689" lon="1.484093">
        <ele>183.5</ele>
        <time>1970-01-01T00:36:10.000Z</time>
      </trkpt>
      <trkpt lat="41.238728" lon="1.484116">
        <ele>183.4</ele>
        <time>1970-01-01T00:36:11.000Z</time>
      </trkpt>
      <trkpt lat="41.238773" lon="1.484139">
        <ele>183.2</ele>
        <time>1970-01-01T00:36:12.000Z</time>
      </trkpt>
      <trkpt lat="41.238815" lon="1.484166">
        <ele>183.1</ele>
        <time>1970-01-01T00:36:13.000Z</time>
      </trkpt>
      <trkpt lat="41.238857" lon="1.484205">
        <ele>183</ele>
        <time>1970-01-01T00:36:14.000Z</time>
      </trkpt>
      <trkpt lat="41.238899" lon="1.484232">
        <ele>183</ele>
        <time>1970-01-01T00:36:15.000Z</time>
      </trkpt>
      <trkpt lat="41.238919" lon="1.484269">
        <ele>182.9</ele>
        <time>1970-01-01T00:36:16.000Z</time>
      </trkpt>
      <trkpt lat="41.238948" lon="1.484307">
        <ele>182.9</ele>
        <time>1970-01-01T00:36:17.000Z</time>
      </trkpt>
      <trkpt lat="41.238982" lon="1.484341">
        <ele>182.8</ele>
        <time>1970-01-01T00:36:18.000Z</time>
      </trkpt>
      <trkpt lat="41.239009" lon="1.484379">
        <ele>182.8</ele>
        <time>1970-01-01T00:36:19.000Z</time>
      </trkpt>
      <trkpt lat="41.239047" lon="1.484412">
        <ele>182.7</ele>
        <time>1970-01-01T00:36:20.000Z</time>
      </trkpt>
      <trkpt lat="41.239081" lon="1.484454">
        <ele>182.7</ele>
        <time>1970-01-01T00:36:21.000Z</time>
      </trkpt>
      <trkpt lat="41.239111" lon="1.484499">
        <ele>182.7</ele>
        <time>1970-01-01T00:36:22.000Z</time>
      </trkpt>
      <trkpt lat="41.239141" lon="1.48454">
        <ele>182.7</ele>
        <time>1970-01-01T00:36:23.000Z</time>
      </trkpt>
      <trkpt lat="41.239171" lon="1.484587">
        <ele>182.6</ele>
        <time>1970-01-01T00:36:24.000Z</time>
      </trkpt>
      <trkpt lat="41.239205" lon="1.48463">
        <ele>182.6</ele>
        <time>1970-01-01T00:36:25.000Z</time>
      </trkpt>
      <trkpt lat="41.239239" lon="1.484671">
        <ele>182.6</ele>
        <time>1970-01-01T00:36:26.000Z</time>
      </trkpt>
      <trkpt lat="41.239273" lon="1.484704">
        <ele>182.6</ele>
        <time>1970-01-01T00:36:27.000Z</time>
      </trkpt>
      <trkpt lat="41.239312" lon="1.484731">
        <ele>182.6</ele>
        <time>1970-01-01T00:36:28.000Z</time>
      </trkpt>
      <trkpt lat="41.239349" lon="1.484758">
        <ele>182.6</ele>
        <time>1970-01-01T00:36:29.000Z</time>
      </trkpt>
      <trkpt lat="41.239397" lon="1.484789">
        <ele>182.5</ele>
        <time>1970-01-01T00:36:30.000Z</time>
      </trkpt>
      <trkpt lat="41.239443" lon="1.484805">
        <ele>182.5</ele>
        <time>1970-01-01T00:36:31.000Z</time>
      </trkpt>
      <trkpt lat="41.239492" lon="1.484824">
        <ele>182.5</ele>
        <time>1970-01-01T00:36:32.000Z</time>
      </trkpt>
      <trkpt lat="41.239537" lon="1.484843">
        <ele>182.5</ele>
        <time>1970-01-01T00:36:33.000Z</time>
      </trkpt>
      <trkpt lat="41.239583" lon="1.484852">
        <ele>182.5</ele>
        <time>1970-01-01T00:36:34.000Z</time>
      </trkpt>
      <trkpt lat="41.239629" lon="1.484864">
        <ele>182.5</ele>
        <time>1970-01-01T00:36:35.000Z</time>
      </trkpt>
      <trkpt lat="41.239682" lon="1.484872">
        <ele>182.5</ele>
        <time>1970-01-01T00:36:36.000Z</time>
      </trkpt>
      <trkpt lat="41.239731" lon="1.484876">
        <ele>182.5</ele>
        <time>1970-01-01T00:36:37.000Z</time>
      </trkpt>
      <trkpt lat="41.23978" lon="1.484881">
        <ele>182.5</ele>
        <time>1970-01-01T00:36:38.000Z</time>
      </trkpt>
      <trkpt lat="41.23983" lon="1.484868">
        <ele>182.6</ele>
        <time>1970-01-01T00:36:39.000Z</time>
      </trkpt>
      <trkpt lat="41.239877" lon="1.484867">
        <ele>182.6</ele>
        <time>1970-01-01T00:36:40.000Z</time>
      </trkpt>
      <trkpt lat="41.239921" lon="1.484861">
        <ele>182.6</ele>
        <time>1970-01-01T00:36:41.000Z</time>
      </trkpt>
      <trkpt lat="41.239968" lon="1.484858">
        <ele>182.6</ele>
        <time>1970-01-01T00:36:42.000Z</time>
      </trkpt>
      <trkpt lat="41.240012" lon="1.484835">
        <ele>182.6</ele>
        <time>1970-01-01T00:36:43.000Z</time>
      </trkpt>
      <trkpt lat="41.240059" lon="1.484811">
        <ele>182.6</ele>
        <time>1970-01-01T00:36:44.000Z</time>
      </trkpt>
      <trkpt lat="41.240103" lon="1.48479">
        <ele>182.6</ele>
        <time>1970-01-01T00:36:45.000Z</time>
      </trkpt>
      <trkpt lat="41.240148" lon="1.48478">
        <ele>182.6</ele>
        <time>1970-01-01T00:36:46.000Z</time>
      </trkpt>
      <trkpt lat="41.240191" lon="1.484773">
        <ele>182.6</ele>
        <time>1970-01-01T00:36:47.000Z</time>
      </trkpt>
      <trkpt lat="41.240238" lon="1.484767">
        <ele>182.6</ele>
        <time>1970-01-01T00:36:48.000Z</time>
      </trkpt>
      <trkpt lat="41.24029" lon="1.484753">
        <ele>182.7</ele>
        <time>1970-01-01T00:36:49.000Z</time>
      </trkpt>
      <trkpt lat="41.240336" lon="1.484745">
        <ele>182.7</ele>
        <time>1970-01-01T00:36:50.000Z</time>
      </trkpt>
      <trkpt lat="41.240382" lon="1.484736">
        <ele>182.7</ele>
        <time>1970-01-01T00:36:51.000Z</time>
      </trkpt>
      <trkpt lat="41.240431" lon="1.484732">
        <ele>182.8</ele>
        <time>1970-01-01T00:36:52.000Z</time>
      </trkpt>
      <trkpt lat="41.240472" lon="1.484726">
        <ele>182.8</ele>
        <time>1970-01-01T00:36:53.000Z</time>
      </trkpt>
      <trkpt lat="41.240521" lon="1.484719">
        <ele>182.8</ele>
        <time>1970-01-01T00:36:54.000Z</time>
      </trkpt>
      <trkpt lat="41.240572" lon="1.484707">
        <ele>182.9</ele>
        <time>1970-01-01T00:36:55.000Z</time>
      </trkpt>
      <trkpt lat="41.240617" lon="1.484697">
        <ele>182.9</ele>
        <time>1970-01-01T00:36:56.000Z</time>
      </trkpt>
      <trkpt lat="41.240659" lon="1.484694">
        <ele>182.9</ele>
        <time>1970-01-01T00:36:57.000Z</time>
      </trkpt>
      <trkpt lat="41.240707" lon="1.484704">
        <ele>183</ele>
        <time>1970-01-01T00:36:58.000Z</time>
      </trkpt>
      <trkpt lat="41.240753" lon="1.484729">
        <ele>183.1</ele>
        <time>1970-01-01T00:36:59.000Z</time>
      </trkpt>
      <trkpt lat="41.240788" lon="1.484774">
        <ele>183.2</ele>
        <time>1970-01-01T00:37:00.000Z</time>
      </trkpt>
      <trkpt lat="41.240825" lon="1.48481">
        <ele>183.3</ele>
        <time>1970-01-01T00:37:01.000Z</time>
      </trkpt>
      <trkpt lat="41.240858" lon="1.484849">
        <ele>183.5</ele>
        <time>1970-01-01T00:37:02.000Z</time>
      </trkpt>
      <trkpt lat="41.240878" lon="1.484898">
        <ele>183.6</ele>
        <time>1970-01-01T00:37:03.000Z</time>
      </trkpt>
      <trkpt lat="41.240907" lon="1.484943">
        <ele>183.8</ele>
        <time>1970-01-01T00:37:04.000Z</time>
      </trkpt>
      <trkpt lat="41.240938" lon="1.484991">
        <ele>183.9</ele>
        <time>1970-01-01T00:37:05.000Z</time>
      </trkpt>
      <trkpt lat="41.240959" lon="1.485038">
        <ele>184.1</ele>
        <time>1970-01-01T00:37:06.000Z</time>
      </trkpt>
      <trkpt lat="41.240985" lon="1.485081">
        <ele>184.2</ele>
        <time>1970-01-01T00:37:07.000Z</time>
      </trkpt>
      <trkpt lat="41.241018" lon="1.485132">
        <ele>184.4</ele>
        <time>1970-01-01T00:37:08.000Z</time>
      </trkpt>
      <trkpt lat="41.241047" lon="1.485182">
        <ele>184.6</ele>
        <time>1970-01-01T00:37:09.000Z</time>
      </trkpt>
      <trkpt lat="41.241076" lon="1.485233">
        <ele>184.7</ele>
        <time>1970-01-01T00:37:10.000Z</time>
      </trkpt>
      <trkpt lat="41.241119" lon="1.485278">
        <ele>184.9</ele>
        <time>1970-01-01T00:37:11.000Z</time>
      </trkpt>
      <trkpt lat="41.241156" lon="1.485317">
        <ele>185</ele>
        <time>1970-01-01T00:37:12.000Z</time>
      </trkpt>
      <trkpt lat="41.241189" lon="1.485345">
        <ele>185.1</ele>
        <time>1970-01-01T00:37:13.000Z</time>
      </trkpt>
      <trkpt lat="41.241222" lon="1.485364">
        <ele>185.2</ele>
        <time>1970-01-01T00:37:14.000Z</time>
      </trkpt>
      <trkpt lat="41.24126" lon="1.485371">
        <ele>185.3</ele>
        <time>1970-01-01T00:37:15.000Z</time>
      </trkpt>
      <trkpt lat="41.2413" lon="1.485371">
        <ele>185.4</ele>
        <time>1970-01-01T00:37:16.000Z</time>
      </trkpt>
      <trkpt lat="41.241339" lon="1.485367">
        <ele>185.5</ele>
        <time>1970-01-01T00:37:17.000Z</time>
      </trkpt>
      <trkpt lat="41.241378" lon="1.485363">
        <ele>185.7</ele>
        <time>1970-01-01T00:37:18.000Z</time>
      </trkpt>
      <trkpt lat="41.241419" lon="1.48535">
        <ele>185.8</ele>
        <time>1970-01-01T00:37:19.000Z</time>
      </trkpt>
      <trkpt lat="41.241456" lon="1.485347">
        <ele>185.9</ele>
        <time>1970-01-01T00:37:20.000Z</time>
      </trkpt>
      <trkpt lat="41.241502" lon="1.485348">
        <ele>186</ele>
        <time>1970-01-01T00:37:21.000Z</time>
      </trkpt>
      <trkpt lat="41.241548" lon="1.485341">
        <ele>186.2</ele>
        <time>1970-01-01T00:37:22.000Z</time>
      </trkpt>
      <trkpt lat="41.24159" lon="1.485332">
        <ele>186.3</ele>
        <time>1970-01-01T00:37:23.000Z</time>
      </trkpt>
      <trkpt lat="41.24164" lon="1.485324">
        <ele>186.5</ele>
        <time>1970-01-01T00:37:24.000Z</time>
      </trkpt>
      <trkpt lat="41.241683" lon="1.485319">
        <ele>186.6</ele>
        <time>1970-01-01T00:37:25.000Z</time>
      </trkpt>
      <trkpt lat="41.241726" lon="1.485319">
        <ele>186.8</ele>
        <time>1970-01-01T00:37:26.000Z</time>
      </trkpt>
      <trkpt lat="41.241761" lon="1.485313">
        <ele>186.9</ele>
        <time>1970-01-01T00:37:27.000Z</time>
      </trkpt>
      <trkpt lat="41.2418" lon="1.485308">
        <ele>187.1</ele>
        <time>1970-01-01T00:37:28.000Z</time>
      </trkpt>
      <trkpt lat="41.241842" lon="1.485299">
        <ele>187.2</ele>
        <time>1970-01-01T00:37:29.000Z</time>
      </trkpt>
      <trkpt lat="41.241883" lon="1.485295">
        <ele>187.4</ele>
        <time>1970-01-01T00:37:30.000Z</time>
      </trkpt>
      <trkpt lat="41.241933" lon="1.485279">
        <ele>187.6</ele>
        <time>1970-01-01T00:37:31.000Z</time>
      </trkpt>
      <trkpt lat="41.241979" lon="1.485276">
        <ele>187.8</ele>
        <time>1970-01-01T00:37:32.000Z</time>
      </trkpt>
      <trkpt lat="41.242025" lon="1.48526">
        <ele>188.1</ele>
        <time>1970-01-01T00:37:33.000Z</time>
      </trkpt>
      <trkpt lat="41.242072" lon="1.485246">
        <ele>188.3</ele>
        <time>1970-01-01T00:37:34.000Z</time>
      </trkpt>
      <trkpt lat="41.242113" lon="1.485218">
        <ele>188.5</ele>
        <time>1970-01-01T00:37:35.000Z</time>
      </trkpt>
      <trkpt lat="41.242158" lon="1.485202">
        <ele>188.8</ele>
        <time>1970-01-01T00:37:36.000Z</time>
      </trkpt>
      <trkpt lat="41.242206" lon="1.485195">
        <ele>189</ele>
        <time>1970-01-01T00:37:37.000Z</time>
      </trkpt>
      <trkpt lat="41.242254" lon="1.485185">
        <ele>189.2</ele>
        <time>1970-01-01T00:37:38.000Z</time>
      </trkpt>
      <trkpt lat="41.242297" lon="1.48518">
        <ele>189.4</ele>
        <time>1970-01-01T00:37:39.000Z</time>
      </trkpt>
      <trkpt lat="41.242348" lon="1.485184">
        <ele>189.7</ele>
        <time>1970-01-01T00:37:40.000Z</time>
      </trkpt>
      <trkpt lat="41.242393" lon="1.485197">
        <ele>189.8</ele>
        <time>1970-01-01T00:37:41.000Z</time>
      </trkpt>
      <trkpt lat="41.242439" lon="1.485219">
        <ele>190</ele>
        <time>1970-01-01T00:37:42.000Z</time>
      </trkpt>
      <trkpt lat="41.242482" lon="1.485247">
        <ele>190.1</ele>
        <time>1970-01-01T00:37:43.000Z</time>
      </trkpt>
      <trkpt lat="41.24252" lon="1.485264">
        <ele>190.2</ele>
        <time>1970-01-01T00:37:44.000Z</time>
      </trkpt>
      <trkpt lat="41.242563" lon="1.485272">
        <ele>190.3</ele>
        <time>1970-01-01T00:37:45.000Z</time>
      </trkpt>
      <trkpt lat="41.242603" lon="1.485291">
        <ele>190.4</ele>
        <time>1970-01-01T00:37:46.000Z</time>
      </trkpt>
      <trkpt lat="41.242635" lon="1.485316">
        <ele>190.4</ele>
        <time>1970-01-01T00:37:47.000Z</time>
      </trkpt>
      <trkpt lat="41.24267" lon="1.485338">
        <ele>190.5</ele>
        <time>1970-01-01T00:37:48.000Z</time>
      </trkpt>
      <trkpt lat="41.242715" lon="1.485353">
        <ele>190.6</ele>
        <time>1970-01-01T00:37:49.000Z</time>
      </trkpt>
      <trkpt lat="41.24276" lon="1.485364">
        <ele>190.6</ele>
        <time>1970-01-01T00:37:50.000Z</time>
      </trkpt>
      <trkpt lat="41.242784" lon="1.485381">
        <ele>190.7</ele>
        <time>1970-01-01T00:37:51.000Z</time>
      </trkpt>
      <trkpt lat="41.242815" lon="1.485391">
        <ele>190.7</ele>
        <time>1970-01-01T00:37:52.000Z</time>
      </trkpt>
      <trkpt lat="41.242845" lon="1.485393">
        <ele>190.8</ele>
        <time>1970-01-01T00:37:53.000Z</time>
      </trkpt>
      <trkpt lat="41.242873" lon="1.485387">
        <ele>190.8</ele>
        <time>1970-01-01T00:37:54.000Z</time>
      </trkpt>
      <trkpt lat="41.242904" lon="1.485382">
        <ele>190.9</ele>
        <time>1970-01-01T00:37:55.000Z</time>
      </trkpt>
      <trkpt lat="41.24291" lon="1.485312">
        <ele>191.5</ele>
        <time>1970-01-01T00:37:57.000Z</time>
      </trkpt>
      <trkpt lat="41.242911" lon="1.48527">
        <ele>191.9</ele>
        <time>1970-01-01T00:37:59.000Z</time>
      </trkpt>
      <trkpt lat="41.242917" lon="1.485216">
        <ele>192.4</ele>
        <time>1970-01-01T00:38:02.000Z</time>
      </trkpt>
      <trkpt lat="41.242904" lon="1.48517">
        <ele>192.9</ele>
        <time>1970-01-01T00:38:04.000Z</time>
      </trkpt>
      <trkpt lat="41.242904" lon="1.485131">
        <ele>193.2</ele>
        <time>1970-01-01T00:38:05.000Z</time>
      </trkpt>
      <trkpt lat="41.242903" lon="1.485094">
        <ele>193.5</ele>
        <time>1970-01-01T00:38:06.000Z</time>
      </trkpt>
      <trkpt lat="41.242894" lon="1.485055">
        <ele>193.8</ele>
        <time>1970-01-01T00:38:08.000Z</time>
      </trkpt>
      <trkpt lat="41.242891" lon="1.485015">
        <ele>194.1</ele>
        <time>1970-01-01T00:38:10.000Z</time>
      </trkpt>
      <trkpt lat="41.24288" lon="1.484976">
        <ele>194.4</ele>
        <time>1970-01-01T00:38:12.000Z</time>
      </trkpt>
      <trkpt lat="41.242888" lon="1.484931">
        <ele>194.7</ele>
        <time>1970-01-01T00:38:14.000Z</time>
      </trkpt>
      <trkpt lat="41.242889" lon="1.48488">
        <ele>195.1</ele>
        <time>1970-01-01T00:38:16.000Z</time>
      </trkpt>
      <trkpt lat="41.242866" lon="1.484841">
        <ele>195.5</ele>
        <time>1970-01-01T00:38:18.000Z</time>
      </trkpt>
      <trkpt lat="41.242858" lon="1.484801">
        <ele>195.8</ele>
        <time>1970-01-01T00:38:20.000Z</time>
      </trkpt>
      <trkpt lat="41.242853" lon="1.48474">
        <ele>196.3</ele>
        <time>1970-01-01T00:38:23.000Z</time>
      </trkpt>
      <trkpt lat="41.242852" lon="1.484698">
        <ele>196.6</ele>
        <time>1970-01-01T00:38:25.000Z</time>
      </trkpt>
      <trkpt lat="41.242851" lon="1.484649">
        <ele>197.1</ele>
        <time>1970-01-01T00:38:27.000Z</time>
      </trkpt>
      <trkpt lat="41.242853" lon="1.48458">
        <ele>197.8</ele>
        <time>1970-01-01T00:38:29.000Z</time>
      </trkpt>
      <trkpt lat="41.242853" lon="1.484526">
        <ele>198.5</ele>
        <time>1970-01-01T00:38:31.000Z</time>
      </trkpt>
      <trkpt lat="41.242857" lon="1.484477">
        <ele>199</ele>
        <time>1970-01-01T00:38:33.000Z</time>
      </trkpt>
      <trkpt lat="41.24285" lon="1.484431">
        <ele>199.6</ele>
        <time>1970-01-01T00:38:36.000Z</time>
      </trkpt>
      <trkpt lat="41.242851" lon="1.484381">
        <ele>200.2</ele>
        <time>1970-01-01T00:38:38.000Z</time>
      </trkpt>
      <trkpt lat="41.242858" lon="1.484336">
        <ele>200.7</ele>
        <time>1970-01-01T00:38:40.000Z</time>
      </trkpt>
      <trkpt lat="41.242866" lon="1.484288">
        <ele>201.1</ele>
        <time>1970-01-01T00:38:43.000Z</time>
      </trkpt>
      <trkpt lat="41.242864" lon="1.484227">
        <ele>201.7</ele>
        <time>1970-01-01T00:38:45.000Z</time>
      </trkpt>
      <trkpt lat="41.242858" lon="1.484173">
        <ele>202.2</ele>
        <time>1970-01-01T00:38:47.000Z</time>
      </trkpt>
      <trkpt lat="41.242853" lon="1.484122">
        <ele>202.6</ele>
        <time>1970-01-01T00:38:49.000Z</time>
      </trkpt>
      <trkpt lat="41.242861" lon="1.484071">
        <ele>202.9</ele>
        <time>1970-01-01T00:38:51.000Z</time>
      </trkpt>
      <trkpt lat="41.242856" lon="1.484005">
        <ele>203.4</ele>
        <time>1970-01-01T00:38:53.000Z</time>
      </trkpt>
      <trkpt lat="41.242854" lon="1.483965">
        <ele>203.6</ele>
        <time>1970-01-01T00:38:55.000Z</time>
      </trkpt>
      <trkpt lat="41.24286" lon="1.483912">
        <ele>204</ele>
        <time>1970-01-01T00:38:57.000Z</time>
      </trkpt>
      <trkpt lat="41.242865" lon="1.48385">
        <ele>204.4</ele>
        <time>1970-01-01T00:38:59.000Z</time>
      </trkpt>
      <trkpt lat="41.242858" lon="1.483788">
        <ele>204.9</ele>
        <time>1970-01-01T00:39:01.000Z</time>
      </trkpt>
      <trkpt lat="41.242859" lon="1.483752">
        <ele>205.2</ele>
        <time>1970-01-01T00:39:02.000Z</time>
      </trkpt>
      <trkpt lat="41.242861" lon="1.483699">
        <ele>205.5</ele>
        <time>1970-01-01T00:39:04.000Z</time>
      </trkpt>
      <trkpt lat="41.242847" lon="1.483666">
        <ele>205.8</ele>
        <time>1970-01-01T00:39:05.000Z</time>
      </trkpt>
      <trkpt lat="41.242834" lon="1.48363">
        <ele>206.1</ele>
        <time>1970-01-01T00:39:07.000Z</time>
      </trkpt>
      <trkpt lat="41.242825" lon="1.483574">
        <ele>206.7</ele>
        <time>1970-01-01T00:39:09.000Z</time>
      </trkpt>
      <trkpt lat="41.242828" lon="1.483525">
        <ele>207.2</ele>
        <time>1970-01-01T00:39:11.000Z</time>
      </trkpt>
      <trkpt lat="41.242824" lon="1.483463">
        <ele>207.9</ele>
        <time>1970-01-01T00:39:13.000Z</time>
      </trkpt>
      <trkpt lat="41.242828" lon="1.483407">
        <ele>208.6</ele>
        <time>1970-01-01T00:39:15.000Z</time>
      </trkpt>
      <trkpt lat="41.242824" lon="1.483351">
        <ele>209.2</ele>
        <time>1970-01-01T00:39:17.000Z</time>
      </trkpt>
      <trkpt lat="41.242819" lon="1.483303">
        <ele>209.8</ele>
        <time>1970-01-01T00:39:19.000Z</time>
      </trkpt>
      <trkpt lat="41.242819" lon="1.483251">
        <ele>210.4</ele>
        <time>1970-01-01T00:39:21.000Z</time>
      </trkpt>
      <trkpt lat="41.242826" lon="1.483194">
        <ele>210.9</ele>
        <time>1970-01-01T00:39:23.000Z</time>
      </trkpt>
      <trkpt lat="41.242821" lon="1.483152">
        <ele>211.4</ele>
        <time>1970-01-01T00:39:25.000Z</time>
      </trkpt>
      <trkpt lat="41.242805" lon="1.483096">
        <ele>212</ele>
        <time>1970-01-01T00:39:28.000Z</time>
      </trkpt>
      <trkpt lat="41.242794" lon="1.483051">
        <ele>212.5</ele>
        <time>1970-01-01T00:39:30.000Z</time>
      </trkpt>
      <trkpt lat="41.242785" lon="1.483002">
        <ele>212.9</ele>
        <time>1970-01-01T00:39:33.000Z</time>
      </trkpt>
      <trkpt lat="41.242767" lon="1.482963">
        <ele>213.4</ele>
        <time>1970-01-01T00:39:35.000Z</time>
      </trkpt>
      <trkpt lat="41.242734" lon="1.482939">
        <ele>213.8</ele>
        <time>1970-01-01T00:39:37.000Z</time>
      </trkpt>
      <trkpt lat="41.242704" lon="1.482939">
        <ele>214</ele>
        <time>1970-01-01T00:39:38.000Z</time>
      </trkpt>
      <trkpt lat="41.242668" lon="1.482924">
        <ele>214.4</ele>
        <time>1970-01-01T00:39:40.000Z</time>
      </trkpt>
      <trkpt lat="41.242628" lon="1.482914">
        <ele>214.7</ele>
        <time>1970-01-01T00:39:42.000Z</time>
      </trkpt>
      <trkpt lat="41.242598" lon="1.482875">
        <ele>214.9</ele>
        <time>1970-01-01T00:39:44.000Z</time>
      </trkpt>
      <trkpt lat="41.242574" lon="1.482844">
        <ele>215.1</ele>
        <time>1970-01-01T00:39:46.000Z</time>
      </trkpt>
      <trkpt lat="41.242536" lon="1.482805">
        <ele>215.3</ele>
        <time>1970-01-01T00:39:48.000Z</time>
      </trkpt>
      <trkpt lat="41.24249" lon="1.482771">
        <ele>215.6</ele>
        <time>1970-01-01T00:39:50.000Z</time>
      </trkpt>
      <trkpt lat="41.242458" lon="1.482747">
        <ele>215.8</ele>
        <time>1970-01-01T00:39:52.000Z</time>
      </trkpt>
      <trkpt lat="41.242439" lon="1.482704">
        <ele>215.9</ele>
        <time>1970-01-01T00:39:53.000Z</time>
      </trkpt>
      <trkpt lat="41.242409" lon="1.482659">
        <ele>216</ele>
        <time>1970-01-01T00:39:55.000Z</time>
      </trkpt>
      <trkpt lat="41.242361" lon="1.482608">
        <ele>216</ele>
        <time>1970-01-01T00:39:57.000Z</time>
      </trkpt>
      <trkpt lat="41.242328" lon="1.482569">
        <ele>216</ele>
        <time>1970-01-01T00:39:58.000Z</time>
      </trkpt>
      <trkpt lat="41.242298" lon="1.482533">
        <ele>216</ele>
        <time>1970-01-01T00:39:59.000Z</time>
      </trkpt>
      <trkpt lat="41.242263" lon="1.482475">
        <ele>215.8</ele>
        <time>1970-01-01T00:40:00.000Z</time>
      </trkpt>
      <trkpt lat="41.242231" lon="1.48241">
        <ele>215.6</ele>
        <time>1970-01-01T00:40:01.000Z</time>
      </trkpt>
      <trkpt lat="41.242189" lon="1.482354">
        <ele>215.4</ele>
        <time>1970-01-01T00:40:02.000Z</time>
      </trkpt>
      <trkpt lat="41.242147" lon="1.482299">
        <ele>215.2</ele>
        <time>1970-01-01T00:40:03.000Z</time>
      </trkpt>
      <trkpt lat="41.24211" lon="1.482243">
        <ele>215.2</ele>
        <time>1970-01-01T00:40:04.000Z</time>
      </trkpt>
      <trkpt lat="41.242072" lon="1.482208">
        <ele>215.3</ele>
        <time>1970-01-01T00:40:05.000Z</time>
      </trkpt>
      <trkpt lat="41.242041" lon="1.482187">
        <ele>215.4</ele>
        <time>1970-01-01T00:40:06.000Z</time>
      </trkpt>
      <trkpt lat="41.242015" lon="1.482173">
        <ele>215.5</ele>
        <time>1970-01-01T00:40:07.000Z</time>
      </trkpt>
      <trkpt lat="41.241988" lon="1.482161">
        <ele>215.6</ele>
        <time>1970-01-01T00:40:08.000Z</time>
      </trkpt>
      <trkpt lat="41.241961" lon="1.482155">
        <ele>215.9</ele>
        <time>1970-01-01T00:40:09.000Z</time>
      </trkpt>
      <trkpt lat="41.241914" lon="1.482136">
        <ele>216.4</ele>
        <time>1970-01-01T00:40:11.000Z</time>
      </trkpt>
      <trkpt lat="41.241879" lon="1.482112">
        <ele>216.9</ele>
        <time>1970-01-01T00:40:13.000Z</time>
      </trkpt>
      <trkpt lat="41.241853" lon="1.482087">
        <ele>217.4</ele>
        <time>1970-01-01T00:40:15.000Z</time>
      </trkpt>
      <trkpt lat="41.241827" lon="1.482077">
        <ele>217.9</ele>
        <time>1970-01-01T00:40:17.000Z</time>
      </trkpt>
      <trkpt lat="41.24179" lon="1.482075">
        <ele>218.6</ele>
        <time>1970-01-01T00:40:20.000Z</time>
      </trkpt>
      <trkpt lat="41.241756" lon="1.482056">
        <ele>219.2</ele>
        <time>1970-01-01T00:40:22.000Z</time>
      </trkpt>
      <trkpt lat="41.241729" lon="1.482025">
        <ele>219.9</ele>
        <time>1970-01-01T00:40:24.000Z</time>
      </trkpt>
      <trkpt lat="41.241715" lon="1.481982">
        <ele>220.6</ele>
        <time>1970-01-01T00:40:26.000Z</time>
      </trkpt>
      <trkpt lat="41.241699" lon="1.481945">
        <ele>221.1</ele>
        <time>1970-01-01T00:40:28.000Z</time>
      </trkpt>
      <trkpt lat="41.241671" lon="1.48189">
        <ele>221.8</ele>
        <time>1970-01-01T00:40:30.000Z</time>
      </trkpt>
      <trkpt lat="41.241649" lon="1.481858">
        <ele>222.3</ele>
        <time>1970-01-01T00:40:32.000Z</time>
      </trkpt>
      <trkpt lat="41.241621" lon="1.481825">
        <ele>222.8</ele>
        <time>1970-01-01T00:40:34.000Z</time>
      </trkpt>
      <trkpt lat="41.241589" lon="1.481794">
        <ele>223.4</ele>
        <time>1970-01-01T00:40:36.000Z</time>
      </trkpt>
      <trkpt lat="41.241558" lon="1.481756">
        <ele>224</ele>
        <time>1970-01-01T00:40:39.000Z</time>
      </trkpt>
      <trkpt lat="41.241528" lon="1.481731">
        <ele>224.5</ele>
        <time>1970-01-01T00:40:41.000Z</time>
      </trkpt>
      <trkpt lat="41.241495" lon="1.481688">
        <ele>225.1</ele>
        <time>1970-01-01T00:40:43.000Z</time>
      </trkpt>
      <trkpt lat="41.241457" lon="1.481678">
        <ele>225.6</ele>
        <time>1970-01-01T00:40:45.000Z</time>
      </trkpt>
      <trkpt lat="41.241412" lon="1.481681">
        <ele>226.2</ele>
        <time>1970-01-01T00:40:48.000Z</time>
      </trkpt>
      <trkpt lat="41.241372" lon="1.481688">
        <ele>226.8</ele>
        <time>1970-01-01T00:40:50.000Z</time>
      </trkpt>
      <trkpt lat="41.241319" lon="1.481703">
        <ele>227.5</ele>
        <time>1970-01-01T00:40:52.000Z</time>
      </trkpt>
      <trkpt lat="41.241276" lon="1.481684">
        <ele>228.2</ele>
        <time>1970-01-01T00:40:54.000Z</time>
      </trkpt>
      <trkpt lat="41.241253" lon="1.481665">
        <ele>228.6</ele>
        <time>1970-01-01T00:40:55.000Z</time>
      </trkpt>
      <trkpt lat="41.241206" lon="1.48166">
        <ele>229.3</ele>
        <time>1970-01-01T00:40:58.000Z</time>
      </trkpt>
      <trkpt lat="41.241167" lon="1.481647">
        <ele>229.9</ele>
        <time>1970-01-01T00:41:00.000Z</time>
      </trkpt>
      <trkpt lat="41.24113" lon="1.481638">
        <ele>230.4</ele>
        <time>1970-01-01T00:41:02.000Z</time>
      </trkpt>
      <trkpt lat="41.241087" lon="1.481622">
        <ele>231</ele>
        <time>1970-01-01T00:41:04.000Z</time>
      </trkpt>
      <trkpt lat="41.241059" lon="1.481618">
        <ele>231.3</ele>
        <time>1970-01-01T00:41:05.000Z</time>
      </trkpt>
      <trkpt lat="41.24101" lon="1.481612">
        <ele>231.9</ele>
        <time>1970-01-01T00:41:07.000Z</time>
      </trkpt>
      <trkpt lat="41.240963" lon="1.481619">
        <ele>232.4</ele>
        <time>1970-01-01T00:41:09.000Z</time>
      </trkpt>
      <trkpt lat="41.240911" lon="1.481624">
        <ele>232.9</ele>
        <time>1970-01-01T00:41:11.000Z</time>
      </trkpt>
      <trkpt lat="41.240878" lon="1.481622">
        <ele>233.3</ele>
        <time>1970-01-01T00:41:12.000Z</time>
      </trkpt>
      <trkpt lat="41.240837" lon="1.481616">
        <ele>233.7</ele>
        <time>1970-01-01T00:41:14.000Z</time>
      </trkpt>
      <trkpt lat="41.240801" lon="1.481622">
        <ele>234</ele>
        <time>1970-01-01T00:41:16.000Z</time>
      </trkpt>
      <trkpt lat="41.240769" lon="1.481624">
        <ele>234.3</ele>
        <time>1970-01-01T00:41:18.000Z</time>
      </trkpt>
      <trkpt lat="41.240737" lon="1.481627">
        <ele>234.6</ele>
        <time>1970-01-01T00:41:20.000Z</time>
      </trkpt>
      <trkpt lat="41.240693" lon="1.481634">
        <ele>235</ele>
        <time>1970-01-01T00:41:22.000Z</time>
      </trkpt>
      <trkpt lat="41.24064" lon="1.481649">
        <ele>235.6</ele>
        <time>1970-01-01T00:41:24.000Z</time>
      </trkpt>
      <trkpt lat="41.240606" lon="1.481654">
        <ele>235.9</ele>
        <time>1970-01-01T00:41:26.000Z</time>
      </trkpt>
      <trkpt lat="41.240562" lon="1.48164">
        <ele>236.4</ele>
        <time>1970-01-01T00:41:28.000Z</time>
      </trkpt>
      <trkpt lat="41.240524" lon="1.481626">
        <ele>236.9</ele>
        <time>1970-01-01T00:41:30.000Z</time>
      </trkpt>
      <trkpt lat="41.240484" lon="1.481595">
        <ele>237.5</ele>
        <time>1970-01-01T00:41:32.000Z</time>
      </trkpt>
      <trkpt lat="41.240442" lon="1.481567">
        <ele>237.9</ele>
        <time>1970-01-01T00:41:34.000Z</time>
      </trkpt>
      <trkpt lat="41.240406" lon="1.481529">
        <ele>238.3</ele>
        <time>1970-01-01T00:41:36.000Z</time>
      </trkpt>
      <trkpt lat="41.240365" lon="1.481503">
        <ele>238.7</ele>
        <time>1970-01-01T00:41:38.000Z</time>
      </trkpt>
      <trkpt lat="41.24032" lon="1.481488">
        <ele>239.1</ele>
        <time>1970-01-01T00:41:40.000Z</time>
      </trkpt>
      <trkpt lat="41.240276" lon="1.481456">
        <ele>239.4</ele>
        <time>1970-01-01T00:41:42.000Z</time>
      </trkpt>
      <trkpt lat="41.24024" lon="1.481426">
        <ele>239.6</ele>
        <time>1970-01-01T00:41:44.000Z</time>
      </trkpt>
      <trkpt lat="41.240192" lon="1.481391">
        <ele>239.8</ele>
        <time>1970-01-01T00:41:46.000Z</time>
      </trkpt>
      <trkpt lat="41.240159" lon="1.48136">
        <ele>239.9</ele>
        <time>1970-01-01T00:41:47.000Z</time>
      </trkpt>
      <trkpt lat="41.240126" lon="1.481332">
        <ele>239.9</ele>
        <time>1970-01-01T00:41:48.000Z</time>
      </trkpt>
      <trkpt lat="41.2401" lon="1.481315">
        <ele>240</ele>
        <time>1970-01-01T00:41:49.000Z</time>
      </trkpt>
      <trkpt lat="41.240072" lon="1.481306">
        <ele>240</ele>
        <time>1970-01-01T00:41:50.000Z</time>
      </trkpt>
      <trkpt lat="41.240041" lon="1.4813">
        <ele>240</ele>
        <time>1970-01-01T00:41:51.000Z</time>
      </trkpt>
      <trkpt lat="41.240004" lon="1.481289">
        <ele>240</ele>
        <time>1970-01-01T00:41:53.000Z</time>
      </trkpt>
      <trkpt lat="41.239963" lon="1.481274">
        <ele>240</ele>
        <time>1970-01-01T00:41:55.000Z</time>
      </trkpt>
      <trkpt lat="41.239927" lon="1.481221">
        <ele>240</ele>
        <time>1970-01-01T00:41:57.000Z</time>
      </trkpt>
      <trkpt lat="41.239903" lon="1.481147">
        <ele>239.9</ele>
        <time>1970-01-01T00:41:59.000Z</time>
      </trkpt>
      <trkpt lat="41.23989" lon="1.481111">
        <ele>239.9</ele>
        <time>1970-01-01T00:42:00.000Z</time>
      </trkpt>
      <trkpt lat="41.239879" lon="1.481077">
        <ele>239.9</ele>
        <time>1970-01-01T00:42:01.000Z</time>
      </trkpt>
      <trkpt lat="41.239872" lon="1.481028">
        <ele>239.8</ele>
        <time>1970-01-01T00:42:03.000Z</time>
      </trkpt>
      <trkpt lat="41.23987" lon="1.48099">
        <ele>239.8</ele>
        <time>1970-01-01T00:42:04.000Z</time>
      </trkpt>
      <trkpt lat="41.239864" lon="1.48093">
        <ele>239.7</ele>
        <time>1970-01-01T00:42:06.000Z</time>
      </trkpt>
      <trkpt lat="41.239862" lon="1.480892">
        <ele>239.7</ele>
        <time>1970-01-01T00:42:07.000Z</time>
      </trkpt>
      <trkpt lat="41.239858" lon="1.480855">
        <ele>239.7</ele>
        <time>1970-01-01T00:42:08.000Z</time>
      </trkpt>
      <trkpt lat="41.239854" lon="1.480817">
        <ele>239.7</ele>
        <time>1970-01-01T00:42:09.000Z</time>
      </trkpt>
      <trkpt lat="41.239844" lon="1.480763">
        <ele>239.7</ele>
        <time>1970-01-01T00:42:11.000Z</time>
      </trkpt>
      <trkpt lat="41.239831" lon="1.480725">
        <ele>239.7</ele>
        <time>1970-01-01T00:42:13.000Z</time>
      </trkpt>
      <trkpt lat="41.239814" lon="1.480683">
        <ele>239.8</ele>
        <time>1970-01-01T00:42:17.000Z</time>
      </trkpt>
      <trkpt lat="41.239781" lon="1.480687">
        <ele>239.8</ele>
        <time>1970-01-01T00:42:19.000Z</time>
      </trkpt>
      <trkpt lat="41.239724" lon="1.480693">
        <ele>239.9</ele>
        <time>1970-01-01T00:42:21.000Z</time>
      </trkpt>
      <trkpt lat="41.239671" lon="1.480703">
        <ele>240.1</ele>
        <time>1970-01-01T00:42:23.000Z</time>
      </trkpt>
      <trkpt lat="41.239634" lon="1.480704">
        <ele>240.3</ele>
        <time>1970-01-01T00:42:24.000Z</time>
      </trkpt>
      <trkpt lat="41.2396" lon="1.48069">
        <ele>240.4</ele>
        <time>1970-01-01T00:42:25.000Z</time>
      </trkpt>
      <trkpt lat="41.239574" lon="1.480678">
        <ele>240.6</ele>
        <time>1970-01-01T00:42:26.000Z</time>
      </trkpt>
      <trkpt lat="41.239544" lon="1.480654">
        <ele>240.8</ele>
        <time>1970-01-01T00:42:27.000Z</time>
      </trkpt>
      <trkpt lat="41.239525" lon="1.480607">
        <ele>241.5</ele>
        <time>1970-01-01T00:42:29.000Z</time>
      </trkpt>
      <trkpt lat="41.239508" lon="1.480574">
        <ele>241.8</ele>
        <time>1970-01-01T00:42:30.000Z</time>
      </trkpt>
      <trkpt lat="41.239482" lon="1.480529">
        <ele>242.4</ele>
        <time>1970-01-01T00:42:40.000Z</time>
      </trkpt>
      <trkpt lat="41.239453" lon="1.480498">
        <ele>242.1</ele>
        <time>1970-01-01T00:42:43.000Z</time>
      </trkpt>
      <trkpt lat="41.239418" lon="1.480475">
        <ele>242.3</ele>
        <time>1970-01-01T00:42:45.000Z</time>
      </trkpt>
      <trkpt lat="41.239383" lon="1.480445">
        <ele>242.1</ele>
        <time>1970-01-01T00:42:47.000Z</time>
      </trkpt>
      <trkpt lat="41.239349" lon="1.480401">
        <ele>242.2</ele>
        <time>1970-01-01T00:42:49.000Z</time>
      </trkpt>
      <trkpt lat="41.239389" lon="1.480419">
        <ele>242.6</ele>
        <time>1970-01-01T00:42:53.000Z</time>
      </trkpt>
      <trkpt lat="41.239428" lon="1.480418">
        <ele>243.1</ele>
        <time>1970-01-01T00:42:55.000Z</time>
      </trkpt>
      <trkpt lat="41.239482" lon="1.480398">
        <ele>244.6</ele>
        <time>1970-01-01T00:42:57.000Z</time>
      </trkpt>
      <trkpt lat="41.239518" lon="1.480373">
        <ele>245.1</ele>
        <time>1970-01-01T00:42:58.000Z</time>
      </trkpt>
      <trkpt lat="41.239552" lon="1.48035">
        <ele>246.1</ele>
        <time>1970-01-01T00:42:59.000Z</time>
      </trkpt>
      <trkpt lat="41.239589" lon="1.480311">
        <ele>247.1</ele>
        <time>1970-01-01T00:43:00.000Z</time>
      </trkpt>
      <trkpt lat="41.239622" lon="1.480273">
        <ele>248.2</ele>
        <time>1970-01-01T00:43:01.000Z</time>
      </trkpt>
      <trkpt lat="41.239651" lon="1.480244">
        <ele>248.6</ele>
        <time>1970-01-01T00:43:02.000Z</time>
      </trkpt>
      <trkpt lat="41.239692" lon="1.480212">
        <ele>249.6</ele>
        <time>1970-01-01T00:43:03.000Z</time>
      </trkpt>
      <trkpt lat="41.239721" lon="1.480176">
        <ele>250.7</ele>
        <time>1970-01-01T00:43:04.000Z</time>
      </trkpt>
      <trkpt lat="41.239744" lon="1.48015">
        <ele>251.7</ele>
        <time>1970-01-01T00:43:05.000Z</time>
      </trkpt>
      <trkpt lat="41.239773" lon="1.480126">
        <ele>252.1</ele>
        <time>1970-01-01T00:43:06.000Z</time>
      </trkpt>
      <trkpt lat="41.239806" lon="1.480108">
        <ele>252.5</ele>
        <time>1970-01-01T00:43:07.000Z</time>
      </trkpt>
      <trkpt lat="41.239851" lon="1.480115">
        <ele>252.8</ele>
        <time>1970-01-01T00:43:08.000Z</time>
      </trkpt>
      <trkpt lat="41.239883" lon="1.48014">
        <ele>253.2</ele>
        <time>1970-01-01T00:43:09.000Z</time>
      </trkpt>
      <trkpt lat="41.23991" lon="1.480169">
        <ele>253</ele>
        <time>1970-01-01T00:43:10.000Z</time>
      </trkpt>
      <trkpt lat="41.239942" lon="1.480204">
        <ele>252.8</ele>
        <time>1970-01-01T00:43:11.000Z</time>
      </trkpt>
      <trkpt lat="41.239967" lon="1.480233">
        <ele>253.3</ele>
        <time>1970-01-01T00:43:12.000Z</time>
      </trkpt>
      <trkpt lat="41.239991" lon="1.480262">
        <ele>252.9</ele>
        <time>1970-01-01T00:43:13.000Z</time>
      </trkpt>
      <trkpt lat="41.240023" lon="1.480293">
        <ele>252.9</ele>
        <time>1970-01-01T00:43:14.000Z</time>
      </trkpt>
      <trkpt lat="41.240055" lon="1.48032">
        <ele>253.5</ele>
        <time>1970-01-01T00:43:15.000Z</time>
      </trkpt>
      <trkpt lat="41.240091" lon="1.480329">
        <ele>253.5</ele>
        <time>1970-01-01T00:43:16.000Z</time>
      </trkpt>
      <trkpt lat="41.240132" lon="1.480328">
        <ele>254.3</ele>
        <time>1970-01-01T00:43:18.000Z</time>
      </trkpt>
      <trkpt lat="41.240152" lon="1.480301">
        <ele>254.9</ele>
        <time>1970-01-01T00:43:19.000Z</time>
      </trkpt>
      <trkpt lat="41.240177" lon="1.480255">
        <ele>255.8</ele>
        <time>1970-01-01T00:43:21.000Z</time>
      </trkpt>
      <trkpt lat="41.240182" lon="1.480215">
        <ele>256.3</ele>
        <time>1970-01-01T00:43:22.000Z</time>
      </trkpt>
      <trkpt lat="41.240194" lon="1.480178">
        <ele>257.3</ele>
        <time>1970-01-01T00:43:23.000Z</time>
      </trkpt>
      <trkpt lat="41.240204" lon="1.480142">
        <ele>257.9</ele>
        <time>1970-01-01T00:43:24.000Z</time>
      </trkpt>
      <trkpt lat="41.240213" lon="1.480083">
        <ele>258.5</ele>
        <time>1970-01-01T00:43:26.000Z</time>
      </trkpt>
      <trkpt lat="41.240217" lon="1.480035">
        <ele>259.1</ele>
        <time>1970-01-01T00:43:28.000Z</time>
      </trkpt>
      <trkpt lat="41.240231" lon="1.479996">
        <ele>260.1</ele>
        <time>1970-01-01T00:43:30.000Z</time>
      </trkpt>
      <trkpt lat="41.240254" lon="1.479942">
        <ele>260.7</ele>
        <time>1970-01-01T00:43:32.000Z</time>
      </trkpt>
      <trkpt lat="41.240275" lon="1.479899">
        <ele>261.8</ele>
        <time>1970-01-01T00:43:34.000Z</time>
      </trkpt>
      <trkpt lat="41.24029" lon="1.479842">
        <ele>263.4</ele>
        <time>1970-01-01T00:43:36.000Z</time>
      </trkpt>
      <trkpt lat="41.240284" lon="1.479797">
        <ele>263.6</ele>
        <time>1970-01-01T00:43:38.000Z</time>
      </trkpt>
      <trkpt lat="41.240259" lon="1.479767">
        <ele>263.7</ele>
        <time>1970-01-01T00:43:40.000Z</time>
      </trkpt>
      <trkpt lat="41.240239" lon="1.479736">
        <ele>263.9</ele>
        <time>1970-01-01T00:43:42.000Z</time>
      </trkpt>
      <trkpt lat="41.24026" lon="1.479693">
        <ele>265</ele>
        <time>1970-01-01T00:43:45.000Z</time>
      </trkpt>
      <trkpt lat="41.24029" lon="1.479717">
        <ele>265.5</ele>
        <time>1970-01-01T00:43:48.000Z</time>
      </trkpt>
      <trkpt lat="41.240307" lon="1.479765">
        <ele>264.4</ele>
        <time>1970-01-01T00:43:50.000Z</time>
      </trkpt>
      <trkpt lat="41.240311" lon="1.479811">
        <ele>264</ele>
        <time>1970-01-01T00:43:52.000Z</time>
      </trkpt>
      <trkpt lat="41.240325" lon="1.479861">
        <ele>263.9</ele>
        <time>1970-01-01T00:43:54.000Z</time>
      </trkpt>
      <trkpt lat="41.240339" lon="1.479916">
        <ele>263.5</ele>
        <time>1970-01-01T00:43:56.000Z</time>
      </trkpt>
      <trkpt lat="41.240371" lon="1.479951">
        <ele>263.5</ele>
        <time>1970-01-01T00:43:58.000Z</time>
      </trkpt>
      <trkpt lat="41.240392" lon="1.479993">
        <ele>263.4</ele>
        <time>1970-01-01T00:44:00.000Z</time>
      </trkpt>
      <trkpt lat="41.240416" lon="1.480045">
        <ele>263</ele>
        <time>1970-01-01T00:44:02.000Z</time>
      </trkpt>
      <trkpt lat="41.240452" lon="1.480101">
        <ele>263.3</ele>
        <time>1970-01-01T00:44:04.000Z</time>
      </trkpt>
      <trkpt lat="41.240458" lon="1.480143">
        <ele>262.9</ele>
        <time>1970-01-01T00:44:05.000Z</time>
      </trkpt>
      <trkpt lat="41.24045" lon="1.480187">
        <ele>262.4</ele>
        <time>1970-01-01T00:44:06.000Z</time>
      </trkpt>
      <trkpt lat="41.240456" lon="1.48023">
        <ele>261.9</ele>
        <time>1970-01-01T00:44:07.000Z</time>
      </trkpt>
      <trkpt lat="41.24048" lon="1.480287">
        <ele>260.9</ele>
        <time>1970-01-01T00:44:09.000Z</time>
      </trkpt>
      <trkpt lat="41.240511" lon="1.480327">
        <ele>260.9</ele>
        <time>1970-01-01T00:44:11.000Z</time>
      </trkpt>
      <trkpt lat="41.24054" lon="1.480363">
        <ele>261.4</ele>
        <time>1970-01-01T00:44:13.000Z</time>
      </trkpt>
      <trkpt lat="41.240557" lon="1.480404">
        <ele>261.3</ele>
        <time>1970-01-01T00:44:16.000Z</time>
      </trkpt>
      <trkpt lat="41.240526" lon="1.480392">
        <ele>261</ele>
        <time>1970-01-01T00:44:21.000Z</time>
      </trkpt>
      <trkpt lat="41.240505" lon="1.480363">
        <ele>261.2</ele>
        <time>1970-01-01T00:44:23.000Z</time>
      </trkpt>
      <trkpt lat="41.240484" lon="1.4803">
        <ele>261.8</ele>
        <time>1970-01-01T00:44:25.000Z</time>
      </trkpt>
      <trkpt lat="41.240469" lon="1.48027">
        <ele>262</ele>
        <time>1970-01-01T00:44:26.000Z</time>
      </trkpt>
      <trkpt lat="41.240458" lon="1.480227">
        <ele>262.7</ele>
        <time>1970-01-01T00:44:27.000Z</time>
      </trkpt>
      <trkpt lat="41.240446" lon="1.480177">
        <ele>262.9</ele>
        <time>1970-01-01T00:44:28.000Z</time>
      </trkpt>
      <trkpt lat="41.240438" lon="1.480136">
        <ele>263.6</ele>
        <time>1970-01-01T00:44:29.000Z</time>
      </trkpt>
      <trkpt lat="41.24044" lon="1.480069">
        <ele>264.2</ele>
        <time>1970-01-01T00:44:31.000Z</time>
      </trkpt>
      <trkpt lat="41.240439" lon="1.480023">
        <ele>264.8</ele>
        <time>1970-01-01T00:44:32.000Z</time>
      </trkpt>
      <trkpt lat="41.240426" lon="1.479974">
        <ele>265.9</ele>
        <time>1970-01-01T00:44:33.000Z</time>
      </trkpt>
      <trkpt lat="41.2404" lon="1.479942">
        <ele>265.6</ele>
        <time>1970-01-01T00:44:34.000Z</time>
      </trkpt>
      <trkpt lat="41.240379" lon="1.479903">
        <ele>265.8</ele>
        <time>1970-01-01T00:44:35.000Z</time>
      </trkpt>
      <trkpt lat="41.24036" lon="1.479865">
        <ele>266.4</ele>
        <time>1970-01-01T00:44:36.000Z</time>
      </trkpt>
      <trkpt lat="41.240349" lon="1.479826">
        <ele>266.6</ele>
        <time>1970-01-01T00:44:37.000Z</time>
      </trkpt>
      <trkpt lat="41.240329" lon="1.479784">
        <ele>267.3</ele>
        <time>1970-01-01T00:44:38.000Z</time>
      </trkpt>
      <trkpt lat="41.240319" lon="1.479746">
        <ele>267.5</ele>
        <time>1970-01-01T00:44:39.000Z</time>
      </trkpt>
      <trkpt lat="41.24029" lon="1.479689">
        <ele>268.2</ele>
        <time>1970-01-01T00:44:41.000Z</time>
      </trkpt>
      <trkpt lat="41.240269" lon="1.47966">
        <ele>268.5</ele>
        <time>1970-01-01T00:44:43.000Z</time>
      </trkpt>
      <trkpt lat="41.240241" lon="1.479676">
        <ele>268.1</ele>
        <time>1970-01-01T00:44:45.000Z</time>
      </trkpt>
      <trkpt lat="41.240232" lon="1.479733">
        <ele>267</ele>
        <time>1970-01-01T00:44:47.000Z</time>
      </trkpt>
      <trkpt lat="41.240253" lon="1.479801">
        <ele>266.5</ele>
        <time>1970-01-01T00:44:49.000Z</time>
      </trkpt>
      <trkpt lat="41.240264" lon="1.479838">
        <ele>266.4</ele>
        <time>1970-01-01T00:44:50.000Z</time>
      </trkpt>
      <trkpt lat="41.240261" lon="1.479876">
        <ele>266</ele>
        <time>1970-01-01T00:44:51.000Z</time>
      </trkpt>
      <trkpt lat="41.240235" lon="1.479918">
        <ele>265.1</ele>
        <time>1970-01-01T00:44:52.000Z</time>
      </trkpt>
      <trkpt lat="41.240201" lon="1.479973">
        <ele>264.2</ele>
        <time>1970-01-01T00:44:53.000Z</time>
      </trkpt>
      <trkpt lat="41.240179" lon="1.480026">
        <ele>262.8</ele>
        <time>1970-01-01T00:44:54.000Z</time>
      </trkpt>
      <trkpt lat="41.24017" lon="1.480087">
        <ele>262.4</ele>
        <time>1970-01-01T00:44:55.000Z</time>
      </trkpt>
      <trkpt lat="41.240161" lon="1.48015">
        <ele>262</ele>
        <time>1970-01-01T00:44:56.000Z</time>
      </trkpt>
      <trkpt lat="41.240141" lon="1.480211">
        <ele>260.7</ele>
        <time>1970-01-01T00:44:57.000Z</time>
      </trkpt>
      <trkpt lat="41.240126" lon="1.480253">
        <ele>260.3</ele>
        <time>1970-01-01T00:44:58.000Z</time>
      </trkpt>
      <trkpt lat="41.240087" lon="1.480298">
        <ele>259.2</ele>
        <time>1970-01-01T00:45:00.000Z</time>
      </trkpt>
      <trkpt lat="41.240056" lon="1.480331">
        <ele>258.4</ele>
        <time>1970-01-01T00:45:02.000Z</time>
      </trkpt>
      <trkpt lat="41.240026" lon="1.480344">
        <ele>258.1</ele>
        <time>1970-01-01T00:45:04.000Z</time>
      </trkpt>
      <trkpt lat="41.239993" lon="1.480299">
        <ele>258.2</ele>
        <time>1970-01-01T00:45:06.000Z</time>
      </trkpt>
      <trkpt lat="41.239956" lon="1.480258">
        <ele>258.3</ele>
        <time>1970-01-01T00:45:07.000Z</time>
      </trkpt>
      <trkpt lat="41.239921" lon="1.480236">
        <ele>258.6</ele>
        <time>1970-01-01T00:45:08.000Z</time>
      </trkpt>
      <trkpt lat="41.239888" lon="1.480207">
        <ele>258.4</ele>
        <time>1970-01-01T00:45:09.000Z</time>
      </trkpt>
      <trkpt lat="41.23986" lon="1.480171">
        <ele>258.8</ele>
        <time>1970-01-01T00:45:10.000Z</time>
      </trkpt>
      <trkpt lat="41.239822" lon="1.480145">
        <ele>259.2</ele>
        <time>1970-01-01T00:45:11.000Z</time>
      </trkpt>
      <trkpt lat="41.239784" lon="1.480128">
        <ele>259</ele>
        <time>1970-01-01T00:45:12.000Z</time>
      </trkpt>
      <trkpt lat="41.23975" lon="1.480147">
        <ele>258.8</ele>
        <time>1970-01-01T00:45:13.000Z</time>
      </trkpt>
      <trkpt lat="41.239724" lon="1.480198">
        <ele>257.2</ele>
        <time>1970-01-01T00:45:14.000Z</time>
      </trkpt>
      <trkpt lat="41.239689" lon="1.48024">
        <ele>256.3</ele>
        <time>1970-01-01T00:45:15.000Z</time>
      </trkpt>
      <trkpt lat="41.239653" lon="1.48028">
        <ele>255.5</ele>
        <time>1970-01-01T00:45:16.000Z</time>
      </trkpt>
      <trkpt lat="41.239621" lon="1.480312">
        <ele>255.2</ele>
        <time>1970-01-01T00:45:17.000Z</time>
      </trkpt>
      <trkpt lat="41.239587" lon="1.480348">
        <ele>254.4</ele>
        <time>1970-01-01T00:45:18.000Z</time>
      </trkpt>
      <trkpt lat="41.239543" lon="1.480373">
        <ele>253.2</ele>
        <time>1970-01-01T00:45:19.000Z</time>
      </trkpt>
      <trkpt lat="41.23949" lon="1.480384">
        <ele>252.9</ele>
        <time>1970-01-01T00:45:20.000Z</time>
      </trkpt>
      <trkpt lat="41.239436" lon="1.480402">
        <ele>252.1</ele>
        <time>1970-01-01T00:45:21.000Z</time>
      </trkpt>
      <trkpt lat="41.239381" lon="1.48041">
        <ele>250.9</ele>
        <time>1970-01-01T00:45:22.000Z</time>
      </trkpt>
      <trkpt lat="41.239336" lon="1.480431">
        <ele>250.6</ele>
        <time>1970-01-01T00:45:23.000Z</time>
      </trkpt>
      <trkpt lat="41.239286" lon="1.480453">
        <ele>249.4</ele>
        <time>1970-01-01T00:45:24.000Z</time>
      </trkpt>
      <trkpt lat="41.23924" lon="1.480484">
        <ele>249.1</ele>
        <time>1970-01-01T00:45:25.000Z</time>
      </trkpt>
      <trkpt lat="41.239194" lon="1.480507">
        <ele>248.2</ele>
        <time>1970-01-01T00:45:26.000Z</time>
      </trkpt>
      <trkpt lat="41.239155" lon="1.480532">
        <ele>247.4</ele>
        <time>1970-01-01T00:45:27.000Z</time>
      </trkpt>
      <trkpt lat="41.239117" lon="1.480542">
        <ele>246.5</ele>
        <time>1970-01-01T00:45:28.000Z</time>
      </trkpt>
      <trkpt lat="41.239078" lon="1.480538">
        <ele>246.9</ele>
        <time>1970-01-01T00:45:29.000Z</time>
      </trkpt>
      <trkpt lat="41.239041" lon="1.480522">
        <ele>247.2</ele>
        <time>1970-01-01T00:45:30.000Z</time>
      </trkpt>
      <trkpt lat="41.239031" lon="1.480482">
        <ele>247.5</ele>
        <time>1970-01-01T00:45:31.000Z</time>
      </trkpt>
      <trkpt lat="41.239028" lon="1.480444">
        <ele>247.7</ele>
        <time>1970-01-01T00:45:32.000Z</time>
      </trkpt>
      <trkpt lat="41.23904" lon="1.480408">
        <ele>248</ele>
        <time>1970-01-01T00:45:33.000Z</time>
      </trkpt>
      <trkpt lat="41.239051" lon="1.480373">
        <ele>248.3</ele>
        <time>1970-01-01T00:45:34.000Z</time>
      </trkpt>
      <trkpt lat="41.239058" lon="1.480339">
        <ele>248.5</ele>
        <time>1970-01-01T00:45:35.000Z</time>
      </trkpt>
      <trkpt lat="41.23907" lon="1.480302">
        <ele>248.8</ele>
        <time>1970-01-01T00:45:36.000Z</time>
      </trkpt>
      <trkpt lat="41.23908" lon="1.480263">
        <ele>249</ele>
        <time>1970-01-01T00:45:37.000Z</time>
      </trkpt>
      <trkpt lat="41.239095" lon="1.480225">
        <ele>249.2</ele>
        <time>1970-01-01T00:45:38.000Z</time>
      </trkpt>
      <trkpt lat="41.239123" lon="1.480194">
        <ele>249.5</ele>
        <time>1970-01-01T00:45:39.000Z</time>
      </trkpt>
      <trkpt lat="41.23915" lon="1.480172">
        <ele>249.8</ele>
        <time>1970-01-01T00:45:40.000Z</time>
      </trkpt>
      <trkpt lat="41.239171" lon="1.480147">
        <ele>250</ele>
        <time>1970-01-01T00:45:41.000Z</time>
      </trkpt>
      <trkpt lat="41.239196" lon="1.480122">
        <ele>250.3</ele>
        <time>1970-01-01T00:45:42.000Z</time>
      </trkpt>
      <trkpt lat="41.239228" lon="1.480097">
        <ele>250.6</ele>
        <time>1970-01-01T00:45:43.000Z</time>
      </trkpt>
      <trkpt lat="41.239251" lon="1.480072">
        <ele>250.8</ele>
        <time>1970-01-01T00:45:44.000Z</time>
      </trkpt>
      <trkpt lat="41.239273" lon="1.480049">
        <ele>251</ele>
        <time>1970-01-01T00:45:45.000Z</time>
      </trkpt>
      <trkpt lat="41.239303" lon="1.480036">
        <ele>251.2</ele>
        <time>1970-01-01T00:45:46.000Z</time>
      </trkpt>
      <trkpt lat="41.23933" lon="1.480023">
        <ele>251.4</ele>
        <time>1970-01-01T00:45:47.000Z</time>
      </trkpt>
      <trkpt lat="41.239365" lon="1.480013">
        <ele>251.6</ele>
        <time>1970-01-01T00:45:48.000Z</time>
      </trkpt>
      <trkpt lat="41.239398" lon="1.480015">
        <ele>251.8</ele>
        <time>1970-01-01T00:45:49.000Z</time>
      </trkpt>
      <trkpt lat="41.239425" lon="1.480022">
        <ele>252</ele>
        <time>1970-01-01T00:45:50.000Z</time>
      </trkpt>
      <trkpt lat="41.239466" lon="1.480003">
        <ele>252.3</ele>
        <time>1970-01-01T00:45:52.000Z</time>
      </trkpt>
      <trkpt lat="41.23949" lon="1.479967">
        <ele>252.6</ele>
        <time>1970-01-01T00:45:54.000Z</time>
      </trkpt>
      <trkpt lat="41.239502" lon="1.479919">
        <ele>252.8</ele>
        <time>1970-01-01T00:45:56.000Z</time>
      </trkpt>
      <trkpt lat="41.239506" lon="1.479855">
        <ele>253.2</ele>
        <time>1970-01-01T00:45:58.000Z</time>
      </trkpt>
      <trkpt lat="41.239527" lon="1.479802">
        <ele>253.6</ele>
        <time>1970-01-01T00:46:00.000Z</time>
      </trkpt>
      <trkpt lat="41.239536" lon="1.479759">
        <ele>253.9</ele>
        <time>1970-01-01T00:46:02.000Z</time>
      </trkpt>
      <trkpt lat="41.239555" lon="1.479729">
        <ele>254.1</ele>
        <time>1970-01-01T00:46:04.000Z</time>
      </trkpt>
      <trkpt lat="41.239568" lon="1.479683">
        <ele>254.4</ele>
        <time>1970-01-01T00:46:06.000Z</time>
      </trkpt>
      <trkpt lat="41.239589" lon="1.47964">
        <ele>254.8</ele>
        <time>1970-01-01T00:46:08.000Z</time>
      </trkpt>
      <trkpt lat="41.239594" lon="1.479596">
        <ele>255.2</ele>
        <time>1970-01-01T00:46:10.000Z</time>
      </trkpt>
      <trkpt lat="41.239603" lon="1.479551">
        <ele>255.5</ele>
        <time>1970-01-01T00:46:12.000Z</time>
      </trkpt>
      <trkpt lat="41.239631" lon="1.479505">
        <ele>256</ele>
        <time>1970-01-01T00:46:14.000Z</time>
      </trkpt>
      <trkpt lat="41.239663" lon="1.479473">
        <ele>256.5</ele>
        <time>1970-01-01T00:46:16.000Z</time>
      </trkpt>
      <trkpt lat="41.239691" lon="1.479433">
        <ele>256.9</ele>
        <time>1970-01-01T00:46:18.000Z</time>
      </trkpt>
      <trkpt lat="41.239712" lon="1.479398">
        <ele>257.4</ele>
        <time>1970-01-01T00:46:20.000Z</time>
      </trkpt>
      <trkpt lat="41.239748" lon="1.479391">
        <ele>257.8</ele>
        <time>1970-01-01T00:46:22.000Z</time>
      </trkpt>
      <trkpt lat="41.239779" lon="1.479376">
        <ele>258.3</ele>
        <time>1970-01-01T00:46:24.000Z</time>
      </trkpt>
      <trkpt lat="41.239833" lon="1.479359">
        <ele>259</ele>
        <time>1970-01-01T00:46:26.000Z</time>
      </trkpt>
      <trkpt lat="41.239861" lon="1.479343">
        <ele>259.4</ele>
        <time>1970-01-01T00:46:27.000Z</time>
      </trkpt>
      <trkpt lat="41.239888" lon="1.479331">
        <ele>259.7</ele>
        <time>1970-01-01T00:46:28.000Z</time>
      </trkpt>
      <trkpt lat="41.239929" lon="1.479315">
        <ele>260.3</ele>
        <time>1970-01-01T00:46:30.000Z</time>
      </trkpt>
      <trkpt lat="41.23997" lon="1.479305">
        <ele>260.8</ele>
        <time>1970-01-01T00:46:32.000Z</time>
      </trkpt>
      <trkpt lat="41.240009" lon="1.479289">
        <ele>261.3</ele>
        <time>1970-01-01T00:46:34.000Z</time>
      </trkpt>
      <trkpt lat="41.240052" lon="1.479269">
        <ele>261.8</ele>
        <time>1970-01-01T00:46:36.000Z</time>
      </trkpt>
      <trkpt lat="41.240064" lon="1.479232">
        <ele>262.1</ele>
        <time>1970-01-01T00:46:38.000Z</time>
      </trkpt>
      <trkpt lat="41.240089" lon="1.479209">
        <ele>262.4</ele>
        <time>1970-01-01T00:46:40.000Z</time>
      </trkpt>
      <trkpt lat="41.240125" lon="1.47918">
        <ele>262.9</ele>
        <time>1970-01-01T00:46:42.000Z</time>
      </trkpt>
      <trkpt lat="41.240172" lon="1.479157">
        <ele>263.4</ele>
        <time>1970-01-01T00:46:44.000Z</time>
      </trkpt>
      <trkpt lat="41.240194" lon="1.479134">
        <ele>263.7</ele>
        <time>1970-01-01T00:46:45.000Z</time>
      </trkpt>
      <trkpt lat="41.240218" lon="1.479113">
        <ele>264</ele>
        <time>1970-01-01T00:46:46.000Z</time>
      </trkpt>
      <trkpt lat="41.240247" lon="1.479097">
        <ele>264.3</ele>
        <time>1970-01-01T00:46:47.000Z</time>
      </trkpt>
      <trkpt lat="41.240275" lon="1.479089">
        <ele>264.6</ele>
        <time>1970-01-01T00:46:48.000Z</time>
      </trkpt>
      <trkpt lat="41.240317" lon="1.479077">
        <ele>265</ele>
        <time>1970-01-01T00:46:49.000Z</time>
      </trkpt>
      <trkpt lat="41.240349" lon="1.479079">
        <ele>265.3</ele>
        <time>1970-01-01T00:46:50.000Z</time>
      </trkpt>
      <trkpt lat="41.240381" lon="1.479077">
        <ele>265.7</ele>
        <time>1970-01-01T00:46:51.000Z</time>
      </trkpt>
      <trkpt lat="41.240421" lon="1.479085">
        <ele>266</ele>
        <time>1970-01-01T00:46:53.000Z</time>
      </trkpt>
      <trkpt lat="41.240459" lon="1.479098">
        <ele>266.4</ele>
        <time>1970-01-01T00:46:55.000Z</time>
      </trkpt>
      <trkpt lat="41.240502" lon="1.479113">
        <ele>266.9</ele>
        <time>1970-01-01T00:46:57.000Z</time>
      </trkpt>
      <trkpt lat="41.240531" lon="1.479162">
        <ele>267.4</ele>
        <time>1970-01-01T00:46:59.000Z</time>
      </trkpt>
      <trkpt lat="41.240551" lon="1.479191">
        <ele>267.6</ele>
        <time>1970-01-01T00:47:00.000Z</time>
      </trkpt>
      <trkpt lat="41.240577" lon="1.47922">
        <ele>267.9</ele>
        <time>1970-01-01T00:47:01.000Z</time>
      </trkpt>
      <trkpt lat="41.240603" lon="1.479247">
        <ele>268.2</ele>
        <time>1970-01-01T00:47:02.000Z</time>
      </trkpt>
      <trkpt lat="41.240642" lon="1.479286">
        <ele>268.7</ele>
        <time>1970-01-01T00:47:04.000Z</time>
      </trkpt>
      <trkpt lat="41.240664" lon="1.479311">
        <ele>269</ele>
        <time>1970-01-01T00:47:05.000Z</time>
      </trkpt>
      <trkpt lat="41.240693" lon="1.479342">
        <ele>269.3</ele>
        <time>1970-01-01T00:47:07.000Z</time>
      </trkpt>
      <trkpt lat="41.240736" lon="1.479355">
        <ele>269.9</ele>
        <time>1970-01-01T00:47:09.000Z</time>
      </trkpt>
      <trkpt lat="41.240766" lon="1.479369">
        <ele>270.6</ele>
        <time>1970-01-01T00:47:12.000Z</time>
      </trkpt>
      <trkpt lat="41.240785" lon="1.479396">
        <ele>270.8</ele>
        <time>1970-01-01T00:47:14.000Z</time>
      </trkpt>
      <trkpt lat="41.240793" lon="1.479432">
        <ele>270.6</ele>
        <time>1970-01-01T00:47:16.000Z</time>
      </trkpt>
      <trkpt lat="41.240809" lon="1.479461">
        <ele>271.3</ele>
        <time>1970-01-01T00:47:18.000Z</time>
      </trkpt>
      <trkpt lat="41.240824" lon="1.479513">
        <ele>270.6</ele>
        <time>1970-01-01T00:47:20.000Z</time>
      </trkpt>
      <trkpt lat="41.240847" lon="1.479566">
        <ele>270.8</ele>
        <time>1970-01-01T00:47:22.000Z</time>
      </trkpt>
      <trkpt lat="41.240865" lon="1.47961">
        <ele>270.6</ele>
        <time>1970-01-01T00:47:24.000Z</time>
      </trkpt>
      <trkpt lat="41.240905" lon="1.479647">
        <ele>271.1</ele>
        <time>1970-01-01T00:47:26.000Z</time>
      </trkpt>
      <trkpt lat="41.240916" lon="1.479681">
        <ele>270.8</ele>
        <time>1970-01-01T00:47:28.000Z</time>
      </trkpt>
      <trkpt lat="41.240933" lon="1.47973">
        <ele>271</ele>
        <time>1970-01-01T00:47:30.000Z</time>
      </trkpt>
      <trkpt lat="41.240956" lon="1.479758">
        <ele>271.3</ele>
        <time>1970-01-01T00:47:31.000Z</time>
      </trkpt>
      <trkpt lat="41.240983" lon="1.479767">
        <ele>271.4</ele>
        <time>1970-01-01T00:47:33.000Z</time>
      </trkpt>
      <trkpt lat="41.241025" lon="1.479795">
        <ele>272</ele>
        <time>1970-01-01T00:47:35.000Z</time>
      </trkpt>
      <trkpt lat="41.241051" lon="1.479817">
        <ele>272.1</ele>
        <time>1970-01-01T00:47:36.000Z</time>
      </trkpt>
      <trkpt lat="41.24108" lon="1.479833">
        <ele>272.8</ele>
        <time>1970-01-01T00:47:37.000Z</time>
      </trkpt>
      <trkpt lat="41.241116" lon="1.479858">
        <ele>272.9</ele>
        <time>1970-01-01T00:47:38.000Z</time>
      </trkpt>
      <trkpt lat="41.241137" lon="1.479886">
        <ele>273.5</ele>
        <time>1970-01-01T00:47:39.000Z</time>
      </trkpt>
      <trkpt lat="41.241175" lon="1.47991">
        <ele>273.6</ele>
        <time>1970-01-01T00:47:41.000Z</time>
      </trkpt>
      <trkpt lat="41.241213" lon="1.479915">
        <ele>274.2</ele>
        <time>1970-01-01T00:47:43.000Z</time>
      </trkpt>
      <trkpt lat="41.241255" lon="1.479926">
        <ele>274.8</ele>
        <time>1970-01-01T00:47:45.000Z</time>
      </trkpt>
      <trkpt lat="41.241299" lon="1.479952">
        <ele>275</ele>
        <time>1970-01-01T00:47:47.000Z</time>
      </trkpt>
      <trkpt lat="41.241344" lon="1.479983">
        <ele>275</ele>
        <time>1970-01-01T00:47:49.000Z</time>
      </trkpt>
      <trkpt lat="41.241381" lon="1.480023">
        <ele>274.9</ele>
        <time>1970-01-01T00:47:51.000Z</time>
      </trkpt>
      <trkpt lat="41.241406" lon="1.48004">
        <ele>275.4</ele>
        <time>1970-01-01T00:47:53.000Z</time>
      </trkpt>
      <trkpt lat="41.241438" lon="1.480066">
        <ele>275.3</ele>
        <time>1970-01-01T00:47:55.000Z</time>
      </trkpt>
      <trkpt lat="41.241465" lon="1.480087">
        <ele>275.8</ele>
        <time>1970-01-01T00:47:58.000Z</time>
      </trkpt>
      <trkpt lat="41.241492" lon="1.480096">
        <ele>276.3</ele>
        <time>1970-01-01T00:48:21.000Z</time>
      </trkpt>
      <trkpt lat="41.24152" lon="1.480096">
        <ele>276.7</ele>
        <time>1970-01-01T00:48:22.000Z</time>
      </trkpt>
      <trkpt lat="41.241573" lon="1.480091">
        <ele>277.2</ele>
        <time>1970-01-01T00:48:24.000Z</time>
      </trkpt>
      <trkpt lat="41.241617" lon="1.48007">
        <ele>277.7</ele>
        <time>1970-01-01T00:48:26.000Z</time>
      </trkpt>
      <trkpt lat="41.241674" lon="1.48007">
        <ele>278.1</ele>
        <time>1970-01-01T00:48:28.000Z</time>
      </trkpt>
      <trkpt lat="41.241712" lon="1.480098">
        <ele>278.6</ele>
        <time>1970-01-01T00:48:29.000Z</time>
      </trkpt>
      <trkpt lat="41.241737" lon="1.480116">
        <ele>278.2</ele>
        <time>1970-01-01T00:48:30.000Z</time>
      </trkpt>
      <trkpt lat="41.241777" lon="1.480144">
        <ele>278.6</ele>
        <time>1970-01-01T00:48:32.000Z</time>
      </trkpt>
      <trkpt lat="41.241825" lon="1.480179">
        <ele>278.3</ele>
        <time>1970-01-01T00:48:34.000Z</time>
      </trkpt>
      <trkpt lat="41.241853" lon="1.480192">
        <ele>278.6</ele>
        <time>1970-01-01T00:48:35.000Z</time>
      </trkpt>
      <trkpt lat="41.241903" lon="1.480198">
        <ele>278.2</ele>
        <time>1970-01-01T00:48:37.000Z</time>
      </trkpt>
      <trkpt lat="41.241931" lon="1.480208">
        <ele>278.5</ele>
        <time>1970-01-01T00:48:38.000Z</time>
      </trkpt>
      <trkpt lat="41.241968" lon="1.480188">
        <ele>279.4</ele>
        <time>1970-01-01T00:48:40.000Z</time>
      </trkpt>
      <trkpt lat="41.242021" lon="1.480154">
        <ele>279.7</ele>
        <time>1970-01-01T00:48:42.000Z</time>
      </trkpt>
      <trkpt lat="41.242042" lon="1.48013">
        <ele>280.6</ele>
        <time>1970-01-01T00:48:43.000Z</time>
      </trkpt>
      <trkpt lat="41.24207" lon="1.480111">
        <ele>280.9</ele>
        <time>1970-01-01T00:48:44.000Z</time>
      </trkpt>
      <trkpt lat="41.242105" lon="1.480092">
        <ele>281.8</ele>
        <time>1970-01-01T00:48:45.000Z</time>
      </trkpt>
      <trkpt lat="41.24214" lon="1.480079">
        <ele>282</ele>
        <time>1970-01-01T00:48:46.000Z</time>
      </trkpt>
      <trkpt lat="41.242174" lon="1.480044">
        <ele>282.8</ele>
        <time>1970-01-01T00:48:47.000Z</time>
      </trkpt>
      <trkpt lat="41.24221" lon="1.480015">
        <ele>283.6</ele>
        <time>1970-01-01T00:48:48.000Z</time>
      </trkpt>
      <trkpt lat="41.242247" lon="1.479987">
        <ele>283.8</ele>
        <time>1970-01-01T00:48:49.000Z</time>
      </trkpt>
      <trkpt lat="41.242285" lon="1.479984">
        <ele>283.9</ele>
        <time>1970-01-01T00:48:50.000Z</time>
      </trkpt>
      <trkpt lat="41.242318" lon="1.479974">
        <ele>284.6</ele>
        <time>1970-01-01T00:48:51.000Z</time>
      </trkpt>
      <trkpt lat="41.24237" lon="1.479957">
        <ele>284.6</ele>
        <time>1970-01-01T00:48:53.000Z</time>
      </trkpt>
      <trkpt lat="41.242411" lon="1.479957">
        <ele>284.6</ele>
        <time>1970-01-01T00:48:54.000Z</time>
      </trkpt>
      <trkpt lat="41.24245" lon="1.479959">
        <ele>284.4</ele>
        <time>1970-01-01T00:48:55.000Z</time>
      </trkpt>
      <trkpt lat="41.242483" lon="1.479964">
        <ele>284.5</ele>
        <time>1970-01-01T00:48:56.000Z</time>
      </trkpt>
      <trkpt lat="41.242519" lon="1.479972">
        <ele>284.5</ele>
        <time>1970-01-01T00:48:57.000Z</time>
      </trkpt>
      <trkpt lat="41.242563" lon="1.47997">
        <ele>284.5</ele>
        <time>1970-01-01T00:48:59.000Z</time>
      </trkpt>
      <trkpt lat="41.242571" lon="1.479925">
        <ele>285.4</ele>
        <time>1970-01-01T00:49:01.000Z</time>
      </trkpt>
      <trkpt lat="41.24258" lon="1.479882">
        <ele>286</ele>
        <time>1970-01-01T00:49:03.000Z</time>
      </trkpt>
      <trkpt lat="41.242556" lon="1.479831">
        <ele>287.2</ele>
        <time>1970-01-01T00:49:05.000Z</time>
      </trkpt>
      <trkpt lat="41.242533" lon="1.4798">
        <ele>288.4</ele>
        <time>1970-01-01T00:49:07.000Z</time>
      </trkpt>
      <trkpt lat="41.242515" lon="1.479764">
        <ele>288.7</ele>
        <time>1970-01-01T00:49:08.000Z</time>
      </trkpt>
      <trkpt lat="41.242497" lon="1.479722">
        <ele>289.1</ele>
        <time>1970-01-01T00:49:10.000Z</time>
      </trkpt>
      <trkpt lat="41.242482" lon="1.479663">
        <ele>289.5</ele>
        <time>1970-01-01T00:49:12.000Z</time>
      </trkpt>
      <trkpt lat="41.242475" lon="1.479598">
        <ele>289.9</ele>
        <time>1970-01-01T00:49:14.000Z</time>
      </trkpt>
      <trkpt lat="41.242477" lon="1.479543">
        <ele>290.3</ele>
        <time>1970-01-01T00:49:16.000Z</time>
      </trkpt>
      <trkpt lat="41.242479" lon="1.479489">
        <ele>290.6</ele>
        <time>1970-01-01T00:49:18.000Z</time>
      </trkpt>
      <trkpt lat="41.242476" lon="1.479432">
        <ele>290.9</ele>
        <time>1970-01-01T00:49:20.000Z</time>
      </trkpt>
      <trkpt lat="41.242488" lon="1.479329">
        <ele>291.4</ele>
        <time>1970-01-01T00:49:22.000Z</time>
      </trkpt>
      <trkpt lat="41.242495" lon="1.479275">
        <ele>291.7</ele>
        <time>1970-01-01T00:49:23.000Z</time>
      </trkpt>
      <trkpt lat="41.242491" lon="1.479215">
        <ele>292</ele>
        <time>1970-01-01T00:49:24.000Z</time>
      </trkpt>
      <trkpt lat="41.24249" lon="1.479173">
        <ele>292.2</ele>
        <time>1970-01-01T00:49:25.000Z</time>
      </trkpt>
      <trkpt lat="41.242447" lon="1.47916">
        <ele>292.5</ele>
        <time>1970-01-01T00:49:27.000Z</time>
      </trkpt>
      <trkpt lat="41.242391" lon="1.47916">
        <ele>292.9</ele>
        <time>1970-01-01T00:49:29.000Z</time>
      </trkpt>
      <trkpt lat="41.242359" lon="1.479155">
        <ele>293.2</ele>
        <time>1970-01-01T00:49:30.000Z</time>
      </trkpt>
      <trkpt lat="41.242329" lon="1.479158">
        <ele>293.4</ele>
        <time>1970-01-01T00:49:31.000Z</time>
      </trkpt>
      <trkpt lat="41.24228" lon="1.479153">
        <ele>293.8</ele>
        <time>1970-01-01T00:49:33.000Z</time>
      </trkpt>
      <trkpt lat="41.242237" lon="1.479139">
        <ele>294.4</ele>
        <time>1970-01-01T00:49:35.000Z</time>
      </trkpt>
      <trkpt lat="41.242215" lon="1.479104">
        <ele>294.8</ele>
        <time>1970-01-01T00:49:37.000Z</time>
      </trkpt>
      <trkpt lat="41.242186" lon="1.47911">
        <ele>295.1</ele>
        <time>1970-01-01T00:49:40.000Z</time>
      </trkpt>
      <trkpt lat="41.242154" lon="1.479079">
        <ele>295.4</ele>
        <time>1970-01-01T00:49:42.000Z</time>
      </trkpt>
      <trkpt lat="41.242123" lon="1.479057">
        <ele>295.7</ele>
        <time>1970-01-01T00:49:43.000Z</time>
      </trkpt>
      <trkpt lat="41.242089" lon="1.479024">
        <ele>296.1</ele>
        <time>1970-01-01T00:49:45.000Z</time>
      </trkpt>
      <trkpt lat="41.242058" lon="1.478977">
        <ele>296.5</ele>
        <time>1970-01-01T00:49:47.000Z</time>
      </trkpt>
      <trkpt lat="41.242045" lon="1.478936">
        <ele>296.8</ele>
        <time>1970-01-01T00:49:49.000Z</time>
      </trkpt>
      <trkpt lat="41.242055" lon="1.478893">
        <ele>297.1</ele>
        <time>1970-01-01T00:49:51.000Z</time>
      </trkpt>
      <trkpt lat="41.242075" lon="1.47885">
        <ele>297.4</ele>
        <time>1970-01-01T00:49:53.000Z</time>
      </trkpt>
      <trkpt lat="41.2421" lon="1.478799">
        <ele>297.8</ele>
        <time>1970-01-01T00:49:55.000Z</time>
      </trkpt>
      <trkpt lat="41.242109" lon="1.478765">
        <ele>298</ele>
        <time>1970-01-01T00:49:56.000Z</time>
      </trkpt>
      <trkpt lat="41.242115" lon="1.478728">
        <ele>298.2</ele>
        <time>1970-01-01T00:49:57.000Z</time>
      </trkpt>
      <trkpt lat="41.242108" lon="1.478668">
        <ele>298.6</ele>
        <time>1970-01-01T00:49:59.000Z</time>
      </trkpt>
      <trkpt lat="41.242079" lon="1.478609">
        <ele>299.1</ele>
        <time>1970-01-01T00:50:01.000Z</time>
      </trkpt>
      <trkpt lat="41.242037" lon="1.47857">
        <ele>299.5</ele>
        <time>1970-01-01T00:50:03.000Z</time>
      </trkpt>
      <trkpt lat="41.241992" lon="1.478538">
        <ele>299.9</ele>
        <time>1970-01-01T00:50:05.000Z</time>
      </trkpt>
      <trkpt lat="41.241959" lon="1.478523">
        <ele>300.1</ele>
        <time>1970-01-01T00:50:06.000Z</time>
      </trkpt>
      <trkpt lat="41.241932" lon="1.478492">
        <ele>300.3</ele>
        <time>1970-01-01T00:50:07.000Z</time>
      </trkpt>
      <trkpt lat="41.241905" lon="1.47848">
        <ele>300.4</ele>
        <time>1970-01-01T00:50:08.000Z</time>
      </trkpt>
      <trkpt lat="41.241878" lon="1.47846">
        <ele>300.6</ele>
        <time>1970-01-01T00:50:09.000Z</time>
      </trkpt>
      <trkpt lat="41.241853" lon="1.478437">
        <ele>300.7</ele>
        <time>1970-01-01T00:50:10.000Z</time>
      </trkpt>
      <trkpt lat="41.241829" lon="1.478414">
        <ele>300.9</ele>
        <time>1970-01-01T00:50:11.000Z</time>
      </trkpt>
      <trkpt lat="41.24181" lon="1.478387">
        <ele>301</ele>
        <time>1970-01-01T00:50:12.000Z</time>
      </trkpt>
      <trkpt lat="41.241774" lon="1.478339">
        <ele>301.3</ele>
        <time>1970-01-01T00:50:14.000Z</time>
      </trkpt>
      <trkpt lat="41.241743" lon="1.478328">
        <ele>301.7</ele>
        <time>1970-01-01T00:50:15.000Z</time>
      </trkpt>
      <trkpt lat="41.241723" lon="1.478303">
        <ele>302</ele>
        <time>1970-01-01T00:50:16.000Z</time>
      </trkpt>
      <trkpt lat="41.241681" lon="1.478261">
        <ele>302.5</ele>
        <time>1970-01-01T00:50:18.000Z</time>
      </trkpt>
      <trkpt lat="41.241655" lon="1.478242">
        <ele>302.9</ele>
        <time>1970-01-01T00:50:19.000Z</time>
      </trkpt>
      <trkpt lat="41.241613" lon="1.478203">
        <ele>303.5</ele>
        <time>1970-01-01T00:50:21.000Z</time>
      </trkpt>
      <trkpt lat="41.241575" lon="1.478161">
        <ele>303.9</ele>
        <time>1970-01-01T00:50:23.000Z</time>
      </trkpt>
      <trkpt lat="41.241553" lon="1.478135">
        <ele>304.1</ele>
        <time>1970-01-01T00:50:24.000Z</time>
      </trkpt>
      <trkpt lat="41.241512" lon="1.478087">
        <ele>304.6</ele>
        <time>1970-01-01T00:50:26.000Z</time>
      </trkpt>
      <trkpt lat="41.241485" lon="1.478072">
        <ele>304.8</ele>
        <time>1970-01-01T00:50:27.000Z</time>
      </trkpt>
      <trkpt lat="41.241443" lon="1.478035">
        <ele>305.3</ele>
        <time>1970-01-01T00:50:29.000Z</time>
      </trkpt>
      <trkpt lat="41.241397" lon="1.478009">
        <ele>305.8</ele>
        <time>1970-01-01T00:50:31.000Z</time>
      </trkpt>
      <trkpt lat="41.241363" lon="1.477981">
        <ele>306.1</ele>
        <time>1970-01-01T00:50:33.000Z</time>
      </trkpt>
      <trkpt lat="41.24133" lon="1.47794">
        <ele>306.3</ele>
        <time>1970-01-01T00:50:35.000Z</time>
      </trkpt>
      <trkpt lat="41.241289" lon="1.477903">
        <ele>306.6</ele>
        <time>1970-01-01T00:50:37.000Z</time>
      </trkpt>
      <trkpt lat="41.241259" lon="1.477872">
        <ele>306.8</ele>
        <time>1970-01-01T00:50:39.000Z</time>
      </trkpt>
      <trkpt lat="41.24123" lon="1.477834">
        <ele>307</ele>
        <time>1970-01-01T00:50:41.000Z</time>
      </trkpt>
      <trkpt lat="41.241193" lon="1.477799">
        <ele>307.4</ele>
        <time>1970-01-01T00:50:43.000Z</time>
      </trkpt>
      <trkpt lat="41.241167" lon="1.477778">
        <ele>307.5</ele>
        <time>1970-01-01T00:50:44.000Z</time>
      </trkpt>
      <trkpt lat="41.241132" lon="1.477742">
        <ele>307.8</ele>
        <time>1970-01-01T00:50:46.000Z</time>
      </trkpt>
      <trkpt lat="41.241096" lon="1.477694">
        <ele>308.1</ele>
        <time>1970-01-01T00:50:48.000Z</time>
      </trkpt>
      <trkpt lat="41.241053" lon="1.477658">
        <ele>308.3</ele>
        <time>1970-01-01T00:50:50.000Z</time>
      </trkpt>
      <trkpt lat="41.241016" lon="1.477638">
        <ele>308.5</ele>
        <time>1970-01-01T00:50:51.000Z</time>
      </trkpt>
      <trkpt lat="41.240989" lon="1.477611">
        <ele>308.6</ele>
        <time>1970-01-01T00:50:52.000Z</time>
      </trkpt>
      <trkpt lat="41.240956" lon="1.477565">
        <ele>308.8</ele>
        <time>1970-01-01T00:50:54.000Z</time>
      </trkpt>
      <trkpt lat="41.240919" lon="1.47752">
        <ele>309</ele>
        <time>1970-01-01T00:50:56.000Z</time>
      </trkpt>
      <trkpt lat="41.240868" lon="1.477472">
        <ele>309.4</ele>
        <time>1970-01-01T00:50:58.000Z</time>
      </trkpt>
      <trkpt lat="41.240846" lon="1.477438">
        <ele>309.5</ele>
        <time>1970-01-01T00:50:59.000Z</time>
      </trkpt>
      <trkpt lat="41.240822" lon="1.477408">
        <ele>309.7</ele>
        <time>1970-01-01T00:51:00.000Z</time>
      </trkpt>
      <trkpt lat="41.240806" lon="1.477379">
        <ele>309.8</ele>
        <time>1970-01-01T00:51:01.000Z</time>
      </trkpt>
      <trkpt lat="41.240793" lon="1.47731">
        <ele>310.1</ele>
        <time>1970-01-01T00:51:03.000Z</time>
      </trkpt>
      <trkpt lat="41.240781" lon="1.477274">
        <ele>310.2</ele>
        <time>1970-01-01T00:51:04.000Z</time>
      </trkpt>
      <trkpt lat="41.240776" lon="1.477206">
        <ele>310.4</ele>
        <time>1970-01-01T00:51:06.000Z</time>
      </trkpt>
      <trkpt lat="41.240771" lon="1.477164">
        <ele>310.5</ele>
        <time>1970-01-01T00:51:07.000Z</time>
      </trkpt>
      <trkpt lat="41.240766" lon="1.477124">
        <ele>310.6</ele>
        <time>1970-01-01T00:51:08.000Z</time>
      </trkpt>
      <trkpt lat="41.240754" lon="1.47709">
        <ele>310.8</ele>
        <time>1970-01-01T00:51:09.000Z</time>
      </trkpt>
      <trkpt lat="41.240739" lon="1.477061">
        <ele>311</ele>
        <time>1970-01-01T00:51:10.000Z</time>
      </trkpt>
      <trkpt lat="41.240717" lon="1.477026">
        <ele>311.2</ele>
        <time>1970-01-01T00:51:11.000Z</time>
      </trkpt>
      <trkpt lat="41.240672" lon="1.476984">
        <ele>311.6</ele>
        <time>1970-01-01T00:51:13.000Z</time>
      </trkpt>
      <trkpt lat="41.240643" lon="1.476949">
        <ele>311.9</ele>
        <time>1970-01-01T00:51:14.000Z</time>
      </trkpt>
      <trkpt lat="41.24062" lon="1.476923">
        <ele>312.1</ele>
        <time>1970-01-01T00:51:15.000Z</time>
      </trkpt>
      <trkpt lat="41.240576" lon="1.476882">
        <ele>312.4</ele>
        <time>1970-01-01T00:51:17.000Z</time>
      </trkpt>
      <trkpt lat="41.240547" lon="1.476868">
        <ele>312.6</ele>
        <time>1970-01-01T00:51:18.000Z</time>
      </trkpt>
      <trkpt lat="41.240494" lon="1.476851">
        <ele>312.8</ele>
        <time>1970-01-01T00:51:20.000Z</time>
      </trkpt>
      <trkpt lat="41.240439" lon="1.476828">
        <ele>313.1</ele>
        <time>1970-01-01T00:51:22.000Z</time>
      </trkpt>
      <trkpt lat="41.240392" lon="1.476803">
        <ele>313.2</ele>
        <time>1970-01-01T00:51:24.000Z</time>
      </trkpt>
      <trkpt lat="41.24035" lon="1.47675">
        <ele>313.4</ele>
        <time>1970-01-01T00:51:26.000Z</time>
      </trkpt>
      <trkpt lat="41.240325" lon="1.476712">
        <ele>313.5</ele>
        <time>1970-01-01T00:51:27.000Z</time>
      </trkpt>
      <trkpt lat="41.240286" lon="1.476673">
        <ele>313.7</ele>
        <time>1970-01-01T00:51:29.000Z</time>
      </trkpt>
      <trkpt lat="41.240249" lon="1.476637">
        <ele>313.8</ele>
        <time>1970-01-01T00:51:31.000Z</time>
      </trkpt>
      <trkpt lat="41.240212" lon="1.476571">
        <ele>314</ele>
        <time>1970-01-01T00:51:33.000Z</time>
      </trkpt>
      <trkpt lat="41.240165" lon="1.476516">
        <ele>314.2</ele>
        <time>1970-01-01T00:51:35.000Z</time>
      </trkpt>
      <trkpt lat="41.240145" lon="1.476487">
        <ele>314.3</ele>
        <time>1970-01-01T00:51:36.000Z</time>
      </trkpt>
      <trkpt lat="41.240118" lon="1.476415">
        <ele>314.3</ele>
        <time>1970-01-01T00:51:38.000Z</time>
      </trkpt>
      <trkpt lat="41.240072" lon="1.476391">
        <ele>314.1</ele>
        <time>1970-01-01T00:51:40.000Z</time>
      </trkpt>
      <trkpt lat="41.240035" lon="1.476366">
        <ele>313.9</ele>
        <time>1970-01-01T00:51:41.000Z</time>
      </trkpt>
      <trkpt lat="41.240003" lon="1.476339">
        <ele>313.8</ele>
        <time>1970-01-01T00:51:42.000Z</time>
      </trkpt>
      <trkpt lat="41.239973" lon="1.476315">
        <ele>313.6</ele>
        <time>1970-01-01T00:51:43.000Z</time>
      </trkpt>
      <trkpt lat="41.239949" lon="1.476289">
        <ele>313.5</ele>
        <time>1970-01-01T00:51:44.000Z</time>
      </trkpt>
      <trkpt lat="41.239916" lon="1.476249">
        <ele>313.3</ele>
        <time>1970-01-01T00:51:45.000Z</time>
      </trkpt>
      <trkpt lat="41.239885" lon="1.476212">
        <ele>313.1</ele>
        <time>1970-01-01T00:51:46.000Z</time>
      </trkpt>
      <trkpt lat="41.239858" lon="1.476175">
        <ele>313</ele>
        <time>1970-01-01T00:51:47.000Z</time>
      </trkpt>
      <trkpt lat="41.239827" lon="1.476131">
        <ele>313</ele>
        <time>1970-01-01T00:51:48.000Z</time>
      </trkpt>
      <trkpt lat="41.239803" lon="1.476086">
        <ele>313.1</ele>
        <time>1970-01-01T00:51:49.000Z</time>
      </trkpt>
      <trkpt lat="41.239787" lon="1.476039">
        <ele>313.2</ele>
        <time>1970-01-01T00:51:50.000Z</time>
      </trkpt>
      <trkpt lat="41.239769" lon="1.475968">
        <ele>313.4</ele>
        <time>1970-01-01T00:51:51.000Z</time>
      </trkpt>
      <trkpt lat="41.239765" lon="1.475871">
        <ele>313.5</ele>
        <time>1970-01-01T00:51:52.000Z</time>
      </trkpt>
      <trkpt lat="41.239785" lon="1.475766">
        <ele>313.7</ele>
        <time>1970-01-01T00:51:53.000Z</time>
      </trkpt>
      <trkpt lat="41.239821" lon="1.47565">
        <ele>313.9</ele>
        <time>1970-01-01T00:51:54.000Z</time>
      </trkpt>
      <trkpt lat="41.239847" lon="1.475537">
        <ele>314.3</ele>
        <time>1970-01-01T00:51:55.000Z</time>
      </trkpt>
      <trkpt lat="41.239869" lon="1.475429">
        <ele>314.1</ele>
        <time>1970-01-01T00:51:56.000Z</time>
      </trkpt>
      <trkpt lat="41.239889" lon="1.475315">
        <ele>314</ele>
        <time>1970-01-01T00:51:57.000Z</time>
      </trkpt>
      <trkpt lat="41.239904" lon="1.475221">
        <ele>313.9</ele>
        <time>1970-01-01T00:51:58.000Z</time>
      </trkpt>
      <trkpt lat="41.239905" lon="1.475113">
        <ele>313.9</ele>
        <time>1970-01-01T00:51:59.000Z</time>
      </trkpt>
      <trkpt lat="41.23986" lon="1.475025">
        <ele>313.9</ele>
        <time>1970-01-01T00:52:00.000Z</time>
      </trkpt>
      <trkpt lat="41.239812" lon="1.474957">
        <ele>313.9</ele>
        <time>1970-01-01T00:52:01.000Z</time>
      </trkpt>
      <trkpt lat="41.239788" lon="1.47488">
        <ele>313.9</ele>
        <time>1970-01-01T00:52:02.000Z</time>
      </trkpt>
      <trkpt lat="41.23977" lon="1.474802">
        <ele>313.9</ele>
        <time>1970-01-01T00:52:03.000Z</time>
      </trkpt>
      <trkpt lat="41.239752" lon="1.474726">
        <ele>313.9</ele>
        <time>1970-01-01T00:52:04.000Z</time>
      </trkpt>
      <trkpt lat="41.239744" lon="1.474652">
        <ele>313.8</ele>
        <time>1970-01-01T00:52:05.000Z</time>
      </trkpt>
      <trkpt lat="41.239747" lon="1.47458">
        <ele>313.8</ele>
        <time>1970-01-01T00:52:06.000Z</time>
      </trkpt>
      <trkpt lat="41.239756" lon="1.474507">
        <ele>313.8</ele>
        <time>1970-01-01T00:52:07.000Z</time>
      </trkpt>
      <trkpt lat="41.239783" lon="1.474437">
        <ele>313.7</ele>
        <time>1970-01-01T00:52:08.000Z</time>
      </trkpt>
      <trkpt lat="41.239808" lon="1.474362">
        <ele>313.6</ele>
        <time>1970-01-01T00:52:09.000Z</time>
      </trkpt>
      <trkpt lat="41.239843" lon="1.474289">
        <ele>313.5</ele>
        <time>1970-01-01T00:52:10.000Z</time>
      </trkpt>
      <trkpt lat="41.239881" lon="1.474213">
        <ele>313.3</ele>
        <time>1970-01-01T00:52:11.000Z</time>
      </trkpt>
      <trkpt lat="41.239901" lon="1.474126">
        <ele>313.2</ele>
        <time>1970-01-01T00:52:12.000Z</time>
      </trkpt>
      <trkpt lat="41.239931" lon="1.474043">
        <ele>313.1</ele>
        <time>1970-01-01T00:52:13.000Z</time>
      </trkpt>
      <trkpt lat="41.239975" lon="1.473968">
        <ele>313</ele>
        <time>1970-01-01T00:52:14.000Z</time>
      </trkpt>
      <trkpt lat="41.239999" lon="1.473885">
        <ele>312.9</ele>
        <time>1970-01-01T00:52:15.000Z</time>
      </trkpt>
      <trkpt lat="41.240028" lon="1.473811">
        <ele>312.8</ele>
        <time>1970-01-01T00:52:16.000Z</time>
      </trkpt>
      <trkpt lat="41.240053" lon="1.473734">
        <ele>312.8</ele>
        <time>1970-01-01T00:52:17.000Z</time>
      </trkpt>
      <trkpt lat="41.240087" lon="1.473645">
        <ele>312.7</ele>
        <time>1970-01-01T00:52:18.000Z</time>
      </trkpt>
      <trkpt lat="41.240116" lon="1.473548">
        <ele>312.7</ele>
        <time>1970-01-01T00:52:19.000Z</time>
      </trkpt>
      <trkpt lat="41.240141" lon="1.473464">
        <ele>312.8</ele>
        <time>1970-01-01T00:52:20.000Z</time>
      </trkpt>
      <trkpt lat="41.240163" lon="1.473393">
        <ele>312.8</ele>
        <time>1970-01-01T00:52:21.000Z</time>
      </trkpt>
      <trkpt lat="41.24017" lon="1.473313">
        <ele>312.9</ele>
        <time>1970-01-01T00:52:22.000Z</time>
      </trkpt>
      <trkpt lat="41.240179" lon="1.473238">
        <ele>313.1</ele>
        <time>1970-01-01T00:52:23.000Z</time>
      </trkpt>
      <trkpt lat="41.240173" lon="1.473178">
        <ele>313.2</ele>
        <time>1970-01-01T00:52:24.000Z</time>
      </trkpt>
      <trkpt lat="41.240175" lon="1.473116">
        <ele>313.3</ele>
        <time>1970-01-01T00:52:25.000Z</time>
      </trkpt>
      <trkpt lat="41.240171" lon="1.473052">
        <ele>313.5</ele>
        <time>1970-01-01T00:52:26.000Z</time>
      </trkpt>
      <trkpt lat="41.240167" lon="1.472979">
        <ele>313.8</ele>
        <time>1970-01-01T00:52:27.000Z</time>
      </trkpt>
      <trkpt lat="41.240159" lon="1.472892">
        <ele>314.1</ele>
        <time>1970-01-01T00:52:28.000Z</time>
      </trkpt>
      <trkpt lat="41.240153" lon="1.472835">
        <ele>314.3</ele>
        <time>1970-01-01T00:52:29.000Z</time>
      </trkpt>
      <trkpt lat="41.240143" lon="1.472769">
        <ele>314.6</ele>
        <time>1970-01-01T00:52:30.000Z</time>
      </trkpt>
      <trkpt lat="41.240134" lon="1.472719">
        <ele>314.8</ele>
        <time>1970-01-01T00:52:31.000Z</time>
      </trkpt>
      <trkpt lat="41.240123" lon="1.472667">
        <ele>315.1</ele>
        <time>1970-01-01T00:52:32.000Z</time>
      </trkpt>
      <trkpt lat="41.240115" lon="1.472618">
        <ele>315.3</ele>
        <time>1970-01-01T00:52:33.000Z</time>
      </trkpt>
      <trkpt lat="41.24011" lon="1.472574">
        <ele>315.5</ele>
        <time>1970-01-01T00:52:34.000Z</time>
      </trkpt>
      <trkpt lat="41.240107" lon="1.472533">
        <ele>315.8</ele>
        <time>1970-01-01T00:52:35.000Z</time>
      </trkpt>
      <trkpt lat="41.240103" lon="1.472469">
        <ele>316.2</ele>
        <time>1970-01-01T00:52:37.000Z</time>
      </trkpt>
      <trkpt lat="41.240103" lon="1.472417">
        <ele>316.6</ele>
        <time>1970-01-01T00:52:39.000Z</time>
      </trkpt>
      <trkpt lat="41.240115" lon="1.472375">
        <ele>317</ele>
        <time>1970-01-01T00:52:42.000Z</time>
      </trkpt>
      <trkpt lat="41.240137" lon="1.47233">
        <ele>317.3</ele>
        <time>1970-01-01T00:52:44.000Z</time>
      </trkpt>
      <trkpt lat="41.240175" lon="1.472274">
        <ele>317.8</ele>
        <time>1970-01-01T00:52:46.000Z</time>
      </trkpt>
      <trkpt lat="41.240196" lon="1.472239">
        <ele>318</ele>
        <time>1970-01-01T00:52:47.000Z</time>
      </trkpt>
      <trkpt lat="41.240221" lon="1.472196">
        <ele>318.5</ele>
        <time>1970-01-01T00:52:49.000Z</time>
      </trkpt>
      <trkpt lat="41.240235" lon="1.472159">
        <ele>318.7</ele>
        <time>1970-01-01T00:52:51.000Z</time>
      </trkpt>
      <trkpt lat="41.240238" lon="1.472116">
        <ele>318.8</ele>
        <time>1970-01-01T00:52:53.000Z</time>
      </trkpt>
      <trkpt lat="41.240252" lon="1.47206">
        <ele>319.1</ele>
        <time>1970-01-01T00:52:55.000Z</time>
      </trkpt>
      <trkpt lat="41.240269" lon="1.471998">
        <ele>319.3</ele>
        <time>1970-01-01T00:52:57.000Z</time>
      </trkpt>
      <trkpt lat="41.240276" lon="1.471943">
        <ele>319.5</ele>
        <time>1970-01-01T00:52:59.000Z</time>
      </trkpt>
      <trkpt lat="41.24027" lon="1.471885">
        <ele>319.8</ele>
        <time>1970-01-01T00:53:00.000Z</time>
      </trkpt>
      <trkpt lat="41.24025" lon="1.471824">
        <ele>320</ele>
        <time>1970-01-01T00:53:02.000Z</time>
      </trkpt>
      <trkpt lat="41.24023" lon="1.471762">
        <ele>320.3</ele>
        <time>1970-01-01T00:53:04.000Z</time>
      </trkpt>
      <trkpt lat="41.240206" lon="1.471698">
        <ele>320.6</ele>
        <time>1970-01-01T00:53:06.000Z</time>
      </trkpt>
      <trkpt lat="41.240197" lon="1.471643">
        <ele>320.8</ele>
        <time>1970-01-01T00:53:08.000Z</time>
      </trkpt>
      <trkpt lat="41.240195" lon="1.471582">
        <ele>321.1</ele>
        <time>1970-01-01T00:53:10.000Z</time>
      </trkpt>
      <trkpt lat="41.240181" lon="1.471509">
        <ele>321.6</ele>
        <time>1970-01-01T00:53:12.000Z</time>
      </trkpt>
      <trkpt lat="41.240196" lon="1.471445">
        <ele>322.1</ele>
        <time>1970-01-01T00:53:14.000Z</time>
      </trkpt>
      <trkpt lat="41.24021" lon="1.471379">
        <ele>322.6</ele>
        <time>1970-01-01T00:53:16.000Z</time>
      </trkpt>
      <trkpt lat="41.240204" lon="1.471344">
        <ele>322.8</ele>
        <time>1970-01-01T00:53:17.000Z</time>
      </trkpt>
      <trkpt lat="41.240179" lon="1.471298">
        <ele>323.1</ele>
        <time>1970-01-01T00:53:19.000Z</time>
      </trkpt>
      <trkpt lat="41.240137" lon="1.471252">
        <ele>323.4</ele>
        <time>1970-01-01T00:53:21.000Z</time>
      </trkpt>
      <trkpt lat="41.240115" lon="1.471229">
        <ele>323.6</ele>
        <time>1970-01-01T00:53:22.000Z</time>
      </trkpt>
      <trkpt lat="41.240091" lon="1.471211">
        <ele>323.9</ele>
        <time>1970-01-01T00:53:23.000Z</time>
      </trkpt>
      <trkpt lat="41.240047" lon="1.471198">
        <ele>324.4</ele>
        <time>1970-01-01T00:53:25.000Z</time>
      </trkpt>
      <trkpt lat="41.240004" lon="1.471191">
        <ele>324.7</ele>
        <time>1970-01-01T00:53:27.000Z</time>
      </trkpt>
      <trkpt lat="41.239968" lon="1.471172">
        <ele>325.1</ele>
        <time>1970-01-01T00:53:29.000Z</time>
      </trkpt>
      <trkpt lat="41.239936" lon="1.471155">
        <ele>325.3</ele>
        <time>1970-01-01T00:53:31.000Z</time>
      </trkpt>
      <trkpt lat="41.239902" lon="1.471153">
        <ele>325.5</ele>
        <time>1970-01-01T00:53:33.000Z</time>
      </trkpt>
      <trkpt lat="41.239864" lon="1.471137">
        <ele>325.7</ele>
        <time>1970-01-01T00:53:35.000Z</time>
      </trkpt>
      <trkpt lat="41.239849" lon="1.471087">
        <ele>325.9</ele>
        <time>1970-01-01T00:53:37.000Z</time>
      </trkpt>
      <trkpt lat="41.239836" lon="1.47105">
        <ele>326</ele>
        <time>1970-01-01T00:53:38.000Z</time>
      </trkpt>
      <trkpt lat="41.239827" lon="1.471014">
        <ele>326.2</ele>
        <time>1970-01-01T00:53:39.000Z</time>
      </trkpt>
      <trkpt lat="41.239821" lon="1.470979">
        <ele>326.3</ele>
        <time>1970-01-01T00:53:40.000Z</time>
      </trkpt>
      <trkpt lat="41.239815" lon="1.470914">
        <ele>326.5</ele>
        <time>1970-01-01T00:53:42.000Z</time>
      </trkpt>
      <trkpt lat="41.23982" lon="1.470861">
        <ele>326.6</ele>
        <time>1970-01-01T00:53:44.000Z</time>
      </trkpt>
      <trkpt lat="41.239829" lon="1.470788">
        <ele>326.9</ele>
        <time>1970-01-01T00:53:46.000Z</time>
      </trkpt>
      <trkpt lat="41.239834" lon="1.470736">
        <ele>327.2</ele>
        <time>1970-01-01T00:53:48.000Z</time>
      </trkpt>
      <trkpt lat="41.239835" lon="1.470681">
        <ele>327.4</ele>
        <time>1970-01-01T00:53:50.000Z</time>
      </trkpt>
      <trkpt lat="41.239852" lon="1.470628">
        <ele>327.6</ele>
        <time>1970-01-01T00:53:52.000Z</time>
      </trkpt>
      <trkpt lat="41.239859" lon="1.470576">
        <ele>327.8</ele>
        <time>1970-01-01T00:53:54.000Z</time>
      </trkpt>
      <trkpt lat="41.239874" lon="1.470518">
        <ele>328</ele>
        <time>1970-01-01T00:53:56.000Z</time>
      </trkpt>
      <trkpt lat="41.23988" lon="1.470481">
        <ele>328.1</ele>
        <time>1970-01-01T00:53:57.000Z</time>
      </trkpt>
      <trkpt lat="41.239899" lon="1.470429">
        <ele>328.2</ele>
        <time>1970-01-01T00:53:59.000Z</time>
      </trkpt>
      <trkpt lat="41.23991" lon="1.470382">
        <ele>328.4</ele>
        <time>1970-01-01T00:54:01.000Z</time>
      </trkpt>
      <trkpt lat="41.23992" lon="1.470327">
        <ele>328.5</ele>
        <time>1970-01-01T00:54:03.000Z</time>
      </trkpt>
      <trkpt lat="41.239939" lon="1.470281">
        <ele>328.7</ele>
        <time>1970-01-01T00:54:05.000Z</time>
      </trkpt>
      <trkpt lat="41.239956" lon="1.470231">
        <ele>328.8</ele>
        <time>1970-01-01T00:54:07.000Z</time>
      </trkpt>
      <trkpt lat="41.23998" lon="1.470184">
        <ele>328.9</ele>
        <time>1970-01-01T00:54:09.000Z</time>
      </trkpt>
      <trkpt lat="41.240009" lon="1.470153">
        <ele>329.1</ele>
        <time>1970-01-01T00:54:11.000Z</time>
      </trkpt>
      <trkpt lat="41.240042" lon="1.47012">
        <ele>329.2</ele>
        <time>1970-01-01T00:54:13.000Z</time>
      </trkpt>
      <trkpt lat="41.240085" lon="1.470088">
        <ele>329.4</ele>
        <time>1970-01-01T00:54:15.000Z</time>
      </trkpt>
      <trkpt lat="41.240126" lon="1.470048">
        <ele>329.6</ele>
        <time>1970-01-01T00:54:17.000Z</time>
      </trkpt>
      <trkpt lat="41.24015" lon="1.470025">
        <ele>329.7</ele>
        <time>1970-01-01T00:54:18.000Z</time>
      </trkpt>
      <trkpt lat="41.240167" lon="1.469996">
        <ele>329.8</ele>
        <time>1970-01-01T00:54:19.000Z</time>
      </trkpt>
      <trkpt lat="41.24019" lon="1.469928">
        <ele>330.1</ele>
        <time>1970-01-01T00:54:21.000Z</time>
      </trkpt>
      <trkpt lat="41.240199" lon="1.469891">
        <ele>330.2</ele>
        <time>1970-01-01T00:54:22.000Z</time>
      </trkpt>
      <trkpt lat="41.240208" lon="1.469857">
        <ele>330.3</ele>
        <time>1970-01-01T00:54:23.000Z</time>
      </trkpt>
      <trkpt lat="41.24021" lon="1.469819">
        <ele>330.4</ele>
        <time>1970-01-01T00:54:24.000Z</time>
      </trkpt>
      <trkpt lat="41.240221" lon="1.469758">
        <ele>330.6</ele>
        <time>1970-01-01T00:54:26.000Z</time>
      </trkpt>
      <trkpt lat="41.240234" lon="1.469724">
        <ele>330.8</ele>
        <time>1970-01-01T00:54:27.000Z</time>
      </trkpt>
      <trkpt lat="41.240259" lon="1.469674">
        <ele>331</ele>
        <time>1970-01-01T00:54:29.000Z</time>
      </trkpt>
      <trkpt lat="41.240279" lon="1.469649">
        <ele>331.1</ele>
        <time>1970-01-01T00:54:30.000Z</time>
      </trkpt>
      <trkpt lat="41.240304" lon="1.469625">
        <ele>331.1</ele>
        <time>1970-01-01T00:54:31.000Z</time>
      </trkpt>
      <trkpt lat="41.240345" lon="1.469605">
        <ele>331.3</ele>
        <time>1970-01-01T00:54:33.000Z</time>
      </trkpt>
      <trkpt lat="41.240381" lon="1.469609">
        <ele>331.3</ele>
        <time>1970-01-01T00:54:35.000Z</time>
      </trkpt>
      <trkpt lat="41.240426" lon="1.469602">
        <ele>331.4</ele>
        <time>1970-01-01T00:54:38.000Z</time>
      </trkpt>
      <trkpt lat="41.240469" lon="1.469581">
        <ele>331.5</ele>
        <time>1970-01-01T00:54:40.000Z</time>
      </trkpt>
      <trkpt lat="41.240508" lon="1.469534">
        <ele>331.6</ele>
        <time>1970-01-01T00:54:42.000Z</time>
      </trkpt>
      <trkpt lat="41.240522" lon="1.469488">
        <ele>331.6</ele>
        <time>1970-01-01T00:54:44.000Z</time>
      </trkpt>
      <trkpt lat="41.240541" lon="1.469455">
        <ele>331.7</ele>
        <time>1970-01-01T00:54:45.000Z</time>
      </trkpt>
      <trkpt lat="41.240583" lon="1.469412">
        <ele>331.7</ele>
        <time>1970-01-01T00:54:47.000Z</time>
      </trkpt>
      <trkpt lat="41.240613" lon="1.469378">
        <ele>331.8</ele>
        <time>1970-01-01T00:54:49.000Z</time>
      </trkpt>
      <trkpt lat="41.240658" lon="1.46935">
        <ele>331.9</ele>
        <time>1970-01-01T00:54:51.000Z</time>
      </trkpt>
      <trkpt lat="41.240701" lon="1.469316">
        <ele>331.9</ele>
        <time>1970-01-01T00:54:53.000Z</time>
      </trkpt>
      <trkpt lat="41.240721" lon="1.469291">
        <ele>332</ele>
        <time>1970-01-01T00:54:54.000Z</time>
      </trkpt>
      <trkpt lat="41.240739" lon="1.469263">
        <ele>332</ele>
        <time>1970-01-01T00:54:55.000Z</time>
      </trkpt>
      <trkpt lat="41.240759" lon="1.469231">
        <ele>332.1</ele>
        <time>1970-01-01T00:54:56.000Z</time>
      </trkpt>
      <trkpt lat="41.240782" lon="1.469175">
        <ele>332.3</ele>
        <time>1970-01-01T00:54:58.000Z</time>
      </trkpt>
      <trkpt lat="41.240794" lon="1.469136">
        <ele>332.5</ele>
        <time>1970-01-01T00:54:59.000Z</time>
      </trkpt>
      <trkpt lat="41.240806" lon="1.469083">
        <ele>332.8</ele>
        <time>1970-01-01T00:55:00.000Z</time>
      </trkpt>
      <trkpt lat="41.240814" lon="1.469031">
        <ele>333.1</ele>
        <time>1970-01-01T00:55:01.000Z</time>
      </trkpt>
      <trkpt lat="41.240813" lon="1.468986">
        <ele>333.4</ele>
        <time>1970-01-01T00:55:02.000Z</time>
      </trkpt>
      <trkpt lat="41.240792" lon="1.468946">
        <ele>333.7</ele>
        <time>1970-01-01T00:55:03.000Z</time>
      </trkpt>
      <trkpt lat="41.24077" lon="1.468911">
        <ele>333.9</ele>
        <time>1970-01-01T00:55:04.000Z</time>
      </trkpt>
      <trkpt lat="41.240745" lon="1.468873">
        <ele>334.2</ele>
        <time>1970-01-01T00:55:05.000Z</time>
      </trkpt>
      <trkpt lat="41.240718" lon="1.468847">
        <ele>334.5</ele>
        <time>1970-01-01T00:55:06.000Z</time>
      </trkpt>
      <trkpt lat="41.24069" lon="1.468841">
        <ele>334.7</ele>
        <time>1970-01-01T00:55:07.000Z</time>
      </trkpt>
      <trkpt lat="41.240657" lon="1.468823">
        <ele>335.1</ele>
        <time>1970-01-01T00:55:08.000Z</time>
      </trkpt>
      <trkpt lat="41.240627" lon="1.468805">
        <ele>335.4</ele>
        <time>1970-01-01T00:55:09.000Z</time>
      </trkpt>
      <trkpt lat="41.240602" lon="1.468787">
        <ele>335.7</ele>
        <time>1970-01-01T00:55:10.000Z</time>
      </trkpt>
      <trkpt lat="41.240576" lon="1.468772">
        <ele>336</ele>
        <time>1970-01-01T00:55:11.000Z</time>
      </trkpt>
      <trkpt lat="41.240547" lon="1.468755">
        <ele>336.5</ele>
        <time>1970-01-01T00:55:12.000Z</time>
      </trkpt>
      <trkpt lat="41.240521" lon="1.46874">
        <ele>336.8</ele>
        <time>1970-01-01T00:55:13.000Z</time>
      </trkpt>
      <trkpt lat="41.240494" lon="1.468718">
        <ele>337.1</ele>
        <time>1970-01-01T00:55:14.000Z</time>
      </trkpt>
      <trkpt lat="41.240469" lon="1.468701">
        <ele>337.3</ele>
        <time>1970-01-01T00:55:15.000Z</time>
      </trkpt>
      <trkpt lat="41.24044" lon="1.468685">
        <ele>337.6</ele>
        <time>1970-01-01T00:55:16.000Z</time>
      </trkpt>
      <trkpt lat="41.240387" lon="1.468664">
        <ele>338.1</ele>
        <time>1970-01-01T00:55:18.000Z</time>
      </trkpt>
      <trkpt lat="41.240359" lon="1.468656">
        <ele>338.3</ele>
        <time>1970-01-01T00:55:19.000Z</time>
      </trkpt>
      <trkpt lat="41.240342" lon="1.468604">
        <ele>338.5</ele>
        <time>1970-01-01T00:55:21.000Z</time>
      </trkpt>
      <trkpt lat="41.240327" lon="1.468571">
        <ele>338.7</ele>
        <time>1970-01-01T00:55:23.000Z</time>
      </trkpt>
      <trkpt lat="41.240305" lon="1.468547">
        <ele>338.8</ele>
        <time>1970-01-01T00:55:25.000Z</time>
      </trkpt>
      <trkpt lat="41.240287" lon="1.468515">
        <ele>339</ele>
        <time>1970-01-01T00:55:26.000Z</time>
      </trkpt>
      <trkpt lat="41.240262" lon="1.468469">
        <ele>339.2</ele>
        <time>1970-01-01T00:55:28.000Z</time>
      </trkpt>
      <trkpt lat="41.240239" lon="1.468427">
        <ele>339.5</ele>
        <time>1970-01-01T00:55:30.000Z</time>
      </trkpt>
      <trkpt lat="41.240221" lon="1.468378">
        <ele>339.7</ele>
        <time>1970-01-01T00:55:32.000Z</time>
      </trkpt>
      <trkpt lat="41.240204" lon="1.468329">
        <ele>340.1</ele>
        <time>1970-01-01T00:55:34.000Z</time>
      </trkpt>
      <trkpt lat="41.240176" lon="1.468288">
        <ele>340.4</ele>
        <time>1970-01-01T00:55:36.000Z</time>
      </trkpt>
      <trkpt lat="41.240152" lon="1.468241">
        <ele>340.7</ele>
        <time>1970-01-01T00:55:38.000Z</time>
      </trkpt>
      <trkpt lat="41.240145" lon="1.468199">
        <ele>340.9</ele>
        <time>1970-01-01T00:55:40.000Z</time>
      </trkpt>
      <trkpt lat="41.240147" lon="1.468162">
        <ele>341.1</ele>
        <time>1970-01-01T00:55:41.000Z</time>
      </trkpt>
      <trkpt lat="41.24014" lon="1.468105">
        <ele>341.5</ele>
        <time>1970-01-01T00:55:43.000Z</time>
      </trkpt>
      <trkpt lat="41.240145" lon="1.468047">
        <ele>341.7</ele>
        <time>1970-01-01T00:55:45.000Z</time>
      </trkpt>
      <trkpt lat="41.240142" lon="1.467994">
        <ele>341.9</ele>
        <time>1970-01-01T00:55:47.000Z</time>
      </trkpt>
      <trkpt lat="41.240142" lon="1.467955">
        <ele>342.1</ele>
        <time>1970-01-01T00:55:48.000Z</time>
      </trkpt>
      <trkpt lat="41.240151" lon="1.467887">
        <ele>342.2</ele>
        <time>1970-01-01T00:55:50.000Z</time>
      </trkpt>
      <trkpt lat="41.240169" lon="1.467814">
        <ele>342.4</ele>
        <time>1970-01-01T00:55:52.000Z</time>
      </trkpt>
      <trkpt lat="41.240177" lon="1.467774">
        <ele>342.5</ele>
        <time>1970-01-01T00:55:53.000Z</time>
      </trkpt>
      <trkpt lat="41.240194" lon="1.467711">
        <ele>342.6</ele>
        <time>1970-01-01T00:55:55.000Z</time>
      </trkpt>
      <trkpt lat="41.240199" lon="1.467674">
        <ele>342.7</ele>
        <time>1970-01-01T00:55:56.000Z</time>
      </trkpt>
      <trkpt lat="41.240206" lon="1.467637">
        <ele>342.7</ele>
        <time>1970-01-01T00:55:57.000Z</time>
      </trkpt>
      <trkpt lat="41.240212" lon="1.467595">
        <ele>342.8</ele>
        <time>1970-01-01T00:55:58.000Z</time>
      </trkpt>
      <trkpt lat="41.240229" lon="1.467544">
        <ele>342.9</ele>
        <time>1970-01-01T00:56:00.000Z</time>
      </trkpt>
      <trkpt lat="41.240247" lon="1.467481">
        <ele>343.1</ele>
        <time>1970-01-01T00:56:02.000Z</time>
      </trkpt>
      <trkpt lat="41.240265" lon="1.467445">
        <ele>343.1</ele>
        <time>1970-01-01T00:56:03.000Z</time>
      </trkpt>
      <trkpt lat="41.240282" lon="1.46741">
        <ele>343.2</ele>
        <time>1970-01-01T00:56:04.000Z</time>
      </trkpt>
      <trkpt lat="41.240296" lon="1.467378">
        <ele>343.3</ele>
        <time>1970-01-01T00:56:05.000Z</time>
      </trkpt>
      <trkpt lat="41.240314" lon="1.467347">
        <ele>343.4</ele>
        <time>1970-01-01T00:56:06.000Z</time>
      </trkpt>
      <trkpt lat="41.240329" lon="1.467317">
        <ele>343.4</ele>
        <time>1970-01-01T00:56:07.000Z</time>
      </trkpt>
      <trkpt lat="41.240343" lon="1.467283">
        <ele>343.5</ele>
        <time>1970-01-01T00:56:08.000Z</time>
      </trkpt>
      <trkpt lat="41.240371" lon="1.467235">
        <ele>343.6</ele>
        <time>1970-01-01T00:56:10.000Z</time>
      </trkpt>
      <trkpt lat="41.24039" lon="1.467171">
        <ele>343.7</ele>
        <time>1970-01-01T00:56:12.000Z</time>
      </trkpt>
      <trkpt lat="41.240409" lon="1.467109">
        <ele>343.8</ele>
        <time>1970-01-01T00:56:14.000Z</time>
      </trkpt>
      <trkpt lat="41.240438" lon="1.46704">
        <ele>344</ele>
        <time>1970-01-01T00:56:16.000Z</time>
      </trkpt>
      <trkpt lat="41.240454" lon="1.467002">
        <ele>344.2</ele>
        <time>1970-01-01T00:56:17.000Z</time>
      </trkpt>
      <trkpt lat="41.240463" lon="1.466966">
        <ele>344.3</ele>
        <time>1970-01-01T00:56:18.000Z</time>
      </trkpt>
      <trkpt lat="41.240474" lon="1.466924">
        <ele>344.3</ele>
        <time>1970-01-01T00:56:19.000Z</time>
      </trkpt>
      <trkpt lat="41.240491" lon="1.466885">
        <ele>344.4</ele>
        <time>1970-01-01T00:56:20.000Z</time>
      </trkpt>
      <trkpt lat="41.240502" lon="1.466849">
        <ele>344.5</ele>
        <time>1970-01-01T00:56:21.000Z</time>
      </trkpt>
      <trkpt lat="41.240513" lon="1.466802">
        <ele>344.6</ele>
        <time>1970-01-01T00:56:22.000Z</time>
      </trkpt>
      <trkpt lat="41.240529" lon="1.466764">
        <ele>344.7</ele>
        <time>1970-01-01T00:56:23.000Z</time>
      </trkpt>
      <trkpt lat="41.24056" lon="1.4667">
        <ele>344.8</ele>
        <time>1970-01-01T00:56:25.000Z</time>
      </trkpt>
      <trkpt lat="41.240602" lon="1.466691">
        <ele>344.9</ele>
        <time>1970-01-01T00:56:26.000Z</time>
      </trkpt>
      <trkpt lat="41.240653" lon="1.466686">
        <ele>345.1</ele>
        <time>1970-01-01T00:56:27.000Z</time>
      </trkpt>
      <trkpt lat="41.240682" lon="1.466661">
        <ele>345.1</ele>
        <time>1970-01-01T00:56:28.000Z</time>
      </trkpt>
      <trkpt lat="41.240714" lon="1.466633">
        <ele>345.2</ele>
        <time>1970-01-01T00:56:29.000Z</time>
      </trkpt>
      <trkpt lat="41.240741" lon="1.466618">
        <ele>345.3</ele>
        <time>1970-01-01T00:56:30.000Z</time>
      </trkpt>
      <trkpt lat="41.240767" lon="1.46661">
        <ele>345.4</ele>
        <time>1970-01-01T00:56:31.000Z</time>
      </trkpt>
      <trkpt lat="41.240775" lon="1.466571">
        <ele>345.5</ele>
        <time>1970-01-01T00:56:32.000Z</time>
      </trkpt>
      <trkpt lat="41.240785" lon="1.466537">
        <ele>345.6</ele>
        <time>1970-01-01T00:56:33.000Z</time>
      </trkpt>
      <trkpt lat="41.240821" lon="1.466484">
        <ele>345.8</ele>
        <time>1970-01-01T00:56:35.000Z</time>
      </trkpt>
      <trkpt lat="41.240847" lon="1.466437">
        <ele>345.9</ele>
        <time>1970-01-01T00:56:37.000Z</time>
      </trkpt>
      <trkpt lat="41.240886" lon="1.466403">
        <ele>346.1</ele>
        <time>1970-01-01T00:56:39.000Z</time>
      </trkpt>
      <trkpt lat="41.240908" lon="1.466382">
        <ele>346.2</ele>
        <time>1970-01-01T00:56:40.000Z</time>
      </trkpt>
      <trkpt lat="41.24095" lon="1.466343">
        <ele>346.4</ele>
        <time>1970-01-01T00:56:42.000Z</time>
      </trkpt>
      <trkpt lat="41.240981" lon="1.466322">
        <ele>346.6</ele>
        <time>1970-01-01T00:56:43.000Z</time>
      </trkpt>
      <trkpt lat="41.241005" lon="1.466302">
        <ele>346.7</ele>
        <time>1970-01-01T00:56:44.000Z</time>
      </trkpt>
      <trkpt lat="41.241046" lon="1.466275">
        <ele>346.9</ele>
        <time>1970-01-01T00:56:46.000Z</time>
      </trkpt>
      <trkpt lat="41.241097" lon="1.466221">
        <ele>347.5</ele>
        <time>1970-01-01T00:56:48.000Z</time>
      </trkpt>
      <trkpt lat="41.241143" lon="1.466199">
        <ele>348.2</ele>
        <time>1970-01-01T00:56:50.000Z</time>
      </trkpt>
      <trkpt lat="41.241173" lon="1.466196">
        <ele>348.6</ele>
        <time>1970-01-01T00:56:51.000Z</time>
      </trkpt>
      <trkpt lat="41.241191" lon="1.466125">
        <ele>349.3</ele>
        <time>1970-01-01T00:56:53.000Z</time>
      </trkpt>
      <trkpt lat="41.241189" lon="1.466081">
        <ele>349.9</ele>
        <time>1970-01-01T00:56:54.000Z</time>
      </trkpt>
      <trkpt lat="41.241168" lon="1.466053">
        <ele>350.4</ele>
        <time>1970-01-01T00:56:55.000Z</time>
      </trkpt>
      <trkpt lat="41.24115" lon="1.466012">
        <ele>351</ele>
        <time>1970-01-01T00:56:56.000Z</time>
      </trkpt>
      <trkpt lat="41.241128" lon="1.465963">
        <ele>351.6</ele>
        <time>1970-01-01T00:56:58.000Z</time>
      </trkpt>
      <trkpt lat="41.241113" lon="1.465925">
        <ele>352.1</ele>
        <time>1970-01-01T00:56:59.000Z</time>
      </trkpt>
      <trkpt lat="41.241097" lon="1.465895">
        <ele>352.4</ele>
        <time>1970-01-01T00:57:00.000Z</time>
      </trkpt>
      <trkpt lat="41.241075" lon="1.465873">
        <ele>352.8</ele>
        <time>1970-01-01T00:57:01.000Z</time>
      </trkpt>
      <trkpt lat="41.241049" lon="1.465861">
        <ele>353.2</ele>
        <time>1970-01-01T00:57:03.000Z</time>
      </trkpt>
      <trkpt lat="41.241012" lon="1.465839">
        <ele>353.6</ele>
        <time>1970-01-01T00:57:06.000Z</time>
      </trkpt>
      <trkpt lat="41.240969" lon="1.46582">
        <ele>354.1</ele>
        <time>1970-01-01T00:57:08.000Z</time>
      </trkpt>
      <trkpt lat="41.240921" lon="1.465799">
        <ele>354.5</ele>
        <time>1970-01-01T00:57:10.000Z</time>
      </trkpt>
      <trkpt lat="41.240871" lon="1.465788">
        <ele>354.9</ele>
        <time>1970-01-01T00:57:12.000Z</time>
      </trkpt>
      <trkpt lat="41.240837" lon="1.465779">
        <ele>355.2</ele>
        <time>1970-01-01T00:57:14.000Z</time>
      </trkpt>
      <trkpt lat="41.240812" lon="1.465753">
        <ele>355.5</ele>
        <time>1970-01-01T00:57:16.000Z</time>
      </trkpt>
      <trkpt lat="41.240785" lon="1.465758">
        <ele>355.7</ele>
        <time>1970-01-01T00:57:18.000Z</time>
      </trkpt>
      <trkpt lat="41.240756" lon="1.465736">
        <ele>356</ele>
        <time>1970-01-01T00:57:20.000Z</time>
      </trkpt>
      <trkpt lat="41.240729" lon="1.465736">
        <ele>356.3</ele>
        <time>1970-01-01T00:57:22.000Z</time>
      </trkpt>
      <trkpt lat="41.240699" lon="1.465731">
        <ele>356.5</ele>
        <time>1970-01-01T00:57:24.000Z</time>
      </trkpt>
      <trkpt lat="41.240663" lon="1.465702">
        <ele>356.9</ele>
        <time>1970-01-01T00:57:26.000Z</time>
      </trkpt>
      <trkpt lat="41.240638" lon="1.465681">
        <ele>357.2</ele>
        <time>1970-01-01T00:57:27.000Z</time>
      </trkpt>
      <trkpt lat="41.240601" lon="1.465667">
        <ele>357.6</ele>
        <time>1970-01-01T00:57:29.000Z</time>
      </trkpt>
      <trkpt lat="41.240559" lon="1.465653">
        <ele>358</ele>
        <time>1970-01-01T00:57:31.000Z</time>
      </trkpt>
      <trkpt lat="41.240531" lon="1.46563">
        <ele>358.2</ele>
        <time>1970-01-01T00:57:33.000Z</time>
      </trkpt>
      <trkpt lat="41.240505" lon="1.465602">
        <ele>358.3</ele>
        <time>1970-01-01T00:57:35.000Z</time>
      </trkpt>
      <trkpt lat="41.240472" lon="1.465575">
        <ele>358.4</ele>
        <time>1970-01-01T00:57:37.000Z</time>
      </trkpt>
      <trkpt lat="41.240444" lon="1.465547">
        <ele>358.5</ele>
        <time>1970-01-01T00:57:39.000Z</time>
      </trkpt>
      <trkpt lat="41.240416" lon="1.46552">
        <ele>358.6</ele>
        <time>1970-01-01T00:57:41.000Z</time>
      </trkpt>
      <trkpt lat="41.240391" lon="1.465487">
        <ele>358.7</ele>
        <time>1970-01-01T00:57:43.000Z</time>
      </trkpt>
      <trkpt lat="41.240366" lon="1.46545">
        <ele>358.8</ele>
        <time>1970-01-01T00:57:45.000Z</time>
      </trkpt>
      <trkpt lat="41.24036" lon="1.465397">
        <ele>358.9</ele>
        <time>1970-01-01T00:57:48.000Z</time>
      </trkpt>
      <trkpt lat="41.240373" lon="1.465364">
        <ele>359</ele>
        <time>1970-01-01T00:57:50.000Z</time>
      </trkpt>
      <trkpt lat="41.24038" lon="1.46533">
        <ele>359.1</ele>
        <time>1970-01-01T00:57:52.000Z</time>
      </trkpt>
      <trkpt lat="41.240389" lon="1.465293">
        <ele>359.4</ele>
        <time>1970-01-01T00:57:54.000Z</time>
      </trkpt>
      <trkpt lat="41.240413" lon="1.465272">
        <ele>359.9</ele>
        <time>1970-01-01T00:57:56.000Z</time>
      </trkpt>
      <trkpt lat="41.240447" lon="1.465256">
        <ele>360.4</ele>
        <time>1970-01-01T00:57:58.000Z</time>
      </trkpt>
      <trkpt lat="41.240475" lon="1.465223">
        <ele>361</ele>
        <time>1970-01-01T00:58:01.000Z</time>
      </trkpt>
      <trkpt lat="41.240515" lon="1.465239">
        <ele>361.7</ele>
        <time>1970-01-01T00:58:03.000Z</time>
      </trkpt>
      <trkpt lat="41.240552" lon="1.465248">
        <ele>362.2</ele>
        <time>1970-01-01T00:58:05.000Z</time>
      </trkpt>
      <trkpt lat="41.240593" lon="1.465264">
        <ele>362.8</ele>
        <time>1970-01-01T00:58:07.000Z</time>
      </trkpt>
      <trkpt lat="41.240635" lon="1.465265">
        <ele>363.3</ele>
        <time>1970-01-01T00:58:09.000Z</time>
      </trkpt>
      <trkpt lat="41.240662" lon="1.465259">
        <ele>363.7</ele>
        <time>1970-01-01T00:58:11.000Z</time>
      </trkpt>
      <trkpt lat="41.240708" lon="1.465244">
        <ele>364.3</ele>
        <time>1970-01-01T00:58:13.000Z</time>
      </trkpt>
      <trkpt lat="41.240749" lon="1.465237">
        <ele>364.9</ele>
        <time>1970-01-01T00:58:15.000Z</time>
      </trkpt>
      <trkpt lat="41.240777" lon="1.465224">
        <ele>365.4</ele>
        <time>1970-01-01T00:58:17.000Z</time>
      </trkpt>
      <trkpt lat="41.24081" lon="1.465189">
        <ele>366</ele>
        <time>1970-01-01T00:58:19.000Z</time>
      </trkpt>
      <trkpt lat="41.240832" lon="1.465134">
        <ele>366.1</ele>
        <time>1970-01-01T00:58:21.000Z</time>
      </trkpt>
      <trkpt lat="41.240849" lon="1.465093">
        <ele>366.2</ele>
        <time>1970-01-01T00:58:24.000Z</time>
      </trkpt>
      <trkpt lat="41.24086" lon="1.465047">
        <ele>366.3</ele>
        <time>1970-01-01T00:58:26.000Z</time>
      </trkpt>
      <trkpt lat="41.240864" lon="1.465008">
        <ele>366.3</ele>
        <time>1970-01-01T00:58:27.000Z</time>
      </trkpt>
      <trkpt lat="41.240865" lon="1.464947">
        <ele>366.4</ele>
        <time>1970-01-01T00:58:29.000Z</time>
      </trkpt>
      <trkpt lat="41.24087" lon="1.464907">
        <ele>366.4</ele>
        <time>1970-01-01T00:58:30.000Z</time>
      </trkpt>
      <trkpt lat="41.240885" lon="1.464842">
        <ele>366.5</ele>
        <time>1970-01-01T00:58:32.000Z</time>
      </trkpt>
      <trkpt lat="41.240896" lon="1.464806">
        <ele>366.6</ele>
        <time>1970-01-01T00:58:33.000Z</time>
      </trkpt>
      <trkpt lat="41.240893" lon="1.464761">
        <ele>366.6</ele>
        <time>1970-01-01T00:58:34.000Z</time>
      </trkpt>
      <trkpt lat="41.240906" lon="1.464705">
        <ele>366.7</ele>
        <time>1970-01-01T00:58:36.000Z</time>
      </trkpt>
      <trkpt lat="41.240919" lon="1.464673">
        <ele>366.7</ele>
        <time>1970-01-01T00:58:37.000Z</time>
      </trkpt>
      <trkpt lat="41.240934" lon="1.464633">
        <ele>366.8</ele>
        <time>1970-01-01T00:58:38.000Z</time>
      </trkpt>
      <trkpt lat="41.240949" lon="1.464584">
        <ele>366.9</ele>
        <time>1970-01-01T00:58:39.000Z</time>
      </trkpt>
      <trkpt lat="41.240959" lon="1.46454">
        <ele>367</ele>
        <time>1970-01-01T00:58:40.000Z</time>
      </trkpt>
      <trkpt lat="41.24097" lon="1.464487">
        <ele>367.1</ele>
        <time>1970-01-01T00:58:41.000Z</time>
      </trkpt>
      <trkpt lat="41.24098" lon="1.464439">
        <ele>367.2</ele>
        <time>1970-01-01T00:58:42.000Z</time>
      </trkpt>
      <trkpt lat="41.24099" lon="1.464401">
        <ele>367.2</ele>
        <time>1970-01-01T00:58:43.000Z</time>
      </trkpt>
      <trkpt lat="41.240994" lon="1.464338">
        <ele>367.3</ele>
        <time>1970-01-01T00:58:44.000Z</time>
      </trkpt>
      <trkpt lat="41.240991" lon="1.464288">
        <ele>367.3</ele>
        <time>1970-01-01T00:58:45.000Z</time>
      </trkpt>
      <trkpt lat="41.240981" lon="1.464231">
        <ele>367.4</ele>
        <time>1970-01-01T00:58:46.000Z</time>
      </trkpt>
      <trkpt lat="41.240979" lon="1.46418">
        <ele>367.5</ele>
        <time>1970-01-01T00:58:47.000Z</time>
      </trkpt>
      <trkpt lat="41.240989" lon="1.464142">
        <ele>367.5</ele>
        <time>1970-01-01T00:58:48.000Z</time>
      </trkpt>
      <trkpt lat="41.241002" lon="1.464104">
        <ele>367.5</ele>
        <time>1970-01-01T00:58:49.000Z</time>
      </trkpt>
      <trkpt lat="41.241001" lon="1.464016">
        <ele>367.6</ele>
        <time>1970-01-01T00:58:51.000Z</time>
      </trkpt>
      <trkpt lat="41.241002" lon="1.463974">
        <ele>367.6</ele>
        <time>1970-01-01T00:58:52.000Z</time>
      </trkpt>
      <trkpt lat="41.241009" lon="1.463897">
        <ele>367.7</ele>
        <time>1970-01-01T00:58:54.000Z</time>
      </trkpt>
      <trkpt lat="41.241011" lon="1.463822">
        <ele>367.7</ele>
        <time>1970-01-01T00:58:56.000Z</time>
      </trkpt>
      <trkpt lat="41.241011" lon="1.463779">
        <ele>367.7</ele>
        <time>1970-01-01T00:58:57.000Z</time>
      </trkpt>
      <trkpt lat="41.241012" lon="1.463735">
        <ele>367.8</ele>
        <time>1970-01-01T00:58:58.000Z</time>
      </trkpt>
      <trkpt lat="41.241014" lon="1.46369">
        <ele>367.8</ele>
        <time>1970-01-01T00:58:59.000Z</time>
      </trkpt>
      <trkpt lat="41.241015" lon="1.463644">
        <ele>367.8</ele>
        <time>1970-01-01T00:59:00.000Z</time>
      </trkpt>
      <trkpt lat="41.241018" lon="1.463584">
        <ele>367.8</ele>
        <time>1970-01-01T00:59:01.000Z</time>
      </trkpt>
      <trkpt lat="41.241021" lon="1.463528">
        <ele>367.8</ele>
        <time>1970-01-01T00:59:02.000Z</time>
      </trkpt>
      <trkpt lat="41.241019" lon="1.463481">
        <ele>367.8</ele>
        <time>1970-01-01T00:59:03.000Z</time>
      </trkpt>
      <trkpt lat="41.241016" lon="1.463434">
        <ele>367.7</ele>
        <time>1970-01-01T00:59:04.000Z</time>
      </trkpt>
      <trkpt lat="41.241017" lon="1.463389">
        <ele>367.6</ele>
        <time>1970-01-01T00:59:05.000Z</time>
      </trkpt>
      <trkpt lat="41.241017" lon="1.463343">
        <ele>367.4</ele>
        <time>1970-01-01T00:59:06.000Z</time>
      </trkpt>
      <trkpt lat="41.241029" lon="1.463292">
        <ele>367.2</ele>
        <time>1970-01-01T00:59:07.000Z</time>
      </trkpt>
      <trkpt lat="41.241031" lon="1.463235">
        <ele>366.9</ele>
        <time>1970-01-01T00:59:08.000Z</time>
      </trkpt>
      <trkpt lat="41.241028" lon="1.463199">
        <ele>366.7</ele>
        <time>1970-01-01T00:59:09.000Z</time>
      </trkpt>
      <trkpt lat="41.241017" lon="1.46316">
        <ele>366.5</ele>
        <time>1970-01-01T00:59:10.000Z</time>
      </trkpt>
      <trkpt lat="41.241007" lon="1.463116">
        <ele>366.3</ele>
        <time>1970-01-01T00:59:11.000Z</time>
      </trkpt>
      <trkpt lat="41.240993" lon="1.463058">
        <ele>365.9</ele>
        <time>1970-01-01T00:59:12.000Z</time>
      </trkpt>
      <trkpt lat="41.240997" lon="1.462981">
        <ele>365.4</ele>
        <time>1970-01-01T00:59:13.000Z</time>
      </trkpt>
      <trkpt lat="41.241006" lon="1.462908">
        <ele>365</ele>
        <time>1970-01-01T00:59:14.000Z</time>
      </trkpt>
      <trkpt lat="41.241009" lon="1.462826">
        <ele>364.3</ele>
        <time>1970-01-01T00:59:15.000Z</time>
      </trkpt>
      <trkpt lat="41.241011" lon="1.462748">
        <ele>363.6</ele>
        <time>1970-01-01T00:59:16.000Z</time>
      </trkpt>
      <trkpt lat="41.241038" lon="1.462699">
        <ele>363</ele>
        <time>1970-01-01T00:59:17.000Z</time>
      </trkpt>
      <trkpt lat="41.241074" lon="1.462648">
        <ele>362.2</ele>
        <time>1970-01-01T00:59:18.000Z</time>
      </trkpt>
      <trkpt lat="41.241128" lon="1.462603">
        <ele>361.5</ele>
        <time>1970-01-01T00:59:19.000Z</time>
      </trkpt>
      <trkpt lat="41.24119" lon="1.462555">
        <ele>360.7</ele>
        <time>1970-01-01T00:59:20.000Z</time>
      </trkpt>
      <trkpt lat="41.241263" lon="1.46251">
        <ele>359.8</ele>
        <time>1970-01-01T00:59:21.000Z</time>
      </trkpt>
      <trkpt lat="41.241321" lon="1.462476">
        <ele>359.2</ele>
        <time>1970-01-01T00:59:22.000Z</time>
      </trkpt>
      <trkpt lat="41.241383" lon="1.462434">
        <ele>358.6</ele>
        <time>1970-01-01T00:59:23.000Z</time>
      </trkpt>
      <trkpt lat="41.241445" lon="1.462375">
        <ele>358.1</ele>
        <time>1970-01-01T00:59:24.000Z</time>
      </trkpt>
      <trkpt lat="41.241503" lon="1.462307">
        <ele>357.7</ele>
        <time>1970-01-01T00:59:25.000Z</time>
      </trkpt>
      <trkpt lat="41.241545" lon="1.462228">
        <ele>357.5</ele>
        <time>1970-01-01T00:59:26.000Z</time>
      </trkpt>
      <trkpt lat="41.241584" lon="1.462125">
        <ele>357.1</ele>
        <time>1970-01-01T00:59:27.000Z</time>
      </trkpt>
      <trkpt lat="41.241611" lon="1.462036">
        <ele>356.9</ele>
        <time>1970-01-01T00:59:28.000Z</time>
      </trkpt>
      <trkpt lat="41.241628" lon="1.461968">
        <ele>357.1</ele>
        <time>1970-01-01T00:59:29.000Z</time>
      </trkpt>
      <trkpt lat="41.241628" lon="1.461896">
        <ele>357.2</ele>
        <time>1970-01-01T00:59:30.000Z</time>
      </trkpt>
      <trkpt lat="41.241621" lon="1.46183">
        <ele>357.3</ele>
        <time>1970-01-01T00:59:31.000Z</time>
      </trkpt>
      <trkpt lat="41.241617" lon="1.461788">
        <ele>357.4</ele>
        <time>1970-01-01T00:59:32.000Z</time>
      </trkpt>
      <trkpt lat="41.241616" lon="1.461729">
        <ele>357.6</ele>
        <time>1970-01-01T00:59:33.000Z</time>
      </trkpt>
      <trkpt lat="41.241615" lon="1.461674">
        <ele>357.7</ele>
        <time>1970-01-01T00:59:34.000Z</time>
      </trkpt>
      <trkpt lat="41.24161" lon="1.46157">
        <ele>357.9</ele>
        <time>1970-01-01T00:59:36.000Z</time>
      </trkpt>
      <trkpt lat="41.241613" lon="1.461529">
        <ele>358</ele>
        <time>1970-01-01T00:59:37.000Z</time>
      </trkpt>
      <trkpt lat="41.241633" lon="1.46147">
        <ele>358.1</ele>
        <time>1970-01-01T00:59:39.000Z</time>
      </trkpt>
      <trkpt lat="41.24164" lon="1.461428">
        <ele>358.2</ele>
        <time>1970-01-01T00:59:40.000Z</time>
      </trkpt>
      <trkpt lat="41.241645" lon="1.461383">
        <ele>358.3</ele>
        <time>1970-01-01T00:59:41.000Z</time>
      </trkpt>
      <trkpt lat="41.241645" lon="1.461342">
        <ele>358.4</ele>
        <time>1970-01-01T00:59:42.000Z</time>
      </trkpt>
      <trkpt lat="41.241641" lon="1.461299">
        <ele>358.5</ele>
        <time>1970-01-01T00:59:43.000Z</time>
      </trkpt>
      <trkpt lat="41.241629" lon="1.461232">
        <ele>358.5</ele>
        <time>1970-01-01T00:59:45.000Z</time>
      </trkpt>
      <trkpt lat="41.241611" lon="1.461176">
        <ele>358.6</ele>
        <time>1970-01-01T00:59:46.000Z</time>
      </trkpt>
      <trkpt lat="41.241593" lon="1.461139">
        <ele>358.5</ele>
        <time>1970-01-01T00:59:47.000Z</time>
      </trkpt>
      <trkpt lat="41.241576" lon="1.461098">
        <ele>358.5</ele>
        <time>1970-01-01T00:59:48.000Z</time>
      </trkpt>
      <trkpt lat="41.241562" lon="1.461054">
        <ele>358.5</ele>
        <time>1970-01-01T00:59:49.000Z</time>
      </trkpt>
      <trkpt lat="41.241551" lon="1.461015">
        <ele>358.4</ele>
        <time>1970-01-01T00:59:50.000Z</time>
      </trkpt>
      <trkpt lat="41.241531" lon="1.460955">
        <ele>358.4</ele>
        <time>1970-01-01T00:59:51.000Z</time>
      </trkpt>
      <trkpt lat="41.241514" lon="1.460903">
        <ele>358.3</ele>
        <time>1970-01-01T00:59:52.000Z</time>
      </trkpt>
      <trkpt lat="41.241503" lon="1.460846">
        <ele>358.1</ele>
        <time>1970-01-01T00:59:53.000Z</time>
      </trkpt>
      <trkpt lat="41.241492" lon="1.460775">
        <ele>357.9</ele>
        <time>1970-01-01T00:59:54.000Z</time>
      </trkpt>
      <trkpt lat="41.241492" lon="1.460709">
        <ele>357.8</ele>
        <time>1970-01-01T00:59:55.000Z</time>
      </trkpt>
      <trkpt lat="41.241495" lon="1.46064">
        <ele>357.6</ele>
        <time>1970-01-01T00:59:56.000Z</time>
      </trkpt>
      <trkpt lat="41.241504" lon="1.460574">
        <ele>357.5</ele>
        <time>1970-01-01T00:59:57.000Z</time>
      </trkpt>
      <trkpt lat="41.241511" lon="1.460502">
        <ele>357.4</ele>
        <time>1970-01-01T00:59:58.000Z</time>
      </trkpt>
      <trkpt lat="41.241521" lon="1.460447">
        <ele>357.3</ele>
        <time>1970-01-01T00:59:59.000Z</time>
      </trkpt>
      <trkpt lat="41.241537" lon="1.460386">
        <ele>357.3</ele>
        <time>1970-01-01T01:00:00.000Z</time>
      </trkpt>
      <trkpt lat="41.241554" lon="1.460329">
        <ele>357.2</ele>
        <time>1970-01-01T01:00:01.000Z</time>
      </trkpt>
      <trkpt lat="41.241565" lon="1.460265">
        <ele>357.3</ele>
        <time>1970-01-01T01:00:02.000Z</time>
      </trkpt>
      <trkpt lat="41.241568" lon="1.460216">
        <ele>357.3</ele>
        <time>1970-01-01T01:00:03.000Z</time>
      </trkpt>
      <trkpt lat="41.24158" lon="1.460163">
        <ele>357.3</ele>
        <time>1970-01-01T01:00:04.000Z</time>
      </trkpt>
      <trkpt lat="41.241592" lon="1.460109">
        <ele>357.4</ele>
        <time>1970-01-01T01:00:05.000Z</time>
      </trkpt>
      <trkpt lat="41.241597" lon="1.460054">
        <ele>357.5</ele>
        <time>1970-01-01T01:00:06.000Z</time>
      </trkpt>
      <trkpt lat="41.241595" lon="1.45998">
        <ele>357.7</ele>
        <time>1970-01-01T01:00:07.000Z</time>
      </trkpt>
      <trkpt lat="41.241593" lon="1.459925">
        <ele>357.8</ele>
        <time>1970-01-01T01:00:08.000Z</time>
      </trkpt>
      <trkpt lat="41.241589" lon="1.459885">
        <ele>357.9</ele>
        <time>1970-01-01T01:00:09.000Z</time>
      </trkpt>
      <trkpt lat="41.24159" lon="1.459846">
        <ele>358</ele>
        <time>1970-01-01T01:00:10.000Z</time>
      </trkpt>
      <trkpt lat="41.241598" lon="1.45979">
        <ele>358.2</ele>
        <time>1970-01-01T01:00:11.000Z</time>
      </trkpt>
      <trkpt lat="41.241604" lon="1.459737">
        <ele>358.4</ele>
        <time>1970-01-01T01:00:12.000Z</time>
      </trkpt>
      <trkpt lat="41.241609" lon="1.459685">
        <ele>358.6</ele>
        <time>1970-01-01T01:00:13.000Z</time>
      </trkpt>
      <trkpt lat="41.241608" lon="1.459644">
        <ele>358.8</ele>
        <time>1970-01-01T01:00:14.000Z</time>
      </trkpt>
      <trkpt lat="41.241616" lon="1.459598">
        <ele>359</ele>
        <time>1970-01-01T01:00:16.000Z</time>
      </trkpt>
      <trkpt lat="41.241624" lon="1.45954">
        <ele>359.2</ele>
        <time>1970-01-01T01:00:18.000Z</time>
      </trkpt>
      <trkpt lat="41.241646" lon="1.459462">
        <ele>359.5</ele>
        <time>1970-01-01T01:00:20.000Z</time>
      </trkpt>
      <trkpt lat="41.241655" lon="1.459411">
        <ele>359.7</ele>
        <time>1970-01-01T01:00:21.000Z</time>
      </trkpt>
      <trkpt lat="41.241665" lon="1.459358">
        <ele>359.8</ele>
        <time>1970-01-01T01:00:22.000Z</time>
      </trkpt>
      <trkpt lat="41.241674" lon="1.459311">
        <ele>360</ele>
        <time>1970-01-01T01:00:23.000Z</time>
      </trkpt>
      <trkpt lat="41.241688" lon="1.459275">
        <ele>360.1</ele>
        <time>1970-01-01T01:00:24.000Z</time>
      </trkpt>
      <trkpt lat="41.241704" lon="1.459237">
        <ele>360.3</ele>
        <time>1970-01-01T01:00:25.000Z</time>
      </trkpt>
      <trkpt lat="41.241717" lon="1.459204">
        <ele>360.4</ele>
        <time>1970-01-01T01:00:26.000Z</time>
      </trkpt>
      <trkpt lat="41.241726" lon="1.459166">
        <ele>360.5</ele>
        <time>1970-01-01T01:00:27.000Z</time>
      </trkpt>
      <trkpt lat="41.241758" lon="1.459109">
        <ele>360.7</ele>
        <time>1970-01-01T01:00:29.000Z</time>
      </trkpt>
      <trkpt lat="41.241774" lon="1.459072">
        <ele>360.9</ele>
        <time>1970-01-01T01:00:30.000Z</time>
      </trkpt>
      <trkpt lat="41.241791" lon="1.459029">
        <ele>361</ele>
        <time>1970-01-01T01:00:31.000Z</time>
      </trkpt>
      <trkpt lat="41.241804" lon="1.45899">
        <ele>361.2</ele>
        <time>1970-01-01T01:00:32.000Z</time>
      </trkpt>
      <trkpt lat="41.241819" lon="1.458949">
        <ele>361.3</ele>
        <time>1970-01-01T01:00:33.000Z</time>
      </trkpt>
      <trkpt lat="41.241821" lon="1.458905">
        <ele>361.5</ele>
        <time>1970-01-01T01:00:34.000Z</time>
      </trkpt>
      <trkpt lat="41.241806" lon="1.458857">
        <ele>361.7</ele>
        <time>1970-01-01T01:00:35.000Z</time>
      </trkpt>
      <trkpt lat="41.241777" lon="1.458838">
        <ele>361.9</ele>
        <time>1970-01-01T01:00:36.000Z</time>
      </trkpt>
      <trkpt lat="41.241727" lon="1.458842">
        <ele>362.2</ele>
        <time>1970-01-01T01:00:38.000Z</time>
      </trkpt>
      <trkpt lat="41.2417" lon="1.458837">
        <ele>362.4</ele>
        <time>1970-01-01T01:00:39.000Z</time>
      </trkpt>
      <trkpt lat="41.241672" lon="1.458843">
        <ele>362.6</ele>
        <time>1970-01-01T01:00:40.000Z</time>
      </trkpt>
      <trkpt lat="41.241643" lon="1.458837">
        <ele>362.8</ele>
        <time>1970-01-01T01:00:41.000Z</time>
      </trkpt>
      <trkpt lat="41.241582" lon="1.458814">
        <ele>363.2</ele>
        <time>1970-01-01T01:00:43.000Z</time>
      </trkpt>
      <trkpt lat="41.241553" lon="1.458811">
        <ele>363.4</ele>
        <time>1970-01-01T01:00:44.000Z</time>
      </trkpt>
      <trkpt lat="41.241525" lon="1.458794">
        <ele>363.6</ele>
        <time>1970-01-01T01:00:45.000Z</time>
      </trkpt>
      <trkpt lat="41.241494" lon="1.458778">
        <ele>363.8</ele>
        <time>1970-01-01T01:00:46.000Z</time>
      </trkpt>
      <trkpt lat="41.241465" lon="1.458763">
        <ele>364</ele>
        <time>1970-01-01T01:00:47.000Z</time>
      </trkpt>
      <trkpt lat="41.241431" lon="1.458748">
        <ele>364.2</ele>
        <time>1970-01-01T01:00:48.000Z</time>
      </trkpt>
      <trkpt lat="41.241398" lon="1.458736">
        <ele>364.3</ele>
        <time>1970-01-01T01:00:49.000Z</time>
      </trkpt>
      <trkpt lat="41.24137" lon="1.458721">
        <ele>364.5</ele>
        <time>1970-01-01T01:00:50.000Z</time>
      </trkpt>
      <trkpt lat="41.241325" lon="1.458698">
        <ele>364.7</ele>
        <time>1970-01-01T01:00:52.000Z</time>
      </trkpt>
      <trkpt lat="41.241293" lon="1.458679">
        <ele>364.9</ele>
        <time>1970-01-01T01:00:53.000Z</time>
      </trkpt>
      <trkpt lat="41.241265" lon="1.458657">
        <ele>365.1</ele>
        <time>1970-01-01T01:00:54.000Z</time>
      </trkpt>
      <trkpt lat="41.241219" lon="1.458636">
        <ele>365.3</ele>
        <time>1970-01-01T01:00:56.000Z</time>
      </trkpt>
      <trkpt lat="41.241194" lon="1.458619">
        <ele>365.5</ele>
        <time>1970-01-01T01:00:57.000Z</time>
      </trkpt>
      <trkpt lat="41.241168" lon="1.458591">
        <ele>365.7</ele>
        <time>1970-01-01T01:00:58.000Z</time>
      </trkpt>
      <trkpt lat="41.241143" lon="1.458574">
        <ele>365.9</ele>
        <time>1970-01-01T01:00:59.000Z</time>
      </trkpt>
      <trkpt lat="41.241117" lon="1.458555">
        <ele>366.1</ele>
        <time>1970-01-01T01:01:00.000Z</time>
      </trkpt>
      <trkpt lat="41.241091" lon="1.458539">
        <ele>366.4</ele>
        <time>1970-01-01T01:01:01.000Z</time>
      </trkpt>
      <trkpt lat="41.241047" lon="1.458501">
        <ele>366.9</ele>
        <time>1970-01-01T01:01:03.000Z</time>
      </trkpt>
      <trkpt lat="41.241018" lon="1.458466">
        <ele>367.3</ele>
        <time>1970-01-01T01:01:05.000Z</time>
      </trkpt>
      <trkpt lat="41.240982" lon="1.458416">
        <ele>367.7</ele>
        <time>1970-01-01T01:01:07.000Z</time>
      </trkpt>
      <trkpt lat="41.240943" lon="1.458382">
        <ele>368.1</ele>
        <time>1970-01-01T01:01:09.000Z</time>
      </trkpt>
      <trkpt lat="41.240914" lon="1.458345">
        <ele>368.5</ele>
        <time>1970-01-01T01:01:11.000Z</time>
      </trkpt>
      <trkpt lat="41.240882" lon="1.458302">
        <ele>369</ele>
        <time>1970-01-01T01:01:13.000Z</time>
      </trkpt>
      <trkpt lat="41.240853" lon="1.458263">
        <ele>369.6</ele>
        <time>1970-01-01T01:01:15.000Z</time>
      </trkpt>
      <trkpt lat="41.240838" lon="1.458229">
        <ele>370</ele>
        <time>1970-01-01T01:01:17.000Z</time>
      </trkpt>
      <trkpt lat="41.240814" lon="1.45819">
        <ele>370.4</ele>
        <time>1970-01-01T01:01:19.000Z</time>
      </trkpt>
      <trkpt lat="41.240779" lon="1.458159">
        <ele>370.9</ele>
        <time>1970-01-01T01:01:21.000Z</time>
      </trkpt>
      <trkpt lat="41.240726" lon="1.458136">
        <ele>371.3</ele>
        <time>1970-01-01T01:01:23.000Z</time>
      </trkpt>
      <trkpt lat="41.240696" lon="1.458122">
        <ele>371.4</ele>
        <time>1970-01-01T01:01:24.000Z</time>
      </trkpt>
      <trkpt lat="41.240669" lon="1.458109">
        <ele>371.6</ele>
        <time>1970-01-01T01:01:25.000Z</time>
      </trkpt>
      <trkpt lat="41.240628" lon="1.458081">
        <ele>371.9</ele>
        <time>1970-01-01T01:01:27.000Z</time>
      </trkpt>
      <trkpt lat="41.240576" lon="1.458044">
        <ele>372.2</ele>
        <time>1970-01-01T01:01:29.000Z</time>
      </trkpt>
      <trkpt lat="41.240551" lon="1.458024">
        <ele>372.4</ele>
        <time>1970-01-01T01:01:30.000Z</time>
      </trkpt>
      <trkpt lat="41.240528" lon="1.457999">
        <ele>372.5</ele>
        <time>1970-01-01T01:01:31.000Z</time>
      </trkpt>
      <trkpt lat="41.240489" lon="1.457959">
        <ele>372.8</ele>
        <time>1970-01-01T01:01:33.000Z</time>
      </trkpt>
      <trkpt lat="41.24047" lon="1.457933">
        <ele>373</ele>
        <time>1970-01-01T01:01:34.000Z</time>
      </trkpt>
      <trkpt lat="41.24045" lon="1.457902">
        <ele>373.2</ele>
        <time>1970-01-01T01:01:35.000Z</time>
      </trkpt>
      <trkpt lat="41.240431" lon="1.457874">
        <ele>373.4</ele>
        <time>1970-01-01T01:01:36.000Z</time>
      </trkpt>
      <trkpt lat="41.240412" lon="1.457842">
        <ele>373.5</ele>
        <time>1970-01-01T01:01:37.000Z</time>
      </trkpt>
      <trkpt lat="41.240383" lon="1.457788">
        <ele>373.8</ele>
        <time>1970-01-01T01:01:39.000Z</time>
      </trkpt>
      <trkpt lat="41.240364" lon="1.457757">
        <ele>374.1</ele>
        <time>1970-01-01T01:01:40.000Z</time>
      </trkpt>
      <trkpt lat="41.240344" lon="1.45772">
        <ele>374.3</ele>
        <time>1970-01-01T01:01:41.000Z</time>
      </trkpt>
      <trkpt lat="41.240325" lon="1.457683">
        <ele>374.6</ele>
        <time>1970-01-01T01:01:42.000Z</time>
      </trkpt>
      <trkpt lat="41.240308" lon="1.457653">
        <ele>374.7</ele>
        <time>1970-01-01T01:01:43.000Z</time>
      </trkpt>
      <trkpt lat="41.240292" lon="1.457618">
        <ele>375</ele>
        <time>1970-01-01T01:01:44.000Z</time>
      </trkpt>
      <trkpt lat="41.240278" lon="1.457577">
        <ele>375.1</ele>
        <time>1970-01-01T01:01:45.000Z</time>
      </trkpt>
      <trkpt lat="41.240265" lon="1.457536">
        <ele>375.2</ele>
        <time>1970-01-01T01:01:46.000Z</time>
      </trkpt>
      <trkpt lat="41.240251" lon="1.457497">
        <ele>375.3</ele>
        <time>1970-01-01T01:01:47.000Z</time>
      </trkpt>
      <trkpt lat="41.240241" lon="1.457454">
        <ele>375.4</ele>
        <time>1970-01-01T01:01:48.000Z</time>
      </trkpt>
      <trkpt lat="41.240235" lon="1.457414">
        <ele>375.5</ele>
        <time>1970-01-01T01:01:49.000Z</time>
      </trkpt>
      <trkpt lat="41.240233" lon="1.457372">
        <ele>375.6</ele>
        <time>1970-01-01T01:01:50.000Z</time>
      </trkpt>
      <trkpt lat="41.240224" lon="1.457317">
        <ele>375.6</ele>
        <time>1970-01-01T01:01:51.000Z</time>
      </trkpt>
      <trkpt lat="41.240224" lon="1.45727">
        <ele>375.7</ele>
        <time>1970-01-01T01:01:52.000Z</time>
      </trkpt>
      <trkpt lat="41.240229" lon="1.45723">
        <ele>375.7</ele>
        <time>1970-01-01T01:01:53.000Z</time>
      </trkpt>
      <trkpt lat="41.240235" lon="1.457182">
        <ele>375.7</ele>
        <time>1970-01-01T01:01:54.000Z</time>
      </trkpt>
      <trkpt lat="41.240246" lon="1.457134">
        <ele>375.7</ele>
        <time>1970-01-01T01:01:55.000Z</time>
      </trkpt>
      <trkpt lat="41.240254" lon="1.45708">
        <ele>375.6</ele>
        <time>1970-01-01T01:01:56.000Z</time>
      </trkpt>
      <trkpt lat="41.240258" lon="1.457028">
        <ele>375.5</ele>
        <time>1970-01-01T01:01:57.000Z</time>
      </trkpt>
      <trkpt lat="41.240249" lon="1.456972">
        <ele>375.3</ele>
        <time>1970-01-01T01:01:58.000Z</time>
      </trkpt>
      <trkpt lat="41.240243" lon="1.456911">
        <ele>375.1</ele>
        <time>1970-01-01T01:01:59.000Z</time>
      </trkpt>
      <trkpt lat="41.240236" lon="1.456842">
        <ele>374.9</ele>
        <time>1970-01-01T01:02:00.000Z</time>
      </trkpt>
      <trkpt lat="41.240227" lon="1.456756">
        <ele>374.3</ele>
        <time>1970-01-01T01:02:01.000Z</time>
      </trkpt>
      <trkpt lat="41.240213" lon="1.456678">
        <ele>373.8</ele>
        <time>1970-01-01T01:02:02.000Z</time>
      </trkpt>
      <trkpt lat="41.240196" lon="1.4566">
        <ele>373.3</ele>
        <time>1970-01-01T01:02:03.000Z</time>
      </trkpt>
      <trkpt lat="41.240183" lon="1.456513">
        <ele>372.9</ele>
        <time>1970-01-01T01:02:04.000Z</time>
      </trkpt>
      <trkpt lat="41.240168" lon="1.456426">
        <ele>372.4</ele>
        <time>1970-01-01T01:02:05.000Z</time>
      </trkpt>
      <trkpt lat="41.240147" lon="1.456325">
        <ele>371.8</ele>
        <time>1970-01-01T01:02:06.000Z</time>
      </trkpt>
      <trkpt lat="41.240124" lon="1.456222">
        <ele>371.2</ele>
        <time>1970-01-01T01:02:07.000Z</time>
      </trkpt>
      <trkpt lat="41.240097" lon="1.456113">
        <ele>370.7</ele>
        <time>1970-01-01T01:02:08.000Z</time>
      </trkpt>
      <trkpt lat="41.240075" lon="1.456007">
        <ele>369.9</ele>
        <time>1970-01-01T01:02:09.000Z</time>
      </trkpt>
      <trkpt lat="41.240052" lon="1.455907">
        <ele>369.2</ele>
        <time>1970-01-01T01:02:10.000Z</time>
      </trkpt>
      <trkpt lat="41.240028" lon="1.455797">
        <ele>368.6</ele>
        <time>1970-01-01T01:02:11.000Z</time>
      </trkpt>
      <trkpt lat="41.240003" lon="1.455686">
        <ele>368</ele>
        <time>1970-01-01T01:02:12.000Z</time>
      </trkpt>
      <trkpt lat="41.23998" lon="1.455581">
        <ele>367.3</ele>
        <time>1970-01-01T01:02:13.000Z</time>
      </trkpt>
      <trkpt lat="41.239963" lon="1.455482">
        <ele>366.6</ele>
        <time>1970-01-01T01:02:14.000Z</time>
      </trkpt>
      <trkpt lat="41.239946" lon="1.455375">
        <ele>365.7</ele>
        <time>1970-01-01T01:02:15.000Z</time>
      </trkpt>
      <trkpt lat="41.239918" lon="1.45525">
        <ele>364.7</ele>
        <time>1970-01-01T01:02:16.000Z</time>
      </trkpt>
      <trkpt lat="41.239906" lon="1.455134">
        <ele>364</ele>
        <time>1970-01-01T01:02:17.000Z</time>
      </trkpt>
      <trkpt lat="41.239887" lon="1.455017">
        <ele>363.3</ele>
        <time>1970-01-01T01:02:18.000Z</time>
      </trkpt>
      <trkpt lat="41.239866" lon="1.4549">
        <ele>362.4</ele>
        <time>1970-01-01T01:02:19.000Z</time>
      </trkpt>
      <trkpt lat="41.239843" lon="1.454788">
        <ele>361.6</ele>
        <time>1970-01-01T01:02:20.000Z</time>
      </trkpt>
      <trkpt lat="41.239818" lon="1.454668">
        <ele>360.7</ele>
        <time>1970-01-01T01:02:21.000Z</time>
      </trkpt>
      <trkpt lat="41.239789" lon="1.454545">
        <ele>360</ele>
        <time>1970-01-01T01:02:22.000Z</time>
      </trkpt>
      <trkpt lat="41.239766" lon="1.454432">
        <ele>359.6</ele>
        <time>1970-01-01T01:02:23.000Z</time>
      </trkpt>
      <trkpt lat="41.239744" lon="1.454328">
        <ele>359.2</ele>
        <time>1970-01-01T01:02:24.000Z</time>
      </trkpt>
      <trkpt lat="41.239722" lon="1.454225">
        <ele>358.9</ele>
        <time>1970-01-01T01:02:25.000Z</time>
      </trkpt>
      <trkpt lat="41.239698" lon="1.454118">
        <ele>358.5</ele>
        <time>1970-01-01T01:02:26.000Z</time>
      </trkpt>
      <trkpt lat="41.239685" lon="1.454025">
        <ele>358.3</ele>
        <time>1970-01-01T01:02:27.000Z</time>
      </trkpt>
      <trkpt lat="41.239671" lon="1.453919">
        <ele>358</ele>
        <time>1970-01-01T01:02:28.000Z</time>
      </trkpt>
      <trkpt lat="41.239651" lon="1.453829">
        <ele>357.9</ele>
        <time>1970-01-01T01:02:29.000Z</time>
      </trkpt>
      <trkpt lat="41.239634" lon="1.453734">
        <ele>357.6</ele>
        <time>1970-01-01T01:02:30.000Z</time>
      </trkpt>
      <trkpt lat="41.239618" lon="1.453634">
        <ele>357.5</ele>
        <time>1970-01-01T01:02:31.000Z</time>
      </trkpt>
      <trkpt lat="41.239597" lon="1.453525">
        <ele>357.3</ele>
        <time>1970-01-01T01:02:32.000Z</time>
      </trkpt>
      <trkpt lat="41.239576" lon="1.453438">
        <ele>357.1</ele>
        <time>1970-01-01T01:02:33.000Z</time>
      </trkpt>
      <trkpt lat="41.239564" lon="1.453351">
        <ele>356.9</ele>
        <time>1970-01-01T01:02:34.000Z</time>
      </trkpt>
      <trkpt lat="41.239548" lon="1.453259">
        <ele>356.8</ele>
        <time>1970-01-01T01:02:35.000Z</time>
      </trkpt>
      <trkpt lat="41.239535" lon="1.453167">
        <ele>356.6</ele>
        <time>1970-01-01T01:02:36.000Z</time>
      </trkpt>
      <trkpt lat="41.239521" lon="1.453083">
        <ele>356.5</ele>
        <time>1970-01-01T01:02:37.000Z</time>
      </trkpt>
      <trkpt lat="41.239532" lon="1.453002">
        <ele>356.2</ele>
        <time>1970-01-01T01:02:38.000Z</time>
      </trkpt>
      <trkpt lat="41.239554" lon="1.452919">
        <ele>356</ele>
        <time>1970-01-01T01:02:39.000Z</time>
      </trkpt>
      <trkpt lat="41.239578" lon="1.452841">
        <ele>355.7</ele>
        <time>1970-01-01T01:02:40.000Z</time>
      </trkpt>
      <trkpt lat="41.239603" lon="1.452755">
        <ele>355.4</ele>
        <time>1970-01-01T01:02:41.000Z</time>
      </trkpt>
      <trkpt lat="41.239621" lon="1.452671">
        <ele>355.2</ele>
        <time>1970-01-01T01:02:42.000Z</time>
      </trkpt>
      <trkpt lat="41.239641" lon="1.452576">
        <ele>354.7</ele>
        <time>1970-01-01T01:02:43.000Z</time>
      </trkpt>
      <trkpt lat="41.23966" lon="1.452481">
        <ele>354.2</ele>
        <time>1970-01-01T01:02:44.000Z</time>
      </trkpt>
      <trkpt lat="41.239677" lon="1.45237">
        <ele>353.5</ele>
        <time>1970-01-01T01:02:45.000Z</time>
      </trkpt>
      <trkpt lat="41.239687" lon="1.452258">
        <ele>352.9</ele>
        <time>1970-01-01T01:02:46.000Z</time>
      </trkpt>
      <trkpt lat="41.239698" lon="1.452156">
        <ele>352.3</ele>
        <time>1970-01-01T01:02:47.000Z</time>
      </trkpt>
      <trkpt lat="41.239728" lon="1.452046">
        <ele>351.6</ele>
        <time>1970-01-01T01:02:48.000Z</time>
      </trkpt>
      <trkpt lat="41.239759" lon="1.451923">
        <ele>350.9</ele>
        <time>1970-01-01T01:02:49.000Z</time>
      </trkpt>
      <trkpt lat="41.239783" lon="1.451812">
        <ele>349.9</ele>
        <time>1970-01-01T01:02:50.000Z</time>
      </trkpt>
      <trkpt lat="41.239784" lon="1.451708">
        <ele>349.1</ele>
        <time>1970-01-01T01:02:51.000Z</time>
      </trkpt>
      <trkpt lat="41.23977" lon="1.451606">
        <ele>348.3</ele>
        <time>1970-01-01T01:02:52.000Z</time>
      </trkpt>
      <trkpt lat="41.239752" lon="1.451499">
        <ele>347.6</ele>
        <time>1970-01-01T01:02:53.000Z</time>
      </trkpt>
      <trkpt lat="41.239739" lon="1.451392">
        <ele>346.8</ele>
        <time>1970-01-01T01:02:54.000Z</time>
      </trkpt>
      <trkpt lat="41.239723" lon="1.451272">
        <ele>346</ele>
        <time>1970-01-01T01:02:55.000Z</time>
      </trkpt>
      <trkpt lat="41.239703" lon="1.451148">
        <ele>345.2</ele>
        <time>1970-01-01T01:02:56.000Z</time>
      </trkpt>
      <trkpt lat="41.239689" lon="1.451038">
        <ele>344.9</ele>
        <time>1970-01-01T01:02:57.000Z</time>
      </trkpt>
      <trkpt lat="41.239697" lon="1.450937">
        <ele>344.5</ele>
        <time>1970-01-01T01:02:58.000Z</time>
      </trkpt>
      <trkpt lat="41.239715" lon="1.450827">
        <ele>344</ele>
        <time>1970-01-01T01:02:59.000Z</time>
      </trkpt>
      <trkpt lat="41.239738" lon="1.450695">
        <ele>343.6</ele>
        <time>1970-01-01T01:03:00.000Z</time>
      </trkpt>
      <trkpt lat="41.239772" lon="1.450571">
        <ele>343.1</ele>
        <time>1970-01-01T01:03:01.000Z</time>
      </trkpt>
      <trkpt lat="41.239812" lon="1.450453">
        <ele>342.6</ele>
        <time>1970-01-01T01:03:02.000Z</time>
      </trkpt>
      <trkpt lat="41.239852" lon="1.450347">
        <ele>342.3</ele>
        <time>1970-01-01T01:03:03.000Z</time>
      </trkpt>
      <trkpt lat="41.239891" lon="1.450239">
        <ele>341.9</ele>
        <time>1970-01-01T01:03:04.000Z</time>
      </trkpt>
      <trkpt lat="41.239928" lon="1.450125">
        <ele>341.6</ele>
        <time>1970-01-01T01:03:05.000Z</time>
      </trkpt>
      <trkpt lat="41.23996" lon="1.450021">
        <ele>341.4</ele>
        <time>1970-01-01T01:03:06.000Z</time>
      </trkpt>
      <trkpt lat="41.239999" lon="1.44992">
        <ele>341.2</ele>
        <time>1970-01-01T01:03:07.000Z</time>
      </trkpt>
      <trkpt lat="41.240036" lon="1.449828">
        <ele>341.1</ele>
        <time>1970-01-01T01:03:08.000Z</time>
      </trkpt>
      <trkpt lat="41.240073" lon="1.449729">
        <ele>341</ele>
        <time>1970-01-01T01:03:09.000Z</time>
      </trkpt>
      <trkpt lat="41.240113" lon="1.449631">
        <ele>340.9</ele>
        <time>1970-01-01T01:03:10.000Z</time>
      </trkpt>
      <trkpt lat="41.240152" lon="1.449543">
        <ele>340.9</ele>
        <time>1970-01-01T01:03:11.000Z</time>
      </trkpt>
      <trkpt lat="41.240185" lon="1.449469">
        <ele>340.9</ele>
        <time>1970-01-01T01:03:12.000Z</time>
      </trkpt>
      <trkpt lat="41.240227" lon="1.449406">
        <ele>340.9</ele>
        <time>1970-01-01T01:03:13.000Z</time>
      </trkpt>
      <trkpt lat="41.240278" lon="1.449344">
        <ele>341</ele>
        <time>1970-01-01T01:03:14.000Z</time>
      </trkpt>
      <trkpt lat="41.240328" lon="1.449301">
        <ele>341</ele>
        <time>1970-01-01T01:03:15.000Z</time>
      </trkpt>
      <trkpt lat="41.240372" lon="1.449277">
        <ele>341.1</ele>
        <time>1970-01-01T01:03:16.000Z</time>
      </trkpt>
      <trkpt lat="41.24042" lon="1.449243">
        <ele>341.1</ele>
        <time>1970-01-01T01:03:17.000Z</time>
      </trkpt>
      <trkpt lat="41.240461" lon="1.449214">
        <ele>341.2</ele>
        <time>1970-01-01T01:03:18.000Z</time>
      </trkpt>
      <trkpt lat="41.240505" lon="1.44918">
        <ele>341.2</ele>
        <time>1970-01-01T01:03:19.000Z</time>
      </trkpt>
      <trkpt lat="41.240545" lon="1.449129">
        <ele>341.3</ele>
        <time>1970-01-01T01:03:20.000Z</time>
      </trkpt>
      <trkpt lat="41.240575" lon="1.449083">
        <ele>341.4</ele>
        <time>1970-01-01T01:03:21.000Z</time>
      </trkpt>
      <trkpt lat="41.240609" lon="1.44905">
        <ele>341.4</ele>
        <time>1970-01-01T01:03:22.000Z</time>
      </trkpt>
      <trkpt lat="41.240643" lon="1.44901">
        <ele>341</ele>
        <time>1970-01-01T01:03:23.000Z</time>
      </trkpt>
      <trkpt lat="41.240681" lon="1.448978">
        <ele>340.7</ele>
        <time>1970-01-01T01:03:24.000Z</time>
      </trkpt>
      <trkpt lat="41.240723" lon="1.448959">
        <ele>340.5</ele>
        <time>1970-01-01T01:03:25.000Z</time>
      </trkpt>
      <trkpt lat="41.240773" lon="1.44896">
        <ele>340.3</ele>
        <time>1970-01-01T01:03:26.000Z</time>
      </trkpt>
      <trkpt lat="41.240829" lon="1.448965">
        <ele>340</ele>
        <time>1970-01-01T01:03:27.000Z</time>
      </trkpt>
      <trkpt lat="41.240891" lon="1.448964">
        <ele>339.7</ele>
        <time>1970-01-01T01:03:28.000Z</time>
      </trkpt>
      <trkpt lat="41.240953" lon="1.448967">
        <ele>339.5</ele>
        <time>1970-01-01T01:03:29.000Z</time>
      </trkpt>
      <trkpt lat="41.241016" lon="1.448977">
        <ele>339.2</ele>
        <time>1970-01-01T01:03:30.000Z</time>
      </trkpt>
      <trkpt lat="41.241082" lon="1.448968">
        <ele>338.7</ele>
        <time>1970-01-01T01:03:31.000Z</time>
      </trkpt>
      <trkpt lat="41.241156" lon="1.448965">
        <ele>338.1</ele>
        <time>1970-01-01T01:03:32.000Z</time>
      </trkpt>
      <trkpt lat="41.241233" lon="1.448962">
        <ele>337.5</ele>
        <time>1970-01-01T01:03:33.000Z</time>
      </trkpt>
      <trkpt lat="41.241304" lon="1.448939">
        <ele>337</ele>
        <time>1970-01-01T01:03:34.000Z</time>
      </trkpt>
      <trkpt lat="41.241378" lon="1.448933">
        <ele>336.5</ele>
        <time>1970-01-01T01:03:35.000Z</time>
      </trkpt>
      <trkpt lat="41.241449" lon="1.448913">
        <ele>336.1</ele>
        <time>1970-01-01T01:03:36.000Z</time>
      </trkpt>
      <trkpt lat="41.241518" lon="1.448885">
        <ele>335.6</ele>
        <time>1970-01-01T01:03:37.000Z</time>
      </trkpt>
      <trkpt lat="41.241587" lon="1.448856">
        <ele>335.1</ele>
        <time>1970-01-01T01:03:38.000Z</time>
      </trkpt>
      <trkpt lat="41.241648" lon="1.448819">
        <ele>334.9</ele>
        <time>1970-01-01T01:03:39.000Z</time>
      </trkpt>
      <trkpt lat="41.241709" lon="1.448775">
        <ele>334.7</ele>
        <time>1970-01-01T01:03:40.000Z</time>
      </trkpt>
      <trkpt lat="41.241765" lon="1.448739">
        <ele>334.5</ele>
        <time>1970-01-01T01:03:41.000Z</time>
      </trkpt>
      <trkpt lat="41.241825" lon="1.448695">
        <ele>334.3</ele>
        <time>1970-01-01T01:03:42.000Z</time>
      </trkpt>
      <trkpt lat="41.241878" lon="1.448663">
        <ele>334.1</ele>
        <time>1970-01-01T01:03:43.000Z</time>
      </trkpt>
      <trkpt lat="41.241925" lon="1.448633">
        <ele>334</ele>
        <time>1970-01-01T01:03:44.000Z</time>
      </trkpt>
      <trkpt lat="41.241968" lon="1.448612">
        <ele>333.9</ele>
        <time>1970-01-01T01:03:45.000Z</time>
      </trkpt>
      <trkpt lat="41.242014" lon="1.448588">
        <ele>333.9</ele>
        <time>1970-01-01T01:03:46.000Z</time>
      </trkpt>
      <trkpt lat="41.242054" lon="1.448563">
        <ele>333.8</ele>
        <time>1970-01-01T01:03:47.000Z</time>
      </trkpt>
      <trkpt lat="41.242092" lon="1.448544">
        <ele>333.8</ele>
        <time>1970-01-01T01:03:48.000Z</time>
      </trkpt>
      <trkpt lat="41.242118" lon="1.448535">
        <ele>333.7</ele>
        <time>1970-01-01T01:03:49.000Z</time>
      </trkpt>
      <trkpt lat="41.242153" lon="1.448526">
        <ele>333.7</ele>
        <time>1970-01-01T01:03:50.000Z</time>
      </trkpt>
      <trkpt lat="41.242195" lon="1.448523">
        <ele>333.6</ele>
        <time>1970-01-01T01:03:52.000Z</time>
      </trkpt>
      <trkpt lat="41.242228" lon="1.448512">
        <ele>333.6</ele>
        <time>1970-01-01T01:03:53.000Z</time>
      </trkpt>
      <trkpt lat="41.242258" lon="1.448508">
        <ele>333.7</ele>
        <time>1970-01-01T01:03:54.000Z</time>
      </trkpt>
      <trkpt lat="41.242338" lon="1.448502">
        <ele>334</ele>
        <time>1970-01-01T01:03:56.000Z</time>
      </trkpt>
      <trkpt lat="41.242374" lon="1.448502">
        <ele>334.1</ele>
        <time>1970-01-01T01:03:57.000Z</time>
      </trkpt>
      <trkpt lat="41.242416" lon="1.448503">
        <ele>334.3</ele>
        <time>1970-01-01T01:03:58.000Z</time>
      </trkpt>
      <trkpt lat="41.242445" lon="1.448502">
        <ele>334.5</ele>
        <time>1970-01-01T01:04:00.000Z</time>
      </trkpt>
      <trkpt lat="41.242458" lon="1.448449">
        <ele>334.7</ele>
        <time>1970-01-01T01:04:02.000Z</time>
      </trkpt>
      <trkpt lat="41.242442" lon="1.448396">
        <ele>331.9</ele>
        <time>1970-01-01T01:04:03.000Z</time>
      </trkpt>
      <trkpt lat="41.24241" lon="1.448351">
        <ele>330.9</ele>
        <time>1970-01-01T01:04:04.000Z</time>
      </trkpt>
      <trkpt lat="41.24239" lon="1.448309">
        <ele>330.2</ele>
        <time>1970-01-01T01:04:06.000Z</time>
      </trkpt>
      <trkpt lat="41.242418" lon="1.448267">
        <ele>329.3</ele>
        <time>1970-01-01T01:04:07.000Z</time>
      </trkpt>
      <trkpt lat="41.242454" lon="1.448227">
        <ele>328.4</ele>
        <time>1970-01-01T01:04:08.000Z</time>
      </trkpt>
      <trkpt lat="41.242459" lon="1.448185">
        <ele>327.7</ele>
        <time>1970-01-01T01:04:10.000Z</time>
      </trkpt>
      <trkpt lat="41.242467" lon="1.448147">
        <ele>327</ele>
        <time>1970-01-01T01:04:11.000Z</time>
      </trkpt>
      <trkpt lat="41.242469" lon="1.44811">
        <ele>326.4</ele>
        <time>1970-01-01T01:04:12.000Z</time>
      </trkpt>
      <trkpt lat="41.242465" lon="1.448052">
        <ele>325.4</ele>
        <time>1970-01-01T01:04:13.000Z</time>
      </trkpt>
      <trkpt lat="41.242462" lon="1.447994">
        <ele>324.3</ele>
        <time>1970-01-01T01:04:14.000Z</time>
      </trkpt>
      <trkpt lat="41.242468" lon="1.447939">
        <ele>323.1</ele>
        <time>1970-01-01T01:04:15.000Z</time>
      </trkpt>
      <trkpt lat="41.242477" lon="1.447886">
        <ele>322</ele>
        <time>1970-01-01T01:04:16.000Z</time>
      </trkpt>
      <trkpt lat="41.242478" lon="1.44782">
        <ele>320.8</ele>
        <time>1970-01-01T01:04:17.000Z</time>
      </trkpt>
      <trkpt lat="41.242487" lon="1.447755">
        <ele>319.8</ele>
        <time>1970-01-01T01:04:18.000Z</time>
      </trkpt>
      <trkpt lat="41.24249" lon="1.447682">
        <ele>318.8</ele>
        <time>1970-01-01T01:04:19.000Z</time>
      </trkpt>
      <trkpt lat="41.242493" lon="1.447616">
        <ele>317.8</ele>
        <time>1970-01-01T01:04:20.000Z</time>
      </trkpt>
      <trkpt lat="41.242492" lon="1.447557">
        <ele>317</ele>
        <time>1970-01-01T01:04:21.000Z</time>
      </trkpt>
      <trkpt lat="41.242488" lon="1.447507">
        <ele>316.3</ele>
        <time>1970-01-01T01:04:22.000Z</time>
      </trkpt>
      <trkpt lat="41.242483" lon="1.447449">
        <ele>315.5</ele>
        <time>1970-01-01T01:04:23.000Z</time>
      </trkpt>
      <trkpt lat="41.242477" lon="1.447381">
        <ele>314.7</ele>
        <time>1970-01-01T01:04:24.000Z</time>
      </trkpt>
      <trkpt lat="41.242474" lon="1.44731">
        <ele>313.8</ele>
        <time>1970-01-01T01:04:25.000Z</time>
      </trkpt>
      <trkpt lat="41.242476" lon="1.447255">
        <ele>313.1</ele>
        <time>1970-01-01T01:04:26.000Z</time>
      </trkpt>
      <trkpt lat="41.242478" lon="1.447212">
        <ele>312.6</ele>
        <time>1970-01-01T01:04:27.000Z</time>
      </trkpt>
      <trkpt lat="41.242469" lon="1.447169">
        <ele>312.1</ele>
        <time>1970-01-01T01:04:28.000Z</time>
      </trkpt>
      <trkpt lat="41.24246" lon="1.447122">
        <ele>311.6</ele>
        <time>1970-01-01T01:04:29.000Z</time>
      </trkpt>
      <trkpt lat="41.242429" lon="1.44709">
        <ele>311.1</ele>
        <time>1970-01-01T01:04:31.000Z</time>
      </trkpt>
      <trkpt lat="41.242408" lon="1.447116">
        <ele>310.8</ele>
        <time>1970-01-01T01:04:32.000Z</time>
      </trkpt>
      <trkpt lat="41.242402" lon="1.447151">
        <ele>310.5</ele>
        <time>1970-01-01T01:04:33.000Z</time>
      </trkpt>
      <trkpt lat="41.242399" lon="1.447198">
        <ele>310.1</ele>
        <time>1970-01-01T01:04:34.000Z</time>
      </trkpt>
      <trkpt lat="41.242383" lon="1.447257">
        <ele>309.8</ele>
        <time>1970-01-01T01:04:35.000Z</time>
      </trkpt>
      <trkpt lat="41.242348" lon="1.447318">
        <ele>309.6</ele>
        <time>1970-01-01T01:04:36.000Z</time>
      </trkpt>
      <trkpt lat="41.242281" lon="1.447349">
        <ele>309.4</ele>
        <time>1970-01-01T01:04:37.000Z</time>
      </trkpt>
      <trkpt lat="41.242213" lon="1.447383">
        <ele>309.2</ele>
        <time>1970-01-01T01:04:38.000Z</time>
      </trkpt>
      <trkpt lat="41.242148" lon="1.447409">
        <ele>309</ele>
        <time>1970-01-01T01:04:39.000Z</time>
      </trkpt>
      <trkpt lat="41.24207" lon="1.447441">
        <ele>308.6</ele>
        <time>1970-01-01T01:04:40.000Z</time>
      </trkpt>
      <trkpt lat="41.241998" lon="1.447453">
        <ele>308.2</ele>
        <time>1970-01-01T01:04:41.000Z</time>
      </trkpt>
      <trkpt lat="41.241933" lon="1.447436">
        <ele>307.8</ele>
        <time>1970-01-01T01:04:42.000Z</time>
      </trkpt>
      <trkpt lat="41.241888" lon="1.447419">
        <ele>307.6</ele>
        <time>1970-01-01T01:04:43.000Z</time>
      </trkpt>
      <trkpt lat="41.241857" lon="1.447392">
        <ele>307.4</ele>
        <time>1970-01-01T01:04:44.000Z</time>
      </trkpt>
      <trkpt lat="41.241837" lon="1.447352">
        <ele>307.3</ele>
        <time>1970-01-01T01:04:46.000Z</time>
      </trkpt>
      <trkpt lat="41.24189" lon="1.44739">
        <ele>307</ele>
        <time>1970-01-01T01:04:49.000Z</time>
      </trkpt>
      <trkpt lat="41.241918" lon="1.447366">
        <ele>306.9</ele>
        <time>1970-01-01T01:04:50.000Z</time>
      </trkpt>
      <trkpt lat="41.241978" lon="1.447328">
        <ele>306.6</ele>
        <time>1970-01-01T01:04:51.000Z</time>
      </trkpt>
      <trkpt lat="41.242053" lon="1.447283">
        <ele>306.2</ele>
        <time>1970-01-01T01:04:52.000Z</time>
      </trkpt>
      <trkpt lat="41.242114" lon="1.447196">
        <ele>305.7</ele>
        <time>1970-01-01T01:04:53.000Z</time>
      </trkpt>
      <trkpt lat="41.242174" lon="1.447081">
        <ele>305.1</ele>
        <time>1970-01-01T01:04:54.000Z</time>
      </trkpt>
      <trkpt lat="41.2422" lon="1.446974">
        <ele>304.6</ele>
        <time>1970-01-01T01:04:55.000Z</time>
      </trkpt>
      <trkpt lat="41.242229" lon="1.446856">
        <ele>303.7</ele>
        <time>1970-01-01T01:04:56.000Z</time>
      </trkpt>
      <trkpt lat="41.24225" lon="1.446726">
        <ele>302.8</ele>
        <time>1970-01-01T01:04:57.000Z</time>
      </trkpt>
      <trkpt lat="41.242279" lon="1.446603">
        <ele>301.9</ele>
        <time>1970-01-01T01:04:58.000Z</time>
      </trkpt>
      <trkpt lat="41.242299" lon="1.446513">
        <ele>301.2</ele>
        <time>1970-01-01T01:04:59.000Z</time>
      </trkpt>
      <trkpt lat="41.242298" lon="1.44643">
        <ele>300.6</ele>
        <time>1970-01-01T01:05:00.000Z</time>
      </trkpt>
      <trkpt lat="41.242303" lon="1.446345">
        <ele>299.8</ele>
        <time>1970-01-01T01:05:01.000Z</time>
      </trkpt>
      <trkpt lat="41.242309" lon="1.446242">
        <ele>299</ele>
        <time>1970-01-01T01:05:02.000Z</time>
      </trkpt>
      <trkpt lat="41.242315" lon="1.446141">
        <ele>298.3</ele>
        <time>1970-01-01T01:05:03.000Z</time>
      </trkpt>
      <trkpt lat="41.24233" lon="1.446039">
        <ele>297.7</ele>
        <time>1970-01-01T01:05:04.000Z</time>
      </trkpt>
      <trkpt lat="41.24234" lon="1.445941">
        <ele>297.3</ele>
        <time>1970-01-01T01:05:05.000Z</time>
      </trkpt>
      <trkpt lat="41.242347" lon="1.445866">
        <ele>297</ele>
        <time>1970-01-01T01:05:06.000Z</time>
      </trkpt>
      <trkpt lat="41.242361" lon="1.445819">
        <ele>296.9</ele>
        <time>1970-01-01T01:05:07.000Z</time>
      </trkpt>
      <trkpt lat="41.242419" lon="1.445822">
        <ele>296.7</ele>
        <time>1970-01-01T01:05:08.000Z</time>
      </trkpt>
      <trkpt lat="41.242472" lon="1.445777">
        <ele>296.5</ele>
        <time>1970-01-01T01:05:09.000Z</time>
      </trkpt>
      <trkpt lat="41.242512" lon="1.445723">
        <ele>296.2</ele>
        <time>1970-01-01T01:05:10.000Z</time>
      </trkpt>
      <trkpt lat="41.242534" lon="1.44565">
        <ele>295.9</ele>
        <time>1970-01-01T01:05:11.000Z</time>
      </trkpt>
      <trkpt lat="41.242534" lon="1.445552">
        <ele>295.6</ele>
        <time>1970-01-01T01:05:12.000Z</time>
      </trkpt>
      <trkpt lat="41.242536" lon="1.445454">
        <ele>295.1</ele>
        <time>1970-01-01T01:05:13.000Z</time>
      </trkpt>
      <trkpt lat="41.242534" lon="1.445357">
        <ele>294.6</ele>
        <time>1970-01-01T01:05:14.000Z</time>
      </trkpt>
      <trkpt lat="41.242528" lon="1.445242">
        <ele>294.1</ele>
        <time>1970-01-01T01:05:15.000Z</time>
      </trkpt>
      <trkpt lat="41.242517" lon="1.445129">
        <ele>293.7</ele>
        <time>1970-01-01T01:05:16.000Z</time>
      </trkpt>
      <trkpt lat="41.242506" lon="1.445032">
        <ele>293.4</ele>
        <time>1970-01-01T01:05:17.000Z</time>
      </trkpt>
      <trkpt lat="41.242503" lon="1.444924">
        <ele>293.1</ele>
        <time>1970-01-01T01:05:18.000Z</time>
      </trkpt>
      <trkpt lat="41.242496" lon="1.444816">
        <ele>292.7</ele>
        <time>1970-01-01T01:05:19.000Z</time>
      </trkpt>
      <trkpt lat="41.242502" lon="1.444717">
        <ele>292.3</ele>
        <time>1970-01-01T01:05:20.000Z</time>
      </trkpt>
      <trkpt lat="41.242498" lon="1.444608">
        <ele>291.8</ele>
        <time>1970-01-01T01:05:21.000Z</time>
      </trkpt>
      <trkpt lat="41.242493" lon="1.444502">
        <ele>291.2</ele>
        <time>1970-01-01T01:05:22.000Z</time>
      </trkpt>
      <trkpt lat="41.242473" lon="1.444421">
        <ele>290.7</ele>
        <time>1970-01-01T01:05:23.000Z</time>
      </trkpt>
      <trkpt lat="41.242448" lon="1.444326">
        <ele>290.2</ele>
        <time>1970-01-01T01:05:24.000Z</time>
      </trkpt>
      <trkpt lat="41.242417" lon="1.444226">
        <ele>289.7</ele>
        <time>1970-01-01T01:05:25.000Z</time>
      </trkpt>
      <trkpt lat="41.242383" lon="1.444112">
        <ele>289.4</ele>
        <time>1970-01-01T01:05:26.000Z</time>
      </trkpt>
      <trkpt lat="41.242357" lon="1.444002">
        <ele>289</ele>
        <time>1970-01-01T01:05:27.000Z</time>
      </trkpt>
      <trkpt lat="41.242332" lon="1.443887">
        <ele>288.6</ele>
        <time>1970-01-01T01:05:28.000Z</time>
      </trkpt>
      <trkpt lat="41.242315" lon="1.443779">
        <ele>288.1</ele>
        <time>1970-01-01T01:05:29.000Z</time>
      </trkpt>
      <trkpt lat="41.242307" lon="1.443673">
        <ele>287.6</ele>
        <time>1970-01-01T01:05:30.000Z</time>
      </trkpt>
      <trkpt lat="41.242315" lon="1.443558">
        <ele>287</ele>
        <time>1970-01-01T01:05:31.000Z</time>
      </trkpt>
      <trkpt lat="41.242323" lon="1.443466">
        <ele>286.5</ele>
        <time>1970-01-01T01:05:32.000Z</time>
      </trkpt>
      <trkpt lat="41.242316" lon="1.44341">
        <ele>286.2</ele>
        <time>1970-01-01T01:05:33.000Z</time>
      </trkpt>
      <trkpt lat="41.242291" lon="1.443369">
        <ele>285.8</ele>
        <time>1970-01-01T01:05:34.000Z</time>
      </trkpt>
      <trkpt lat="41.24223" lon="1.443343">
        <ele>285.2</ele>
        <time>1970-01-01T01:05:35.000Z</time>
      </trkpt>
      <trkpt lat="41.242168" lon="1.443314">
        <ele>284.5</ele>
        <time>1970-01-01T01:05:36.000Z</time>
      </trkpt>
      <trkpt lat="41.242101" lon="1.443288">
        <ele>283.8</ele>
        <time>1970-01-01T01:05:37.000Z</time>
      </trkpt>
      <trkpt lat="41.242044" lon="1.443291">
        <ele>283.4</ele>
        <time>1970-01-01T01:05:38.000Z</time>
      </trkpt>
      <trkpt lat="41.24201" lon="1.443326">
        <ele>283.1</ele>
        <time>1970-01-01T01:05:39.000Z</time>
      </trkpt>
      <trkpt lat="41.241984" lon="1.443367">
        <ele>282.8</ele>
        <time>1970-01-01T01:05:40.000Z</time>
      </trkpt>
      <trkpt lat="41.241972" lon="1.443431">
        <ele>282.5</ele>
        <time>1970-01-01T01:05:41.000Z</time>
      </trkpt>
      <trkpt lat="41.241964" lon="1.443522">
        <ele>282.1</ele>
        <time>1970-01-01T01:05:42.000Z</time>
      </trkpt>
      <trkpt lat="41.241926" lon="1.443588">
        <ele>281.8</ele>
        <time>1970-01-01T01:05:43.000Z</time>
      </trkpt>
      <trkpt lat="41.241873" lon="1.443636">
        <ele>281.6</ele>
        <time>1970-01-01T01:05:44.000Z</time>
      </trkpt>
      <trkpt lat="41.241821" lon="1.443675">
        <ele>281.4</ele>
        <time>1970-01-01T01:05:45.000Z</time>
      </trkpt>
      <trkpt lat="41.241759" lon="1.443672">
        <ele>281.4</ele>
        <time>1970-01-01T01:05:46.000Z</time>
      </trkpt>
      <trkpt lat="41.241698" lon="1.443645">
        <ele>281.4</ele>
        <time>1970-01-01T01:05:47.000Z</time>
      </trkpt>
      <trkpt lat="41.241619" lon="1.443617">
        <ele>281.5</ele>
        <time>1970-01-01T01:05:48.000Z</time>
      </trkpt>
      <trkpt lat="41.241544" lon="1.443572">
        <ele>281.6</ele>
        <time>1970-01-01T01:05:49.000Z</time>
      </trkpt>
      <trkpt lat="41.241489" lon="1.443518">
        <ele>281.7</ele>
        <time>1970-01-01T01:05:50.000Z</time>
      </trkpt>
      <trkpt lat="41.241434" lon="1.443438">
        <ele>281.7</ele>
        <time>1970-01-01T01:05:51.000Z</time>
      </trkpt>
      <trkpt lat="41.241391" lon="1.44336">
        <ele>281.8</ele>
        <time>1970-01-01T01:05:52.000Z</time>
      </trkpt>
      <trkpt lat="41.24138" lon="1.443266">
        <ele>281.8</ele>
        <time>1970-01-01T01:05:53.000Z</time>
      </trkpt>
      <trkpt lat="41.24138" lon="1.443172">
        <ele>281.7</ele>
        <time>1970-01-01T01:05:54.000Z</time>
      </trkpt>
      <trkpt lat="41.241358" lon="1.443078">
        <ele>281.6</ele>
        <time>1970-01-01T01:05:55.000Z</time>
      </trkpt>
      <trkpt lat="41.241331" lon="1.443001">
        <ele>281.3</ele>
        <time>1970-01-01T01:05:56.000Z</time>
      </trkpt>
      <trkpt lat="41.241296" lon="1.442914">
        <ele>281.1</ele>
        <time>1970-01-01T01:05:57.000Z</time>
      </trkpt>
      <trkpt lat="41.241257" lon="1.44282">
        <ele>280.8</ele>
        <time>1970-01-01T01:05:58.000Z</time>
      </trkpt>
      <trkpt lat="41.241217" lon="1.442726">
        <ele>280.4</ele>
        <time>1970-01-01T01:05:59.000Z</time>
      </trkpt>
      <trkpt lat="41.241179" lon="1.442638">
        <ele>280</ele>
        <time>1970-01-01T01:06:00.000Z</time>
      </trkpt>
      <trkpt lat="41.241136" lon="1.442546">
        <ele>279.6</ele>
        <time>1970-01-01T01:06:01.000Z</time>
      </trkpt>
      <trkpt lat="41.24109" lon="1.442457">
        <ele>279</ele>
        <time>1970-01-01T01:06:02.000Z</time>
      </trkpt>
      <trkpt lat="41.241034" lon="1.442372">
        <ele>278.3</ele>
        <time>1970-01-01T01:06:03.000Z</time>
      </trkpt>
      <trkpt lat="41.240982" lon="1.442293">
        <ele>277.7</ele>
        <time>1970-01-01T01:06:04.000Z</time>
      </trkpt>
      <trkpt lat="41.240925" lon="1.442217">
        <ele>277.3</ele>
        <time>1970-01-01T01:06:05.000Z</time>
      </trkpt>
      <trkpt lat="41.240871" lon="1.442132">
        <ele>276.9</ele>
        <time>1970-01-01T01:06:06.000Z</time>
      </trkpt>
      <trkpt lat="41.240825" lon="1.442048">
        <ele>276.7</ele>
        <time>1970-01-01T01:06:07.000Z</time>
      </trkpt>
      <trkpt lat="41.240787" lon="1.441935">
        <ele>276.6</ele>
        <time>1970-01-01T01:06:08.000Z</time>
      </trkpt>
      <trkpt lat="41.240749" lon="1.441845">
        <ele>276.6</ele>
        <time>1970-01-01T01:06:09.000Z</time>
      </trkpt>
      <trkpt lat="41.24071" lon="1.44177">
        <ele>276.6</ele>
        <time>1970-01-01T01:06:10.000Z</time>
      </trkpt>
      <trkpt lat="41.240674" lon="1.441681">
        <ele>276.6</ele>
        <time>1970-01-01T01:06:11.000Z</time>
      </trkpt>
      <trkpt lat="41.240651" lon="1.441601">
        <ele>276.6</ele>
        <time>1970-01-01T01:06:12.000Z</time>
      </trkpt>
      <trkpt lat="41.240639" lon="1.441522">
        <ele>276.6</ele>
        <time>1970-01-01T01:06:13.000Z</time>
      </trkpt>
      <trkpt lat="41.240613" lon="1.441449">
        <ele>276.6</ele>
        <time>1970-01-01T01:06:14.000Z</time>
      </trkpt>
      <trkpt lat="41.240569" lon="1.441408">
        <ele>276.6</ele>
        <time>1970-01-01T01:06:15.000Z</time>
      </trkpt>
      <trkpt lat="41.240515" lon="1.441386">
        <ele>276.6</ele>
        <time>1970-01-01T01:06:16.000Z</time>
      </trkpt>
      <trkpt lat="41.240456" lon="1.441365">
        <ele>276.6</ele>
        <time>1970-01-01T01:06:17.000Z</time>
      </trkpt>
      <trkpt lat="41.240394" lon="1.44135">
        <ele>276.6</ele>
        <time>1970-01-01T01:06:18.000Z</time>
      </trkpt>
      <trkpt lat="41.240332" lon="1.441342">
        <ele>276.6</ele>
        <time>1970-01-01T01:06:19.000Z</time>
      </trkpt>
      <trkpt lat="41.24027" lon="1.441322">
        <ele>276.6</ele>
        <time>1970-01-01T01:06:20.000Z</time>
      </trkpt>
      <trkpt lat="41.240201" lon="1.4413">
        <ele>276.6</ele>
        <time>1970-01-01T01:06:21.000Z</time>
      </trkpt>
      <trkpt lat="41.240139" lon="1.441279">
        <ele>276.6</ele>
        <time>1970-01-01T01:06:22.000Z</time>
      </trkpt>
      <trkpt lat="41.240081" lon="1.441247">
        <ele>276.6</ele>
        <time>1970-01-01T01:06:23.000Z</time>
      </trkpt>
      <trkpt lat="41.240028" lon="1.441184">
        <ele>276.7</ele>
        <time>1970-01-01T01:06:24.000Z</time>
      </trkpt>
      <trkpt lat="41.239987" lon="1.441087">
        <ele>276.7</ele>
        <time>1970-01-01T01:06:25.000Z</time>
      </trkpt>
      <trkpt lat="41.239983" lon="1.440972">
        <ele>276.7</ele>
        <time>1970-01-01T01:06:26.000Z</time>
      </trkpt>
      <trkpt lat="41.239974" lon="1.440872">
        <ele>276.7</ele>
        <time>1970-01-01T01:06:27.000Z</time>
      </trkpt>
      <trkpt lat="41.239958" lon="1.440778">
        <ele>276.7</ele>
        <time>1970-01-01T01:06:28.000Z</time>
      </trkpt>
      <trkpt lat="41.239934" lon="1.440699">
        <ele>276.7</ele>
        <time>1970-01-01T01:06:29.000Z</time>
      </trkpt>
      <trkpt lat="41.239908" lon="1.440621">
        <ele>276.7</ele>
        <time>1970-01-01T01:06:30.000Z</time>
      </trkpt>
      <trkpt lat="41.239885" lon="1.440539">
        <ele>276.7</ele>
        <time>1970-01-01T01:06:31.000Z</time>
      </trkpt>
      <trkpt lat="41.239869" lon="1.440466">
        <ele>276.8</ele>
        <time>1970-01-01T01:06:32.000Z</time>
      </trkpt>
      <trkpt lat="41.239848" lon="1.440403">
        <ele>276.8</ele>
        <time>1970-01-01T01:06:33.000Z</time>
      </trkpt>
      <trkpt lat="41.239829" lon="1.440352">
        <ele>276.8</ele>
        <time>1970-01-01T01:06:34.000Z</time>
      </trkpt>
      <trkpt lat="41.239815" lon="1.440299">
        <ele>276.9</ele>
        <time>1970-01-01T01:06:35.000Z</time>
      </trkpt>
      <trkpt lat="41.239799" lon="1.440241">
        <ele>277.1</ele>
        <time>1970-01-01T01:06:36.000Z</time>
      </trkpt>
      <trkpt lat="41.239786" lon="1.440189">
        <ele>277.2</ele>
        <time>1970-01-01T01:06:37.000Z</time>
      </trkpt>
      <trkpt lat="41.239766" lon="1.440147">
        <ele>277.4</ele>
        <time>1970-01-01T01:06:38.000Z</time>
      </trkpt>
      <trkpt lat="41.239745" lon="1.440093">
        <ele>277.7</ele>
        <time>1970-01-01T01:06:39.000Z</time>
      </trkpt>
      <trkpt lat="41.239729" lon="1.440037">
        <ele>277.9</ele>
        <time>1970-01-01T01:06:40.000Z</time>
      </trkpt>
      <trkpt lat="41.239718" lon="1.43998">
        <ele>278.3</ele>
        <time>1970-01-01T01:06:41.000Z</time>
      </trkpt>
      <trkpt lat="41.239698" lon="1.439922">
        <ele>278.6</ele>
        <time>1970-01-01T01:06:42.000Z</time>
      </trkpt>
      <trkpt lat="41.23968" lon="1.439873">
        <ele>278.9</ele>
        <time>1970-01-01T01:06:43.000Z</time>
      </trkpt>
      <trkpt lat="41.239654" lon="1.439812">
        <ele>279.3</ele>
        <time>1970-01-01T01:06:44.000Z</time>
      </trkpt>
      <trkpt lat="41.239641" lon="1.439768">
        <ele>279.5</ele>
        <time>1970-01-01T01:06:45.000Z</time>
      </trkpt>
      <trkpt lat="41.239622" lon="1.43971">
        <ele>279.7</ele>
        <time>1970-01-01T01:06:46.000Z</time>
      </trkpt>
      <trkpt lat="41.239627" lon="1.439653">
        <ele>279.8</ele>
        <time>1970-01-01T01:06:47.000Z</time>
      </trkpt>
      <trkpt lat="41.239675" lon="1.439622">
        <ele>279.9</ele>
        <time>1970-01-01T01:06:48.000Z</time>
      </trkpt>
      <trkpt lat="41.239757" lon="1.439585">
        <ele>279.9</ele>
        <time>1970-01-01T01:06:49.000Z</time>
      </trkpt>
      <trkpt lat="41.239824" lon="1.439538">
        <ele>279.7</ele>
        <time>1970-01-01T01:06:50.000Z</time>
      </trkpt>
      <trkpt lat="41.239877" lon="1.439494">
        <ele>279.4</ele>
        <time>1970-01-01T01:06:51.000Z</time>
      </trkpt>
      <trkpt lat="41.239917" lon="1.439451">
        <ele>278.8</ele>
        <time>1970-01-01T01:06:52.000Z</time>
      </trkpt>
      <trkpt lat="41.239957" lon="1.439431">
        <ele>278.8</ele>
        <time>1970-01-01T01:06:54.000Z</time>
      </trkpt>
      <trkpt lat="41.240013" lon="1.439463">
        <ele>278.7</ele>
        <time>1970-01-01T01:06:56.000Z</time>
      </trkpt>
      <trkpt lat="41.240063" lon="1.439509">
        <ele>278.6</ele>
        <time>1970-01-01T01:06:57.000Z</time>
      </trkpt>
      <trkpt lat="41.240095" lon="1.439549">
        <ele>278.5</ele>
        <time>1970-01-01T01:06:58.000Z</time>
      </trkpt>
      <trkpt lat="41.240136" lon="1.439597">
        <ele>278.3</ele>
        <time>1970-01-01T01:06:59.000Z</time>
      </trkpt>
      <trkpt lat="41.240175" lon="1.439633">
        <ele>278.2</ele>
        <time>1970-01-01T01:07:00.000Z</time>
      </trkpt>
      <trkpt lat="41.240204" lon="1.439651">
        <ele>278</ele>
        <time>1970-01-01T01:07:01.000Z</time>
      </trkpt>
      <trkpt lat="41.240228" lon="1.439623">
        <ele>277.9</ele>
        <time>1970-01-01T01:07:02.000Z</time>
      </trkpt>
      <trkpt lat="41.240237" lon="1.43958">
        <ele>277.7</ele>
        <time>1970-01-01T01:07:03.000Z</time>
      </trkpt>
      <trkpt lat="41.240263" lon="1.439519">
        <ele>277.5</ele>
        <time>1970-01-01T01:07:04.000Z</time>
      </trkpt>
      <trkpt lat="41.240294" lon="1.439451">
        <ele>277.2</ele>
        <time>1970-01-01T01:07:05.000Z</time>
      </trkpt>
      <trkpt lat="41.240324" lon="1.439389">
        <ele>276.9</ele>
        <time>1970-01-01T01:07:06.000Z</time>
      </trkpt>
      <trkpt lat="41.24035" lon="1.439335">
        <ele>276.6</ele>
        <time>1970-01-01T01:07:07.000Z</time>
      </trkpt>
      <trkpt lat="41.240378" lon="1.439276">
        <ele>276.3</ele>
        <time>1970-01-01T01:07:08.000Z</time>
      </trkpt>
      <trkpt lat="41.240402" lon="1.439211">
        <ele>276</ele>
        <time>1970-01-01T01:07:09.000Z</time>
      </trkpt>
      <trkpt lat="41.240429" lon="1.439171">
        <ele>275.9</ele>
        <time>1970-01-01T01:07:10.000Z</time>
      </trkpt>
      <trkpt lat="41.240456" lon="1.439124">
        <ele>275.7</ele>
        <time>1970-01-01T01:07:11.000Z</time>
      </trkpt>
      <trkpt lat="41.24049" lon="1.439062">
        <ele>275.5</ele>
        <time>1970-01-01T01:07:12.000Z</time>
      </trkpt>
      <trkpt lat="41.240524" lon="1.439015">
        <ele>275.3</ele>
        <time>1970-01-01T01:07:13.000Z</time>
      </trkpt>
      <trkpt lat="41.240567" lon="1.438946">
        <ele>275.1</ele>
        <time>1970-01-01T01:07:14.000Z</time>
      </trkpt>
      <trkpt lat="41.240606" lon="1.438864">
        <ele>274.8</ele>
        <time>1970-01-01T01:07:15.000Z</time>
      </trkpt>
      <trkpt lat="41.24064" lon="1.438793">
        <ele>274.6</ele>
        <time>1970-01-01T01:07:16.000Z</time>
      </trkpt>
      <trkpt lat="41.240662" lon="1.438744">
        <ele>274.5</ele>
        <time>1970-01-01T01:07:17.000Z</time>
      </trkpt>
      <trkpt lat="41.240689" lon="1.438676">
        <ele>274.2</ele>
        <time>1970-01-01T01:07:18.000Z</time>
      </trkpt>
      <trkpt lat="41.24071" lon="1.43862">
        <ele>274</ele>
        <time>1970-01-01T01:07:19.000Z</time>
      </trkpt>
      <trkpt lat="41.240751" lon="1.438567">
        <ele>273.8</ele>
        <time>1970-01-01T01:07:20.000Z</time>
      </trkpt>
      <trkpt lat="41.240824" lon="1.438532">
        <ele>273.6</ele>
        <time>1970-01-01T01:07:21.000Z</time>
      </trkpt>
      <trkpt lat="41.240886" lon="1.438512">
        <ele>273.3</ele>
        <time>1970-01-01T01:07:22.000Z</time>
      </trkpt>
      <trkpt lat="41.240941" lon="1.43849">
        <ele>273</ele>
        <time>1970-01-01T01:07:23.000Z</time>
      </trkpt>
      <trkpt lat="41.240986" lon="1.43848">
        <ele>272.8</ele>
        <time>1970-01-01T01:07:24.000Z</time>
      </trkpt>
      <trkpt lat="41.241033" lon="1.438472">
        <ele>272.6</ele>
        <time>1970-01-01T01:07:25.000Z</time>
      </trkpt>
      <trkpt lat="41.241097" lon="1.438463">
        <ele>272.4</ele>
        <time>1970-01-01T01:07:26.000Z</time>
      </trkpt>
      <trkpt lat="41.241146" lon="1.438453">
        <ele>272.2</ele>
        <time>1970-01-01T01:07:27.000Z</time>
      </trkpt>
      <trkpt lat="41.241181" lon="1.438382">
        <ele>271.9</ele>
        <time>1970-01-01T01:07:28.000Z</time>
      </trkpt>
      <trkpt lat="41.241219" lon="1.438327">
        <ele>271.7</ele>
        <time>1970-01-01T01:07:29.000Z</time>
      </trkpt>
      <trkpt lat="41.241259" lon="1.438273">
        <ele>271.4</ele>
        <time>1970-01-01T01:07:30.000Z</time>
      </trkpt>
      <trkpt lat="41.241323" lon="1.438233">
        <ele>271.1</ele>
        <time>1970-01-01T01:07:31.000Z</time>
      </trkpt>
      <trkpt lat="41.241385" lon="1.438205">
        <ele>270.7</ele>
        <time>1970-01-01T01:07:32.000Z</time>
      </trkpt>
      <trkpt lat="41.241445" lon="1.438181">
        <ele>270.3</ele>
        <time>1970-01-01T01:07:33.000Z</time>
      </trkpt>
      <trkpt lat="41.241501" lon="1.43818">
        <ele>270</ele>
        <time>1970-01-01T01:07:34.000Z</time>
      </trkpt>
      <trkpt lat="41.241552" lon="1.438198">
        <ele>269.7</ele>
        <time>1970-01-01T01:07:35.000Z</time>
      </trkpt>
      <trkpt lat="41.241607" lon="1.438219">
        <ele>269.3</ele>
        <time>1970-01-01T01:07:36.000Z</time>
      </trkpt>
      <trkpt lat="41.241644" lon="1.438207">
        <ele>269.1</ele>
        <time>1970-01-01T01:07:37.000Z</time>
      </trkpt>
      <trkpt lat="41.241681" lon="1.438154">
        <ele>268.8</ele>
        <time>1970-01-01T01:07:38.000Z</time>
      </trkpt>
      <trkpt lat="41.241731" lon="1.438092">
        <ele>268.4</ele>
        <time>1970-01-01T01:07:39.000Z</time>
      </trkpt>
      <trkpt lat="41.241786" lon="1.438049">
        <ele>268.2</ele>
        <time>1970-01-01T01:07:40.000Z</time>
      </trkpt>
      <trkpt lat="41.241842" lon="1.437999">
        <ele>267.9</ele>
        <time>1970-01-01T01:07:41.000Z</time>
      </trkpt>
      <trkpt lat="41.241887" lon="1.437956">
        <ele>267.7</ele>
        <time>1970-01-01T01:07:42.000Z</time>
      </trkpt>
      <trkpt lat="41.241929" lon="1.437882">
        <ele>267.5</ele>
        <time>1970-01-01T01:07:43.000Z</time>
      </trkpt>
      <trkpt lat="41.24197" lon="1.437837">
        <ele>267.3</ele>
        <time>1970-01-01T01:07:44.000Z</time>
      </trkpt>
      <trkpt lat="41.24203" lon="1.437812">
        <ele>267.1</ele>
        <time>1970-01-01T01:07:45.000Z</time>
      </trkpt>
      <trkpt lat="41.242083" lon="1.437821">
        <ele>266.9</ele>
        <time>1970-01-01T01:07:46.000Z</time>
      </trkpt>
      <trkpt lat="41.242126" lon="1.437859">
        <ele>266.7</ele>
        <time>1970-01-01T01:07:47.000Z</time>
      </trkpt>
      <trkpt lat="41.242165" lon="1.437862">
        <ele>266.6</ele>
        <time>1970-01-01T01:07:48.000Z</time>
      </trkpt>
      <trkpt lat="41.242193" lon="1.437845">
        <ele>266.4</ele>
        <time>1970-01-01T01:07:49.000Z</time>
      </trkpt>
      <trkpt lat="41.242233" lon="1.43784">
        <ele>266.3</ele>
        <time>1970-01-01T01:07:50.000Z</time>
      </trkpt>
      <trkpt lat="41.242289" lon="1.43782">
        <ele>266.1</ele>
        <time>1970-01-01T01:07:51.000Z</time>
      </trkpt>
      <trkpt lat="41.242333" lon="1.437792">
        <ele>266</ele>
        <time>1970-01-01T01:07:52.000Z</time>
      </trkpt>
      <trkpt lat="41.242383" lon="1.43776">
        <ele>265.8</ele>
        <time>1970-01-01T01:07:53.000Z</time>
      </trkpt>
      <trkpt lat="41.24243" lon="1.437724">
        <ele>265.7</ele>
        <time>1970-01-01T01:07:54.000Z</time>
      </trkpt>
      <trkpt lat="41.242466" lon="1.437669">
        <ele>265.6</ele>
        <time>1970-01-01T01:07:55.000Z</time>
      </trkpt>
      <trkpt lat="41.242516" lon="1.437623">
        <ele>265.5</ele>
        <time>1970-01-01T01:07:56.000Z</time>
      </trkpt>
      <trkpt lat="41.242559" lon="1.437579">
        <ele>265.4</ele>
        <time>1970-01-01T01:07:57.000Z</time>
      </trkpt>
      <trkpt lat="41.242602" lon="1.437546">
        <ele>265.3</ele>
        <time>1970-01-01T01:07:58.000Z</time>
      </trkpt>
      <trkpt lat="41.242658" lon="1.437521">
        <ele>265.2</ele>
        <time>1970-01-01T01:07:59.000Z</time>
      </trkpt>
      <trkpt lat="41.242705" lon="1.437504">
        <ele>265.1</ele>
        <time>1970-01-01T01:08:00.000Z</time>
      </trkpt>
      <trkpt lat="41.24276" lon="1.437492">
        <ele>265</ele>
        <time>1970-01-01T01:08:01.000Z</time>
      </trkpt>
      <trkpt lat="41.242802" lon="1.437451">
        <ele>264.9</ele>
        <time>1970-01-01T01:08:02.000Z</time>
      </trkpt>
      <trkpt lat="41.242851" lon="1.437404">
        <ele>264.8</ele>
        <time>1970-01-01T01:08:03.000Z</time>
      </trkpt>
      <trkpt lat="41.242897" lon="1.437381">
        <ele>264.8</ele>
        <time>1970-01-01T01:08:04.000Z</time>
      </trkpt>
      <trkpt lat="41.242947" lon="1.437368">
        <ele>264.7</ele>
        <time>1970-01-01T01:08:05.000Z</time>
      </trkpt>
      <trkpt lat="41.24302" lon="1.437387">
        <ele>264.6</ele>
        <time>1970-01-01T01:08:06.000Z</time>
      </trkpt>
      <trkpt lat="41.243065" lon="1.437405">
        <ele>264.5</ele>
        <time>1970-01-01T01:08:07.000Z</time>
      </trkpt>
      <trkpt lat="41.24312" lon="1.437447">
        <ele>264.3</ele>
        <time>1970-01-01T01:08:08.000Z</time>
      </trkpt>
      <trkpt lat="41.243153" lon="1.437447">
        <ele>264.2</ele>
        <time>1970-01-01T01:08:09.000Z</time>
      </trkpt>
      <trkpt lat="41.243176" lon="1.437403">
        <ele>264.1</ele>
        <time>1970-01-01T01:08:10.000Z</time>
      </trkpt>
      <trkpt lat="41.243187" lon="1.437349">
        <ele>264</ele>
        <time>1970-01-01T01:08:11.000Z</time>
      </trkpt>
      <trkpt lat="41.243193" lon="1.437306">
        <ele>263.9</ele>
        <time>1970-01-01T01:08:12.000Z</time>
      </trkpt>
      <trkpt lat="41.243201" lon="1.437255">
        <ele>263.8</ele>
        <time>1970-01-01T01:08:13.000Z</time>
      </trkpt>
      <trkpt lat="41.243198" lon="1.43721">
        <ele>263.8</ele>
        <time>1970-01-01T01:08:14.000Z</time>
      </trkpt>
      <trkpt lat="41.243198" lon="1.437157">
        <ele>263.7</ele>
        <time>1970-01-01T01:08:15.000Z</time>
      </trkpt>
      <trkpt lat="41.243209" lon="1.4371">
        <ele>263.6</ele>
        <time>1970-01-01T01:08:16.000Z</time>
      </trkpt>
      <trkpt lat="41.243228" lon="1.437048">
        <ele>263.6</ele>
        <time>1970-01-01T01:08:17.000Z</time>
      </trkpt>
      <trkpt lat="41.243262" lon="1.437">
        <ele>263.5</ele>
        <time>1970-01-01T01:08:18.000Z</time>
      </trkpt>
      <trkpt lat="41.243286" lon="1.436956">
        <ele>263.4</ele>
        <time>1970-01-01T01:08:19.000Z</time>
      </trkpt>
      <trkpt lat="41.243321" lon="1.43694">
        <ele>263.3</ele>
        <time>1970-01-01T01:08:20.000Z</time>
      </trkpt>
      <trkpt lat="41.243347" lon="1.436924">
        <ele>263.3</ele>
        <time>1970-01-01T01:08:21.000Z</time>
      </trkpt>
      <trkpt lat="41.24339" lon="1.436917">
        <ele>263.2</ele>
        <time>1970-01-01T01:08:22.000Z</time>
      </trkpt>
      <trkpt lat="41.24342" lon="1.436888">
        <ele>263.1</ele>
        <time>1970-01-01T01:08:23.000Z</time>
      </trkpt>
      <trkpt lat="41.243442" lon="1.43684">
        <ele>263.1</ele>
        <time>1970-01-01T01:08:24.000Z</time>
      </trkpt>
      <trkpt lat="41.24346" lon="1.436792">
        <ele>263</ele>
        <time>1970-01-01T01:08:25.000Z</time>
      </trkpt>
      <trkpt lat="41.243492" lon="1.436772">
        <ele>263</ele>
        <time>1970-01-01T01:08:26.000Z</time>
      </trkpt>
      <trkpt lat="41.243526" lon="1.436773">
        <ele>262.9</ele>
        <time>1970-01-01T01:08:27.000Z</time>
      </trkpt>
      <trkpt lat="41.243564" lon="1.436785">
        <ele>262.9</ele>
        <time>1970-01-01T01:08:28.000Z</time>
      </trkpt>
      <trkpt lat="41.243598" lon="1.436762">
        <ele>262.8</ele>
        <time>1970-01-01T01:08:29.000Z</time>
      </trkpt>
      <trkpt lat="41.243633" lon="1.436741">
        <ele>262.8</ele>
        <time>1970-01-01T01:08:30.000Z</time>
      </trkpt>
      <trkpt lat="41.243675" lon="1.436706">
        <ele>262.7</ele>
        <time>1970-01-01T01:08:31.000Z</time>
      </trkpt>
      <trkpt lat="41.243709" lon="1.436648">
        <ele>262.6</ele>
        <time>1970-01-01T01:08:32.000Z</time>
      </trkpt>
      <trkpt lat="41.243757" lon="1.436617">
        <ele>262.5</ele>
        <time>1970-01-01T01:08:33.000Z</time>
      </trkpt>
      <trkpt lat="41.243809" lon="1.436577">
        <ele>262.4</ele>
        <time>1970-01-01T01:08:34.000Z</time>
      </trkpt>
      <trkpt lat="41.243854" lon="1.436545">
        <ele>262.2</ele>
        <time>1970-01-01T01:08:35.000Z</time>
      </trkpt>
      <trkpt lat="41.243888" lon="1.436518">
        <ele>262.1</ele>
        <time>1970-01-01T01:08:36.000Z</time>
      </trkpt>
      <trkpt lat="41.243924" lon="1.436484">
        <ele>262</ele>
        <time>1970-01-01T01:08:37.000Z</time>
      </trkpt>
      <trkpt lat="41.243961" lon="1.436447">
        <ele>261.8</ele>
        <time>1970-01-01T01:08:38.000Z</time>
      </trkpt>
      <trkpt lat="41.244005" lon="1.436421">
        <ele>261.7</ele>
        <time>1970-01-01T01:08:39.000Z</time>
      </trkpt>
      <trkpt lat="41.244049" lon="1.436395">
        <ele>261.6</ele>
        <time>1970-01-01T01:08:40.000Z</time>
      </trkpt>
      <trkpt lat="41.244097" lon="1.436383">
        <ele>261.4</ele>
        <time>1970-01-01T01:08:41.000Z</time>
      </trkpt>
      <trkpt lat="41.244136" lon="1.436373">
        <ele>261.3</ele>
        <time>1970-01-01T01:08:42.000Z</time>
      </trkpt>
      <trkpt lat="41.244174" lon="1.436355">
        <ele>261.2</ele>
        <time>1970-01-01T01:08:43.000Z</time>
      </trkpt>
      <trkpt lat="41.244215" lon="1.436323">
        <ele>261.1</ele>
        <time>1970-01-01T01:08:44.000Z</time>
      </trkpt>
      <trkpt lat="41.244264" lon="1.436283">
        <ele>260.9</ele>
        <time>1970-01-01T01:08:45.000Z</time>
      </trkpt>
      <trkpt lat="41.244305" lon="1.436253">
        <ele>260.7</ele>
        <time>1970-01-01T01:08:46.000Z</time>
      </trkpt>
      <trkpt lat="41.244348" lon="1.436225">
        <ele>260.5</ele>
        <time>1970-01-01T01:08:47.000Z</time>
      </trkpt>
      <trkpt lat="41.24439" lon="1.436178">
        <ele>260.3</ele>
        <time>1970-01-01T01:08:48.000Z</time>
      </trkpt>
      <trkpt lat="41.244435" lon="1.436137">
        <ele>260.1</ele>
        <time>1970-01-01T01:08:49.000Z</time>
      </trkpt>
      <trkpt lat="41.244485" lon="1.436097">
        <ele>259.9</ele>
        <time>1970-01-01T01:08:50.000Z</time>
      </trkpt>
      <trkpt lat="41.244539" lon="1.436065">
        <ele>259.6</ele>
        <time>1970-01-01T01:08:51.000Z</time>
      </trkpt>
      <trkpt lat="41.244589" lon="1.436038">
        <ele>259.4</ele>
        <time>1970-01-01T01:08:52.000Z</time>
      </trkpt>
      <trkpt lat="41.244628" lon="1.436021">
        <ele>259.2</ele>
        <time>1970-01-01T01:08:53.000Z</time>
      </trkpt>
      <trkpt lat="41.244672" lon="1.436005">
        <ele>259.1</ele>
        <time>1970-01-01T01:08:54.000Z</time>
      </trkpt>
      <trkpt lat="41.244721" lon="1.435986">
        <ele>258.9</ele>
        <time>1970-01-01T01:08:55.000Z</time>
      </trkpt>
      <trkpt lat="41.244773" lon="1.435966">
        <ele>258.7</ele>
        <time>1970-01-01T01:08:56.000Z</time>
      </trkpt>
      <trkpt lat="41.244829" lon="1.435938">
        <ele>258.5</ele>
        <time>1970-01-01T01:08:57.000Z</time>
      </trkpt>
      <trkpt lat="41.244878" lon="1.435902">
        <ele>258.4</ele>
        <time>1970-01-01T01:08:58.000Z</time>
      </trkpt>
      <trkpt lat="41.244917" lon="1.435873">
        <ele>258.3</ele>
        <time>1970-01-01T01:08:59.000Z</time>
      </trkpt>
      <trkpt lat="41.244963" lon="1.435849">
        <ele>258.2</ele>
        <time>1970-01-01T01:09:00.000Z</time>
      </trkpt>
      <trkpt lat="41.244999" lon="1.435835">
        <ele>258.2</ele>
        <time>1970-01-01T01:09:01.000Z</time>
      </trkpt>
      <trkpt lat="41.245047" lon="1.435815">
        <ele>258.1</ele>
        <time>1970-01-01T01:09:02.000Z</time>
      </trkpt>
      <trkpt lat="41.245094" lon="1.435801">
        <ele>258.1</ele>
        <time>1970-01-01T01:09:03.000Z</time>
      </trkpt>
      <trkpt lat="41.24514" lon="1.435775">
        <ele>258.1</ele>
        <time>1970-01-01T01:09:04.000Z</time>
      </trkpt>
      <trkpt lat="41.245182" lon="1.43576">
        <ele>258.1</ele>
        <time>1970-01-01T01:09:05.000Z</time>
      </trkpt>
      <trkpt lat="41.245229" lon="1.435743">
        <ele>258.1</ele>
        <time>1970-01-01T01:09:06.000Z</time>
      </trkpt>
      <trkpt lat="41.245274" lon="1.435721">
        <ele>258.2</ele>
        <time>1970-01-01T01:09:07.000Z</time>
      </trkpt>
      <trkpt lat="41.245317" lon="1.435696">
        <ele>258.2</ele>
        <time>1970-01-01T01:09:08.000Z</time>
      </trkpt>
      <trkpt lat="41.245362" lon="1.435663">
        <ele>258.3</ele>
        <time>1970-01-01T01:09:09.000Z</time>
      </trkpt>
      <trkpt lat="41.245408" lon="1.435622">
        <ele>258.4</ele>
        <time>1970-01-01T01:09:10.000Z</time>
      </trkpt>
      <trkpt lat="41.245449" lon="1.435581">
        <ele>258.5</ele>
        <time>1970-01-01T01:09:11.000Z</time>
      </trkpt>
      <trkpt lat="41.245485" lon="1.435525">
        <ele>258.5</ele>
        <time>1970-01-01T01:09:12.000Z</time>
      </trkpt>
      <trkpt lat="41.245521" lon="1.43548">
        <ele>258.6</ele>
        <time>1970-01-01T01:09:13.000Z</time>
      </trkpt>
      <trkpt lat="41.245561" lon="1.435438">
        <ele>258.7</ele>
        <time>1970-01-01T01:09:14.000Z</time>
      </trkpt>
      <trkpt lat="41.24561" lon="1.435416">
        <ele>258.7</ele>
        <time>1970-01-01T01:09:15.000Z</time>
      </trkpt>
      <trkpt lat="41.24566" lon="1.435383">
        <ele>258.8</ele>
        <time>1970-01-01T01:09:16.000Z</time>
      </trkpt>
      <trkpt lat="41.245715" lon="1.435351">
        <ele>258.9</ele>
        <time>1970-01-01T01:09:17.000Z</time>
      </trkpt>
      <trkpt lat="41.245769" lon="1.43534">
        <ele>258.9</ele>
        <time>1970-01-01T01:09:18.000Z</time>
      </trkpt>
      <trkpt lat="41.245841" lon="1.435334">
        <ele>259</ele>
        <time>1970-01-01T01:09:19.000Z</time>
      </trkpt>
      <trkpt lat="41.24589" lon="1.435318">
        <ele>259.1</ele>
        <time>1970-01-01T01:09:20.000Z</time>
      </trkpt>
      <trkpt lat="41.245942" lon="1.435304">
        <ele>259.2</ele>
        <time>1970-01-01T01:09:21.000Z</time>
      </trkpt>
      <trkpt lat="41.245999" lon="1.435288">
        <ele>259.3</ele>
        <time>1970-01-01T01:09:22.000Z</time>
      </trkpt>
      <trkpt lat="41.246049" lon="1.435277">
        <ele>259.4</ele>
        <time>1970-01-01T01:09:23.000Z</time>
      </trkpt>
      <trkpt lat="41.246107" lon="1.435265">
        <ele>259.5</ele>
        <time>1970-01-01T01:09:24.000Z</time>
      </trkpt>
      <trkpt lat="41.246159" lon="1.435249">
        <ele>259.5</ele>
        <time>1970-01-01T01:09:25.000Z</time>
      </trkpt>
      <trkpt lat="41.246215" lon="1.435243">
        <ele>259.6</ele>
        <time>1970-01-01T01:09:26.000Z</time>
      </trkpt>
      <trkpt lat="41.246269" lon="1.435241">
        <ele>259.7</ele>
        <time>1970-01-01T01:09:27.000Z</time>
      </trkpt>
      <trkpt lat="41.246326" lon="1.435239">
        <ele>259.7</ele>
        <time>1970-01-01T01:09:28.000Z</time>
      </trkpt>
      <trkpt lat="41.246382" lon="1.435219">
        <ele>259.7</ele>
        <time>1970-01-01T01:09:29.000Z</time>
      </trkpt>
      <trkpt lat="41.246441" lon="1.435213">
        <ele>259.7</ele>
        <time>1970-01-01T01:09:30.000Z</time>
      </trkpt>
      <trkpt lat="41.246499" lon="1.43522">
        <ele>259.6</ele>
        <time>1970-01-01T01:09:31.000Z</time>
      </trkpt>
      <trkpt lat="41.246569" lon="1.435225">
        <ele>259.5</ele>
        <time>1970-01-01T01:09:32.000Z</time>
      </trkpt>
      <trkpt lat="41.246629" lon="1.435221">
        <ele>259.5</ele>
        <time>1970-01-01T01:09:33.000Z</time>
      </trkpt>
      <trkpt lat="41.246686" lon="1.435221">
        <ele>259.4</ele>
        <time>1970-01-01T01:09:34.000Z</time>
      </trkpt>
      <trkpt lat="41.246757" lon="1.435219">
        <ele>259.2</ele>
        <time>1970-01-01T01:09:35.000Z</time>
      </trkpt>
      <trkpt lat="41.24682" lon="1.435218">
        <ele>259.1</ele>
        <time>1970-01-01T01:09:36.000Z</time>
      </trkpt>
      <trkpt lat="41.246887" lon="1.435209">
        <ele>259</ele>
        <time>1970-01-01T01:09:37.000Z</time>
      </trkpt>
      <trkpt lat="41.246945" lon="1.435206">
        <ele>258.8</ele>
        <time>1970-01-01T01:09:38.000Z</time>
      </trkpt>
      <trkpt lat="41.247" lon="1.435202">
        <ele>258.7</ele>
        <time>1970-01-01T01:09:39.000Z</time>
      </trkpt>
      <trkpt lat="41.247043" lon="1.435199">
        <ele>258.6</ele>
        <time>1970-01-01T01:09:40.000Z</time>
      </trkpt>
      <trkpt lat="41.247069" lon="1.435179">
        <ele>258.5</ele>
        <time>1970-01-01T01:09:41.000Z</time>
      </trkpt>
      <trkpt lat="41.247073" lon="1.435135">
        <ele>258.4</ele>
        <time>1970-01-01T01:09:42.000Z</time>
      </trkpt>
      <trkpt lat="41.247071" lon="1.435079">
        <ele>258</ele>
        <time>1970-01-01T01:09:43.000Z</time>
      </trkpt>
      <trkpt lat="41.247073" lon="1.43501">
        <ele>257.7</ele>
        <time>1970-01-01T01:09:44.000Z</time>
      </trkpt>
      <trkpt lat="41.24708" lon="1.434931">
        <ele>257.4</ele>
        <time>1970-01-01T01:09:45.000Z</time>
      </trkpt>
      <trkpt lat="41.247093" lon="1.434851">
        <ele>257.1</ele>
        <time>1970-01-01T01:09:46.000Z</time>
      </trkpt>
      <trkpt lat="41.247102" lon="1.434765">
        <ele>256.6</ele>
        <time>1970-01-01T01:09:47.000Z</time>
      </trkpt>
      <trkpt lat="41.247109" lon="1.434669">
        <ele>256.1</ele>
        <time>1970-01-01T01:09:48.000Z</time>
      </trkpt>
      <trkpt lat="41.247123" lon="1.434569">
        <ele>255.6</ele>
        <time>1970-01-01T01:09:49.000Z</time>
      </trkpt>
      <trkpt lat="41.247132" lon="1.434486">
        <ele>255.2</ele>
        <time>1970-01-01T01:09:50.000Z</time>
      </trkpt>
      <trkpt lat="41.247145" lon="1.434407">
        <ele>254.8</ele>
        <time>1970-01-01T01:09:51.000Z</time>
      </trkpt>
      <trkpt lat="41.247159" lon="1.434334">
        <ele>254.4</ele>
        <time>1970-01-01T01:09:52.000Z</time>
      </trkpt>
      <trkpt lat="41.247177" lon="1.434273">
        <ele>253.9</ele>
        <time>1970-01-01T01:09:53.000Z</time>
      </trkpt>
      <trkpt lat="41.247194" lon="1.434223">
        <ele>253.6</ele>
        <time>1970-01-01T01:09:54.000Z</time>
      </trkpt>
      <trkpt lat="41.247215" lon="1.43415">
        <ele>253.2</ele>
        <time>1970-01-01T01:09:55.000Z</time>
      </trkpt>
      <trkpt lat="41.247234" lon="1.434073">
        <ele>252.8</ele>
        <time>1970-01-01T01:09:56.000Z</time>
      </trkpt>
      <trkpt lat="41.247252" lon="1.433976">
        <ele>252.1</ele>
        <time>1970-01-01T01:09:57.000Z</time>
      </trkpt>
      <trkpt lat="41.247274" lon="1.433877">
        <ele>251.4</ele>
        <time>1970-01-01T01:09:58.000Z</time>
      </trkpt>
      <trkpt lat="41.247288" lon="1.433767">
        <ele>250.8</ele>
        <time>1970-01-01T01:09:59.000Z</time>
      </trkpt>
      <trkpt lat="41.247296" lon="1.433684">
        <ele>250.4</ele>
        <time>1970-01-01T01:10:00.000Z</time>
      </trkpt>
      <trkpt lat="41.247305" lon="1.433586">
        <ele>249.7</ele>
        <time>1970-01-01T01:10:01.000Z</time>
      </trkpt>
      <trkpt lat="41.247319" lon="1.433493">
        <ele>249.1</ele>
        <time>1970-01-01T01:10:02.000Z</time>
      </trkpt>
      <trkpt lat="41.247336" lon="1.433407">
        <ele>248.4</ele>
        <time>1970-01-01T01:10:03.000Z</time>
      </trkpt>
      <trkpt lat="41.247352" lon="1.433323">
        <ele>247.8</ele>
        <time>1970-01-01T01:10:04.000Z</time>
      </trkpt>
      <trkpt lat="41.247383" lon="1.433219">
        <ele>246.9</ele>
        <time>1970-01-01T01:10:05.000Z</time>
      </trkpt>
      <trkpt lat="41.247425" lon="1.433129">
        <ele>246.3</ele>
        <time>1970-01-01T01:10:06.000Z</time>
      </trkpt>
      <trkpt lat="41.247473" lon="1.433048">
        <ele>245.7</ele>
        <time>1970-01-01T01:10:07.000Z</time>
      </trkpt>
      <trkpt lat="41.247549" lon="1.432969">
        <ele>245</ele>
        <time>1970-01-01T01:10:08.000Z</time>
      </trkpt>
      <trkpt lat="41.247615" lon="1.432897">
        <ele>244.7</ele>
        <time>1970-01-01T01:10:09.000Z</time>
      </trkpt>
      <trkpt lat="41.24766" lon="1.432804">
        <ele>244.5</ele>
        <time>1970-01-01T01:10:10.000Z</time>
      </trkpt>
      <trkpt lat="41.247677" lon="1.432713">
        <ele>244.3</ele>
        <time>1970-01-01T01:10:11.000Z</time>
      </trkpt>
      <trkpt lat="41.247675" lon="1.432635">
        <ele>244.3</ele>
        <time>1970-01-01T01:10:12.000Z</time>
      </trkpt>
      <trkpt lat="41.247655" lon="1.432542">
        <ele>244.3</ele>
        <time>1970-01-01T01:10:13.000Z</time>
      </trkpt>
      <trkpt lat="41.24763" lon="1.43247">
        <ele>244.5</ele>
        <time>1970-01-01T01:10:14.000Z</time>
      </trkpt>
      <trkpt lat="41.247616" lon="1.432404">
        <ele>244.6</ele>
        <time>1970-01-01T01:10:15.000Z</time>
      </trkpt>
      <trkpt lat="41.247619" lon="1.432308">
        <ele>244.9</ele>
        <time>1970-01-01T01:10:16.000Z</time>
      </trkpt>
      <trkpt lat="41.247641" lon="1.432229">
        <ele>245.1</ele>
        <time>1970-01-01T01:10:17.000Z</time>
      </trkpt>
      <trkpt lat="41.247675" lon="1.43216">
        <ele>245.3</ele>
        <time>1970-01-01T01:10:18.000Z</time>
      </trkpt>
      <trkpt lat="41.247721" lon="1.432112">
        <ele>245.5</ele>
        <time>1970-01-01T01:10:19.000Z</time>
      </trkpt>
      <trkpt lat="41.247737" lon="1.432073">
        <ele>245.7</ele>
        <time>1970-01-01T01:10:20.000Z</time>
      </trkpt>
      <trkpt lat="41.247757" lon="1.432005">
        <ele>245.9</ele>
        <time>1970-01-01T01:10:21.000Z</time>
      </trkpt>
      <trkpt lat="41.247784" lon="1.431939">
        <ele>246</ele>
        <time>1970-01-01T01:10:22.000Z</time>
      </trkpt>
      <trkpt lat="41.247822" lon="1.431898">
        <ele>246.2</ele>
        <time>1970-01-01T01:10:23.000Z</time>
      </trkpt>
      <trkpt lat="41.247848" lon="1.431854">
        <ele>246.3</ele>
        <time>1970-01-01T01:10:24.000Z</time>
      </trkpt>
      <trkpt lat="41.247889" lon="1.431798">
        <ele>246.5</ele>
        <time>1970-01-01T01:10:25.000Z</time>
      </trkpt>
      <trkpt lat="41.247925" lon="1.431736">
        <ele>246.7</ele>
        <time>1970-01-01T01:10:26.000Z</time>
      </trkpt>
      <trkpt lat="41.247955" lon="1.431669">
        <ele>247</ele>
        <time>1970-01-01T01:10:27.000Z</time>
      </trkpt>
      <trkpt lat="41.247963" lon="1.431604">
        <ele>247.1</ele>
        <time>1970-01-01T01:10:28.000Z</time>
      </trkpt>
      <trkpt lat="41.247943" lon="1.431542">
        <ele>247.3</ele>
        <time>1970-01-01T01:10:29.000Z</time>
      </trkpt>
      <trkpt lat="41.247929" lon="1.431496">
        <ele>247.4</ele>
        <time>1970-01-01T01:10:30.000Z</time>
      </trkpt>
      <trkpt lat="41.247912" lon="1.431449">
        <ele>247.5</ele>
        <time>1970-01-01T01:10:31.000Z</time>
      </trkpt>
      <trkpt lat="41.247887" lon="1.43139">
        <ele>247.7</ele>
        <time>1970-01-01T01:10:33.000Z</time>
      </trkpt>
      <trkpt lat="41.247861" lon="1.431333">
        <ele>247.8</ele>
        <time>1970-01-01T01:10:35.000Z</time>
      </trkpt>
      <trkpt lat="41.247856" lon="1.431269">
        <ele>248</ele>
        <time>1970-01-01T01:10:37.000Z</time>
      </trkpt>
      <trkpt lat="41.247868" lon="1.431233">
        <ele>248.1</ele>
        <time>1970-01-01T01:10:39.000Z</time>
      </trkpt>
      <trkpt lat="41.247909" lon="1.431267">
        <ele>248.2</ele>
        <time>1970-01-01T01:10:56.000Z</time>
      </trkpt>
      <trkpt lat="41.247938" lon="1.431267">
        <ele>248.3</ele>
        <time>1970-01-01T01:10:57.000Z</time>
      </trkpt>
      <trkpt lat="41.248009" lon="1.431257">
        <ele>248.4</ele>
        <time>1970-01-01T01:10:59.000Z</time>
      </trkpt>
      <trkpt lat="41.248044" lon="1.431259">
        <ele>248.5</ele>
        <time>1970-01-01T01:11:00.000Z</time>
      </trkpt>
      <trkpt lat="41.248075" lon="1.431256">
        <ele>248.5</ele>
        <time>1970-01-01T01:11:01.000Z</time>
      </trkpt>
      <trkpt lat="41.248119" lon="1.431243">
        <ele>248.3</ele>
        <time>1970-01-01T01:11:02.000Z</time>
      </trkpt>
      <trkpt lat="41.248167" lon="1.431239">
        <ele>248</ele>
        <time>1970-01-01T01:11:03.000Z</time>
      </trkpt>
      <trkpt lat="41.248211" lon="1.431233">
        <ele>247.7</ele>
        <time>1970-01-01T01:11:04.000Z</time>
      </trkpt>
      <trkpt lat="41.248249" lon="1.431226">
        <ele>247.5</ele>
        <time>1970-01-01T01:11:05.000Z</time>
      </trkpt>
      <trkpt lat="41.248284" lon="1.431218">
        <ele>247.3</ele>
        <time>1970-01-01T01:11:06.000Z</time>
      </trkpt>
      <trkpt lat="41.24832" lon="1.431205">
        <ele>247.1</ele>
        <time>1970-01-01T01:11:07.000Z</time>
      </trkpt>
      <trkpt lat="41.248354" lon="1.431162">
        <ele>246.8</ele>
        <time>1970-01-01T01:11:08.000Z</time>
      </trkpt>
      <trkpt lat="41.248373" lon="1.431109">
        <ele>246.5</ele>
        <time>1970-01-01T01:11:09.000Z</time>
      </trkpt>
      <trkpt lat="41.248396" lon="1.431052">
        <ele>246.2</ele>
        <time>1970-01-01T01:11:10.000Z</time>
      </trkpt>
      <trkpt lat="41.248423" lon="1.431021">
        <ele>246</ele>
        <time>1970-01-01T01:11:11.000Z</time>
      </trkpt>
      <trkpt lat="41.248465" lon="1.430995">
        <ele>245.7</ele>
        <time>1970-01-01T01:11:12.000Z</time>
      </trkpt>
      <trkpt lat="41.248506" lon="1.430954">
        <ele>245.4</ele>
        <time>1970-01-01T01:11:13.000Z</time>
      </trkpt>
      <trkpt lat="41.24855" lon="1.430888">
        <ele>245.1</ele>
        <time>1970-01-01T01:11:14.000Z</time>
      </trkpt>
      <trkpt lat="41.248588" lon="1.430791">
        <ele>244.6</ele>
        <time>1970-01-01T01:11:15.000Z</time>
      </trkpt>
      <trkpt lat="41.248601" lon="1.430703">
        <ele>244.3</ele>
        <time>1970-01-01T01:11:16.000Z</time>
      </trkpt>
      <trkpt lat="41.248614" lon="1.430625">
        <ele>244.1</ele>
        <time>1970-01-01T01:11:17.000Z</time>
      </trkpt>
      <trkpt lat="41.248629" lon="1.430545">
        <ele>243.9</ele>
        <time>1970-01-01T01:11:18.000Z</time>
      </trkpt>
      <trkpt lat="41.248647" lon="1.430472">
        <ele>243.7</ele>
        <time>1970-01-01T01:11:19.000Z</time>
      </trkpt>
      <trkpt lat="41.248669" lon="1.43042">
        <ele>243.5</ele>
        <time>1970-01-01T01:11:20.000Z</time>
      </trkpt>
      <trkpt lat="41.248702" lon="1.430397">
        <ele>243.4</ele>
        <time>1970-01-01T01:11:21.000Z</time>
      </trkpt>
      <trkpt lat="41.248744" lon="1.430391">
        <ele>243.3</ele>
        <time>1970-01-01T01:11:22.000Z</time>
      </trkpt>
      <trkpt lat="41.248794" lon="1.430402">
        <ele>243.2</ele>
        <time>1970-01-01T01:11:23.000Z</time>
      </trkpt>
      <trkpt lat="41.248853" lon="1.430435">
        <ele>243</ele>
        <time>1970-01-01T01:11:24.000Z</time>
      </trkpt>
      <trkpt lat="41.248914" lon="1.430471">
        <ele>242.8</ele>
        <time>1970-01-01T01:11:25.000Z</time>
      </trkpt>
      <trkpt lat="41.248976" lon="1.430496">
        <ele>242.7</ele>
        <time>1970-01-01T01:11:26.000Z</time>
      </trkpt>
      <trkpt lat="41.249038" lon="1.430523">
        <ele>242.5</ele>
        <time>1970-01-01T01:11:27.000Z</time>
      </trkpt>
      <trkpt lat="41.249101" lon="1.430556">
        <ele>242.3</ele>
        <time>1970-01-01T01:11:28.000Z</time>
      </trkpt>
      <trkpt lat="41.249165" lon="1.430586">
        <ele>242.1</ele>
        <time>1970-01-01T01:11:29.000Z</time>
      </trkpt>
      <trkpt lat="41.249239" lon="1.43062">
        <ele>241.9</ele>
        <time>1970-01-01T01:11:30.000Z</time>
      </trkpt>
      <trkpt lat="41.249294" lon="1.430643">
        <ele>241.7</ele>
        <time>1970-01-01T01:11:31.000Z</time>
      </trkpt>
      <trkpt lat="41.24935" lon="1.430671">
        <ele>241.6</ele>
        <time>1970-01-01T01:11:32.000Z</time>
      </trkpt>
      <trkpt lat="41.2494" lon="1.430696">
        <ele>241.4</ele>
        <time>1970-01-01T01:11:33.000Z</time>
      </trkpt>
      <trkpt lat="41.24945" lon="1.43069">
        <ele>241.3</ele>
        <time>1970-01-01T01:11:34.000Z</time>
      </trkpt>
      <trkpt lat="41.249497" lon="1.430657">
        <ele>241.1</ele>
        <time>1970-01-01T01:11:35.000Z</time>
      </trkpt>
      <trkpt lat="41.249536" lon="1.430607">
        <ele>241</ele>
        <time>1970-01-01T01:11:36.000Z</time>
      </trkpt>
      <trkpt lat="41.249571" lon="1.430516">
        <ele>240.7</ele>
        <time>1970-01-01T01:11:37.000Z</time>
      </trkpt>
      <trkpt lat="41.249611" lon="1.430449">
        <ele>240.5</ele>
        <time>1970-01-01T01:11:38.000Z</time>
      </trkpt>
      <trkpt lat="41.249642" lon="1.430409">
        <ele>240.4</ele>
        <time>1970-01-01T01:11:39.000Z</time>
      </trkpt>
      <trkpt lat="41.249681" lon="1.430362">
        <ele>240.3</ele>
        <time>1970-01-01T01:11:40.000Z</time>
      </trkpt>
      <trkpt lat="41.249735" lon="1.430316">
        <ele>240.1</ele>
        <time>1970-01-01T01:11:41.000Z</time>
      </trkpt>
      <trkpt lat="41.249789" lon="1.430258">
        <ele>240</ele>
        <time>1970-01-01T01:11:42.000Z</time>
      </trkpt>
      <trkpt lat="41.249834" lon="1.430204">
        <ele>239.9</ele>
        <time>1970-01-01T01:11:43.000Z</time>
      </trkpt>
      <trkpt lat="41.249874" lon="1.430155">
        <ele>239.9</ele>
        <time>1970-01-01T01:11:44.000Z</time>
      </trkpt>
      <trkpt lat="41.249923" lon="1.43012">
        <ele>239.9</ele>
        <time>1970-01-01T01:11:45.000Z</time>
      </trkpt>
      <trkpt lat="41.249964" lon="1.430084">
        <ele>239.9</ele>
        <time>1970-01-01T01:11:46.000Z</time>
      </trkpt>
      <trkpt lat="41.250013" lon="1.43005">
        <ele>240</ele>
        <time>1970-01-01T01:11:47.000Z</time>
      </trkpt>
      <trkpt lat="41.250053" lon="1.430016">
        <ele>240</ele>
        <time>1970-01-01T01:11:48.000Z</time>
      </trkpt>
      <trkpt lat="41.250072" lon="1.429987">
        <ele>240</ele>
        <time>1970-01-01T01:11:49.000Z</time>
      </trkpt>
      <trkpt lat="41.250078" lon="1.429944">
        <ele>240.1</ele>
        <time>1970-01-01T01:11:51.000Z</time>
      </trkpt>
      <trkpt lat="41.25006" lon="1.429908">
        <ele>240.1</ele>
        <time>1970-01-01T01:11:53.000Z</time>
      </trkpt>
      <trkpt lat="41.250035" lon="1.429863">
        <ele>240.1</ele>
        <time>1970-01-01T01:11:56.000Z</time>
      </trkpt>
      <trkpt lat="41.249987" lon="1.429821">
        <ele>240.2</ele>
        <time>1970-01-01T01:11:58.000Z</time>
      </trkpt>
      <trkpt lat="41.24997" lon="1.429792">
        <ele>240.2</ele>
        <time>1970-01-01T01:11:59.000Z</time>
      </trkpt>
      <trkpt lat="41.249944" lon="1.42977">
        <ele>240.2</ele>
        <time>1970-01-01T01:12:00.000Z</time>
      </trkpt>
      <trkpt lat="41.249923" lon="1.429746">
        <ele>240.3</ele>
        <time>1970-01-01T01:12:01.000Z</time>
      </trkpt>
      <trkpt lat="41.249895" lon="1.429713">
        <ele>240.3</ele>
        <time>1970-01-01T01:12:02.000Z</time>
      </trkpt>
      <trkpt lat="41.249869" lon="1.429683">
        <ele>240.3</ele>
        <time>1970-01-01T01:12:03.000Z</time>
      </trkpt>
      <trkpt lat="41.249841" lon="1.429658">
        <ele>240.4</ele>
        <time>1970-01-01T01:12:04.000Z</time>
      </trkpt>
      <trkpt lat="41.249816" lon="1.42962">
        <ele>240.4</ele>
        <time>1970-01-01T01:12:05.000Z</time>
      </trkpt>
      <trkpt lat="41.249792" lon="1.429597">
        <ele>240.5</ele>
        <time>1970-01-01T01:12:06.000Z</time>
      </trkpt>
      <trkpt lat="41.249757" lon="1.429576">
        <ele>240.5</ele>
        <time>1970-01-01T01:12:07.000Z</time>
      </trkpt>
      <trkpt lat="41.249718" lon="1.429547">
        <ele>240.6</ele>
        <time>1970-01-01T01:12:08.000Z</time>
      </trkpt>
      <trkpt lat="41.249685" lon="1.429529">
        <ele>240.7</ele>
        <time>1970-01-01T01:12:09.000Z</time>
      </trkpt>
      <trkpt lat="41.249648" lon="1.429515">
        <ele>240.8</ele>
        <time>1970-01-01T01:12:10.000Z</time>
      </trkpt>
      <trkpt lat="41.249616" lon="1.429509">
        <ele>240.9</ele>
        <time>1970-01-01T01:12:11.000Z</time>
      </trkpt>
      <trkpt lat="41.249582" lon="1.429493">
        <ele>241</ele>
        <time>1970-01-01T01:12:12.000Z</time>
      </trkpt>
      <trkpt lat="41.249551" lon="1.429479">
        <ele>241.2</ele>
        <time>1970-01-01T01:12:13.000Z</time>
      </trkpt>
      <trkpt lat="41.249523" lon="1.429462">
        <ele>241.3</ele>
        <time>1970-01-01T01:12:14.000Z</time>
      </trkpt>
      <trkpt lat="41.249498" lon="1.429444">
        <ele>241.4</ele>
        <time>1970-01-01T01:12:15.000Z</time>
      </trkpt>
      <trkpt lat="41.249472" lon="1.429415">
        <ele>241.6</ele>
        <time>1970-01-01T01:12:16.000Z</time>
      </trkpt>
      <trkpt lat="41.24944" lon="1.429379">
        <ele>241.8</ele>
        <time>1970-01-01T01:12:17.000Z</time>
      </trkpt>
      <trkpt lat="41.249409" lon="1.429349">
        <ele>242</ele>
        <time>1970-01-01T01:12:18.000Z</time>
      </trkpt>
      <trkpt lat="41.249372" lon="1.42932">
        <ele>242.3</ele>
        <time>1970-01-01T01:12:19.000Z</time>
      </trkpt>
      <trkpt lat="41.249338" lon="1.429299">
        <ele>242.5</ele>
        <time>1970-01-01T01:12:20.000Z</time>
      </trkpt>
      <trkpt lat="41.249301" lon="1.429272">
        <ele>242.7</ele>
        <time>1970-01-01T01:12:21.000Z</time>
      </trkpt>
      <trkpt lat="41.249262" lon="1.42925">
        <ele>243</ele>
        <time>1970-01-01T01:12:22.000Z</time>
      </trkpt>
      <trkpt lat="41.24922" lon="1.429235">
        <ele>243.2</ele>
        <time>1970-01-01T01:12:23.000Z</time>
      </trkpt>
      <trkpt lat="41.249179" lon="1.429215">
        <ele>243.4</ele>
        <time>1970-01-01T01:12:24.000Z</time>
      </trkpt>
      <trkpt lat="41.249141" lon="1.429197">
        <ele>243.6</ele>
        <time>1970-01-01T01:12:25.000Z</time>
      </trkpt>
      <trkpt lat="41.249102" lon="1.429178">
        <ele>243.8</ele>
        <time>1970-01-01T01:12:26.000Z</time>
      </trkpt>
      <trkpt lat="41.249063" lon="1.429165">
        <ele>243.9</ele>
        <time>1970-01-01T01:12:27.000Z</time>
      </trkpt>
      <trkpt lat="41.249025" lon="1.429151">
        <ele>244.1</ele>
        <time>1970-01-01T01:12:28.000Z</time>
      </trkpt>
      <trkpt lat="41.248984" lon="1.429136">
        <ele>244.2</ele>
        <time>1970-01-01T01:12:29.000Z</time>
      </trkpt>
      <trkpt lat="41.248935" lon="1.429102">
        <ele>244.3</ele>
        <time>1970-01-01T01:12:30.000Z</time>
      </trkpt>
      <trkpt lat="41.248889" lon="1.429079">
        <ele>244.5</ele>
        <time>1970-01-01T01:12:31.000Z</time>
      </trkpt>
      <trkpt lat="41.248846" lon="1.429071">
        <ele>244.6</ele>
        <time>1970-01-01T01:12:32.000Z</time>
      </trkpt>
      <trkpt lat="41.248804" lon="1.429063">
        <ele>244.7</ele>
        <time>1970-01-01T01:12:33.000Z</time>
      </trkpt>
      <trkpt lat="41.248763" lon="1.429055">
        <ele>244.8</ele>
        <time>1970-01-01T01:12:34.000Z</time>
      </trkpt>
      <trkpt lat="41.248727" lon="1.429039">
        <ele>244.9</ele>
        <time>1970-01-01T01:12:35.000Z</time>
      </trkpt>
      <trkpt lat="41.248688" lon="1.429028">
        <ele>245</ele>
        <time>1970-01-01T01:12:36.000Z</time>
      </trkpt>
      <trkpt lat="41.24865" lon="1.429007">
        <ele>245.1</ele>
        <time>1970-01-01T01:12:37.000Z</time>
      </trkpt>
      <trkpt lat="41.248613" lon="1.428992">
        <ele>245.2</ele>
        <time>1970-01-01T01:12:38.000Z</time>
      </trkpt>
      <trkpt lat="41.248573" lon="1.428972">
        <ele>245.3</ele>
        <time>1970-01-01T01:12:39.000Z</time>
      </trkpt>
      <trkpt lat="41.248529" lon="1.428953">
        <ele>245.4</ele>
        <time>1970-01-01T01:12:40.000Z</time>
      </trkpt>
      <trkpt lat="41.24849" lon="1.428935">
        <ele>245.5</ele>
        <time>1970-01-01T01:12:41.000Z</time>
      </trkpt>
      <trkpt lat="41.24844" lon="1.428914">
        <ele>245.7</ele>
        <time>1970-01-01T01:12:42.000Z</time>
      </trkpt>
      <trkpt lat="41.248402" lon="1.428883">
        <ele>245.8</ele>
        <time>1970-01-01T01:12:43.000Z</time>
      </trkpt>
      <trkpt lat="41.248374" lon="1.428854">
        <ele>245.8</ele>
        <time>1970-01-01T01:12:44.000Z</time>
      </trkpt>
      <trkpt lat="41.24834" lon="1.428807">
        <ele>245.9</ele>
        <time>1970-01-01T01:12:45.000Z</time>
      </trkpt>
      <trkpt lat="41.248322" lon="1.428759">
        <ele>246</ele>
        <time>1970-01-01T01:12:46.000Z</time>
      </trkpt>
      <trkpt lat="41.248299" lon="1.428724">
        <ele>246.1</ele>
        <time>1970-01-01T01:12:47.000Z</time>
      </trkpt>
      <trkpt lat="41.248276" lon="1.428694">
        <ele>246.3</ele>
        <time>1970-01-01T01:12:48.000Z</time>
      </trkpt>
      <trkpt lat="41.248253" lon="1.428654">
        <ele>246.5</ele>
        <time>1970-01-01T01:12:49.000Z</time>
      </trkpt>
      <trkpt lat="41.248229" lon="1.428611">
        <ele>246.7</ele>
        <time>1970-01-01T01:12:50.000Z</time>
      </trkpt>
      <trkpt lat="41.24821" lon="1.428577">
        <ele>246.8</ele>
        <time>1970-01-01T01:12:51.000Z</time>
      </trkpt>
      <trkpt lat="41.248184" lon="1.428534">
        <ele>247.1</ele>
        <time>1970-01-01T01:12:52.000Z</time>
      </trkpt>
      <trkpt lat="41.248159" lon="1.428502">
        <ele>247.2</ele>
        <time>1970-01-01T01:12:53.000Z</time>
      </trkpt>
      <trkpt lat="41.248138" lon="1.428469">
        <ele>247.4</ele>
        <time>1970-01-01T01:12:54.000Z</time>
      </trkpt>
      <trkpt lat="41.248114" lon="1.428435">
        <ele>247.6</ele>
        <time>1970-01-01T01:12:55.000Z</time>
      </trkpt>
      <trkpt lat="41.248093" lon="1.428409">
        <ele>247.7</ele>
        <time>1970-01-01T01:12:56.000Z</time>
      </trkpt>
      <trkpt lat="41.24807" lon="1.428383">
        <ele>248.1</ele>
        <time>1970-01-01T01:12:57.000Z</time>
      </trkpt>
      <trkpt lat="41.248044" lon="1.428345">
        <ele>248.5</ele>
        <time>1970-01-01T01:13:00.000Z</time>
      </trkpt>
      <trkpt lat="41.248036" lon="1.428305">
        <ele>248.7</ele>
        <time>1970-01-01T01:13:03.000Z</time>
      </trkpt>
      <trkpt lat="41.248076" lon="1.428311">
        <ele>249</ele>
        <time>1970-01-01T01:13:07.000Z</time>
      </trkpt>
      <trkpt lat="41.248103" lon="1.428342">
        <ele>249.3</ele>
        <time>1970-01-01T01:13:09.000Z</time>
      </trkpt>
      <trkpt lat="41.248093" lon="1.428381">
        <ele>249.6</ele>
        <time>1970-01-01T01:13:12.000Z</time>
      </trkpt>
      <trkpt lat="41.248062" lon="1.428381">
        <ele>249.8</ele>
        <time>1970-01-01T01:13:15.000Z</time>
      </trkpt>
      <trkpt lat="41.248033" lon="1.428341">
        <ele>250.2</ele>
        <time>1970-01-01T01:13:18.000Z</time>
      </trkpt>
      <trkpt lat="41.248024" lon="1.428306">
        <ele>250.4</ele>
        <time>1970-01-01T01:13:19.000Z</time>
      </trkpt>
      <trkpt lat="41.248016" lon="1.428264">
        <ele>250.7</ele>
        <time>1970-01-01T01:13:20.000Z</time>
      </trkpt>
      <trkpt lat="41.248013" lon="1.428228">
        <ele>250.8</ele>
        <time>1970-01-01T01:13:21.000Z</time>
      </trkpt>
      <trkpt lat="41.248007" lon="1.428168">
        <ele>251.1</ele>
        <time>1970-01-01T01:13:23.000Z</time>
      </trkpt>
      <trkpt lat="41.248006" lon="1.428124">
        <ele>251.2</ele>
        <time>1970-01-01T01:13:25.000Z</time>
      </trkpt>
      <trkpt lat="41.248016" lon="1.428056">
        <ele>251.4</ele>
        <time>1970-01-01T01:13:26.000Z</time>
      </trkpt>
      <trkpt lat="41.248014" lon="1.427986">
        <ele>251.7</ele>
        <time>1970-01-01T01:13:28.000Z</time>
      </trkpt>
      <trkpt lat="41.24801" lon="1.427948">
        <ele>251.8</ele>
        <time>1970-01-01T01:13:29.000Z</time>
      </trkpt>
      <trkpt lat="41.248004" lon="1.427909">
        <ele>252</ele>
        <time>1970-01-01T01:13:30.000Z</time>
      </trkpt>
      <trkpt lat="41.247998" lon="1.427866">
        <ele>252.2</ele>
        <time>1970-01-01T01:13:31.000Z</time>
      </trkpt>
      <trkpt lat="41.247995" lon="1.427829">
        <ele>252.4</ele>
        <time>1970-01-01T01:13:32.000Z</time>
      </trkpt>
      <trkpt lat="41.247995" lon="1.427769">
        <ele>252.6</ele>
        <time>1970-01-01T01:13:34.000Z</time>
      </trkpt>
      <trkpt lat="41.24801" lon="1.42771">
        <ele>252.8</ele>
        <time>1970-01-01T01:13:36.000Z</time>
      </trkpt>
      <trkpt lat="41.248014" lon="1.427671">
        <ele>252.9</ele>
        <time>1970-01-01T01:13:37.000Z</time>
      </trkpt>
      <trkpt lat="41.248024" lon="1.4276">
        <ele>253.2</ele>
        <time>1970-01-01T01:13:39.000Z</time>
      </trkpt>
      <trkpt lat="41.248031" lon="1.427554">
        <ele>253.4</ele>
        <time>1970-01-01T01:13:40.000Z</time>
      </trkpt>
      <trkpt lat="41.248037" lon="1.427512">
        <ele>253.5</ele>
        <time>1970-01-01T01:13:41.000Z</time>
      </trkpt>
      <trkpt lat="41.248042" lon="1.427473">
        <ele>253.6</ele>
        <time>1970-01-01T01:13:42.000Z</time>
      </trkpt>
      <trkpt lat="41.248052" lon="1.427432">
        <ele>253.8</ele>
        <time>1970-01-01T01:13:43.000Z</time>
      </trkpt>
      <trkpt lat="41.248053" lon="1.427381">
        <ele>254</ele>
        <time>1970-01-01T01:13:44.000Z</time>
      </trkpt>
      <trkpt lat="41.248056" lon="1.42734">
        <ele>254.2</ele>
        <time>1970-01-01T01:13:45.000Z</time>
      </trkpt>
      <trkpt lat="41.248055" lon="1.4273">
        <ele>254.4</ele>
        <time>1970-01-01T01:13:46.000Z</time>
      </trkpt>
      <trkpt lat="41.248049" lon="1.427215">
        <ele>254.9</ele>
        <time>1970-01-01T01:13:48.000Z</time>
      </trkpt>
      <trkpt lat="41.248048" lon="1.427171">
        <ele>255</ele>
        <time>1970-01-01T01:13:49.000Z</time>
      </trkpt>
      <trkpt lat="41.248049" lon="1.427123">
        <ele>255.2</ele>
        <time>1970-01-01T01:13:50.000Z</time>
      </trkpt>
      <trkpt lat="41.248052" lon="1.427079">
        <ele>255.3</ele>
        <time>1970-01-01T01:13:51.000Z</time>
      </trkpt>
      <trkpt lat="41.248043" lon="1.427017">
        <ele>255.6</ele>
        <time>1970-01-01T01:13:52.000Z</time>
      </trkpt>
      <trkpt lat="41.248053" lon="1.426973">
        <ele>255.7</ele>
        <time>1970-01-01T01:13:53.000Z</time>
      </trkpt>
      <trkpt lat="41.248059" lon="1.426921">
        <ele>256.1</ele>
        <time>1970-01-01T01:13:54.000Z</time>
      </trkpt>
      <trkpt lat="41.24806" lon="1.426877">
        <ele>256.3</ele>
        <time>1970-01-01T01:13:55.000Z</time>
      </trkpt>
      <trkpt lat="41.248061" lon="1.426837">
        <ele>256.5</ele>
        <time>1970-01-01T01:13:56.000Z</time>
      </trkpt>
      <trkpt lat="41.248058" lon="1.426799">
        <ele>256.6</ele>
        <time>1970-01-01T01:13:57.000Z</time>
      </trkpt>
      <trkpt lat="41.248076" lon="1.426717">
        <ele>256.9</ele>
        <time>1970-01-01T01:13:59.000Z</time>
      </trkpt>
      <trkpt lat="41.248083" lon="1.426666">
        <ele>257.1</ele>
        <time>1970-01-01T01:14:00.000Z</time>
      </trkpt>
      <trkpt lat="41.248088" lon="1.426612">
        <ele>257.2</ele>
        <time>1970-01-01T01:14:01.000Z</time>
      </trkpt>
      <trkpt lat="41.248098" lon="1.426563">
        <ele>257.4</ele>
        <time>1970-01-01T01:14:02.000Z</time>
      </trkpt>
      <trkpt lat="41.248102" lon="1.426523">
        <ele>257.5</ele>
        <time>1970-01-01T01:14:03.000Z</time>
      </trkpt>
      <trkpt lat="41.248101" lon="1.42647">
        <ele>257.6</ele>
        <time>1970-01-01T01:14:04.000Z</time>
      </trkpt>
      <trkpt lat="41.248094" lon="1.426434">
        <ele>257.7</ele>
        <time>1970-01-01T01:14:05.000Z</time>
      </trkpt>
      <trkpt lat="41.248079" lon="1.426396">
        <ele>257.8</ele>
        <time>1970-01-01T01:14:06.000Z</time>
      </trkpt>
      <trkpt lat="41.248056" lon="1.426359">
        <ele>257.9</ele>
        <time>1970-01-01T01:14:07.000Z</time>
      </trkpt>
      <trkpt lat="41.248034" lon="1.426326">
        <ele>258</ele>
        <time>1970-01-01T01:14:08.000Z</time>
      </trkpt>
      <trkpt lat="41.248011" lon="1.426284">
        <ele>258.2</ele>
        <time>1970-01-01T01:14:09.000Z</time>
      </trkpt>
      <trkpt lat="41.247991" lon="1.426239">
        <ele>258.5</ele>
        <time>1970-01-01T01:14:10.000Z</time>
      </trkpt>
      <trkpt lat="41.247964" lon="1.426196">
        <ele>258.7</ele>
        <time>1970-01-01T01:14:11.000Z</time>
      </trkpt>
      <trkpt lat="41.24794" lon="1.426159">
        <ele>258.8</ele>
        <time>1970-01-01T01:14:12.000Z</time>
      </trkpt>
      <trkpt lat="41.247914" lon="1.426129">
        <ele>258.9</ele>
        <time>1970-01-01T01:14:13.000Z</time>
      </trkpt>
      <trkpt lat="41.247891" lon="1.426102">
        <ele>259</ele>
        <time>1970-01-01T01:14:14.000Z</time>
      </trkpt>
      <trkpt lat="41.247855" lon="1.426079">
        <ele>259.1</ele>
        <time>1970-01-01T01:14:16.000Z</time>
      </trkpt>
      <trkpt lat="41.247809" lon="1.426038">
        <ele>259.2</ele>
        <time>1970-01-01T01:14:18.000Z</time>
      </trkpt>
      <trkpt lat="41.247752" lon="1.426018">
        <ele>259.3</ele>
        <time>1970-01-01T01:14:19.000Z</time>
      </trkpt>
      <trkpt lat="41.247708" lon="1.426013">
        <ele>259.4</ele>
        <time>1970-01-01T01:14:20.000Z</time>
      </trkpt>
      <trkpt lat="41.247662" lon="1.425991">
        <ele>259.5</ele>
        <time>1970-01-01T01:14:21.000Z</time>
      </trkpt>
      <trkpt lat="41.24762" lon="1.425977">
        <ele>259.6</ele>
        <time>1970-01-01T01:14:22.000Z</time>
      </trkpt>
      <trkpt lat="41.247581" lon="1.425965">
        <ele>259.7</ele>
        <time>1970-01-01T01:14:23.000Z</time>
      </trkpt>
      <trkpt lat="41.247542" lon="1.425941">
        <ele>259.8</ele>
        <time>1970-01-01T01:14:24.000Z</time>
      </trkpt>
      <trkpt lat="41.247505" lon="1.425919">
        <ele>259.8</ele>
        <time>1970-01-01T01:14:25.000Z</time>
      </trkpt>
      <trkpt lat="41.247472" lon="1.425901">
        <ele>259.9</ele>
        <time>1970-01-01T01:14:26.000Z</time>
      </trkpt>
      <trkpt lat="41.247439" lon="1.425893">
        <ele>260</ele>
        <time>1970-01-01T01:14:27.000Z</time>
      </trkpt>
      <trkpt lat="41.247409" lon="1.42588">
        <ele>260.1</ele>
        <time>1970-01-01T01:14:28.000Z</time>
      </trkpt>
      <trkpt lat="41.247375" lon="1.425867">
        <ele>260.2</ele>
        <time>1970-01-01T01:14:29.000Z</time>
      </trkpt>
      <trkpt lat="41.247341" lon="1.425859">
        <ele>260.3</ele>
        <time>1970-01-01T01:14:30.000Z</time>
      </trkpt>
      <trkpt lat="41.247294" lon="1.425825">
        <ele>260.6</ele>
        <time>1970-01-01T01:14:31.000Z</time>
      </trkpt>
      <trkpt lat="41.24724" lon="1.425792">
        <ele>260.8</ele>
        <time>1970-01-01T01:14:32.000Z</time>
      </trkpt>
      <trkpt lat="41.247206" lon="1.425769">
        <ele>260.9</ele>
        <time>1970-01-01T01:14:33.000Z</time>
      </trkpt>
      <trkpt lat="41.247178" lon="1.425753">
        <ele>261</ele>
        <time>1970-01-01T01:14:34.000Z</time>
      </trkpt>
      <trkpt lat="41.247156" lon="1.425718">
        <ele>261.1</ele>
        <time>1970-01-01T01:14:35.000Z</time>
      </trkpt>
      <trkpt lat="41.247144" lon="1.425685">
        <ele>261.2</ele>
        <time>1970-01-01T01:14:36.000Z</time>
      </trkpt>
      <trkpt lat="41.247135" lon="1.425644">
        <ele>261.3</ele>
        <time>1970-01-01T01:14:37.000Z</time>
      </trkpt>
      <trkpt lat="41.247133" lon="1.425605">
        <ele>261.4</ele>
        <time>1970-01-01T01:14:38.000Z</time>
      </trkpt>
      <trkpt lat="41.247139" lon="1.425564">
        <ele>261.5</ele>
        <time>1970-01-01T01:14:39.000Z</time>
      </trkpt>
      <trkpt lat="41.247141" lon="1.425525">
        <ele>261.6</ele>
        <time>1970-01-01T01:14:40.000Z</time>
      </trkpt>
      <trkpt lat="41.247141" lon="1.42548">
        <ele>261.7</ele>
        <time>1970-01-01T01:14:41.000Z</time>
      </trkpt>
      <trkpt lat="41.247137" lon="1.42544">
        <ele>261.7</ele>
        <time>1970-01-01T01:14:42.000Z</time>
      </trkpt>
      <trkpt lat="41.247141" lon="1.425399">
        <ele>261.8</ele>
        <time>1970-01-01T01:14:43.000Z</time>
      </trkpt>
      <trkpt lat="41.247151" lon="1.42536">
        <ele>261.9</ele>
        <time>1970-01-01T01:14:44.000Z</time>
      </trkpt>
      <trkpt lat="41.247142" lon="1.425277">
        <ele>262</ele>
        <time>1970-01-01T01:14:46.000Z</time>
      </trkpt>
      <trkpt lat="41.24713" lon="1.425237">
        <ele>262.1</ele>
        <time>1970-01-01T01:14:47.000Z</time>
      </trkpt>
      <trkpt lat="41.247118" lon="1.425188">
        <ele>262.3</ele>
        <time>1970-01-01T01:14:48.000Z</time>
      </trkpt>
      <trkpt lat="41.2471" lon="1.425144">
        <ele>262.5</ele>
        <time>1970-01-01T01:14:49.000Z</time>
      </trkpt>
      <trkpt lat="41.247085" lon="1.425088">
        <ele>262.7</ele>
        <time>1970-01-01T01:14:50.000Z</time>
      </trkpt>
      <trkpt lat="41.247064" lon="1.425033">
        <ele>262.9</ele>
        <time>1970-01-01T01:14:51.000Z</time>
      </trkpt>
      <trkpt lat="41.247048" lon="1.424987">
        <ele>263</ele>
        <time>1970-01-01T01:14:52.000Z</time>
      </trkpt>
      <trkpt lat="41.247034" lon="1.424951">
        <ele>263.1</ele>
        <time>1970-01-01T01:14:53.000Z</time>
      </trkpt>
      <trkpt lat="41.247016" lon="1.424912">
        <ele>263.1</ele>
        <time>1970-01-01T01:14:54.000Z</time>
      </trkpt>
      <trkpt lat="41.246969" lon="1.424857">
        <ele>263.3</ele>
        <time>1970-01-01T01:14:56.000Z</time>
      </trkpt>
      <trkpt lat="41.246931" lon="1.42483">
        <ele>263.4</ele>
        <time>1970-01-01T01:14:57.000Z</time>
      </trkpt>
      <trkpt lat="41.246896" lon="1.4248">
        <ele>263.6</ele>
        <time>1970-01-01T01:14:58.000Z</time>
      </trkpt>
      <trkpt lat="41.246862" lon="1.42476">
        <ele>263.8</ele>
        <time>1970-01-01T01:14:59.000Z</time>
      </trkpt>
      <trkpt lat="41.246836" lon="1.42472">
        <ele>263.9</ele>
        <time>1970-01-01T01:15:00.000Z</time>
      </trkpt>
      <trkpt lat="41.246813" lon="1.424695">
        <ele>264.1</ele>
        <time>1970-01-01T01:15:01.000Z</time>
      </trkpt>
      <trkpt lat="41.246786" lon="1.424676">
        <ele>264.2</ele>
        <time>1970-01-01T01:15:02.000Z</time>
      </trkpt>
      <trkpt lat="41.246755" lon="1.424644">
        <ele>264.5</ele>
        <time>1970-01-01T01:15:03.000Z</time>
      </trkpt>
      <trkpt lat="41.246722" lon="1.424619">
        <ele>264.7</ele>
        <time>1970-01-01T01:15:04.000Z</time>
      </trkpt>
      <trkpt lat="41.246672" lon="1.424583">
        <ele>265.1</ele>
        <time>1970-01-01T01:15:06.000Z</time>
      </trkpt>
      <trkpt lat="41.246648" lon="1.424558">
        <ele>265.4</ele>
        <time>1970-01-01T01:15:07.000Z</time>
      </trkpt>
      <trkpt lat="41.246626" lon="1.424534">
        <ele>265.6</ele>
        <time>1970-01-01T01:15:08.000Z</time>
      </trkpt>
      <trkpt lat="41.246606" lon="1.424502">
        <ele>265.8</ele>
        <time>1970-01-01T01:15:09.000Z</time>
      </trkpt>
      <trkpt lat="41.246589" lon="1.424474">
        <ele>266</ele>
        <time>1970-01-01T01:15:10.000Z</time>
      </trkpt>
      <trkpt lat="41.246567" lon="1.424436">
        <ele>266.2</ele>
        <time>1970-01-01T01:15:11.000Z</time>
      </trkpt>
      <trkpt lat="41.246526" lon="1.424394">
        <ele>266.6</ele>
        <time>1970-01-01T01:15:13.000Z</time>
      </trkpt>
      <trkpt lat="41.246488" lon="1.424349">
        <ele>267</ele>
        <time>1970-01-01T01:15:15.000Z</time>
      </trkpt>
      <trkpt lat="41.246448" lon="1.424285">
        <ele>267.4</ele>
        <time>1970-01-01T01:15:17.000Z</time>
      </trkpt>
      <trkpt lat="41.246426" lon="1.42425">
        <ele>267.6</ele>
        <time>1970-01-01T01:15:18.000Z</time>
      </trkpt>
      <trkpt lat="41.246384" lon="1.424191">
        <ele>267.9</ele>
        <time>1970-01-01T01:15:20.000Z</time>
      </trkpt>
      <trkpt lat="41.24636" lon="1.424161">
        <ele>268</ele>
        <time>1970-01-01T01:15:21.000Z</time>
      </trkpt>
      <trkpt lat="41.246343" lon="1.424124">
        <ele>268.2</ele>
        <time>1970-01-01T01:15:22.000Z</time>
      </trkpt>
      <trkpt lat="41.246311" lon="1.424071">
        <ele>268.5</ele>
        <time>1970-01-01T01:15:24.000Z</time>
      </trkpt>
      <trkpt lat="41.246288" lon="1.424026">
        <ele>268.7</ele>
        <time>1970-01-01T01:15:25.000Z</time>
      </trkpt>
      <trkpt lat="41.246259" lon="1.423985">
        <ele>268.9</ele>
        <time>1970-01-01T01:15:26.000Z</time>
      </trkpt>
      <trkpt lat="41.246233" lon="1.423938">
        <ele>269.2</ele>
        <time>1970-01-01T01:15:27.000Z</time>
      </trkpt>
      <trkpt lat="41.246208" lon="1.423897">
        <ele>269.3</ele>
        <time>1970-01-01T01:15:28.000Z</time>
      </trkpt>
      <trkpt lat="41.246184" lon="1.423846">
        <ele>269.4</ele>
        <time>1970-01-01T01:15:29.000Z</time>
      </trkpt>
      <trkpt lat="41.246151" lon="1.423807">
        <ele>269.5</ele>
        <time>1970-01-01T01:15:30.000Z</time>
      </trkpt>
      <trkpt lat="41.246119" lon="1.423772">
        <ele>269.6</ele>
        <time>1970-01-01T01:15:31.000Z</time>
      </trkpt>
      <trkpt lat="41.246083" lon="1.423731">
        <ele>269.7</ele>
        <time>1970-01-01T01:15:32.000Z</time>
      </trkpt>
      <trkpt lat="41.246046" lon="1.423692">
        <ele>269.7</ele>
        <time>1970-01-01T01:15:33.000Z</time>
      </trkpt>
      <trkpt lat="41.246011" lon="1.423653">
        <ele>269.8</ele>
        <time>1970-01-01T01:15:34.000Z</time>
      </trkpt>
      <trkpt lat="41.245986" lon="1.423616">
        <ele>269.9</ele>
        <time>1970-01-01T01:15:35.000Z</time>
      </trkpt>
      <trkpt lat="41.245958" lon="1.423584">
        <ele>269.9</ele>
        <time>1970-01-01T01:15:36.000Z</time>
      </trkpt>
      <trkpt lat="41.245939" lon="1.423556">
        <ele>270</ele>
        <time>1970-01-01T01:15:37.000Z</time>
      </trkpt>
      <trkpt lat="41.245912" lon="1.423526">
        <ele>270</ele>
        <time>1970-01-01T01:15:38.000Z</time>
      </trkpt>
      <trkpt lat="41.245887" lon="1.423495">
        <ele>270.1</ele>
        <time>1970-01-01T01:15:39.000Z</time>
      </trkpt>
      <trkpt lat="41.245864" lon="1.423475">
        <ele>270.1</ele>
        <time>1970-01-01T01:15:40.000Z</time>
      </trkpt>
      <trkpt lat="41.245828" lon="1.423446">
        <ele>270.2</ele>
        <time>1970-01-01T01:15:41.000Z</time>
      </trkpt>
      <trkpt lat="41.245799" lon="1.423426">
        <ele>270.3</ele>
        <time>1970-01-01T01:15:42.000Z</time>
      </trkpt>
      <trkpt lat="41.245766" lon="1.423405">
        <ele>270.4</ele>
        <time>1970-01-01T01:15:43.000Z</time>
      </trkpt>
      <trkpt lat="41.245731" lon="1.423383">
        <ele>270.5</ele>
        <time>1970-01-01T01:15:44.000Z</time>
      </trkpt>
      <trkpt lat="41.245703" lon="1.423356">
        <ele>270.6</ele>
        <time>1970-01-01T01:15:45.000Z</time>
      </trkpt>
      <trkpt lat="41.245673" lon="1.42331">
        <ele>270.9</ele>
        <time>1970-01-01T01:15:46.000Z</time>
      </trkpt>
      <trkpt lat="41.245637" lon="1.423262">
        <ele>271.2</ele>
        <time>1970-01-01T01:15:47.000Z</time>
      </trkpt>
      <trkpt lat="41.245621" lon="1.42322">
        <ele>271.4</ele>
        <time>1970-01-01T01:15:48.000Z</time>
      </trkpt>
      <trkpt lat="41.245611" lon="1.42318">
        <ele>271.5</ele>
        <time>1970-01-01T01:15:49.000Z</time>
      </trkpt>
      <trkpt lat="41.245602" lon="1.423131">
        <ele>271.7</ele>
        <time>1970-01-01T01:15:50.000Z</time>
      </trkpt>
      <trkpt lat="41.245588" lon="1.423094">
        <ele>272</ele>
        <time>1970-01-01T01:15:51.000Z</time>
      </trkpt>
      <trkpt lat="41.245568" lon="1.423063">
        <ele>272</ele>
        <time>1970-01-01T01:15:52.000Z</time>
      </trkpt>
      <trkpt lat="41.245532" lon="1.423045">
        <ele>272</ele>
        <time>1970-01-01T01:15:53.000Z</time>
      </trkpt>
      <trkpt lat="41.245495" lon="1.423014">
        <ele>272</ele>
        <time>1970-01-01T01:15:54.000Z</time>
      </trkpt>
      <trkpt lat="41.245454" lon="1.423003">
        <ele>271.9</ele>
        <time>1970-01-01T01:15:55.000Z</time>
      </trkpt>
      <trkpt lat="41.24541" lon="1.422992">
        <ele>271.9</ele>
        <time>1970-01-01T01:15:56.000Z</time>
      </trkpt>
      <trkpt lat="41.245367" lon="1.422981">
        <ele>271.9</ele>
        <time>1970-01-01T01:15:57.000Z</time>
      </trkpt>
      <trkpt lat="41.24533" lon="1.422967">
        <ele>271.8</ele>
        <time>1970-01-01T01:15:58.000Z</time>
      </trkpt>
      <trkpt lat="41.245292" lon="1.422954">
        <ele>271.7</ele>
        <time>1970-01-01T01:15:59.000Z</time>
      </trkpt>
      <trkpt lat="41.245253" lon="1.422935">
        <ele>271.6</ele>
        <time>1970-01-01T01:16:00.000Z</time>
      </trkpt>
      <trkpt lat="41.245219" lon="1.42292">
        <ele>271.4</ele>
        <time>1970-01-01T01:16:01.000Z</time>
      </trkpt>
      <trkpt lat="41.245185" lon="1.422905">
        <ele>271.3</ele>
        <time>1970-01-01T01:16:02.000Z</time>
      </trkpt>
      <trkpt lat="41.24516" lon="1.422886">
        <ele>271.2</ele>
        <time>1970-01-01T01:16:03.000Z</time>
      </trkpt>
      <trkpt lat="41.245125" lon="1.422862">
        <ele>271</ele>
        <time>1970-01-01T01:16:04.000Z</time>
      </trkpt>
      <trkpt lat="41.245096" lon="1.422839">
        <ele>270.9</ele>
        <time>1970-01-01T01:16:05.000Z</time>
      </trkpt>
      <trkpt lat="41.245067" lon="1.42281">
        <ele>270.7</ele>
        <time>1970-01-01T01:16:06.000Z</time>
      </trkpt>
      <trkpt lat="41.245041" lon="1.422782">
        <ele>270.6</ele>
        <time>1970-01-01T01:16:07.000Z</time>
      </trkpt>
      <trkpt lat="41.245017" lon="1.422767">
        <ele>270.5</ele>
        <time>1970-01-01T01:16:08.000Z</time>
      </trkpt>
      <trkpt lat="41.244992" lon="1.42274">
        <ele>270.4</ele>
        <time>1970-01-01T01:16:09.000Z</time>
      </trkpt>
      <trkpt lat="41.244973" lon="1.422708">
        <ele>270.2</ele>
        <time>1970-01-01T01:16:10.000Z</time>
      </trkpt>
      <trkpt lat="41.244955" lon="1.422675">
        <ele>270.1</ele>
        <time>1970-01-01T01:16:11.000Z</time>
      </trkpt>
      <trkpt lat="41.244937" lon="1.422642">
        <ele>270</ele>
        <time>1970-01-01T01:16:12.000Z</time>
      </trkpt>
      <trkpt lat="41.24492" lon="1.422611">
        <ele>269.9</ele>
        <time>1970-01-01T01:16:13.000Z</time>
      </trkpt>
      <trkpt lat="41.244891" lon="1.422557">
        <ele>269.8</ele>
        <time>1970-01-01T01:16:15.000Z</time>
      </trkpt>
      <trkpt lat="41.24487" lon="1.422495">
        <ele>269.7</ele>
        <time>1970-01-01T01:16:17.000Z</time>
      </trkpt>
      <trkpt lat="41.244852" lon="1.422461">
        <ele>269.6</ele>
        <time>1970-01-01T01:16:18.000Z</time>
      </trkpt>
      <trkpt lat="41.244835" lon="1.422419">
        <ele>269.5</ele>
        <time>1970-01-01T01:16:19.000Z</time>
      </trkpt>
      <trkpt lat="41.244819" lon="1.422376">
        <ele>269.4</ele>
        <time>1970-01-01T01:16:20.000Z</time>
      </trkpt>
      <trkpt lat="41.244796" lon="1.422332">
        <ele>269.3</ele>
        <time>1970-01-01T01:16:21.000Z</time>
      </trkpt>
      <trkpt lat="41.244772" lon="1.42228">
        <ele>269.1</ele>
        <time>1970-01-01T01:16:22.000Z</time>
      </trkpt>
      <trkpt lat="41.244746" lon="1.422227">
        <ele>269</ele>
        <time>1970-01-01T01:16:23.000Z</time>
      </trkpt>
      <trkpt lat="41.244715" lon="1.422183">
        <ele>268.9</ele>
        <time>1970-01-01T01:16:24.000Z</time>
      </trkpt>
      <trkpt lat="41.244684" lon="1.422122">
        <ele>268.7</ele>
        <time>1970-01-01T01:16:25.000Z</time>
      </trkpt>
      <trkpt lat="41.244655" lon="1.422068">
        <ele>268.6</ele>
        <time>1970-01-01T01:16:26.000Z</time>
      </trkpt>
      <trkpt lat="41.244619" lon="1.422024">
        <ele>268.5</ele>
        <time>1970-01-01T01:16:27.000Z</time>
      </trkpt>
      <trkpt lat="41.244586" lon="1.421961">
        <ele>268.3</ele>
        <time>1970-01-01T01:16:28.000Z</time>
      </trkpt>
      <trkpt lat="41.24455" lon="1.421897">
        <ele>268.2</ele>
        <time>1970-01-01T01:16:29.000Z</time>
      </trkpt>
      <trkpt lat="41.244506" lon="1.421831">
        <ele>268.1</ele>
        <time>1970-01-01T01:16:30.000Z</time>
      </trkpt>
      <trkpt lat="41.244473" lon="1.421757">
        <ele>268</ele>
        <time>1970-01-01T01:16:31.000Z</time>
      </trkpt>
      <trkpt lat="41.244446" lon="1.421685">
        <ele>268</ele>
        <time>1970-01-01T01:16:32.000Z</time>
      </trkpt>
      <trkpt lat="41.244417" lon="1.421619">
        <ele>267.9</ele>
        <time>1970-01-01T01:16:33.000Z</time>
      </trkpt>
      <trkpt lat="41.244388" lon="1.421556">
        <ele>267.9</ele>
        <time>1970-01-01T01:16:34.000Z</time>
      </trkpt>
      <trkpt lat="41.244354" lon="1.421489">
        <ele>267.9</ele>
        <time>1970-01-01T01:16:35.000Z</time>
      </trkpt>
      <trkpt lat="41.244316" lon="1.421418">
        <ele>267.9</ele>
        <time>1970-01-01T01:16:36.000Z</time>
      </trkpt>
      <trkpt lat="41.244277" lon="1.421342">
        <ele>267.9</ele>
        <time>1970-01-01T01:16:37.000Z</time>
      </trkpt>
      <trkpt lat="41.244237" lon="1.421265">
        <ele>267.9</ele>
        <time>1970-01-01T01:16:38.000Z</time>
      </trkpt>
      <trkpt lat="41.244201" lon="1.421181">
        <ele>267.9</ele>
        <time>1970-01-01T01:16:39.000Z</time>
      </trkpt>
      <trkpt lat="41.244159" lon="1.421107">
        <ele>267.9</ele>
        <time>1970-01-01T01:16:40.000Z</time>
      </trkpt>
      <trkpt lat="41.244115" lon="1.421015">
        <ele>267.9</ele>
        <time>1970-01-01T01:16:41.000Z</time>
      </trkpt>
      <trkpt lat="41.244081" lon="1.420949">
        <ele>267.9</ele>
        <time>1970-01-01T01:16:42.000Z</time>
      </trkpt>
      <trkpt lat="41.244045" lon="1.420899">
        <ele>267.9</ele>
        <time>1970-01-01T01:16:43.000Z</time>
      </trkpt>
      <trkpt lat="41.244008" lon="1.42084">
        <ele>267.9</ele>
        <time>1970-01-01T01:16:44.000Z</time>
      </trkpt>
      <trkpt lat="41.24397" lon="1.420779">
        <ele>267.9</ele>
        <time>1970-01-01T01:16:45.000Z</time>
      </trkpt>
      <trkpt lat="41.243916" lon="1.420675">
        <ele>267.9</ele>
        <time>1970-01-01T01:16:46.000Z</time>
      </trkpt>
      <trkpt lat="41.243879" lon="1.420609">
        <ele>267.9</ele>
        <time>1970-01-01T01:16:47.000Z</time>
      </trkpt>
      <trkpt lat="41.243843" lon="1.420545">
        <ele>267.8</ele>
        <time>1970-01-01T01:16:48.000Z</time>
      </trkpt>
      <trkpt lat="41.2438" lon="1.42047">
        <ele>267.8</ele>
        <time>1970-01-01T01:16:49.000Z</time>
      </trkpt>
      <trkpt lat="41.243756" lon="1.420385">
        <ele>267.7</ele>
        <time>1970-01-01T01:16:50.000Z</time>
      </trkpt>
      <trkpt lat="41.243724" lon="1.420325">
        <ele>267.7</ele>
        <time>1970-01-01T01:16:51.000Z</time>
      </trkpt>
      <trkpt lat="41.243683" lon="1.420258">
        <ele>267.7</ele>
        <time>1970-01-01T01:16:52.000Z</time>
      </trkpt>
      <trkpt lat="41.243643" lon="1.420188">
        <ele>267.6</ele>
        <time>1970-01-01T01:16:53.000Z</time>
      </trkpt>
      <trkpt lat="41.243603" lon="1.420124">
        <ele>267.6</ele>
        <time>1970-01-01T01:16:54.000Z</time>
      </trkpt>
      <trkpt lat="41.243563" lon="1.42006">
        <ele>267.6</ele>
        <time>1970-01-01T01:16:55.000Z</time>
      </trkpt>
      <trkpt lat="41.243533" lon="1.42">
        <ele>267.5</ele>
        <time>1970-01-01T01:16:56.000Z</time>
      </trkpt>
      <trkpt lat="41.243496" lon="1.419936">
        <ele>267.5</ele>
        <time>1970-01-01T01:16:57.000Z</time>
      </trkpt>
      <trkpt lat="41.243457" lon="1.419874">
        <ele>267.4</ele>
        <time>1970-01-01T01:16:58.000Z</time>
      </trkpt>
      <trkpt lat="41.243414" lon="1.419813">
        <ele>267.4</ele>
        <time>1970-01-01T01:16:59.000Z</time>
      </trkpt>
      <trkpt lat="41.24337" lon="1.419741">
        <ele>267.3</ele>
        <time>1970-01-01T01:17:00.000Z</time>
      </trkpt>
      <trkpt lat="41.243327" lon="1.419675">
        <ele>267.3</ele>
        <time>1970-01-01T01:17:01.000Z</time>
      </trkpt>
      <trkpt lat="41.243287" lon="1.419609">
        <ele>267.2</ele>
        <time>1970-01-01T01:17:02.000Z</time>
      </trkpt>
      <trkpt lat="41.243244" lon="1.419537">
        <ele>267.2</ele>
        <time>1970-01-01T01:17:03.000Z</time>
      </trkpt>
      <trkpt lat="41.243209" lon="1.419478">
        <ele>267.1</ele>
        <time>1970-01-01T01:17:04.000Z</time>
      </trkpt>
      <trkpt lat="41.243168" lon="1.419404">
        <ele>267.1</ele>
        <time>1970-01-01T01:17:05.000Z</time>
      </trkpt>
      <trkpt lat="41.243134" lon="1.419357">
        <ele>267</ele>
        <time>1970-01-01T01:17:06.000Z</time>
      </trkpt>
      <trkpt lat="41.243098" lon="1.419295">
        <ele>266.9</ele>
        <time>1970-01-01T01:17:07.000Z</time>
      </trkpt>
      <trkpt lat="41.243075" lon="1.419243">
        <ele>266.8</ele>
        <time>1970-01-01T01:17:08.000Z</time>
      </trkpt>
      <trkpt lat="41.243046" lon="1.419192">
        <ele>266.7</ele>
        <time>1970-01-01T01:17:09.000Z</time>
      </trkpt>
      <trkpt lat="41.243021" lon="1.419141">
        <ele>266.6</ele>
        <time>1970-01-01T01:17:10.000Z</time>
      </trkpt>
      <trkpt lat="41.243001" lon="1.419094">
        <ele>266.6</ele>
        <time>1970-01-01T01:17:11.000Z</time>
      </trkpt>
      <trkpt lat="41.24298" lon="1.419059">
        <ele>266.2</ele>
        <time>1970-01-01T01:17:12.000Z</time>
      </trkpt>
      <trkpt lat="41.242962" lon="1.419026">
        <ele>266.2</ele>
        <time>1970-01-01T01:17:13.000Z</time>
      </trkpt>
      <trkpt lat="41.242933" lon="1.418983">
        <ele>266.2</ele>
        <time>1970-01-01T01:17:15.000Z</time>
      </trkpt>
      <trkpt lat="41.242875" lon="1.418984">
        <ele>265.6</ele>
        <time>1970-01-01T01:17:17.000Z</time>
      </trkpt>
      <trkpt lat="41.242834" lon="1.418957">
        <ele>265.4</ele>
        <time>1970-01-01T01:17:18.000Z</time>
      </trkpt>
      <trkpt lat="41.242789" lon="1.418926">
        <ele>265.1</ele>
        <time>1970-01-01T01:17:19.000Z</time>
      </trkpt>
      <trkpt lat="41.242751" lon="1.418895">
        <ele>265</ele>
        <time>1970-01-01T01:17:20.000Z</time>
      </trkpt>
      <trkpt lat="41.242706" lon="1.418839">
        <ele>264.7</ele>
        <time>1970-01-01T01:17:21.000Z</time>
      </trkpt>
      <trkpt lat="41.242665" lon="1.418781">
        <ele>264.4</ele>
        <time>1970-01-01T01:17:22.000Z</time>
      </trkpt>
      <trkpt lat="41.242624" lon="1.41874">
        <ele>264.2</ele>
        <time>1970-01-01T01:17:23.000Z</time>
      </trkpt>
      <trkpt lat="41.242588" lon="1.41869">
        <ele>264</ele>
        <time>1970-01-01T01:17:24.000Z</time>
      </trkpt>
      <trkpt lat="41.242561" lon="1.418605">
        <ele>263.7</ele>
        <time>1970-01-01T01:17:25.000Z</time>
      </trkpt>
      <trkpt lat="41.242545" lon="1.418528">
        <ele>263.3</ele>
        <time>1970-01-01T01:17:26.000Z</time>
      </trkpt>
      <trkpt lat="41.242499" lon="1.418466">
        <ele>263</ele>
        <time>1970-01-01T01:17:27.000Z</time>
      </trkpt>
      <trkpt lat="41.24246" lon="1.418407">
        <ele>262.7</ele>
        <time>1970-01-01T01:17:28.000Z</time>
      </trkpt>
      <trkpt lat="41.242422" lon="1.418339">
        <ele>262.5</ele>
        <time>1970-01-01T01:17:29.000Z</time>
      </trkpt>
      <trkpt lat="41.242388" lon="1.418276">
        <ele>262.2</ele>
        <time>1970-01-01T01:17:30.000Z</time>
      </trkpt>
      <trkpt lat="41.242356" lon="1.418209">
        <ele>262</ele>
        <time>1970-01-01T01:17:31.000Z</time>
      </trkpt>
      <trkpt lat="41.242299" lon="1.41814">
        <ele>261.6</ele>
        <time>1970-01-01T01:17:32.000Z</time>
      </trkpt>
      <trkpt lat="41.242235" lon="1.41811">
        <ele>261.1</ele>
        <time>1970-01-01T01:17:33.000Z</time>
      </trkpt>
      <trkpt lat="41.242162" lon="1.418104">
        <ele>260.6</ele>
        <time>1970-01-01T01:17:34.000Z</time>
      </trkpt>
      <trkpt lat="41.242104" lon="1.418064">
        <ele>260.1</ele>
        <time>1970-01-01T01:17:35.000Z</time>
      </trkpt>
      <trkpt lat="41.242065" lon="1.418002">
        <ele>259.6</ele>
        <time>1970-01-01T01:17:36.000Z</time>
      </trkpt>
      <trkpt lat="41.242037" lon="1.417929">
        <ele>259.2</ele>
        <time>1970-01-01T01:17:37.000Z</time>
      </trkpt>
      <trkpt lat="41.242002" lon="1.417866">
        <ele>258.8</ele>
        <time>1970-01-01T01:17:38.000Z</time>
      </trkpt>
      <trkpt lat="41.241961" lon="1.41781">
        <ele>258.5</ele>
        <time>1970-01-01T01:17:39.000Z</time>
      </trkpt>
      <trkpt lat="41.241913" lon="1.417754">
        <ele>258.1</ele>
        <time>1970-01-01T01:17:40.000Z</time>
      </trkpt>
      <trkpt lat="41.241856" lon="1.417701">
        <ele>257.8</ele>
        <time>1970-01-01T01:17:41.000Z</time>
      </trkpt>
      <trkpt lat="41.241796" lon="1.417666">
        <ele>257.5</ele>
        <time>1970-01-01T01:17:42.000Z</time>
      </trkpt>
      <trkpt lat="41.241731" lon="1.417636">
        <ele>257.2</ele>
        <time>1970-01-01T01:17:43.000Z</time>
      </trkpt>
      <trkpt lat="41.241646" lon="1.41761">
        <ele>256.9</ele>
        <time>1970-01-01T01:17:44.000Z</time>
      </trkpt>
      <trkpt lat="41.241572" lon="1.417598">
        <ele>256.7</ele>
        <time>1970-01-01T01:17:45.000Z</time>
      </trkpt>
      <trkpt lat="41.241499" lon="1.417573">
        <ele>256.4</ele>
        <time>1970-01-01T01:17:46.000Z</time>
      </trkpt>
      <trkpt lat="41.241432" lon="1.41753">
        <ele>256.2</ele>
        <time>1970-01-01T01:17:47.000Z</time>
      </trkpt>
      <trkpt lat="41.241371" lon="1.417484">
        <ele>256</ele>
        <time>1970-01-01T01:17:48.000Z</time>
      </trkpt>
      <trkpt lat="41.241314" lon="1.417448">
        <ele>255.7</ele>
        <time>1970-01-01T01:17:49.000Z</time>
      </trkpt>
      <trkpt lat="41.241256" lon="1.417421">
        <ele>255.5</ele>
        <time>1970-01-01T01:17:50.000Z</time>
      </trkpt>
      <trkpt lat="41.241196" lon="1.417369">
        <ele>255.2</ele>
        <time>1970-01-01T01:17:51.000Z</time>
      </trkpt>
      <trkpt lat="41.241146" lon="1.417301">
        <ele>254.9</ele>
        <time>1970-01-01T01:17:52.000Z</time>
      </trkpt>
      <trkpt lat="41.241108" lon="1.417228">
        <ele>254.5</ele>
        <time>1970-01-01T01:17:53.000Z</time>
      </trkpt>
      <trkpt lat="41.241069" lon="1.417174">
        <ele>254.2</ele>
        <time>1970-01-01T01:17:54.000Z</time>
      </trkpt>
      <trkpt lat="41.241021" lon="1.417152">
        <ele>254</ele>
        <time>1970-01-01T01:17:55.000Z</time>
      </trkpt>
      <trkpt lat="41.240969" lon="1.41715">
        <ele>253.8</ele>
        <time>1970-01-01T01:17:56.000Z</time>
      </trkpt>
      <trkpt lat="41.240913" lon="1.417135">
        <ele>253.5</ele>
        <time>1970-01-01T01:17:57.000Z</time>
      </trkpt>
      <trkpt lat="41.240854" lon="1.417098">
        <ele>253.1</ele>
        <time>1970-01-01T01:17:58.000Z</time>
      </trkpt>
      <trkpt lat="41.240796" lon="1.41705">
        <ele>252.7</ele>
        <time>1970-01-01T01:17:59.000Z</time>
      </trkpt>
      <trkpt lat="41.240754" lon="1.416993">
        <ele>252.4</ele>
        <time>1970-01-01T01:18:00.000Z</time>
      </trkpt>
      <trkpt lat="41.240709" lon="1.416941">
        <ele>252</ele>
        <time>1970-01-01T01:18:01.000Z</time>
      </trkpt>
      <trkpt lat="41.240659" lon="1.416905">
        <ele>251.7</ele>
        <time>1970-01-01T01:18:02.000Z</time>
      </trkpt>
      <trkpt lat="41.240598" lon="1.416888">
        <ele>251.5</ele>
        <time>1970-01-01T01:18:03.000Z</time>
      </trkpt>
      <trkpt lat="41.24054" lon="1.416876">
        <ele>251.3</ele>
        <time>1970-01-01T01:18:04.000Z</time>
      </trkpt>
      <trkpt lat="41.240485" lon="1.416843">
        <ele>251.1</ele>
        <time>1970-01-01T01:18:05.000Z</time>
      </trkpt>
      <trkpt lat="41.240426" lon="1.416799">
        <ele>251</ele>
        <time>1970-01-01T01:18:06.000Z</time>
      </trkpt>
      <trkpt lat="41.240372" lon="1.416751">
        <ele>250.9</ele>
        <time>1970-01-01T01:18:07.000Z</time>
      </trkpt>
      <trkpt lat="41.240325" lon="1.416697">
        <ele>250.9</ele>
        <time>1970-01-01T01:18:08.000Z</time>
      </trkpt>
      <trkpt lat="41.240287" lon="1.416642">
        <ele>250.8</ele>
        <time>1970-01-01T01:18:09.000Z</time>
      </trkpt>
      <trkpt lat="41.240242" lon="1.4166">
        <ele>250.7</ele>
        <time>1970-01-01T01:18:10.000Z</time>
      </trkpt>
      <trkpt lat="41.240185" lon="1.416573">
        <ele>250.7</ele>
        <time>1970-01-01T01:18:11.000Z</time>
      </trkpt>
      <trkpt lat="41.24013" lon="1.416536">
        <ele>250.6</ele>
        <time>1970-01-01T01:18:12.000Z</time>
      </trkpt>
      <trkpt lat="41.240065" lon="1.416521">
        <ele>250.5</ele>
        <time>1970-01-01T01:18:13.000Z</time>
      </trkpt>
      <trkpt lat="41.240004" lon="1.416538">
        <ele>250.3</ele>
        <time>1970-01-01T01:18:14.000Z</time>
      </trkpt>
      <trkpt lat="41.239939" lon="1.416555">
        <ele>250.1</ele>
        <time>1970-01-01T01:18:15.000Z</time>
      </trkpt>
      <trkpt lat="41.239867" lon="1.416551">
        <ele>249.8</ele>
        <time>1970-01-01T01:18:16.000Z</time>
      </trkpt>
      <trkpt lat="41.239798" lon="1.416544">
        <ele>249.4</ele>
        <time>1970-01-01T01:18:17.000Z</time>
      </trkpt>
      <trkpt lat="41.239728" lon="1.41653">
        <ele>249</ele>
        <time>1970-01-01T01:18:18.000Z</time>
      </trkpt>
      <trkpt lat="41.239668" lon="1.416526">
        <ele>248.7</ele>
        <time>1970-01-01T01:18:19.000Z</time>
      </trkpt>
      <trkpt lat="41.239614" lon="1.416533">
        <ele>248.3</ele>
        <time>1970-01-01T01:18:20.000Z</time>
      </trkpt>
      <trkpt lat="41.239576" lon="1.416569">
        <ele>248</ele>
        <time>1970-01-01T01:18:21.000Z</time>
      </trkpt>
      <trkpt lat="41.239534" lon="1.416595">
        <ele>247.7</ele>
        <time>1970-01-01T01:18:22.000Z</time>
      </trkpt>
      <trkpt lat="41.239493" lon="1.416612">
        <ele>247.4</ele>
        <time>1970-01-01T01:18:23.000Z</time>
      </trkpt>
      <trkpt lat="41.239437" lon="1.416619">
        <ele>247.1</ele>
        <time>1970-01-01T01:18:24.000Z</time>
      </trkpt>
      <trkpt lat="41.239378" lon="1.416642">
        <ele>246.7</ele>
        <time>1970-01-01T01:18:25.000Z</time>
      </trkpt>
      <trkpt lat="41.239326" lon="1.416676">
        <ele>246.4</ele>
        <time>1970-01-01T01:18:26.000Z</time>
      </trkpt>
      <trkpt lat="41.239272" lon="1.416709">
        <ele>246.1</ele>
        <time>1970-01-01T01:18:27.000Z</time>
      </trkpt>
      <trkpt lat="41.239208" lon="1.416744">
        <ele>245.7</ele>
        <time>1970-01-01T01:18:28.000Z</time>
      </trkpt>
      <trkpt lat="41.239151" lon="1.416762">
        <ele>245.4</ele>
        <time>1970-01-01T01:18:29.000Z</time>
      </trkpt>
      <trkpt lat="41.239093" lon="1.416747">
        <ele>245.2</ele>
        <time>1970-01-01T01:18:30.000Z</time>
      </trkpt>
      <trkpt lat="41.239045" lon="1.416738">
        <ele>245.1</ele>
        <time>1970-01-01T01:18:31.000Z</time>
      </trkpt>
      <trkpt lat="41.239006" lon="1.416775">
        <ele>245</ele>
        <time>1970-01-01T01:18:32.000Z</time>
      </trkpt>
      <trkpt lat="41.23897" lon="1.416838">
        <ele>244.9</ele>
        <time>1970-01-01T01:18:33.000Z</time>
      </trkpt>
      <trkpt lat="41.238912" lon="1.416879">
        <ele>244.9</ele>
        <time>1970-01-01T01:18:34.000Z</time>
      </trkpt>
      <trkpt lat="41.238838" lon="1.416901">
        <ele>244.9</ele>
        <time>1970-01-01T01:18:35.000Z</time>
      </trkpt>
      <trkpt lat="41.238776" lon="1.416905">
        <ele>244.9</ele>
        <time>1970-01-01T01:18:36.000Z</time>
      </trkpt>
      <trkpt lat="41.238708" lon="1.416897">
        <ele>244.8</ele>
        <time>1970-01-01T01:18:37.000Z</time>
      </trkpt>
      <trkpt lat="41.238658" lon="1.416892">
        <ele>244.8</ele>
        <time>1970-01-01T01:18:38.000Z</time>
      </trkpt>
      <trkpt lat="41.238603" lon="1.416895">
        <ele>244.7</ele>
        <time>1970-01-01T01:18:39.000Z</time>
      </trkpt>
      <trkpt lat="41.238551" lon="1.416915">
        <ele>244.6</ele>
        <time>1970-01-01T01:18:40.000Z</time>
      </trkpt>
      <trkpt lat="41.238501" lon="1.416943">
        <ele>244.5</ele>
        <time>1970-01-01T01:18:41.000Z</time>
      </trkpt>
      <trkpt lat="41.238451" lon="1.416968">
        <ele>244.4</ele>
        <time>1970-01-01T01:18:42.000Z</time>
      </trkpt>
      <trkpt lat="41.238395" lon="1.416993">
        <ele>244.2</ele>
        <time>1970-01-01T01:18:43.000Z</time>
      </trkpt>
      <trkpt lat="41.238336" lon="1.417013">
        <ele>244</ele>
        <time>1970-01-01T01:18:44.000Z</time>
      </trkpt>
      <trkpt lat="41.238271" lon="1.417032">
        <ele>243.9</ele>
        <time>1970-01-01T01:18:45.000Z</time>
      </trkpt>
      <trkpt lat="41.238204" lon="1.41704">
        <ele>243.7</ele>
        <time>1970-01-01T01:18:46.000Z</time>
      </trkpt>
      <trkpt lat="41.23813" lon="1.417031">
        <ele>243.5</ele>
        <time>1970-01-01T01:18:47.000Z</time>
      </trkpt>
      <trkpt lat="41.238053" lon="1.417004">
        <ele>243.2</ele>
        <time>1970-01-01T01:18:48.000Z</time>
      </trkpt>
      <trkpt lat="41.237996" lon="1.416977">
        <ele>243.1</ele>
        <time>1970-01-01T01:18:49.000Z</time>
      </trkpt>
      <trkpt lat="41.237941" lon="1.416983">
        <ele>243</ele>
        <time>1970-01-01T01:18:50.000Z</time>
      </trkpt>
      <trkpt lat="41.23787" lon="1.416988">
        <ele>242.9</ele>
        <time>1970-01-01T01:18:51.000Z</time>
      </trkpt>
      <trkpt lat="41.237807" lon="1.416987">
        <ele>242.8</ele>
        <time>1970-01-01T01:18:52.000Z</time>
      </trkpt>
      <trkpt lat="41.237762" lon="1.416972">
        <ele>242.7</ele>
        <time>1970-01-01T01:18:53.000Z</time>
      </trkpt>
      <trkpt lat="41.237719" lon="1.416938">
        <ele>242.7</ele>
        <time>1970-01-01T01:18:55.000Z</time>
      </trkpt>
      <trkpt lat="41.237686" lon="1.41692">
        <ele>242.7</ele>
        <time>1970-01-01T01:18:57.000Z</time>
      </trkpt>
      <trkpt lat="41.237655" lon="1.416889">
        <ele>242.7</ele>
        <time>1970-01-01T01:18:58.000Z</time>
      </trkpt>
      <trkpt lat="41.237628" lon="1.416874">
        <ele>242.7</ele>
        <time>1970-01-01T01:18:59.000Z</time>
      </trkpt>
      <trkpt lat="41.237598" lon="1.416857">
        <ele>242.7</ele>
        <time>1970-01-01T01:19:00.000Z</time>
      </trkpt>
      <trkpt lat="41.237569" lon="1.416842">
        <ele>242.7</ele>
        <time>1970-01-01T01:19:01.000Z</time>
      </trkpt>
      <trkpt lat="41.237531" lon="1.416817">
        <ele>242.7</ele>
        <time>1970-01-01T01:19:03.000Z</time>
      </trkpt>
      <trkpt lat="41.237498" lon="1.416794">
        <ele>242.6</ele>
        <time>1970-01-01T01:19:04.000Z</time>
      </trkpt>
      <trkpt lat="41.237445" lon="1.416764">
        <ele>242.5</ele>
        <time>1970-01-01T01:19:06.000Z</time>
      </trkpt>
      <trkpt lat="41.237409" lon="1.416737">
        <ele>242.5</ele>
        <time>1970-01-01T01:19:07.000Z</time>
      </trkpt>
      <trkpt lat="41.237374" lon="1.416708">
        <ele>242.4</ele>
        <time>1970-01-01T01:19:08.000Z</time>
      </trkpt>
      <trkpt lat="41.237342" lon="1.416668">
        <ele>242.3</ele>
        <time>1970-01-01T01:19:09.000Z</time>
      </trkpt>
      <trkpt lat="41.237306" lon="1.416637">
        <ele>242.1</ele>
        <time>1970-01-01T01:19:10.000Z</time>
      </trkpt>
      <trkpt lat="41.237268" lon="1.416589">
        <ele>241.9</ele>
        <time>1970-01-01T01:19:11.000Z</time>
      </trkpt>
      <trkpt lat="41.237231" lon="1.416533">
        <ele>241.8</ele>
        <time>1970-01-01T01:19:12.000Z</time>
      </trkpt>
      <trkpt lat="41.237194" lon="1.416491">
        <ele>241.6</ele>
        <time>1970-01-01T01:19:13.000Z</time>
      </trkpt>
      <trkpt lat="41.237147" lon="1.416447">
        <ele>241.5</ele>
        <time>1970-01-01T01:19:14.000Z</time>
      </trkpt>
      <trkpt lat="41.237094" lon="1.416404">
        <ele>241.3</ele>
        <time>1970-01-01T01:19:15.000Z</time>
      </trkpt>
      <trkpt lat="41.23704" lon="1.41637">
        <ele>241.1</ele>
        <time>1970-01-01T01:19:16.000Z</time>
      </trkpt>
      <trkpt lat="41.236999" lon="1.416336">
        <ele>241</ele>
        <time>1970-01-01T01:19:17.000Z</time>
      </trkpt>
      <trkpt lat="41.236954" lon="1.416326">
        <ele>240.9</ele>
        <time>1970-01-01T01:19:18.000Z</time>
      </trkpt>
      <trkpt lat="41.236906" lon="1.416305">
        <ele>240.8</ele>
        <time>1970-01-01T01:19:19.000Z</time>
      </trkpt>
      <trkpt lat="41.236858" lon="1.416287">
        <ele>240.8</ele>
        <time>1970-01-01T01:19:20.000Z</time>
      </trkpt>
      <trkpt lat="41.236817" lon="1.416246">
        <ele>240.7</ele>
        <time>1970-01-01T01:19:21.000Z</time>
      </trkpt>
      <trkpt lat="41.236776" lon="1.416186">
        <ele>240.6</ele>
        <time>1970-01-01T01:19:22.000Z</time>
      </trkpt>
      <trkpt lat="41.236747" lon="1.416117">
        <ele>240.6</ele>
        <time>1970-01-01T01:19:23.000Z</time>
      </trkpt>
      <trkpt lat="41.236724" lon="1.416056">
        <ele>240.6</ele>
        <time>1970-01-01T01:19:24.000Z</time>
      </trkpt>
      <trkpt lat="41.236707" lon="1.41599">
        <ele>240.6</ele>
        <time>1970-01-01T01:19:25.000Z</time>
      </trkpt>
      <trkpt lat="41.236695" lon="1.41593">
        <ele>240.6</ele>
        <time>1970-01-01T01:19:26.000Z</time>
      </trkpt>
      <trkpt lat="41.236687" lon="1.41586">
        <ele>240.6</ele>
        <time>1970-01-01T01:19:27.000Z</time>
      </trkpt>
      <trkpt lat="41.236671" lon="1.415787">
        <ele>240.6</ele>
        <time>1970-01-01T01:19:28.000Z</time>
      </trkpt>
      <trkpt lat="41.236644" lon="1.415717">
        <ele>240.6</ele>
        <time>1970-01-01T01:19:29.000Z</time>
      </trkpt>
      <trkpt lat="41.236624" lon="1.415658">
        <ele>240.6</ele>
        <time>1970-01-01T01:19:30.000Z</time>
      </trkpt>
      <trkpt lat="41.236603" lon="1.415598">
        <ele>240.6</ele>
        <time>1970-01-01T01:19:31.000Z</time>
      </trkpt>
      <trkpt lat="41.236588" lon="1.415543">
        <ele>240.5</ele>
        <time>1970-01-01T01:19:32.000Z</time>
      </trkpt>
      <trkpt lat="41.236572" lon="1.415483">
        <ele>240.5</ele>
        <time>1970-01-01T01:19:33.000Z</time>
      </trkpt>
      <trkpt lat="41.236553" lon="1.415428">
        <ele>240.4</ele>
        <time>1970-01-01T01:19:34.000Z</time>
      </trkpt>
      <trkpt lat="41.236534" lon="1.415384">
        <ele>240.2</ele>
        <time>1970-01-01T01:19:35.000Z</time>
      </trkpt>
      <trkpt lat="41.236511" lon="1.415338">
        <ele>239.9</ele>
        <time>1970-01-01T01:19:36.000Z</time>
      </trkpt>
      <trkpt lat="41.236485" lon="1.415311">
        <ele>239.7</ele>
        <time>1970-01-01T01:19:37.000Z</time>
      </trkpt>
      <trkpt lat="41.236445" lon="1.415321">
        <ele>239.5</ele>
        <time>1970-01-01T01:19:38.000Z</time>
      </trkpt>
      <trkpt lat="41.236408" lon="1.415346">
        <ele>239.3</ele>
        <time>1970-01-01T01:19:39.000Z</time>
      </trkpt>
      <trkpt lat="41.236378" lon="1.415382">
        <ele>239.1</ele>
        <time>1970-01-01T01:19:40.000Z</time>
      </trkpt>
      <trkpt lat="41.236343" lon="1.415412">
        <ele>239</ele>
        <time>1970-01-01T01:19:41.000Z</time>
      </trkpt>
      <trkpt lat="41.236308" lon="1.415423">
        <ele>238.8</ele>
        <time>1970-01-01T01:19:42.000Z</time>
      </trkpt>
      <trkpt lat="41.236268" lon="1.415418">
        <ele>238.6</ele>
        <time>1970-01-01T01:19:43.000Z</time>
      </trkpt>
      <trkpt lat="41.236235" lon="1.415444">
        <ele>238.5</ele>
        <time>1970-01-01T01:19:44.000Z</time>
      </trkpt>
      <trkpt lat="41.236196" lon="1.415491">
        <ele>238.2</ele>
        <time>1970-01-01T01:19:45.000Z</time>
      </trkpt>
      <trkpt lat="41.236163" lon="1.415532">
        <ele>238.1</ele>
        <time>1970-01-01T01:19:46.000Z</time>
      </trkpt>
      <trkpt lat="41.236123" lon="1.41558">
        <ele>237.9</ele>
        <time>1970-01-01T01:19:47.000Z</time>
      </trkpt>
      <trkpt lat="41.236087" lon="1.415611">
        <ele>237.8</ele>
        <time>1970-01-01T01:19:48.000Z</time>
      </trkpt>
      <trkpt lat="41.236044" lon="1.415642">
        <ele>237.7</ele>
        <time>1970-01-01T01:19:49.000Z</time>
      </trkpt>
      <trkpt lat="41.235999" lon="1.415665">
        <ele>237.6</ele>
        <time>1970-01-01T01:19:50.000Z</time>
      </trkpt>
      <trkpt lat="41.235949" lon="1.415692">
        <ele>237.5</ele>
        <time>1970-01-01T01:19:51.000Z</time>
      </trkpt>
      <trkpt lat="41.235886" lon="1.415722">
        <ele>237.4</ele>
        <time>1970-01-01T01:19:52.000Z</time>
      </trkpt>
      <trkpt lat="41.235831" lon="1.415756">
        <ele>237.3</ele>
        <time>1970-01-01T01:19:53.000Z</time>
      </trkpt>
      <trkpt lat="41.23577" lon="1.415797">
        <ele>237.3</ele>
        <time>1970-01-01T01:19:54.000Z</time>
      </trkpt>
      <trkpt lat="41.23571" lon="1.415834">
        <ele>237.3</ele>
        <time>1970-01-01T01:19:55.000Z</time>
      </trkpt>
      <trkpt lat="41.235654" lon="1.415859">
        <ele>237.3</ele>
        <time>1970-01-01T01:19:56.000Z</time>
      </trkpt>
      <trkpt lat="41.235606" lon="1.415883">
        <ele>237.3</ele>
        <time>1970-01-01T01:19:57.000Z</time>
      </trkpt>
      <trkpt lat="41.235561" lon="1.415902">
        <ele>237.3</ele>
        <time>1970-01-01T01:19:58.000Z</time>
      </trkpt>
      <trkpt lat="41.235522" lon="1.415925">
        <ele>237.3</ele>
        <time>1970-01-01T01:19:59.000Z</time>
      </trkpt>
      <trkpt lat="41.235466" lon="1.415946">
        <ele>237.4</ele>
        <time>1970-01-01T01:20:00.000Z</time>
      </trkpt>
      <trkpt lat="41.235423" lon="1.415962">
        <ele>237.4</ele>
        <time>1970-01-01T01:20:01.000Z</time>
      </trkpt>
      <trkpt lat="41.235381" lon="1.415942">
        <ele>237.5</ele>
        <time>1970-01-01T01:20:02.000Z</time>
      </trkpt>
      <trkpt lat="41.235345" lon="1.41591">
        <ele>237.5</ele>
        <time>1970-01-01T01:20:03.000Z</time>
      </trkpt>
      <trkpt lat="41.235299" lon="1.415899">
        <ele>237.6</ele>
        <time>1970-01-01T01:20:04.000Z</time>
      </trkpt>
      <trkpt lat="41.235252" lon="1.415881">
        <ele>237.7</ele>
        <time>1970-01-01T01:20:05.000Z</time>
      </trkpt>
      <trkpt lat="41.235207" lon="1.415864">
        <ele>237.8</ele>
        <time>1970-01-01T01:20:06.000Z</time>
      </trkpt>
      <trkpt lat="41.235158" lon="1.415856">
        <ele>237.9</ele>
        <time>1970-01-01T01:20:07.000Z</time>
      </trkpt>
      <trkpt lat="41.235114" lon="1.415843">
        <ele>237.9</ele>
        <time>1970-01-01T01:20:08.000Z</time>
      </trkpt>
      <trkpt lat="41.235074" lon="1.415831">
        <ele>238</ele>
        <time>1970-01-01T01:20:09.000Z</time>
      </trkpt>
      <trkpt lat="41.235033" lon="1.415819">
        <ele>238.1</ele>
        <time>1970-01-01T01:20:10.000Z</time>
      </trkpt>
      <trkpt lat="41.234992" lon="1.415807">
        <ele>238.2</ele>
        <time>1970-01-01T01:20:11.000Z</time>
      </trkpt>
      <trkpt lat="41.234946" lon="1.415793">
        <ele>238.3</ele>
        <time>1970-01-01T01:20:12.000Z</time>
      </trkpt>
      <trkpt lat="41.234907" lon="1.415779">
        <ele>238.4</ele>
        <time>1970-01-01T01:20:13.000Z</time>
      </trkpt>
      <trkpt lat="41.234869" lon="1.415769">
        <ele>238.5</ele>
        <time>1970-01-01T01:20:14.000Z</time>
      </trkpt>
      <trkpt lat="41.234826" lon="1.415766">
        <ele>238.6</ele>
        <time>1970-01-01T01:20:15.000Z</time>
      </trkpt>
      <trkpt lat="41.234786" lon="1.415758">
        <ele>238.8</ele>
        <time>1970-01-01T01:20:16.000Z</time>
      </trkpt>
      <trkpt lat="41.234739" lon="1.415752">
        <ele>238.9</ele>
        <time>1970-01-01T01:20:17.000Z</time>
      </trkpt>
      <trkpt lat="41.234701" lon="1.415754">
        <ele>239</ele>
        <time>1970-01-01T01:20:18.000Z</time>
      </trkpt>
      <trkpt lat="41.234661" lon="1.415735">
        <ele>239.1</ele>
        <time>1970-01-01T01:20:19.000Z</time>
      </trkpt>
      <trkpt lat="41.234619" lon="1.415715">
        <ele>239.2</ele>
        <time>1970-01-01T01:20:20.000Z</time>
      </trkpt>
      <trkpt lat="41.234577" lon="1.415702">
        <ele>239.3</ele>
        <time>1970-01-01T01:20:21.000Z</time>
      </trkpt>
      <trkpt lat="41.234543" lon="1.41569">
        <ele>239.4</ele>
        <time>1970-01-01T01:20:22.000Z</time>
      </trkpt>
      <trkpt lat="41.234503" lon="1.415677">
        <ele>239.5</ele>
        <time>1970-01-01T01:20:23.000Z</time>
      </trkpt>
      <trkpt lat="41.234461" lon="1.415665">
        <ele>239.6</ele>
        <time>1970-01-01T01:20:24.000Z</time>
      </trkpt>
      <trkpt lat="41.234423" lon="1.415646">
        <ele>239.7</ele>
        <time>1970-01-01T01:20:25.000Z</time>
      </trkpt>
      <trkpt lat="41.234389" lon="1.415632">
        <ele>239.8</ele>
        <time>1970-01-01T01:20:26.000Z</time>
      </trkpt>
      <trkpt lat="41.234349" lon="1.415623">
        <ele>239.9</ele>
        <time>1970-01-01T01:20:27.000Z</time>
      </trkpt>
      <trkpt lat="41.234302" lon="1.415617">
        <ele>240</ele>
        <time>1970-01-01T01:20:28.000Z</time>
      </trkpt>
      <trkpt lat="41.234257" lon="1.41561">
        <ele>240.1</ele>
        <time>1970-01-01T01:20:29.000Z</time>
      </trkpt>
      <trkpt lat="41.234216" lon="1.415601">
        <ele>240.2</ele>
        <time>1970-01-01T01:20:30.000Z</time>
      </trkpt>
      <trkpt lat="41.23418" lon="1.415593">
        <ele>240.3</ele>
        <time>1970-01-01T01:20:31.000Z</time>
      </trkpt>
      <trkpt lat="41.234137" lon="1.41557">
        <ele>240.3</ele>
        <time>1970-01-01T01:20:32.000Z</time>
      </trkpt>
      <trkpt lat="41.234096" lon="1.41555">
        <ele>240.4</ele>
        <time>1970-01-01T01:20:33.000Z</time>
      </trkpt>
      <trkpt lat="41.234065" lon="1.415527">
        <ele>240.4</ele>
        <time>1970-01-01T01:20:34.000Z</time>
      </trkpt>
      <trkpt lat="41.234025" lon="1.415496">
        <ele>240.4</ele>
        <time>1970-01-01T01:20:35.000Z</time>
      </trkpt>
      <trkpt lat="41.233987" lon="1.41547">
        <ele>240.5</ele>
        <time>1970-01-01T01:20:36.000Z</time>
      </trkpt>
      <trkpt lat="41.233944" lon="1.415455">
        <ele>240.4</ele>
        <time>1970-01-01T01:20:37.000Z</time>
      </trkpt>
      <trkpt lat="41.233909" lon="1.415444">
        <ele>240.4</ele>
        <time>1970-01-01T01:20:38.000Z</time>
      </trkpt>
      <trkpt lat="41.233875" lon="1.41544">
        <ele>240.4</ele>
        <time>1970-01-01T01:20:39.000Z</time>
      </trkpt>
      <trkpt lat="41.233838" lon="1.415427">
        <ele>240.4</ele>
        <time>1970-01-01T01:20:40.000Z</time>
      </trkpt>
      <trkpt lat="41.233797" lon="1.415413">
        <ele>240.4</ele>
        <time>1970-01-01T01:20:41.000Z</time>
      </trkpt>
      <trkpt lat="41.23375" lon="1.415402">
        <ele>240.3</ele>
        <time>1970-01-01T01:20:42.000Z</time>
      </trkpt>
      <trkpt lat="41.233688" lon="1.415405">
        <ele>240.1</ele>
        <time>1970-01-01T01:20:43.000Z</time>
      </trkpt>
      <trkpt lat="41.233634" lon="1.415419">
        <ele>240</ele>
        <time>1970-01-01T01:20:44.000Z</time>
      </trkpt>
      <trkpt lat="41.233582" lon="1.415425">
        <ele>239.8</ele>
        <time>1970-01-01T01:20:45.000Z</time>
      </trkpt>
      <trkpt lat="41.23354" lon="1.415438">
        <ele>239.7</ele>
        <time>1970-01-01T01:20:46.000Z</time>
      </trkpt>
      <trkpt lat="41.233482" lon="1.415438">
        <ele>239.5</ele>
        <time>1970-01-01T01:20:47.000Z</time>
      </trkpt>
      <trkpt lat="41.233426" lon="1.415436">
        <ele>239.4</ele>
        <time>1970-01-01T01:20:48.000Z</time>
      </trkpt>
      <trkpt lat="41.233382" lon="1.415408">
        <ele>239.2</ele>
        <time>1970-01-01T01:20:49.000Z</time>
      </trkpt>
      <trkpt lat="41.233332" lon="1.415379">
        <ele>239</ele>
        <time>1970-01-01T01:20:50.000Z</time>
      </trkpt>
      <trkpt lat="41.233278" lon="1.415363">
        <ele>238.8</ele>
        <time>1970-01-01T01:20:51.000Z</time>
      </trkpt>
      <trkpt lat="41.233226" lon="1.415343">
        <ele>238.6</ele>
        <time>1970-01-01T01:20:52.000Z</time>
      </trkpt>
      <trkpt lat="41.233173" lon="1.415319">
        <ele>238.3</ele>
        <time>1970-01-01T01:20:53.000Z</time>
      </trkpt>
      <trkpt lat="41.233127" lon="1.415299">
        <ele>238.3</ele>
        <time>1970-01-01T01:20:54.000Z</time>
      </trkpt>
      <trkpt lat="41.233077" lon="1.415276">
        <ele>238.4</ele>
        <time>1970-01-01T01:20:55.000Z</time>
      </trkpt>
      <trkpt lat="41.233027" lon="1.415256">
        <ele>238.4</ele>
        <time>1970-01-01T01:20:56.000Z</time>
      </trkpt>
      <trkpt lat="41.232971" lon="1.415233">
        <ele>238.4</ele>
        <time>1970-01-01T01:20:57.000Z</time>
      </trkpt>
      <trkpt lat="41.23292" lon="1.415201">
        <ele>238.5</ele>
        <time>1970-01-01T01:20:58.000Z</time>
      </trkpt>
      <trkpt lat="41.23287" lon="1.41517">
        <ele>238.5</ele>
        <time>1970-01-01T01:20:59.000Z</time>
      </trkpt>
      <trkpt lat="41.232826" lon="1.415136">
        <ele>238.6</ele>
        <time>1970-01-01T01:21:00.000Z</time>
      </trkpt>
      <trkpt lat="41.232783" lon="1.415106">
        <ele>238.6</ele>
        <time>1970-01-01T01:21:01.000Z</time>
      </trkpt>
      <trkpt lat="41.232749" lon="1.415084">
        <ele>238.6</ele>
        <time>1970-01-01T01:21:02.000Z</time>
      </trkpt>
      <trkpt lat="41.232707" lon="1.415065">
        <ele>238.6</ele>
        <time>1970-01-01T01:21:03.000Z</time>
      </trkpt>
      <trkpt lat="41.232661" lon="1.415038">
        <ele>238.7</ele>
        <time>1970-01-01T01:21:04.000Z</time>
      </trkpt>
      <trkpt lat="41.232614" lon="1.415015">
        <ele>238.8</ele>
        <time>1970-01-01T01:21:05.000Z</time>
      </trkpt>
      <trkpt lat="41.232566" lon="1.414999">
        <ele>238.9</ele>
        <time>1970-01-01T01:21:06.000Z</time>
      </trkpt>
      <trkpt lat="41.232517" lon="1.414976">
        <ele>239</ele>
        <time>1970-01-01T01:21:07.000Z</time>
      </trkpt>
      <trkpt lat="41.232474" lon="1.414944">
        <ele>239.1</ele>
        <time>1970-01-01T01:21:08.000Z</time>
      </trkpt>
      <trkpt lat="41.232429" lon="1.414916">
        <ele>239.3</ele>
        <time>1970-01-01T01:21:09.000Z</time>
      </trkpt>
      <trkpt lat="41.232379" lon="1.414886">
        <ele>239.4</ele>
        <time>1970-01-01T01:21:10.000Z</time>
      </trkpt>
      <trkpt lat="41.232336" lon="1.414848">
        <ele>239.6</ele>
        <time>1970-01-01T01:21:11.000Z</time>
      </trkpt>
      <trkpt lat="41.232301" lon="1.414805">
        <ele>239.7</ele>
        <time>1970-01-01T01:21:12.000Z</time>
      </trkpt>
      <trkpt lat="41.232271" lon="1.414759">
        <ele>239.9</ele>
        <time>1970-01-01T01:21:13.000Z</time>
      </trkpt>
      <trkpt lat="41.232259" lon="1.414699">
        <ele>240</ele>
        <time>1970-01-01T01:21:14.000Z</time>
      </trkpt>
      <trkpt lat="41.232251" lon="1.414658">
        <ele>240.1</ele>
        <time>1970-01-01T01:21:15.000Z</time>
      </trkpt>
      <trkpt lat="41.232231" lon="1.414604">
        <ele>240.3</ele>
        <time>1970-01-01T01:21:16.000Z</time>
      </trkpt>
      <trkpt lat="41.232227" lon="1.414553">
        <ele>240.4</ele>
        <time>1970-01-01T01:21:17.000Z</time>
      </trkpt>
      <trkpt lat="41.232209" lon="1.414497">
        <ele>240.6</ele>
        <time>1970-01-01T01:21:18.000Z</time>
      </trkpt>
      <trkpt lat="41.232185" lon="1.41446">
        <ele>240.7</ele>
        <time>1970-01-01T01:21:19.000Z</time>
      </trkpt>
      <trkpt lat="41.232157" lon="1.414422">
        <ele>240.9</ele>
        <time>1970-01-01T01:21:20.000Z</time>
      </trkpt>
      <trkpt lat="41.232134" lon="1.414382">
        <ele>241.1</ele>
        <time>1970-01-01T01:21:21.000Z</time>
      </trkpt>
      <trkpt lat="41.232112" lon="1.414341">
        <ele>241.3</ele>
        <time>1970-01-01T01:21:22.000Z</time>
      </trkpt>
      <trkpt lat="41.232089" lon="1.414316">
        <ele>241.4</ele>
        <time>1970-01-01T01:21:23.000Z</time>
      </trkpt>
      <trkpt lat="41.232059" lon="1.414295">
        <ele>241.5</ele>
        <time>1970-01-01T01:21:24.000Z</time>
      </trkpt>
      <trkpt lat="41.232025" lon="1.414283">
        <ele>241.7</ele>
        <time>1970-01-01T01:21:25.000Z</time>
      </trkpt>
      <trkpt lat="41.231989" lon="1.414287">
        <ele>241.9</ele>
        <time>1970-01-01T01:21:26.000Z</time>
      </trkpt>
      <trkpt lat="41.231959" lon="1.4143">
        <ele>242</ele>
        <time>1970-01-01T01:21:27.000Z</time>
      </trkpt>
      <trkpt lat="41.231929" lon="1.414322">
        <ele>242.1</ele>
        <time>1970-01-01T01:21:28.000Z</time>
      </trkpt>
      <trkpt lat="41.231896" lon="1.414363">
        <ele>242.2</ele>
        <time>1970-01-01T01:21:29.000Z</time>
      </trkpt>
      <trkpt lat="41.231872" lon="1.414405">
        <ele>242.3</ele>
        <time>1970-01-01T01:21:30.000Z</time>
      </trkpt>
      <trkpt lat="41.231846" lon="1.414448">
        <ele>242.4</ele>
        <time>1970-01-01T01:21:31.000Z</time>
      </trkpt>
      <trkpt lat="41.231824" lon="1.414492">
        <ele>242.6</ele>
        <time>1970-01-01T01:21:32.000Z</time>
      </trkpt>
      <trkpt lat="41.231802" lon="1.414543">
        <ele>242.7</ele>
        <time>1970-01-01T01:21:33.000Z</time>
      </trkpt>
      <trkpt lat="41.231783" lon="1.414593">
        <ele>242.9</ele>
        <time>1970-01-01T01:21:34.000Z</time>
      </trkpt>
      <trkpt lat="41.231763" lon="1.414638">
        <ele>243</ele>
        <time>1970-01-01T01:21:35.000Z</time>
      </trkpt>
      <trkpt lat="41.231743" lon="1.414677">
        <ele>243.2</ele>
        <time>1970-01-01T01:21:36.000Z</time>
      </trkpt>
      <trkpt lat="41.231722" lon="1.414723">
        <ele>243.3</ele>
        <time>1970-01-01T01:21:37.000Z</time>
      </trkpt>
      <trkpt lat="41.231704" lon="1.414771">
        <ele>243.5</ele>
        <time>1970-01-01T01:21:38.000Z</time>
      </trkpt>
      <trkpt lat="41.231673" lon="1.414819">
        <ele>243.6</ele>
        <time>1970-01-01T01:21:39.000Z</time>
      </trkpt>
      <trkpt lat="41.231651" lon="1.414865">
        <ele>243.8</ele>
        <time>1970-01-01T01:21:40.000Z</time>
      </trkpt>
      <trkpt lat="41.231631" lon="1.414905">
        <ele>244.1</ele>
        <time>1970-01-01T01:21:41.000Z</time>
      </trkpt>
      <trkpt lat="41.231611" lon="1.414936">
        <ele>244.2</ele>
        <time>1970-01-01T01:21:42.000Z</time>
      </trkpt>
      <trkpt lat="41.231585" lon="1.414972">
        <ele>244.4</ele>
        <time>1970-01-01T01:21:43.000Z</time>
      </trkpt>
      <trkpt lat="41.231556" lon="1.414989">
        <ele>244.6</ele>
        <time>1970-01-01T01:21:44.000Z</time>
      </trkpt>
      <trkpt lat="41.231522" lon="1.415009">
        <ele>244.8</ele>
        <time>1970-01-01T01:21:45.000Z</time>
      </trkpt>
      <trkpt lat="41.23149" lon="1.415023">
        <ele>244.9</ele>
        <time>1970-01-01T01:21:46.000Z</time>
      </trkpt>
      <trkpt lat="41.231459" lon="1.41504">
        <ele>245.1</ele>
        <time>1970-01-01T01:21:47.000Z</time>
      </trkpt>
      <trkpt lat="41.231423" lon="1.415038">
        <ele>245.3</ele>
        <time>1970-01-01T01:21:48.000Z</time>
      </trkpt>
      <trkpt lat="41.231395" lon="1.415039">
        <ele>245.5</ele>
        <time>1970-01-01T01:21:49.000Z</time>
      </trkpt>
      <trkpt lat="41.231365" lon="1.415034">
        <ele>245.6</ele>
        <time>1970-01-01T01:21:50.000Z</time>
      </trkpt>
      <trkpt lat="41.231336" lon="1.415028">
        <ele>245.7</ele>
        <time>1970-01-01T01:21:51.000Z</time>
      </trkpt>
      <trkpt lat="41.231307" lon="1.414995">
        <ele>245.7</ele>
        <time>1970-01-01T01:21:52.000Z</time>
      </trkpt>
      <trkpt lat="41.231282" lon="1.414975">
        <ele>245.8</ele>
        <time>1970-01-01T01:21:53.000Z</time>
      </trkpt>
      <trkpt lat="41.231251" lon="1.414958">
        <ele>245.7</ele>
        <time>1970-01-01T01:21:54.000Z</time>
      </trkpt>
      <trkpt lat="41.231222" lon="1.414942">
        <ele>245.7</ele>
        <time>1970-01-01T01:21:55.000Z</time>
      </trkpt>
      <trkpt lat="41.231195" lon="1.414927">
        <ele>245.8</ele>
        <time>1970-01-01T01:21:56.000Z</time>
      </trkpt>
      <trkpt lat="41.231168" lon="1.414901">
        <ele>245.7</ele>
        <time>1970-01-01T01:21:57.000Z</time>
      </trkpt>
      <trkpt lat="41.231136" lon="1.41489">
        <ele>245.7</ele>
        <time>1970-01-01T01:21:58.000Z</time>
      </trkpt>
      <trkpt lat="41.231106" lon="1.414877">
        <ele>245.7</ele>
        <time>1970-01-01T01:21:59.000Z</time>
      </trkpt>
      <trkpt lat="41.231078" lon="1.414863">
        <ele>245.6</ele>
        <time>1970-01-01T01:22:00.000Z</time>
      </trkpt>
      <trkpt lat="41.231042" lon="1.414849">
        <ele>245.6</ele>
        <time>1970-01-01T01:22:01.000Z</time>
      </trkpt>
      <trkpt lat="41.231008" lon="1.414841">
        <ele>245.6</ele>
        <time>1970-01-01T01:22:02.000Z</time>
      </trkpt>
      <trkpt lat="41.230956" lon="1.414819">
        <ele>245.4</ele>
        <time>1970-01-01T01:22:04.000Z</time>
      </trkpt>
      <trkpt lat="41.230921" lon="1.414799">
        <ele>245.3</ele>
        <time>1970-01-01T01:22:05.000Z</time>
      </trkpt>
      <trkpt lat="41.230883" lon="1.414777">
        <ele>245.1</ele>
        <time>1970-01-01T01:22:06.000Z</time>
      </trkpt>
      <trkpt lat="41.23085" lon="1.41475">
        <ele>245</ele>
        <time>1970-01-01T01:22:07.000Z</time>
      </trkpt>
      <trkpt lat="41.230817" lon="1.414723">
        <ele>244.7</ele>
        <time>1970-01-01T01:22:08.000Z</time>
      </trkpt>
      <trkpt lat="41.23078" lon="1.414692">
        <ele>244.4</ele>
        <time>1970-01-01T01:22:09.000Z</time>
      </trkpt>
      <trkpt lat="41.230736" lon="1.414665">
        <ele>244.2</ele>
        <time>1970-01-01T01:22:10.000Z</time>
      </trkpt>
      <trkpt lat="41.230691" lon="1.414641">
        <ele>243.8</ele>
        <time>1970-01-01T01:22:11.000Z</time>
      </trkpt>
      <trkpt lat="41.230643" lon="1.414615">
        <ele>243.4</ele>
        <time>1970-01-01T01:22:12.000Z</time>
      </trkpt>
      <trkpt lat="41.2306" lon="1.414605">
        <ele>243.1</ele>
        <time>1970-01-01T01:22:13.000Z</time>
      </trkpt>
      <trkpt lat="41.230547" lon="1.414599">
        <ele>242.9</ele>
        <time>1970-01-01T01:22:14.000Z</time>
      </trkpt>
      <trkpt lat="41.230493" lon="1.414613">
        <ele>242.6</ele>
        <time>1970-01-01T01:22:15.000Z</time>
      </trkpt>
      <trkpt lat="41.230442" lon="1.414645">
        <ele>242.5</ele>
        <time>1970-01-01T01:22:16.000Z</time>
      </trkpt>
      <trkpt lat="41.230397" lon="1.414667">
        <ele>242.6</ele>
        <time>1970-01-01T01:22:17.000Z</time>
      </trkpt>
      <trkpt lat="41.230359" lon="1.414683">
        <ele>242.4</ele>
        <time>1970-01-01T01:22:18.000Z</time>
      </trkpt>
      <trkpt lat="41.230333" lon="1.414701">
        <ele>242.3</ele>
        <time>1970-01-01T01:22:19.000Z</time>
      </trkpt>
      <trkpt lat="41.230298" lon="1.414717">
        <ele>242.3</ele>
        <time>1970-01-01T01:22:20.000Z</time>
      </trkpt>
      <trkpt lat="41.230259" lon="1.414721">
        <ele>242.1</ele>
        <time>1970-01-01T01:22:21.000Z</time>
      </trkpt>
      <trkpt lat="41.230214" lon="1.414725">
        <ele>241.9</ele>
        <time>1970-01-01T01:22:22.000Z</time>
      </trkpt>
      <trkpt lat="41.230159" lon="1.414736">
        <ele>241.8</ele>
        <time>1970-01-01T01:22:23.000Z</time>
      </trkpt>
      <trkpt lat="41.230108" lon="1.414732">
        <ele>241.5</ele>
        <time>1970-01-01T01:22:24.000Z</time>
      </trkpt>
      <trkpt lat="41.230063" lon="1.414738">
        <ele>241.4</ele>
        <time>1970-01-01T01:22:25.000Z</time>
      </trkpt>
      <trkpt lat="41.230022" lon="1.414751">
        <ele>241.3</ele>
        <time>1970-01-01T01:22:26.000Z</time>
      </trkpt>
      <trkpt lat="41.229975" lon="1.414755">
        <ele>241.1</ele>
        <time>1970-01-01T01:22:27.000Z</time>
      </trkpt>
      <trkpt lat="41.229927" lon="1.414758">
        <ele>240.9</ele>
        <time>1970-01-01T01:22:28.000Z</time>
      </trkpt>
      <trkpt lat="41.22988" lon="1.414766">
        <ele>240.8</ele>
        <time>1970-01-01T01:22:29.000Z</time>
      </trkpt>
      <trkpt lat="41.229827" lon="1.414778">
        <ele>240.7</ele>
        <time>1970-01-01T01:22:30.000Z</time>
      </trkpt>
      <trkpt lat="41.229776" lon="1.414796">
        <ele>240.8</ele>
        <time>1970-01-01T01:22:31.000Z</time>
      </trkpt>
      <trkpt lat="41.22973" lon="1.414808">
        <ele>240.7</ele>
        <time>1970-01-01T01:22:32.000Z</time>
      </trkpt>
      <trkpt lat="41.229691" lon="1.414837">
        <ele>241</ele>
        <time>1970-01-01T01:22:33.000Z</time>
      </trkpt>
      <trkpt lat="41.229667" lon="1.414886">
        <ele>241.2</ele>
        <time>1970-01-01T01:22:34.000Z</time>
      </trkpt>
      <trkpt lat="41.229672" lon="1.414942">
        <ele>241.4</ele>
        <time>1970-01-01T01:22:35.000Z</time>
      </trkpt>
      <trkpt lat="41.229679" lon="1.414991">
        <ele>241.6</ele>
        <time>1970-01-01T01:22:36.000Z</time>
      </trkpt>
      <trkpt lat="41.229681" lon="1.41503">
        <ele>241.7</ele>
        <time>1970-01-01T01:22:37.000Z</time>
      </trkpt>
      <trkpt lat="41.229684" lon="1.415075">
        <ele>241.8</ele>
        <time>1970-01-01T01:22:38.000Z</time>
      </trkpt>
      <trkpt lat="41.229676" lon="1.41513">
        <ele>241.9</ele>
        <time>1970-01-01T01:22:39.000Z</time>
      </trkpt>
      <trkpt lat="41.229665" lon="1.415182">
        <ele>242</ele>
        <time>1970-01-01T01:22:40.000Z</time>
      </trkpt>
      <trkpt lat="41.229651" lon="1.415234">
        <ele>242.1</ele>
        <time>1970-01-01T01:22:41.000Z</time>
      </trkpt>
      <trkpt lat="41.229635" lon="1.415285">
        <ele>242.2</ele>
        <time>1970-01-01T01:22:42.000Z</time>
      </trkpt>
      <trkpt lat="41.229618" lon="1.415333">
        <ele>242.3</ele>
        <time>1970-01-01T01:22:43.000Z</time>
      </trkpt>
      <trkpt lat="41.2296" lon="1.415377">
        <ele>242.5</ele>
        <time>1970-01-01T01:22:44.000Z</time>
      </trkpt>
      <trkpt lat="41.229577" lon="1.415417">
        <ele>242.7</ele>
        <time>1970-01-01T01:22:45.000Z</time>
      </trkpt>
      <trkpt lat="41.22955" lon="1.415457">
        <ele>242.9</ele>
        <time>1970-01-01T01:22:46.000Z</time>
      </trkpt>
      <trkpt lat="41.229522" lon="1.415477">
        <ele>243.1</ele>
        <time>1970-01-01T01:22:47.000Z</time>
      </trkpt>
      <trkpt lat="41.229484" lon="1.415497">
        <ele>243.2</ele>
        <time>1970-01-01T01:22:48.000Z</time>
      </trkpt>
      <trkpt lat="41.229453" lon="1.415506">
        <ele>243.4</ele>
        <time>1970-01-01T01:22:49.000Z</time>
      </trkpt>
      <trkpt lat="41.229406" lon="1.415505">
        <ele>243.6</ele>
        <time>1970-01-01T01:22:50.000Z</time>
      </trkpt>
      <trkpt lat="41.229365" lon="1.415506">
        <ele>243.7</ele>
        <time>1970-01-01T01:22:51.000Z</time>
      </trkpt>
      <trkpt lat="41.22933" lon="1.41553">
        <ele>243.9</ele>
        <time>1970-01-01T01:22:52.000Z</time>
      </trkpt>
      <trkpt lat="41.229288" lon="1.415558">
        <ele>244.1</ele>
        <time>1970-01-01T01:22:53.000Z</time>
      </trkpt>
      <trkpt lat="41.229248" lon="1.415582">
        <ele>244.3</ele>
        <time>1970-01-01T01:22:54.000Z</time>
      </trkpt>
      <trkpt lat="41.229212" lon="1.415605">
        <ele>244.5</ele>
        <time>1970-01-01T01:22:55.000Z</time>
      </trkpt>
      <trkpt lat="41.229178" lon="1.415635">
        <ele>244.7</ele>
        <time>1970-01-01T01:22:56.000Z</time>
      </trkpt>
      <trkpt lat="41.229145" lon="1.415666">
        <ele>244.9</ele>
        <time>1970-01-01T01:22:57.000Z</time>
      </trkpt>
      <trkpt lat="41.229111" lon="1.415698">
        <ele>245.1</ele>
        <time>1970-01-01T01:22:58.000Z</time>
      </trkpt>
      <trkpt lat="41.229081" lon="1.415732">
        <ele>245.3</ele>
        <time>1970-01-01T01:22:59.000Z</time>
      </trkpt>
      <trkpt lat="41.229049" lon="1.415757">
        <ele>245.5</ele>
        <time>1970-01-01T01:23:00.000Z</time>
      </trkpt>
      <trkpt lat="41.22902" lon="1.415802">
        <ele>245.7</ele>
        <time>1970-01-01T01:23:01.000Z</time>
      </trkpt>
      <trkpt lat="41.228996" lon="1.415845">
        <ele>246</ele>
        <time>1970-01-01T01:23:02.000Z</time>
      </trkpt>
      <trkpt lat="41.22898" lon="1.415883">
        <ele>246.2</ele>
        <time>1970-01-01T01:23:03.000Z</time>
      </trkpt>
      <trkpt lat="41.228956" lon="1.41593">
        <ele>246.5</ele>
        <time>1970-01-01T01:23:04.000Z</time>
      </trkpt>
      <trkpt lat="41.22894" lon="1.415978">
        <ele>246.8</ele>
        <time>1970-01-01T01:23:05.000Z</time>
      </trkpt>
      <trkpt lat="41.228923" lon="1.416014">
        <ele>247</ele>
        <time>1970-01-01T01:23:06.000Z</time>
      </trkpt>
      <trkpt lat="41.22891" lon="1.416053">
        <ele>247.2</ele>
        <time>1970-01-01T01:23:07.000Z</time>
      </trkpt>
      <trkpt lat="41.22889" lon="1.416091">
        <ele>247.5</ele>
        <time>1970-01-01T01:23:08.000Z</time>
      </trkpt>
      <trkpt lat="41.228881" lon="1.416135">
        <ele>247.7</ele>
        <time>1970-01-01T01:23:09.000Z</time>
      </trkpt>
      <trkpt lat="41.228863" lon="1.416176">
        <ele>247.9</ele>
        <time>1970-01-01T01:23:10.000Z</time>
      </trkpt>
      <trkpt lat="41.228845" lon="1.416217">
        <ele>248.1</ele>
        <time>1970-01-01T01:23:11.000Z</time>
      </trkpt>
      <trkpt lat="41.228835" lon="1.416255">
        <ele>248.3</ele>
        <time>1970-01-01T01:23:12.000Z</time>
      </trkpt>
      <trkpt lat="41.228825" lon="1.416292">
        <ele>248.5</ele>
        <time>1970-01-01T01:23:13.000Z</time>
      </trkpt>
      <trkpt lat="41.228812" lon="1.416328">
        <ele>248.6</ele>
        <time>1970-01-01T01:23:14.000Z</time>
      </trkpt>
      <trkpt lat="41.228784" lon="1.416398">
        <ele>248.9</ele>
        <time>1970-01-01T01:23:16.000Z</time>
      </trkpt>
      <trkpt lat="41.228765" lon="1.416435">
        <ele>249.1</ele>
        <time>1970-01-01T01:23:17.000Z</time>
      </trkpt>
      <trkpt lat="41.228756" lon="1.416471">
        <ele>249.2</ele>
        <time>1970-01-01T01:23:18.000Z</time>
      </trkpt>
      <trkpt lat="41.228737" lon="1.416536">
        <ele>249.5</ele>
        <time>1970-01-01T01:23:20.000Z</time>
      </trkpt>
      <trkpt lat="41.228727" lon="1.416608">
        <ele>249.7</ele>
        <time>1970-01-01T01:23:22.000Z</time>
      </trkpt>
      <trkpt lat="41.228713" lon="1.416649">
        <ele>249.9</ele>
        <time>1970-01-01T01:23:23.000Z</time>
      </trkpt>
      <trkpt lat="41.228693" lon="1.416691">
        <ele>250.1</ele>
        <time>1970-01-01T01:23:24.000Z</time>
      </trkpt>
      <trkpt lat="41.228677" lon="1.416734">
        <ele>250.2</ele>
        <time>1970-01-01T01:23:25.000Z</time>
      </trkpt>
      <trkpt lat="41.228664" lon="1.416773">
        <ele>250.4</ele>
        <time>1970-01-01T01:23:26.000Z</time>
      </trkpt>
      <trkpt lat="41.228651" lon="1.416815">
        <ele>250.6</ele>
        <time>1970-01-01T01:23:27.000Z</time>
      </trkpt>
      <trkpt lat="41.228635" lon="1.416845">
        <ele>250.7</ele>
        <time>1970-01-01T01:23:28.000Z</time>
      </trkpt>
      <trkpt lat="41.228621" lon="1.416885">
        <ele>250.8</ele>
        <time>1970-01-01T01:23:29.000Z</time>
      </trkpt>
      <trkpt lat="41.22861" lon="1.416918">
        <ele>251</ele>
        <time>1970-01-01T01:23:30.000Z</time>
      </trkpt>
      <trkpt lat="41.228591" lon="1.416959">
        <ele>251.1</ele>
        <time>1970-01-01T01:23:31.000Z</time>
      </trkpt>
      <trkpt lat="41.228572" lon="1.417004">
        <ele>251.2</ele>
        <time>1970-01-01T01:23:32.000Z</time>
      </trkpt>
      <trkpt lat="41.228557" lon="1.417051">
        <ele>251.4</ele>
        <time>1970-01-01T01:23:33.000Z</time>
      </trkpt>
      <trkpt lat="41.228538" lon="1.417088">
        <ele>251.5</ele>
        <time>1970-01-01T01:23:34.000Z</time>
      </trkpt>
      <trkpt lat="41.22852" lon="1.417126">
        <ele>251.6</ele>
        <time>1970-01-01T01:23:35.000Z</time>
      </trkpt>
      <trkpt lat="41.228497" lon="1.417155">
        <ele>251.7</ele>
        <time>1970-01-01T01:23:36.000Z</time>
      </trkpt>
      <trkpt lat="41.228476" lon="1.41719">
        <ele>251.8</ele>
        <time>1970-01-01T01:23:37.000Z</time>
      </trkpt>
      <trkpt lat="41.228452" lon="1.417224">
        <ele>252</ele>
        <time>1970-01-01T01:23:38.000Z</time>
      </trkpt>
      <trkpt lat="41.228433" lon="1.417262">
        <ele>252.1</ele>
        <time>1970-01-01T01:23:39.000Z</time>
      </trkpt>
      <trkpt lat="41.228414" lon="1.417296">
        <ele>252.3</ele>
        <time>1970-01-01T01:23:40.000Z</time>
      </trkpt>
      <trkpt lat="41.228399" lon="1.417337">
        <ele>252.4</ele>
        <time>1970-01-01T01:23:41.000Z</time>
      </trkpt>
      <trkpt lat="41.228384" lon="1.417381">
        <ele>252.7</ele>
        <time>1970-01-01T01:23:42.000Z</time>
      </trkpt>
      <trkpt lat="41.228364" lon="1.417425">
        <ele>252.9</ele>
        <time>1970-01-01T01:23:43.000Z</time>
      </trkpt>
      <trkpt lat="41.228346" lon="1.417465">
        <ele>253.1</ele>
        <time>1970-01-01T01:23:44.000Z</time>
      </trkpt>
      <trkpt lat="41.228326" lon="1.417498">
        <ele>253.3</ele>
        <time>1970-01-01T01:23:45.000Z</time>
      </trkpt>
      <trkpt lat="41.228301" lon="1.417528">
        <ele>253.5</ele>
        <time>1970-01-01T01:23:46.000Z</time>
      </trkpt>
      <trkpt lat="41.228276" lon="1.417565">
        <ele>253.7</ele>
        <time>1970-01-01T01:23:47.000Z</time>
      </trkpt>
      <trkpt lat="41.228253" lon="1.417598">
        <ele>253.9</ele>
        <time>1970-01-01T01:23:48.000Z</time>
      </trkpt>
      <trkpt lat="41.228226" lon="1.417629">
        <ele>254.1</ele>
        <time>1970-01-01T01:23:49.000Z</time>
      </trkpt>
      <trkpt lat="41.2282" lon="1.417667">
        <ele>254.3</ele>
        <time>1970-01-01T01:23:50.000Z</time>
      </trkpt>
      <trkpt lat="41.228176" lon="1.417703">
        <ele>254.5</ele>
        <time>1970-01-01T01:23:51.000Z</time>
      </trkpt>
      <trkpt lat="41.228159" lon="1.417733">
        <ele>254.6</ele>
        <time>1970-01-01T01:23:52.000Z</time>
      </trkpt>
      <trkpt lat="41.228127" lon="1.417782">
        <ele>254.9</ele>
        <time>1970-01-01T01:23:54.000Z</time>
      </trkpt>
      <trkpt lat="41.228103" lon="1.417815">
        <ele>255.1</ele>
        <time>1970-01-01T01:23:55.000Z</time>
      </trkpt>
      <trkpt lat="41.22808" lon="1.41785">
        <ele>255.2</ele>
        <time>1970-01-01T01:23:56.000Z</time>
      </trkpt>
      <trkpt lat="41.228061" lon="1.417885">
        <ele>255.4</ele>
        <time>1970-01-01T01:23:57.000Z</time>
      </trkpt>
      <trkpt lat="41.228045" lon="1.417922">
        <ele>255.5</ele>
        <time>1970-01-01T01:23:58.000Z</time>
      </trkpt>
      <trkpt lat="41.228026" lon="1.417959">
        <ele>255.7</ele>
        <time>1970-01-01T01:23:59.000Z</time>
      </trkpt>
      <trkpt lat="41.228002" lon="1.417997">
        <ele>255.8</ele>
        <time>1970-01-01T01:24:00.000Z</time>
      </trkpt>
      <trkpt lat="41.227985" lon="1.418028">
        <ele>255.9</ele>
        <time>1970-01-01T01:24:01.000Z</time>
      </trkpt>
      <trkpt lat="41.22797" lon="1.418059">
        <ele>255.9</ele>
        <time>1970-01-01T01:24:02.000Z</time>
      </trkpt>
      <trkpt lat="41.227948" lon="1.41808">
        <ele>256</ele>
        <time>1970-01-01T01:24:03.000Z</time>
      </trkpt>
      <trkpt lat="41.227927" lon="1.418107">
        <ele>256.2</ele>
        <time>1970-01-01T01:24:04.000Z</time>
      </trkpt>
      <trkpt lat="41.227882" lon="1.418102">
        <ele>256.4</ele>
        <time>1970-01-01T01:24:06.000Z</time>
      </trkpt>
      <trkpt lat="41.227852" lon="1.418075">
        <ele>256.5</ele>
        <time>1970-01-01T01:24:07.000Z</time>
      </trkpt>
      <trkpt lat="41.227829" lon="1.418051">
        <ele>256.7</ele>
        <time>1970-01-01T01:24:08.000Z</time>
      </trkpt>
      <trkpt lat="41.227801" lon="1.418024">
        <ele>256.8</ele>
        <time>1970-01-01T01:24:09.000Z</time>
      </trkpt>
      <trkpt lat="41.227771" lon="1.417997">
        <ele>256.8</ele>
        <time>1970-01-01T01:24:10.000Z</time>
      </trkpt>
      <trkpt lat="41.227737" lon="1.417976">
        <ele>256.9</ele>
        <time>1970-01-01T01:24:11.000Z</time>
      </trkpt>
      <trkpt lat="41.227708" lon="1.417956">
        <ele>256.9</ele>
        <time>1970-01-01T01:24:12.000Z</time>
      </trkpt>
      <trkpt lat="41.227671" lon="1.417936">
        <ele>256.9</ele>
        <time>1970-01-01T01:24:13.000Z</time>
      </trkpt>
      <trkpt lat="41.227634" lon="1.417918">
        <ele>256.9</ele>
        <time>1970-01-01T01:24:14.000Z</time>
      </trkpt>
      <trkpt lat="41.227593" lon="1.417895">
        <ele>256.9</ele>
        <time>1970-01-01T01:24:15.000Z</time>
      </trkpt>
      <trkpt lat="41.227551" lon="1.417874">
        <ele>256.8</ele>
        <time>1970-01-01T01:24:16.000Z</time>
      </trkpt>
      <trkpt lat="41.227509" lon="1.41785">
        <ele>256.7</ele>
        <time>1970-01-01T01:24:17.000Z</time>
      </trkpt>
      <trkpt lat="41.227465" lon="1.417811">
        <ele>256.6</ele>
        <time>1970-01-01T01:24:18.000Z</time>
      </trkpt>
      <trkpt lat="41.227422" lon="1.417785">
        <ele>256.5</ele>
        <time>1970-01-01T01:24:19.000Z</time>
      </trkpt>
      <trkpt lat="41.227369" lon="1.417769">
        <ele>256.3</ele>
        <time>1970-01-01T01:24:20.000Z</time>
      </trkpt>
      <trkpt lat="41.227322" lon="1.417755">
        <ele>256.1</ele>
        <time>1970-01-01T01:24:21.000Z</time>
      </trkpt>
      <trkpt lat="41.22727" lon="1.417764">
        <ele>255.9</ele>
        <time>1970-01-01T01:24:22.000Z</time>
      </trkpt>
      <trkpt lat="41.227217" lon="1.417786">
        <ele>255.6</ele>
        <time>1970-01-01T01:24:23.000Z</time>
      </trkpt>
      <trkpt lat="41.227162" lon="1.417806">
        <ele>255.3</ele>
        <time>1970-01-01T01:24:24.000Z</time>
      </trkpt>
      <trkpt lat="41.227115" lon="1.417839">
        <ele>255.5</ele>
        <time>1970-01-01T01:24:25.000Z</time>
      </trkpt>
      <trkpt lat="41.227074" lon="1.417879">
        <ele>255.6</ele>
        <time>1970-01-01T01:24:26.000Z</time>
      </trkpt>
      <trkpt lat="41.227034" lon="1.417921">
        <ele>255.8</ele>
        <time>1970-01-01T01:24:27.000Z</time>
      </trkpt>
      <trkpt lat="41.226994" lon="1.417956">
        <ele>255.9</ele>
        <time>1970-01-01T01:24:28.000Z</time>
      </trkpt>
      <trkpt lat="41.226954" lon="1.41799">
        <ele>256</ele>
        <time>1970-01-01T01:24:29.000Z</time>
      </trkpt>
      <trkpt lat="41.226916" lon="1.418013">
        <ele>256.2</ele>
        <time>1970-01-01T01:24:30.000Z</time>
      </trkpt>
      <trkpt lat="41.226875" lon="1.418032">
        <ele>256.5</ele>
        <time>1970-01-01T01:24:31.000Z</time>
      </trkpt>
      <trkpt lat="41.226839" lon="1.418046">
        <ele>256.6</ele>
        <time>1970-01-01T01:24:32.000Z</time>
      </trkpt>
      <trkpt lat="41.226801" lon="1.418062">
        <ele>256.8</ele>
        <time>1970-01-01T01:24:33.000Z</time>
      </trkpt>
      <trkpt lat="41.226759" lon="1.418072">
        <ele>257</ele>
        <time>1970-01-01T01:24:34.000Z</time>
      </trkpt>
      <trkpt lat="41.226722" lon="1.418093">
        <ele>257.2</ele>
        <time>1970-01-01T01:24:35.000Z</time>
      </trkpt>
      <trkpt lat="41.22668" lon="1.418114">
        <ele>257.4</ele>
        <time>1970-01-01T01:24:36.000Z</time>
      </trkpt>
      <trkpt lat="41.226646" lon="1.418143">
        <ele>257.6</ele>
        <time>1970-01-01T01:24:37.000Z</time>
      </trkpt>
      <trkpt lat="41.226615" lon="1.418171">
        <ele>257.7</ele>
        <time>1970-01-01T01:24:38.000Z</time>
      </trkpt>
      <trkpt lat="41.226585" lon="1.418201">
        <ele>257.8</ele>
        <time>1970-01-01T01:24:39.000Z</time>
      </trkpt>
      <trkpt lat="41.226553" lon="1.41824">
        <ele>258.2</ele>
        <time>1970-01-01T01:24:40.000Z</time>
      </trkpt>
      <trkpt lat="41.226523" lon="1.418272">
        <ele>258.3</ele>
        <time>1970-01-01T01:24:41.000Z</time>
      </trkpt>
      <trkpt lat="41.2265" lon="1.418307">
        <ele>258.5</ele>
        <time>1970-01-01T01:24:42.000Z</time>
      </trkpt>
      <trkpt lat="41.22648" lon="1.41834">
        <ele>258.7</ele>
        <time>1970-01-01T01:24:43.000Z</time>
      </trkpt>
      <trkpt lat="41.226458" lon="1.418373">
        <ele>258.8</ele>
        <time>1970-01-01T01:24:44.000Z</time>
      </trkpt>
      <trkpt lat="41.226434" lon="1.418406">
        <ele>259</ele>
        <time>1970-01-01T01:24:45.000Z</time>
      </trkpt>
      <trkpt lat="41.226409" lon="1.418439">
        <ele>259.1</ele>
        <time>1970-01-01T01:24:46.000Z</time>
      </trkpt>
      <trkpt lat="41.226391" lon="1.418474">
        <ele>259.1</ele>
        <time>1970-01-01T01:24:47.000Z</time>
      </trkpt>
      <trkpt lat="41.226373" lon="1.418504">
        <ele>259.2</ele>
        <time>1970-01-01T01:24:48.000Z</time>
      </trkpt>
      <trkpt lat="41.226359" lon="1.418544">
        <ele>259.3</ele>
        <time>1970-01-01T01:24:49.000Z</time>
      </trkpt>
      <trkpt lat="41.226339" lon="1.41858">
        <ele>259.4</ele>
        <time>1970-01-01T01:24:50.000Z</time>
      </trkpt>
      <trkpt lat="41.226321" lon="1.418615">
        <ele>259.5</ele>
        <time>1970-01-01T01:24:51.000Z</time>
      </trkpt>
      <trkpt lat="41.2263" lon="1.418642">
        <ele>259.7</ele>
        <time>1970-01-01T01:24:52.000Z</time>
      </trkpt>
      <trkpt lat="41.226273" lon="1.418675">
        <ele>259.9</ele>
        <time>1970-01-01T01:24:53.000Z</time>
      </trkpt>
      <trkpt lat="41.226242" lon="1.418704">
        <ele>260</ele>
        <time>1970-01-01T01:24:54.000Z</time>
      </trkpt>
      <trkpt lat="41.226212" lon="1.41874">
        <ele>260.1</ele>
        <time>1970-01-01T01:24:55.000Z</time>
      </trkpt>
      <trkpt lat="41.226184" lon="1.418782">
        <ele>260.2</ele>
        <time>1970-01-01T01:24:56.000Z</time>
      </trkpt>
      <trkpt lat="41.226149" lon="1.418822">
        <ele>260.4</ele>
        <time>1970-01-01T01:24:57.000Z</time>
      </trkpt>
      <trkpt lat="41.226121" lon="1.418861">
        <ele>260.5</ele>
        <time>1970-01-01T01:24:58.000Z</time>
      </trkpt>
      <trkpt lat="41.226089" lon="1.418899">
        <ele>260.6</ele>
        <time>1970-01-01T01:24:59.000Z</time>
      </trkpt>
      <trkpt lat="41.226057" lon="1.418933">
        <ele>260.8</ele>
        <time>1970-01-01T01:25:00.000Z</time>
      </trkpt>
      <trkpt lat="41.226026" lon="1.418969">
        <ele>260.9</ele>
        <time>1970-01-01T01:25:01.000Z</time>
      </trkpt>
      <trkpt lat="41.225994" lon="1.418999">
        <ele>261.1</ele>
        <time>1970-01-01T01:25:02.000Z</time>
      </trkpt>
      <trkpt lat="41.22596" lon="1.419027">
        <ele>261.3</ele>
        <time>1970-01-01T01:25:03.000Z</time>
      </trkpt>
      <trkpt lat="41.225931" lon="1.419067">
        <ele>261.4</ele>
        <time>1970-01-01T01:25:04.000Z</time>
      </trkpt>
      <trkpt lat="41.225907" lon="1.419108">
        <ele>261.5</ele>
        <time>1970-01-01T01:25:05.000Z</time>
      </trkpt>
      <trkpt lat="41.225873" lon="1.419144">
        <ele>261.7</ele>
        <time>1970-01-01T01:25:06.000Z</time>
      </trkpt>
      <trkpt lat="41.225843" lon="1.419184">
        <ele>261.8</ele>
        <time>1970-01-01T01:25:07.000Z</time>
      </trkpt>
      <trkpt lat="41.225815" lon="1.419219">
        <ele>262</ele>
        <time>1970-01-01T01:25:08.000Z</time>
      </trkpt>
      <trkpt lat="41.225788" lon="1.419249">
        <ele>262.1</ele>
        <time>1970-01-01T01:25:09.000Z</time>
      </trkpt>
      <trkpt lat="41.225763" lon="1.419276">
        <ele>262.2</ele>
        <time>1970-01-01T01:25:10.000Z</time>
      </trkpt>
      <trkpt lat="41.22573" lon="1.419283">
        <ele>262.3</ele>
        <time>1970-01-01T01:25:11.000Z</time>
      </trkpt>
      <trkpt lat="41.225693" lon="1.419261">
        <ele>262.5</ele>
        <time>1970-01-01T01:25:12.000Z</time>
      </trkpt>
      <trkpt lat="41.225665" lon="1.419239">
        <ele>262.6</ele>
        <time>1970-01-01T01:25:13.000Z</time>
      </trkpt>
      <trkpt lat="41.225636" lon="1.419216">
        <ele>262.8</ele>
        <time>1970-01-01T01:25:14.000Z</time>
      </trkpt>
      <trkpt lat="41.225588" lon="1.41918">
        <ele>263.1</ele>
        <time>1970-01-01T01:25:16.000Z</time>
      </trkpt>
      <trkpt lat="41.225556" lon="1.419144">
        <ele>263.3</ele>
        <time>1970-01-01T01:25:17.000Z</time>
      </trkpt>
      <trkpt lat="41.225532" lon="1.419099">
        <ele>263.5</ele>
        <time>1970-01-01T01:25:18.000Z</time>
      </trkpt>
      <trkpt lat="41.225505" lon="1.419056">
        <ele>263.7</ele>
        <time>1970-01-01T01:25:19.000Z</time>
      </trkpt>
      <trkpt lat="41.225487" lon="1.41901">
        <ele>263.9</ele>
        <time>1970-01-01T01:25:20.000Z</time>
      </trkpt>
      <trkpt lat="41.225469" lon="1.418968">
        <ele>264.2</ele>
        <time>1970-01-01T01:25:21.000Z</time>
      </trkpt>
      <trkpt lat="41.22544" lon="1.418927">
        <ele>264.6</ele>
        <time>1970-01-01T01:25:22.000Z</time>
      </trkpt>
      <trkpt lat="41.225427" lon="1.418886">
        <ele>264.8</ele>
        <time>1970-01-01T01:25:23.000Z</time>
      </trkpt>
      <trkpt lat="41.22541" lon="1.418852">
        <ele>265</ele>
        <time>1970-01-01T01:25:24.000Z</time>
      </trkpt>
      <trkpt lat="41.225396" lon="1.418815">
        <ele>265.3</ele>
        <time>1970-01-01T01:25:25.000Z</time>
      </trkpt>
      <trkpt lat="41.225388" lon="1.418776">
        <ele>265.5</ele>
        <time>1970-01-01T01:25:26.000Z</time>
      </trkpt>
      <trkpt lat="41.225388" lon="1.418738">
        <ele>265.7</ele>
        <time>1970-01-01T01:25:27.000Z</time>
      </trkpt>
      <trkpt lat="41.225384" lon="1.418698">
        <ele>265.9</ele>
        <time>1970-01-01T01:25:28.000Z</time>
      </trkpt>
      <trkpt lat="41.225373" lon="1.418663">
        <ele>266.2</ele>
        <time>1970-01-01T01:25:29.000Z</time>
      </trkpt>
      <trkpt lat="41.225362" lon="1.418616">
        <ele>266.5</ele>
        <time>1970-01-01T01:25:30.000Z</time>
      </trkpt>
      <trkpt lat="41.225352" lon="1.41858">
        <ele>266.7</ele>
        <time>1970-01-01T01:25:31.000Z</time>
      </trkpt>
      <trkpt lat="41.225339" lon="1.418547">
        <ele>267</ele>
        <time>1970-01-01T01:25:32.000Z</time>
      </trkpt>
      <trkpt lat="41.225322" lon="1.41851">
        <ele>267.4</ele>
        <time>1970-01-01T01:25:33.000Z</time>
      </trkpt>
      <trkpt lat="41.225292" lon="1.418455">
        <ele>267.9</ele>
        <time>1970-01-01T01:25:35.000Z</time>
      </trkpt>
      <trkpt lat="41.225241" lon="1.418423">
        <ele>268.5</ele>
        <time>1970-01-01T01:25:37.000Z</time>
      </trkpt>
      <trkpt lat="41.225212" lon="1.418419">
        <ele>268.8</ele>
        <time>1970-01-01T01:25:38.000Z</time>
      </trkpt>
      <trkpt lat="41.225182" lon="1.418412">
        <ele>269.1</ele>
        <time>1970-01-01T01:25:39.000Z</time>
      </trkpt>
      <trkpt lat="41.22515" lon="1.418403">
        <ele>269.3</ele>
        <time>1970-01-01T01:25:40.000Z</time>
      </trkpt>
      <trkpt lat="41.225121" lon="1.418397">
        <ele>269.5</ele>
        <time>1970-01-01T01:25:41.000Z</time>
      </trkpt>
      <trkpt lat="41.225092" lon="1.418402">
        <ele>269.8</ele>
        <time>1970-01-01T01:25:42.000Z</time>
      </trkpt>
      <trkpt lat="41.225064" lon="1.418413">
        <ele>270</ele>
        <time>1970-01-01T01:25:43.000Z</time>
      </trkpt>
      <trkpt lat="41.225037" lon="1.418431">
        <ele>270.2</ele>
        <time>1970-01-01T01:25:44.000Z</time>
      </trkpt>
      <trkpt lat="41.225011" lon="1.418451">
        <ele>270.3</ele>
        <time>1970-01-01T01:25:45.000Z</time>
      </trkpt>
      <trkpt lat="41.224986" lon="1.418472">
        <ele>270.4</ele>
        <time>1970-01-01T01:25:46.000Z</time>
      </trkpt>
      <trkpt lat="41.224959" lon="1.418492">
        <ele>270.5</ele>
        <time>1970-01-01T01:25:47.000Z</time>
      </trkpt>
      <trkpt lat="41.224934" lon="1.418507">
        <ele>270.6</ele>
        <time>1970-01-01T01:25:48.000Z</time>
      </trkpt>
      <trkpt lat="41.22491" lon="1.41853">
        <ele>270.7</ele>
        <time>1970-01-01T01:25:49.000Z</time>
      </trkpt>
      <trkpt lat="41.224891" lon="1.41856">
        <ele>270.8</ele>
        <time>1970-01-01T01:25:50.000Z</time>
      </trkpt>
      <trkpt lat="41.224861" lon="1.418573">
        <ele>270.9</ele>
        <time>1970-01-01T01:25:51.000Z</time>
      </trkpt>
      <trkpt lat="41.224833" lon="1.41859">
        <ele>271</ele>
        <time>1970-01-01T01:25:52.000Z</time>
      </trkpt>
      <trkpt lat="41.224803" lon="1.418604">
        <ele>271</ele>
        <time>1970-01-01T01:25:53.000Z</time>
      </trkpt>
      <trkpt lat="41.224777" lon="1.418614">
        <ele>271.1</ele>
        <time>1970-01-01T01:25:54.000Z</time>
      </trkpt>
      <trkpt lat="41.224725" lon="1.418632">
        <ele>271.2</ele>
        <time>1970-01-01T01:25:56.000Z</time>
      </trkpt>
      <trkpt lat="41.224695" lon="1.418641">
        <ele>271.3</ele>
        <time>1970-01-01T01:25:57.000Z</time>
      </trkpt>
      <trkpt lat="41.224667" lon="1.418641">
        <ele>271.4</ele>
        <time>1970-01-01T01:25:58.000Z</time>
      </trkpt>
      <trkpt lat="41.22463" lon="1.418621">
        <ele>271.5</ele>
        <time>1970-01-01T01:25:59.000Z</time>
      </trkpt>
      <trkpt lat="41.224599" lon="1.418608">
        <ele>271.6</ele>
        <time>1970-01-01T01:26:00.000Z</time>
      </trkpt>
      <trkpt lat="41.224566" lon="1.418593">
        <ele>271.7</ele>
        <time>1970-01-01T01:26:01.000Z</time>
      </trkpt>
      <trkpt lat="41.224536" lon="1.418571">
        <ele>271.8</ele>
        <time>1970-01-01T01:26:02.000Z</time>
      </trkpt>
      <trkpt lat="41.224504" lon="1.418554">
        <ele>271.9</ele>
        <time>1970-01-01T01:26:03.000Z</time>
      </trkpt>
      <trkpt lat="41.224469" lon="1.418546">
        <ele>272.1</ele>
        <time>1970-01-01T01:26:04.000Z</time>
      </trkpt>
      <trkpt lat="41.224434" lon="1.418536">
        <ele>272.2</ele>
        <time>1970-01-01T01:26:05.000Z</time>
      </trkpt>
      <trkpt lat="41.224391" lon="1.418522">
        <ele>272.4</ele>
        <time>1970-01-01T01:26:06.000Z</time>
      </trkpt>
      <trkpt lat="41.224355" lon="1.418505">
        <ele>272.6</ele>
        <time>1970-01-01T01:26:07.000Z</time>
      </trkpt>
      <trkpt lat="41.224317" lon="1.418489">
        <ele>272.8</ele>
        <time>1970-01-01T01:26:08.000Z</time>
      </trkpt>
      <trkpt lat="41.224281" lon="1.418469">
        <ele>272.9</ele>
        <time>1970-01-01T01:26:09.000Z</time>
      </trkpt>
      <trkpt lat="41.224248" lon="1.418454">
        <ele>273</ele>
        <time>1970-01-01T01:26:10.000Z</time>
      </trkpt>
      <trkpt lat="41.224218" lon="1.41842">
        <ele>273.1</ele>
        <time>1970-01-01T01:26:11.000Z</time>
      </trkpt>
      <trkpt lat="41.224202" lon="1.41838">
        <ele>273.3</ele>
        <time>1970-01-01T01:26:12.000Z</time>
      </trkpt>
      <trkpt lat="41.224184" lon="1.418345">
        <ele>273.4</ele>
        <time>1970-01-01T01:26:13.000Z</time>
      </trkpt>
      <trkpt lat="41.224162" lon="1.418312">
        <ele>273.5</ele>
        <time>1970-01-01T01:26:14.000Z</time>
      </trkpt>
      <trkpt lat="41.22414" lon="1.418276">
        <ele>273.7</ele>
        <time>1970-01-01T01:26:15.000Z</time>
      </trkpt>
      <trkpt lat="41.224122" lon="1.418245">
        <ele>273.8</ele>
        <time>1970-01-01T01:26:16.000Z</time>
      </trkpt>
      <trkpt lat="41.224113" lon="1.418192">
        <ele>274</ele>
        <time>1970-01-01T01:26:17.000Z</time>
      </trkpt>
      <trkpt lat="41.224104" lon="1.41815">
        <ele>274.2</ele>
        <time>1970-01-01T01:26:18.000Z</time>
      </trkpt>
      <trkpt lat="41.224081" lon="1.418102">
        <ele>274.5</ele>
        <time>1970-01-01T01:26:19.000Z</time>
      </trkpt>
      <trkpt lat="41.224065" lon="1.418062">
        <ele>274.6</ele>
        <time>1970-01-01T01:26:20.000Z</time>
      </trkpt>
      <trkpt lat="41.224052" lon="1.418025">
        <ele>274.7</ele>
        <time>1970-01-01T01:26:21.000Z</time>
      </trkpt>
      <trkpt lat="41.224037" lon="1.417992">
        <ele>274.8</ele>
        <time>1970-01-01T01:26:22.000Z</time>
      </trkpt>
      <trkpt lat="41.224024" lon="1.417951">
        <ele>275</ele>
        <time>1970-01-01T01:26:23.000Z</time>
      </trkpt>
      <trkpt lat="41.224014" lon="1.417909">
        <ele>275.1</ele>
        <time>1970-01-01T01:26:24.000Z</time>
      </trkpt>
      <trkpt lat="41.223997" lon="1.417874">
        <ele>275.2</ele>
        <time>1970-01-01T01:26:25.000Z</time>
      </trkpt>
      <trkpt lat="41.223968" lon="1.417808">
        <ele>275.3</ele>
        <time>1970-01-01T01:26:27.000Z</time>
      </trkpt>
      <trkpt lat="41.223955" lon="1.41776">
        <ele>275.4</ele>
        <time>1970-01-01T01:26:28.000Z</time>
      </trkpt>
      <trkpt lat="41.223935" lon="1.417719">
        <ele>275.5</ele>
        <time>1970-01-01T01:26:29.000Z</time>
      </trkpt>
      <trkpt lat="41.22392" lon="1.417677">
        <ele>275.7</ele>
        <time>1970-01-01T01:26:30.000Z</time>
      </trkpt>
      <trkpt lat="41.22391" lon="1.417633">
        <ele>275.8</ele>
        <time>1970-01-01T01:26:31.000Z</time>
      </trkpt>
      <trkpt lat="41.223898" lon="1.417593">
        <ele>275.8</ele>
        <time>1970-01-01T01:26:32.000Z</time>
      </trkpt>
      <trkpt lat="41.223886" lon="1.417551">
        <ele>275.9</ele>
        <time>1970-01-01T01:26:33.000Z</time>
      </trkpt>
      <trkpt lat="41.22387" lon="1.417501">
        <ele>276</ele>
        <time>1970-01-01T01:26:34.000Z</time>
      </trkpt>
      <trkpt lat="41.223854" lon="1.417451">
        <ele>276.1</ele>
        <time>1970-01-01T01:26:35.000Z</time>
      </trkpt>
      <trkpt lat="41.223837" lon="1.417394">
        <ele>276.2</ele>
        <time>1970-01-01T01:26:36.000Z</time>
      </trkpt>
      <trkpt lat="41.22382" lon="1.417349">
        <ele>276.3</ele>
        <time>1970-01-01T01:26:37.000Z</time>
      </trkpt>
      <trkpt lat="41.223803" lon="1.417295">
        <ele>276.5</ele>
        <time>1970-01-01T01:26:38.000Z</time>
      </trkpt>
      <trkpt lat="41.223786" lon="1.417246">
        <ele>276.6</ele>
        <time>1970-01-01T01:26:39.000Z</time>
      </trkpt>
      <trkpt lat="41.223769" lon="1.417199">
        <ele>276.7</ele>
        <time>1970-01-01T01:26:40.000Z</time>
      </trkpt>
      <trkpt lat="41.223755" lon="1.417144">
        <ele>276.9</ele>
        <time>1970-01-01T01:26:41.000Z</time>
      </trkpt>
      <trkpt lat="41.223751" lon="1.417092">
        <ele>277.1</ele>
        <time>1970-01-01T01:26:42.000Z</time>
      </trkpt>
      <trkpt lat="41.223745" lon="1.417046">
        <ele>277.3</ele>
        <time>1970-01-01T01:26:43.000Z</time>
      </trkpt>
      <trkpt lat="41.223741" lon="1.417006">
        <ele>277.5</ele>
        <time>1970-01-01T01:26:44.000Z</time>
      </trkpt>
      <trkpt lat="41.22374" lon="1.41696">
        <ele>277.8</ele>
        <time>1970-01-01T01:26:45.000Z</time>
      </trkpt>
      <trkpt lat="41.223744" lon="1.416924">
        <ele>278</ele>
        <time>1970-01-01T01:26:46.000Z</time>
      </trkpt>
      <trkpt lat="41.22374" lon="1.416877">
        <ele>278.2</ele>
        <time>1970-01-01T01:26:47.000Z</time>
      </trkpt>
      <trkpt lat="41.22374" lon="1.416827">
        <ele>278.5</ele>
        <time>1970-01-01T01:26:48.000Z</time>
      </trkpt>
      <trkpt lat="41.223737" lon="1.416783">
        <ele>278.6</ele>
        <time>1970-01-01T01:26:49.000Z</time>
      </trkpt>
      <trkpt lat="41.223737" lon="1.416744">
        <ele>278.8</ele>
        <time>1970-01-01T01:26:50.000Z</time>
      </trkpt>
      <trkpt lat="41.223737" lon="1.416701">
        <ele>278.9</ele>
        <time>1970-01-01T01:26:51.000Z</time>
      </trkpt>
      <trkpt lat="41.22374" lon="1.416661">
        <ele>279</ele>
        <time>1970-01-01T01:26:52.000Z</time>
      </trkpt>
      <trkpt lat="41.223742" lon="1.416611">
        <ele>279.1</ele>
        <time>1970-01-01T01:26:53.000Z</time>
      </trkpt>
      <trkpt lat="41.223743" lon="1.41656">
        <ele>279.2</ele>
        <time>1970-01-01T01:26:54.000Z</time>
      </trkpt>
      <trkpt lat="41.223748" lon="1.416507">
        <ele>279.4</ele>
        <time>1970-01-01T01:26:55.000Z</time>
      </trkpt>
      <trkpt lat="41.223754" lon="1.416451">
        <ele>279.5</ele>
        <time>1970-01-01T01:26:56.000Z</time>
      </trkpt>
      <trkpt lat="41.223749" lon="1.416409">
        <ele>279.6</ele>
        <time>1970-01-01T01:26:57.000Z</time>
      </trkpt>
      <trkpt lat="41.223741" lon="1.416364">
        <ele>279.6</ele>
        <time>1970-01-01T01:26:58.000Z</time>
      </trkpt>
      <trkpt lat="41.223722" lon="1.41632">
        <ele>279.7</ele>
        <time>1970-01-01T01:26:59.000Z</time>
      </trkpt>
      <trkpt lat="41.223694" lon="1.416292">
        <ele>279.8</ele>
        <time>1970-01-01T01:27:00.000Z</time>
      </trkpt>
      <trkpt lat="41.223657" lon="1.416265">
        <ele>279.9</ele>
        <time>1970-01-01T01:27:01.000Z</time>
      </trkpt>
      <trkpt lat="41.223625" lon="1.41624">
        <ele>280</ele>
        <time>1970-01-01T01:27:02.000Z</time>
      </trkpt>
      <trkpt lat="41.223594" lon="1.416203">
        <ele>280.1</ele>
        <time>1970-01-01T01:27:03.000Z</time>
      </trkpt>
      <trkpt lat="41.223565" lon="1.416163">
        <ele>280.1</ele>
        <time>1970-01-01T01:27:04.000Z</time>
      </trkpt>
      <trkpt lat="41.22354" lon="1.41612">
        <ele>280.2</ele>
        <time>1970-01-01T01:27:05.000Z</time>
      </trkpt>
      <trkpt lat="41.22351" lon="1.416068">
        <ele>280.3</ele>
        <time>1970-01-01T01:27:06.000Z</time>
      </trkpt>
      <trkpt lat="41.223482" lon="1.416039">
        <ele>280.4</ele>
        <time>1970-01-01T01:27:07.000Z</time>
      </trkpt>
      <trkpt lat="41.223454" lon="1.415997">
        <ele>280.5</ele>
        <time>1970-01-01T01:27:08.000Z</time>
      </trkpt>
      <trkpt lat="41.223425" lon="1.415962">
        <ele>280.6</ele>
        <time>1970-01-01T01:27:09.000Z</time>
      </trkpt>
      <trkpt lat="41.2234" lon="1.415926">
        <ele>280.6</ele>
        <time>1970-01-01T01:27:10.000Z</time>
      </trkpt>
      <trkpt lat="41.223368" lon="1.415898">
        <ele>280.6</ele>
        <time>1970-01-01T01:27:11.000Z</time>
      </trkpt>
      <trkpt lat="41.223324" lon="1.415874">
        <ele>280.7</ele>
        <time>1970-01-01T01:27:12.000Z</time>
      </trkpt>
      <trkpt lat="41.223281" lon="1.415856">
        <ele>280.8</ele>
        <time>1970-01-01T01:27:13.000Z</time>
      </trkpt>
      <trkpt lat="41.223242" lon="1.415843">
        <ele>280.8</ele>
        <time>1970-01-01T01:27:14.000Z</time>
      </trkpt>
      <trkpt lat="41.223207" lon="1.415818">
        <ele>280.9</ele>
        <time>1970-01-01T01:27:15.000Z</time>
      </trkpt>
      <trkpt lat="41.223178" lon="1.415805">
        <ele>280.9</ele>
        <time>1970-01-01T01:27:16.000Z</time>
      </trkpt>
      <trkpt lat="41.223136" lon="1.415789">
        <ele>281</ele>
        <time>1970-01-01T01:27:17.000Z</time>
      </trkpt>
      <trkpt lat="41.223094" lon="1.415764">
        <ele>281</ele>
        <time>1970-01-01T01:27:18.000Z</time>
      </trkpt>
      <trkpt lat="41.223055" lon="1.415743">
        <ele>281.1</ele>
        <time>1970-01-01T01:27:19.000Z</time>
      </trkpt>
      <trkpt lat="41.223016" lon="1.415724">
        <ele>281.2</ele>
        <time>1970-01-01T01:27:20.000Z</time>
      </trkpt>
      <trkpt lat="41.222976" lon="1.415705">
        <ele>281.2</ele>
        <time>1970-01-01T01:27:21.000Z</time>
      </trkpt>
      <trkpt lat="41.22294" lon="1.415684">
        <ele>281.3</ele>
        <time>1970-01-01T01:27:22.000Z</time>
      </trkpt>
      <trkpt lat="41.222908" lon="1.415657">
        <ele>281.4</ele>
        <time>1970-01-01T01:27:23.000Z</time>
      </trkpt>
      <trkpt lat="41.222877" lon="1.415626">
        <ele>281.4</ele>
        <time>1970-01-01T01:27:24.000Z</time>
      </trkpt>
      <trkpt lat="41.222846" lon="1.415594">
        <ele>281.5</ele>
        <time>1970-01-01T01:27:25.000Z</time>
      </trkpt>
      <trkpt lat="41.222818" lon="1.415561">
        <ele>281.5</ele>
        <time>1970-01-01T01:27:26.000Z</time>
      </trkpt>
      <trkpt lat="41.222785" lon="1.415524">
        <ele>281.6</ele>
        <time>1970-01-01T01:27:27.000Z</time>
      </trkpt>
      <trkpt lat="41.222759" lon="1.415484">
        <ele>281.6</ele>
        <time>1970-01-01T01:27:28.000Z</time>
      </trkpt>
      <trkpt lat="41.222736" lon="1.415452">
        <ele>281.7</ele>
        <time>1970-01-01T01:27:29.000Z</time>
      </trkpt>
      <trkpt lat="41.22269" lon="1.415433">
        <ele>281.8</ele>
        <time>1970-01-01T01:27:30.000Z</time>
      </trkpt>
      <trkpt lat="41.222654" lon="1.415429">
        <ele>281.9</ele>
        <time>1970-01-01T01:27:31.000Z</time>
      </trkpt>
      <trkpt lat="41.222614" lon="1.415431">
        <ele>282</ele>
        <time>1970-01-01T01:27:32.000Z</time>
      </trkpt>
      <trkpt lat="41.222576" lon="1.415437">
        <ele>282.1</ele>
        <time>1970-01-01T01:27:33.000Z</time>
      </trkpt>
      <trkpt lat="41.222531" lon="1.415451">
        <ele>282.3</ele>
        <time>1970-01-01T01:27:34.000Z</time>
      </trkpt>
      <trkpt lat="41.222488" lon="1.41546">
        <ele>282.4</ele>
        <time>1970-01-01T01:27:35.000Z</time>
      </trkpt>
      <trkpt lat="41.222456" lon="1.415467">
        <ele>282.5</ele>
        <time>1970-01-01T01:27:36.000Z</time>
      </trkpt>
      <trkpt lat="41.222425" lon="1.415475">
        <ele>282.7</ele>
        <time>1970-01-01T01:27:37.000Z</time>
      </trkpt>
      <trkpt lat="41.222384" lon="1.415485">
        <ele>282.9</ele>
        <time>1970-01-01T01:27:38.000Z</time>
      </trkpt>
      <trkpt lat="41.222343" lon="1.415504">
        <ele>283.1</ele>
        <time>1970-01-01T01:27:40.000Z</time>
      </trkpt>
      <trkpt lat="41.222311" lon="1.415509">
        <ele>283.2</ele>
        <time>1970-01-01T01:27:41.000Z</time>
      </trkpt>
      <trkpt lat="41.22228" lon="1.415515">
        <ele>283.4</ele>
        <time>1970-01-01T01:27:42.000Z</time>
      </trkpt>
      <trkpt lat="41.22224" lon="1.415516">
        <ele>283.8</ele>
        <time>1970-01-01T01:27:43.000Z</time>
      </trkpt>
      <trkpt lat="41.2222" lon="1.415512">
        <ele>284.1</ele>
        <time>1970-01-01T01:27:44.000Z</time>
      </trkpt>
      <trkpt lat="41.222164" lon="1.415506">
        <ele>284.5</ele>
        <time>1970-01-01T01:27:45.000Z</time>
      </trkpt>
      <trkpt lat="41.222132" lon="1.415502">
        <ele>284.8</ele>
        <time>1970-01-01T01:27:46.000Z</time>
      </trkpt>
      <trkpt lat="41.22208" lon="1.415489">
        <ele>285.3</ele>
        <time>1970-01-01T01:27:48.000Z</time>
      </trkpt>
      <trkpt lat="41.22204" lon="1.415456">
        <ele>285.6</ele>
        <time>1970-01-01T01:27:50.000Z</time>
      </trkpt>
      <trkpt lat="41.222008" lon="1.415408">
        <ele>285.9</ele>
        <time>1970-01-01T01:27:52.000Z</time>
      </trkpt>
      <trkpt lat="41.221971" lon="1.415365">
        <ele>286.1</ele>
        <time>1970-01-01T01:27:54.000Z</time>
      </trkpt>
      <trkpt lat="41.221953" lon="1.415335">
        <ele>286.2</ele>
        <time>1970-01-01T01:27:55.000Z</time>
      </trkpt>
      <trkpt lat="41.221932" lon="1.415312">
        <ele>286.3</ele>
        <time>1970-01-01T01:27:56.000Z</time>
      </trkpt>
      <trkpt lat="41.22191" lon="1.415281">
        <ele>286.4</ele>
        <time>1970-01-01T01:27:57.000Z</time>
      </trkpt>
      <trkpt lat="41.221887" lon="1.415256">
        <ele>286.5</ele>
        <time>1970-01-01T01:27:58.000Z</time>
      </trkpt>
      <trkpt lat="41.22186" lon="1.415231">
        <ele>286.5</ele>
        <time>1970-01-01T01:27:59.000Z</time>
      </trkpt>
      <trkpt lat="41.22183" lon="1.415214">
        <ele>286.5</ele>
        <time>1970-01-01T01:28:00.000Z</time>
      </trkpt>
      <trkpt lat="41.221793" lon="1.415198">
        <ele>286.4</ele>
        <time>1970-01-01T01:28:01.000Z</time>
      </trkpt>
      <trkpt lat="41.221744" lon="1.415189">
        <ele>286.2</ele>
        <time>1970-01-01T01:28:02.000Z</time>
      </trkpt>
      <trkpt lat="41.221699" lon="1.415183">
        <ele>286.1</ele>
        <time>1970-01-01T01:28:03.000Z</time>
      </trkpt>
      <trkpt lat="41.221651" lon="1.415174">
        <ele>285.6</ele>
        <time>1970-01-01T01:28:04.000Z</time>
      </trkpt>
      <trkpt lat="41.221604" lon="1.415167">
        <ele>285.3</ele>
        <time>1970-01-01T01:28:05.000Z</time>
      </trkpt>
      <trkpt lat="41.221559" lon="1.415163">
        <ele>284.9</ele>
        <time>1970-01-01T01:28:06.000Z</time>
      </trkpt>
      <trkpt lat="41.221504" lon="1.415169">
        <ele>284.4</ele>
        <time>1970-01-01T01:28:07.000Z</time>
      </trkpt>
      <trkpt lat="41.221452" lon="1.415179">
        <ele>283.9</ele>
        <time>1970-01-01T01:28:08.000Z</time>
      </trkpt>
      <trkpt lat="41.221409" lon="1.415217">
        <ele>283.3</ele>
        <time>1970-01-01T01:28:09.000Z</time>
      </trkpt>
      <trkpt lat="41.221373" lon="1.415287">
        <ele>282.6</ele>
        <time>1970-01-01T01:28:10.000Z</time>
      </trkpt>
      <trkpt lat="41.22134" lon="1.415369">
        <ele>282.1</ele>
        <time>1970-01-01T01:28:11.000Z</time>
      </trkpt>
      <trkpt lat="41.221302" lon="1.415452">
        <ele>281.5</ele>
        <time>1970-01-01T01:28:12.000Z</time>
      </trkpt>
      <trkpt lat="41.221261" lon="1.415525">
        <ele>280.9</ele>
        <time>1970-01-01T01:28:13.000Z</time>
      </trkpt>
      <trkpt lat="41.221222" lon="1.4156">
        <ele>280.4</ele>
        <time>1970-01-01T01:28:14.000Z</time>
      </trkpt>
      <trkpt lat="41.221194" lon="1.415676">
        <ele>279.7</ele>
        <time>1970-01-01T01:28:15.000Z</time>
      </trkpt>
      <trkpt lat="41.221157" lon="1.415738">
        <ele>279.1</ele>
        <time>1970-01-01T01:28:16.000Z</time>
      </trkpt>
      <trkpt lat="41.221115" lon="1.415796">
        <ele>278.5</ele>
        <time>1970-01-01T01:28:17.000Z</time>
      </trkpt>
      <trkpt lat="41.221063" lon="1.415827">
        <ele>278</ele>
        <time>1970-01-01T01:28:18.000Z</time>
      </trkpt>
      <trkpt lat="41.22099" lon="1.415824">
        <ele>277.3</ele>
        <time>1970-01-01T01:28:19.000Z</time>
      </trkpt>
      <trkpt lat="41.220908" lon="1.415807">
        <ele>276.5</ele>
        <time>1970-01-01T01:28:20.000Z</time>
      </trkpt>
      <trkpt lat="41.220831" lon="1.415807">
        <ele>276</ele>
        <time>1970-01-01T01:28:21.000Z</time>
      </trkpt>
      <trkpt lat="41.220754" lon="1.415784">
        <ele>275.5</ele>
        <time>1970-01-01T01:28:22.000Z</time>
      </trkpt>
      <trkpt lat="41.22068" lon="1.415753">
        <ele>275</ele>
        <time>1970-01-01T01:28:23.000Z</time>
      </trkpt>
      <trkpt lat="41.220609" lon="1.415732">
        <ele>274.3</ele>
        <time>1970-01-01T01:28:24.000Z</time>
      </trkpt>
      <trkpt lat="41.220535" lon="1.415749">
        <ele>273.8</ele>
        <time>1970-01-01T01:28:25.000Z</time>
      </trkpt>
      <trkpt lat="41.220458" lon="1.415769">
        <ele>273.1</ele>
        <time>1970-01-01T01:28:26.000Z</time>
      </trkpt>
      <trkpt lat="41.22039" lon="1.415799">
        <ele>272.6</ele>
        <time>1970-01-01T01:28:27.000Z</time>
      </trkpt>
      <trkpt lat="41.220313" lon="1.415833">
        <ele>272</ele>
        <time>1970-01-01T01:28:28.000Z</time>
      </trkpt>
      <trkpt lat="41.220236" lon="1.41588">
        <ele>271.6</ele>
        <time>1970-01-01T01:28:29.000Z</time>
      </trkpt>
      <trkpt lat="41.220165" lon="1.415936">
        <ele>271.2</ele>
        <time>1970-01-01T01:28:30.000Z</time>
      </trkpt>
      <trkpt lat="41.220099" lon="1.415991">
        <ele>270.8</ele>
        <time>1970-01-01T01:28:31.000Z</time>
      </trkpt>
      <trkpt lat="41.220035" lon="1.416047">
        <ele>270.4</ele>
        <time>1970-01-01T01:28:32.000Z</time>
      </trkpt>
      <trkpt lat="41.219983" lon="1.416109">
        <ele>270.1</ele>
        <time>1970-01-01T01:28:33.000Z</time>
      </trkpt>
      <trkpt lat="41.219935" lon="1.416167">
        <ele>269.9</ele>
        <time>1970-01-01T01:28:34.000Z</time>
      </trkpt>
      <trkpt lat="41.219886" lon="1.416238">
        <ele>269.6</ele>
        <time>1970-01-01T01:28:35.000Z</time>
      </trkpt>
      <trkpt lat="41.219853" lon="1.416299">
        <ele>269.5</ele>
        <time>1970-01-01T01:28:36.000Z</time>
      </trkpt>
      <trkpt lat="41.219805" lon="1.416374">
        <ele>269.3</ele>
        <time>1970-01-01T01:28:37.000Z</time>
      </trkpt>
      <trkpt lat="41.219761" lon="1.416443">
        <ele>269.3</ele>
        <time>1970-01-01T01:28:38.000Z</time>
      </trkpt>
      <trkpt lat="41.219732" lon="1.416489">
        <ele>269.2</ele>
        <time>1970-01-01T01:28:39.000Z</time>
      </trkpt>
      <trkpt lat="41.219694" lon="1.416535">
        <ele>269.2</ele>
        <time>1970-01-01T01:28:40.000Z</time>
      </trkpt>
      <trkpt lat="41.219653" lon="1.416577">
        <ele>269.1</ele>
        <time>1970-01-01T01:28:41.000Z</time>
      </trkpt>
      <trkpt lat="41.219616" lon="1.416624">
        <ele>269.1</ele>
        <time>1970-01-01T01:28:42.000Z</time>
      </trkpt>
      <trkpt lat="41.219568" lon="1.41666">
        <ele>269.2</ele>
        <time>1970-01-01T01:28:43.000Z</time>
      </trkpt>
      <trkpt lat="41.219521" lon="1.416684">
        <ele>269.2</ele>
        <time>1970-01-01T01:28:44.000Z</time>
      </trkpt>
      <trkpt lat="41.219475" lon="1.416703">
        <ele>269.2</ele>
        <time>1970-01-01T01:28:45.000Z</time>
      </trkpt>
      <trkpt lat="41.21943" lon="1.416729">
        <ele>269.3</ele>
        <time>1970-01-01T01:28:46.000Z</time>
      </trkpt>
      <trkpt lat="41.219376" lon="1.416753">
        <ele>269.4</ele>
        <time>1970-01-01T01:28:47.000Z</time>
      </trkpt>
      <trkpt lat="41.219329" lon="1.416779">
        <ele>269.5</ele>
        <time>1970-01-01T01:28:48.000Z</time>
      </trkpt>
      <trkpt lat="41.219282" lon="1.416814">
        <ele>269.6</ele>
        <time>1970-01-01T01:28:49.000Z</time>
      </trkpt>
      <trkpt lat="41.219241" lon="1.416851">
        <ele>269.7</ele>
        <time>1970-01-01T01:28:50.000Z</time>
      </trkpt>
      <trkpt lat="41.219197" lon="1.416892">
        <ele>269.9</ele>
        <time>1970-01-01T01:28:51.000Z</time>
      </trkpt>
      <trkpt lat="41.219171" lon="1.416931">
        <ele>270</ele>
        <time>1970-01-01T01:28:52.000Z</time>
      </trkpt>
      <trkpt lat="41.219136" lon="1.416989">
        <ele>270.2</ele>
        <time>1970-01-01T01:28:53.000Z</time>
      </trkpt>
      <trkpt lat="41.219117" lon="1.417047">
        <ele>270.3</ele>
        <time>1970-01-01T01:28:54.000Z</time>
      </trkpt>
      <trkpt lat="41.219107" lon="1.417085">
        <ele>270.5</ele>
        <time>1970-01-01T01:28:55.000Z</time>
      </trkpt>
      <trkpt lat="41.219102" lon="1.417145">
        <ele>270.6</ele>
        <time>1970-01-01T01:28:57.000Z</time>
      </trkpt>
      <trkpt lat="41.2191" lon="1.417198">
        <ele>270.8</ele>
        <time>1970-01-01T01:28:59.000Z</time>
      </trkpt>
      <trkpt lat="41.219078" lon="1.417241">
        <ele>270.9</ele>
        <time>1970-01-01T01:29:01.000Z</time>
      </trkpt>
      <trkpt lat="41.219054" lon="1.417261">
        <ele>271</ele>
        <time>1970-01-01T01:29:02.000Z</time>
      </trkpt>
      <trkpt lat="41.219021" lon="1.417302">
        <ele>271.2</ele>
        <time>1970-01-01T01:29:04.000Z</time>
      </trkpt>
      <trkpt lat="41.21899" lon="1.417342">
        <ele>271.4</ele>
        <time>1970-01-01T01:29:06.000Z</time>
      </trkpt>
      <trkpt lat="41.218969" lon="1.41738">
        <ele>271.5</ele>
        <time>1970-01-01T01:29:09.000Z</time>
      </trkpt>
      <trkpt lat="41.218943" lon="1.417398">
        <ele>271.6</ele>
        <time>1970-01-01T01:29:13.000Z</time>
      </trkpt>
      <trkpt lat="41.218898" lon="1.41744">
        <ele>271.9</ele>
        <time>1970-01-01T01:29:15.000Z</time>
      </trkpt>
      <trkpt lat="41.218856" lon="1.417487">
        <ele>272.2</ele>
        <time>1970-01-01T01:29:17.000Z</time>
      </trkpt>
      <trkpt lat="41.218842" lon="1.41752">
        <ele>272.4</ele>
        <time>1970-01-01T01:29:18.000Z</time>
      </trkpt>
      <trkpt lat="41.218834" lon="1.417562">
        <ele>272.5</ele>
        <time>1970-01-01T01:29:19.000Z</time>
      </trkpt>
      <trkpt lat="41.218835" lon="1.417607">
        <ele>272.6</ele>
        <time>1970-01-01T01:29:20.000Z</time>
      </trkpt>
      <trkpt lat="41.218839" lon="1.417664">
        <ele>272.8</ele>
        <time>1970-01-01T01:29:21.000Z</time>
      </trkpt>
      <trkpt lat="41.21885" lon="1.417713">
        <ele>272.9</ele>
        <time>1970-01-01T01:29:22.000Z</time>
      </trkpt>
      <trkpt lat="41.218859" lon="1.417768">
        <ele>273</ele>
        <time>1970-01-01T01:29:23.000Z</time>
      </trkpt>
      <trkpt lat="41.218871" lon="1.417829">
        <ele>273.1</ele>
        <time>1970-01-01T01:29:24.000Z</time>
      </trkpt>
      <trkpt lat="41.218873" lon="1.41787">
        <ele>273.2</ele>
        <time>1970-01-01T01:29:25.000Z</time>
      </trkpt>
      <trkpt lat="41.218878" lon="1.41791">
        <ele>273.2</ele>
        <time>1970-01-01T01:29:26.000Z</time>
      </trkpt>
      <trkpt lat="41.21887" lon="1.417953">
        <ele>273.3</ele>
        <time>1970-01-01T01:29:27.000Z</time>
      </trkpt>
      <trkpt lat="41.218866" lon="1.417992">
        <ele>273.3</ele>
        <time>1970-01-01T01:29:28.000Z</time>
      </trkpt>
      <trkpt lat="41.218868" lon="1.418035">
        <ele>273.3</ele>
        <time>1970-01-01T01:29:29.000Z</time>
      </trkpt>
      <trkpt lat="41.218876" lon="1.418072">
        <ele>273.3</ele>
        <time>1970-01-01T01:29:30.000Z</time>
      </trkpt>
      <trkpt lat="41.218876" lon="1.418111">
        <ele>273.3</ele>
        <time>1970-01-01T01:29:31.000Z</time>
      </trkpt>
      <trkpt lat="41.218873" lon="1.418165">
        <ele>273.3</ele>
        <time>1970-01-01T01:29:33.000Z</time>
      </trkpt>
      <trkpt lat="41.218857" lon="1.418203">
        <ele>273.3</ele>
        <time>1970-01-01T01:29:37.000Z</time>
      </trkpt>
      <trkpt lat="41.218843" lon="1.418254">
        <ele>273.3</ele>
        <time>1970-01-01T01:29:40.000Z</time>
      </trkpt>
      <trkpt lat="41.218831" lon="1.418288">
        <ele>273.3</ele>
        <time>1970-01-01T01:29:42.000Z</time>
      </trkpt>
      <trkpt lat="41.218816" lon="1.418335">
        <ele>273.2</ele>
        <time>1970-01-01T01:29:44.000Z</time>
      </trkpt>
      <trkpt lat="41.218787" lon="1.418374">
        <ele>273.2</ele>
        <time>1970-01-01T01:29:46.000Z</time>
      </trkpt>
      <trkpt lat="41.218761" lon="1.418409">
        <ele>273</ele>
        <time>1970-01-01T01:29:48.000Z</time>
      </trkpt>
      <trkpt lat="41.21873" lon="1.418444">
        <ele>272.8</ele>
        <time>1970-01-01T01:29:51.000Z</time>
      </trkpt>
      <trkpt lat="41.218702" lon="1.418484">
        <ele>272.8</ele>
        <time>1970-01-01T01:29:53.000Z</time>
      </trkpt>
      <trkpt lat="41.218674" lon="1.418498">
        <ele>272.9</ele>
        <time>1970-01-01T01:29:56.000Z</time>
      </trkpt>
      <trkpt lat="41.218711" lon="1.418478">
        <ele>273.1</ele>
        <time>1970-01-01T01:30:08.000Z</time>
      </trkpt>
      <trkpt lat="41.218739" lon="1.418433">
        <ele>273.2</ele>
        <time>1970-01-01T01:30:10.000Z</time>
      </trkpt>
      <trkpt lat="41.218769" lon="1.418384">
        <ele>273.2</ele>
        <time>1970-01-01T01:30:12.000Z</time>
      </trkpt>
      <trkpt lat="41.218786" lon="1.41834">
        <ele>273.3</ele>
        <time>1970-01-01T01:30:14.000Z</time>
      </trkpt>
      <trkpt lat="41.218797" lon="1.418294">
        <ele>273.3</ele>
        <time>1970-01-01T01:30:16.000Z</time>
      </trkpt>
      <trkpt lat="41.218811" lon="1.418227">
        <ele>273.3</ele>
        <time>1970-01-01T01:30:19.000Z</time>
      </trkpt>
      <trkpt lat="41.218818" lon="1.418174">
        <ele>273.3</ele>
        <time>1970-01-01T01:30:21.000Z</time>
      </trkpt>
      <trkpt lat="41.218822" lon="1.418109">
        <ele>273.3</ele>
        <time>1970-01-01T01:30:24.000Z</time>
      </trkpt>
      <trkpt lat="41.218817" lon="1.418033">
        <ele>273.3</ele>
        <time>1970-01-01T01:30:26.000Z</time>
      </trkpt>
      <trkpt lat="41.218815" lon="1.417984">
        <ele>273.3</ele>
        <time>1970-01-01T01:30:27.000Z</time>
      </trkpt>
      <trkpt lat="41.218808" lon="1.417942">
        <ele>273.3</ele>
        <time>1970-01-01T01:30:28.000Z</time>
      </trkpt>
      <trkpt lat="41.218801" lon="1.417902">
        <ele>273.2</ele>
        <time>1970-01-01T01:30:29.000Z</time>
      </trkpt>
      <trkpt lat="41.218796" lon="1.417865">
        <ele>273.2</ele>
        <time>1970-01-01T01:30:30.000Z</time>
      </trkpt>
      <trkpt lat="41.21879" lon="1.417829">
        <ele>273.1</ele>
        <time>1970-01-01T01:30:31.000Z</time>
      </trkpt>
      <trkpt lat="41.21879" lon="1.417782">
        <ele>273.1</ele>
        <time>1970-01-01T01:30:32.000Z</time>
      </trkpt>
      <trkpt lat="41.218781" lon="1.417736">
        <ele>273</ele>
        <time>1970-01-01T01:30:33.000Z</time>
      </trkpt>
      <trkpt lat="41.218774" lon="1.417684">
        <ele>272.9</ele>
        <time>1970-01-01T01:30:34.000Z</time>
      </trkpt>
      <trkpt lat="41.218774" lon="1.417613">
        <ele>272.8</ele>
        <time>1970-01-01T01:30:35.000Z</time>
      </trkpt>
      <trkpt lat="41.218772" lon="1.417536">
        <ele>272.6</ele>
        <time>1970-01-01T01:30:36.000Z</time>
      </trkpt>
      <trkpt lat="41.21878" lon="1.417473">
        <ele>272.4</ele>
        <time>1970-01-01T01:30:37.000Z</time>
      </trkpt>
      <trkpt lat="41.218795" lon="1.417415">
        <ele>272.3</ele>
        <time>1970-01-01T01:30:38.000Z</time>
      </trkpt>
      <trkpt lat="41.218817" lon="1.417373">
        <ele>272.1</ele>
        <time>1970-01-01T01:30:39.000Z</time>
      </trkpt>
      <trkpt lat="41.218852" lon="1.417339">
        <ele>271.9</ele>
        <time>1970-01-01T01:30:40.000Z</time>
      </trkpt>
      <trkpt lat="41.21889" lon="1.4173">
        <ele>271.7</ele>
        <time>1970-01-01T01:30:41.000Z</time>
      </trkpt>
      <trkpt lat="41.218931" lon="1.417266">
        <ele>271.5</ele>
        <time>1970-01-01T01:30:42.000Z</time>
      </trkpt>
      <trkpt lat="41.218977" lon="1.417229">
        <ele>271.3</ele>
        <time>1970-01-01T01:30:43.000Z</time>
      </trkpt>
      <trkpt lat="41.219008" lon="1.417191">
        <ele>271.1</ele>
        <time>1970-01-01T01:30:44.000Z</time>
      </trkpt>
      <trkpt lat="41.219044" lon="1.417152">
        <ele>270.9</ele>
        <time>1970-01-01T01:30:45.000Z</time>
      </trkpt>
      <trkpt lat="41.21907" lon="1.417108">
        <ele>270.8</ele>
        <time>1970-01-01T01:30:46.000Z</time>
      </trkpt>
      <trkpt lat="41.219078" lon="1.417069">
        <ele>270.7</ele>
        <time>1970-01-01T01:30:47.000Z</time>
      </trkpt>
      <trkpt lat="41.219045" lon="1.41713">
        <ele>270.6</ele>
        <time>1970-01-01T01:30:50.000Z</time>
      </trkpt>
      <trkpt lat="41.219007" lon="1.417154">
        <ele>270.6</ele>
        <time>1970-01-01T01:30:51.000Z</time>
      </trkpt>
      <trkpt lat="41.218959" lon="1.417167">
        <ele>270.7</ele>
        <time>1970-01-01T01:30:52.000Z</time>
      </trkpt>
      <trkpt lat="41.218907" lon="1.417178">
        <ele>270.8</ele>
        <time>1970-01-01T01:30:53.000Z</time>
      </trkpt>
      <trkpt lat="41.21886" lon="1.417191">
        <ele>270.8</ele>
        <time>1970-01-01T01:30:54.000Z</time>
      </trkpt>
      <trkpt lat="41.21882" lon="1.417214">
        <ele>270.9</ele>
        <time>1970-01-01T01:30:55.000Z</time>
      </trkpt>
      <trkpt lat="41.218759" lon="1.417218">
        <ele>270.9</ele>
        <time>1970-01-01T01:30:56.000Z</time>
      </trkpt>
      <trkpt lat="41.218702" lon="1.41723">
        <ele>270.9</ele>
        <time>1970-01-01T01:30:57.000Z</time>
      </trkpt>
      <trkpt lat="41.218646" lon="1.41724">
        <ele>270.9</ele>
        <time>1970-01-01T01:30:58.000Z</time>
      </trkpt>
      <trkpt lat="41.218584" lon="1.417241">
        <ele>270.9</ele>
        <time>1970-01-01T01:30:59.000Z</time>
      </trkpt>
      <trkpt lat="41.218512" lon="1.417241">
        <ele>270.9</ele>
        <time>1970-01-01T01:31:00.000Z</time>
      </trkpt>
      <trkpt lat="41.21844" lon="1.417249">
        <ele>270.9</ele>
        <time>1970-01-01T01:31:01.000Z</time>
      </trkpt>
      <trkpt lat="41.218376" lon="1.417252">
        <ele>270.8</ele>
        <time>1970-01-01T01:31:02.000Z</time>
      </trkpt>
      <trkpt lat="41.218303" lon="1.417264">
        <ele>270.8</ele>
        <time>1970-01-01T01:31:03.000Z</time>
      </trkpt>
      <trkpt lat="41.218214" lon="1.417276">
        <ele>270.7</ele>
        <time>1970-01-01T01:31:04.000Z</time>
      </trkpt>
      <trkpt lat="41.218132" lon="1.417291">
        <ele>270.6</ele>
        <time>1970-01-01T01:31:05.000Z</time>
      </trkpt>
      <trkpt lat="41.218068" lon="1.417307">
        <ele>270.5</ele>
        <time>1970-01-01T01:31:06.000Z</time>
      </trkpt>
      <trkpt lat="41.218005" lon="1.417314">
        <ele>270.4</ele>
        <time>1970-01-01T01:31:07.000Z</time>
      </trkpt>
      <trkpt lat="41.217936" lon="1.417317">
        <ele>270.3</ele>
        <time>1970-01-01T01:31:08.000Z</time>
      </trkpt>
      <trkpt lat="41.21787" lon="1.417315">
        <ele>270.1</ele>
        <time>1970-01-01T01:31:09.000Z</time>
      </trkpt>
      <trkpt lat="41.217808" lon="1.417308">
        <ele>270</ele>
        <time>1970-01-01T01:31:10.000Z</time>
      </trkpt>
      <trkpt lat="41.217749" lon="1.417291">
        <ele>269.7</ele>
        <time>1970-01-01T01:31:11.000Z</time>
      </trkpt>
      <trkpt lat="41.217709" lon="1.417285">
        <ele>269.4</ele>
        <time>1970-01-01T01:31:12.000Z</time>
      </trkpt>
      <trkpt lat="41.217679" lon="1.41728">
        <ele>269.2</ele>
        <time>1970-01-01T01:31:13.000Z</time>
      </trkpt>
      <trkpt lat="41.217649" lon="1.417277">
        <ele>269</ele>
        <time>1970-01-01T01:31:15.000Z</time>
      </trkpt>
      <trkpt lat="41.217599" lon="1.417274">
        <ele>268.8</ele>
        <time>1970-01-01T01:31:17.000Z</time>
      </trkpt>
      <trkpt lat="41.217565" lon="1.417267">
        <ele>268.7</ele>
        <time>1970-01-01T01:31:19.000Z</time>
      </trkpt>
      <trkpt lat="41.217508" lon="1.417284">
        <ele>268.6</ele>
        <time>1970-01-01T01:31:21.000Z</time>
      </trkpt>
      <trkpt lat="41.217476" lon="1.417297">
        <ele>268.6</ele>
        <time>1970-01-01T01:31:22.000Z</time>
      </trkpt>
      <trkpt lat="41.217437" lon="1.417317">
        <ele>268.7</ele>
        <time>1970-01-01T01:31:23.000Z</time>
      </trkpt>
      <trkpt lat="41.217403" lon="1.417323">
        <ele>268.8</ele>
        <time>1970-01-01T01:31:24.000Z</time>
      </trkpt>
      <trkpt lat="41.217365" lon="1.417331">
        <ele>269</ele>
        <time>1970-01-01T01:31:25.000Z</time>
      </trkpt>
      <trkpt lat="41.217311" lon="1.41734">
        <ele>269.4</ele>
        <time>1970-01-01T01:31:27.000Z</time>
      </trkpt>
      <trkpt lat="41.217282" lon="1.417342">
        <ele>269.7</ele>
        <time>1970-01-01T01:31:28.000Z</time>
      </trkpt>
      <trkpt lat="41.217245" lon="1.417358">
        <ele>270.1</ele>
        <time>1970-01-01T01:31:29.000Z</time>
      </trkpt>
      <trkpt lat="41.217211" lon="1.417376">
        <ele>270.5</ele>
        <time>1970-01-01T01:31:30.000Z</time>
      </trkpt>
      <trkpt lat="41.217181" lon="1.417388">
        <ele>270.8</ele>
        <time>1970-01-01T01:31:31.000Z</time>
      </trkpt>
      <trkpt lat="41.217144" lon="1.417417">
        <ele>271.3</ele>
        <time>1970-01-01T01:31:32.000Z</time>
      </trkpt>
      <trkpt lat="41.21711" lon="1.417443">
        <ele>271.9</ele>
        <time>1970-01-01T01:31:33.000Z</time>
      </trkpt>
      <trkpt lat="41.217079" lon="1.417457">
        <ele>272.4</ele>
        <time>1970-01-01T01:31:34.000Z</time>
      </trkpt>
      <trkpt lat="41.217036" lon="1.417472">
        <ele>272.9</ele>
        <time>1970-01-01T01:31:35.000Z</time>
      </trkpt>
      <trkpt lat="41.217" lon="1.417485">
        <ele>273</ele>
        <time>1970-01-01T01:31:36.000Z</time>
      </trkpt>
      <trkpt lat="41.216967" lon="1.41751">
        <ele>273.2</ele>
        <time>1970-01-01T01:31:37.000Z</time>
      </trkpt>
      <trkpt lat="41.216929" lon="1.417531">
        <ele>273.4</ele>
        <time>1970-01-01T01:31:38.000Z</time>
      </trkpt>
      <trkpt lat="41.216898" lon="1.417542">
        <ele>273.5</ele>
        <time>1970-01-01T01:31:39.000Z</time>
      </trkpt>
      <trkpt lat="41.216864" lon="1.41757">
        <ele>273.7</ele>
        <time>1970-01-01T01:31:40.000Z</time>
      </trkpt>
      <trkpt lat="41.21683" lon="1.417592">
        <ele>273.9</ele>
        <time>1970-01-01T01:31:41.000Z</time>
      </trkpt>
      <trkpt lat="41.216797" lon="1.417613">
        <ele>274.1</ele>
        <time>1970-01-01T01:31:42.000Z</time>
      </trkpt>
      <trkpt lat="41.21676" lon="1.41763">
        <ele>274.3</ele>
        <time>1970-01-01T01:31:43.000Z</time>
      </trkpt>
      <trkpt lat="41.21673" lon="1.417649">
        <ele>274.5</ele>
        <time>1970-01-01T01:31:44.000Z</time>
      </trkpt>
      <trkpt lat="41.216706" lon="1.417672">
        <ele>274.6</ele>
        <time>1970-01-01T01:31:45.000Z</time>
      </trkpt>
      <trkpt lat="41.216675" lon="1.417691">
        <ele>274.8</ele>
        <time>1970-01-01T01:31:46.000Z</time>
      </trkpt>
      <trkpt lat="41.216647" lon="1.417717">
        <ele>275</ele>
        <time>1970-01-01T01:31:47.000Z</time>
      </trkpt>
      <trkpt lat="41.216617" lon="1.417737">
        <ele>275.1</ele>
        <time>1970-01-01T01:31:48.000Z</time>
      </trkpt>
      <trkpt lat="41.216586" lon="1.417765">
        <ele>275.2</ele>
        <time>1970-01-01T01:31:49.000Z</time>
      </trkpt>
      <trkpt lat="41.216557" lon="1.417797">
        <ele>275.3</ele>
        <time>1970-01-01T01:31:50.000Z</time>
      </trkpt>
      <trkpt lat="41.216522" lon="1.417828">
        <ele>275.4</ele>
        <time>1970-01-01T01:31:51.000Z</time>
      </trkpt>
      <trkpt lat="41.216487" lon="1.417853">
        <ele>275.5</ele>
        <time>1970-01-01T01:31:52.000Z</time>
      </trkpt>
      <trkpt lat="41.216444" lon="1.417871">
        <ele>275.7</ele>
        <time>1970-01-01T01:31:53.000Z</time>
      </trkpt>
      <trkpt lat="41.216407" lon="1.417903">
        <ele>275.8</ele>
        <time>1970-01-01T01:31:54.000Z</time>
      </trkpt>
      <trkpt lat="41.216367" lon="1.417933">
        <ele>275.9</ele>
        <time>1970-01-01T01:31:55.000Z</time>
      </trkpt>
      <trkpt lat="41.216317" lon="1.417971">
        <ele>276.1</ele>
        <time>1970-01-01T01:31:56.000Z</time>
      </trkpt>
      <trkpt lat="41.216255" lon="1.418004">
        <ele>276.4</ele>
        <time>1970-01-01T01:31:57.000Z</time>
      </trkpt>
      <trkpt lat="41.216198" lon="1.418026">
        <ele>276.7</ele>
        <time>1970-01-01T01:31:58.000Z</time>
      </trkpt>
      <trkpt lat="41.216138" lon="1.418052">
        <ele>277</ele>
        <time>1970-01-01T01:31:59.000Z</time>
      </trkpt>
      <trkpt lat="41.21608" lon="1.418075">
        <ele>277.3</ele>
        <time>1970-01-01T01:32:00.000Z</time>
      </trkpt>
      <trkpt lat="41.216022" lon="1.418102">
        <ele>277.6</ele>
        <time>1970-01-01T01:32:01.000Z</time>
      </trkpt>
      <trkpt lat="41.21597" lon="1.418127">
        <ele>277.9</ele>
        <time>1970-01-01T01:32:02.000Z</time>
      </trkpt>
      <trkpt lat="41.215908" lon="1.418142">
        <ele>278.3</ele>
        <time>1970-01-01T01:32:03.000Z</time>
      </trkpt>
      <trkpt lat="41.215857" lon="1.418153">
        <ele>278.7</ele>
        <time>1970-01-01T01:32:04.000Z</time>
      </trkpt>
      <trkpt lat="41.215791" lon="1.418151">
        <ele>279.2</ele>
        <time>1970-01-01T01:32:05.000Z</time>
      </trkpt>
      <trkpt lat="41.215741" lon="1.418151">
        <ele>279.6</ele>
        <time>1970-01-01T01:32:06.000Z</time>
      </trkpt>
      <trkpt lat="41.215698" lon="1.418153">
        <ele>280.2</ele>
        <time>1970-01-01T01:32:07.000Z</time>
      </trkpt>
      <trkpt lat="41.21566" lon="1.418153">
        <ele>280.7</ele>
        <time>1970-01-01T01:32:08.000Z</time>
      </trkpt>
      <trkpt lat="41.215627" lon="1.418154">
        <ele>281.2</ele>
        <time>1970-01-01T01:32:09.000Z</time>
      </trkpt>
      <trkpt lat="41.215598" lon="1.418159">
        <ele>281.3</ele>
        <time>1970-01-01T01:32:10.000Z</time>
      </trkpt>
      <trkpt lat="41.215545" lon="1.418166">
        <ele>281.7</ele>
        <time>1970-01-01T01:32:12.000Z</time>
      </trkpt>
      <trkpt lat="41.215512" lon="1.418177">
        <ele>281.9</ele>
        <time>1970-01-01T01:32:14.000Z</time>
      </trkpt>
      <trkpt lat="41.215483" lon="1.418207">
        <ele>282.1</ele>
        <time>1970-01-01T01:32:15.000Z</time>
      </trkpt>
      <trkpt lat="41.215471" lon="1.418247">
        <ele>282.3</ele>
        <time>1970-01-01T01:32:16.000Z</time>
      </trkpt>
      <trkpt lat="41.215467" lon="1.41829">
        <ele>282.4</ele>
        <time>1970-01-01T01:32:17.000Z</time>
      </trkpt>
      <trkpt lat="41.215441" lon="1.418348">
        <ele>282.6</ele>
        <time>1970-01-01T01:32:18.000Z</time>
      </trkpt>
      <trkpt lat="41.215426" lon="1.418389">
        <ele>282.8</ele>
        <time>1970-01-01T01:32:19.000Z</time>
      </trkpt>
      <trkpt lat="41.215416" lon="1.418438">
        <ele>283</ele>
        <time>1970-01-01T01:32:20.000Z</time>
      </trkpt>
      <trkpt lat="41.215397" lon="1.418476">
        <ele>283.1</ele>
        <time>1970-01-01T01:32:21.000Z</time>
      </trkpt>
      <trkpt lat="41.215374" lon="1.418523">
        <ele>283.3</ele>
        <time>1970-01-01T01:32:22.000Z</time>
      </trkpt>
      <trkpt lat="41.215353" lon="1.418581">
        <ele>283.4</ele>
        <time>1970-01-01T01:32:23.000Z</time>
      </trkpt>
      <trkpt lat="41.215336" lon="1.418631">
        <ele>283.5</ele>
        <time>1970-01-01T01:32:24.000Z</time>
      </trkpt>
      <trkpt lat="41.215323" lon="1.418671">
        <ele>283.6</ele>
        <time>1970-01-01T01:32:25.000Z</time>
      </trkpt>
      <trkpt lat="41.215314" lon="1.418713">
        <ele>283.7</ele>
        <time>1970-01-01T01:32:26.000Z</time>
      </trkpt>
      <trkpt lat="41.2153" lon="1.418767">
        <ele>283.8</ele>
        <time>1970-01-01T01:32:27.000Z</time>
      </trkpt>
      <trkpt lat="41.215284" lon="1.418823">
        <ele>283.9</ele>
        <time>1970-01-01T01:32:28.000Z</time>
      </trkpt>
      <trkpt lat="41.215264" lon="1.418886">
        <ele>284</ele>
        <time>1970-01-01T01:32:29.000Z</time>
      </trkpt>
      <trkpt lat="41.215246" lon="1.418947">
        <ele>284.1</ele>
        <time>1970-01-01T01:32:30.000Z</time>
      </trkpt>
      <trkpt lat="41.215225" lon="1.419013">
        <ele>284.4</ele>
        <time>1970-01-01T01:32:31.000Z</time>
      </trkpt>
      <trkpt lat="41.215203" lon="1.41907">
        <ele>284.6</ele>
        <time>1970-01-01T01:32:32.000Z</time>
      </trkpt>
      <trkpt lat="41.215185" lon="1.41912">
        <ele>284.8</ele>
        <time>1970-01-01T01:32:33.000Z</time>
      </trkpt>
      <trkpt lat="41.215168" lon="1.419168">
        <ele>285.1</ele>
        <time>1970-01-01T01:32:34.000Z</time>
      </trkpt>
      <trkpt lat="41.215155" lon="1.419208">
        <ele>285.3</ele>
        <time>1970-01-01T01:32:35.000Z</time>
      </trkpt>
      <trkpt lat="41.215137" lon="1.419244">
        <ele>285.5</ele>
        <time>1970-01-01T01:32:36.000Z</time>
      </trkpt>
      <trkpt lat="41.215122" lon="1.419282">
        <ele>285.7</ele>
        <time>1970-01-01T01:32:37.000Z</time>
      </trkpt>
      <trkpt lat="41.215111" lon="1.419317">
        <ele>285.9</ele>
        <time>1970-01-01T01:32:38.000Z</time>
      </trkpt>
      <trkpt lat="41.215085" lon="1.419377">
        <ele>286.3</ele>
        <time>1970-01-01T01:32:40.000Z</time>
      </trkpt>
      <trkpt lat="41.215064" lon="1.419409">
        <ele>286.5</ele>
        <time>1970-01-01T01:32:41.000Z</time>
      </trkpt>
      <trkpt lat="41.215045" lon="1.419448">
        <ele>286.7</ele>
        <time>1970-01-01T01:32:42.000Z</time>
      </trkpt>
      <trkpt lat="41.215022" lon="1.419494">
        <ele>287.1</ele>
        <time>1970-01-01T01:32:43.000Z</time>
      </trkpt>
      <trkpt lat="41.215003" lon="1.419527">
        <ele>287.4</ele>
        <time>1970-01-01T01:32:44.000Z</time>
      </trkpt>
      <trkpt lat="41.214983" lon="1.41957">
        <ele>287.8</ele>
        <time>1970-01-01T01:32:45.000Z</time>
      </trkpt>
      <trkpt lat="41.214963" lon="1.419606">
        <ele>288.3</ele>
        <time>1970-01-01T01:32:46.000Z</time>
      </trkpt>
      <trkpt lat="41.214943" lon="1.419632">
        <ele>288.7</ele>
        <time>1970-01-01T01:32:47.000Z</time>
      </trkpt>
      <trkpt lat="41.21491" lon="1.419674">
        <ele>289.2</ele>
        <time>1970-01-01T01:32:49.000Z</time>
      </trkpt>
      <trkpt lat="41.214879" lon="1.419689">
        <ele>289.6</ele>
        <time>1970-01-01T01:32:52.000Z</time>
      </trkpt>
      <trkpt lat="41.214858" lon="1.419647">
        <ele>290</ele>
        <time>1970-01-01T01:32:54.000Z</time>
      </trkpt>
      <trkpt lat="41.214845" lon="1.419614">
        <ele>290.4</ele>
        <time>1970-01-01T01:32:55.000Z</time>
      </trkpt>
      <trkpt lat="41.214819" lon="1.419569">
        <ele>290.9</ele>
        <time>1970-01-01T01:32:57.000Z</time>
      </trkpt>
      <trkpt lat="41.214793" lon="1.419524">
        <ele>291.3</ele>
        <time>1970-01-01T01:32:59.000Z</time>
      </trkpt>
      <trkpt lat="41.214781" lon="1.41947">
        <ele>291.7</ele>
        <time>1970-01-01T01:33:01.000Z</time>
      </trkpt>
      <trkpt lat="41.214763" lon="1.419431">
        <ele>292</ele>
        <time>1970-01-01T01:33:03.000Z</time>
      </trkpt>
      <trkpt lat="41.214741" lon="1.419393">
        <ele>292.2</ele>
        <time>1970-01-01T01:33:05.000Z</time>
      </trkpt>
      <trkpt lat="41.214722" lon="1.41934">
        <ele>292.5</ele>
        <time>1970-01-01T01:33:07.000Z</time>
      </trkpt>
      <trkpt lat="41.214701" lon="1.41929">
        <ele>292.7</ele>
        <time>1970-01-01T01:33:09.000Z</time>
      </trkpt>
      <trkpt lat="41.214687" lon="1.419258">
        <ele>292.9</ele>
        <time>1970-01-01T01:33:10.000Z</time>
      </trkpt>
      <trkpt lat="41.214662" lon="1.419218">
        <ele>293</ele>
        <time>1970-01-01T01:33:12.000Z</time>
      </trkpt>
      <trkpt lat="41.214613" lon="1.419227">
        <ele>293.2</ele>
        <time>1970-01-01T01:33:14.000Z</time>
      </trkpt>
      <trkpt lat="41.214571" lon="1.419245">
        <ele>293.3</ele>
        <time>1970-01-01T01:33:16.000Z</time>
      </trkpt>
      <trkpt lat="41.214531" lon="1.419266">
        <ele>293.4</ele>
        <time>1970-01-01T01:33:18.000Z</time>
      </trkpt>
      <trkpt lat="41.214506" lon="1.419285">
        <ele>293.5</ele>
        <time>1970-01-01T01:33:19.000Z</time>
      </trkpt>
      <trkpt lat="41.214466" lon="1.419301">
        <ele>293.5</ele>
        <time>1970-01-01T01:33:21.000Z</time>
      </trkpt>
      <trkpt lat="41.214439" lon="1.419308">
        <ele>293.5</ele>
        <time>1970-01-01T01:33:22.000Z</time>
      </trkpt>
      <trkpt lat="41.214395" lon="1.419353">
        <ele>293.6</ele>
        <time>1970-01-01T01:33:24.000Z</time>
      </trkpt>
      <trkpt lat="41.214365" lon="1.419368">
        <ele>293.6</ele>
        <time>1970-01-01T01:33:25.000Z</time>
      </trkpt>
      <trkpt lat="41.214323" lon="1.419382">
        <ele>293.6</ele>
        <time>1970-01-01T01:33:26.000Z</time>
      </trkpt>
      <trkpt lat="41.214286" lon="1.419394">
        <ele>293.6</ele>
        <time>1970-01-01T01:33:27.000Z</time>
      </trkpt>
      <trkpt lat="41.214249" lon="1.419405">
        <ele>293.6</ele>
        <time>1970-01-01T01:33:28.000Z</time>
      </trkpt>
      <trkpt lat="41.214213" lon="1.419406">
        <ele>293.6</ele>
        <time>1970-01-01T01:33:29.000Z</time>
      </trkpt>
      <trkpt lat="41.214179" lon="1.419407">
        <ele>293.6</ele>
        <time>1970-01-01T01:33:30.000Z</time>
      </trkpt>
      <trkpt lat="41.214144" lon="1.41941">
        <ele>293.6</ele>
        <time>1970-01-01T01:33:31.000Z</time>
      </trkpt>
      <trkpt lat="41.214109" lon="1.419418">
        <ele>293.6</ele>
        <time>1970-01-01T01:33:32.000Z</time>
      </trkpt>
      <trkpt lat="41.214073" lon="1.419427">
        <ele>293.6</ele>
        <time>1970-01-01T01:33:33.000Z</time>
      </trkpt>
      <trkpt lat="41.214039" lon="1.419441">
        <ele>293.6</ele>
        <time>1970-01-01T01:33:34.000Z</time>
      </trkpt>
      <trkpt lat="41.214003" lon="1.419449">
        <ele>293.5</ele>
        <time>1970-01-01T01:33:35.000Z</time>
      </trkpt>
      <trkpt lat="41.213962" lon="1.419463">
        <ele>293.5</ele>
        <time>1970-01-01T01:33:36.000Z</time>
      </trkpt>
      <trkpt lat="41.21392" lon="1.419476">
        <ele>293.4</ele>
        <time>1970-01-01T01:33:37.000Z</time>
      </trkpt>
      <trkpt lat="41.213883" lon="1.41949">
        <ele>293.4</ele>
        <time>1970-01-01T01:33:38.000Z</time>
      </trkpt>
      <trkpt lat="41.213848" lon="1.419506">
        <ele>293.3</ele>
        <time>1970-01-01T01:33:39.000Z</time>
      </trkpt>
      <trkpt lat="41.213818" lon="1.419515">
        <ele>293.3</ele>
        <time>1970-01-01T01:33:40.000Z</time>
      </trkpt>
      <trkpt lat="41.213787" lon="1.419527">
        <ele>293.2</ele>
        <time>1970-01-01T01:33:41.000Z</time>
      </trkpt>
      <trkpt lat="41.213757" lon="1.419543">
        <ele>293.1</ele>
        <time>1970-01-01T01:33:42.000Z</time>
      </trkpt>
      <trkpt lat="41.213722" lon="1.419559">
        <ele>293</ele>
        <time>1970-01-01T01:33:43.000Z</time>
      </trkpt>
      <trkpt lat="41.213686" lon="1.419576">
        <ele>292.9</ele>
        <time>1970-01-01T01:33:44.000Z</time>
      </trkpt>
      <trkpt lat="41.213653" lon="1.419596">
        <ele>292.8</ele>
        <time>1970-01-01T01:33:45.000Z</time>
      </trkpt>
      <trkpt lat="41.213619" lon="1.419616">
        <ele>292.7</ele>
        <time>1970-01-01T01:33:46.000Z</time>
      </trkpt>
      <trkpt lat="41.213584" lon="1.419632">
        <ele>292.6</ele>
        <time>1970-01-01T01:33:47.000Z</time>
      </trkpt>
      <trkpt lat="41.213553" lon="1.419645">
        <ele>292.5</ele>
        <time>1970-01-01T01:33:48.000Z</time>
      </trkpt>
      <trkpt lat="41.213523" lon="1.41965">
        <ele>292.4</ele>
        <time>1970-01-01T01:33:49.000Z</time>
      </trkpt>
      <trkpt lat="41.213495" lon="1.419653">
        <ele>292.3</ele>
        <time>1970-01-01T01:33:50.000Z</time>
      </trkpt>
      <trkpt lat="41.213449" lon="1.419644">
        <ele>292.3</ele>
        <time>1970-01-01T01:33:52.000Z</time>
      </trkpt>
      <trkpt lat="41.213423" lon="1.419632">
        <ele>292.3</ele>
        <time>1970-01-01T01:33:53.000Z</time>
      </trkpt>
      <trkpt lat="41.213396" lon="1.419613">
        <ele>292.2</ele>
        <time>1970-01-01T01:33:54.000Z</time>
      </trkpt>
      <trkpt lat="41.213368" lon="1.419574">
        <ele>292.3</ele>
        <time>1970-01-01T01:33:55.000Z</time>
      </trkpt>
      <trkpt lat="41.213333" lon="1.41954">
        <ele>292.3</ele>
        <time>1970-01-01T01:33:57.000Z</time>
      </trkpt>
      <trkpt lat="41.213325" lon="1.419491">
        <ele>292.4</ele>
        <time>1970-01-01T01:33:59.000Z</time>
      </trkpt>
      <trkpt lat="41.213329" lon="1.419478">
        <ele>292.4</ele>
        <time>1970-01-01T01:34:03.000Z</time>
      </trkpt>
      <trkpt lat="41.213333" lon="1.419465">
        <ele>292.4</ele>
        <time>1970-01-01T01:34:06.000Z</time>
      </trkpt>
      <trkpt lat="41.213337" lon="1.419453">
        <ele>292.5</ele>
        <time>1970-01-01T01:34:13.000Z</time>
      </trkpt>
      <trkpt lat="41.213341" lon="1.41944">
        <ele>292.5</ele>
        <time>1970-01-01T01:34:15.000Z</time>
      </trkpt>
      <trkpt lat="41.213345" lon="1.419427">
        <ele>292.5</ele>
        <time>1970-01-01T01:34:51.000Z</time>
      </trkpt>
      <trkpt lat="41.213349" lon="1.419414">
        <ele>292.5</ele>
        <time>1970-01-01T01:34:52.000Z</time>
      </trkpt>
      <trkpt lat="41.213355" lon="1.419454">
        <ele>292.6</ele>
        <time>1970-01-01T01:34:53.000Z</time>
      </trkpt>
      <trkpt lat="41.213391" lon="1.419503">
        <ele>292.5</ele>
        <time>1970-01-01T01:34:54.000Z</time>
      </trkpt>
      <trkpt lat="41.213428" lon="1.419553">
        <ele>292.4</ele>
        <time>1970-01-01T01:34:55.000Z</time>
      </trkpt>
      <trkpt lat="41.213474" lon="1.419576">
        <ele>292.3</ele>
        <time>1970-01-01T01:34:56.000Z</time>
      </trkpt>
      <trkpt lat="41.213514" lon="1.419599">
        <ele>292.3</ele>
        <time>1970-01-01T01:34:57.000Z</time>
      </trkpt>
      <trkpt lat="41.213557" lon="1.419603">
        <ele>292.3</ele>
        <time>1970-01-01T01:34:58.000Z</time>
      </trkpt>
      <trkpt lat="41.213597" lon="1.4196">
        <ele>292.3</ele>
        <time>1970-01-01T01:34:59.000Z</time>
      </trkpt>
      <trkpt lat="41.213633" lon="1.419592">
        <ele>292.4</ele>
        <time>1970-01-01T01:35:00.000Z</time>
      </trkpt>
      <trkpt lat="41.213671" lon="1.419573">
        <ele>292.5</ele>
        <time>1970-01-01T01:35:01.000Z</time>
      </trkpt>
      <trkpt lat="41.213703" lon="1.419562">
        <ele>292.6</ele>
        <time>1970-01-01T01:35:02.000Z</time>
      </trkpt>
      <trkpt lat="41.213738" lon="1.419556">
        <ele>292.7</ele>
        <time>1970-01-01T01:35:03.000Z</time>
      </trkpt>
      <trkpt lat="41.213776" lon="1.419547">
        <ele>292.8</ele>
        <time>1970-01-01T01:35:04.000Z</time>
      </trkpt>
      <trkpt lat="41.213824" lon="1.419524">
        <ele>293</ele>
        <time>1970-01-01T01:35:05.000Z</time>
      </trkpt>
      <trkpt lat="41.213858" lon="1.419516">
        <ele>293.1</ele>
        <time>1970-01-01T01:35:06.000Z</time>
      </trkpt>
      <trkpt lat="41.213903" lon="1.4195">
        <ele>293.2</ele>
        <time>1970-01-01T01:35:07.000Z</time>
      </trkpt>
      <trkpt lat="41.213947" lon="1.419482">
        <ele>293.3</ele>
        <time>1970-01-01T01:35:08.000Z</time>
      </trkpt>
      <trkpt lat="41.213994" lon="1.419474">
        <ele>293.4</ele>
        <time>1970-01-01T01:35:09.000Z</time>
      </trkpt>
      <trkpt lat="41.214044" lon="1.419463">
        <ele>293.4</ele>
        <time>1970-01-01T01:35:10.000Z</time>
      </trkpt>
      <trkpt lat="41.214096" lon="1.419447">
        <ele>293.5</ele>
        <time>1970-01-01T01:35:11.000Z</time>
      </trkpt>
      <trkpt lat="41.214145" lon="1.419441">
        <ele>293.6</ele>
        <time>1970-01-01T01:35:12.000Z</time>
      </trkpt>
      <trkpt lat="41.214196" lon="1.419427">
        <ele>293.6</ele>
        <time>1970-01-01T01:35:13.000Z</time>
      </trkpt>
      <trkpt lat="41.214242" lon="1.419417">
        <ele>293.6</ele>
        <time>1970-01-01T01:35:14.000Z</time>
      </trkpt>
      <trkpt lat="41.21429" lon="1.419402">
        <ele>293.6</ele>
        <time>1970-01-01T01:35:15.000Z</time>
      </trkpt>
      <trkpt lat="41.214339" lon="1.419382">
        <ele>293.6</ele>
        <time>1970-01-01T01:35:16.000Z</time>
      </trkpt>
      <trkpt lat="41.214389" lon="1.419368">
        <ele>293.6</ele>
        <time>1970-01-01T01:35:17.000Z</time>
      </trkpt>
      <trkpt lat="41.214436" lon="1.419343">
        <ele>293.6</ele>
        <time>1970-01-01T01:35:18.000Z</time>
      </trkpt>
      <trkpt lat="41.214486" lon="1.419321">
        <ele>293.6</ele>
        <time>1970-01-01T01:35:19.000Z</time>
      </trkpt>
      <trkpt lat="41.214528" lon="1.419299">
        <ele>293.6</ele>
        <time>1970-01-01T01:35:20.000Z</time>
      </trkpt>
      <trkpt lat="41.214569" lon="1.419278">
        <ele>293.5</ele>
        <time>1970-01-01T01:35:21.000Z</time>
      </trkpt>
      <trkpt lat="41.214597" lon="1.41925">
        <ele>293.5</ele>
        <time>1970-01-01T01:35:22.000Z</time>
      </trkpt>
      <trkpt lat="41.214628" lon="1.419234">
        <ele>293.4</ele>
        <time>1970-01-01T01:35:23.000Z</time>
      </trkpt>
      <trkpt lat="41.214655" lon="1.419214">
        <ele>293.3</ele>
        <time>1970-01-01T01:35:24.000Z</time>
      </trkpt>
      <trkpt lat="41.21468" lon="1.419196">
        <ele>293.2</ele>
        <time>1970-01-01T01:35:26.000Z</time>
      </trkpt>
      <trkpt lat="41.214654" lon="1.41918">
        <ele>293.1</ele>
        <time>1970-01-01T01:35:34.000Z</time>
      </trkpt>
      <trkpt lat="41.214621" lon="1.419188">
        <ele>293</ele>
        <time>1970-01-01T01:35:44.000Z</time>
      </trkpt>
      <trkpt lat="41.214597" lon="1.419166">
        <ele>293.1</ele>
        <time>1970-01-01T01:35:47.000Z</time>
      </trkpt>
      <trkpt lat="41.214561" lon="1.419169">
        <ele>293.2</ele>
        <time>1970-01-01T01:35:52.000Z</time>
      </trkpt>
      <trkpt lat="41.214537" lon="1.419129">
        <ele>293.3</ele>
        <time>1970-01-01T01:35:55.000Z</time>
      </trkpt>
      <trkpt lat="41.214514" lon="1.419108">
        <ele>293.5</ele>
        <time>1970-01-01T01:35:57.000Z</time>
      </trkpt>
      <trkpt lat="41.214492" lon="1.419075">
        <ele>293.8</ele>
        <time>1970-01-01T01:35:59.000Z</time>
      </trkpt>
      <trkpt lat="41.21451" lon="1.419025">
        <ele>293.7</ele>
        <time>1970-01-01T01:36:21.000Z</time>
      </trkpt>
      <trkpt lat="41.214498" lon="1.418881">
        <ele>294.1</ele>
        <time>1970-01-01T01:36:44.000Z</time>
      </trkpt>
      <trkpt lat="41.214474" lon="1.41882">
        <ele>294.6</ele>
        <time>1970-01-01T01:36:46.000Z</time>
      </trkpt>
      <trkpt lat="41.214464" lon="1.418785">
        <ele>294.9</ele>
        <time>1970-01-01T01:36:47.000Z</time>
      </trkpt>
      <trkpt lat="41.214427" lon="1.418732">
        <ele>295.6</ele>
        <time>1970-01-01T01:36:49.000Z</time>
      </trkpt>
      <trkpt lat="41.214414" lon="1.418699">
        <ele>295.6</ele>
        <time>1970-01-01T01:36:50.000Z</time>
      </trkpt>
      <trkpt lat="41.214399" lon="1.418668">
        <ele>296.2</ele>
        <time>1970-01-01T01:36:51.000Z</time>
      </trkpt>
      <trkpt lat="41.214369" lon="1.418616">
        <ele>296.5</ele>
        <time>1970-01-01T01:36:53.000Z</time>
      </trkpt>
      <trkpt lat="41.214358" lon="1.418572">
        <ele>297.2</ele>
        <time>1970-01-01T01:36:54.000Z</time>
      </trkpt>
      <trkpt lat="41.214341" lon="1.418536">
        <ele>297.5</ele>
        <time>1970-01-01T01:36:55.000Z</time>
      </trkpt>
      <trkpt lat="41.214326" lon="1.418506">
        <ele>298.2</ele>
        <time>1970-01-01T01:36:56.000Z</time>
      </trkpt>
      <trkpt lat="41.214284" lon="1.418464">
        <ele>298.9</ele>
        <time>1970-01-01T01:36:58.000Z</time>
      </trkpt>
      <trkpt lat="41.214254" lon="1.418446">
        <ele>299.3</ele>
        <time>1970-01-01T01:36:59.000Z</time>
      </trkpt>
      <trkpt lat="41.214223" lon="1.418431">
        <ele>300</ele>
        <time>1970-01-01T01:37:00.000Z</time>
      </trkpt>
      <trkpt lat="41.214196" lon="1.418428">
        <ele>300.4</ele>
        <time>1970-01-01T01:37:01.000Z</time>
      </trkpt>
      <trkpt lat="41.21414" lon="1.418435">
        <ele>301.3</ele>
        <time>1970-01-01T01:37:03.000Z</time>
      </trkpt>
      <trkpt lat="41.214112" lon="1.418449">
        <ele>300.9</ele>
        <time>1970-01-01T01:37:04.000Z</time>
      </trkpt>
      <trkpt lat="41.214061" lon="1.418447">
        <ele>301.6</ele>
        <time>1970-01-01T01:37:06.000Z</time>
      </trkpt>
      <trkpt lat="41.214011" lon="1.418462">
        <ele>302.2</ele>
        <time>1970-01-01T01:37:08.000Z</time>
      </trkpt>
      <trkpt lat="41.213953" lon="1.418449">
        <ele>302.5</ele>
        <time>1970-01-01T01:37:10.000Z</time>
      </trkpt>
      <trkpt lat="41.213911" lon="1.418428">
        <ele>303.4</ele>
        <time>1970-01-01T01:37:12.000Z</time>
      </trkpt>
      <trkpt lat="41.213861" lon="1.418427">
        <ele>303.7</ele>
        <time>1970-01-01T01:37:14.000Z</time>
      </trkpt>
      <trkpt lat="41.213815" lon="1.418404">
        <ele>304.1</ele>
        <time>1970-01-01T01:37:16.000Z</time>
      </trkpt>
      <trkpt lat="41.213771" lon="1.418377">
        <ele>304.7</ele>
        <time>1970-01-01T01:37:18.000Z</time>
      </trkpt>
      <trkpt lat="41.213733" lon="1.418343">
        <ele>305.2</ele>
        <time>1970-01-01T01:37:20.000Z</time>
      </trkpt>
      <trkpt lat="41.213694" lon="1.418299">
        <ele>305.7</ele>
        <time>1970-01-01T01:37:22.000Z</time>
      </trkpt>
      <trkpt lat="41.213667" lon="1.418263">
        <ele>306.2</ele>
        <time>1970-01-01T01:37:24.000Z</time>
      </trkpt>
      <trkpt lat="41.213642" lon="1.418225">
        <ele>306.4</ele>
        <time>1970-01-01T01:37:26.000Z</time>
      </trkpt>
      <trkpt lat="41.213619" lon="1.418183">
        <ele>307</ele>
        <time>1970-01-01T01:37:28.000Z</time>
      </trkpt>
      <trkpt lat="41.213599" lon="1.418132">
        <ele>307.6</ele>
        <time>1970-01-01T01:37:30.000Z</time>
      </trkpt>
      <trkpt lat="41.213576" lon="1.418097">
        <ele>307.7</ele>
        <time>1970-01-01T01:37:32.000Z</time>
      </trkpt>
      <trkpt lat="41.213557" lon="1.418061">
        <ele>308.2</ele>
        <time>1970-01-01T01:37:34.000Z</time>
      </trkpt>
      <trkpt lat="41.213537" lon="1.418034">
        <ele>308.4</ele>
        <time>1970-01-01T01:37:36.000Z</time>
      </trkpt>
      <trkpt lat="41.213509" lon="1.417997">
        <ele>308.8</ele>
        <time>1970-01-01T01:37:38.000Z</time>
      </trkpt>
      <trkpt lat="41.21348" lon="1.417965">
        <ele>309.1</ele>
        <time>1970-01-01T01:37:40.000Z</time>
      </trkpt>
      <trkpt lat="41.213454" lon="1.417944">
        <ele>309.2</ele>
        <time>1970-01-01T01:37:42.000Z</time>
      </trkpt>
      <trkpt lat="41.213435" lon="1.417909">
        <ele>309.3</ele>
        <time>1970-01-01T01:37:44.000Z</time>
      </trkpt>
      <trkpt lat="41.213417" lon="1.417857">
        <ele>309.7</ele>
        <time>1970-01-01T01:37:46.000Z</time>
      </trkpt>
      <trkpt lat="41.213408" lon="1.417812">
        <ele>309.8</ele>
        <time>1970-01-01T01:37:48.000Z</time>
      </trkpt>
      <trkpt lat="41.213395" lon="1.417761">
        <ele>310.2</ele>
        <time>1970-01-01T01:37:50.000Z</time>
      </trkpt>
      <trkpt lat="41.213382" lon="1.417727">
        <ele>310.3</ele>
        <time>1970-01-01T01:37:52.000Z</time>
      </trkpt>
      <trkpt lat="41.213357" lon="1.41771">
        <ele>310.4</ele>
        <time>1970-01-01T01:37:54.000Z</time>
      </trkpt>
      <trkpt lat="41.213322" lon="1.4177">
        <ele>310.7</ele>
        <time>1970-01-01T01:37:56.000Z</time>
      </trkpt>
      <trkpt lat="41.213293" lon="1.417687">
        <ele>310.7</ele>
        <time>1970-01-01T01:37:58.000Z</time>
      </trkpt>
      <trkpt lat="41.213266" lon="1.417668">
        <ele>310.8</ele>
        <time>1970-01-01T01:38:00.000Z</time>
      </trkpt>
      <trkpt lat="41.213237" lon="1.417649">
        <ele>310.9</ele>
        <time>1970-01-01T01:38:03.000Z</time>
      </trkpt>
      <trkpt lat="41.213204" lon="1.417653">
        <ele>310.9</ele>
        <time>1970-01-01T01:38:06.000Z</time>
      </trkpt>
      <trkpt lat="41.213167" lon="1.417655">
        <ele>310.9</ele>
        <time>1970-01-01T01:38:08.000Z</time>
      </trkpt>
      <trkpt lat="41.213138" lon="1.417656">
        <ele>310.9</ele>
        <time>1970-01-01T01:38:12.000Z</time>
      </trkpt>
      <trkpt lat="41.213107" lon="1.417655">
        <ele>310.9</ele>
        <time>1970-01-01T01:38:17.000Z</time>
      </trkpt>
      <trkpt lat="41.213082" lon="1.417628">
        <ele>310.9</ele>
        <time>1970-01-01T01:38:19.000Z</time>
      </trkpt>
      <trkpt lat="41.213055" lon="1.417624">
        <ele>310.8</ele>
        <time>1970-01-01T01:38:21.000Z</time>
      </trkpt>
      <trkpt lat="41.213023" lon="1.417609">
        <ele>311</ele>
        <time>1970-01-01T01:38:23.000Z</time>
      </trkpt>
      <trkpt lat="41.212993" lon="1.417613">
        <ele>311</ele>
        <time>1970-01-01T01:38:25.000Z</time>
      </trkpt>
      <trkpt lat="41.212962" lon="1.417609">
        <ele>311</ele>
        <time>1970-01-01T01:38:27.000Z</time>
      </trkpt>
      <trkpt lat="41.212926" lon="1.417605">
        <ele>311</ele>
        <time>1970-01-01T01:38:29.000Z</time>
      </trkpt>
      <trkpt lat="41.212879" lon="1.417604">
        <ele>310.9</ele>
        <time>1970-01-01T01:38:31.000Z</time>
      </trkpt>
      <trkpt lat="41.21285" lon="1.417594">
        <ele>310.9</ele>
        <time>1970-01-01T01:38:32.000Z</time>
      </trkpt>
      <trkpt lat="41.212822" lon="1.417584">
        <ele>310.8</ele>
        <time>1970-01-01T01:38:33.000Z</time>
      </trkpt>
      <trkpt lat="41.212777" lon="1.417588">
        <ele>310.7</ele>
        <time>1970-01-01T01:38:35.000Z</time>
      </trkpt>
      <trkpt lat="41.212747" lon="1.41758">
        <ele>310.7</ele>
        <time>1970-01-01T01:38:36.000Z</time>
      </trkpt>
      <trkpt lat="41.212717" lon="1.417561">
        <ele>311.3</ele>
        <time>1970-01-01T01:38:37.000Z</time>
      </trkpt>
      <trkpt lat="41.212687" lon="1.417545">
        <ele>311.3</ele>
        <time>1970-01-01T01:38:38.000Z</time>
      </trkpt>
      <trkpt lat="41.212641" lon="1.417526">
        <ele>312</ele>
        <time>1970-01-01T01:38:40.000Z</time>
      </trkpt>
      <trkpt lat="41.212594" lon="1.417511">
        <ele>312</ele>
        <time>1970-01-01T01:38:42.000Z</time>
      </trkpt>
      <trkpt lat="41.212567" lon="1.417507">
        <ele>311.9</ele>
        <time>1970-01-01T01:38:43.000Z</time>
      </trkpt>
      <trkpt lat="41.212541" lon="1.417494">
        <ele>311.9</ele>
        <time>1970-01-01T01:38:44.000Z</time>
      </trkpt>
      <trkpt lat="41.212513" lon="1.417476">
        <ele>312.7</ele>
        <time>1970-01-01T01:38:45.000Z</time>
      </trkpt>
      <trkpt lat="41.21248" lon="1.417472">
        <ele>312.6</ele>
        <time>1970-01-01T01:38:46.000Z</time>
      </trkpt>
      <trkpt lat="41.212429" lon="1.417436">
        <ele>313.2</ele>
        <time>1970-01-01T01:38:48.000Z</time>
      </trkpt>
      <trkpt lat="41.212384" lon="1.417421">
        <ele>313.1</ele>
        <time>1970-01-01T01:38:50.000Z</time>
      </trkpt>
      <trkpt lat="41.212339" lon="1.417421">
        <ele>312.9</ele>
        <time>1970-01-01T01:38:52.000Z</time>
      </trkpt>
      <trkpt lat="41.2123" lon="1.417422">
        <ele>312.5</ele>
        <time>1970-01-01T01:38:54.000Z</time>
      </trkpt>
      <trkpt lat="41.21227" lon="1.417421">
        <ele>312.3</ele>
        <time>1970-01-01T01:38:56.000Z</time>
      </trkpt>
      <trkpt lat="41.212238" lon="1.417422">
        <ele>312</ele>
        <time>1970-01-01T01:38:58.000Z</time>
      </trkpt>
      <trkpt lat="41.212208" lon="1.417418">
        <ele>312</ele>
        <time>1970-01-01T01:39:00.000Z</time>
      </trkpt>
      <trkpt lat="41.212183" lon="1.417435">
        <ele>311.7</ele>
        <time>1970-01-01T01:39:02.000Z</time>
      </trkpt>
      <trkpt lat="41.21215" lon="1.417448">
        <ele>311.5</ele>
        <time>1970-01-01T01:39:05.000Z</time>
      </trkpt>
      <trkpt lat="41.212106" lon="1.417449">
        <ele>311.1</ele>
        <time>1970-01-01T01:39:08.000Z</time>
      </trkpt>
      <trkpt lat="41.212071" lon="1.417457">
        <ele>310.5</ele>
        <time>1970-01-01T01:39:10.000Z</time>
      </trkpt>
      <trkpt lat="41.212036" lon="1.417479">
        <ele>310.5</ele>
        <time>1970-01-01T01:39:12.000Z</time>
      </trkpt>
      <trkpt lat="41.212009" lon="1.417497">
        <ele>310.5</ele>
        <time>1970-01-01T01:39:14.000Z</time>
      </trkpt>
      <trkpt lat="41.211973" lon="1.417474">
        <ele>310.5</ele>
        <time>1970-01-01T01:39:16.000Z</time>
      </trkpt>
      <trkpt lat="41.211939" lon="1.417455">
        <ele>310.5</ele>
        <time>1970-01-01T01:39:18.000Z</time>
      </trkpt>
      <trkpt lat="41.211903" lon="1.417437">
        <ele>310.5</ele>
        <time>1970-01-01T01:39:20.000Z</time>
      </trkpt>
      <trkpt lat="41.211866" lon="1.417436">
        <ele>310.5</ele>
        <time>1970-01-01T01:39:22.000Z</time>
      </trkpt>
      <trkpt lat="41.211825" lon="1.417413">
        <ele>310.6</ele>
        <time>1970-01-01T01:39:24.000Z</time>
      </trkpt>
      <trkpt lat="41.211784" lon="1.417394">
        <ele>310.7</ele>
        <time>1970-01-01T01:39:27.000Z</time>
      </trkpt>
      <trkpt lat="41.211741" lon="1.417387">
        <ele>311</ele>
        <time>1970-01-01T01:39:29.000Z</time>
      </trkpt>
      <trkpt lat="41.211702" lon="1.417359">
        <ele>310.9</ele>
        <time>1970-01-01T01:39:31.000Z</time>
      </trkpt>
      <trkpt lat="41.211671" lon="1.417327">
        <ele>310.9</ele>
        <time>1970-01-01T01:39:33.000Z</time>
      </trkpt>
      <trkpt lat="41.211647" lon="1.417302">
        <ele>310.8</ele>
        <time>1970-01-01T01:39:35.000Z</time>
      </trkpt>
      <trkpt lat="41.211619" lon="1.417289">
        <ele>310.7</ele>
        <time>1970-01-01T01:39:37.000Z</time>
      </trkpt>
      <trkpt lat="41.211598" lon="1.417315">
        <ele>310.6</ele>
        <time>1970-01-01T01:39:47.000Z</time>
      </trkpt>
      <trkpt lat="41.211625" lon="1.417252">
        <ele>310.3</ele>
        <time>1970-01-01T01:45:22.000Z</time>
      </trkpt>
      <trkpt lat="41.211577" lon="1.417231">
        <ele>310.1</ele>
        <time>1970-01-01T01:45:24.000Z</time>
      </trkpt>
      <trkpt lat="41.211531" lon="1.417215">
        <ele>309.8</ele>
        <time>1970-01-01T01:45:26.000Z</time>
      </trkpt>
      <trkpt lat="41.211485" lon="1.417195">
        <ele>309.6</ele>
        <time>1970-01-01T01:45:28.000Z</time>
      </trkpt>
      <trkpt lat="41.211442" lon="1.417196">
        <ele>309.4</ele>
        <time>1970-01-01T01:45:30.000Z</time>
      </trkpt>
      <trkpt lat="41.211385" lon="1.417209">
        <ele>309</ele>
        <time>1970-01-01T01:45:32.000Z</time>
      </trkpt>
      <trkpt lat="41.211339" lon="1.417225">
        <ele>308.8</ele>
        <time>1970-01-01T01:45:34.000Z</time>
      </trkpt>
      <trkpt lat="41.211303" lon="1.41722">
        <ele>308.6</ele>
        <time>1970-01-01T01:45:36.000Z</time>
      </trkpt>
      <trkpt lat="41.211267" lon="1.417209">
        <ele>308.5</ele>
        <time>1970-01-01T01:45:38.000Z</time>
      </trkpt>
      <trkpt lat="41.211224" lon="1.417192">
        <ele>308.3</ele>
        <time>1970-01-01T01:45:40.000Z</time>
      </trkpt>
      <trkpt lat="41.211178" lon="1.417181">
        <ele>308.1</ele>
        <time>1970-01-01T01:45:42.000Z</time>
      </trkpt>
      <trkpt lat="41.211147" lon="1.417177">
        <ele>307.9</ele>
        <time>1970-01-01T01:45:45.000Z</time>
      </trkpt>
      <trkpt lat="41.211104" lon="1.417176">
        <ele>307.6</ele>
        <time>1970-01-01T01:45:47.000Z</time>
      </trkpt>
      <trkpt lat="41.21105" lon="1.417153">
        <ele>307.2</ele>
        <time>1970-01-01T01:45:49.000Z</time>
      </trkpt>
      <trkpt lat="41.211025" lon="1.417124">
        <ele>306.8</ele>
        <time>1970-01-01T01:45:50.000Z</time>
      </trkpt>
      <trkpt lat="41.211003" lon="1.417096">
        <ele>306.5</ele>
        <time>1970-01-01T01:45:51.000Z</time>
      </trkpt>
      <trkpt lat="41.210975" lon="1.417075">
        <ele>306.2</ele>
        <time>1970-01-01T01:45:52.000Z</time>
      </trkpt>
      <trkpt lat="41.210943" lon="1.417063">
        <ele>306</ele>
        <time>1970-01-01T01:45:53.000Z</time>
      </trkpt>
      <trkpt lat="41.210917" lon="1.417047">
        <ele>305.7</ele>
        <time>1970-01-01T01:45:54.000Z</time>
      </trkpt>
      <trkpt lat="41.210887" lon="1.417023">
        <ele>305.3</ele>
        <time>1970-01-01T01:45:56.000Z</time>
      </trkpt>
      <trkpt lat="41.21086" lon="1.417002">
        <ele>305</ele>
        <time>1970-01-01T01:45:58.000Z</time>
      </trkpt>
      <trkpt lat="41.210822" lon="1.417001">
        <ele>304.6</ele>
        <time>1970-01-01T01:46:00.000Z</time>
      </trkpt>
      <trkpt lat="41.210794" lon="1.416974">
        <ele>304.2</ele>
        <time>1970-01-01T01:46:02.000Z</time>
      </trkpt>
      <trkpt lat="41.210771" lon="1.416944">
        <ele>303.9</ele>
        <time>1970-01-01T01:46:03.000Z</time>
      </trkpt>
      <trkpt lat="41.210745" lon="1.416907">
        <ele>303.5</ele>
        <time>1970-01-01T01:46:04.000Z</time>
      </trkpt>
      <trkpt lat="41.210717" lon="1.416889">
        <ele>303.1</ele>
        <time>1970-01-01T01:46:05.000Z</time>
      </trkpt>
      <trkpt lat="41.210665" lon="1.416856">
        <ele>302.4</ele>
        <time>1970-01-01T01:46:07.000Z</time>
      </trkpt>
      <trkpt lat="41.210616" lon="1.416827">
        <ele>301.9</ele>
        <time>1970-01-01T01:46:09.000Z</time>
      </trkpt>
      <trkpt lat="41.210583" lon="1.416829">
        <ele>301.5</ele>
        <time>1970-01-01T01:46:11.000Z</time>
      </trkpt>
      <trkpt lat="41.210528" lon="1.416785">
        <ele>300.5</ele>
        <time>1970-01-01T01:46:43.000Z</time>
      </trkpt>
      <trkpt lat="41.210514" lon="1.416734">
        <ele>299.9</ele>
        <time>1970-01-01T01:46:45.000Z</time>
      </trkpt>
      <trkpt lat="41.2105" lon="1.416699">
        <ele>299.4</ele>
        <time>1970-01-01T01:46:46.000Z</time>
      </trkpt>
      <trkpt lat="41.210478" lon="1.416667">
        <ele>298.9</ele>
        <time>1970-01-01T01:46:47.000Z</time>
      </trkpt>
      <trkpt lat="41.210453" lon="1.41662">
        <ele>298.3</ele>
        <time>1970-01-01T01:46:48.000Z</time>
      </trkpt>
      <trkpt lat="41.210434" lon="1.416563">
        <ele>297.5</ele>
        <time>1970-01-01T01:46:49.000Z</time>
      </trkpt>
      <trkpt lat="41.210424" lon="1.416518">
        <ele>297</ele>
        <time>1970-01-01T01:46:50.000Z</time>
      </trkpt>
      <trkpt lat="41.210403" lon="1.416486">
        <ele>296.5</ele>
        <time>1970-01-01T01:46:52.000Z</time>
      </trkpt>
      <trkpt lat="41.210375" lon="1.416449">
        <ele>295.4</ele>
        <time>1970-01-01T01:46:54.000Z</time>
      </trkpt>
      <trkpt lat="41.21035" lon="1.416408">
        <ele>295.1</ele>
        <time>1970-01-01T01:46:55.000Z</time>
      </trkpt>
      <trkpt lat="41.210316" lon="1.416381">
        <ele>294.7</ele>
        <time>1970-01-01T01:46:56.000Z</time>
      </trkpt>
      <trkpt lat="41.210289" lon="1.416363">
        <ele>294.5</ele>
        <time>1970-01-01T01:46:57.000Z</time>
      </trkpt>
      <trkpt lat="41.210256" lon="1.416357">
        <ele>294.3</ele>
        <time>1970-01-01T01:46:59.000Z</time>
      </trkpt>
      <trkpt lat="41.210216" lon="1.416344">
        <ele>293.8</ele>
        <time>1970-01-01T01:47:01.000Z</time>
      </trkpt>
      <trkpt lat="41.210186" lon="1.416306">
        <ele>293.5</ele>
        <time>1970-01-01T01:47:03.000Z</time>
      </trkpt>
      <trkpt lat="41.210181" lon="1.416262">
        <ele>293.3</ele>
        <time>1970-01-01T01:47:04.000Z</time>
      </trkpt>
      <trkpt lat="41.210177" lon="1.416214">
        <ele>293.1</ele>
        <time>1970-01-01T01:47:05.000Z</time>
      </trkpt>
      <trkpt lat="41.210182" lon="1.416163">
        <ele>292.8</ele>
        <time>1970-01-01T01:47:06.000Z</time>
      </trkpt>
      <trkpt lat="41.210164" lon="1.416108">
        <ele>292.5</ele>
        <time>1970-01-01T01:47:08.000Z</time>
      </trkpt>
      <trkpt lat="41.210137" lon="1.416076">
        <ele>292.2</ele>
        <time>1970-01-01T01:47:10.000Z</time>
      </trkpt>
      <trkpt lat="41.210123" lon="1.416023">
        <ele>291.9</ele>
        <time>1970-01-01T01:47:12.000Z</time>
      </trkpt>
      <trkpt lat="41.210119" lon="1.415975">
        <ele>291.6</ele>
        <time>1970-01-01T01:47:14.000Z</time>
      </trkpt>
      <trkpt lat="41.21011" lon="1.415931">
        <ele>291.3</ele>
        <time>1970-01-01T01:47:17.000Z</time>
      </trkpt>
      <trkpt lat="41.210105" lon="1.415876">
        <ele>290.9</ele>
        <time>1970-01-01T01:47:19.000Z</time>
      </trkpt>
      <trkpt lat="41.210102" lon="1.415827">
        <ele>290.5</ele>
        <time>1970-01-01T01:47:21.000Z</time>
      </trkpt>
      <trkpt lat="41.210102" lon="1.415786">
        <ele>290.2</ele>
        <time>1970-01-01T01:47:23.000Z</time>
      </trkpt>
      <trkpt lat="41.210101" lon="1.415743">
        <ele>289.9</ele>
        <time>1970-01-01T01:47:25.000Z</time>
      </trkpt>
      <trkpt lat="41.210101" lon="1.415701">
        <ele>289.5</ele>
        <time>1970-01-01T01:47:27.000Z</time>
      </trkpt>
      <trkpt lat="41.21013" lon="1.415756">
        <ele>288.9</ele>
        <time>1970-01-01T01:48:52.000Z</time>
      </trkpt>
      <trkpt lat="41.210142" lon="1.415802">
        <ele>289.5</ele>
        <time>1970-01-01T01:48:53.000Z</time>
      </trkpt>
      <trkpt lat="41.210141" lon="1.415841">
        <ele>289.9</ele>
        <time>1970-01-01T01:48:54.000Z</time>
      </trkpt>
      <trkpt lat="41.210137" lon="1.415901">
        <ele>290.5</ele>
        <time>1970-01-01T01:48:56.000Z</time>
      </trkpt>
      <trkpt lat="41.210142" lon="1.415947">
        <ele>291</ele>
        <time>1970-01-01T01:48:58.000Z</time>
      </trkpt>
      <trkpt lat="41.210149" lon="1.416011">
        <ele>291.5</ele>
        <time>1970-01-01T01:49:00.000Z</time>
      </trkpt>
      <trkpt lat="41.210159" lon="1.416047">
        <ele>291.8</ele>
        <time>1970-01-01T01:49:01.000Z</time>
      </trkpt>
      <trkpt lat="41.210177" lon="1.416093">
        <ele>292.2</ele>
        <time>1970-01-01T01:49:03.000Z</time>
      </trkpt>
      <trkpt lat="41.210202" lon="1.416117">
        <ele>292.5</ele>
        <time>1970-01-01T01:49:04.000Z</time>
      </trkpt>
      <trkpt lat="41.210223" lon="1.416142">
        <ele>292.8</ele>
        <time>1970-01-01T01:49:05.000Z</time>
      </trkpt>
      <trkpt lat="41.210237" lon="1.416189">
        <ele>293.1</ele>
        <time>1970-01-01T01:49:07.000Z</time>
      </trkpt>
      <trkpt lat="41.210241" lon="1.416248">
        <ele>293.4</ele>
        <time>1970-01-01T01:49:11.000Z</time>
      </trkpt>
      <trkpt lat="41.210251" lon="1.416295">
        <ele>293.9</ele>
        <time>1970-01-01T01:49:13.000Z</time>
      </trkpt>
      <trkpt lat="41.210269" lon="1.416344">
        <ele>294.4</ele>
        <time>1970-01-01T01:49:15.000Z</time>
      </trkpt>
      <trkpt lat="41.210301" lon="1.416364">
        <ele>294.7</ele>
        <time>1970-01-01T01:49:17.000Z</time>
      </trkpt>
      <trkpt lat="41.210338" lon="1.416376">
        <ele>295.1</ele>
        <time>1970-01-01T01:49:19.000Z</time>
      </trkpt>
      <trkpt lat="41.210372" lon="1.416399">
        <ele>295.5</ele>
        <time>1970-01-01T01:49:21.000Z</time>
      </trkpt>
      <trkpt lat="41.210407" lon="1.416447">
        <ele>296.3</ele>
        <time>1970-01-01T01:49:23.000Z</time>
      </trkpt>
      <trkpt lat="41.210435" lon="1.416485">
        <ele>296.8</ele>
        <time>1970-01-01T01:49:25.000Z</time>
      </trkpt>
      <trkpt lat="41.210459" lon="1.416516">
        <ele>297.3</ele>
        <time>1970-01-01T01:49:27.000Z</time>
      </trkpt>
      <trkpt lat="41.21048" lon="1.416559">
        <ele>297.9</ele>
        <time>1970-01-01T01:49:30.000Z</time>
      </trkpt>
      <trkpt lat="41.210485" lon="1.416596">
        <ele>298.4</ele>
        <time>1970-01-01T01:49:32.000Z</time>
      </trkpt>
      <trkpt lat="41.210496" lon="1.416635">
        <ele>298.9</ele>
        <time>1970-01-01T01:49:34.000Z</time>
      </trkpt>
      <trkpt lat="41.210509" lon="1.416682">
        <ele>299.4</ele>
        <time>1970-01-01T01:49:36.000Z</time>
      </trkpt>
      <trkpt lat="41.210522" lon="1.416718">
        <ele>299.9</ele>
        <time>1970-01-01T01:49:38.000Z</time>
      </trkpt>
      <trkpt lat="41.210538" lon="1.416761">
        <ele>300.4</ele>
        <time>1970-01-01T01:49:40.000Z</time>
      </trkpt>
      <trkpt lat="41.210557" lon="1.41679">
        <ele>300.9</ele>
        <time>1970-01-01T01:49:42.000Z</time>
      </trkpt>
      <trkpt lat="41.210587" lon="1.416822">
        <ele>301.4</ele>
        <time>1970-01-01T01:49:45.000Z</time>
      </trkpt>
      <trkpt lat="41.210607" lon="1.416852">
        <ele>301.8</ele>
        <time>1970-01-01T01:49:48.000Z</time>
      </trkpt>
      <trkpt lat="41.210638" lon="1.416856">
        <ele>302.1</ele>
        <time>1970-01-01T01:49:50.000Z</time>
      </trkpt>
      <trkpt lat="41.210677" lon="1.416862">
        <ele>302.5</ele>
        <time>1970-01-01T01:49:53.000Z</time>
      </trkpt>
      <trkpt lat="41.21071" lon="1.416887">
        <ele>302.9</ele>
        <time>1970-01-01T01:49:55.000Z</time>
      </trkpt>
      <trkpt lat="41.210743" lon="1.416923">
        <ele>303.5</ele>
        <time>1970-01-01T01:49:57.000Z</time>
      </trkpt>
      <trkpt lat="41.210774" lon="1.416959">
        <ele>303.9</ele>
        <time>1970-01-01T01:50:00.000Z</time>
      </trkpt>
      <trkpt lat="41.210804" lon="1.416988">
        <ele>304.3</ele>
        <time>1970-01-01T01:50:02.000Z</time>
      </trkpt>
      <trkpt lat="41.210823" lon="1.417022">
        <ele>304.6</ele>
        <time>1970-01-01T01:50:04.000Z</time>
      </trkpt>
      <trkpt lat="41.210847" lon="1.417052">
        <ele>305</ele>
        <time>1970-01-01T01:50:06.000Z</time>
      </trkpt>
      <trkpt lat="41.210877" lon="1.417047">
        <ele>305.3</ele>
        <time>1970-01-01T01:50:08.000Z</time>
      </trkpt>
      <trkpt lat="41.210908" lon="1.417062">
        <ele>305.7</ele>
        <time>1970-01-01T01:50:10.000Z</time>
      </trkpt>
      <trkpt lat="41.210948" lon="1.417078">
        <ele>306</ele>
        <time>1970-01-01T01:50:12.000Z</time>
      </trkpt>
      <trkpt lat="41.210981" lon="1.417091">
        <ele>306.3</ele>
        <time>1970-01-01T01:50:14.000Z</time>
      </trkpt>
      <trkpt lat="41.211021" lon="1.417126">
        <ele>306.8</ele>
        <time>1970-01-01T01:50:16.000Z</time>
      </trkpt>
      <trkpt lat="41.211048" lon="1.417163">
        <ele>307.2</ele>
        <time>1970-01-01T01:50:18.000Z</time>
      </trkpt>
      <trkpt lat="41.211074" lon="1.417183">
        <ele>307.4</ele>
        <time>1970-01-01T01:50:20.000Z</time>
      </trkpt>
      <trkpt lat="41.2111" lon="1.417196">
        <ele>307.6</ele>
        <time>1970-01-01T01:50:22.000Z</time>
      </trkpt>
      <trkpt lat="41.211134" lon="1.417214">
        <ele>307.8</ele>
        <time>1970-01-01T01:50:24.000Z</time>
      </trkpt>
      <trkpt lat="41.211161" lon="1.41723">
        <ele>308</ele>
        <time>1970-01-01T01:50:27.000Z</time>
      </trkpt>
      <trkpt lat="41.21119" lon="1.417239">
        <ele>308.2</ele>
        <time>1970-01-01T01:50:31.000Z</time>
      </trkpt>
      <trkpt lat="41.211217" lon="1.417225">
        <ele>308.7</ele>
        <time>1970-01-01T01:50:38.000Z</time>
      </trkpt>
      <trkpt lat="41.211245" lon="1.417211">
        <ele>308.7</ele>
        <time>1970-01-01T01:50:40.000Z</time>
      </trkpt>
      <trkpt lat="41.211285" lon="1.417207">
        <ele>308.6</ele>
        <time>1970-01-01T01:50:42.000Z</time>
      </trkpt>
      <trkpt lat="41.21132" lon="1.417215">
        <ele>308.5</ele>
        <time>1970-01-01T01:50:44.000Z</time>
      </trkpt>
      <trkpt lat="41.211302" lon="1.417249">
        <ele>308.4</ele>
        <time>1970-01-01T01:50:57.000Z</time>
      </trkpt>
      <trkpt lat="41.211282" lon="1.417281">
        <ele>308.3</ele>
        <time>1970-01-01T01:50:59.000Z</time>
      </trkpt>
      <trkpt lat="41.211258" lon="1.417301">
        <ele>308.3</ele>
        <time>1970-01-01T01:51:01.000Z</time>
      </trkpt>
      <trkpt lat="41.211222" lon="1.417301">
        <ele>308.2</ele>
        <time>1970-01-01T01:51:04.000Z</time>
      </trkpt>
      <trkpt lat="41.211219" lon="1.417349">
        <ele>308.1</ele>
        <time>1970-01-01T01:51:06.000Z</time>
      </trkpt>
      <trkpt lat="41.211212" lon="1.417385">
        <ele>308</ele>
        <time>1970-01-01T01:51:08.000Z</time>
      </trkpt>
      <trkpt lat="41.211213" lon="1.417421">
        <ele>307.9</ele>
        <time>1970-01-01T01:51:10.000Z</time>
      </trkpt>
      <trkpt lat="41.211213" lon="1.417458">
        <ele>307.8</ele>
        <time>1970-01-01T01:51:11.000Z</time>
      </trkpt>
      <trkpt lat="41.211199" lon="1.417506">
        <ele>307.7</ele>
        <time>1970-01-01T01:51:13.000Z</time>
      </trkpt>
      <trkpt lat="41.211162" lon="1.417531">
        <ele>307.5</ele>
        <time>1970-01-01T01:51:27.000Z</time>
      </trkpt>
      <trkpt lat="41.211127" lon="1.41756">
        <ele>307.3</ele>
        <time>1970-01-01T01:51:29.000Z</time>
      </trkpt>
      <trkpt lat="41.211146" lon="1.417599">
        <ele>307.1</ele>
        <time>1970-01-01T01:52:12.000Z</time>
      </trkpt>
      <trkpt lat="41.21117" lon="1.417579">
        <ele>306.9</ele>
        <time>1970-01-01T01:52:14.000Z</time>
      </trkpt>
      <trkpt lat="41.211193" lon="1.417556">
        <ele>306.8</ele>
        <time>1970-01-01T01:52:23.000Z</time>
      </trkpt>
      <trkpt lat="41.211202" lon="1.417519">
        <ele>306.6</ele>
        <time>1970-01-01T01:52:32.000Z</time>
      </trkpt>
      <trkpt lat="41.211198" lon="1.417476">
        <ele>306.4</ele>
        <time>1970-01-01T01:52:37.000Z</time>
      </trkpt>
      <trkpt lat="41.211201" lon="1.417436">
        <ele>306.3</ele>
        <time>1970-01-01T01:52:40.000Z</time>
      </trkpt>
      <trkpt lat="41.211225" lon="1.417405">
        <ele>306.1</ele>
        <time>1970-01-01T01:52:43.000Z</time>
      </trkpt>
      <trkpt lat="41.211246" lon="1.417373">
        <ele>305.9</ele>
        <time>1970-01-01T01:52:47.000Z</time>
      </trkpt>
      <trkpt lat="41.211272" lon="1.417352">
        <ele>305.8</ele>
        <time>1970-01-01T01:52:51.000Z</time>
      </trkpt>
      <trkpt lat="41.211296" lon="1.41732">
        <ele>305.6</ele>
        <time>1970-01-01T01:52:53.000Z</time>
      </trkpt>
      <trkpt lat="41.211315" lon="1.41729">
        <ele>305.4</ele>
        <time>1970-01-01T01:52:55.000Z</time>
      </trkpt>
      <trkpt lat="41.211307" lon="1.417255">
        <ele>305.2</ele>
        <time>1970-01-01T01:52:59.000Z</time>
      </trkpt>
      <trkpt lat="41.211318" lon="1.417222">
        <ele>305.1</ele>
        <time>1970-01-01T01:53:01.000Z</time>
      </trkpt>
      <trkpt lat="41.211285" lon="1.41721">
        <ele>304.9</ele>
        <time>1970-01-01T01:53:09.000Z</time>
      </trkpt>
      <trkpt lat="41.211253" lon="1.417203">
        <ele>304.7</ele>
        <time>1970-01-01T01:53:12.000Z</time>
      </trkpt>
      <trkpt lat="41.21122" lon="1.417197">
        <ele>304.4</ele>
        <time>1970-01-01T01:53:14.000Z</time>
      </trkpt>
      <trkpt lat="41.211169" lon="1.417182">
        <ele>304.1</ele>
        <time>1970-01-01T01:53:16.000Z</time>
      </trkpt>
      <trkpt lat="41.211142" lon="1.417177">
        <ele>304</ele>
        <time>1970-01-01T01:53:17.000Z</time>
      </trkpt>
      <trkpt lat="41.211092" lon="1.417169">
        <ele>303.7</ele>
        <time>1970-01-01T01:53:19.000Z</time>
      </trkpt>
      <trkpt lat="41.211043" lon="1.417141">
        <ele>303.3</ele>
        <time>1970-01-01T01:53:21.000Z</time>
      </trkpt>
      <trkpt lat="41.211025" lon="1.417106">
        <ele>303.1</ele>
        <time>1970-01-01T01:53:22.000Z</time>
      </trkpt>
      <trkpt lat="41.210978" lon="1.417068">
        <ele>302.7</ele>
        <time>1970-01-01T01:53:24.000Z</time>
      </trkpt>
      <trkpt lat="41.210947" lon="1.417045">
        <ele>302.5</ele>
        <time>1970-01-01T01:53:25.000Z</time>
      </trkpt>
      <trkpt lat="41.210916" lon="1.41703">
        <ele>302.3</ele>
        <time>1970-01-01T01:53:26.000Z</time>
      </trkpt>
      <trkpt lat="41.21088" lon="1.417028">
        <ele>302.1</ele>
        <time>1970-01-01T01:53:27.000Z</time>
      </trkpt>
      <trkpt lat="41.210835" lon="1.417002">
        <ele>301.8</ele>
        <time>1970-01-01T01:53:29.000Z</time>
      </trkpt>
      <trkpt lat="41.210808" lon="1.416988">
        <ele>301.6</ele>
        <time>1970-01-01T01:53:30.000Z</time>
      </trkpt>
      <trkpt lat="41.210766" lon="1.416949">
        <ele>301.2</ele>
        <time>1970-01-01T01:53:32.000Z</time>
      </trkpt>
      <trkpt lat="41.210724" lon="1.416902">
        <ele>300.7</ele>
        <time>1970-01-01T01:53:34.000Z</time>
      </trkpt>
      <trkpt lat="41.210669" lon="1.416858">
        <ele>300.1</ele>
        <time>1970-01-01T01:53:36.000Z</time>
      </trkpt>
      <trkpt lat="41.210641" lon="1.416837">
        <ele>299.8</ele>
        <time>1970-01-01T01:53:37.000Z</time>
      </trkpt>
      <trkpt lat="41.2106" lon="1.416812">
        <ele>299.4</ele>
        <time>1970-01-01T01:53:39.000Z</time>
      </trkpt>
      <trkpt lat="41.210566" lon="1.416794">
        <ele>299.1</ele>
        <time>1970-01-01T01:53:42.000Z</time>
      </trkpt>
      <trkpt lat="41.210546" lon="1.416767">
        <ele>298.9</ele>
        <time>1970-01-01T01:53:44.000Z</time>
      </trkpt>
      <trkpt lat="41.21053" lon="1.4167">
        <ele>298.4</ele>
        <time>1970-01-01T01:53:46.000Z</time>
      </trkpt>
      <trkpt lat="41.210509" lon="1.416653">
        <ele>298</ele>
        <time>1970-01-01T01:53:47.000Z</time>
      </trkpt>
      <trkpt lat="41.210486" lon="1.416599">
        <ele>297.6</ele>
        <time>1970-01-01T01:53:48.000Z</time>
      </trkpt>
      <trkpt lat="41.21047" lon="1.416552">
        <ele>297.3</ele>
        <time>1970-01-01T01:53:49.000Z</time>
      </trkpt>
      <trkpt lat="41.210453" lon="1.41651">
        <ele>296.9</ele>
        <time>1970-01-01T01:53:50.000Z</time>
      </trkpt>
      <trkpt lat="41.210439" lon="1.416465">
        <ele>296.6</ele>
        <time>1970-01-01T01:53:51.000Z</time>
      </trkpt>
      <trkpt lat="41.2104" lon="1.416427">
        <ele>295.4</ele>
        <time>1970-01-01T01:53:53.000Z</time>
      </trkpt>
      <trkpt lat="41.210366" lon="1.416372">
        <ele>294.9</ele>
        <time>1970-01-01T01:53:55.000Z</time>
      </trkpt>
      <trkpt lat="41.210344" lon="1.416345">
        <ele>294.6</ele>
        <time>1970-01-01T01:53:56.000Z</time>
      </trkpt>
      <trkpt lat="41.210321" lon="1.416322">
        <ele>294.4</ele>
        <time>1970-01-01T01:53:57.000Z</time>
      </trkpt>
      <trkpt lat="41.210272" lon="1.416297">
        <ele>293.9</ele>
        <time>1970-01-01T01:53:59.000Z</time>
      </trkpt>
      <trkpt lat="41.210239" lon="1.416282">
        <ele>293.5</ele>
        <time>1970-01-01T01:54:01.000Z</time>
      </trkpt>
      <trkpt lat="41.210231" lon="1.416212">
        <ele>293.2</ele>
        <time>1970-01-01T01:54:03.000Z</time>
      </trkpt>
      <trkpt lat="41.210229" lon="1.416145">
        <ele>292.8</ele>
        <time>1970-01-01T01:54:05.000Z</time>
      </trkpt>
      <trkpt lat="41.21022" lon="1.416084">
        <ele>292.4</ele>
        <time>1970-01-01T01:54:07.000Z</time>
      </trkpt>
      <trkpt lat="41.21019" lon="1.416034">
        <ele>292</ele>
        <time>1970-01-01T01:54:09.000Z</time>
      </trkpt>
      <trkpt lat="41.210163" lon="1.415982">
        <ele>291.6</ele>
        <time>1970-01-01T01:54:11.000Z</time>
      </trkpt>
      <trkpt lat="41.21015" lon="1.415931">
        <ele>291.2</ele>
        <time>1970-01-01T01:54:13.000Z</time>
      </trkpt>
      <trkpt lat="41.210142" lon="1.415868">
        <ele>290.7</ele>
        <time>1970-01-01T01:54:15.000Z</time>
      </trkpt>
      <trkpt lat="41.210133" lon="1.415819">
        <ele>290.2</ele>
        <time>1970-01-01T01:54:17.000Z</time>
      </trkpt>
      <trkpt lat="41.210131" lon="1.415766">
        <ele>289.8</ele>
        <time>1970-01-01T01:54:19.000Z</time>
      </trkpt>
      <trkpt lat="41.210128" lon="1.41571">
        <ele>289.2</ele>
        <time>1970-01-01T01:54:21.000Z</time>
      </trkpt>
      <trkpt lat="41.210134" lon="1.415675">
        <ele>288.9</ele>
        <time>1970-01-01T01:54:23.000Z</time>
      </trkpt>
      <trkpt lat="41.21014" lon="1.415633">
        <ele>288.4</ele>
        <time>1970-01-01T01:54:25.000Z</time>
      </trkpt>
      <trkpt lat="41.210158" lon="1.415595">
        <ele>288.2</ele>
        <time>1970-01-01T01:54:27.000Z</time>
      </trkpt>
      <trkpt lat="41.210173" lon="1.41556">
        <ele>287.9</ele>
        <time>1970-01-01T01:54:29.000Z</time>
      </trkpt>
      <trkpt lat="41.210144" lon="1.415566">
        <ele>287.7</ele>
        <time>1970-01-01T01:54:32.000Z</time>
      </trkpt>
      <trkpt lat="41.210116" lon="1.415564">
        <ele>287.3</ele>
        <time>1970-01-01T01:54:42.000Z</time>
      </trkpt>
      <trkpt lat="41.210116" lon="1.415514">
        <ele>286.9</ele>
        <time>1970-01-01T01:54:50.000Z</time>
      </trkpt>
      <trkpt lat="41.210108" lon="1.415469">
        <ele>286.4</ele>
        <time>1970-01-01T01:54:56.000Z</time>
      </trkpt>
      <trkpt lat="41.210117" lon="1.415433">
        <ele>286.1</ele>
        <time>1970-01-01T01:55:00.000Z</time>
      </trkpt>
      <trkpt lat="41.210143" lon="1.415403">
        <ele>285.8</ele>
        <time>1970-01-01T01:55:24.000Z</time>
      </trkpt>
      <trkpt lat="41.210152" lon="1.415368">
        <ele>285.5</ele>
        <time>1970-01-01T01:55:25.000Z</time>
      </trkpt>
      <trkpt lat="41.21016" lon="1.41529">
        <ele>285</ele>
        <time>1970-01-01T01:55:27.000Z</time>
      </trkpt>
      <trkpt lat="41.210171" lon="1.415242">
        <ele>284.7</ele>
        <time>1970-01-01T01:55:29.000Z</time>
      </trkpt>
      <trkpt lat="41.210173" lon="1.415166">
        <ele>284.6</ele>
        <time>1970-01-01T01:55:31.000Z</time>
      </trkpt>
      <trkpt lat="41.210176" lon="1.415101">
        <ele>284.3</ele>
        <time>1970-01-01T01:55:32.000Z</time>
      </trkpt>
      <trkpt lat="41.210175" lon="1.415044">
        <ele>283.9</ele>
        <time>1970-01-01T01:55:33.000Z</time>
      </trkpt>
      <trkpt lat="41.210167" lon="1.414997">
        <ele>283.6</ele>
        <time>1970-01-01T01:55:34.000Z</time>
      </trkpt>
      <trkpt lat="41.210147" lon="1.414963">
        <ele>283.4</ele>
        <time>1970-01-01T01:55:36.000Z</time>
      </trkpt>
      <trkpt lat="41.210131" lon="1.414995">
        <ele>283.2</ele>
        <time>1970-01-01T01:55:39.000Z</time>
      </trkpt>
      <trkpt lat="41.210103" lon="1.415016">
        <ele>282.9</ele>
        <time>1970-01-01T01:55:43.000Z</time>
      </trkpt>
      <trkpt lat="41.21008" lon="1.414994">
        <ele>278.1</ele>
        <time>1970-01-01T01:55:44.000Z</time>
      </trkpt>
      <trkpt lat="41.210046" lon="1.414979">
        <ele>278.1</ele>
        <time>1970-01-01T01:55:45.000Z</time>
      </trkpt>
      <trkpt lat="41.210004" lon="1.414971">
        <ele>278</ele>
        <time>1970-01-01T01:55:46.000Z</time>
      </trkpt>
      <trkpt lat="41.209955" lon="1.414966">
        <ele>278</ele>
        <time>1970-01-01T01:55:47.000Z</time>
      </trkpt>
      <trkpt lat="41.209902" lon="1.414963">
        <ele>277.8</ele>
        <time>1970-01-01T01:55:48.000Z</time>
      </trkpt>
      <trkpt lat="41.209846" lon="1.414966">
        <ele>277.5</ele>
        <time>1970-01-01T01:55:49.000Z</time>
      </trkpt>
      <trkpt lat="41.209789" lon="1.414937">
        <ele>277.2</ele>
        <time>1970-01-01T01:55:50.000Z</time>
      </trkpt>
      <trkpt lat="41.209729" lon="1.414888">
        <ele>276.4</ele>
        <time>1970-01-01T01:55:51.000Z</time>
      </trkpt>
      <trkpt lat="41.209671" lon="1.414843">
        <ele>275.4</ele>
        <time>1970-01-01T01:55:52.000Z</time>
      </trkpt>
      <trkpt lat="41.20961" lon="1.414811">
        <ele>274.3</ele>
        <time>1970-01-01T01:55:53.000Z</time>
      </trkpt>
      <trkpt lat="41.209552" lon="1.414773">
        <ele>273.3</ele>
        <time>1970-01-01T01:55:54.000Z</time>
      </trkpt>
      <trkpt lat="41.209496" lon="1.414732">
        <ele>272.2</ele>
        <time>1970-01-01T01:55:55.000Z</time>
      </trkpt>
      <trkpt lat="41.209438" lon="1.414692">
        <ele>271</ele>
        <time>1970-01-01T01:55:56.000Z</time>
      </trkpt>
      <trkpt lat="41.209376" lon="1.414648">
        <ele>269.7</ele>
        <time>1970-01-01T01:55:57.000Z</time>
      </trkpt>
      <trkpt lat="41.209316" lon="1.41461">
        <ele>268.5</ele>
        <time>1970-01-01T01:55:58.000Z</time>
      </trkpt>
      <trkpt lat="41.209259" lon="1.414577">
        <ele>267.5</ele>
        <time>1970-01-01T01:55:59.000Z</time>
      </trkpt>
      <trkpt lat="41.209206" lon="1.414548">
        <ele>266.6</ele>
        <time>1970-01-01T01:56:00.000Z</time>
      </trkpt>
      <trkpt lat="41.209165" lon="1.414525">
        <ele>265.5</ele>
        <time>1970-01-01T01:56:01.000Z</time>
      </trkpt>
      <trkpt lat="41.209137" lon="1.414495">
        <ele>264.9</ele>
        <time>1970-01-01T01:56:02.000Z</time>
      </trkpt>
      <trkpt lat="41.209119" lon="1.414465">
        <ele>264.3</ele>
        <time>1970-01-01T01:56:03.000Z</time>
      </trkpt>
      <trkpt lat="41.209112" lon="1.414416">
        <ele>263.6</ele>
        <time>1970-01-01T01:56:05.000Z</time>
      </trkpt>
      <trkpt lat="41.209101" lon="1.414382">
        <ele>263.1</ele>
        <time>1970-01-01T01:56:06.000Z</time>
      </trkpt>
      <trkpt lat="41.209091" lon="1.414345">
        <ele>262.6</ele>
        <time>1970-01-01T01:56:07.000Z</time>
      </trkpt>
      <trkpt lat="41.209088" lon="1.414309">
        <ele>262.1</ele>
        <time>1970-01-01T01:56:08.000Z</time>
      </trkpt>
      <trkpt lat="41.20907" lon="1.414253">
        <ele>261.3</ele>
        <time>1970-01-01T01:56:10.000Z</time>
      </trkpt>
      <trkpt lat="41.209031" lon="1.414217">
        <ele>260.6</ele>
        <time>1970-01-01T01:56:12.000Z</time>
      </trkpt>
      <trkpt lat="41.208996" lon="1.41422">
        <ele>260</ele>
        <time>1970-01-01T01:56:13.000Z</time>
      </trkpt>
      <trkpt lat="41.208961" lon="1.414209">
        <ele>259.5</ele>
        <time>1970-01-01T01:56:14.000Z</time>
      </trkpt>
      <trkpt lat="41.208906" lon="1.414185">
        <ele>258.6</ele>
        <time>1970-01-01T01:56:15.000Z</time>
      </trkpt>
      <trkpt lat="41.208858" lon="1.414161">
        <ele>257.8</ele>
        <time>1970-01-01T01:56:16.000Z</time>
      </trkpt>
      <trkpt lat="41.208811" lon="1.414147">
        <ele>257</ele>
        <time>1970-01-01T01:56:17.000Z</time>
      </trkpt>
      <trkpt lat="41.208776" lon="1.41414">
        <ele>256.4</ele>
        <time>1970-01-01T01:56:18.000Z</time>
      </trkpt>
      <trkpt lat="41.208744" lon="1.414168">
        <ele>255.7</ele>
        <time>1970-01-01T01:56:19.000Z</time>
      </trkpt>
      <trkpt lat="41.208706" lon="1.414186">
        <ele>255</ele>
        <time>1970-01-01T01:56:20.000Z</time>
      </trkpt>
      <trkpt lat="41.208667" lon="1.41421">
        <ele>254.3</ele>
        <time>1970-01-01T01:56:21.000Z</time>
      </trkpt>
      <trkpt lat="41.208624" lon="1.414229">
        <ele>253.7</ele>
        <time>1970-01-01T01:56:22.000Z</time>
      </trkpt>
      <trkpt lat="41.208582" lon="1.414267">
        <ele>253.2</ele>
        <time>1970-01-01T01:56:23.000Z</time>
      </trkpt>
      <trkpt lat="41.208538" lon="1.414291">
        <ele>252.9</ele>
        <time>1970-01-01T01:56:24.000Z</time>
      </trkpt>
      <trkpt lat="41.208499" lon="1.414329">
        <ele>252.6</ele>
        <time>1970-01-01T01:56:25.000Z</time>
      </trkpt>
      <trkpt lat="41.208464" lon="1.414358">
        <ele>252.3</ele>
        <time>1970-01-01T01:56:26.000Z</time>
      </trkpt>
      <trkpt lat="41.208429" lon="1.41437">
        <ele>252.1</ele>
        <time>1970-01-01T01:56:27.000Z</time>
      </trkpt>
      <trkpt lat="41.208399" lon="1.414361">
        <ele>251.9</ele>
        <time>1970-01-01T01:56:28.000Z</time>
      </trkpt>
      <trkpt lat="41.208366" lon="1.414357">
        <ele>251.7</ele>
        <time>1970-01-01T01:56:29.000Z</time>
      </trkpt>
      <trkpt lat="41.208329" lon="1.414361">
        <ele>251.5</ele>
        <time>1970-01-01T01:56:30.000Z</time>
      </trkpt>
      <trkpt lat="41.208282" lon="1.414375">
        <ele>251.2</ele>
        <time>1970-01-01T01:56:31.000Z</time>
      </trkpt>
      <trkpt lat="41.208238" lon="1.414387">
        <ele>250.9</ele>
        <time>1970-01-01T01:56:32.000Z</time>
      </trkpt>
      <trkpt lat="41.208187" lon="1.41439">
        <ele>250.6</ele>
        <time>1970-01-01T01:56:33.000Z</time>
      </trkpt>
      <trkpt lat="41.20813" lon="1.41441">
        <ele>250.3</ele>
        <time>1970-01-01T01:56:34.000Z</time>
      </trkpt>
      <trkpt lat="41.208076" lon="1.41442">
        <ele>250.1</ele>
        <time>1970-01-01T01:56:35.000Z</time>
      </trkpt>
      <trkpt lat="41.208022" lon="1.414434">
        <ele>249.9</ele>
        <time>1970-01-01T01:56:36.000Z</time>
      </trkpt>
      <trkpt lat="41.207972" lon="1.414451">
        <ele>249.7</ele>
        <time>1970-01-01T01:56:37.000Z</time>
      </trkpt>
      <trkpt lat="41.207929" lon="1.414463">
        <ele>249.5</ele>
        <time>1970-01-01T01:56:38.000Z</time>
      </trkpt>
      <trkpt lat="41.207897" lon="1.414487">
        <ele>249.4</ele>
        <time>1970-01-01T01:56:39.000Z</time>
      </trkpt>
      <trkpt lat="41.207853" lon="1.414518">
        <ele>249.3</ele>
        <time>1970-01-01T01:56:40.000Z</time>
      </trkpt>
      <trkpt lat="41.207818" lon="1.414555">
        <ele>249.3</ele>
        <time>1970-01-01T01:56:41.000Z</time>
      </trkpt>
      <trkpt lat="41.207778" lon="1.414579">
        <ele>249.3</ele>
        <time>1970-01-01T01:56:42.000Z</time>
      </trkpt>
      <trkpt lat="41.207737" lon="1.414591">
        <ele>249.3</ele>
        <time>1970-01-01T01:56:43.000Z</time>
      </trkpt>
      <trkpt lat="41.20769" lon="1.4146">
        <ele>249.4</ele>
        <time>1970-01-01T01:56:44.000Z</time>
      </trkpt>
      <trkpt lat="41.20764" lon="1.414632">
        <ele>249.5</ele>
        <time>1970-01-01T01:56:45.000Z</time>
      </trkpt>
      <trkpt lat="41.207589" lon="1.414655">
        <ele>249.7</ele>
        <time>1970-01-01T01:56:46.000Z</time>
      </trkpt>
      <trkpt lat="41.207534" lon="1.414655">
        <ele>249.9</ele>
        <time>1970-01-01T01:56:47.000Z</time>
      </trkpt>
      <trkpt lat="41.207478" lon="1.41465">
        <ele>250.2</ele>
        <time>1970-01-01T01:56:48.000Z</time>
      </trkpt>
      <trkpt lat="41.20745" lon="1.414661">
        <ele>250.3</ele>
        <time>1970-01-01T01:56:49.000Z</time>
      </trkpt>
      <trkpt lat="41.207423" lon="1.414666">
        <ele>250.5</ele>
        <time>1970-01-01T01:56:50.000Z</time>
      </trkpt>
      <trkpt lat="41.207398" lon="1.414696">
        <ele>250.8</ele>
        <time>1970-01-01T01:56:51.000Z</time>
      </trkpt>
      <trkpt lat="41.20736" lon="1.414736">
        <ele>251.1</ele>
        <time>1970-01-01T01:56:53.000Z</time>
      </trkpt>
      <trkpt lat="41.207342" lon="1.414763">
        <ele>251.3</ele>
        <time>1970-01-01T01:56:54.000Z</time>
      </trkpt>
      <trkpt lat="41.207317" lon="1.41478">
        <ele>251.5</ele>
        <time>1970-01-01T01:56:55.000Z</time>
      </trkpt>
      <trkpt lat="41.207298" lon="1.414808">
        <ele>251.8</ele>
        <time>1970-01-01T01:56:56.000Z</time>
      </trkpt>
      <trkpt lat="41.207269" lon="1.414815">
        <ele>252</ele>
        <time>1970-01-01T01:56:57.000Z</time>
      </trkpt>
      <trkpt lat="41.207243" lon="1.414823">
        <ele>252.3</ele>
        <time>1970-01-01T01:56:58.000Z</time>
      </trkpt>
      <trkpt lat="41.207212" lon="1.414826">
        <ele>252.6</ele>
        <time>1970-01-01T01:56:59.000Z</time>
      </trkpt>
      <trkpt lat="41.207151" lon="1.414826">
        <ele>253.3</ele>
        <time>1970-01-01T01:57:01.000Z</time>
      </trkpt>
      <trkpt lat="41.207114" lon="1.414833">
        <ele>253.7</ele>
        <time>1970-01-01T01:57:02.000Z</time>
      </trkpt>
      <trkpt lat="41.207085" lon="1.414846">
        <ele>254.2</ele>
        <time>1970-01-01T01:57:03.000Z</time>
      </trkpt>
      <trkpt lat="41.207059" lon="1.414862">
        <ele>254.5</ele>
        <time>1970-01-01T01:57:04.000Z</time>
      </trkpt>
      <trkpt lat="41.207031" lon="1.414876">
        <ele>254.9</ele>
        <time>1970-01-01T01:57:05.000Z</time>
      </trkpt>
      <trkpt lat="41.206987" lon="1.414879">
        <ele>255.4</ele>
        <time>1970-01-01T01:57:07.000Z</time>
      </trkpt>
      <trkpt lat="41.20694" lon="1.414878">
        <ele>256</ele>
        <time>1970-01-01T01:57:09.000Z</time>
      </trkpt>
      <trkpt lat="41.206898" lon="1.414903">
        <ele>256.6</ele>
        <time>1970-01-01T01:57:11.000Z</time>
      </trkpt>
      <trkpt lat="41.206866" lon="1.414914">
        <ele>257.1</ele>
        <time>1970-01-01T01:57:13.000Z</time>
      </trkpt>
      <trkpt lat="41.206823" lon="1.414918">
        <ele>257.8</ele>
        <time>1970-01-01T01:57:15.000Z</time>
      </trkpt>
      <trkpt lat="41.20678" lon="1.414935">
        <ele>258.5</ele>
        <time>1970-01-01T01:57:17.000Z</time>
      </trkpt>
      <trkpt lat="41.206746" lon="1.414959">
        <ele>258.9</ele>
        <time>1970-01-01T01:57:19.000Z</time>
      </trkpt>
      <trkpt lat="41.206717" lon="1.414967">
        <ele>259.2</ele>
        <time>1970-01-01T01:57:21.000Z</time>
      </trkpt>
      <trkpt lat="41.206678" lon="1.414962">
        <ele>259.5</ele>
        <time>1970-01-01T01:57:23.000Z</time>
      </trkpt>
      <trkpt lat="41.206641" lon="1.414962">
        <ele>259.9</ele>
        <time>1970-01-01T01:57:25.000Z</time>
      </trkpt>
      <trkpt lat="41.206613" lon="1.414983">
        <ele>260.2</ele>
        <time>1970-01-01T01:57:27.000Z</time>
      </trkpt>
      <trkpt lat="41.206567" lon="1.415017">
        <ele>260.6</ele>
        <time>1970-01-01T01:57:29.000Z</time>
      </trkpt>
      <trkpt lat="41.206543" lon="1.415036">
        <ele>260.7</ele>
        <time>1970-01-01T01:57:30.000Z</time>
      </trkpt>
      <trkpt lat="41.206513" lon="1.415047">
        <ele>260.8</ele>
        <time>1970-01-01T01:57:32.000Z</time>
      </trkpt>
      <trkpt lat="41.206482" lon="1.415053">
        <ele>260.8</ele>
        <time>1970-01-01T01:57:34.000Z</time>
      </trkpt>
      <trkpt lat="41.206446" lon="1.41504">
        <ele>260.9</ele>
        <time>1970-01-01T01:57:39.000Z</time>
      </trkpt>
      <trkpt lat="41.206409" lon="1.415066">
        <ele>260.9</ele>
        <time>1970-01-01T01:57:41.000Z</time>
      </trkpt>
      <trkpt lat="41.206381" lon="1.415094">
        <ele>260.7</ele>
        <time>1970-01-01T01:57:44.000Z</time>
      </trkpt>
      <trkpt lat="41.206341" lon="1.415122">
        <ele>260.6</ele>
        <time>1970-01-01T01:57:47.000Z</time>
      </trkpt>
      <trkpt lat="41.20631" lon="1.415148">
        <ele>260.5</ele>
        <time>1970-01-01T01:57:49.000Z</time>
      </trkpt>
      <trkpt lat="41.206283" lon="1.415178">
        <ele>260.3</ele>
        <time>1970-01-01T01:57:51.000Z</time>
      </trkpt>
      <trkpt lat="41.206254" lon="1.41522">
        <ele>259.9</ele>
        <time>1970-01-01T01:57:53.000Z</time>
      </trkpt>
      <trkpt lat="41.206209" lon="1.415226">
        <ele>259.6</ele>
        <time>1970-01-01T01:57:54.000Z</time>
      </trkpt>
      <trkpt lat="41.206152" lon="1.415239">
        <ele>258.9</ele>
        <time>1970-01-01T01:57:56.000Z</time>
      </trkpt>
      <trkpt lat="41.206114" lon="1.415248">
        <ele>258.3</ele>
        <time>1970-01-01T01:57:57.000Z</time>
      </trkpt>
      <trkpt lat="41.206074" lon="1.415253">
        <ele>257.9</ele>
        <time>1970-01-01T01:57:58.000Z</time>
      </trkpt>
      <trkpt lat="41.206023" lon="1.415254">
        <ele>257.4</ele>
        <time>1970-01-01T01:57:59.000Z</time>
      </trkpt>
      <trkpt lat="41.205983" lon="1.415255">
        <ele>257.2</ele>
        <time>1970-01-01T01:58:00.000Z</time>
      </trkpt>
      <trkpt lat="41.205952" lon="1.415262">
        <ele>257</ele>
        <time>1970-01-01T01:58:01.000Z</time>
      </trkpt>
      <trkpt lat="41.205919" lon="1.415279">
        <ele>256.8</ele>
        <time>1970-01-01T01:58:02.000Z</time>
      </trkpt>
      <trkpt lat="41.205875" lon="1.415299">
        <ele>256.6</ele>
        <time>1970-01-01T01:58:03.000Z</time>
      </trkpt>
      <trkpt lat="41.205834" lon="1.415325">
        <ele>256.4</ele>
        <time>1970-01-01T01:58:05.000Z</time>
      </trkpt>
      <trkpt lat="41.205795" lon="1.415338">
        <ele>256.3</ele>
        <time>1970-01-01T01:58:07.000Z</time>
      </trkpt>
      <trkpt lat="41.205773" lon="1.41536">
        <ele>256.2</ele>
        <time>1970-01-01T01:58:09.000Z</time>
      </trkpt>
      <trkpt lat="41.20574" lon="1.415397">
        <ele>256</ele>
        <time>1970-01-01T01:58:15.000Z</time>
      </trkpt>
      <trkpt lat="41.205682" lon="1.415429">
        <ele>255.8</ele>
        <time>1970-01-01T01:58:17.000Z</time>
      </trkpt>
      <trkpt lat="41.205659" lon="1.415458">
        <ele>255.7</ele>
        <time>1970-01-01T01:58:18.000Z</time>
      </trkpt>
      <trkpt lat="41.205637" lon="1.415483">
        <ele>255.6</ele>
        <time>1970-01-01T01:58:19.000Z</time>
      </trkpt>
      <trkpt lat="41.205605" lon="1.415517">
        <ele>255.5</ele>
        <time>1970-01-01T01:58:20.000Z</time>
      </trkpt>
      <trkpt lat="41.205583" lon="1.415559">
        <ele>255.4</ele>
        <time>1970-01-01T01:58:21.000Z</time>
      </trkpt>
      <trkpt lat="41.205555" lon="1.415596">
        <ele>255.2</ele>
        <time>1970-01-01T01:58:22.000Z</time>
      </trkpt>
      <trkpt lat="41.20553" lon="1.415616">
        <ele>255.2</ele>
        <time>1970-01-01T01:58:23.000Z</time>
      </trkpt>
      <trkpt lat="41.205495" lon="1.415647">
        <ele>255.1</ele>
        <time>1970-01-01T01:58:25.000Z</time>
      </trkpt>
      <trkpt lat="41.205463" lon="1.415684">
        <ele>255</ele>
        <time>1970-01-01T01:58:27.000Z</time>
      </trkpt>
      <trkpt lat="41.205437" lon="1.415697">
        <ele>254.8</ele>
        <time>1970-01-01T01:58:28.000Z</time>
      </trkpt>
      <trkpt lat="41.205393" lon="1.415723">
        <ele>254.6</ele>
        <time>1970-01-01T01:58:30.000Z</time>
      </trkpt>
      <trkpt lat="41.205379" lon="1.415763">
        <ele>254.4</ele>
        <time>1970-01-01T01:58:32.000Z</time>
      </trkpt>
      <trkpt lat="41.205363" lon="1.415814">
        <ele>254.2</ele>
        <time>1970-01-01T01:58:34.000Z</time>
      </trkpt>
      <trkpt lat="41.205348" lon="1.415855">
        <ele>253.9</ele>
        <time>1970-01-01T01:58:36.000Z</time>
      </trkpt>
      <trkpt lat="41.205335" lon="1.415926">
        <ele>253.4</ele>
        <time>1970-01-01T01:58:41.000Z</time>
      </trkpt>
      <trkpt lat="41.20532" lon="1.415965">
        <ele>253</ele>
        <time>1970-01-01T01:58:43.000Z</time>
      </trkpt>
      <trkpt lat="41.205305" lon="1.415998">
        <ele>252.7</ele>
        <time>1970-01-01T01:58:44.000Z</time>
      </trkpt>
      <trkpt lat="41.205279" lon="1.416029">
        <ele>252.3</ele>
        <time>1970-01-01T01:58:46.000Z</time>
      </trkpt>
      <trkpt lat="41.205264" lon="1.416076">
        <ele>251.7</ele>
        <time>1970-01-01T01:58:48.000Z</time>
      </trkpt>
      <trkpt lat="41.205256" lon="1.416126">
        <ele>251.1</ele>
        <time>1970-01-01T01:58:50.000Z</time>
      </trkpt>
      <trkpt lat="41.205254" lon="1.416164">
        <ele>250.5</ele>
        <time>1970-01-01T01:58:52.000Z</time>
      </trkpt>
      <trkpt lat="41.205238" lon="1.416207">
        <ele>249.8</ele>
        <time>1970-01-01T01:58:54.000Z</time>
      </trkpt>
      <trkpt lat="41.205214" lon="1.416223">
        <ele>249.2</ele>
        <time>1970-01-01T01:58:55.000Z</time>
      </trkpt>
      <trkpt lat="41.20518" lon="1.416258">
        <ele>248.2</ele>
        <time>1970-01-01T01:58:57.000Z</time>
      </trkpt>
      <trkpt lat="41.205154" lon="1.416278">
        <ele>247.5</ele>
        <time>1970-01-01T01:59:00.000Z</time>
      </trkpt>
      <trkpt lat="41.205119" lon="1.416288">
        <ele>246.5</ele>
        <time>1970-01-01T01:59:02.000Z</time>
      </trkpt>
      <trkpt lat="41.205072" lon="1.416277">
        <ele>245.3</ele>
        <time>1970-01-01T01:59:06.000Z</time>
      </trkpt>
      <trkpt lat="41.205038" lon="1.416276">
        <ele>244.3</ele>
        <time>1970-01-01T01:59:08.000Z</time>
      </trkpt>
      <trkpt lat="41.204998" lon="1.416315">
        <ele>243.2</ele>
        <time>1970-01-01T01:59:10.000Z</time>
      </trkpt>
      <trkpt lat="41.204977" lon="1.416367">
        <ele>242.2</ele>
        <time>1970-01-01T01:59:12.000Z</time>
      </trkpt>
      <trkpt lat="41.20496" lon="1.416399">
        <ele>241.5</ele>
        <time>1970-01-01T01:59:14.000Z</time>
      </trkpt>
      <trkpt lat="41.204931" lon="1.416439">
        <ele>240.4</ele>
        <time>1970-01-01T01:59:16.000Z</time>
      </trkpt>
      <trkpt lat="41.204915" lon="1.416476">
        <ele>239.5</ele>
        <time>1970-01-01T01:59:18.000Z</time>
      </trkpt>
      <trkpt lat="41.204897" lon="1.416515">
        <ele>238.6</ele>
        <time>1970-01-01T01:59:20.000Z</time>
      </trkpt>
      <trkpt lat="41.204869" lon="1.41653">
        <ele>237.7</ele>
        <time>1970-01-01T01:59:22.000Z</time>
      </trkpt>
      <trkpt lat="41.204833" lon="1.416558">
        <ele>236.6</ele>
        <time>1970-01-01T01:59:24.000Z</time>
      </trkpt>
      <trkpt lat="41.204805" lon="1.416563">
        <ele>235.8</ele>
        <time>1970-01-01T01:59:25.000Z</time>
      </trkpt>
      <trkpt lat="41.204775" lon="1.416587">
        <ele>234.9</ele>
        <time>1970-01-01T01:59:27.000Z</time>
      </trkpt>
      <trkpt lat="41.204747" lon="1.416612">
        <ele>234</ele>
        <time>1970-01-01T01:59:29.000Z</time>
      </trkpt>
      <trkpt lat="41.204706" lon="1.416659">
        <ele>232.6</ele>
        <time>1970-01-01T01:59:31.000Z</time>
      </trkpt>
      <trkpt lat="41.204672" lon="1.416689">
        <ele>231.5</ele>
        <time>1970-01-01T01:59:33.000Z</time>
      </trkpt>
      <trkpt lat="41.204638" lon="1.416724">
        <ele>230.5</ele>
        <time>1970-01-01T01:59:35.000Z</time>
      </trkpt>
      <trkpt lat="41.204623" lon="1.416762">
        <ele>229.8</ele>
        <time>1970-01-01T01:59:37.000Z</time>
      </trkpt>
      <trkpt lat="41.20459" lon="1.416801">
        <ele>228.8</ele>
        <time>1970-01-01T01:59:40.000Z</time>
      </trkpt>
      <trkpt lat="41.204565" lon="1.416833">
        <ele>227.9</ele>
        <time>1970-01-01T01:59:42.000Z</time>
      </trkpt>
      <trkpt lat="41.20454" lon="1.416857">
        <ele>227.2</ele>
        <time>1970-01-01T01:59:44.000Z</time>
      </trkpt>
      <trkpt lat="41.204522" lon="1.416894">
        <ele>226.4</ele>
        <time>1970-01-01T01:59:46.000Z</time>
      </trkpt>
      <trkpt lat="41.204503" lon="1.416933">
        <ele>225.4</ele>
        <time>1970-01-01T01:59:48.000Z</time>
      </trkpt>
      <trkpt lat="41.204476" lon="1.416971">
        <ele>224.3</ele>
        <time>1970-01-01T01:59:50.000Z</time>
      </trkpt>
      <trkpt lat="41.204441" lon="1.417007">
        <ele>222.8</ele>
        <time>1970-01-01T01:59:52.000Z</time>
      </trkpt>
      <trkpt lat="41.204426" lon="1.417041">
        <ele>221.9</ele>
        <time>1970-01-01T01:59:54.000Z</time>
      </trkpt>
      <trkpt lat="41.204408" lon="1.417071">
        <ele>221.1</ele>
        <time>1970-01-01T01:59:56.000Z</time>
      </trkpt>
      <trkpt lat="41.204387" lon="1.41712">
        <ele>219.9</ele>
        <time>1970-01-01T01:59:58.000Z</time>
      </trkpt>
      <trkpt lat="41.204368" lon="1.417174">
        <ele>218.6</ele>
        <time>1970-01-01T02:00:00.000Z</time>
      </trkpt>
      <trkpt lat="41.204332" lon="1.417197">
        <ele>217.5</ele>
        <time>1970-01-01T02:00:02.000Z</time>
      </trkpt>
      <trkpt lat="41.204293" lon="1.417232">
        <ele>216.1</ele>
        <time>1970-01-01T02:00:04.000Z</time>
      </trkpt>
      <trkpt lat="41.204258" lon="1.417266">
        <ele>215</ele>
        <time>1970-01-01T02:00:06.000Z</time>
      </trkpt>
      <trkpt lat="41.204231" lon="1.417303">
        <ele>214.2</ele>
        <time>1970-01-01T02:00:08.000Z</time>
      </trkpt>
      <trkpt lat="41.204221" lon="1.417341">
        <ele>213.6</ele>
        <time>1970-01-01T02:00:10.000Z</time>
      </trkpt>
      <trkpt lat="41.204206" lon="1.41738">
        <ele>212.9</ele>
        <time>1970-01-01T02:00:12.000Z</time>
      </trkpt>
      <trkpt lat="41.20419" lon="1.417428">
        <ele>212.1</ele>
        <time>1970-01-01T02:00:14.000Z</time>
      </trkpt>
      <trkpt lat="41.204169" lon="1.417464">
        <ele>211.3</ele>
        <time>1970-01-01T02:00:15.000Z</time>
      </trkpt>
      <trkpt lat="41.204144" lon="1.417483">
        <ele>210.7</ele>
        <time>1970-01-01T02:00:16.000Z</time>
      </trkpt>
      <trkpt lat="41.204119" lon="1.417517">
        <ele>210.1</ele>
        <time>1970-01-01T02:00:17.000Z</time>
      </trkpt>
      <trkpt lat="41.204094" lon="1.417549">
        <ele>209.6</ele>
        <time>1970-01-01T02:00:18.000Z</time>
      </trkpt>
      <trkpt lat="41.204069" lon="1.417569">
        <ele>209.1</ele>
        <time>1970-01-01T02:00:19.000Z</time>
      </trkpt>
      <trkpt lat="41.204029" lon="1.417582">
        <ele>208.4</ele>
        <time>1970-01-01T02:00:21.000Z</time>
      </trkpt>
      <trkpt lat="41.203991" lon="1.417572">
        <ele>207.9</ele>
        <time>1970-01-01T02:00:29.000Z</time>
      </trkpt>
      <trkpt lat="41.203964" lon="1.41758">
        <ele>207.6</ele>
        <time>1970-01-01T02:00:30.000Z</time>
      </trkpt>
      <trkpt lat="41.203931" lon="1.417587">
        <ele>207.2</ele>
        <time>1970-01-01T02:00:31.000Z</time>
      </trkpt>
      <trkpt lat="41.203894" lon="1.417582">
        <ele>206.7</ele>
        <time>1970-01-01T02:00:32.000Z</time>
      </trkpt>
      <trkpt lat="41.203865" lon="1.417577">
        <ele>206.3</ele>
        <time>1970-01-01T02:00:33.000Z</time>
      </trkpt>
      <trkpt lat="41.203824" lon="1.417565">
        <ele>205.6</ele>
        <time>1970-01-01T02:00:34.000Z</time>
      </trkpt>
      <trkpt lat="41.20378" lon="1.417567">
        <ele>205</ele>
        <time>1970-01-01T02:00:36.000Z</time>
      </trkpt>
      <trkpt lat="41.203741" lon="1.417583">
        <ele>204.4</ele>
        <time>1970-01-01T02:00:38.000Z</time>
      </trkpt>
      <trkpt lat="41.203705" lon="1.417606">
        <ele>203.6</ele>
        <time>1970-01-01T02:00:40.000Z</time>
      </trkpt>
      <trkpt lat="41.203678" lon="1.417611">
        <ele>203</ele>
        <time>1970-01-01T02:00:42.000Z</time>
      </trkpt>
      <trkpt lat="41.203646" lon="1.417637">
        <ele>202.2</ele>
        <time>1970-01-01T02:00:44.000Z</time>
      </trkpt>
      <trkpt lat="41.203614" lon="1.417654">
        <ele>201.5</ele>
        <time>1970-01-01T02:00:46.000Z</time>
      </trkpt>
      <trkpt lat="41.203569" lon="1.417697">
        <ele>200.2</ele>
        <time>1970-01-01T02:00:48.000Z</time>
      </trkpt>
      <trkpt lat="41.203539" lon="1.417709">
        <ele>199.4</ele>
        <time>1970-01-01T02:00:49.000Z</time>
      </trkpt>
      <trkpt lat="41.203508" lon="1.417712">
        <ele>198.5</ele>
        <time>1970-01-01T02:00:51.000Z</time>
      </trkpt>
      <trkpt lat="41.203476" lon="1.417724">
        <ele>197.6</ele>
        <time>1970-01-01T02:00:52.000Z</time>
      </trkpt>
      <trkpt lat="41.203446" lon="1.417737">
        <ele>196.7</ele>
        <time>1970-01-01T02:00:53.000Z</time>
      </trkpt>
      <trkpt lat="41.203415" lon="1.417743">
        <ele>195.8</ele>
        <time>1970-01-01T02:00:54.000Z</time>
      </trkpt>
      <trkpt lat="41.20338" lon="1.41775">
        <ele>195</ele>
        <time>1970-01-01T02:00:55.000Z</time>
      </trkpt>
      <trkpt lat="41.203351" lon="1.417759">
        <ele>194.4</ele>
        <time>1970-01-01T02:00:56.000Z</time>
      </trkpt>
      <trkpt lat="41.203296" lon="1.417772">
        <ele>193.2</ele>
        <time>1970-01-01T02:00:58.000Z</time>
      </trkpt>
      <trkpt lat="41.203262" lon="1.417774">
        <ele>192.5</ele>
        <time>1970-01-01T02:00:59.000Z</time>
      </trkpt>
      <trkpt lat="41.203229" lon="1.417769">
        <ele>191.8</ele>
        <time>1970-01-01T02:01:00.000Z</time>
      </trkpt>
      <trkpt lat="41.203194" lon="1.417759">
        <ele>191.1</ele>
        <time>1970-01-01T02:01:01.000Z</time>
      </trkpt>
      <trkpt lat="41.203158" lon="1.417753">
        <ele>190.6</ele>
        <time>1970-01-01T02:01:02.000Z</time>
      </trkpt>
      <trkpt lat="41.203122" lon="1.417766">
        <ele>190.1</ele>
        <time>1970-01-01T02:01:03.000Z</time>
      </trkpt>
      <trkpt lat="41.203075" lon="1.417784">
        <ele>189.4</ele>
        <time>1970-01-01T02:01:04.000Z</time>
      </trkpt>
      <trkpt lat="41.203021" lon="1.417802">
        <ele>188.2</ele>
        <time>1970-01-01T02:01:05.000Z</time>
      </trkpt>
      <trkpt lat="41.202981" lon="1.417818">
        <ele>187.5</ele>
        <time>1970-01-01T02:01:06.000Z</time>
      </trkpt>
      <trkpt lat="41.202931" lon="1.417848">
        <ele>186.5</ele>
        <time>1970-01-01T02:01:07.000Z</time>
      </trkpt>
      <trkpt lat="41.202891" lon="1.417893">
        <ele>185.5</ele>
        <time>1970-01-01T02:01:08.000Z</time>
      </trkpt>
      <trkpt lat="41.202849" lon="1.417927">
        <ele>184.8</ele>
        <time>1970-01-01T02:01:09.000Z</time>
      </trkpt>
      <trkpt lat="41.202816" lon="1.417948">
        <ele>184.3</ele>
        <time>1970-01-01T02:01:10.000Z</time>
      </trkpt>
      <trkpt lat="41.202789" lon="1.417959">
        <ele>183.8</ele>
        <time>1970-01-01T02:01:11.000Z</time>
      </trkpt>
      <trkpt lat="41.202743" lon="1.418004">
        <ele>182.9</ele>
        <time>1970-01-01T02:01:13.000Z</time>
      </trkpt>
      <trkpt lat="41.202719" lon="1.418032">
        <ele>182.4</ele>
        <time>1970-01-01T02:01:14.000Z</time>
      </trkpt>
      <trkpt lat="41.202693" lon="1.418069">
        <ele>181.9</ele>
        <time>1970-01-01T02:01:15.000Z</time>
      </trkpt>
      <trkpt lat="41.202666" lon="1.418085">
        <ele>181.5</ele>
        <time>1970-01-01T02:01:16.000Z</time>
      </trkpt>
      <trkpt lat="41.202619" lon="1.418085">
        <ele>180.7</ele>
        <time>1970-01-01T02:01:17.000Z</time>
      </trkpt>
      <trkpt lat="41.202581" lon="1.418105">
        <ele>179.9</ele>
        <time>1970-01-01T02:01:18.000Z</time>
      </trkpt>
      <trkpt lat="41.202565" lon="1.418151">
        <ele>179.1</ele>
        <time>1970-01-01T02:01:19.000Z</time>
      </trkpt>
      <trkpt lat="41.202574" lon="1.418203">
        <ele>178.4</ele>
        <time>1970-01-01T02:01:20.000Z</time>
      </trkpt>
      <trkpt lat="41.202535" lon="1.418239">
        <ele>177.7</ele>
        <time>1970-01-01T02:01:22.000Z</time>
      </trkpt>
      <trkpt lat="41.202507" lon="1.41825">
        <ele>177.1</ele>
        <time>1970-01-01T02:01:23.000Z</time>
      </trkpt>
      <trkpt lat="41.202484" lon="1.418281">
        <ele>176.5</ele>
        <time>1970-01-01T02:01:24.000Z</time>
      </trkpt>
      <trkpt lat="41.202483" lon="1.41833">
        <ele>175.7</ele>
        <time>1970-01-01T02:01:25.000Z</time>
      </trkpt>
      <trkpt lat="41.20246" lon="1.418384">
        <ele>174.9</ele>
        <time>1970-01-01T02:01:26.000Z</time>
      </trkpt>
      <trkpt lat="41.202441" lon="1.418428">
        <ele>174.3</ele>
        <time>1970-01-01T02:01:27.000Z</time>
      </trkpt>
      <trkpt lat="41.202432" lon="1.418478">
        <ele>173.6</ele>
        <time>1970-01-01T02:01:28.000Z</time>
      </trkpt>
      <trkpt lat="41.202425" lon="1.418536">
        <ele>172.6</ele>
        <time>1970-01-01T02:01:29.000Z</time>
      </trkpt>
      <trkpt lat="41.202425" lon="1.418594">
        <ele>171.7</ele>
        <time>1970-01-01T02:01:30.000Z</time>
      </trkpt>
      <trkpt lat="41.202419" lon="1.418646">
        <ele>170.9</ele>
        <time>1970-01-01T02:01:31.000Z</time>
      </trkpt>
      <trkpt lat="41.202407" lon="1.418678">
        <ele>170.4</ele>
        <time>1970-01-01T02:01:32.000Z</time>
      </trkpt>
      <trkpt lat="41.202389" lon="1.41871">
        <ele>169.8</ele>
        <time>1970-01-01T02:01:33.000Z</time>
      </trkpt>
      <trkpt lat="41.20238" lon="1.418761">
        <ele>169.1</ele>
        <time>1970-01-01T02:01:34.000Z</time>
      </trkpt>
      <trkpt lat="41.202387" lon="1.418809">
        <ele>168.3</ele>
        <time>1970-01-01T02:01:35.000Z</time>
      </trkpt>
      <trkpt lat="41.202402" lon="1.418844">
        <ele>167.7</ele>
        <time>1970-01-01T02:01:36.000Z</time>
      </trkpt>
      <trkpt lat="41.202408" lon="1.418924">
        <ele>166.4</ele>
        <time>1970-01-01T02:01:38.000Z</time>
      </trkpt>
      <trkpt lat="41.202411" lon="1.418968">
        <ele>165.9</ele>
        <time>1970-01-01T02:01:39.000Z</time>
      </trkpt>
      <trkpt lat="41.202424" lon="1.419004">
        <ele>165.3</ele>
        <time>1970-01-01T02:01:40.000Z</time>
      </trkpt>
      <trkpt lat="41.202442" lon="1.419039">
        <ele>164.8</ele>
        <time>1970-01-01T02:01:41.000Z</time>
      </trkpt>
      <trkpt lat="41.202454" lon="1.419079">
        <ele>164.3</ele>
        <time>1970-01-01T02:01:42.000Z</time>
      </trkpt>
      <trkpt lat="41.202463" lon="1.419117">
        <ele>163.8</ele>
        <time>1970-01-01T02:01:43.000Z</time>
      </trkpt>
      <trkpt lat="41.202475" lon="1.419149">
        <ele>163.4</ele>
        <time>1970-01-01T02:01:45.000Z</time>
      </trkpt>
      <trkpt lat="41.202454" lon="1.419192">
        <ele>163.1</ele>
        <time>1970-01-01T02:01:48.000Z</time>
      </trkpt>
      <trkpt lat="41.202392" lon="1.419219">
        <ele>162.5</ele>
        <time>1970-01-01T02:01:50.000Z</time>
      </trkpt>
      <trkpt lat="41.202349" lon="1.419225">
        <ele>162</ele>
        <time>1970-01-01T02:01:51.000Z</time>
      </trkpt>
      <trkpt lat="41.202318" lon="1.419237">
        <ele>161.6</ele>
        <time>1970-01-01T02:01:52.000Z</time>
      </trkpt>
      <trkpt lat="41.202283" lon="1.419245">
        <ele>161.3</ele>
        <time>1970-01-01T02:01:53.000Z</time>
      </trkpt>
      <trkpt lat="41.202245" lon="1.419267">
        <ele>160.9</ele>
        <time>1970-01-01T02:01:54.000Z</time>
      </trkpt>
      <trkpt lat="41.202206" lon="1.419294">
        <ele>160.4</ele>
        <time>1970-01-01T02:01:55.000Z</time>
      </trkpt>
      <trkpt lat="41.20217" lon="1.41931">
        <ele>159.9</ele>
        <time>1970-01-01T02:01:56.000Z</time>
      </trkpt>
      <trkpt lat="41.202139" lon="1.419326">
        <ele>159.5</ele>
        <time>1970-01-01T02:01:57.000Z</time>
      </trkpt>
      <trkpt lat="41.202116" lon="1.419351">
        <ele>159.1</ele>
        <time>1970-01-01T02:01:58.000Z</time>
      </trkpt>
      <trkpt lat="41.202079" lon="1.419354">
        <ele>158.7</ele>
        <time>1970-01-01T02:02:00.000Z</time>
      </trkpt>
      <trkpt lat="41.202029" lon="1.419318">
        <ele>157.9</ele>
        <time>1970-01-01T02:02:02.000Z</time>
      </trkpt>
      <trkpt lat="41.201989" lon="1.419318">
        <ele>157.5</ele>
        <time>1970-01-01T02:02:03.000Z</time>
      </trkpt>
      <trkpt lat="41.20194" lon="1.419335">
        <ele>157</ele>
        <time>1970-01-01T02:02:04.000Z</time>
      </trkpt>
      <trkpt lat="41.201908" lon="1.419361">
        <ele>156.6</ele>
        <time>1970-01-01T02:02:05.000Z</time>
      </trkpt>
      <trkpt lat="41.201893" lon="1.419394">
        <ele>156.3</ele>
        <time>1970-01-01T02:02:06.000Z</time>
      </trkpt>
      <trkpt lat="41.201887" lon="1.419429">
        <ele>156.1</ele>
        <time>1970-01-01T02:02:07.000Z</time>
      </trkpt>
      <trkpt lat="41.201863" lon="1.419471">
        <ele>155.7</ele>
        <time>1970-01-01T02:02:08.000Z</time>
      </trkpt>
      <trkpt lat="41.201828" lon="1.419515">
        <ele>155.2</ele>
        <time>1970-01-01T02:02:09.000Z</time>
      </trkpt>
      <trkpt lat="41.201785" lon="1.419558">
        <ele>154.7</ele>
        <time>1970-01-01T02:02:10.000Z</time>
      </trkpt>
      <trkpt lat="41.201751" lon="1.419604">
        <ele>154.3</ele>
        <time>1970-01-01T02:02:11.000Z</time>
      </trkpt>
      <trkpt lat="41.201714" lon="1.419656">
        <ele>153.9</ele>
        <time>1970-01-01T02:02:12.000Z</time>
      </trkpt>
      <trkpt lat="41.201684" lon="1.419703">
        <ele>153.6</ele>
        <time>1970-01-01T02:02:13.000Z</time>
      </trkpt>
      <trkpt lat="41.201656" lon="1.419762">
        <ele>153.2</ele>
        <time>1970-01-01T02:02:14.000Z</time>
      </trkpt>
      <trkpt lat="41.201616" lon="1.419808">
        <ele>152.9</ele>
        <time>1970-01-01T02:02:15.000Z</time>
      </trkpt>
      <trkpt lat="41.201582" lon="1.41984">
        <ele>152.6</ele>
        <time>1970-01-01T02:02:16.000Z</time>
      </trkpt>
      <trkpt lat="41.201557" lon="1.41986">
        <ele>152.4</ele>
        <time>1970-01-01T02:02:17.000Z</time>
      </trkpt>
      <trkpt lat="41.201515" lon="1.419909">
        <ele>152</ele>
        <time>1970-01-01T02:02:19.000Z</time>
      </trkpt>
      <trkpt lat="41.201476" lon="1.419948">
        <ele>151.7</ele>
        <time>1970-01-01T02:02:20.000Z</time>
      </trkpt>
      <trkpt lat="41.201437" lon="1.419992">
        <ele>151.3</ele>
        <time>1970-01-01T02:02:21.000Z</time>
      </trkpt>
      <trkpt lat="41.201427" lon="1.420056">
        <ele>151</ele>
        <time>1970-01-01T02:02:22.000Z</time>
      </trkpt>
      <trkpt lat="41.201415" lon="1.420125">
        <ele>150.7</ele>
        <time>1970-01-01T02:02:23.000Z</time>
      </trkpt>
      <trkpt lat="41.201387" lon="1.420169">
        <ele>150.5</ele>
        <time>1970-01-01T02:02:24.000Z</time>
      </trkpt>
      <trkpt lat="41.20135" lon="1.420216">
        <ele>150.3</ele>
        <time>1970-01-01T02:02:25.000Z</time>
      </trkpt>
      <trkpt lat="41.20131" lon="1.420253">
        <ele>150</ele>
        <time>1970-01-01T02:02:26.000Z</time>
      </trkpt>
      <trkpt lat="41.201267" lon="1.420258">
        <ele>149.8</ele>
        <time>1970-01-01T02:02:27.000Z</time>
      </trkpt>
      <trkpt lat="41.201229" lon="1.420246">
        <ele>149.6</ele>
        <time>1970-01-01T02:02:28.000Z</time>
      </trkpt>
      <trkpt lat="41.201203" lon="1.420184">
        <ele>149.3</ele>
        <time>1970-01-01T02:02:29.000Z</time>
      </trkpt>
      <trkpt lat="41.201183" lon="1.420137">
        <ele>149.1</ele>
        <time>1970-01-01T02:02:30.000Z</time>
      </trkpt>
      <trkpt lat="41.201154" lon="1.42015">
        <ele>148.9</ele>
        <time>1970-01-01T02:02:31.000Z</time>
      </trkpt>
      <trkpt lat="41.201119" lon="1.420169">
        <ele>148.7</ele>
        <time>1970-01-01T02:02:32.000Z</time>
      </trkpt>
      <trkpt lat="41.201082" lon="1.420176">
        <ele>148.5</ele>
        <time>1970-01-01T02:02:33.000Z</time>
      </trkpt>
      <trkpt lat="41.201054" lon="1.420183">
        <ele>148.3</ele>
        <time>1970-01-01T02:02:34.000Z</time>
      </trkpt>
      <trkpt lat="41.201038" lon="1.420218">
        <ele>148.1</ele>
        <time>1970-01-01T02:02:35.000Z</time>
      </trkpt>
      <trkpt lat="41.201023" lon="1.420258">
        <ele>147.9</ele>
        <time>1970-01-01T02:02:36.000Z</time>
      </trkpt>
      <trkpt lat="41.200994" lon="1.420297">
        <ele>147.7</ele>
        <time>1970-01-01T02:02:37.000Z</time>
      </trkpt>
      <trkpt lat="41.200968" lon="1.420352">
        <ele>147.4</ele>
        <time>1970-01-01T02:02:38.000Z</time>
      </trkpt>
      <trkpt lat="41.200962" lon="1.420405">
        <ele>147.2</ele>
        <time>1970-01-01T02:02:39.000Z</time>
      </trkpt>
      <trkpt lat="41.200938" lon="1.420446">
        <ele>146.9</ele>
        <time>1970-01-01T02:02:40.000Z</time>
      </trkpt>
      <trkpt lat="41.200906" lon="1.42048">
        <ele>146.7</ele>
        <time>1970-01-01T02:02:41.000Z</time>
      </trkpt>
      <trkpt lat="41.200866" lon="1.42051">
        <ele>146.5</ele>
        <time>1970-01-01T02:02:42.000Z</time>
      </trkpt>
      <trkpt lat="41.200846" lon="1.420535">
        <ele>146.3</ele>
        <time>1970-01-01T02:02:43.000Z</time>
      </trkpt>
      <trkpt lat="41.200826" lon="1.420582">
        <ele>146.1</ele>
        <time>1970-01-01T02:02:44.000Z</time>
      </trkpt>
      <trkpt lat="41.200797" lon="1.420624">
        <ele>145.8</ele>
        <time>1970-01-01T02:02:45.000Z</time>
      </trkpt>
      <trkpt lat="41.200777" lon="1.420657">
        <ele>145.6</ele>
        <time>1970-01-01T02:02:46.000Z</time>
      </trkpt>
      <trkpt lat="41.200753" lon="1.420692">
        <ele>145.4</ele>
        <time>1970-01-01T02:02:47.000Z</time>
      </trkpt>
      <trkpt lat="41.200716" lon="1.42074">
        <ele>145</ele>
        <time>1970-01-01T02:02:48.000Z</time>
      </trkpt>
      <trkpt lat="41.200678" lon="1.420792">
        <ele>144.6</ele>
        <time>1970-01-01T02:02:49.000Z</time>
      </trkpt>
      <trkpt lat="41.200643" lon="1.420854">
        <ele>144.1</ele>
        <time>1970-01-01T02:02:50.000Z</time>
      </trkpt>
      <trkpt lat="41.200601" lon="1.420915">
        <ele>143.6</ele>
        <time>1970-01-01T02:02:51.000Z</time>
      </trkpt>
      <trkpt lat="41.200552" lon="1.420975">
        <ele>143</ele>
        <time>1970-01-01T02:02:52.000Z</time>
      </trkpt>
      <trkpt lat="41.200495" lon="1.421036">
        <ele>142.4</ele>
        <time>1970-01-01T02:02:53.000Z</time>
      </trkpt>
      <trkpt lat="41.200441" lon="1.4211">
        <ele>141.8</ele>
        <time>1970-01-01T02:02:54.000Z</time>
      </trkpt>
      <trkpt lat="41.200399" lon="1.421124">
        <ele>141.3</ele>
        <time>1970-01-01T02:02:55.000Z</time>
      </trkpt>
      <trkpt lat="41.200355" lon="1.421161">
        <ele>141</ele>
        <time>1970-01-01T02:02:56.000Z</time>
      </trkpt>
      <trkpt lat="41.200303" lon="1.421175">
        <ele>140.6</ele>
        <time>1970-01-01T02:02:57.000Z</time>
      </trkpt>
      <trkpt lat="41.200252" lon="1.421182">
        <ele>140.3</ele>
        <time>1970-01-01T02:02:58.000Z</time>
      </trkpt>
      <trkpt lat="41.200217" lon="1.421179">
        <ele>138.9</ele>
        <time>1970-01-01T02:02:59.000Z</time>
      </trkpt>
      <trkpt lat="41.200185" lon="1.421231">
        <ele>138.5</ele>
        <time>1970-01-01T02:03:01.000Z</time>
      </trkpt>
      <trkpt lat="41.200167" lon="1.421262">
        <ele>138.2</ele>
        <time>1970-01-01T02:03:02.000Z</time>
      </trkpt>
      <trkpt lat="41.200174" lon="1.421306">
        <ele>138</ele>
        <time>1970-01-01T02:03:03.000Z</time>
      </trkpt>
      <trkpt lat="41.200183" lon="1.421351">
        <ele>137.7</ele>
        <time>1970-01-01T02:03:04.000Z</time>
      </trkpt>
      <trkpt lat="41.200202" lon="1.421403">
        <ele>137.5</ele>
        <time>1970-01-01T02:03:05.000Z</time>
      </trkpt>
      <trkpt lat="41.20022" lon="1.42145">
        <ele>137.3</ele>
        <time>1970-01-01T02:03:06.000Z</time>
      </trkpt>
      <trkpt lat="41.200238" lon="1.421501">
        <ele>137.1</ele>
        <time>1970-01-01T02:03:07.000Z</time>
      </trkpt>
      <trkpt lat="41.200278" lon="1.421541">
        <ele>136.8</ele>
        <time>1970-01-01T02:03:08.000Z</time>
      </trkpt>
      <trkpt lat="41.200327" lon="1.421584">
        <ele>136.6</ele>
        <time>1970-01-01T02:03:09.000Z</time>
      </trkpt>
      <trkpt lat="41.200387" lon="1.42162">
        <ele>136.4</ele>
        <time>1970-01-01T02:03:10.000Z</time>
      </trkpt>
      <trkpt lat="41.200445" lon="1.421639">
        <ele>136.2</ele>
        <time>1970-01-01T02:03:11.000Z</time>
      </trkpt>
      <trkpt lat="41.200503" lon="1.421668">
        <ele>136.1</ele>
        <time>1970-01-01T02:03:12.000Z</time>
      </trkpt>
      <trkpt lat="41.200559" lon="1.421704">
        <ele>136</ele>
        <time>1970-01-01T02:03:13.000Z</time>
      </trkpt>
      <trkpt lat="41.200614" lon="1.421758">
        <ele>135.8</ele>
        <time>1970-01-01T02:03:14.000Z</time>
      </trkpt>
      <trkpt lat="41.200666" lon="1.421829">
        <ele>135.7</ele>
        <time>1970-01-01T02:03:15.000Z</time>
      </trkpt>
      <trkpt lat="41.200723" lon="1.42189">
        <ele>135.6</ele>
        <time>1970-01-01T02:03:16.000Z</time>
      </trkpt>
      <trkpt lat="41.200774" lon="1.42194">
        <ele>135.5</ele>
        <time>1970-01-01T02:03:17.000Z</time>
      </trkpt>
      <trkpt lat="41.20082" lon="1.421992">
        <ele>135.5</ele>
        <time>1970-01-01T02:03:18.000Z</time>
      </trkpt>
      <trkpt lat="41.200878" lon="1.422066">
        <ele>135.8</ele>
        <time>1970-01-01T02:03:19.000Z</time>
      </trkpt>
      <trkpt lat="41.200929" lon="1.422155">
        <ele>136.2</ele>
        <time>1970-01-01T02:03:20.000Z</time>
      </trkpt>
      <trkpt lat="41.200944" lon="1.42223">
        <ele>136.8</ele>
        <time>1970-01-01T02:03:21.000Z</time>
      </trkpt>
      <trkpt lat="41.200939" lon="1.422305">
        <ele>137.3</ele>
        <time>1970-01-01T02:03:22.000Z</time>
      </trkpt>
      <trkpt lat="41.200922" lon="1.422353">
        <ele>137.8</ele>
        <time>1970-01-01T02:03:23.000Z</time>
      </trkpt>
      <trkpt lat="41.200901" lon="1.422395">
        <ele>138.3</ele>
        <time>1970-01-01T02:03:24.000Z</time>
      </trkpt>
      <trkpt lat="41.200864" lon="1.42243">
        <ele>138</ele>
        <time>1970-01-01T02:03:25.000Z</time>
      </trkpt>
      <trkpt lat="41.200824" lon="1.422466">
        <ele>137.7</ele>
        <time>1970-01-01T02:03:26.000Z</time>
      </trkpt>
      <trkpt lat="41.200785" lon="1.422508">
        <ele>137.5</ele>
        <time>1970-01-01T02:03:27.000Z</time>
      </trkpt>
      <trkpt lat="41.200748" lon="1.422532">
        <ele>137.3</ele>
        <time>1970-01-01T02:03:28.000Z</time>
      </trkpt>
      <trkpt lat="41.200712" lon="1.422561">
        <ele>137.1</ele>
        <time>1970-01-01T02:03:29.000Z</time>
      </trkpt>
      <trkpt lat="41.200695" lon="1.422614">
        <ele>136.8</ele>
        <time>1970-01-01T02:03:30.000Z</time>
      </trkpt>
      <trkpt lat="41.200674" lon="1.422659">
        <ele>136.6</ele>
        <time>1970-01-01T02:03:31.000Z</time>
      </trkpt>
      <trkpt lat="41.200707" lon="1.422728">
        <ele>136.3</ele>
        <time>1970-01-01T02:03:32.000Z</time>
      </trkpt>
      <trkpt lat="41.200718" lon="1.422809">
        <ele>136</ele>
        <time>1970-01-01T02:03:33.000Z</time>
      </trkpt>
      <trkpt lat="41.200731" lon="1.422871">
        <ele>135.8</ele>
        <time>1970-01-01T02:03:34.000Z</time>
      </trkpt>
      <trkpt lat="41.200747" lon="1.422944">
        <ele>135.7</ele>
        <time>1970-01-01T02:03:35.000Z</time>
      </trkpt>
      <trkpt lat="41.20076" lon="1.423019">
        <ele>135.5</ele>
        <time>1970-01-01T02:03:36.000Z</time>
      </trkpt>
      <trkpt lat="41.200774" lon="1.423113">
        <ele>135.2</ele>
        <time>1970-01-01T02:03:37.000Z</time>
      </trkpt>
      <trkpt lat="41.200779" lon="1.423192">
        <ele>135</ele>
        <time>1970-01-01T02:03:38.000Z</time>
      </trkpt>
      <trkpt lat="41.200768" lon="1.423231">
        <ele>134.9</ele>
        <time>1970-01-01T02:03:39.000Z</time>
      </trkpt>
      <trkpt lat="41.200751" lon="1.423293">
        <ele>134.7</ele>
        <time>1970-01-01T02:03:40.000Z</time>
      </trkpt>
      <trkpt lat="41.200729" lon="1.423335">
        <ele>134.6</ele>
        <time>1970-01-01T02:03:41.000Z</time>
      </trkpt>
      <trkpt lat="41.200678" lon="1.42334">
        <ele>134.5</ele>
        <time>1970-01-01T02:03:42.000Z</time>
      </trkpt>
      <trkpt lat="41.200636" lon="1.423353">
        <ele>134.5</ele>
        <time>1970-01-01T02:03:43.000Z</time>
      </trkpt>
      <trkpt lat="41.200582" lon="1.423373">
        <ele>134.5</ele>
        <time>1970-01-01T02:03:44.000Z</time>
      </trkpt>
      <trkpt lat="41.200514" lon="1.423391">
        <ele>134.4</ele>
        <time>1970-01-01T02:03:45.000Z</time>
      </trkpt>
      <trkpt lat="41.200451" lon="1.423397">
        <ele>134.4</ele>
        <time>1970-01-01T02:03:46.000Z</time>
      </trkpt>
      <trkpt lat="41.200395" lon="1.423414">
        <ele>134.4</ele>
        <time>1970-01-01T02:03:47.000Z</time>
      </trkpt>
      <trkpt lat="41.20033" lon="1.423448">
        <ele>134.5</ele>
        <time>1970-01-01T02:03:48.000Z</time>
      </trkpt>
      <trkpt lat="41.200275" lon="1.42347">
        <ele>134.8</ele>
        <time>1970-01-01T02:03:49.000Z</time>
      </trkpt>
      <trkpt lat="41.200223" lon="1.423488">
        <ele>135</ele>
        <time>1970-01-01T02:03:50.000Z</time>
      </trkpt>
      <trkpt lat="41.200171" lon="1.423505">
        <ele>135.4</ele>
        <time>1970-01-01T02:03:51.000Z</time>
      </trkpt>
      <trkpt lat="41.200115" lon="1.423508">
        <ele>135.7</ele>
        <time>1970-01-01T02:03:52.000Z</time>
      </trkpt>
      <trkpt lat="41.200074" lon="1.42351">
        <ele>135.9</ele>
        <time>1970-01-01T02:03:53.000Z</time>
      </trkpt>
      <trkpt lat="41.200028" lon="1.423495">
        <ele>136.1</ele>
        <time>1970-01-01T02:03:54.000Z</time>
      </trkpt>
      <trkpt lat="41.199982" lon="1.423486">
        <ele>136.2</ele>
        <time>1970-01-01T02:03:55.000Z</time>
      </trkpt>
      <trkpt lat="41.199947" lon="1.423488">
        <ele>136.2</ele>
        <time>1970-01-01T02:03:56.000Z</time>
      </trkpt>
      <trkpt lat="41.199903" lon="1.423486">
        <ele>136.3</ele>
        <time>1970-01-01T02:03:57.000Z</time>
      </trkpt>
      <trkpt lat="41.199852" lon="1.423501">
        <ele>136.4</ele>
        <time>1970-01-01T02:03:58.000Z</time>
      </trkpt>
      <trkpt lat="41.199793" lon="1.423498">
        <ele>136.5</ele>
        <time>1970-01-01T02:03:59.000Z</time>
      </trkpt>
      <trkpt lat="41.199731" lon="1.423505">
        <ele>136.4</ele>
        <time>1970-01-01T02:04:00.000Z</time>
      </trkpt>
      <trkpt lat="41.199665" lon="1.423502">
        <ele>136.3</ele>
        <time>1970-01-01T02:04:01.000Z</time>
      </trkpt>
      <trkpt lat="41.199604" lon="1.423517">
        <ele>136.2</ele>
        <time>1970-01-01T02:04:02.000Z</time>
      </trkpt>
      <trkpt lat="41.199545" lon="1.423543">
        <ele>136</ele>
        <time>1970-01-01T02:04:03.000Z</time>
      </trkpt>
      <trkpt lat="41.1995" lon="1.423578">
        <ele>135.8</ele>
        <time>1970-01-01T02:04:04.000Z</time>
      </trkpt>
      <trkpt lat="41.199455" lon="1.42362">
        <ele>135.6</ele>
        <time>1970-01-01T02:04:05.000Z</time>
      </trkpt>
      <trkpt lat="41.199407" lon="1.423664">
        <ele>135.4</ele>
        <time>1970-01-01T02:04:06.000Z</time>
      </trkpt>
      <trkpt lat="41.199374" lon="1.423702">
        <ele>135.3</ele>
        <time>1970-01-01T02:04:07.000Z</time>
      </trkpt>
      <trkpt lat="41.199323" lon="1.423736">
        <ele>135</ele>
        <time>1970-01-01T02:04:08.000Z</time>
      </trkpt>
      <trkpt lat="41.199285" lon="1.423781">
        <ele>134.8</ele>
        <time>1970-01-01T02:04:09.000Z</time>
      </trkpt>
      <trkpt lat="41.199248" lon="1.423823">
        <ele>133.2</ele>
        <time>1970-01-01T02:04:10.000Z</time>
      </trkpt>
      <trkpt lat="41.199208" lon="1.423857">
        <ele>132.5</ele>
        <time>1970-01-01T02:04:11.000Z</time>
      </trkpt>
      <trkpt lat="41.199171" lon="1.423903">
        <ele>131.8</ele>
        <time>1970-01-01T02:04:12.000Z</time>
      </trkpt>
      <trkpt lat="41.19914" lon="1.42396">
        <ele>131.3</ele>
        <time>1970-01-01T02:04:13.000Z</time>
      </trkpt>
      <trkpt lat="41.199108" lon="1.424028">
        <ele>130.9</ele>
        <time>1970-01-01T02:04:14.000Z</time>
      </trkpt>
      <trkpt lat="41.199082" lon="1.424096">
        <ele>130.7</ele>
        <time>1970-01-01T02:04:15.000Z</time>
      </trkpt>
      <trkpt lat="41.199064" lon="1.424181">
        <ele>130.5</ele>
        <time>1970-01-01T02:04:16.000Z</time>
      </trkpt>
      <trkpt lat="41.199061" lon="1.424265">
        <ele>130.3</ele>
        <time>1970-01-01T02:04:17.000Z</time>
      </trkpt>
      <trkpt lat="41.199066" lon="1.42435">
        <ele>130.1</ele>
        <time>1970-01-01T02:04:18.000Z</time>
      </trkpt>
      <trkpt lat="41.199071" lon="1.424431">
        <ele>129.9</ele>
        <time>1970-01-01T02:04:19.000Z</time>
      </trkpt>
      <trkpt lat="41.199076" lon="1.42451">
        <ele>129.8</ele>
        <time>1970-01-01T02:04:20.000Z</time>
      </trkpt>
      <trkpt lat="41.199076" lon="1.424587">
        <ele>129.6</ele>
        <time>1970-01-01T02:04:21.000Z</time>
      </trkpt>
      <trkpt lat="41.199091" lon="1.424667">
        <ele>129.5</ele>
        <time>1970-01-01T02:04:22.000Z</time>
      </trkpt>
      <trkpt lat="41.199114" lon="1.42475">
        <ele>129.4</ele>
        <time>1970-01-01T02:04:23.000Z</time>
      </trkpt>
      <trkpt lat="41.19914" lon="1.424836">
        <ele>129.3</ele>
        <time>1970-01-01T02:04:24.000Z</time>
      </trkpt>
      <trkpt lat="41.199163" lon="1.424926">
        <ele>129.3</ele>
        <time>1970-01-01T02:04:25.000Z</time>
      </trkpt>
      <trkpt lat="41.199196" lon="1.425007">
        <ele>129.3</ele>
        <time>1970-01-01T02:04:26.000Z</time>
      </trkpt>
      <trkpt lat="41.199223" lon="1.425084">
        <ele>129.4</ele>
        <time>1970-01-01T02:04:27.000Z</time>
      </trkpt>
      <trkpt lat="41.199233" lon="1.425153">
        <ele>129.5</ele>
        <time>1970-01-01T02:04:28.000Z</time>
      </trkpt>
      <trkpt lat="41.199251" lon="1.425229">
        <ele>129.7</ele>
        <time>1970-01-01T02:04:29.000Z</time>
      </trkpt>
      <trkpt lat="41.199276" lon="1.425284">
        <ele>129.9</ele>
        <time>1970-01-01T02:04:30.000Z</time>
      </trkpt>
      <trkpt lat="41.199304" lon="1.42535">
        <ele>130.2</ele>
        <time>1970-01-01T02:04:31.000Z</time>
      </trkpt>
      <trkpt lat="41.199323" lon="1.425433">
        <ele>130.5</ele>
        <time>1970-01-01T02:04:32.000Z</time>
      </trkpt>
      <trkpt lat="41.199347" lon="1.425506">
        <ele>130.9</ele>
        <time>1970-01-01T02:04:33.000Z</time>
      </trkpt>
      <trkpt lat="41.199373" lon="1.425576">
        <ele>131.2</ele>
        <time>1970-01-01T02:04:34.000Z</time>
      </trkpt>
      <trkpt lat="41.199394" lon="1.42565">
        <ele>131.7</ele>
        <time>1970-01-01T02:04:35.000Z</time>
      </trkpt>
      <trkpt lat="41.199408" lon="1.425715">
        <ele>132</ele>
        <time>1970-01-01T02:04:36.000Z</time>
      </trkpt>
      <trkpt lat="41.199422" lon="1.425773">
        <ele>132.4</ele>
        <time>1970-01-01T02:04:37.000Z</time>
      </trkpt>
      <trkpt lat="41.199435" lon="1.425832">
        <ele>132.7</ele>
        <time>1970-01-01T02:04:38.000Z</time>
      </trkpt>
      <trkpt lat="41.199425" lon="1.425876">
        <ele>133</ele>
        <time>1970-01-01T02:04:39.000Z</time>
      </trkpt>
      <trkpt lat="41.199408" lon="1.425909">
        <ele>133.3</ele>
        <time>1970-01-01T02:04:40.000Z</time>
      </trkpt>
      <trkpt lat="41.199369" lon="1.425897">
        <ele>133.5</ele>
        <time>1970-01-01T02:04:41.000Z</time>
      </trkpt>
      <trkpt lat="41.199325" lon="1.4259">
        <ele>133.8</ele>
        <time>1970-01-01T02:04:42.000Z</time>
      </trkpt>
      <trkpt lat="41.199276" lon="1.425885">
        <ele>134.2</ele>
        <time>1970-01-01T02:04:43.000Z</time>
      </trkpt>
      <trkpt lat="41.199232" lon="1.425888">
        <ele>134.6</ele>
        <time>1970-01-01T02:04:44.000Z</time>
      </trkpt>
      <trkpt lat="41.199186" lon="1.425887">
        <ele>135.1</ele>
        <time>1970-01-01T02:04:45.000Z</time>
      </trkpt>
      <trkpt lat="41.199146" lon="1.425892">
        <ele>135.4</ele>
        <time>1970-01-01T02:04:46.000Z</time>
      </trkpt>
      <trkpt lat="41.199092" lon="1.425876">
        <ele>135.8</ele>
        <time>1970-01-01T02:04:47.000Z</time>
      </trkpt>
      <trkpt lat="41.19904" lon="1.425874">
        <ele>136.2</ele>
        <time>1970-01-01T02:04:48.000Z</time>
      </trkpt>
      <trkpt lat="41.198989" lon="1.425859">
        <ele>136.6</ele>
        <time>1970-01-01T02:04:49.000Z</time>
      </trkpt>
      <trkpt lat="41.198945" lon="1.425846">
        <ele>137</ele>
        <time>1970-01-01T02:04:50.000Z</time>
      </trkpt>
      <trkpt lat="41.198896" lon="1.425833">
        <ele>137.4</ele>
        <time>1970-01-01T02:04:51.000Z</time>
      </trkpt>
      <trkpt lat="41.198864" lon="1.425816">
        <ele>137.7</ele>
        <time>1970-01-01T02:04:52.000Z</time>
      </trkpt>
      <trkpt lat="41.198833" lon="1.42581">
        <ele>137.9</ele>
        <time>1970-01-01T02:04:53.000Z</time>
      </trkpt>
      <trkpt lat="41.198797" lon="1.425799">
        <ele>138.2</ele>
        <time>1970-01-01T02:04:54.000Z</time>
      </trkpt>
      <trkpt lat="41.198746" lon="1.425796">
        <ele>138.6</ele>
        <time>1970-01-01T02:04:56.000Z</time>
      </trkpt>
      <trkpt lat="41.198719" lon="1.425772">
        <ele>138.8</ele>
        <time>1970-01-01T02:04:57.000Z</time>
      </trkpt>
      <trkpt lat="41.198681" lon="1.425761">
        <ele>139.1</ele>
        <time>1970-01-01T02:04:59.000Z</time>
      </trkpt>
      <trkpt lat="41.198639" lon="1.425753">
        <ele>139.4</ele>
        <time>1970-01-01T02:05:01.000Z</time>
      </trkpt>
      <trkpt lat="41.198594" lon="1.42573">
        <ele>139.7</ele>
        <time>1970-01-01T02:05:03.000Z</time>
      </trkpt>
      <trkpt lat="41.198554" lon="1.425722">
        <ele>140</ele>
        <time>1970-01-01T02:05:05.000Z</time>
      </trkpt>
      <trkpt lat="41.198512" lon="1.425708">
        <ele>140.3</ele>
        <time>1970-01-01T02:05:07.000Z</time>
      </trkpt>
      <trkpt lat="41.198484" lon="1.425711">
        <ele>140.5</ele>
        <time>1970-01-01T02:05:08.000Z</time>
      </trkpt>
      <trkpt lat="41.198456" lon="1.425723">
        <ele>140.8</ele>
        <time>1970-01-01T02:05:09.000Z</time>
      </trkpt>
      <trkpt lat="41.198422" lon="1.425732">
        <ele>141.1</ele>
        <time>1970-01-01T02:05:10.000Z</time>
      </trkpt>
      <trkpt lat="41.19837" lon="1.425727">
        <ele>141.5</ele>
        <time>1970-01-01T02:05:12.000Z</time>
      </trkpt>
      <trkpt lat="41.198326" lon="1.425739">
        <ele>142</ele>
        <time>1970-01-01T02:05:14.000Z</time>
      </trkpt>
      <trkpt lat="41.198299" lon="1.425739">
        <ele>142.3</ele>
        <time>1970-01-01T02:05:15.000Z</time>
      </trkpt>
      <trkpt lat="41.198272" lon="1.42575">
        <ele>142.6</ele>
        <time>1970-01-01T02:05:16.000Z</time>
      </trkpt>
      <trkpt lat="41.19824" lon="1.425759">
        <ele>143</ele>
        <time>1970-01-01T02:05:17.000Z</time>
      </trkpt>
      <trkpt lat="41.198215" lon="1.42577">
        <ele>143.3</ele>
        <time>1970-01-01T02:05:18.000Z</time>
      </trkpt>
      <trkpt lat="41.198184" lon="1.425785">
        <ele>143.7</ele>
        <time>1970-01-01T02:05:19.000Z</time>
      </trkpt>
      <trkpt lat="41.198139" lon="1.425803">
        <ele>144.2</ele>
        <time>1970-01-01T02:05:21.000Z</time>
      </trkpt>
      <trkpt lat="41.198111" lon="1.425824">
        <ele>144.6</ele>
        <time>1970-01-01T02:05:22.000Z</time>
      </trkpt>
      <trkpt lat="41.198093" lon="1.425852">
        <ele>144.9</ele>
        <time>1970-01-01T02:05:23.000Z</time>
      </trkpt>
      <trkpt lat="41.198069" lon="1.425874">
        <ele>145.3</ele>
        <time>1970-01-01T02:05:24.000Z</time>
      </trkpt>
      <trkpt lat="41.198025" lon="1.425901">
        <ele>146</ele>
        <time>1970-01-01T02:05:26.000Z</time>
      </trkpt>
      <trkpt lat="41.197976" lon="1.425917">
        <ele>146.6</ele>
        <time>1970-01-01T02:05:28.000Z</time>
      </trkpt>
      <trkpt lat="41.197947" lon="1.425931">
        <ele>147</ele>
        <time>1970-01-01T02:05:29.000Z</time>
      </trkpt>
      <trkpt lat="41.19792" lon="1.425945">
        <ele>147.4</ele>
        <time>1970-01-01T02:05:30.000Z</time>
      </trkpt>
      <trkpt lat="41.197876" lon="1.425978">
        <ele>148.1</ele>
        <time>1970-01-01T02:05:32.000Z</time>
      </trkpt>
      <trkpt lat="41.197851" lon="1.426005">
        <ele>148.5</ele>
        <time>1970-01-01T02:05:33.000Z</time>
      </trkpt>
      <trkpt lat="41.197803" lon="1.426033">
        <ele>149.2</ele>
        <time>1970-01-01T02:05:35.000Z</time>
      </trkpt>
      <trkpt lat="41.197757" lon="1.426079">
        <ele>149.9</ele>
        <time>1970-01-01T02:05:37.000Z</time>
      </trkpt>
      <trkpt lat="41.197724" lon="1.426109">
        <ele>150.4</ele>
        <time>1970-01-01T02:05:39.000Z</time>
      </trkpt>
      <trkpt lat="41.197674" lon="1.42615">
        <ele>151.1</ele>
        <time>1970-01-01T02:05:41.000Z</time>
      </trkpt>
      <trkpt lat="41.197641" lon="1.426165">
        <ele>151.6</ele>
        <time>1970-01-01T02:05:42.000Z</time>
      </trkpt>
      <trkpt lat="41.197605" lon="1.426187">
        <ele>152</ele>
        <time>1970-01-01T02:05:44.000Z</time>
      </trkpt>
      <trkpt lat="41.19757" lon="1.426222">
        <ele>152.4</ele>
        <time>1970-01-01T02:05:46.000Z</time>
      </trkpt>
      <trkpt lat="41.197533" lon="1.42623">
        <ele>152.8</ele>
        <time>1970-01-01T02:05:48.000Z</time>
      </trkpt>
      <trkpt lat="41.197511" lon="1.426252">
        <ele>153</ele>
        <time>1970-01-01T02:05:49.000Z</time>
      </trkpt>
      <trkpt lat="41.197475" lon="1.426286">
        <ele>153.4</ele>
        <time>1970-01-01T02:05:51.000Z</time>
      </trkpt>
      <trkpt lat="41.19744" lon="1.426323">
        <ele>153.9</ele>
        <time>1970-01-01T02:05:53.000Z</time>
      </trkpt>
      <trkpt lat="41.197425" lon="1.426355">
        <ele>154.1</ele>
        <time>1970-01-01T02:05:54.000Z</time>
      </trkpt>
      <trkpt lat="41.197406" lon="1.426383">
        <ele>154.3</ele>
        <time>1970-01-01T02:05:55.000Z</time>
      </trkpt>
      <trkpt lat="41.19737" lon="1.42641">
        <ele>154.6</ele>
        <time>1970-01-01T02:05:56.000Z</time>
      </trkpt>
      <trkpt lat="41.197373" lon="1.426477">
        <ele>154.8</ele>
        <time>1970-01-01T02:05:58.000Z</time>
      </trkpt>
      <trkpt lat="41.197368" lon="1.426516">
        <ele>155</ele>
        <time>1970-01-01T02:05:59.000Z</time>
      </trkpt>
      <trkpt lat="41.197372" lon="1.426552">
        <ele>155.1</ele>
        <time>1970-01-01T02:06:00.000Z</time>
      </trkpt>
      <trkpt lat="41.19739" lon="1.426591">
        <ele>155.2</ele>
        <time>1970-01-01T02:06:01.000Z</time>
      </trkpt>
      <trkpt lat="41.197398" lon="1.426632">
        <ele>155.3</ele>
        <time>1970-01-01T02:06:02.000Z</time>
      </trkpt>
      <trkpt lat="41.19741" lon="1.426669">
        <ele>155.4</ele>
        <time>1970-01-01T02:06:03.000Z</time>
      </trkpt>
      <trkpt lat="41.197422" lon="1.426719">
        <ele>155.6</ele>
        <time>1970-01-01T02:06:05.000Z</time>
      </trkpt>
      <trkpt lat="41.197437" lon="1.426764">
        <ele>155.7</ele>
        <time>1970-01-01T02:06:07.000Z</time>
      </trkpt>
      <trkpt lat="41.197454" lon="1.426824">
        <ele>155.8</ele>
        <time>1970-01-01T02:06:09.000Z</time>
      </trkpt>
      <trkpt lat="41.197477" lon="1.426878">
        <ele>156</ele>
        <time>1970-01-01T02:06:11.000Z</time>
      </trkpt>
      <trkpt lat="41.197495" lon="1.426916">
        <ele>156.2</ele>
        <time>1970-01-01T02:06:13.000Z</time>
      </trkpt>
      <trkpt lat="41.197508" lon="1.42697">
        <ele>156.3</ele>
        <time>1970-01-01T02:06:15.000Z</time>
      </trkpt>
      <trkpt lat="41.197524" lon="1.427024">
        <ele>156.5</ele>
        <time>1970-01-01T02:06:17.000Z</time>
      </trkpt>
      <trkpt lat="41.197535" lon="1.42706">
        <ele>156.6</ele>
        <time>1970-01-01T02:06:18.000Z</time>
      </trkpt>
      <trkpt lat="41.197548" lon="1.427102">
        <ele>156.8</ele>
        <time>1970-01-01T02:06:19.000Z</time>
      </trkpt>
      <trkpt lat="41.197564" lon="1.427143">
        <ele>157</ele>
        <time>1970-01-01T02:06:20.000Z</time>
      </trkpt>
      <trkpt lat="41.197574" lon="1.427181">
        <ele>157.2</ele>
        <time>1970-01-01T02:06:21.000Z</time>
      </trkpt>
      <trkpt lat="41.197594" lon="1.427254">
        <ele>157.5</ele>
        <time>1970-01-01T02:06:23.000Z</time>
      </trkpt>
      <trkpt lat="41.197602" lon="1.427293">
        <ele>157.7</ele>
        <time>1970-01-01T02:06:24.000Z</time>
      </trkpt>
      <trkpt lat="41.197609" lon="1.427334">
        <ele>157.9</ele>
        <time>1970-01-01T02:06:25.000Z</time>
      </trkpt>
      <trkpt lat="41.197621" lon="1.427372">
        <ele>158.1</ele>
        <time>1970-01-01T02:06:26.000Z</time>
      </trkpt>
      <trkpt lat="41.197626" lon="1.427413">
        <ele>158.3</ele>
        <time>1970-01-01T02:06:27.000Z</time>
      </trkpt>
      <trkpt lat="41.197633" lon="1.427448">
        <ele>158.5</ele>
        <time>1970-01-01T02:06:28.000Z</time>
      </trkpt>
      <trkpt lat="41.197632" lon="1.42752">
        <ele>158.9</ele>
        <time>1970-01-01T02:06:30.000Z</time>
      </trkpt>
      <trkpt lat="41.197631" lon="1.427558">
        <ele>159.1</ele>
        <time>1970-01-01T02:06:31.000Z</time>
      </trkpt>
      <trkpt lat="41.197637" lon="1.427596">
        <ele>159.3</ele>
        <time>1970-01-01T02:06:32.000Z</time>
      </trkpt>
      <trkpt lat="41.197645" lon="1.427657">
        <ele>159.6</ele>
        <time>1970-01-01T02:06:34.000Z</time>
      </trkpt>
      <trkpt lat="41.197645" lon="1.427713">
        <ele>160</ele>
        <time>1970-01-01T02:06:36.000Z</time>
      </trkpt>
      <trkpt lat="41.197644" lon="1.427786">
        <ele>160.4</ele>
        <time>1970-01-01T02:06:38.000Z</time>
      </trkpt>
      <trkpt lat="41.197644" lon="1.427827">
        <ele>160.7</ele>
        <time>1970-01-01T02:06:39.000Z</time>
      </trkpt>
      <trkpt lat="41.197649" lon="1.427867">
        <ele>160.9</ele>
        <time>1970-01-01T02:06:40.000Z</time>
      </trkpt>
      <trkpt lat="41.197632" lon="1.42794">
        <ele>161.3</ele>
        <time>1970-01-01T02:06:42.000Z</time>
      </trkpt>
      <trkpt lat="41.197622" lon="1.427974">
        <ele>161.5</ele>
        <time>1970-01-01T02:06:43.000Z</time>
      </trkpt>
      <trkpt lat="41.197612" lon="1.428011">
        <ele>161.7</ele>
        <time>1970-01-01T02:06:44.000Z</time>
      </trkpt>
      <trkpt lat="41.197606" lon="1.428051">
        <ele>161.9</ele>
        <time>1970-01-01T02:06:45.000Z</time>
      </trkpt>
      <trkpt lat="41.1976" lon="1.428086">
        <ele>162.1</ele>
        <time>1970-01-01T02:06:46.000Z</time>
      </trkpt>
      <trkpt lat="41.197578" lon="1.428119">
        <ele>162.4</ele>
        <time>1970-01-01T02:06:47.000Z</time>
      </trkpt>
      <trkpt lat="41.197565" lon="1.428153">
        <ele>162.6</ele>
        <time>1970-01-01T02:06:48.000Z</time>
      </trkpt>
      <trkpt lat="41.197554" lon="1.428187">
        <ele>162.7</ele>
        <time>1970-01-01T02:06:49.000Z</time>
      </trkpt>
      <trkpt lat="41.197541" lon="1.428224">
        <ele>162.9</ele>
        <time>1970-01-01T02:06:50.000Z</time>
      </trkpt>
      <trkpt lat="41.197533" lon="1.428264">
        <ele>163.1</ele>
        <time>1970-01-01T02:06:51.000Z</time>
      </trkpt>
      <trkpt lat="41.197541" lon="1.42831">
        <ele>163.2</ele>
        <time>1970-01-01T02:06:52.000Z</time>
      </trkpt>
      <trkpt lat="41.197534" lon="1.428351">
        <ele>163.3</ele>
        <time>1970-01-01T02:06:53.000Z</time>
      </trkpt>
      <trkpt lat="41.19752" lon="1.42839">
        <ele>163.4</ele>
        <time>1970-01-01T02:06:54.000Z</time>
      </trkpt>
      <trkpt lat="41.197488" lon="1.428448">
        <ele>163.5</ele>
        <time>1970-01-01T02:06:56.000Z</time>
      </trkpt>
      <trkpt lat="41.197476" lon="1.428481">
        <ele>163.6</ele>
        <time>1970-01-01T02:06:57.000Z</time>
      </trkpt>
      <trkpt lat="41.197463" lon="1.428518">
        <ele>163.6</ele>
        <time>1970-01-01T02:06:58.000Z</time>
      </trkpt>
      <trkpt lat="41.197436" lon="1.428587">
        <ele>163.6</ele>
        <time>1970-01-01T02:07:00.000Z</time>
      </trkpt>
      <trkpt lat="41.197416" lon="1.428614">
        <ele>163.6</ele>
        <time>1970-01-01T02:07:01.000Z</time>
      </trkpt>
      <trkpt lat="41.197394" lon="1.428648">
        <ele>163.6</ele>
        <time>1970-01-01T02:07:02.000Z</time>
      </trkpt>
      <trkpt lat="41.197369" lon="1.428684">
        <ele>163.6</ele>
        <time>1970-01-01T02:07:03.000Z</time>
      </trkpt>
      <trkpt lat="41.197341" lon="1.428707">
        <ele>163.5</ele>
        <time>1970-01-01T02:07:04.000Z</time>
      </trkpt>
      <trkpt lat="41.197309" lon="1.428755">
        <ele>163.5</ele>
        <time>1970-01-01T02:07:05.000Z</time>
      </trkpt>
      <trkpt lat="41.197275" lon="1.428787">
        <ele>163.4</ele>
        <time>1970-01-01T02:07:06.000Z</time>
      </trkpt>
      <trkpt lat="41.197232" lon="1.428817">
        <ele>163.3</ele>
        <time>1970-01-01T02:07:07.000Z</time>
      </trkpt>
      <trkpt lat="41.197186" lon="1.428851">
        <ele>163.1</ele>
        <time>1970-01-01T02:07:08.000Z</time>
      </trkpt>
      <trkpt lat="41.197149" lon="1.428899">
        <ele>163</ele>
        <time>1970-01-01T02:07:09.000Z</time>
      </trkpt>
      <trkpt lat="41.197115" lon="1.428936">
        <ele>162.8</ele>
        <time>1970-01-01T02:07:10.000Z</time>
      </trkpt>
      <trkpt lat="41.197089" lon="1.428979">
        <ele>162.7</ele>
        <time>1970-01-01T02:07:11.000Z</time>
      </trkpt>
      <trkpt lat="41.197051" lon="1.429012">
        <ele>162.6</ele>
        <time>1970-01-01T02:07:12.000Z</time>
      </trkpt>
      <trkpt lat="41.197013" lon="1.429053">
        <ele>162.4</ele>
        <time>1970-01-01T02:07:13.000Z</time>
      </trkpt>
      <trkpt lat="41.196959" lon="1.4291">
        <ele>162.2</ele>
        <time>1970-01-01T02:07:14.000Z</time>
      </trkpt>
      <trkpt lat="41.196905" lon="1.429154">
        <ele>162</ele>
        <time>1970-01-01T02:07:15.000Z</time>
      </trkpt>
      <trkpt lat="41.196856" lon="1.429215">
        <ele>161.9</ele>
        <time>1970-01-01T02:07:16.000Z</time>
      </trkpt>
      <trkpt lat="41.196801" lon="1.429269">
        <ele>161.8</ele>
        <time>1970-01-01T02:07:17.000Z</time>
      </trkpt>
      <trkpt lat="41.196752" lon="1.429319">
        <ele>161.8</ele>
        <time>1970-01-01T02:07:18.000Z</time>
      </trkpt>
      <trkpt lat="41.196707" lon="1.429384">
        <ele>161.8</ele>
        <time>1970-01-01T02:07:19.000Z</time>
      </trkpt>
      <trkpt lat="41.196668" lon="1.429438">
        <ele>161.8</ele>
        <time>1970-01-01T02:07:20.000Z</time>
      </trkpt>
      <trkpt lat="41.196632" lon="1.429489">
        <ele>161.9</ele>
        <time>1970-01-01T02:07:21.000Z</time>
      </trkpt>
      <trkpt lat="41.196606" lon="1.42955">
        <ele>162</ele>
        <time>1970-01-01T02:07:22.000Z</time>
      </trkpt>
      <trkpt lat="41.196568" lon="1.429604">
        <ele>162.2</ele>
        <time>1970-01-01T02:07:23.000Z</time>
      </trkpt>
      <trkpt lat="41.196537" lon="1.429661">
        <ele>162.3</ele>
        <time>1970-01-01T02:07:24.000Z</time>
      </trkpt>
      <trkpt lat="41.196504" lon="1.429682">
        <ele>162.4</ele>
        <time>1970-01-01T02:07:25.000Z</time>
      </trkpt>
      <trkpt lat="41.196461" lon="1.429722">
        <ele>162.6</ele>
        <time>1970-01-01T02:07:26.000Z</time>
      </trkpt>
      <trkpt lat="41.196421" lon="1.42976">
        <ele>162.8</ele>
        <time>1970-01-01T02:07:27.000Z</time>
      </trkpt>
      <trkpt lat="41.196385" lon="1.429783">
        <ele>163.1</ele>
        <time>1970-01-01T02:07:28.000Z</time>
      </trkpt>
      <trkpt lat="41.196345" lon="1.429807">
        <ele>163.3</ele>
        <time>1970-01-01T02:07:29.000Z</time>
      </trkpt>
      <trkpt lat="41.196298" lon="1.429845">
        <ele>163.6</ele>
        <time>1970-01-01T02:07:30.000Z</time>
      </trkpt>
      <trkpt lat="41.196259" lon="1.429869">
        <ele>163.8</ele>
        <time>1970-01-01T02:07:31.000Z</time>
      </trkpt>
      <trkpt lat="41.196221" lon="1.429884">
        <ele>164</ele>
        <time>1970-01-01T02:07:32.000Z</time>
      </trkpt>
      <trkpt lat="41.196175" lon="1.429908">
        <ele>164.2</ele>
        <time>1970-01-01T02:07:33.000Z</time>
      </trkpt>
      <trkpt lat="41.196137" lon="1.429927">
        <ele>164.4</ele>
        <time>1970-01-01T02:07:34.000Z</time>
      </trkpt>
      <trkpt lat="41.196096" lon="1.429941">
        <ele>164.6</ele>
        <time>1970-01-01T02:07:35.000Z</time>
      </trkpt>
      <trkpt lat="41.196057" lon="1.429938">
        <ele>164.7</ele>
        <time>1970-01-01T02:07:36.000Z</time>
      </trkpt>
      <trkpt lat="41.196007" lon="1.429941">
        <ele>164.9</ele>
        <time>1970-01-01T02:07:38.000Z</time>
      </trkpt>
      <trkpt lat="41.195974" lon="1.429953">
        <ele>164.9</ele>
        <time>1970-01-01T02:07:39.000Z</time>
      </trkpt>
      <trkpt lat="41.195936" lon="1.429982">
        <ele>164.9</ele>
        <time>1970-01-01T02:07:40.000Z</time>
      </trkpt>
      <trkpt lat="41.195897" lon="1.429994">
        <ele>164.9</ele>
        <time>1970-01-01T02:07:41.000Z</time>
      </trkpt>
      <trkpt lat="41.195858" lon="1.430015">
        <ele>164.9</ele>
        <time>1970-01-01T02:07:42.000Z</time>
      </trkpt>
      <trkpt lat="41.195805" lon="1.430049">
        <ele>164.7</ele>
        <time>1970-01-01T02:07:43.000Z</time>
      </trkpt>
      <trkpt lat="41.195753" lon="1.43007">
        <ele>164.6</ele>
        <time>1970-01-01T02:07:44.000Z</time>
      </trkpt>
      <trkpt lat="41.195714" lon="1.430063">
        <ele>164.4</ele>
        <time>1970-01-01T02:07:45.000Z</time>
      </trkpt>
      <trkpt lat="41.195654" lon="1.430093">
        <ele>164.1</ele>
        <time>1970-01-01T02:07:46.000Z</time>
      </trkpt>
      <trkpt lat="41.195592" lon="1.430125">
        <ele>163.7</ele>
        <time>1970-01-01T02:07:47.000Z</time>
      </trkpt>
      <trkpt lat="41.195552" lon="1.430182">
        <ele>163.3</ele>
        <time>1970-01-01T02:07:48.000Z</time>
      </trkpt>
      <trkpt lat="41.195509" lon="1.430261">
        <ele>162.1</ele>
        <time>1970-01-01T02:07:49.000Z</time>
      </trkpt>
      <trkpt lat="41.195482" lon="1.430353">
        <ele>161.1</ele>
        <time>1970-01-01T02:07:50.000Z</time>
      </trkpt>
      <trkpt lat="41.195434" lon="1.430445">
        <ele>160</ele>
        <time>1970-01-01T02:07:51.000Z</time>
      </trkpt>
      <trkpt lat="41.195384" lon="1.43054">
        <ele>158.7</ele>
        <time>1970-01-01T02:07:52.000Z</time>
      </trkpt>
      <trkpt lat="41.195353" lon="1.430632">
        <ele>157.8</ele>
        <time>1970-01-01T02:07:53.000Z</time>
      </trkpt>
      <trkpt lat="41.195332" lon="1.430725">
        <ele>156.4</ele>
        <time>1970-01-01T02:07:54.000Z</time>
      </trkpt>
      <trkpt lat="41.195311" lon="1.430812">
        <ele>155.2</ele>
        <time>1970-01-01T02:07:55.000Z</time>
      </trkpt>
      <trkpt lat="41.195279" lon="1.430902">
        <ele>153.7</ele>
        <time>1970-01-01T02:07:56.000Z</time>
      </trkpt>
      <trkpt lat="41.195251" lon="1.430987">
        <ele>152.3</ele>
        <time>1970-01-01T02:07:57.000Z</time>
      </trkpt>
      <trkpt lat="41.195228" lon="1.431071">
        <ele>150.8</ele>
        <time>1970-01-01T02:07:58.000Z</time>
      </trkpt>
      <trkpt lat="41.195203" lon="1.431129">
        <ele>149.8</ele>
        <time>1970-01-01T02:07:59.000Z</time>
      </trkpt>
      <trkpt lat="41.195172" lon="1.431184">
        <ele>148.8</ele>
        <time>1970-01-01T02:08:00.000Z</time>
      </trkpt>
      <trkpt lat="41.195138" lon="1.431268">
        <ele>147.5</ele>
        <time>1970-01-01T02:08:01.000Z</time>
      </trkpt>
      <trkpt lat="41.195124" lon="1.43136">
        <ele>146.5</ele>
        <time>1970-01-01T02:08:02.000Z</time>
      </trkpt>
      <trkpt lat="41.195119" lon="1.431454">
        <ele>145.3</ele>
        <time>1970-01-01T02:08:03.000Z</time>
      </trkpt>
      <trkpt lat="41.195134" lon="1.431538">
        <ele>144.3</ele>
        <time>1970-01-01T02:08:04.000Z</time>
      </trkpt>
      <trkpt lat="41.195126" lon="1.431637">
        <ele>143.2</ele>
        <time>1970-01-01T02:08:05.000Z</time>
      </trkpt>
      <trkpt lat="41.195109" lon="1.431743">
        <ele>141.9</ele>
        <time>1970-01-01T02:08:06.000Z</time>
      </trkpt>
      <trkpt lat="41.195086" lon="1.431859">
        <ele>140.7</ele>
        <time>1970-01-01T02:08:07.000Z</time>
      </trkpt>
      <trkpt lat="41.195076" lon="1.431969">
        <ele>139.9</ele>
        <time>1970-01-01T02:08:08.000Z</time>
      </trkpt>
      <trkpt lat="41.195069" lon="1.432087">
        <ele>139.1</ele>
        <time>1970-01-01T02:08:09.000Z</time>
      </trkpt>
      <trkpt lat="41.195054" lon="1.432192">
        <ele>138</ele>
        <time>1970-01-01T02:08:10.000Z</time>
      </trkpt>
      <trkpt lat="41.195026" lon="1.432284">
        <ele>137</ele>
        <time>1970-01-01T02:08:11.000Z</time>
      </trkpt>
      <trkpt lat="41.194995" lon="1.432363">
        <ele>136.1</ele>
        <time>1970-01-01T02:08:12.000Z</time>
      </trkpt>
      <trkpt lat="41.194952" lon="1.432451">
        <ele>135</ele>
        <time>1970-01-01T02:08:13.000Z</time>
      </trkpt>
      <trkpt lat="41.194875" lon="1.43255">
        <ele>133.6</ele>
        <time>1970-01-01T02:08:14.000Z</time>
      </trkpt>
      <trkpt lat="41.194791" lon="1.432649">
        <ele>132.2</ele>
        <time>1970-01-01T02:08:15.000Z</time>
      </trkpt>
      <trkpt lat="41.194725" lon="1.432733">
        <ele>131.6</ele>
        <time>1970-01-01T02:08:16.000Z</time>
      </trkpt>
      <trkpt lat="41.194648" lon="1.432813">
        <ele>131</ele>
        <time>1970-01-01T02:08:17.000Z</time>
      </trkpt>
      <trkpt lat="41.194572" lon="1.432881">
        <ele>130.4</ele>
        <time>1970-01-01T02:08:18.000Z</time>
      </trkpt>
      <trkpt lat="41.194495" lon="1.432963">
        <ele>129.8</ele>
        <time>1970-01-01T02:08:19.000Z</time>
      </trkpt>
      <trkpt lat="41.194414" lon="1.433042">
        <ele>129.4</ele>
        <time>1970-01-01T02:08:20.000Z</time>
      </trkpt>
      <trkpt lat="41.194346" lon="1.43312">
        <ele>129.1</ele>
        <time>1970-01-01T02:08:21.000Z</time>
      </trkpt>
      <trkpt lat="41.19428" lon="1.433184">
        <ele>128.7</ele>
        <time>1970-01-01T02:08:22.000Z</time>
      </trkpt>
      <trkpt lat="41.19423" lon="1.433242">
        <ele>128.3</ele>
        <time>1970-01-01T02:08:23.000Z</time>
      </trkpt>
      <trkpt lat="41.194178" lon="1.433289">
        <ele>127.7</ele>
        <time>1970-01-01T02:08:24.000Z</time>
      </trkpt>
      <trkpt lat="41.194106" lon="1.433308">
        <ele>126.8</ele>
        <time>1970-01-01T02:08:25.000Z</time>
      </trkpt>
      <trkpt lat="41.194035" lon="1.433311">
        <ele>125.8</ele>
        <time>1970-01-01T02:08:26.000Z</time>
      </trkpt>
      <trkpt lat="41.193966" lon="1.433331">
        <ele>124.7</ele>
        <time>1970-01-01T02:08:27.000Z</time>
      </trkpt>
      <trkpt lat="41.193897" lon="1.433379">
        <ele>123.4</ele>
        <time>1970-01-01T02:08:28.000Z</time>
      </trkpt>
      <trkpt lat="41.193827" lon="1.433456">
        <ele>121.9</ele>
        <time>1970-01-01T02:08:29.000Z</time>
      </trkpt>
      <trkpt lat="41.193746" lon="1.433521">
        <ele>120.7</ele>
        <time>1970-01-01T02:08:30.000Z</time>
      </trkpt>
      <trkpt lat="41.193656" lon="1.43357">
        <ele>119.6</ele>
        <time>1970-01-01T02:08:31.000Z</time>
      </trkpt>
      <trkpt lat="41.193561" lon="1.433616">
        <ele>118.4</ele>
        <time>1970-01-01T02:08:32.000Z</time>
      </trkpt>
      <trkpt lat="41.193471" lon="1.433686">
        <ele>117.6</ele>
        <time>1970-01-01T02:08:33.000Z</time>
      </trkpt>
      <trkpt lat="41.193382" lon="1.433765">
        <ele>117</ele>
        <time>1970-01-01T02:08:34.000Z</time>
      </trkpt>
      <trkpt lat="41.193295" lon="1.43384">
        <ele>116.5</ele>
        <time>1970-01-01T02:08:35.000Z</time>
      </trkpt>
      <trkpt lat="41.193213" lon="1.433905">
        <ele>116</ele>
        <time>1970-01-01T02:08:36.000Z</time>
      </trkpt>
      <trkpt lat="41.193134" lon="1.433985">
        <ele>115.1</ele>
        <time>1970-01-01T02:08:37.000Z</time>
      </trkpt>
      <trkpt lat="41.193058" lon="1.434072">
        <ele>114.6</ele>
        <time>1970-01-01T02:08:38.000Z</time>
      </trkpt>
      <trkpt lat="41.192976" lon="1.434168">
        <ele>114.2</ele>
        <time>1970-01-01T02:08:39.000Z</time>
      </trkpt>
      <trkpt lat="41.192895" lon="1.434252">
        <ele>113.9</ele>
        <time>1970-01-01T02:08:40.000Z</time>
      </trkpt>
      <trkpt lat="41.192814" lon="1.434349">
        <ele>113.6</ele>
        <time>1970-01-01T02:08:41.000Z</time>
      </trkpt>
      <trkpt lat="41.192741" lon="1.434426">
        <ele>113.3</ele>
        <time>1970-01-01T02:08:42.000Z</time>
      </trkpt>
      <trkpt lat="41.192655" lon="1.43451">
        <ele>112.8</ele>
        <time>1970-01-01T02:08:43.000Z</time>
      </trkpt>
      <trkpt lat="41.192585" lon="1.434572">
        <ele>112.3</ele>
        <time>1970-01-01T02:08:44.000Z</time>
      </trkpt>
      <trkpt lat="41.192526" lon="1.434652">
        <ele>111.6</ele>
        <time>1970-01-01T02:08:45.000Z</time>
      </trkpt>
      <trkpt lat="41.192466" lon="1.43476">
        <ele>110.7</ele>
        <time>1970-01-01T02:08:46.000Z</time>
      </trkpt>
      <trkpt lat="41.192407" lon="1.434878">
        <ele>109.6</ele>
        <time>1970-01-01T02:08:47.000Z</time>
      </trkpt>
      <trkpt lat="41.192363" lon="1.43499">
        <ele>108.5</ele>
        <time>1970-01-01T02:08:48.000Z</time>
      </trkpt>
      <trkpt lat="41.192317" lon="1.435082">
        <ele>107.4</ele>
        <time>1970-01-01T02:08:49.000Z</time>
      </trkpt>
      <trkpt lat="41.192275" lon="1.435172">
        <ele>106.2</ele>
        <time>1970-01-01T02:08:50.000Z</time>
      </trkpt>
      <trkpt lat="41.19222" lon="1.435258">
        <ele>104.7</ele>
        <time>1970-01-01T02:08:51.000Z</time>
      </trkpt>
      <trkpt lat="41.192168" lon="1.43534">
        <ele>103.1</ele>
        <time>1970-01-01T02:08:52.000Z</time>
      </trkpt>
      <trkpt lat="41.192127" lon="1.4354">
        <ele>102.1</ele>
        <time>1970-01-01T02:08:53.000Z</time>
      </trkpt>
      <trkpt lat="41.19209" lon="1.435459">
        <ele>101.2</ele>
        <time>1970-01-01T02:08:54.000Z</time>
      </trkpt>
      <trkpt lat="41.192055" lon="1.435523">
        <ele>100.4</ele>
        <time>1970-01-01T02:08:55.000Z</time>
      </trkpt>
      <trkpt lat="41.19202" lon="1.43559">
        <ele>99.7</ele>
        <time>1970-01-01T02:08:56.000Z</time>
      </trkpt>
      <trkpt lat="41.191991" lon="1.435663">
        <ele>99</ele>
        <time>1970-01-01T02:08:57.000Z</time>
      </trkpt>
      <trkpt lat="41.191971" lon="1.435745">
        <ele>98.2</ele>
        <time>1970-01-01T02:08:58.000Z</time>
      </trkpt>
      <trkpt lat="41.19196" lon="1.435837">
        <ele>97.2</ele>
        <time>1970-01-01T02:08:59.000Z</time>
      </trkpt>
      <trkpt lat="41.191962" lon="1.435934">
        <ele>96.2</ele>
        <time>1970-01-01T02:09:00.000Z</time>
      </trkpt>
      <trkpt lat="41.191987" lon="1.436023">
        <ele>95.3</ele>
        <time>1970-01-01T02:09:01.000Z</time>
      </trkpt>
      <trkpt lat="41.191985" lon="1.436115">
        <ele>94.5</ele>
        <time>1970-01-01T02:09:02.000Z</time>
      </trkpt>
      <trkpt lat="41.191963" lon="1.436208">
        <ele>93.5</ele>
        <time>1970-01-01T02:09:03.000Z</time>
      </trkpt>
      <trkpt lat="41.191956" lon="1.436306">
        <ele>92.7</ele>
        <time>1970-01-01T02:09:04.000Z</time>
      </trkpt>
      <trkpt lat="41.191948" lon="1.436409">
        <ele>91.9</ele>
        <time>1970-01-01T02:09:05.000Z</time>
      </trkpt>
      <trkpt lat="41.191932" lon="1.436505">
        <ele>91.1</ele>
        <time>1970-01-01T02:09:06.000Z</time>
      </trkpt>
      <trkpt lat="41.19191" lon="1.436599">
        <ele>90.3</ele>
        <time>1970-01-01T02:09:07.000Z</time>
      </trkpt>
      <trkpt lat="41.191891" lon="1.436679">
        <ele>89.6</ele>
        <time>1970-01-01T02:09:08.000Z</time>
      </trkpt>
      <trkpt lat="41.191871" lon="1.436752">
        <ele>88.9</ele>
        <time>1970-01-01T02:09:09.000Z</time>
      </trkpt>
      <trkpt lat="41.19185" lon="1.436833">
        <ele>88.3</ele>
        <time>1970-01-01T02:09:10.000Z</time>
      </trkpt>
      <trkpt lat="41.191825" lon="1.436913">
        <ele>87.7</ele>
        <time>1970-01-01T02:09:11.000Z</time>
      </trkpt>
      <trkpt lat="41.191803" lon="1.436993">
        <ele>87.2</ele>
        <time>1970-01-01T02:09:12.000Z</time>
      </trkpt>
      <trkpt lat="41.191772" lon="1.437081">
        <ele>86.6</ele>
        <time>1970-01-01T02:09:13.000Z</time>
      </trkpt>
      <trkpt lat="41.191728" lon="1.43717">
        <ele>85.8</ele>
        <time>1970-01-01T02:09:14.000Z</time>
      </trkpt>
      <trkpt lat="41.191674" lon="1.437267">
        <ele>85.1</ele>
        <time>1970-01-01T02:09:15.000Z</time>
      </trkpt>
      <trkpt lat="41.191629" lon="1.437357">
        <ele>84.3</ele>
        <time>1970-01-01T02:09:16.000Z</time>
      </trkpt>
      <trkpt lat="41.191596" lon="1.437456">
        <ele>83.5</ele>
        <time>1970-01-01T02:09:17.000Z</time>
      </trkpt>
      <trkpt lat="41.191555" lon="1.43756">
        <ele>82.6</ele>
        <time>1970-01-01T02:09:18.000Z</time>
      </trkpt>
      <trkpt lat="41.191511" lon="1.437673">
        <ele>81.7</ele>
        <time>1970-01-01T02:09:19.000Z</time>
      </trkpt>
      <trkpt lat="41.191468" lon="1.437787">
        <ele>80.9</ele>
        <time>1970-01-01T02:09:20.000Z</time>
      </trkpt>
      <trkpt lat="41.191412" lon="1.437898">
        <ele>80.1</ele>
        <time>1970-01-01T02:09:21.000Z</time>
      </trkpt>
      <trkpt lat="41.191354" lon="1.438012">
        <ele>79.3</ele>
        <time>1970-01-01T02:09:22.000Z</time>
      </trkpt>
      <trkpt lat="41.191288" lon="1.438123">
        <ele>78.6</ele>
        <time>1970-01-01T02:09:23.000Z</time>
      </trkpt>
      <trkpt lat="41.19123" lon="1.43823">
        <ele>77.8</ele>
        <time>1970-01-01T02:09:24.000Z</time>
      </trkpt>
      <trkpt lat="41.19118" lon="1.438327">
        <ele>76.9</ele>
        <time>1970-01-01T02:09:25.000Z</time>
      </trkpt>
      <trkpt lat="41.19114" lon="1.438428">
        <ele>76</ele>
        <time>1970-01-01T02:09:26.000Z</time>
      </trkpt>
      <trkpt lat="41.191122" lon="1.438542">
        <ele>75</ele>
        <time>1970-01-01T02:09:27.000Z</time>
      </trkpt>
      <trkpt lat="41.191097" lon="1.438658">
        <ele>73.9</ele>
        <time>1970-01-01T02:09:28.000Z</time>
      </trkpt>
      <trkpt lat="41.191084" lon="1.438774">
        <ele>72.9</ele>
        <time>1970-01-01T02:09:29.000Z</time>
      </trkpt>
      <trkpt lat="41.191072" lon="1.438893">
        <ele>72</ele>
        <time>1970-01-01T02:09:30.000Z</time>
      </trkpt>
      <trkpt lat="41.191064" lon="1.439012">
        <ele>71.4</ele>
        <time>1970-01-01T02:09:31.000Z</time>
      </trkpt>
      <trkpt lat="41.19104" lon="1.439125">
        <ele>71</ele>
        <time>1970-01-01T02:09:32.000Z</time>
      </trkpt>
      <trkpt lat="41.191004" lon="1.439235">
        <ele>70.6</ele>
        <time>1970-01-01T02:09:33.000Z</time>
      </trkpt>
      <trkpt lat="41.190972" lon="1.439343">
        <ele>70.4</ele>
        <time>1970-01-01T02:09:34.000Z</time>
      </trkpt>
      <trkpt lat="41.190942" lon="1.439426">
        <ele>70.8</ele>
        <time>1970-01-01T02:09:35.000Z</time>
      </trkpt>
      <trkpt lat="41.190918" lon="1.439464">
        <ele>71.1</ele>
        <time>1970-01-01T02:09:36.000Z</time>
      </trkpt>
      <trkpt lat="41.19089" lon="1.439473">
        <ele>71.3</ele>
        <time>1970-01-01T02:09:37.000Z</time>
      </trkpt>
      <trkpt lat="41.190842" lon="1.439447">
        <ele>71.5</ele>
        <time>1970-01-01T02:09:38.000Z</time>
      </trkpt>
      <trkpt lat="41.190786" lon="1.439445">
        <ele>71.8</ele>
        <time>1970-01-01T02:09:39.000Z</time>
      </trkpt>
      <trkpt lat="41.190721" lon="1.439436">
        <ele>72.1</ele>
        <time>1970-01-01T02:09:40.000Z</time>
      </trkpt>
      <trkpt lat="41.19066" lon="1.43943">
        <ele>72.2</ele>
        <time>1970-01-01T02:09:41.000Z</time>
      </trkpt>
      <trkpt lat="41.190604" lon="1.43944">
        <ele>72.4</ele>
        <time>1970-01-01T02:09:42.000Z</time>
      </trkpt>
      <trkpt lat="41.190551" lon="1.439448">
        <ele>72.4</ele>
        <time>1970-01-01T02:09:43.000Z</time>
      </trkpt>
      <trkpt lat="41.190491" lon="1.439448">
        <ele>72.5</ele>
        <time>1970-01-01T02:09:44.000Z</time>
      </trkpt>
      <trkpt lat="41.190436" lon="1.439456">
        <ele>72.5</ele>
        <time>1970-01-01T02:09:45.000Z</time>
      </trkpt>
      <trkpt lat="41.190375" lon="1.439469">
        <ele>72.5</ele>
        <time>1970-01-01T02:09:46.000Z</time>
      </trkpt>
      <trkpt lat="41.190321" lon="1.439482">
        <ele>72.5</ele>
        <time>1970-01-01T02:09:47.000Z</time>
      </trkpt>
      <trkpt lat="41.190261" lon="1.439493">
        <ele>72.6</ele>
        <time>1970-01-01T02:09:48.000Z</time>
      </trkpt>
      <trkpt lat="41.190197" lon="1.439508">
        <ele>72.6</ele>
        <time>1970-01-01T02:09:49.000Z</time>
      </trkpt>
      <trkpt lat="41.190132" lon="1.43952">
        <ele>72.6</ele>
        <time>1970-01-01T02:09:50.000Z</time>
      </trkpt>
      <trkpt lat="41.190066" lon="1.439535">
        <ele>72.7</ele>
        <time>1970-01-01T02:09:51.000Z</time>
      </trkpt>
      <trkpt lat="41.190016" lon="1.43953">
        <ele>72.7</ele>
        <time>1970-01-01T02:09:52.000Z</time>
      </trkpt>
      <trkpt lat="41.189951" lon="1.43954">
        <ele>72.8</ele>
        <time>1970-01-01T02:09:53.000Z</time>
      </trkpt>
      <trkpt lat="41.189888" lon="1.439552">
        <ele>72.9</ele>
        <time>1970-01-01T02:09:54.000Z</time>
      </trkpt>
      <trkpt lat="41.189814" lon="1.439569">
        <ele>73</ele>
        <time>1970-01-01T02:09:55.000Z</time>
      </trkpt>
      <trkpt lat="41.189753" lon="1.439587">
        <ele>73.1</ele>
        <time>1970-01-01T02:09:56.000Z</time>
      </trkpt>
      <trkpt lat="41.189695" lon="1.439598">
        <ele>73.2</ele>
        <time>1970-01-01T02:09:57.000Z</time>
      </trkpt>
      <trkpt lat="41.189637" lon="1.439611">
        <ele>73.3</ele>
        <time>1970-01-01T02:09:58.000Z</time>
      </trkpt>
      <trkpt lat="41.189576" lon="1.439628">
        <ele>73.4</ele>
        <time>1970-01-01T02:09:59.000Z</time>
      </trkpt>
      <trkpt lat="41.189517" lon="1.439643">
        <ele>73.5</ele>
        <time>1970-01-01T02:10:00.000Z</time>
      </trkpt>
      <trkpt lat="41.18945" lon="1.439645">
        <ele>73.7</ele>
        <time>1970-01-01T02:10:01.000Z</time>
      </trkpt>
      <trkpt lat="41.189383" lon="1.439668">
        <ele>73.8</ele>
        <time>1970-01-01T02:10:02.000Z</time>
      </trkpt>
      <trkpt lat="41.18932" lon="1.439684">
        <ele>73.8</ele>
        <time>1970-01-01T02:10:03.000Z</time>
      </trkpt>
      <trkpt lat="41.189248" lon="1.439698">
        <ele>73.9</ele>
        <time>1970-01-01T02:10:04.000Z</time>
      </trkpt>
      <trkpt lat="41.189181" lon="1.439713">
        <ele>73.9</ele>
        <time>1970-01-01T02:10:05.000Z</time>
      </trkpt>
      <trkpt lat="41.189114" lon="1.439732">
        <ele>73.9</ele>
        <time>1970-01-01T02:10:06.000Z</time>
      </trkpt>
      <trkpt lat="41.189054" lon="1.439745">
        <ele>73.9</ele>
        <time>1970-01-01T02:10:07.000Z</time>
      </trkpt>
      <trkpt lat="41.188998" lon="1.43976">
        <ele>73.9</ele>
        <time>1970-01-01T02:10:08.000Z</time>
      </trkpt>
      <trkpt lat="41.188933" lon="1.439781">
        <ele>74</ele>
        <time>1970-01-01T02:10:09.000Z</time>
      </trkpt>
      <trkpt lat="41.188894" lon="1.439801">
        <ele>74.1</ele>
        <time>1970-01-01T02:10:10.000Z</time>
      </trkpt>
      <trkpt lat="41.188837" lon="1.439816">
        <ele>74.2</ele>
        <time>1970-01-01T02:10:11.000Z</time>
      </trkpt>
      <trkpt lat="41.188786" lon="1.439833">
        <ele>74.2</ele>
        <time>1970-01-01T02:10:12.000Z</time>
      </trkpt>
      <trkpt lat="41.188724" lon="1.439848">
        <ele>74.3</ele>
        <time>1970-01-01T02:10:13.000Z</time>
      </trkpt>
      <trkpt lat="41.188669" lon="1.439853">
        <ele>74.4</ele>
        <time>1970-01-01T02:10:14.000Z</time>
      </trkpt>
      <trkpt lat="41.188615" lon="1.439864">
        <ele>74.5</ele>
        <time>1970-01-01T02:10:15.000Z</time>
      </trkpt>
      <trkpt lat="41.188567" lon="1.439878">
        <ele>74.5</ele>
        <time>1970-01-01T02:10:16.000Z</time>
      </trkpt>
      <trkpt lat="41.188509" lon="1.439892">
        <ele>74.5</ele>
        <time>1970-01-01T02:10:17.000Z</time>
      </trkpt>
      <trkpt lat="41.188456" lon="1.439924">
        <ele>74.6</ele>
        <time>1970-01-01T02:10:18.000Z</time>
      </trkpt>
      <trkpt lat="41.188406" lon="1.439937">
        <ele>74.6</ele>
        <time>1970-01-01T02:10:19.000Z</time>
      </trkpt>
      <trkpt lat="41.18835" lon="1.439958">
        <ele>74.6</ele>
        <time>1970-01-01T02:10:20.000Z</time>
      </trkpt>
      <trkpt lat="41.188287" lon="1.439979">
        <ele>74.7</ele>
        <time>1970-01-01T02:10:21.000Z</time>
      </trkpt>
      <trkpt lat="41.188217" lon="1.440006">
        <ele>74.8</ele>
        <time>1970-01-01T02:10:22.000Z</time>
      </trkpt>
      <trkpt lat="41.18816" lon="1.440028">
        <ele>74.9</ele>
        <time>1970-01-01T02:10:23.000Z</time>
      </trkpt>
      <trkpt lat="41.188097" lon="1.440045">
        <ele>74.9</ele>
        <time>1970-01-01T02:10:24.000Z</time>
      </trkpt>
      <trkpt lat="41.18803" lon="1.440055">
        <ele>75</ele>
        <time>1970-01-01T02:10:25.000Z</time>
      </trkpt>
      <trkpt lat="41.187968" lon="1.440073">
        <ele>75.1</ele>
        <time>1970-01-01T02:10:26.000Z</time>
      </trkpt>
      <trkpt lat="41.187914" lon="1.4401">
        <ele>75.3</ele>
        <time>1970-01-01T02:10:27.000Z</time>
      </trkpt>
      <trkpt lat="41.187855" lon="1.440122">
        <ele>75.4</ele>
        <time>1970-01-01T02:10:28.000Z</time>
      </trkpt>
      <trkpt lat="41.187795" lon="1.440148">
        <ele>75.6</ele>
        <time>1970-01-01T02:10:29.000Z</time>
      </trkpt>
      <trkpt lat="41.18773" lon="1.440169">
        <ele>75.6</ele>
        <time>1970-01-01T02:10:30.000Z</time>
      </trkpt>
      <trkpt lat="41.187661" lon="1.440208">
        <ele>75.3</ele>
        <time>1970-01-01T02:10:31.000Z</time>
      </trkpt>
      <trkpt lat="41.187597" lon="1.440234">
        <ele>75</ele>
        <time>1970-01-01T02:10:32.000Z</time>
      </trkpt>
      <trkpt lat="41.187532" lon="1.440271">
        <ele>74.7</ele>
        <time>1970-01-01T02:10:33.000Z</time>
      </trkpt>
      <trkpt lat="41.187472" lon="1.44031">
        <ele>74.4</ele>
        <time>1970-01-01T02:10:34.000Z</time>
      </trkpt>
      <trkpt lat="41.187407" lon="1.440354">
        <ele>74.1</ele>
        <time>1970-01-01T02:10:35.000Z</time>
      </trkpt>
      <trkpt lat="41.187347" lon="1.440384">
        <ele>73.8</ele>
        <time>1970-01-01T02:10:36.000Z</time>
      </trkpt>
      <trkpt lat="41.18729" lon="1.440426">
        <ele>73.6</ele>
        <time>1970-01-01T02:10:37.000Z</time>
      </trkpt>
      <trkpt lat="41.187241" lon="1.440472">
        <ele>73.4</ele>
        <time>1970-01-01T02:10:38.000Z</time>
      </trkpt>
      <trkpt lat="41.18719" lon="1.440519">
        <ele>73.3</ele>
        <time>1970-01-01T02:10:39.000Z</time>
      </trkpt>
      <trkpt lat="41.187138" lon="1.440576">
        <ele>73.1</ele>
        <time>1970-01-01T02:10:40.000Z</time>
      </trkpt>
      <trkpt lat="41.187083" lon="1.440628">
        <ele>72.9</ele>
        <time>1970-01-01T02:10:41.000Z</time>
      </trkpt>
      <trkpt lat="41.187022" lon="1.440679">
        <ele>72.7</ele>
        <time>1970-01-01T02:10:42.000Z</time>
      </trkpt>
      <trkpt lat="41.186962" lon="1.44073">
        <ele>72.4</ele>
        <time>1970-01-01T02:10:43.000Z</time>
      </trkpt>
      <trkpt lat="41.186902" lon="1.440777">
        <ele>72.1</ele>
        <time>1970-01-01T02:10:44.000Z</time>
      </trkpt>
      <trkpt lat="41.186845" lon="1.440819">
        <ele>71.7</ele>
        <time>1970-01-01T02:10:45.000Z</time>
      </trkpt>
      <trkpt lat="41.186779" lon="1.440871">
        <ele>71.2</ele>
        <time>1970-01-01T02:10:46.000Z</time>
      </trkpt>
      <trkpt lat="41.186725" lon="1.440925">
        <ele>70.8</ele>
        <time>1970-01-01T02:10:47.000Z</time>
      </trkpt>
      <trkpt lat="41.186667" lon="1.44098">
        <ele>70.4</ele>
        <time>1970-01-01T02:10:48.000Z</time>
      </trkpt>
      <trkpt lat="41.186607" lon="1.441042">
        <ele>70</ele>
        <time>1970-01-01T02:10:49.000Z</time>
      </trkpt>
      <trkpt lat="41.186544" lon="1.441095">
        <ele>69.5</ele>
        <time>1970-01-01T02:10:50.000Z</time>
      </trkpt>
      <trkpt lat="41.186481" lon="1.441153">
        <ele>69.1</ele>
        <time>1970-01-01T02:10:51.000Z</time>
      </trkpt>
      <trkpt lat="41.186418" lon="1.441215">
        <ele>69.1</ele>
        <time>1970-01-01T02:10:52.000Z</time>
      </trkpt>
      <trkpt lat="41.18635" lon="1.441276">
        <ele>68.7</ele>
        <time>1970-01-01T02:10:53.000Z</time>
      </trkpt>
      <trkpt lat="41.186284" lon="1.441343">
        <ele>68.2</ele>
        <time>1970-01-01T02:10:54.000Z</time>
      </trkpt>
      <trkpt lat="41.186215" lon="1.441412">
        <ele>67.6</ele>
        <time>1970-01-01T02:10:55.000Z</time>
      </trkpt>
      <trkpt lat="41.186147" lon="1.441488">
        <ele>67.1</ele>
        <time>1970-01-01T02:10:56.000Z</time>
      </trkpt>
      <trkpt lat="41.186081" lon="1.441572">
        <ele>66.4</ele>
        <time>1970-01-01T02:10:57.000Z</time>
      </trkpt>
      <trkpt lat="41.186016" lon="1.441663">
        <ele>65.8</ele>
        <time>1970-01-01T02:10:58.000Z</time>
      </trkpt>
      <trkpt lat="41.185951" lon="1.441758">
        <ele>65.1</ele>
        <time>1970-01-01T02:10:59.000Z</time>
      </trkpt>
      <trkpt lat="41.185887" lon="1.441858">
        <ele>64.5</ele>
        <time>1970-01-01T02:11:00.000Z</time>
      </trkpt>
      <trkpt lat="41.185829" lon="1.44197">
        <ele>63.8</ele>
        <time>1970-01-01T02:11:01.000Z</time>
      </trkpt>
      <trkpt lat="41.185781" lon="1.442089">
        <ele>63.1</ele>
        <time>1970-01-01T02:11:02.000Z</time>
      </trkpt>
      <trkpt lat="41.185737" lon="1.442213">
        <ele>62.5</ele>
        <time>1970-01-01T02:11:03.000Z</time>
      </trkpt>
      <trkpt lat="41.185694" lon="1.442339">
        <ele>61.9</ele>
        <time>1970-01-01T02:11:04.000Z</time>
      </trkpt>
      <trkpt lat="41.185651" lon="1.442467">
        <ele>61.3</ele>
        <time>1970-01-01T02:11:05.000Z</time>
      </trkpt>
      <trkpt lat="41.185611" lon="1.442595">
        <ele>60.7</ele>
        <time>1970-01-01T02:11:06.000Z</time>
      </trkpt>
      <trkpt lat="41.185572" lon="1.442724">
        <ele>60.1</ele>
        <time>1970-01-01T02:11:07.000Z</time>
      </trkpt>
      <trkpt lat="41.18553" lon="1.442851">
        <ele>59.5</ele>
        <time>1970-01-01T02:11:08.000Z</time>
      </trkpt>
      <trkpt lat="41.185491" lon="1.442978">
        <ele>58.9</ele>
        <time>1970-01-01T02:11:09.000Z</time>
      </trkpt>
      <trkpt lat="41.185452" lon="1.443106">
        <ele>58.4</ele>
        <time>1970-01-01T02:11:10.000Z</time>
      </trkpt>
      <trkpt lat="41.185417" lon="1.443235">
        <ele>57.9</ele>
        <time>1970-01-01T02:11:11.000Z</time>
      </trkpt>
      <trkpt lat="41.185383" lon="1.443364">
        <ele>57.3</ele>
        <time>1970-01-01T02:11:12.000Z</time>
      </trkpt>
      <trkpt lat="41.185357" lon="1.443494">
        <ele>56.9</ele>
        <time>1970-01-01T02:11:13.000Z</time>
      </trkpt>
      <trkpt lat="41.185341" lon="1.443628">
        <ele>56.4</ele>
        <time>1970-01-01T02:11:14.000Z</time>
      </trkpt>
      <trkpt lat="41.185334" lon="1.443764">
        <ele>56</ele>
        <time>1970-01-01T02:11:15.000Z</time>
      </trkpt>
      <trkpt lat="41.185331" lon="1.4439">
        <ele>55.5</ele>
        <time>1970-01-01T02:11:16.000Z</time>
      </trkpt>
      <trkpt lat="41.185334" lon="1.444037">
        <ele>55.5</ele>
        <time>1970-01-01T02:11:17.000Z</time>
      </trkpt>
      <trkpt lat="41.185337" lon="1.444173">
        <ele>55.6</ele>
        <time>1970-01-01T02:11:18.000Z</time>
      </trkpt>
      <trkpt lat="41.185338" lon="1.444308">
        <ele>55.8</ele>
        <time>1970-01-01T02:11:19.000Z</time>
      </trkpt>
      <trkpt lat="41.185344" lon="1.444447">
        <ele>55.9</ele>
        <time>1970-01-01T02:11:20.000Z</time>
      </trkpt>
      <trkpt lat="41.185351" lon="1.444585">
        <ele>56.1</ele>
        <time>1970-01-01T02:11:21.000Z</time>
      </trkpt>
      <trkpt lat="41.185352" lon="1.444721">
        <ele>56.4</ele>
        <time>1970-01-01T02:11:22.000Z</time>
      </trkpt>
      <trkpt lat="41.185354" lon="1.44485">
        <ele>56.5</ele>
        <time>1970-01-01T02:11:23.000Z</time>
      </trkpt>
      <trkpt lat="41.185351" lon="1.444975">
        <ele>56.6</ele>
        <time>1970-01-01T02:11:24.000Z</time>
      </trkpt>
      <trkpt lat="41.185343" lon="1.445096">
        <ele>56.6</ele>
        <time>1970-01-01T02:11:25.000Z</time>
      </trkpt>
      <trkpt lat="41.18533" lon="1.445214">
        <ele>56.5</ele>
        <time>1970-01-01T02:11:26.000Z</time>
      </trkpt>
      <trkpt lat="41.185313" lon="1.445327">
        <ele>56.4</ele>
        <time>1970-01-01T02:11:27.000Z</time>
      </trkpt>
      <trkpt lat="41.185289" lon="1.445441">
        <ele>56.2</ele>
        <time>1970-01-01T02:11:28.000Z</time>
      </trkpt>
      <trkpt lat="41.185254" lon="1.445546">
        <ele>55.9</ele>
        <time>1970-01-01T02:11:29.000Z</time>
      </trkpt>
      <trkpt lat="41.18521" lon="1.445644">
        <ele>55.7</ele>
        <time>1970-01-01T02:11:30.000Z</time>
      </trkpt>
      <trkpt lat="41.185161" lon="1.445736">
        <ele>55.5</ele>
        <time>1970-01-01T02:11:31.000Z</time>
      </trkpt>
      <trkpt lat="41.185114" lon="1.445827">
        <ele>55.3</ele>
        <time>1970-01-01T02:11:32.000Z</time>
      </trkpt>
      <trkpt lat="41.18507" lon="1.445915">
        <ele>55.2</ele>
        <time>1970-01-01T02:11:33.000Z</time>
      </trkpt>
      <trkpt lat="41.185014" lon="1.445988">
        <ele>55.1</ele>
        <time>1970-01-01T02:11:34.000Z</time>
      </trkpt>
      <trkpt lat="41.184951" lon="1.446051">
        <ele>55</ele>
        <time>1970-01-01T02:11:35.000Z</time>
      </trkpt>
      <trkpt lat="41.18489" lon="1.446107">
        <ele>55</ele>
        <time>1970-01-01T02:11:36.000Z</time>
      </trkpt>
      <trkpt lat="41.18482" lon="1.446156">
        <ele>54.9</ele>
        <time>1970-01-01T02:11:37.000Z</time>
      </trkpt>
      <trkpt lat="41.184757" lon="1.446213">
        <ele>54.9</ele>
        <time>1970-01-01T02:11:38.000Z</time>
      </trkpt>
      <trkpt lat="41.184694" lon="1.446263">
        <ele>54.9</ele>
        <time>1970-01-01T02:11:39.000Z</time>
      </trkpt>
      <trkpt lat="41.184637" lon="1.446324">
        <ele>54.9</ele>
        <time>1970-01-01T02:11:40.000Z</time>
      </trkpt>
      <trkpt lat="41.184582" lon="1.44638">
        <ele>54.9</ele>
        <time>1970-01-01T02:11:41.000Z</time>
      </trkpt>
      <trkpt lat="41.184537" lon="1.44644">
        <ele>54.9</ele>
        <time>1970-01-01T02:11:42.000Z</time>
      </trkpt>
      <trkpt lat="41.184494" lon="1.446505">
        <ele>54.9</ele>
        <time>1970-01-01T02:11:43.000Z</time>
      </trkpt>
      <trkpt lat="41.184455" lon="1.44657">
        <ele>54.9</ele>
        <time>1970-01-01T02:11:44.000Z</time>
      </trkpt>
      <trkpt lat="41.184424" lon="1.446647">
        <ele>54.9</ele>
        <time>1970-01-01T02:11:45.000Z</time>
      </trkpt>
      <trkpt lat="41.18439" lon="1.446717">
        <ele>54.9</ele>
        <time>1970-01-01T02:11:46.000Z</time>
      </trkpt>
      <trkpt lat="41.18436" lon="1.446781">
        <ele>54.9</ele>
        <time>1970-01-01T02:11:47.000Z</time>
      </trkpt>
      <trkpt lat="41.184335" lon="1.446848">
        <ele>55</ele>
        <time>1970-01-01T02:11:48.000Z</time>
      </trkpt>
      <trkpt lat="41.184312" lon="1.446912">
        <ele>55</ele>
        <time>1970-01-01T02:11:49.000Z</time>
      </trkpt>
      <trkpt lat="41.184293" lon="1.446981">
        <ele>55</ele>
        <time>1970-01-01T02:11:50.000Z</time>
      </trkpt>
      <trkpt lat="41.184272" lon="1.447051">
        <ele>55.1</ele>
        <time>1970-01-01T02:11:51.000Z</time>
      </trkpt>
      <trkpt lat="41.184248" lon="1.447122">
        <ele>55.2</ele>
        <time>1970-01-01T02:11:52.000Z</time>
      </trkpt>
      <trkpt lat="41.184233" lon="1.447199">
        <ele>55.3</ele>
        <time>1970-01-01T02:11:53.000Z</time>
      </trkpt>
      <trkpt lat="41.184226" lon="1.447271">
        <ele>55.4</ele>
        <time>1970-01-01T02:11:54.000Z</time>
      </trkpt>
      <trkpt lat="41.18422" lon="1.447347">
        <ele>55.6</ele>
        <time>1970-01-01T02:11:55.000Z</time>
      </trkpt>
      <trkpt lat="41.184213" lon="1.447421">
        <ele>55.8</ele>
        <time>1970-01-01T02:11:56.000Z</time>
      </trkpt>
      <trkpt lat="41.184208" lon="1.447487">
        <ele>56</ele>
        <time>1970-01-01T02:11:57.000Z</time>
      </trkpt>
      <trkpt lat="41.184211" lon="1.447563">
        <ele>56.2</ele>
        <time>1970-01-01T02:11:58.000Z</time>
      </trkpt>
      <trkpt lat="41.184218" lon="1.447645">
        <ele>56.4</ele>
        <time>1970-01-01T02:11:59.000Z</time>
      </trkpt>
      <trkpt lat="41.184228" lon="1.447729">
        <ele>56.6</ele>
        <time>1970-01-01T02:12:00.000Z</time>
      </trkpt>
      <trkpt lat="41.18423" lon="1.447801">
        <ele>56.7</ele>
        <time>1970-01-01T02:12:01.000Z</time>
      </trkpt>
      <trkpt lat="41.184234" lon="1.447868">
        <ele>56.9</ele>
        <time>1970-01-01T02:12:02.000Z</time>
      </trkpt>
      <trkpt lat="41.184235" lon="1.447935">
        <ele>57.1</ele>
        <time>1970-01-01T02:12:03.000Z</time>
      </trkpt>
      <trkpt lat="41.184236" lon="1.448006">
        <ele>57.2</ele>
        <time>1970-01-01T02:12:04.000Z</time>
      </trkpt>
      <trkpt lat="41.184239" lon="1.448076">
        <ele>57.3</ele>
        <time>1970-01-01T02:12:05.000Z</time>
      </trkpt>
      <trkpt lat="41.184239" lon="1.448148">
        <ele>57.4</ele>
        <time>1970-01-01T02:12:06.000Z</time>
      </trkpt>
      <trkpt lat="41.184239" lon="1.448219">
        <ele>57.5</ele>
        <time>1970-01-01T02:12:07.000Z</time>
      </trkpt>
      <trkpt lat="41.184254" lon="1.448288">
        <ele>57.6</ele>
        <time>1970-01-01T02:12:08.000Z</time>
      </trkpt>
      <trkpt lat="41.184263" lon="1.448357">
        <ele>57.6</ele>
        <time>1970-01-01T02:12:09.000Z</time>
      </trkpt>
      <trkpt lat="41.184273" lon="1.448435">
        <ele>57.7</ele>
        <time>1970-01-01T02:12:10.000Z</time>
      </trkpt>
      <trkpt lat="41.184284" lon="1.448508">
        <ele>57.7</ele>
        <time>1970-01-01T02:12:11.000Z</time>
      </trkpt>
      <trkpt lat="41.184293" lon="1.448577">
        <ele>57.8</ele>
        <time>1970-01-01T02:12:12.000Z</time>
      </trkpt>
      <trkpt lat="41.184296" lon="1.448651">
        <ele>57.8</ele>
        <time>1970-01-01T02:12:13.000Z</time>
      </trkpt>
      <trkpt lat="41.184302" lon="1.448733">
        <ele>57.9</ele>
        <time>1970-01-01T02:12:14.000Z</time>
      </trkpt>
      <trkpt lat="41.184309" lon="1.44881">
        <ele>58</ele>
        <time>1970-01-01T02:12:15.000Z</time>
      </trkpt>
      <trkpt lat="41.184317" lon="1.448897">
        <ele>58.1</ele>
        <time>1970-01-01T02:12:16.000Z</time>
      </trkpt>
      <trkpt lat="41.184315" lon="1.448974">
        <ele>58.2</ele>
        <time>1970-01-01T02:12:17.000Z</time>
      </trkpt>
      <trkpt lat="41.184314" lon="1.449055">
        <ele>58.4</ele>
        <time>1970-01-01T02:12:18.000Z</time>
      </trkpt>
      <trkpt lat="41.18432" lon="1.449128">
        <ele>58.3</ele>
        <time>1970-01-01T02:12:19.000Z</time>
      </trkpt>
      <trkpt lat="41.184319" lon="1.449199">
        <ele>58.3</ele>
        <time>1970-01-01T02:12:20.000Z</time>
      </trkpt>
      <trkpt lat="41.184321" lon="1.449277">
        <ele>58.2</ele>
        <time>1970-01-01T02:12:21.000Z</time>
      </trkpt>
      <trkpt lat="41.184319" lon="1.449349">
        <ele>58.1</ele>
        <time>1970-01-01T02:12:22.000Z</time>
      </trkpt>
      <trkpt lat="41.184324" lon="1.449423">
        <ele>58</ele>
        <time>1970-01-01T02:12:23.000Z</time>
      </trkpt>
      <trkpt lat="41.184324" lon="1.449505">
        <ele>57.9</ele>
        <time>1970-01-01T02:12:24.000Z</time>
      </trkpt>
      <trkpt lat="41.184325" lon="1.449582">
        <ele>57.7</ele>
        <time>1970-01-01T02:12:25.000Z</time>
      </trkpt>
      <trkpt lat="41.184327" lon="1.449667">
        <ele>57.5</ele>
        <time>1970-01-01T02:12:26.000Z</time>
      </trkpt>
      <trkpt lat="41.184329" lon="1.449751">
        <ele>57.3</ele>
        <time>1970-01-01T02:12:27.000Z</time>
      </trkpt>
      <trkpt lat="41.184333" lon="1.449835">
        <ele>57.1</ele>
        <time>1970-01-01T02:12:28.000Z</time>
      </trkpt>
      <trkpt lat="41.18433" lon="1.44992">
        <ele>56.9</ele>
        <time>1970-01-01T02:12:29.000Z</time>
      </trkpt>
      <trkpt lat="41.184331" lon="1.450005">
        <ele>56.8</ele>
        <time>1970-01-01T02:12:30.000Z</time>
      </trkpt>
      <trkpt lat="41.184331" lon="1.450093">
        <ele>56.6</ele>
        <time>1970-01-01T02:12:31.000Z</time>
      </trkpt>
      <trkpt lat="41.184325" lon="1.450186">
        <ele>56.5</ele>
        <time>1970-01-01T02:12:32.000Z</time>
      </trkpt>
      <trkpt lat="41.184311" lon="1.450273">
        <ele>56.4</ele>
        <time>1970-01-01T02:12:33.000Z</time>
      </trkpt>
      <trkpt lat="41.184292" lon="1.450367">
        <ele>56.3</ele>
        <time>1970-01-01T02:12:34.000Z</time>
      </trkpt>
      <trkpt lat="41.184251" lon="1.450434">
        <ele>55.8</ele>
        <time>1970-01-01T02:12:35.000Z</time>
      </trkpt>
      <trkpt lat="41.184208" lon="1.450521">
        <ele>55.3</ele>
        <time>1970-01-01T02:12:36.000Z</time>
      </trkpt>
      <trkpt lat="41.184174" lon="1.450606">
        <ele>55</ele>
        <time>1970-01-01T02:12:37.000Z</time>
      </trkpt>
      <trkpt lat="41.184152" lon="1.450689">
        <ele>54.9</ele>
        <time>1970-01-01T02:12:38.000Z</time>
      </trkpt>
      <trkpt lat="41.184136" lon="1.450781">
        <ele>54.5</ele>
        <time>1970-01-01T02:12:39.000Z</time>
      </trkpt>
      <trkpt lat="41.184119" lon="1.450872">
        <ele>54.2</ele>
        <time>1970-01-01T02:12:40.000Z</time>
      </trkpt>
      <trkpt lat="41.184092" lon="1.450962">
        <ele>53.7</ele>
        <time>1970-01-01T02:12:41.000Z</time>
      </trkpt>
      <trkpt lat="41.184056" lon="1.451048">
        <ele>53.4</ele>
        <time>1970-01-01T02:12:42.000Z</time>
      </trkpt>
      <trkpt lat="41.184011" lon="1.451129">
        <ele>53</ele>
        <time>1970-01-01T02:12:43.000Z</time>
      </trkpt>
      <trkpt lat="41.183961" lon="1.4512">
        <ele>52.7</ele>
        <time>1970-01-01T02:12:44.000Z</time>
      </trkpt>
      <trkpt lat="41.183905" lon="1.451269">
        <ele>52.3</ele>
        <time>1970-01-01T02:12:45.000Z</time>
      </trkpt>
      <trkpt lat="41.183849" lon="1.451345">
        <ele>51.8</ele>
        <time>1970-01-01T02:12:46.000Z</time>
      </trkpt>
      <trkpt lat="41.183792" lon="1.451414">
        <ele>51.4</ele>
        <time>1970-01-01T02:12:47.000Z</time>
      </trkpt>
      <trkpt lat="41.183728" lon="1.451476">
        <ele>51</ele>
        <time>1970-01-01T02:12:48.000Z</time>
      </trkpt>
      <trkpt lat="41.183664" lon="1.451537">
        <ele>50.6</ele>
        <time>1970-01-01T02:12:49.000Z</time>
      </trkpt>
      <trkpt lat="41.1836" lon="1.451599">
        <ele>50.1</ele>
        <time>1970-01-01T02:12:50.000Z</time>
      </trkpt>
      <trkpt lat="41.183534" lon="1.451659">
        <ele>49.6</ele>
        <time>1970-01-01T02:12:51.000Z</time>
      </trkpt>
      <trkpt lat="41.183465" lon="1.451717">
        <ele>49.1</ele>
        <time>1970-01-01T02:12:52.000Z</time>
      </trkpt>
      <trkpt lat="41.183397" lon="1.451779">
        <ele>48.5</ele>
        <time>1970-01-01T02:12:53.000Z</time>
      </trkpt>
      <trkpt lat="41.183328" lon="1.451844">
        <ele>47.8</ele>
        <time>1970-01-01T02:12:54.000Z</time>
      </trkpt>
      <trkpt lat="41.18326" lon="1.451907">
        <ele>47.2</ele>
        <time>1970-01-01T02:12:55.000Z</time>
      </trkpt>
      <trkpt lat="41.183197" lon="1.451981">
        <ele>46.6</ele>
        <time>1970-01-01T02:12:56.000Z</time>
      </trkpt>
      <trkpt lat="41.183131" lon="1.452051">
        <ele>45.9</ele>
        <time>1970-01-01T02:12:57.000Z</time>
      </trkpt>
      <trkpt lat="41.183073" lon="1.452134">
        <ele>45.4</ele>
        <time>1970-01-01T02:12:58.000Z</time>
      </trkpt>
      <trkpt lat="41.183024" lon="1.452224">
        <ele>44.9</ele>
        <time>1970-01-01T02:12:59.000Z</time>
      </trkpt>
      <trkpt lat="41.182976" lon="1.452315">
        <ele>44.4</ele>
        <time>1970-01-01T02:13:00.000Z</time>
      </trkpt>
      <trkpt lat="41.182936" lon="1.452418">
        <ele>43.7</ele>
        <time>1970-01-01T02:13:01.000Z</time>
      </trkpt>
      <trkpt lat="41.182899" lon="1.452526">
        <ele>43.4</ele>
        <time>1970-01-01T02:13:02.000Z</time>
      </trkpt>
      <trkpt lat="41.182869" lon="1.45264">
        <ele>43.1</ele>
        <time>1970-01-01T02:13:03.000Z</time>
      </trkpt>
      <trkpt lat="41.182847" lon="1.452754">
        <ele>42.8</ele>
        <time>1970-01-01T02:13:04.000Z</time>
      </trkpt>
      <trkpt lat="41.182833" lon="1.452873">
        <ele>42.4</ele>
        <time>1970-01-01T02:13:05.000Z</time>
      </trkpt>
      <trkpt lat="41.182821" lon="1.452991">
        <ele>42.2</ele>
        <time>1970-01-01T02:13:06.000Z</time>
      </trkpt>
      <trkpt lat="41.182812" lon="1.453107">
        <ele>42.2</ele>
        <time>1970-01-01T02:13:07.000Z</time>
      </trkpt>
      <trkpt lat="41.182805" lon="1.453223">
        <ele>42.3</ele>
        <time>1970-01-01T02:13:08.000Z</time>
      </trkpt>
      <trkpt lat="41.182827" lon="1.453339">
        <ele>42.4</ele>
        <time>1970-01-01T02:13:09.000Z</time>
      </trkpt>
      <trkpt lat="41.182819" lon="1.453451">
        <ele>42.6</ele>
        <time>1970-01-01T02:13:10.000Z</time>
      </trkpt>
      <trkpt lat="41.182805" lon="1.453556">
        <ele>42.8</ele>
        <time>1970-01-01T02:13:11.000Z</time>
      </trkpt>
      <trkpt lat="41.182785" lon="1.45366">
        <ele>43.1</ele>
        <time>1970-01-01T02:13:12.000Z</time>
      </trkpt>
      <trkpt lat="41.182769" lon="1.453763">
        <ele>43.4</ele>
        <time>1970-01-01T02:13:13.000Z</time>
      </trkpt>
      <trkpt lat="41.182758" lon="1.453863">
        <ele>43.7</ele>
        <time>1970-01-01T02:13:14.000Z</time>
      </trkpt>
      <trkpt lat="41.182746" lon="1.453957">
        <ele>43.9</ele>
        <time>1970-01-01T02:13:15.000Z</time>
      </trkpt>
      <trkpt lat="41.182722" lon="1.454044">
        <ele>44.2</ele>
        <time>1970-01-01T02:13:16.000Z</time>
      </trkpt>
      <trkpt lat="41.1827" lon="1.45413">
        <ele>44.4</ele>
        <time>1970-01-01T02:13:17.000Z</time>
      </trkpt>
      <trkpt lat="41.182682" lon="1.454214">
        <ele>44.5</ele>
        <time>1970-01-01T02:13:18.000Z</time>
      </trkpt>
      <trkpt lat="41.182663" lon="1.454292">
        <ele>44.7</ele>
        <time>1970-01-01T02:13:19.000Z</time>
      </trkpt>
      <trkpt lat="41.182648" lon="1.454364">
        <ele>44.7</ele>
        <time>1970-01-01T02:13:20.000Z</time>
      </trkpt>
      <trkpt lat="41.182635" lon="1.454433">
        <ele>44.8</ele>
        <time>1970-01-01T02:13:21.000Z</time>
      </trkpt>
      <trkpt lat="41.18262" lon="1.4545">
        <ele>44.8</ele>
        <time>1970-01-01T02:13:22.000Z</time>
      </trkpt>
      <trkpt lat="41.182612" lon="1.454567">
        <ele>44.9</ele>
        <time>1970-01-01T02:13:23.000Z</time>
      </trkpt>
      <trkpt lat="41.182596" lon="1.454629">
        <ele>44.9</ele>
        <time>1970-01-01T02:13:24.000Z</time>
      </trkpt>
      <trkpt lat="41.18257" lon="1.454684">
        <ele>44.9</ele>
        <time>1970-01-01T02:13:25.000Z</time>
      </trkpt>
      <trkpt lat="41.182544" lon="1.454738">
        <ele>44.9</ele>
        <time>1970-01-01T02:13:26.000Z</time>
      </trkpt>
      <trkpt lat="41.182508" lon="1.454791">
        <ele>44.9</ele>
        <time>1970-01-01T02:13:27.000Z</time>
      </trkpt>
      <trkpt lat="41.182486" lon="1.454855">
        <ele>45.2</ele>
        <time>1970-01-01T02:13:28.000Z</time>
      </trkpt>
      <trkpt lat="41.18247" lon="1.454926">
        <ele>45.2</ele>
        <time>1970-01-01T02:13:29.000Z</time>
      </trkpt>
      <trkpt lat="41.182482" lon="1.454995">
        <ele>46</ele>
        <time>1970-01-01T02:13:30.000Z</time>
      </trkpt>
      <trkpt lat="41.18251" lon="1.455056">
        <ele>46</ele>
        <time>1970-01-01T02:13:31.000Z</time>
      </trkpt>
      <trkpt lat="41.182549" lon="1.4551">
        <ele>46.6</ele>
        <time>1970-01-01T02:13:32.000Z</time>
      </trkpt>
      <trkpt lat="41.182587" lon="1.455147">
        <ele>46.8</ele>
        <time>1970-01-01T02:13:33.000Z</time>
      </trkpt>
      <trkpt lat="41.182625" lon="1.455189">
        <ele>47.1</ele>
        <time>1970-01-01T02:13:34.000Z</time>
      </trkpt>
      <trkpt lat="41.182654" lon="1.455235">
        <ele>47.3</ele>
        <time>1970-01-01T02:13:35.000Z</time>
      </trkpt>
      <trkpt lat="41.182682" lon="1.455287">
        <ele>47.6</ele>
        <time>1970-01-01T02:13:36.000Z</time>
      </trkpt>
      <trkpt lat="41.182703" lon="1.455343">
        <ele>47.8</ele>
        <time>1970-01-01T02:13:37.000Z</time>
      </trkpt>
      <trkpt lat="41.18271" lon="1.455401">
        <ele>47.8</ele>
        <time>1970-01-01T02:13:38.000Z</time>
      </trkpt>
      <trkpt lat="41.182717" lon="1.455463">
        <ele>47.8</ele>
        <time>1970-01-01T02:13:39.000Z</time>
      </trkpt>
      <trkpt lat="41.18272" lon="1.455517">
        <ele>47.8</ele>
        <time>1970-01-01T02:13:40.000Z</time>
      </trkpt>
      <trkpt lat="41.182718" lon="1.455572">
        <ele>47.9</ele>
        <time>1970-01-01T02:13:41.000Z</time>
      </trkpt>
      <trkpt lat="41.182717" lon="1.455637">
        <ele>47.9</ele>
        <time>1970-01-01T02:13:42.000Z</time>
      </trkpt>
      <trkpt lat="41.182718" lon="1.455694">
        <ele>48</ele>
        <time>1970-01-01T02:13:43.000Z</time>
      </trkpt>
      <trkpt lat="41.182714" lon="1.45577">
        <ele>48.2</ele>
        <time>1970-01-01T02:13:44.000Z</time>
      </trkpt>
      <trkpt lat="41.182715" lon="1.455846">
        <ele>48.6</ele>
        <time>1970-01-01T02:13:45.000Z</time>
      </trkpt>
      <trkpt lat="41.182722" lon="1.455929">
        <ele>49</ele>
        <time>1970-01-01T02:13:46.000Z</time>
      </trkpt>
      <trkpt lat="41.182726" lon="1.455996">
        <ele>49</ele>
        <time>1970-01-01T02:13:47.000Z</time>
      </trkpt>
      <trkpt lat="41.182729" lon="1.456068">
        <ele>49.1</ele>
        <time>1970-01-01T02:13:48.000Z</time>
      </trkpt>
      <trkpt lat="41.18273" lon="1.45614">
        <ele>49.1</ele>
        <time>1970-01-01T02:13:49.000Z</time>
      </trkpt>
      <trkpt lat="41.182733" lon="1.456215">
        <ele>49.2</ele>
        <time>1970-01-01T02:13:50.000Z</time>
      </trkpt>
      <trkpt lat="41.182729" lon="1.456298">
        <ele>49.2</ele>
        <time>1970-01-01T02:13:51.000Z</time>
      </trkpt>
      <trkpt lat="41.182747" lon="1.456392">
        <ele>49.3</ele>
        <time>1970-01-01T02:13:52.000Z</time>
      </trkpt>
      <trkpt lat="41.182742" lon="1.456465">
        <ele>49.3</ele>
        <time>1970-01-01T02:13:53.000Z</time>
      </trkpt>
      <trkpt lat="41.182745" lon="1.456551">
        <ele>49.3</ele>
        <time>1970-01-01T02:13:54.000Z</time>
      </trkpt>
      <trkpt lat="41.182749" lon="1.45662">
        <ele>49.3</ele>
        <time>1970-01-01T02:13:55.000Z</time>
      </trkpt>
      <trkpt lat="41.182748" lon="1.456687">
        <ele>49.3</ele>
        <time>1970-01-01T02:13:56.000Z</time>
      </trkpt>
      <trkpt lat="41.182748" lon="1.456745">
        <ele>49.3</ele>
        <time>1970-01-01T02:13:57.000Z</time>
      </trkpt>
      <trkpt lat="41.182742" lon="1.456827">
        <ele>49.3</ele>
        <time>1970-01-01T02:13:58.000Z</time>
      </trkpt>
      <trkpt lat="41.182745" lon="1.456901">
        <ele>49.3</ele>
        <time>1970-01-01T02:13:59.000Z</time>
      </trkpt>
      <trkpt lat="41.182737" lon="1.456966">
        <ele>49.3</ele>
        <time>1970-01-01T02:14:00.000Z</time>
      </trkpt>
      <trkpt lat="41.182728" lon="1.457024">
        <ele>49.2</ele>
        <time>1970-01-01T02:14:01.000Z</time>
      </trkpt>
      <trkpt lat="41.182711" lon="1.457083">
        <ele>49.1</ele>
        <time>1970-01-01T02:14:02.000Z</time>
      </trkpt>
      <trkpt lat="41.18269" lon="1.457128">
        <ele>49.1</ele>
        <time>1970-01-01T02:14:03.000Z</time>
      </trkpt>
      <trkpt lat="41.182663" lon="1.457207">
        <ele>49</ele>
        <time>1970-01-01T02:14:04.000Z</time>
      </trkpt>
      <trkpt lat="41.182644" lon="1.457285">
        <ele>49</ele>
        <time>1970-01-01T02:14:05.000Z</time>
      </trkpt>
      <trkpt lat="41.182622" lon="1.457352">
        <ele>48.6</ele>
        <time>1970-01-01T02:14:06.000Z</time>
      </trkpt>
      <trkpt lat="41.182593" lon="1.457404">
        <ele>48.5</ele>
        <time>1970-01-01T02:14:07.000Z</time>
      </trkpt>
      <trkpt lat="41.182558" lon="1.457457">
        <ele>48.4</ele>
        <time>1970-01-01T02:14:08.000Z</time>
      </trkpt>
      <trkpt lat="41.182523" lon="1.457501">
        <ele>48.3</ele>
        <time>1970-01-01T02:14:09.000Z</time>
      </trkpt>
      <trkpt lat="41.182496" lon="1.457556">
        <ele>48.2</ele>
        <time>1970-01-01T02:14:10.000Z</time>
      </trkpt>
      <trkpt lat="41.182466" lon="1.457595">
        <ele>48.1</ele>
        <time>1970-01-01T02:14:11.000Z</time>
      </trkpt>
      <trkpt lat="41.182434" lon="1.457654">
        <ele>48</ele>
        <time>1970-01-01T02:14:12.000Z</time>
      </trkpt>
      <trkpt lat="41.1824" lon="1.457708">
        <ele>47.9</ele>
        <time>1970-01-01T02:14:13.000Z</time>
      </trkpt>
      <trkpt lat="41.182365" lon="1.457758">
        <ele>47.7</ele>
        <time>1970-01-01T02:14:14.000Z</time>
      </trkpt>
      <trkpt lat="41.182331" lon="1.457817">
        <ele>47.4</ele>
        <time>1970-01-01T02:14:15.000Z</time>
      </trkpt>
      <trkpt lat="41.182304" lon="1.457893">
        <ele>47.1</ele>
        <time>1970-01-01T02:14:16.000Z</time>
      </trkpt>
      <trkpt lat="41.182291" lon="1.457972">
        <ele>47</ele>
        <time>1970-01-01T02:14:17.000Z</time>
      </trkpt>
      <trkpt lat="41.18228" lon="1.458035">
        <ele>47</ele>
        <time>1970-01-01T02:14:18.000Z</time>
      </trkpt>
      <trkpt lat="41.1823" lon="1.458099">
        <ele>47</ele>
        <time>1970-01-01T02:14:19.000Z</time>
      </trkpt>
      <trkpt lat="41.18231" lon="1.458181">
        <ele>46.9</ele>
        <time>1970-01-01T02:14:20.000Z</time>
      </trkpt>
      <trkpt lat="41.182356" lon="1.458271">
        <ele>46.8</ele>
        <time>1970-01-01T02:14:21.000Z</time>
      </trkpt>
      <trkpt lat="41.182388" lon="1.458353">
        <ele>46.7</ele>
        <time>1970-01-01T02:14:22.000Z</time>
      </trkpt>
      <trkpt lat="41.182405" lon="1.458439">
        <ele>46.6</ele>
        <time>1970-01-01T02:14:23.000Z</time>
      </trkpt>
      <trkpt lat="41.182445" lon="1.458519">
        <ele>46.5</ele>
        <time>1970-01-01T02:14:24.000Z</time>
      </trkpt>
      <trkpt lat="41.182475" lon="1.458601">
        <ele>46.4</ele>
        <time>1970-01-01T02:14:25.000Z</time>
      </trkpt>
      <trkpt lat="41.182496" lon="1.458682">
        <ele>46.3</ele>
        <time>1970-01-01T02:14:26.000Z</time>
      </trkpt>
      <trkpt lat="41.182513" lon="1.458765">
        <ele>46.2</ele>
        <time>1970-01-01T02:14:27.000Z</time>
      </trkpt>
      <trkpt lat="41.182531" lon="1.458857">
        <ele>46.2</ele>
        <time>1970-01-01T02:14:28.000Z</time>
      </trkpt>
      <trkpt lat="41.182549" lon="1.458948">
        <ele>46.1</ele>
        <time>1970-01-01T02:14:29.000Z</time>
      </trkpt>
      <trkpt lat="41.18257" lon="1.459035">
        <ele>46</ele>
        <time>1970-01-01T02:14:30.000Z</time>
      </trkpt>
      <trkpt lat="41.182593" lon="1.459123">
        <ele>45.9</ele>
        <time>1970-01-01T02:14:31.000Z</time>
      </trkpt>
      <trkpt lat="41.182612" lon="1.459193">
        <ele>45.8</ele>
        <time>1970-01-01T02:14:32.000Z</time>
      </trkpt>
      <trkpt lat="41.182632" lon="1.459283">
        <ele>45.7</ele>
        <time>1970-01-01T02:14:33.000Z</time>
      </trkpt>
      <trkpt lat="41.182652" lon="1.459358">
        <ele>45.5</ele>
        <time>1970-01-01T02:14:34.000Z</time>
      </trkpt>
      <trkpt lat="41.182672" lon="1.459437">
        <ele>45.3</ele>
        <time>1970-01-01T02:14:35.000Z</time>
      </trkpt>
      <trkpt lat="41.182691" lon="1.459523">
        <ele>45.1</ele>
        <time>1970-01-01T02:14:36.000Z</time>
      </trkpt>
      <trkpt lat="41.18271" lon="1.459602">
        <ele>45</ele>
        <time>1970-01-01T02:14:37.000Z</time>
      </trkpt>
      <trkpt lat="41.182738" lon="1.459684">
        <ele>44.8</ele>
        <time>1970-01-01T02:14:38.000Z</time>
      </trkpt>
      <trkpt lat="41.182764" lon="1.459764">
        <ele>44.7</ele>
        <time>1970-01-01T02:14:39.000Z</time>
      </trkpt>
      <trkpt lat="41.182793" lon="1.459831">
        <ele>44.5</ele>
        <time>1970-01-01T02:14:40.000Z</time>
      </trkpt>
      <trkpt lat="41.182821" lon="1.459908">
        <ele>44.4</ele>
        <time>1970-01-01T02:14:41.000Z</time>
      </trkpt>
      <trkpt lat="41.182845" lon="1.459986">
        <ele>44.2</ele>
        <time>1970-01-01T02:14:42.000Z</time>
      </trkpt>
      <trkpt lat="41.182867" lon="1.460073">
        <ele>44</ele>
        <time>1970-01-01T02:14:43.000Z</time>
      </trkpt>
      <trkpt lat="41.18289" lon="1.460159">
        <ele>43.7</ele>
        <time>1970-01-01T02:14:44.000Z</time>
      </trkpt>
      <trkpt lat="41.182915" lon="1.460248">
        <ele>43.5</ele>
        <time>1970-01-01T02:14:45.000Z</time>
      </trkpt>
      <trkpt lat="41.182941" lon="1.460341">
        <ele>43.3</ele>
        <time>1970-01-01T02:14:46.000Z</time>
      </trkpt>
      <trkpt lat="41.182959" lon="1.460412">
        <ele>43.2</ele>
        <time>1970-01-01T02:14:47.000Z</time>
      </trkpt>
      <trkpt lat="41.18298" lon="1.460502">
        <ele>43</ele>
        <time>1970-01-01T02:14:48.000Z</time>
      </trkpt>
      <trkpt lat="41.182997" lon="1.460585">
        <ele>42.9</ele>
        <time>1970-01-01T02:14:49.000Z</time>
      </trkpt>
      <trkpt lat="41.183018" lon="1.460667">
        <ele>42.9</ele>
        <time>1970-01-01T02:14:50.000Z</time>
      </trkpt>
      <trkpt lat="41.18304" lon="1.46075">
        <ele>42.8</ele>
        <time>1970-01-01T02:14:51.000Z</time>
      </trkpt>
      <trkpt lat="41.18306" lon="1.460823">
        <ele>42.8</ele>
        <time>1970-01-01T02:14:52.000Z</time>
      </trkpt>
      <trkpt lat="41.183081" lon="1.460897">
        <ele>42.7</ele>
        <time>1970-01-01T02:14:53.000Z</time>
      </trkpt>
      <trkpt lat="41.183103" lon="1.460977">
        <ele>42.7</ele>
        <time>1970-01-01T02:14:54.000Z</time>
      </trkpt>
      <trkpt lat="41.183113" lon="1.461041">
        <ele>42.7</ele>
        <time>1970-01-01T02:14:55.000Z</time>
      </trkpt>
      <trkpt lat="41.183131" lon="1.461127">
        <ele>42.7</ele>
        <time>1970-01-01T02:14:56.000Z</time>
      </trkpt>
      <trkpt lat="41.183145" lon="1.46121">
        <ele>42.7</ele>
        <time>1970-01-01T02:14:57.000Z</time>
      </trkpt>
      <trkpt lat="41.18316" lon="1.461298">
        <ele>42.7</ele>
        <time>1970-01-01T02:14:58.000Z</time>
      </trkpt>
      <trkpt lat="41.183173" lon="1.461384">
        <ele>42.7</ele>
        <time>1970-01-01T02:14:59.000Z</time>
      </trkpt>
      <trkpt lat="41.183191" lon="1.461464">
        <ele>42.7</ele>
        <time>1970-01-01T02:15:00.000Z</time>
      </trkpt>
      <trkpt lat="41.18321" lon="1.461539">
        <ele>42.8</ele>
        <time>1970-01-01T02:15:01.000Z</time>
      </trkpt>
      <trkpt lat="41.183222" lon="1.461611">
        <ele>42.8</ele>
        <time>1970-01-01T02:15:02.000Z</time>
      </trkpt>
      <trkpt lat="41.183249" lon="1.461675">
        <ele>42.9</ele>
        <time>1970-01-01T02:15:03.000Z</time>
      </trkpt>
      <trkpt lat="41.183259" lon="1.461761">
        <ele>43</ele>
        <time>1970-01-01T02:15:04.000Z</time>
      </trkpt>
      <trkpt lat="41.183283" lon="1.461819">
        <ele>43</ele>
        <time>1970-01-01T02:15:05.000Z</time>
      </trkpt>
      <trkpt lat="41.183302" lon="1.461896">
        <ele>43.1</ele>
        <time>1970-01-01T02:15:06.000Z</time>
      </trkpt>
      <trkpt lat="41.183318" lon="1.461973">
        <ele>43.2</ele>
        <time>1970-01-01T02:15:07.000Z</time>
      </trkpt>
      <trkpt lat="41.183338" lon="1.46204">
        <ele>43.3</ele>
        <time>1970-01-01T02:15:08.000Z</time>
      </trkpt>
      <trkpt lat="41.183361" lon="1.462111">
        <ele>43.4</ele>
        <time>1970-01-01T02:15:09.000Z</time>
      </trkpt>
      <trkpt lat="41.183379" lon="1.462198">
        <ele>43.6</ele>
        <time>1970-01-01T02:15:10.000Z</time>
      </trkpt>
      <trkpt lat="41.183402" lon="1.462282">
        <ele>43.7</ele>
        <time>1970-01-01T02:15:11.000Z</time>
      </trkpt>
      <trkpt lat="41.183422" lon="1.462354">
        <ele>43.8</ele>
        <time>1970-01-01T02:15:12.000Z</time>
      </trkpt>
      <trkpt lat="41.183443" lon="1.462423">
        <ele>43.8</ele>
        <time>1970-01-01T02:15:13.000Z</time>
      </trkpt>
      <trkpt lat="41.183458" lon="1.462491">
        <ele>43.8</ele>
        <time>1970-01-01T02:15:14.000Z</time>
      </trkpt>
      <trkpt lat="41.183478" lon="1.462558">
        <ele>43.8</ele>
        <time>1970-01-01T02:15:15.000Z</time>
      </trkpt>
      <trkpt lat="41.183494" lon="1.462624">
        <ele>43.9</ele>
        <time>1970-01-01T02:15:16.000Z</time>
      </trkpt>
      <trkpt lat="41.183517" lon="1.462703">
        <ele>43.9</ele>
        <time>1970-01-01T02:15:17.000Z</time>
      </trkpt>
      <trkpt lat="41.183545" lon="1.462778">
        <ele>43.9</ele>
        <time>1970-01-01T02:15:18.000Z</time>
      </trkpt>
      <trkpt lat="41.183577" lon="1.46286">
        <ele>43.9</ele>
        <time>1970-01-01T02:15:19.000Z</time>
      </trkpt>
      <trkpt lat="41.183594" lon="1.462936">
        <ele>43.8</ele>
        <time>1970-01-01T02:15:20.000Z</time>
      </trkpt>
      <trkpt lat="41.183609" lon="1.463015">
        <ele>43.8</ele>
        <time>1970-01-01T02:15:21.000Z</time>
      </trkpt>
      <trkpt lat="41.183631" lon="1.463095">
        <ele>43.8</ele>
        <time>1970-01-01T02:15:22.000Z</time>
      </trkpt>
      <trkpt lat="41.183648" lon="1.463169">
        <ele>43.7</ele>
        <time>1970-01-01T02:15:23.000Z</time>
      </trkpt>
      <trkpt lat="41.183675" lon="1.463253">
        <ele>43.7</ele>
        <time>1970-01-01T02:15:24.000Z</time>
      </trkpt>
      <trkpt lat="41.183698" lon="1.463328">
        <ele>43.6</ele>
        <time>1970-01-01T02:15:25.000Z</time>
      </trkpt>
      <trkpt lat="41.183734" lon="1.463409">
        <ele>43.6</ele>
        <time>1970-01-01T02:15:26.000Z</time>
      </trkpt>
      <trkpt lat="41.183793" lon="1.463437">
        <ele>43.6</ele>
        <time>1970-01-01T02:15:27.000Z</time>
      </trkpt>
      <trkpt lat="41.183847" lon="1.463413">
        <ele>43.6</ele>
        <time>1970-01-01T02:15:28.000Z</time>
      </trkpt>
      <trkpt lat="41.183901" lon="1.463377">
        <ele>43.9</ele>
        <time>1970-01-01T02:15:29.000Z</time>
      </trkpt>
      <trkpt lat="41.183957" lon="1.463346">
        <ele>44.2</ele>
        <time>1970-01-01T02:15:30.000Z</time>
      </trkpt>
      <trkpt lat="41.18402" lon="1.463322">
        <ele>44.5</ele>
        <time>1970-01-01T02:15:31.000Z</time>
      </trkpt>
      <trkpt lat="41.184075" lon="1.463302">
        <ele>44.8</ele>
        <time>1970-01-01T02:15:32.000Z</time>
      </trkpt>
      <trkpt lat="41.184124" lon="1.463273">
        <ele>45.1</ele>
        <time>1970-01-01T02:15:33.000Z</time>
      </trkpt>
      <trkpt lat="41.184168" lon="1.463252">
        <ele>45.3</ele>
        <time>1970-01-01T02:15:34.000Z</time>
      </trkpt>
      <trkpt lat="41.184212" lon="1.463229">
        <ele>45.6</ele>
        <time>1970-01-01T02:15:35.000Z</time>
      </trkpt>
      <trkpt lat="41.184249" lon="1.463212">
        <ele>46</ele>
        <time>1970-01-01T02:15:36.000Z</time>
      </trkpt>
      <trkpt lat="41.184306" lon="1.463223">
        <ele>46.2</ele>
        <time>1970-01-01T02:15:37.000Z</time>
      </trkpt>
      <trkpt lat="41.184339" lon="1.463259">
        <ele>46.4</ele>
        <time>1970-01-01T02:15:38.000Z</time>
      </trkpt>
      <trkpt lat="41.184354" lon="1.463311">
        <ele>46.6</ele>
        <time>1970-01-01T02:15:39.000Z</time>
      </trkpt>
      <trkpt lat="41.184398" lon="1.463349">
        <ele>46.9</ele>
        <time>1970-01-01T02:15:40.000Z</time>
      </trkpt>
      <trkpt lat="41.184435" lon="1.463377">
        <ele>47</ele>
        <time>1970-01-01T02:15:41.000Z</time>
      </trkpt>
      <trkpt lat="41.184479" lon="1.463401">
        <ele>47.2</ele>
        <time>1970-01-01T02:15:42.000Z</time>
      </trkpt>
      <trkpt lat="41.184523" lon="1.463423">
        <ele>47.3</ele>
        <time>1970-01-01T02:15:43.000Z</time>
      </trkpt>
      <trkpt lat="41.184565" lon="1.463441">
        <ele>47.5</ele>
        <time>1970-01-01T02:15:44.000Z</time>
      </trkpt>
      <trkpt lat="41.184606" lon="1.463467">
        <ele>47.6</ele>
        <time>1970-01-01T02:15:45.000Z</time>
      </trkpt>
      <trkpt lat="41.184656" lon="1.463485">
        <ele>47.9</ele>
        <time>1970-01-01T02:15:46.000Z</time>
      </trkpt>
      <trkpt lat="41.1847" lon="1.46351">
        <ele>48.1</ele>
        <time>1970-01-01T02:15:47.000Z</time>
      </trkpt>
      <trkpt lat="41.184737" lon="1.46354">
        <ele>48.2</ele>
        <time>1970-01-01T02:15:48.000Z</time>
      </trkpt>
      <trkpt lat="41.184761" lon="1.463576">
        <ele>48.3</ele>
        <time>1970-01-01T02:15:49.000Z</time>
      </trkpt>
      <trkpt lat="41.184778" lon="1.463629">
        <ele>48.4</ele>
        <time>1970-01-01T02:15:50.000Z</time>
      </trkpt>
      <trkpt lat="41.184797" lon="1.46368">
        <ele>48.5</ele>
        <time>1970-01-01T02:15:51.000Z</time>
      </trkpt>
      <trkpt lat="41.184812" lon="1.463762">
        <ele>48.5</ele>
        <time>1970-01-01T02:15:52.000Z</time>
      </trkpt>
      <trkpt lat="41.184827" lon="1.46384">
        <ele>48.5</ele>
        <time>1970-01-01T02:15:53.000Z</time>
      </trkpt>
      <trkpt lat="41.184837" lon="1.463914">
        <ele>48.5</ele>
        <time>1970-01-01T02:15:54.000Z</time>
      </trkpt>
      <trkpt lat="41.184838" lon="1.46398">
        <ele>48.5</ele>
        <time>1970-01-01T02:15:55.000Z</time>
      </trkpt>
      <trkpt lat="41.184836" lon="1.464055">
        <ele>48.4</ele>
        <time>1970-01-01T02:15:56.000Z</time>
      </trkpt>
      <trkpt lat="41.184842" lon="1.46413">
        <ele>48.3</ele>
        <time>1970-01-01T02:15:57.000Z</time>
      </trkpt>
      <trkpt lat="41.18485" lon="1.464197">
        <ele>48.2</ele>
        <time>1970-01-01T02:15:58.000Z</time>
      </trkpt>
      <trkpt lat="41.184871" lon="1.464266">
        <ele>48.1</ele>
        <time>1970-01-01T02:15:59.000Z</time>
      </trkpt>
      <trkpt lat="41.184892" lon="1.464326">
        <ele>48</ele>
        <time>1970-01-01T02:16:00.000Z</time>
      </trkpt>
      <trkpt lat="41.184919" lon="1.464387">
        <ele>47.9</ele>
        <time>1970-01-01T02:16:01.000Z</time>
      </trkpt>
      <trkpt lat="41.184934" lon="1.464447">
        <ele>47.8</ele>
        <time>1970-01-01T02:16:02.000Z</time>
      </trkpt>
      <trkpt lat="41.184948" lon="1.464516">
        <ele>47.6</ele>
        <time>1970-01-01T02:16:03.000Z</time>
      </trkpt>
      <trkpt lat="41.184953" lon="1.464588">
        <ele>47.4</ele>
        <time>1970-01-01T02:16:04.000Z</time>
      </trkpt>
      <trkpt lat="41.184945" lon="1.464644">
        <ele>47.3</ele>
        <time>1970-01-01T02:16:05.000Z</time>
      </trkpt>
      <trkpt lat="41.18493" lon="1.464684">
        <ele>47.2</ele>
        <time>1970-01-01T02:16:06.000Z</time>
      </trkpt>
      <trkpt lat="41.184898" lon="1.46467">
        <ele>47.1</ele>
        <time>1970-01-01T02:16:08.000Z</time>
      </trkpt>
      <trkpt lat="41.184861" lon="1.464664">
        <ele>47</ele>
        <time>1970-01-01T02:16:09.000Z</time>
      </trkpt>
      <trkpt lat="41.184815" lon="1.464684">
        <ele>46.9</ele>
        <time>1970-01-01T02:16:10.000Z</time>
      </trkpt>
      <trkpt lat="41.184765" lon="1.464726">
        <ele>46.8</ele>
        <time>1970-01-01T02:16:11.000Z</time>
      </trkpt>
      <trkpt lat="41.184722" lon="1.464784">
        <ele>46.7</ele>
        <time>1970-01-01T02:16:12.000Z</time>
      </trkpt>
      <trkpt lat="41.184698" lon="1.464842">
        <ele>46.6</ele>
        <time>1970-01-01T02:16:13.000Z</time>
      </trkpt>
      <trkpt lat="41.184676" lon="1.464916">
        <ele>46.4</ele>
        <time>1970-01-01T02:16:14.000Z</time>
      </trkpt>
      <trkpt lat="41.184649" lon="1.464992">
        <ele>46.3</ele>
        <time>1970-01-01T02:16:15.000Z</time>
      </trkpt>
      <trkpt lat="41.184638" lon="1.465071">
        <ele>46.2</ele>
        <time>1970-01-01T02:16:16.000Z</time>
      </trkpt>
      <trkpt lat="41.184613" lon="1.465141">
        <ele>46.1</ele>
        <time>1970-01-01T02:16:17.000Z</time>
      </trkpt>
      <trkpt lat="41.184581" lon="1.46521">
        <ele>46</ele>
        <time>1970-01-01T02:16:18.000Z</time>
      </trkpt>
      <trkpt lat="41.184535" lon="1.465272">
        <ele>45.9</ele>
        <time>1970-01-01T02:16:19.000Z</time>
      </trkpt>
      <trkpt lat="41.184493" lon="1.465325">
        <ele>45.8</ele>
        <time>1970-01-01T02:16:20.000Z</time>
      </trkpt>
      <trkpt lat="41.184454" lon="1.465377">
        <ele>45.7</ele>
        <time>1970-01-01T02:16:21.000Z</time>
      </trkpt>
      <trkpt lat="41.18443" lon="1.465452">
        <ele>45.6</ele>
        <time>1970-01-01T02:16:22.000Z</time>
      </trkpt>
      <trkpt lat="41.184426" lon="1.465529">
        <ele>45.6</ele>
        <time>1970-01-01T02:16:23.000Z</time>
      </trkpt>
      <trkpt lat="41.184431" lon="1.465607">
        <ele>45.6</ele>
        <time>1970-01-01T02:16:24.000Z</time>
      </trkpt>
      <trkpt lat="41.184444" lon="1.465683">
        <ele>45.5</ele>
        <time>1970-01-01T02:16:25.000Z</time>
      </trkpt>
      <trkpt lat="41.184454" lon="1.465748">
        <ele>45.5</ele>
        <time>1970-01-01T02:16:26.000Z</time>
      </trkpt>
      <trkpt lat="41.184466" lon="1.465819">
        <ele>45.5</ele>
        <time>1970-01-01T02:16:27.000Z</time>
      </trkpt>
      <trkpt lat="41.184477" lon="1.465889">
        <ele>45.3</ele>
        <time>1970-01-01T02:16:28.000Z</time>
      </trkpt>
      <trkpt lat="41.184495" lon="1.465965">
        <ele>45.1</ele>
        <time>1970-01-01T02:16:29.000Z</time>
      </trkpt>
      <trkpt lat="41.184498" lon="1.466029">
        <ele>44.9</ele>
        <time>1970-01-01T02:16:30.000Z</time>
      </trkpt>
      <trkpt lat="41.184496" lon="1.466105">
        <ele>44.8</ele>
        <time>1970-01-01T02:16:31.000Z</time>
      </trkpt>
      <trkpt lat="41.184473" lon="1.466158">
        <ele>44.7</ele>
        <time>1970-01-01T02:16:32.000Z</time>
      </trkpt>
      <trkpt lat="41.184422" lon="1.466193">
        <ele>44.6</ele>
        <time>1970-01-01T02:16:33.000Z</time>
      </trkpt>
      <trkpt lat="41.184353" lon="1.466211">
        <ele>44.5</ele>
        <time>1970-01-01T02:16:34.000Z</time>
      </trkpt>
      <trkpt lat="41.184284" lon="1.466238">
        <ele>44.4</ele>
        <time>1970-01-01T02:16:35.000Z</time>
      </trkpt>
      <trkpt lat="41.184211" lon="1.466262">
        <ele>44.3</ele>
        <time>1970-01-01T02:16:36.000Z</time>
      </trkpt>
      <trkpt lat="41.184141" lon="1.466271">
        <ele>44.1</ele>
        <time>1970-01-01T02:16:37.000Z</time>
      </trkpt>
      <trkpt lat="41.184072" lon="1.466291">
        <ele>44</ele>
        <time>1970-01-01T02:16:38.000Z</time>
      </trkpt>
      <trkpt lat="41.184007" lon="1.466327">
        <ele>43.8</ele>
        <time>1970-01-01T02:16:39.000Z</time>
      </trkpt>
      <trkpt lat="41.183952" lon="1.466391">
        <ele>43.7</ele>
        <time>1970-01-01T02:16:40.000Z</time>
      </trkpt>
      <trkpt lat="41.183908" lon="1.466461">
        <ele>43.6</ele>
        <time>1970-01-01T02:16:41.000Z</time>
      </trkpt>
      <trkpt lat="41.183846" lon="1.466525">
        <ele>43.4</ele>
        <time>1970-01-01T02:16:42.000Z</time>
      </trkpt>
      <trkpt lat="41.183803" lon="1.466568">
        <ele>43.3</ele>
        <time>1970-01-01T02:16:43.000Z</time>
      </trkpt>
      <trkpt lat="41.183744" lon="1.4666">
        <ele>43.2</ele>
        <time>1970-01-01T02:16:44.000Z</time>
      </trkpt>
      <trkpt lat="41.183682" lon="1.466623">
        <ele>43</ele>
        <time>1970-01-01T02:16:45.000Z</time>
      </trkpt>
      <trkpt lat="41.183612" lon="1.466648">
        <ele>42.8</ele>
        <time>1970-01-01T02:16:46.000Z</time>
      </trkpt>
      <trkpt lat="41.183553" lon="1.466695">
        <ele>42.6</ele>
        <time>1970-01-01T02:16:47.000Z</time>
      </trkpt>
      <trkpt lat="41.183519" lon="1.466761">
        <ele>42.4</ele>
        <time>1970-01-01T02:16:48.000Z</time>
      </trkpt>
      <trkpt lat="41.183494" lon="1.466861">
        <ele>42.2</ele>
        <time>1970-01-01T02:16:49.000Z</time>
      </trkpt>
      <trkpt lat="41.183478" lon="1.466942">
        <ele>42.1</ele>
        <time>1970-01-01T02:16:50.000Z</time>
      </trkpt>
      <trkpt lat="41.183464" lon="1.467026">
        <ele>42</ele>
        <time>1970-01-01T02:16:51.000Z</time>
      </trkpt>
      <trkpt lat="41.183442" lon="1.467102">
        <ele>42</ele>
        <time>1970-01-01T02:16:52.000Z</time>
      </trkpt>
      <trkpt lat="41.183421" lon="1.467185">
        <ele>41.9</ele>
        <time>1970-01-01T02:16:53.000Z</time>
      </trkpt>
      <trkpt lat="41.183401" lon="1.467265">
        <ele>41.8</ele>
        <time>1970-01-01T02:16:54.000Z</time>
      </trkpt>
      <trkpt lat="41.183388" lon="1.467356">
        <ele>41.8</ele>
        <time>1970-01-01T02:16:55.000Z</time>
      </trkpt>
      <trkpt lat="41.183373" lon="1.467442">
        <ele>41.9</ele>
        <time>1970-01-01T02:16:56.000Z</time>
      </trkpt>
      <trkpt lat="41.183348" lon="1.467516">
        <ele>42.2</ele>
        <time>1970-01-01T02:16:57.000Z</time>
      </trkpt>
      <trkpt lat="41.183314" lon="1.46758">
        <ele>42.5</ele>
        <time>1970-01-01T02:16:58.000Z</time>
      </trkpt>
      <trkpt lat="41.183263" lon="1.467623">
        <ele>42.7</ele>
        <time>1970-01-01T02:16:59.000Z</time>
      </trkpt>
      <trkpt lat="41.183213" lon="1.467663">
        <ele>42.9</ele>
        <time>1970-01-01T02:17:00.000Z</time>
      </trkpt>
      <trkpt lat="41.183168" lon="1.467711">
        <ele>43.1</ele>
        <time>1970-01-01T02:17:01.000Z</time>
      </trkpt>
      <trkpt lat="41.183133" lon="1.46777">
        <ele>43.3</ele>
        <time>1970-01-01T02:17:02.000Z</time>
      </trkpt>
      <trkpt lat="41.183108" lon="1.467832">
        <ele>43.5</ele>
        <time>1970-01-01T02:17:03.000Z</time>
      </trkpt>
      <trkpt lat="41.183085" lon="1.467904">
        <ele>43.7</ele>
        <time>1970-01-01T02:17:04.000Z</time>
      </trkpt>
      <trkpt lat="41.183084" lon="1.467968">
        <ele>43.8</ele>
        <time>1970-01-01T02:17:05.000Z</time>
      </trkpt>
      <trkpt lat="41.183093" lon="1.468041">
        <ele>44</ele>
        <time>1970-01-01T02:17:06.000Z</time>
      </trkpt>
      <trkpt lat="41.183105" lon="1.468103">
        <ele>44.1</ele>
        <time>1970-01-01T02:17:07.000Z</time>
      </trkpt>
      <trkpt lat="41.183118" lon="1.468173">
        <ele>44.2</ele>
        <time>1970-01-01T02:17:08.000Z</time>
      </trkpt>
      <trkpt lat="41.183126" lon="1.468243">
        <ele>44.3</ele>
        <time>1970-01-01T02:17:09.000Z</time>
      </trkpt>
      <trkpt lat="41.183165" lon="1.468318">
        <ele>44.5</ele>
        <time>1970-01-01T02:17:10.000Z</time>
      </trkpt>
      <trkpt lat="41.183199" lon="1.468393">
        <ele>44.7</ele>
        <time>1970-01-01T02:17:11.000Z</time>
      </trkpt>
      <trkpt lat="41.183217" lon="1.468459">
        <ele>44.9</ele>
        <time>1970-01-01T02:17:12.000Z</time>
      </trkpt>
      <trkpt lat="41.183239" lon="1.468517">
        <ele>45.1</ele>
        <time>1970-01-01T02:17:13.000Z</time>
      </trkpt>
      <trkpt lat="41.183255" lon="1.468575">
        <ele>45.3</ele>
        <time>1970-01-01T02:17:14.000Z</time>
      </trkpt>
      <trkpt lat="41.183265" lon="1.468635">
        <ele>45.4</ele>
        <time>1970-01-01T02:17:15.000Z</time>
      </trkpt>
      <trkpt lat="41.18327" lon="1.468706">
        <ele>45.6</ele>
        <time>1970-01-01T02:17:16.000Z</time>
      </trkpt>
      <trkpt lat="41.183264" lon="1.468768">
        <ele>45.8</ele>
        <time>1970-01-01T02:17:17.000Z</time>
      </trkpt>
      <trkpt lat="41.183257" lon="1.468838">
        <ele>46</ele>
        <time>1970-01-01T02:17:18.000Z</time>
      </trkpt>
      <trkpt lat="41.183251" lon="1.468911">
        <ele>46.1</ele>
        <time>1970-01-01T02:17:19.000Z</time>
      </trkpt>
      <trkpt lat="41.18324" lon="1.468981">
        <ele>46.3</ele>
        <time>1970-01-01T02:17:20.000Z</time>
      </trkpt>
      <trkpt lat="41.183222" lon="1.469039">
        <ele>46.4</ele>
        <time>1970-01-01T02:17:21.000Z</time>
      </trkpt>
      <trkpt lat="41.183213" lon="1.469102">
        <ele>46.5</ele>
        <time>1970-01-01T02:17:22.000Z</time>
      </trkpt>
      <trkpt lat="41.183201" lon="1.469157">
        <ele>46.5</ele>
        <time>1970-01-01T02:17:23.000Z</time>
      </trkpt>
      <trkpt lat="41.183195" lon="1.469222">
        <ele>46.5</ele>
        <time>1970-01-01T02:17:24.000Z</time>
      </trkpt>
      <trkpt lat="41.183201" lon="1.469293">
        <ele>46.5</ele>
        <time>1970-01-01T02:17:25.000Z</time>
      </trkpt>
      <trkpt lat="41.183196" lon="1.46937">
        <ele>46.5</ele>
        <time>1970-01-01T02:17:26.000Z</time>
      </trkpt>
      <trkpt lat="41.183184" lon="1.469437">
        <ele>46.6</ele>
        <time>1970-01-01T02:17:27.000Z</time>
      </trkpt>
      <trkpt lat="41.183177" lon="1.469505">
        <ele>46.6</ele>
        <time>1970-01-01T02:17:28.000Z</time>
      </trkpt>
      <trkpt lat="41.183179" lon="1.46957">
        <ele>46.6</ele>
        <time>1970-01-01T02:17:29.000Z</time>
      </trkpt>
      <trkpt lat="41.183176" lon="1.469632">
        <ele>46.7</ele>
        <time>1970-01-01T02:17:30.000Z</time>
      </trkpt>
      <trkpt lat="41.183168" lon="1.469688">
        <ele>46.7</ele>
        <time>1970-01-01T02:17:31.000Z</time>
      </trkpt>
      <trkpt lat="41.183156" lon="1.469746">
        <ele>46.7</ele>
        <time>1970-01-01T02:17:32.000Z</time>
      </trkpt>
      <trkpt lat="41.183142" lon="1.469805">
        <ele>46.8</ele>
        <time>1970-01-01T02:17:33.000Z</time>
      </trkpt>
      <trkpt lat="41.183129" lon="1.469872">
        <ele>46.9</ele>
        <time>1970-01-01T02:17:34.000Z</time>
      </trkpt>
      <trkpt lat="41.183125" lon="1.469944">
        <ele>47</ele>
        <time>1970-01-01T02:17:35.000Z</time>
      </trkpt>
      <trkpt lat="41.183112" lon="1.470011">
        <ele>47</ele>
        <time>1970-01-01T02:17:36.000Z</time>
      </trkpt>
      <trkpt lat="41.18311" lon="1.470076">
        <ele>47.2</ele>
        <time>1970-01-01T02:17:37.000Z</time>
      </trkpt>
      <trkpt lat="41.183104" lon="1.470144">
        <ele>47.3</ele>
        <time>1970-01-01T02:17:38.000Z</time>
      </trkpt>
      <trkpt lat="41.18309" lon="1.47021">
        <ele>47.5</ele>
        <time>1970-01-01T02:17:39.000Z</time>
      </trkpt>
      <trkpt lat="41.183085" lon="1.470292">
        <ele>47.7</ele>
        <time>1970-01-01T02:17:40.000Z</time>
      </trkpt>
      <trkpt lat="41.183072" lon="1.470376">
        <ele>48</ele>
        <time>1970-01-01T02:17:41.000Z</time>
      </trkpt>
      <trkpt lat="41.18306" lon="1.470448">
        <ele>48.3</ele>
        <time>1970-01-01T02:17:42.000Z</time>
      </trkpt>
      <trkpt lat="41.18306" lon="1.470526">
        <ele>48.5</ele>
        <time>1970-01-01T02:17:43.000Z</time>
      </trkpt>
      <trkpt lat="41.18304" lon="1.47059">
        <ele>48.7</ele>
        <time>1970-01-01T02:17:44.000Z</time>
      </trkpt>
      <trkpt lat="41.18303" lon="1.470662">
        <ele>48.7</ele>
        <time>1970-01-01T02:17:45.000Z</time>
      </trkpt>
      <trkpt lat="41.183015" lon="1.470733">
        <ele>48.8</ele>
        <time>1970-01-01T02:17:46.000Z</time>
      </trkpt>
      <trkpt lat="41.183004" lon="1.470807">
        <ele>48.9</ele>
        <time>1970-01-01T02:17:47.000Z</time>
      </trkpt>
      <trkpt lat="41.183009" lon="1.470874">
        <ele>49</ele>
        <time>1970-01-01T02:17:48.000Z</time>
      </trkpt>
      <trkpt lat="41.182995" lon="1.470935">
        <ele>49.1</ele>
        <time>1970-01-01T02:17:49.000Z</time>
      </trkpt>
      <trkpt lat="41.183007" lon="1.470998">
        <ele>49.2</ele>
        <time>1970-01-01T02:17:50.000Z</time>
      </trkpt>
      <trkpt lat="41.183" lon="1.47104">
        <ele>49.3</ele>
        <time>1970-01-01T02:17:51.000Z</time>
      </trkpt>
      <trkpt lat="41.182972" lon="1.47107">
        <ele>49.3</ele>
        <time>1970-01-01T02:17:52.000Z</time>
      </trkpt>
      <trkpt lat="41.182941" lon="1.471099">
        <ele>49.4</ele>
        <time>1970-01-01T02:17:53.000Z</time>
      </trkpt>
      <trkpt lat="41.182906" lon="1.471146">
        <ele>49.4</ele>
        <time>1970-01-01T02:17:54.000Z</time>
      </trkpt>
      <trkpt lat="41.182882" lon="1.471209">
        <ele>49.5</ele>
        <time>1970-01-01T02:17:55.000Z</time>
      </trkpt>
      <trkpt lat="41.182864" lon="1.471258">
        <ele>49.5</ele>
        <time>1970-01-01T02:17:56.000Z</time>
      </trkpt>
      <trkpt lat="41.182851" lon="1.47131">
        <ele>49.5</ele>
        <time>1970-01-01T02:17:57.000Z</time>
      </trkpt>
      <trkpt lat="41.182843" lon="1.471387">
        <ele>49.5</ele>
        <time>1970-01-01T02:17:58.000Z</time>
      </trkpt>
      <trkpt lat="41.182828" lon="1.471439">
        <ele>49.5</ele>
        <time>1970-01-01T02:17:59.000Z</time>
      </trkpt>
      <trkpt lat="41.182825" lon="1.471477">
        <ele>49.6</ele>
        <time>1970-01-01T02:18:00.000Z</time>
      </trkpt>
      <trkpt lat="41.182821" lon="1.471529">
        <ele>49.6</ele>
        <time>1970-01-01T02:18:01.000Z</time>
      </trkpt>
      <trkpt lat="41.182823" lon="1.471592">
        <ele>49.6</ele>
        <time>1970-01-01T02:18:02.000Z</time>
      </trkpt>
      <trkpt lat="41.182814" lon="1.471662">
        <ele>49.6</ele>
        <time>1970-01-01T02:18:03.000Z</time>
      </trkpt>
      <trkpt lat="41.182808" lon="1.471728">
        <ele>49.7</ele>
        <time>1970-01-01T02:18:04.000Z</time>
      </trkpt>
      <trkpt lat="41.182804" lon="1.4718">
        <ele>49.7</ele>
        <time>1970-01-01T02:18:05.000Z</time>
      </trkpt>
      <trkpt lat="41.182793" lon="1.47187">
        <ele>49.7</ele>
        <time>1970-01-01T02:18:06.000Z</time>
      </trkpt>
      <trkpt lat="41.182785" lon="1.471939">
        <ele>49.8</ele>
        <time>1970-01-01T02:18:07.000Z</time>
      </trkpt>
      <trkpt lat="41.182762" lon="1.472003">
        <ele>49.8</ele>
        <time>1970-01-01T02:18:08.000Z</time>
      </trkpt>
      <trkpt lat="41.182741" lon="1.472065">
        <ele>49.9</ele>
        <time>1970-01-01T02:18:09.000Z</time>
      </trkpt>
      <trkpt lat="41.182723" lon="1.472138">
        <ele>49.9</ele>
        <time>1970-01-01T02:18:10.000Z</time>
      </trkpt>
      <trkpt lat="41.182713" lon="1.472201">
        <ele>49.9</ele>
        <time>1970-01-01T02:18:11.000Z</time>
      </trkpt>
      <trkpt lat="41.182708" lon="1.472266">
        <ele>50</ele>
        <time>1970-01-01T02:18:12.000Z</time>
      </trkpt>
      <trkpt lat="41.182693" lon="1.472325">
        <ele>50</ele>
        <time>1970-01-01T02:18:13.000Z</time>
      </trkpt>
      <trkpt lat="41.182686" lon="1.472391">
        <ele>50</ele>
        <time>1970-01-01T02:18:14.000Z</time>
      </trkpt>
      <trkpt lat="41.18268" lon="1.472449">
        <ele>50.1</ele>
        <time>1970-01-01T02:18:15.000Z</time>
      </trkpt>
      <trkpt lat="41.182681" lon="1.472518">
        <ele>50.2</ele>
        <time>1970-01-01T02:18:16.000Z</time>
      </trkpt>
      <trkpt lat="41.182681" lon="1.472579">
        <ele>50.2</ele>
        <time>1970-01-01T02:18:17.000Z</time>
      </trkpt>
      <trkpt lat="41.182687" lon="1.472644">
        <ele>50.3</ele>
        <time>1970-01-01T02:18:18.000Z</time>
      </trkpt>
      <trkpt lat="41.182676" lon="1.472698">
        <ele>50.4</ele>
        <time>1970-01-01T02:18:19.000Z</time>
      </trkpt>
      <trkpt lat="41.182674" lon="1.472747">
        <ele>50.5</ele>
        <time>1970-01-01T02:18:20.000Z</time>
      </trkpt>
      <trkpt lat="41.182674" lon="1.47281">
        <ele>50.6</ele>
        <time>1970-01-01T02:18:21.000Z</time>
      </trkpt>
      <trkpt lat="41.182684" lon="1.472878">
        <ele>50.8</ele>
        <time>1970-01-01T02:18:22.000Z</time>
      </trkpt>
      <trkpt lat="41.182665" lon="1.472936">
        <ele>51</ele>
        <time>1970-01-01T02:18:23.000Z</time>
      </trkpt>
      <trkpt lat="41.182645" lon="1.472992">
        <ele>51.2</ele>
        <time>1970-01-01T02:18:24.000Z</time>
      </trkpt>
      <trkpt lat="41.182632" lon="1.473045">
        <ele>51.4</ele>
        <time>1970-01-01T02:18:25.000Z</time>
      </trkpt>
      <trkpt lat="41.182625" lon="1.473097">
        <ele>51.6</ele>
        <time>1970-01-01T02:18:26.000Z</time>
      </trkpt>
      <trkpt lat="41.182631" lon="1.473152">
        <ele>51.8</ele>
        <time>1970-01-01T02:18:27.000Z</time>
      </trkpt>
      <trkpt lat="41.182663" lon="1.473192">
        <ele>52</ele>
        <time>1970-01-01T02:18:28.000Z</time>
      </trkpt>
      <trkpt lat="41.182696" lon="1.473216">
        <ele>52.2</ele>
        <time>1970-01-01T02:18:29.000Z</time>
      </trkpt>
      <trkpt lat="41.182716" lon="1.473265">
        <ele>52.4</ele>
        <time>1970-01-01T02:18:30.000Z</time>
      </trkpt>
      <trkpt lat="41.182738" lon="1.473301">
        <ele>52.6</ele>
        <time>1970-01-01T02:18:31.000Z</time>
      </trkpt>
      <trkpt lat="41.182753" lon="1.473346">
        <ele>52.8</ele>
        <time>1970-01-01T02:18:32.000Z</time>
      </trkpt>
      <trkpt lat="41.182767" lon="1.47338">
        <ele>52.9</ele>
        <time>1970-01-01T02:18:33.000Z</time>
      </trkpt>
      <trkpt lat="41.182782" lon="1.473426">
        <ele>53.1</ele>
        <time>1970-01-01T02:18:34.000Z</time>
      </trkpt>
      <trkpt lat="41.182787" lon="1.473466">
        <ele>53.1</ele>
        <time>1970-01-01T02:18:35.000Z</time>
      </trkpt>
      <trkpt lat="41.182783" lon="1.473504">
        <ele>53.2</ele>
        <time>1970-01-01T02:18:36.000Z</time>
      </trkpt>
      <trkpt lat="41.182761" lon="1.473528">
        <ele>53.2</ele>
        <time>1970-01-01T02:18:37.000Z</time>
      </trkpt>
      <trkpt lat="41.182732" lon="1.473553">
        <ele>53.2</ele>
        <time>1970-01-01T02:18:39.000Z</time>
      </trkpt>
      <trkpt lat="41.182685" lon="1.473607">
        <ele>53.3</ele>
        <time>1970-01-01T02:18:41.000Z</time>
      </trkpt>
      <trkpt lat="41.18266" lon="1.473627">
        <ele>53.3</ele>
        <time>1970-01-01T02:18:42.000Z</time>
      </trkpt>
      <trkpt lat="41.182619" lon="1.473668">
        <ele>53.4</ele>
        <time>1970-01-01T02:18:44.000Z</time>
      </trkpt>
      <trkpt lat="41.182597" lon="1.473696">
        <ele>53.4</ele>
        <time>1970-01-01T02:18:45.000Z</time>
      </trkpt>
      <trkpt lat="41.182564" lon="1.473726">
        <ele>53.6</ele>
        <time>1970-01-01T02:18:46.000Z</time>
      </trkpt>
      <trkpt lat="41.18253" lon="1.473749">
        <ele>53.6</ele>
        <time>1970-01-01T02:18:47.000Z</time>
      </trkpt>
      <trkpt lat="41.182498" lon="1.473779">
        <ele>53.7</ele>
        <time>1970-01-01T02:18:48.000Z</time>
      </trkpt>
      <trkpt lat="41.182483" lon="1.473811">
        <ele>53.8</ele>
        <time>1970-01-01T02:18:49.000Z</time>
      </trkpt>
      <trkpt lat="41.182474" lon="1.473849">
        <ele>53.8</ele>
        <time>1970-01-01T02:18:50.000Z</time>
      </trkpt>
      <trkpt lat="41.182453" lon="1.473902">
        <ele>53.9</ele>
        <time>1970-01-01T02:18:52.000Z</time>
      </trkpt>
      <trkpt lat="41.18243" lon="1.473934">
        <ele>53.9</ele>
        <time>1970-01-01T02:18:54.000Z</time>
      </trkpt>
      <trkpt lat="41.182381" lon="1.47393">
        <ele>53.8</ele>
        <time>1970-01-01T02:18:56.000Z</time>
      </trkpt>
      <trkpt lat="41.182351" lon="1.473924">
        <ele>53.7</ele>
        <time>1970-01-01T02:18:57.000Z</time>
      </trkpt>
      <trkpt lat="41.182321" lon="1.473935">
        <ele>53.7</ele>
        <time>1970-01-01T02:18:58.000Z</time>
      </trkpt>
      <trkpt lat="41.182289" lon="1.473946">
        <ele>53.7</ele>
        <time>1970-01-01T02:18:59.000Z</time>
      </trkpt>
      <trkpt lat="41.182249" lon="1.473963">
        <ele>53.7</ele>
        <time>1970-01-01T02:19:00.000Z</time>
      </trkpt>
      <trkpt lat="41.182216" lon="1.473987">
        <ele>53.7</ele>
        <time>1970-01-01T02:19:01.000Z</time>
      </trkpt>
      <trkpt lat="41.182183" lon="1.47401">
        <ele>53.7</ele>
        <time>1970-01-01T02:19:02.000Z</time>
      </trkpt>
      <trkpt lat="41.182147" lon="1.474027">
        <ele>53.7</ele>
        <time>1970-01-01T02:19:03.000Z</time>
      </trkpt>
      <trkpt lat="41.182106" lon="1.474052">
        <ele>53.7</ele>
        <time>1970-01-01T02:19:04.000Z</time>
      </trkpt>
      <trkpt lat="41.182065" lon="1.474077">
        <ele>53.7</ele>
        <time>1970-01-01T02:19:05.000Z</time>
      </trkpt>
      <trkpt lat="41.18203" lon="1.474093">
        <ele>53.7</ele>
        <time>1970-01-01T02:19:06.000Z</time>
      </trkpt>
      <trkpt lat="41.181992" lon="1.474101">
        <ele>53.7</ele>
        <time>1970-01-01T02:19:07.000Z</time>
      </trkpt>
      <trkpt lat="41.181953" lon="1.474118">
        <ele>53.6</ele>
        <time>1970-01-01T02:19:08.000Z</time>
      </trkpt>
      <trkpt lat="41.18192" lon="1.474134">
        <ele>53.7</ele>
        <time>1970-01-01T02:19:09.000Z</time>
      </trkpt>
      <trkpt lat="41.181881" lon="1.47415">
        <ele>53.7</ele>
        <time>1970-01-01T02:19:10.000Z</time>
      </trkpt>
      <trkpt lat="41.181843" lon="1.474176">
        <ele>53.7</ele>
        <time>1970-01-01T02:19:11.000Z</time>
      </trkpt>
      <trkpt lat="41.181807" lon="1.47421">
        <ele>53.8</ele>
        <time>1970-01-01T02:19:12.000Z</time>
      </trkpt>
      <trkpt lat="41.181772" lon="1.474243">
        <ele>54</ele>
        <time>1970-01-01T02:19:13.000Z</time>
      </trkpt>
      <trkpt lat="41.181739" lon="1.474264">
        <ele>54.1</ele>
        <time>1970-01-01T02:19:14.000Z</time>
      </trkpt>
      <trkpt lat="41.181714" lon="1.47429">
        <ele>54.2</ele>
        <time>1970-01-01T02:19:15.000Z</time>
      </trkpt>
      <trkpt lat="41.1817" lon="1.474332">
        <ele>54.3</ele>
        <time>1970-01-01T02:19:16.000Z</time>
      </trkpt>
      <trkpt lat="41.181695" lon="1.474387">
        <ele>54.4</ele>
        <time>1970-01-01T02:19:17.000Z</time>
      </trkpt>
      <trkpt lat="41.181697" lon="1.47445">
        <ele>54.5</ele>
        <time>1970-01-01T02:19:18.000Z</time>
      </trkpt>
      <trkpt lat="41.18171" lon="1.474513">
        <ele>54.7</ele>
        <time>1970-01-01T02:19:19.000Z</time>
      </trkpt>
      <trkpt lat="41.181717" lon="1.474579">
        <ele>54.8</ele>
        <time>1970-01-01T02:19:20.000Z</time>
      </trkpt>
      <trkpt lat="41.181726" lon="1.474647">
        <ele>54.9</ele>
        <time>1970-01-01T02:19:21.000Z</time>
      </trkpt>
      <trkpt lat="41.181742" lon="1.474707">
        <ele>55.1</ele>
        <time>1970-01-01T02:19:22.000Z</time>
      </trkpt>
      <trkpt lat="41.181756" lon="1.474764">
        <ele>55.2</ele>
        <time>1970-01-01T02:19:23.000Z</time>
      </trkpt>
      <trkpt lat="41.181768" lon="1.474811">
        <ele>55.2</ele>
        <time>1970-01-01T02:19:24.000Z</time>
      </trkpt>
      <trkpt lat="41.181783" lon="1.474874">
        <ele>55.3</ele>
        <time>1970-01-01T02:19:25.000Z</time>
      </trkpt>
      <trkpt lat="41.181794" lon="1.474939">
        <ele>55.4</ele>
        <time>1970-01-01T02:19:26.000Z</time>
      </trkpt>
      <trkpt lat="41.181814" lon="1.475006">
        <ele>55.4</ele>
        <time>1970-01-01T02:19:27.000Z</time>
      </trkpt>
      <trkpt lat="41.181841" lon="1.475078">
        <ele>55.5</ele>
        <time>1970-01-01T02:19:28.000Z</time>
      </trkpt>
      <trkpt lat="41.181864" lon="1.475148">
        <ele>55.5</ele>
        <time>1970-01-01T02:19:29.000Z</time>
      </trkpt>
      <trkpt lat="41.181889" lon="1.475205">
        <ele>55.5</ele>
        <time>1970-01-01T02:19:30.000Z</time>
      </trkpt>
      <trkpt lat="41.181911" lon="1.47528">
        <ele>55.5</ele>
        <time>1970-01-01T02:19:31.000Z</time>
      </trkpt>
      <trkpt lat="41.181929" lon="1.475337">
        <ele>55.5</ele>
        <time>1970-01-01T02:19:32.000Z</time>
      </trkpt>
      <trkpt lat="41.181955" lon="1.475417">
        <ele>55.5</ele>
        <time>1970-01-01T02:19:33.000Z</time>
      </trkpt>
      <trkpt lat="41.181982" lon="1.475488">
        <ele>55.4</ele>
        <time>1970-01-01T02:19:34.000Z</time>
      </trkpt>
      <trkpt lat="41.182006" lon="1.475574">
        <ele>55.4</ele>
        <time>1970-01-01T02:19:35.000Z</time>
      </trkpt>
      <trkpt lat="41.182028" lon="1.47566">
        <ele>55.3</ele>
        <time>1970-01-01T02:19:36.000Z</time>
      </trkpt>
      <trkpt lat="41.182057" lon="1.475755">
        <ele>55.3</ele>
        <time>1970-01-01T02:19:37.000Z</time>
      </trkpt>
      <trkpt lat="41.182077" lon="1.475853">
        <ele>55.1</ele>
        <time>1970-01-01T02:19:38.000Z</time>
      </trkpt>
      <trkpt lat="41.182098" lon="1.475954">
        <ele>54.9</ele>
        <time>1970-01-01T02:19:39.000Z</time>
      </trkpt>
      <trkpt lat="41.182115" lon="1.476037">
        <ele>54.7</ele>
        <time>1970-01-01T02:19:40.000Z</time>
      </trkpt>
      <trkpt lat="41.182127" lon="1.476134">
        <ele>54.6</ele>
        <time>1970-01-01T02:19:41.000Z</time>
      </trkpt>
      <trkpt lat="41.182137" lon="1.476251">
        <ele>54.3</ele>
        <time>1970-01-01T02:19:42.000Z</time>
      </trkpt>
      <trkpt lat="41.182163" lon="1.476371">
        <ele>54</ele>
        <time>1970-01-01T02:19:43.000Z</time>
      </trkpt>
      <trkpt lat="41.182201" lon="1.476494">
        <ele>53.5</ele>
        <time>1970-01-01T02:19:44.000Z</time>
      </trkpt>
      <trkpt lat="41.182237" lon="1.476648">
        <ele>52.9</ele>
        <time>1970-01-01T02:19:45.000Z</time>
      </trkpt>
      <trkpt lat="41.182247" lon="1.476786">
        <ele>52.4</ele>
        <time>1970-01-01T02:19:46.000Z</time>
      </trkpt>
      <trkpt lat="41.182247" lon="1.476915">
        <ele>52</ele>
        <time>1970-01-01T02:19:47.000Z</time>
      </trkpt>
      <trkpt lat="41.182249" lon="1.477061">
        <ele>51.4</ele>
        <time>1970-01-01T02:19:48.000Z</time>
      </trkpt>
      <trkpt lat="41.182246" lon="1.477194">
        <ele>50.9</ele>
        <time>1970-01-01T02:19:49.000Z</time>
      </trkpt>
      <trkpt lat="41.182246" lon="1.477314">
        <ele>50.4</ele>
        <time>1970-01-01T02:19:50.000Z</time>
      </trkpt>
      <trkpt lat="41.182248" lon="1.477447">
        <ele>49.8</ele>
        <time>1970-01-01T02:19:51.000Z</time>
      </trkpt>
      <trkpt lat="41.18225" lon="1.477586">
        <ele>49.1</ele>
        <time>1970-01-01T02:19:52.000Z</time>
      </trkpt>
      <trkpt lat="41.182245" lon="1.477715">
        <ele>48.3</ele>
        <time>1970-01-01T02:19:53.000Z</time>
      </trkpt>
      <trkpt lat="41.182258" lon="1.477856">
        <ele>47.5</ele>
        <time>1970-01-01T02:19:54.000Z</time>
      </trkpt>
      <trkpt lat="41.182263" lon="1.47799">
        <ele>46.9</ele>
        <time>1970-01-01T02:19:55.000Z</time>
      </trkpt>
      <trkpt lat="41.18226" lon="1.478128">
        <ele>46.1</ele>
        <time>1970-01-01T02:19:56.000Z</time>
      </trkpt>
      <trkpt lat="41.182263" lon="1.47825">
        <ele>45.3</ele>
        <time>1970-01-01T02:19:57.000Z</time>
      </trkpt>
      <trkpt lat="41.182278" lon="1.478353">
        <ele>44.7</ele>
        <time>1970-01-01T02:19:58.000Z</time>
      </trkpt>
      <trkpt lat="41.182284" lon="1.478432">
        <ele>44.3</ele>
        <time>1970-01-01T02:19:59.000Z</time>
      </trkpt>
      <trkpt lat="41.182291" lon="1.478515">
        <ele>43.9</ele>
        <time>1970-01-01T02:20:00.000Z</time>
      </trkpt>
      <trkpt lat="41.182296" lon="1.478598">
        <ele>43.4</ele>
        <time>1970-01-01T02:20:01.000Z</time>
      </trkpt>
      <trkpt lat="41.182302" lon="1.478702">
        <ele>43</ele>
        <time>1970-01-01T02:20:02.000Z</time>
      </trkpt>
      <trkpt lat="41.182304" lon="1.47878">
        <ele>42.6</ele>
        <time>1970-01-01T02:20:03.000Z</time>
      </trkpt>
      <trkpt lat="41.182307" lon="1.478866">
        <ele>42.3</ele>
        <time>1970-01-01T02:20:04.000Z</time>
      </trkpt>
      <trkpt lat="41.182302" lon="1.478949">
        <ele>42</ele>
        <time>1970-01-01T02:20:05.000Z</time>
      </trkpt>
      <trkpt lat="41.182291" lon="1.479035">
        <ele>41.9</ele>
        <time>1970-01-01T02:20:06.000Z</time>
      </trkpt>
      <trkpt lat="41.182285" lon="1.479117">
        <ele>41.7</ele>
        <time>1970-01-01T02:20:07.000Z</time>
      </trkpt>
      <trkpt lat="41.182283" lon="1.479206">
        <ele>41.7</ele>
        <time>1970-01-01T02:20:08.000Z</time>
      </trkpt>
      <trkpt lat="41.182277" lon="1.479303">
        <ele>41.6</ele>
        <time>1970-01-01T02:20:09.000Z</time>
      </trkpt>
      <trkpt lat="41.182272" lon="1.479399">
        <ele>41.6</ele>
        <time>1970-01-01T02:20:10.000Z</time>
      </trkpt>
      <trkpt lat="41.182268" lon="1.479492">
        <ele>41.6</ele>
        <time>1970-01-01T02:20:11.000Z</time>
      </trkpt>
      <trkpt lat="41.182269" lon="1.47958">
        <ele>41.6</ele>
        <time>1970-01-01T02:20:12.000Z</time>
      </trkpt>
      <trkpt lat="41.18227" lon="1.479665">
        <ele>41.6</ele>
        <time>1970-01-01T02:20:13.000Z</time>
      </trkpt>
      <trkpt lat="41.182269" lon="1.479745">
        <ele>41.7</ele>
        <time>1970-01-01T02:20:14.000Z</time>
      </trkpt>
      <trkpt lat="41.182266" lon="1.479819">
        <ele>41.7</ele>
        <time>1970-01-01T02:20:15.000Z</time>
      </trkpt>
      <trkpt lat="41.182267" lon="1.479895">
        <ele>41.8</ele>
        <time>1970-01-01T02:20:16.000Z</time>
      </trkpt>
      <trkpt lat="41.182268" lon="1.479974">
        <ele>41.8</ele>
        <time>1970-01-01T02:20:17.000Z</time>
      </trkpt>
      <trkpt lat="41.182271" lon="1.480051">
        <ele>41.9</ele>
        <time>1970-01-01T02:20:18.000Z</time>
      </trkpt>
      <trkpt lat="41.182267" lon="1.480128">
        <ele>41.9</ele>
        <time>1970-01-01T02:20:19.000Z</time>
      </trkpt>
      <trkpt lat="41.182263" lon="1.48021">
        <ele>42</ele>
        <time>1970-01-01T02:20:20.000Z</time>
      </trkpt>
      <trkpt lat="41.182247" lon="1.480294">
        <ele>42.1</ele>
        <time>1970-01-01T02:20:21.000Z</time>
      </trkpt>
      <trkpt lat="41.182247" lon="1.480383">
        <ele>42.2</ele>
        <time>1970-01-01T02:20:22.000Z</time>
      </trkpt>
      <trkpt lat="41.182253" lon="1.480473">
        <ele>42.2</ele>
        <time>1970-01-01T02:20:23.000Z</time>
      </trkpt>
      <trkpt lat="41.182246" lon="1.480563">
        <ele>42.3</ele>
        <time>1970-01-01T02:20:24.000Z</time>
      </trkpt>
      <trkpt lat="41.182251" lon="1.480647">
        <ele>42.4</ele>
        <time>1970-01-01T02:20:25.000Z</time>
      </trkpt>
      <trkpt lat="41.182252" lon="1.480733">
        <ele>42.4</ele>
        <time>1970-01-01T02:20:26.000Z</time>
      </trkpt>
      <trkpt lat="41.182255" lon="1.480817">
        <ele>42.5</ele>
        <time>1970-01-01T02:20:27.000Z</time>
      </trkpt>
      <trkpt lat="41.182255" lon="1.4809">
        <ele>42.5</ele>
        <time>1970-01-01T02:20:28.000Z</time>
      </trkpt>
      <trkpt lat="41.182255" lon="1.480987">
        <ele>42.5</ele>
        <time>1970-01-01T02:20:29.000Z</time>
      </trkpt>
      <trkpt lat="41.182251" lon="1.481077">
        <ele>42.6</ele>
        <time>1970-01-01T02:20:30.000Z</time>
      </trkpt>
      <trkpt lat="41.182237" lon="1.481165">
        <ele>42.6</ele>
        <time>1970-01-01T02:20:31.000Z</time>
      </trkpt>
      <trkpt lat="41.182229" lon="1.48126">
        <ele>42.6</ele>
        <time>1970-01-01T02:20:32.000Z</time>
      </trkpt>
      <trkpt lat="41.182215" lon="1.481359">
        <ele>42.6</ele>
        <time>1970-01-01T02:20:33.000Z</time>
      </trkpt>
      <trkpt lat="41.182199" lon="1.481461">
        <ele>42.7</ele>
        <time>1970-01-01T02:20:34.000Z</time>
      </trkpt>
      <trkpt lat="41.182197" lon="1.481558">
        <ele>42.7</ele>
        <time>1970-01-01T02:20:35.000Z</time>
      </trkpt>
      <trkpt lat="41.182182" lon="1.481654">
        <ele>42.7</ele>
        <time>1970-01-01T02:20:36.000Z</time>
      </trkpt>
      <trkpt lat="41.182175" lon="1.481769">
        <ele>42.7</ele>
        <time>1970-01-01T02:20:37.000Z</time>
      </trkpt>
      <trkpt lat="41.182175" lon="1.481876">
        <ele>42.8</ele>
        <time>1970-01-01T02:20:38.000Z</time>
      </trkpt>
      <trkpt lat="41.182175" lon="1.481971">
        <ele>42.8</ele>
        <time>1970-01-01T02:20:39.000Z</time>
      </trkpt>
      <trkpt lat="41.182173" lon="1.482074">
        <ele>42.8</ele>
        <time>1970-01-01T02:20:40.000Z</time>
      </trkpt>
      <trkpt lat="41.182171" lon="1.482177">
        <ele>42.7</ele>
        <time>1970-01-01T02:20:41.000Z</time>
      </trkpt>
      <trkpt lat="41.182171" lon="1.482268">
        <ele>42.9</ele>
        <time>1970-01-01T02:20:42.000Z</time>
      </trkpt>
      <trkpt lat="41.182169" lon="1.482363">
        <ele>43</ele>
        <time>1970-01-01T02:20:43.000Z</time>
      </trkpt>
      <trkpt lat="41.182165" lon="1.48247">
        <ele>43</ele>
        <time>1970-01-01T02:20:44.000Z</time>
      </trkpt>
      <trkpt lat="41.182161" lon="1.48258">
        <ele>43</ele>
        <time>1970-01-01T02:20:45.000Z</time>
      </trkpt>
      <trkpt lat="41.18214" lon="1.4827">
        <ele>42.6</ele>
        <time>1970-01-01T02:20:46.000Z</time>
      </trkpt>
      <trkpt lat="41.182139" lon="1.482821">
        <ele>42.5</ele>
        <time>1970-01-01T02:20:47.000Z</time>
      </trkpt>
      <trkpt lat="41.182141" lon="1.482944">
        <ele>42.4</ele>
        <time>1970-01-01T02:20:48.000Z</time>
      </trkpt>
      <trkpt lat="41.182145" lon="1.483069">
        <ele>42.4</ele>
        <time>1970-01-01T02:20:49.000Z</time>
      </trkpt>
      <trkpt lat="41.182145" lon="1.483197">
        <ele>42.2</ele>
        <time>1970-01-01T02:20:50.000Z</time>
      </trkpt>
      <trkpt lat="41.182156" lon="1.483318">
        <ele>41.9</ele>
        <time>1970-01-01T02:20:51.000Z</time>
      </trkpt>
      <trkpt lat="41.182172" lon="1.483443">
        <ele>41.7</ele>
        <time>1970-01-01T02:20:52.000Z</time>
      </trkpt>
      <trkpt lat="41.182179" lon="1.483564">
        <ele>41.4</ele>
        <time>1970-01-01T02:20:53.000Z</time>
      </trkpt>
      <trkpt lat="41.182181" lon="1.483693">
        <ele>41.1</ele>
        <time>1970-01-01T02:20:54.000Z</time>
      </trkpt>
      <trkpt lat="41.182173" lon="1.483816">
        <ele>40.7</ele>
        <time>1970-01-01T02:20:55.000Z</time>
      </trkpt>
      <trkpt lat="41.182167" lon="1.483932">
        <ele>40.3</ele>
        <time>1970-01-01T02:20:56.000Z</time>
      </trkpt>
      <trkpt lat="41.182164" lon="1.48405">
        <ele>39.7</ele>
        <time>1970-01-01T02:20:57.000Z</time>
      </trkpt>
      <trkpt lat="41.182163" lon="1.48416">
        <ele>39.1</ele>
        <time>1970-01-01T02:20:58.000Z</time>
      </trkpt>
      <trkpt lat="41.182143" lon="1.484247">
        <ele>38.6</ele>
        <time>1970-01-01T02:20:59.000Z</time>
      </trkpt>
      <trkpt lat="41.182133" lon="1.484343">
        <ele>38.1</ele>
        <time>1970-01-01T02:21:00.000Z</time>
      </trkpt>
      <trkpt lat="41.182135" lon="1.484448">
        <ele>37.6</ele>
        <time>1970-01-01T02:21:01.000Z</time>
      </trkpt>
      <trkpt lat="41.18213" lon="1.484548">
        <ele>37.2</ele>
        <time>1970-01-01T02:21:02.000Z</time>
      </trkpt>
      <trkpt lat="41.182128" lon="1.484644">
        <ele>36.7</ele>
        <time>1970-01-01T02:21:03.000Z</time>
      </trkpt>
      <trkpt lat="41.182128" lon="1.484739">
        <ele>36.3</ele>
        <time>1970-01-01T02:21:04.000Z</time>
      </trkpt>
      <trkpt lat="41.182133" lon="1.484841">
        <ele>35.9</ele>
        <time>1970-01-01T02:21:05.000Z</time>
      </trkpt>
      <trkpt lat="41.182142" lon="1.484934">
        <ele>35.5</ele>
        <time>1970-01-01T02:21:06.000Z</time>
      </trkpt>
      <trkpt lat="41.182162" lon="1.485007">
        <ele>34.8</ele>
        <time>1970-01-01T02:21:07.000Z</time>
      </trkpt>
      <trkpt lat="41.182175" lon="1.485076">
        <ele>34.1</ele>
        <time>1970-01-01T02:21:08.000Z</time>
      </trkpt>
      <trkpt lat="41.182184" lon="1.485138">
        <ele>33.6</ele>
        <time>1970-01-01T02:21:09.000Z</time>
      </trkpt>
      <trkpt lat="41.182194" lon="1.485181">
        <ele>33.3</ele>
        <time>1970-01-01T02:21:10.000Z</time>
      </trkpt>
      <trkpt lat="41.182299" lon="1.485073">
        <ele>32.6</ele>
        <time>1970-01-01T02:21:16.000Z</time>
      </trkpt>
      <trkpt lat="41.182342" lon="1.485037">
        <ele>32.6</ele>
        <time>1970-01-01T02:21:17.000Z</time>
      </trkpt>
      <trkpt lat="41.182384" lon="1.485017">
        <ele>32.5</ele>
        <time>1970-01-01T02:21:18.000Z</time>
      </trkpt>
      <trkpt lat="41.182442" lon="1.485002">
        <ele>32.6</ele>
        <time>1970-01-01T02:21:19.000Z</time>
      </trkpt>
      <trkpt lat="41.182475" lon="1.485023">
        <ele>32.6</ele>
        <time>1970-01-01T02:21:20.000Z</time>
      </trkpt>
      <trkpt lat="41.182485" lon="1.485063">
        <ele>32.6</ele>
        <time>1970-01-01T02:21:21.000Z</time>
      </trkpt>
      <trkpt lat="41.182487" lon="1.485112">
        <ele>32.7</ele>
        <time>1970-01-01T02:21:22.000Z</time>
      </trkpt>
      <trkpt lat="41.182489" lon="1.485162">
        <ele>32.7</ele>
        <time>1970-01-01T02:21:23.000Z</time>
      </trkpt>
      <trkpt lat="41.182516" lon="1.485216">
        <ele>32.8</ele>
        <time>1970-01-01T02:21:24.000Z</time>
      </trkpt>
      <trkpt lat="41.182515" lon="1.48527">
        <ele>32.8</ele>
        <time>1970-01-01T02:21:25.000Z</time>
      </trkpt>
      <trkpt lat="41.182512" lon="1.485327">
        <ele>32.8</ele>
        <time>1970-01-01T02:21:26.000Z</time>
      </trkpt>
      <trkpt lat="41.182525" lon="1.485387">
        <ele>32.8</ele>
        <time>1970-01-01T02:21:27.000Z</time>
      </trkpt>
      <trkpt lat="41.182518" lon="1.485434">
        <ele>32.8</ele>
        <time>1970-01-01T02:21:28.000Z</time>
      </trkpt>
      <trkpt lat="41.18251" lon="1.485477">
        <ele>32.8</ele>
        <time>1970-01-01T02:21:29.000Z</time>
      </trkpt>
      <trkpt lat="41.182505" lon="1.48552">
        <ele>32.8</ele>
        <time>1970-01-01T02:21:30.000Z</time>
      </trkpt>
      <trkpt lat="41.182482" lon="1.485603">
        <ele>32.8</ele>
        <time>1970-01-01T02:21:32.000Z</time>
      </trkpt>
      <trkpt lat="41.182473" lon="1.48564">
        <ele>32.8</ele>
        <time>1970-01-01T02:21:33.000Z</time>
      </trkpt>
      <trkpt lat="41.182464" lon="1.485684">
        <ele>32.7</ele>
        <time>1970-01-01T02:21:34.000Z</time>
      </trkpt>
      <trkpt lat="41.182463" lon="1.485733">
        <ele>32.6</ele>
        <time>1970-01-01T02:21:35.000Z</time>
      </trkpt>
      <trkpt lat="41.182483" lon="1.485817">
        <ele>32.4</ele>
        <time>1970-01-01T02:21:36.000Z</time>
      </trkpt>
      <trkpt lat="41.182484" lon="1.485899">
        <ele>32.2</ele>
        <time>1970-01-01T02:21:37.000Z</time>
      </trkpt>
      <trkpt lat="41.182486" lon="1.485976">
        <ele>32.1</ele>
        <time>1970-01-01T02:21:38.000Z</time>
      </trkpt>
      <trkpt lat="41.182496" lon="1.486042">
        <ele>31.9</ele>
        <time>1970-01-01T02:21:39.000Z</time>
      </trkpt>
      <trkpt lat="41.182495" lon="1.486102">
        <ele>31.7</ele>
        <time>1970-01-01T02:21:40.000Z</time>
      </trkpt>
      <trkpt lat="41.182497" lon="1.486179">
        <ele>31.6</ele>
        <time>1970-01-01T02:21:41.000Z</time>
      </trkpt>
      <trkpt lat="41.182503" lon="1.486263">
        <ele>31.4</ele>
        <time>1970-01-01T02:21:42.000Z</time>
      </trkpt>
      <trkpt lat="41.182511" lon="1.486345">
        <ele>31.3</ele>
        <time>1970-01-01T02:21:43.000Z</time>
      </trkpt>
      <trkpt lat="41.182512" lon="1.48642">
        <ele>31.1</ele>
        <time>1970-01-01T02:21:44.000Z</time>
      </trkpt>
      <trkpt lat="41.182515" lon="1.486508">
        <ele>31</ele>
        <time>1970-01-01T02:21:45.000Z</time>
      </trkpt>
      <trkpt lat="41.182513" lon="1.48659">
        <ele>30.9</ele>
        <time>1970-01-01T02:21:46.000Z</time>
      </trkpt>
      <trkpt lat="41.182512" lon="1.486676">
        <ele>30.8</ele>
        <time>1970-01-01T02:21:47.000Z</time>
      </trkpt>
      <trkpt lat="41.182517" lon="1.486772">
        <ele>30.6</ele>
        <time>1970-01-01T02:21:48.000Z</time>
      </trkpt>
      <trkpt lat="41.182522" lon="1.486859">
        <ele>30.5</ele>
        <time>1970-01-01T02:21:49.000Z</time>
      </trkpt>
      <trkpt lat="41.182524" lon="1.486951">
        <ele>30.3</ele>
        <time>1970-01-01T02:21:50.000Z</time>
      </trkpt>
      <trkpt lat="41.18251" lon="1.487031">
        <ele>30</ele>
        <time>1970-01-01T02:21:51.000Z</time>
      </trkpt>
      <trkpt lat="41.182506" lon="1.487105">
        <ele>29.7</ele>
        <time>1970-01-01T02:21:52.000Z</time>
      </trkpt>
      <trkpt lat="41.182505" lon="1.487195">
        <ele>29.3</ele>
        <time>1970-01-01T02:21:53.000Z</time>
      </trkpt>
      <trkpt lat="41.182504" lon="1.48728">
        <ele>28.7</ele>
        <time>1970-01-01T02:21:54.000Z</time>
      </trkpt>
      <trkpt lat="41.182502" lon="1.487379">
        <ele>28.1</ele>
        <time>1970-01-01T02:21:55.000Z</time>
      </trkpt>
      <trkpt lat="41.182501" lon="1.487488">
        <ele>27.4</ele>
        <time>1970-01-01T02:21:56.000Z</time>
      </trkpt>
      <trkpt lat="41.182509" lon="1.487597">
        <ele>26.6</ele>
        <time>1970-01-01T02:21:57.000Z</time>
      </trkpt>
      <trkpt lat="41.182515" lon="1.487697">
        <ele>26.3</ele>
        <time>1970-01-01T02:21:58.000Z</time>
      </trkpt>
      <trkpt lat="41.182516" lon="1.487787">
        <ele>26.2</ele>
        <time>1970-01-01T02:21:59.000Z</time>
      </trkpt>
      <trkpt lat="41.182515" lon="1.487874">
        <ele>26.2</ele>
        <time>1970-01-01T02:22:00.000Z</time>
      </trkpt>
      <trkpt lat="41.182517" lon="1.487952">
        <ele>26.4</ele>
        <time>1970-01-01T02:22:01.000Z</time>
      </trkpt>
      <trkpt lat="41.182515" lon="1.488007">
        <ele>26.6</ele>
        <time>1970-01-01T02:22:02.000Z</time>
      </trkpt>
      <trkpt lat="41.182508" lon="1.488071">
        <ele>27</ele>
        <time>1970-01-01T02:22:03.000Z</time>
      </trkpt>
      <trkpt lat="41.18252" lon="1.48812">
        <ele>27.2</ele>
        <time>1970-01-01T02:22:04.000Z</time>
      </trkpt>
      <trkpt lat="41.182516" lon="1.48819">
        <ele>27.6</ele>
        <time>1970-01-01T02:22:05.000Z</time>
      </trkpt>
      <trkpt lat="41.182508" lon="1.488237">
        <ele>27.8</ele>
        <time>1970-01-01T02:22:06.000Z</time>
      </trkpt>
      <trkpt lat="41.182502" lon="1.488296">
        <ele>28.2</ele>
        <time>1970-01-01T02:22:07.000Z</time>
      </trkpt>
      <trkpt lat="41.182498" lon="1.488362">
        <ele>28.6</ele>
        <time>1970-01-01T02:22:08.000Z</time>
      </trkpt>
      <trkpt lat="41.18249" lon="1.488413">
        <ele>28.8</ele>
        <time>1970-01-01T02:22:09.000Z</time>
      </trkpt>
      <trkpt lat="41.182485" lon="1.488464">
        <ele>29.1</ele>
        <time>1970-01-01T02:22:10.000Z</time>
      </trkpt>
      <trkpt lat="41.18248" lon="1.488512">
        <ele>29.3</ele>
        <time>1970-01-01T02:22:11.000Z</time>
      </trkpt>
      <trkpt lat="41.182473" lon="1.488568">
        <ele>29.6</ele>
        <time>1970-01-01T02:22:12.000Z</time>
      </trkpt>
      <trkpt lat="41.182475" lon="1.488613">
        <ele>29.8</ele>
        <time>1970-01-01T02:22:13.000Z</time>
      </trkpt>
      <trkpt lat="41.182465" lon="1.488661">
        <ele>30.1</ele>
        <time>1970-01-01T02:22:14.000Z</time>
      </trkpt>
      <trkpt lat="41.182465" lon="1.488731">
        <ele>30.4</ele>
        <time>1970-01-01T02:22:15.000Z</time>
      </trkpt>
      <trkpt lat="41.182465" lon="1.488815">
        <ele>30.7</ele>
        <time>1970-01-01T02:22:16.000Z</time>
      </trkpt>
      <trkpt lat="41.182468" lon="1.488872">
        <ele>31</ele>
        <time>1970-01-01T02:22:17.000Z</time>
      </trkpt>
      <trkpt lat="41.182468" lon="1.488924">
        <ele>31.2</ele>
        <time>1970-01-01T02:22:18.000Z</time>
      </trkpt>
      <trkpt lat="41.182465" lon="1.488996">
        <ele>31.5</ele>
        <time>1970-01-01T02:22:19.000Z</time>
      </trkpt>
      <trkpt lat="41.182461" lon="1.489062">
        <ele>31.8</ele>
        <time>1970-01-01T02:22:20.000Z</time>
      </trkpt>
      <trkpt lat="41.18244" lon="1.489101">
        <ele>32</ele>
        <time>1970-01-01T02:22:21.000Z</time>
      </trkpt>
      <trkpt lat="41.182431" lon="1.489173">
        <ele>32.3</ele>
        <time>1970-01-01T02:22:22.000Z</time>
      </trkpt>
      <trkpt lat="41.182427" lon="1.489239">
        <ele>32.5</ele>
        <time>1970-01-01T02:22:23.000Z</time>
      </trkpt>
      <trkpt lat="41.18243" lon="1.489312">
        <ele>32.8</ele>
        <time>1970-01-01T02:22:24.000Z</time>
      </trkpt>
      <trkpt lat="41.182427" lon="1.489363">
        <ele>33</ele>
        <time>1970-01-01T02:22:25.000Z</time>
      </trkpt>
      <trkpt lat="41.182424" lon="1.489433">
        <ele>33.2</ele>
        <time>1970-01-01T02:22:26.000Z</time>
      </trkpt>
      <trkpt lat="41.182419" lon="1.489484">
        <ele>33.4</ele>
        <time>1970-01-01T02:22:27.000Z</time>
      </trkpt>
      <trkpt lat="41.1824" lon="1.48954">
        <ele>33.5</ele>
        <time>1970-01-01T02:22:28.000Z</time>
      </trkpt>
      <trkpt lat="41.182394" lon="1.489601">
        <ele>33.7</ele>
        <time>1970-01-01T02:22:29.000Z</time>
      </trkpt>
      <trkpt lat="41.182391" lon="1.489678">
        <ele>33.9</ele>
        <time>1970-01-01T02:22:30.000Z</time>
      </trkpt>
      <trkpt lat="41.18239" lon="1.489742">
        <ele>34.1</ele>
        <time>1970-01-01T02:22:31.000Z</time>
      </trkpt>
      <trkpt lat="41.182393" lon="1.489814">
        <ele>34.3</ele>
        <time>1970-01-01T02:22:32.000Z</time>
      </trkpt>
      <trkpt lat="41.182389" lon="1.489874">
        <ele>34.5</ele>
        <time>1970-01-01T02:22:33.000Z</time>
      </trkpt>
      <trkpt lat="41.182383" lon="1.489933">
        <ele>34.7</ele>
        <time>1970-01-01T02:22:34.000Z</time>
      </trkpt>
      <trkpt lat="41.182369" lon="1.489991">
        <ele>34.9</ele>
        <time>1970-01-01T02:22:35.000Z</time>
      </trkpt>
      <trkpt lat="41.182364" lon="1.490049">
        <ele>35</ele>
        <time>1970-01-01T02:22:36.000Z</time>
      </trkpt>
      <trkpt lat="41.182363" lon="1.490106">
        <ele>35.2</ele>
        <time>1970-01-01T02:22:37.000Z</time>
      </trkpt>
      <trkpt lat="41.18237" lon="1.490164">
        <ele>35.4</ele>
        <time>1970-01-01T02:22:38.000Z</time>
      </trkpt>
      <trkpt lat="41.182365" lon="1.490228">
        <ele>35.6</ele>
        <time>1970-01-01T02:22:39.000Z</time>
      </trkpt>
      <trkpt lat="41.182363" lon="1.490277">
        <ele>35.7</ele>
        <time>1970-01-01T02:22:40.000Z</time>
      </trkpt>
      <trkpt lat="41.182364" lon="1.490333">
        <ele>35.9</ele>
        <time>1970-01-01T02:22:41.000Z</time>
      </trkpt>
      <trkpt lat="41.182365" lon="1.490379">
        <ele>36.1</ele>
        <time>1970-01-01T02:22:42.000Z</time>
      </trkpt>
      <trkpt lat="41.182373" lon="1.49043">
        <ele>36.3</ele>
        <time>1970-01-01T02:22:43.000Z</time>
      </trkpt>
      <trkpt lat="41.18238" lon="1.490483">
        <ele>36.6</ele>
        <time>1970-01-01T02:22:44.000Z</time>
      </trkpt>
      <trkpt lat="41.182396" lon="1.490537">
        <ele>37</ele>
        <time>1970-01-01T02:22:45.000Z</time>
      </trkpt>
      <trkpt lat="41.182409" lon="1.490601">
        <ele>37.4</ele>
        <time>1970-01-01T02:22:46.000Z</time>
      </trkpt>
      <trkpt lat="41.182409" lon="1.490645">
        <ele>37.8</ele>
        <time>1970-01-01T02:22:47.000Z</time>
      </trkpt>
      <trkpt lat="41.182413" lon="1.490692">
        <ele>38.2</ele>
        <time>1970-01-01T02:22:48.000Z</time>
      </trkpt>
      <trkpt lat="41.182423" lon="1.490745">
        <ele>38.6</ele>
        <time>1970-01-01T02:22:49.000Z</time>
      </trkpt>
      <trkpt lat="41.182434" lon="1.490795">
        <ele>39.1</ele>
        <time>1970-01-01T02:22:50.000Z</time>
      </trkpt>
      <trkpt lat="41.18244" lon="1.490837">
        <ele>39.5</ele>
        <time>1970-01-01T02:22:51.000Z</time>
      </trkpt>
      <trkpt lat="41.182439" lon="1.49088">
        <ele>39.9</ele>
        <time>1970-01-01T02:22:52.000Z</time>
      </trkpt>
      <trkpt lat="41.182437" lon="1.490921">
        <ele>40.3</ele>
        <time>1970-01-01T02:22:53.000Z</time>
      </trkpt>
      <trkpt lat="41.182449" lon="1.490973">
        <ele>40.9</ele>
        <time>1970-01-01T02:22:54.000Z</time>
      </trkpt>
      <trkpt lat="41.182455" lon="1.491031">
        <ele>41.4</ele>
        <time>1970-01-01T02:22:55.000Z</time>
      </trkpt>
      <trkpt lat="41.182455" lon="1.491092">
        <ele>41.9</ele>
        <time>1970-01-01T02:22:56.000Z</time>
      </trkpt>
      <trkpt lat="41.182465" lon="1.491168">
        <ele>42.4</ele>
        <time>1970-01-01T02:22:57.000Z</time>
      </trkpt>
      <trkpt lat="41.182461" lon="1.491244">
        <ele>42.8</ele>
        <time>1970-01-01T02:22:58.000Z</time>
      </trkpt>
      <trkpt lat="41.182456" lon="1.491316">
        <ele>43</ele>
        <time>1970-01-01T02:22:59.000Z</time>
      </trkpt>
      <trkpt lat="41.182449" lon="1.491387">
        <ele>43.1</ele>
        <time>1970-01-01T02:23:00.000Z</time>
      </trkpt>
      <trkpt lat="41.182461" lon="1.491477">
        <ele>43.2</ele>
        <time>1970-01-01T02:23:01.000Z</time>
      </trkpt>
      <trkpt lat="41.182458" lon="1.491564">
        <ele>43.2</ele>
        <time>1970-01-01T02:23:02.000Z</time>
      </trkpt>
      <trkpt lat="41.182455" lon="1.491666">
        <ele>43.2</ele>
        <time>1970-01-01T02:23:03.000Z</time>
      </trkpt>
      <trkpt lat="41.182449" lon="1.491774">
        <ele>43.2</ele>
        <time>1970-01-01T02:23:04.000Z</time>
      </trkpt>
      <trkpt lat="41.182453" lon="1.491892">
        <ele>43.1</ele>
        <time>1970-01-01T02:23:05.000Z</time>
      </trkpt>
      <trkpt lat="41.182458" lon="1.492003">
        <ele>43</ele>
        <time>1970-01-01T02:23:06.000Z</time>
      </trkpt>
      <trkpt lat="41.182465" lon="1.492118">
        <ele>42.9</ele>
        <time>1970-01-01T02:23:07.000Z</time>
      </trkpt>
      <trkpt lat="41.182472" lon="1.49223">
        <ele>42.5</ele>
        <time>1970-01-01T02:23:08.000Z</time>
      </trkpt>
      <trkpt lat="41.182475" lon="1.492318">
        <ele>42.3</ele>
        <time>1970-01-01T02:23:09.000Z</time>
      </trkpt>
      <trkpt lat="41.182452" lon="1.492382">
        <ele>42.1</ele>
        <time>1970-01-01T02:23:10.000Z</time>
      </trkpt>
      <trkpt lat="41.182428" lon="1.492406">
        <ele>42.1</ele>
        <time>1970-01-01T02:23:12.000Z</time>
      </trkpt>
      <trkpt lat="41.18242" lon="1.492446">
        <ele>42</ele>
        <time>1970-01-01T02:23:14.000Z</time>
      </trkpt>
      <trkpt lat="41.182426" lon="1.492504">
        <ele>42</ele>
        <time>1970-01-01T02:23:16.000Z</time>
      </trkpt>
      <trkpt lat="41.182435" lon="1.492575">
        <ele>41.9</ele>
        <time>1970-01-01T02:23:18.000Z</time>
      </trkpt>
      <trkpt lat="41.182441" lon="1.492617">
        <ele>41.8</ele>
        <time>1970-01-01T02:23:19.000Z</time>
      </trkpt>
      <trkpt lat="41.182457" lon="1.492693">
        <ele>41.8</ele>
        <time>1970-01-01T02:23:21.000Z</time>
      </trkpt>
      <trkpt lat="41.182464" lon="1.492758">
        <ele>41.7</ele>
        <time>1970-01-01T02:23:23.000Z</time>
      </trkpt>
      <trkpt lat="41.182462" lon="1.492802">
        <ele>41.7</ele>
        <time>1970-01-01T02:23:24.000Z</time>
      </trkpt>
      <trkpt lat="41.182471" lon="1.492855">
        <ele>41.7</ele>
        <time>1970-01-01T02:23:25.000Z</time>
      </trkpt>
      <trkpt lat="41.182467" lon="1.492905">
        <ele>41.7</ele>
        <time>1970-01-01T02:23:26.000Z</time>
      </trkpt>
      <trkpt lat="41.18246" lon="1.492959">
        <ele>41.7</ele>
        <time>1970-01-01T02:23:27.000Z</time>
      </trkpt>
      <trkpt lat="41.18247" lon="1.493045">
        <ele>41.7</ele>
        <time>1970-01-01T02:23:28.000Z</time>
      </trkpt>
      <trkpt lat="41.182457" lon="1.493124">
        <ele>41.7</ele>
        <time>1970-01-01T02:23:29.000Z</time>
      </trkpt>
      <trkpt lat="41.182442" lon="1.493186">
        <ele>41.7</ele>
        <time>1970-01-01T02:23:30.000Z</time>
      </trkpt>
      <trkpt lat="41.182427" lon="1.493244">
        <ele>41.7</ele>
        <time>1970-01-01T02:23:31.000Z</time>
      </trkpt>
      <trkpt lat="41.18242" lon="1.4933">
        <ele>41.7</ele>
        <time>1970-01-01T02:23:32.000Z</time>
      </trkpt>
      <trkpt lat="41.182415" lon="1.493359">
        <ele>41.7</ele>
        <time>1970-01-01T02:23:33.000Z</time>
      </trkpt>
      <trkpt lat="41.182412" lon="1.493429">
        <ele>41.7</ele>
        <time>1970-01-01T02:23:34.000Z</time>
      </trkpt>
      <trkpt lat="41.182408" lon="1.493479">
        <ele>41.8</ele>
        <time>1970-01-01T02:23:35.000Z</time>
      </trkpt>
      <trkpt lat="41.182402" lon="1.493562">
        <ele>41.8</ele>
        <time>1970-01-01T02:23:36.000Z</time>
      </trkpt>
      <trkpt lat="41.182404" lon="1.493634">
        <ele>41.9</ele>
        <time>1970-01-01T02:23:37.000Z</time>
      </trkpt>
      <trkpt lat="41.18241" lon="1.493726">
        <ele>42.1</ele>
        <time>1970-01-01T02:23:38.000Z</time>
      </trkpt>
      <trkpt lat="41.182406" lon="1.493808">
        <ele>42.2</ele>
        <time>1970-01-01T02:23:39.000Z</time>
      </trkpt>
      <trkpt lat="41.1824" lon="1.493883">
        <ele>42.3</ele>
        <time>1970-01-01T02:23:40.000Z</time>
      </trkpt>
      <trkpt lat="41.182418" lon="1.493966">
        <ele>42.4</ele>
        <time>1970-01-01T02:23:41.000Z</time>
      </trkpt>
      <trkpt lat="41.182434" lon="1.494037">
        <ele>42.4</ele>
        <time>1970-01-01T02:23:42.000Z</time>
      </trkpt>
      <trkpt lat="41.182455" lon="1.494108">
        <ele>42.5</ele>
        <time>1970-01-01T02:23:43.000Z</time>
      </trkpt>
      <trkpt lat="41.182466" lon="1.494173">
        <ele>42.6</ele>
        <time>1970-01-01T02:23:44.000Z</time>
      </trkpt>
      <trkpt lat="41.182472" lon="1.494241">
        <ele>42.7</ele>
        <time>1970-01-01T02:23:45.000Z</time>
      </trkpt>
      <trkpt lat="41.182481" lon="1.494301">
        <ele>42.8</ele>
        <time>1970-01-01T02:23:46.000Z</time>
      </trkpt>
      <trkpt lat="41.182475" lon="1.494368">
        <ele>42.8</ele>
        <time>1970-01-01T02:23:47.000Z</time>
      </trkpt>
      <trkpt lat="41.182487" lon="1.494436">
        <ele>43</ele>
        <time>1970-01-01T02:23:48.000Z</time>
      </trkpt>
      <trkpt lat="41.182494" lon="1.494492">
        <ele>43</ele>
        <time>1970-01-01T02:23:49.000Z</time>
      </trkpt>
      <trkpt lat="41.182502" lon="1.494553">
        <ele>43</ele>
        <time>1970-01-01T02:23:50.000Z</time>
      </trkpt>
      <trkpt lat="41.18251" lon="1.494604">
        <ele>43</ele>
        <time>1970-01-01T02:23:51.000Z</time>
      </trkpt>
      <trkpt lat="41.18251" lon="1.494661">
        <ele>43</ele>
        <time>1970-01-01T02:23:52.000Z</time>
      </trkpt>
      <trkpt lat="41.182513" lon="1.494717">
        <ele>43</ele>
        <time>1970-01-01T02:23:53.000Z</time>
      </trkpt>
      <trkpt lat="41.182516" lon="1.494765">
        <ele>42.9</ele>
        <time>1970-01-01T02:23:54.000Z</time>
      </trkpt>
      <trkpt lat="41.182513" lon="1.494817">
        <ele>42.8</ele>
        <time>1970-01-01T02:23:55.000Z</time>
      </trkpt>
      <trkpt lat="41.182505" lon="1.494868">
        <ele>42.8</ele>
        <time>1970-01-01T02:23:56.000Z</time>
      </trkpt>
      <trkpt lat="41.18248" lon="1.494932">
        <ele>42.7</ele>
        <time>1970-01-01T02:23:57.000Z</time>
      </trkpt>
      <trkpt lat="41.182445" lon="1.495015">
        <ele>42.5</ele>
        <time>1970-01-01T02:23:58.000Z</time>
      </trkpt>
      <trkpt lat="41.182426" lon="1.49507">
        <ele>42.3</ele>
        <time>1970-01-01T02:23:59.000Z</time>
      </trkpt>
      <trkpt lat="41.182429" lon="1.495136">
        <ele>42.1</ele>
        <time>1970-01-01T02:24:00.000Z</time>
      </trkpt>
      <trkpt lat="41.182441" lon="1.495185">
        <ele>41.9</ele>
        <time>1970-01-01T02:24:01.000Z</time>
      </trkpt>
      <trkpt lat="41.182437" lon="1.495242">
        <ele>41.7</ele>
        <time>1970-01-01T02:24:02.000Z</time>
      </trkpt>
      <trkpt lat="41.182415" lon="1.49529">
        <ele>41.6</ele>
        <time>1970-01-01T02:24:03.000Z</time>
      </trkpt>
      <trkpt lat="41.182379" lon="1.495344">
        <ele>41.3</ele>
        <time>1970-01-01T02:24:04.000Z</time>
      </trkpt>
      <trkpt lat="41.182364" lon="1.495408">
        <ele>41.1</ele>
        <time>1970-01-01T02:24:05.000Z</time>
      </trkpt>
      <trkpt lat="41.182345" lon="1.495482">
        <ele>40.8</ele>
        <time>1970-01-01T02:24:06.000Z</time>
      </trkpt>
      <trkpt lat="41.182337" lon="1.495568">
        <ele>40.4</ele>
        <time>1970-01-01T02:24:07.000Z</time>
      </trkpt>
      <trkpt lat="41.182334" lon="1.495643">
        <ele>40</ele>
        <time>1970-01-01T02:24:08.000Z</time>
      </trkpt>
      <trkpt lat="41.182335" lon="1.495725">
        <ele>39.6</ele>
        <time>1970-01-01T02:24:09.000Z</time>
      </trkpt>
      <trkpt lat="41.182348" lon="1.495804">
        <ele>39.1</ele>
        <time>1970-01-01T02:24:10.000Z</time>
      </trkpt>
      <trkpt lat="41.182363" lon="1.495865">
        <ele>38.8</ele>
        <time>1970-01-01T02:24:11.000Z</time>
      </trkpt>
      <trkpt lat="41.182364" lon="1.495932">
        <ele>38.6</ele>
        <time>1970-01-01T02:24:12.000Z</time>
      </trkpt>
      <trkpt lat="41.182355" lon="1.496008">
        <ele>38.3</ele>
        <time>1970-01-01T02:24:13.000Z</time>
      </trkpt>
      <trkpt lat="41.182346" lon="1.496087">
        <ele>38</ele>
        <time>1970-01-01T02:24:14.000Z</time>
      </trkpt>
      <trkpt lat="41.182357" lon="1.496155">
        <ele>37.8</ele>
        <time>1970-01-01T02:24:15.000Z</time>
      </trkpt>
      <trkpt lat="41.182372" lon="1.496227">
        <ele>37.4</ele>
        <time>1970-01-01T02:24:16.000Z</time>
      </trkpt>
      <trkpt lat="41.182382" lon="1.496306">
        <ele>36.8</ele>
        <time>1970-01-01T02:24:17.000Z</time>
      </trkpt>
      <trkpt lat="41.182394" lon="1.496374">
        <ele>36.5</ele>
        <time>1970-01-01T02:24:18.000Z</time>
      </trkpt>
      <trkpt lat="41.182397" lon="1.496435">
        <ele>36.3</ele>
        <time>1970-01-01T02:24:19.000Z</time>
      </trkpt>
      <trkpt lat="41.182405" lon="1.496511">
        <ele>36</ele>
        <time>1970-01-01T02:24:20.000Z</time>
      </trkpt>
      <trkpt lat="41.182404" lon="1.496579">
        <ele>35.8</ele>
        <time>1970-01-01T02:24:21.000Z</time>
      </trkpt>
      <trkpt lat="41.182411" lon="1.496652">
        <ele>35.5</ele>
        <time>1970-01-01T02:24:22.000Z</time>
      </trkpt>
      <trkpt lat="41.182427" lon="1.496726">
        <ele>35.3</ele>
        <time>1970-01-01T02:24:23.000Z</time>
      </trkpt>
      <trkpt lat="41.182433" lon="1.496798">
        <ele>35</ele>
        <time>1970-01-01T02:24:24.000Z</time>
      </trkpt>
      <trkpt lat="41.182423" lon="1.496882">
        <ele>34.8</ele>
        <time>1970-01-01T02:24:25.000Z</time>
      </trkpt>
      <trkpt lat="41.18242" lon="1.496969">
        <ele>34.6</ele>
        <time>1970-01-01T02:24:26.000Z</time>
      </trkpt>
      <trkpt lat="41.182412" lon="1.49704">
        <ele>34.4</ele>
        <time>1970-01-01T02:24:27.000Z</time>
      </trkpt>
      <trkpt lat="41.182428" lon="1.497107">
        <ele>34.3</ele>
        <time>1970-01-01T02:24:28.000Z</time>
      </trkpt>
      <trkpt lat="41.182423" lon="1.497191">
        <ele>34.1</ele>
        <time>1970-01-01T02:24:29.000Z</time>
      </trkpt>
      <trkpt lat="41.182419" lon="1.497257">
        <ele>33.9</ele>
        <time>1970-01-01T02:24:30.000Z</time>
      </trkpt>
      <trkpt lat="41.182418" lon="1.497321">
        <ele>33.8</ele>
        <time>1970-01-01T02:24:31.000Z</time>
      </trkpt>
      <trkpt lat="41.182427" lon="1.497389">
        <ele>33.6</ele>
        <time>1970-01-01T02:24:32.000Z</time>
      </trkpt>
      <trkpt lat="41.182432" lon="1.497459">
        <ele>33.6</ele>
        <time>1970-01-01T02:24:33.000Z</time>
      </trkpt>
      <trkpt lat="41.182436" lon="1.497519">
        <ele>33.5</ele>
        <time>1970-01-01T02:24:34.000Z</time>
      </trkpt>
      <trkpt lat="41.182447" lon="1.497593">
        <ele>33.4</ele>
        <time>1970-01-01T02:24:35.000Z</time>
      </trkpt>
      <trkpt lat="41.182464" lon="1.497666">
        <ele>33.4</ele>
        <time>1970-01-01T02:24:36.000Z</time>
      </trkpt>
      <trkpt lat="41.182481" lon="1.497729">
        <ele>33.4</ele>
        <time>1970-01-01T02:24:37.000Z</time>
      </trkpt>
      <trkpt lat="41.182485" lon="1.497788">
        <ele>33.3</ele>
        <time>1970-01-01T02:24:38.000Z</time>
      </trkpt>
      <trkpt lat="41.182491" lon="1.497862">
        <ele>33.3</ele>
        <time>1970-01-01T02:24:39.000Z</time>
      </trkpt>
      <trkpt lat="41.182491" lon="1.497939">
        <ele>33.3</ele>
        <time>1970-01-01T02:24:40.000Z</time>
      </trkpt>
      <trkpt lat="41.182491" lon="1.498023">
        <ele>33.2</ele>
        <time>1970-01-01T02:24:41.000Z</time>
      </trkpt>
      <trkpt lat="41.182504" lon="1.498112">
        <ele>33.2</ele>
        <time>1970-01-01T02:24:42.000Z</time>
      </trkpt>
      <trkpt lat="41.182526" lon="1.4982">
        <ele>33.1</ele>
        <time>1970-01-01T02:24:43.000Z</time>
      </trkpt>
      <trkpt lat="41.182547" lon="1.498289">
        <ele>33.1</ele>
        <time>1970-01-01T02:24:44.000Z</time>
      </trkpt>
      <trkpt lat="41.18256" lon="1.498369">
        <ele>33</ele>
        <time>1970-01-01T02:24:45.000Z</time>
      </trkpt>
      <trkpt lat="41.182563" lon="1.498454">
        <ele>33</ele>
        <time>1970-01-01T02:24:46.000Z</time>
      </trkpt>
      <trkpt lat="41.182553" lon="1.498549">
        <ele>32.9</ele>
        <time>1970-01-01T02:24:47.000Z</time>
      </trkpt>
      <trkpt lat="41.182546" lon="1.498636">
        <ele>32.9</ele>
        <time>1970-01-01T02:24:48.000Z</time>
      </trkpt>
      <trkpt lat="41.18255" lon="1.498734">
        <ele>32.9</ele>
        <time>1970-01-01T02:24:49.000Z</time>
      </trkpt>
      <trkpt lat="41.182572" lon="1.498833">
        <ele>32.9</ele>
        <time>1970-01-01T02:24:50.000Z</time>
      </trkpt>
      <trkpt lat="41.182588" lon="1.498932">
        <ele>32.9</ele>
        <time>1970-01-01T02:24:51.000Z</time>
      </trkpt>
      <trkpt lat="41.182601" lon="1.499031">
        <ele>32.8</ele>
        <time>1970-01-01T02:24:52.000Z</time>
      </trkpt>
      <trkpt lat="41.182608" lon="1.499127">
        <ele>32.8</ele>
        <time>1970-01-01T02:24:53.000Z</time>
      </trkpt>
      <trkpt lat="41.182612" lon="1.499223">
        <ele>32.8</ele>
        <time>1970-01-01T02:24:54.000Z</time>
      </trkpt>
      <trkpt lat="41.182609" lon="1.499329">
        <ele>32.7</ele>
        <time>1970-01-01T02:24:55.000Z</time>
      </trkpt>
      <trkpt lat="41.182617" lon="1.499418">
        <ele>32.7</ele>
        <time>1970-01-01T02:24:56.000Z</time>
      </trkpt>
      <trkpt lat="41.182639" lon="1.49952">
        <ele>32.6</ele>
        <time>1970-01-01T02:24:57.000Z</time>
      </trkpt>
      <trkpt lat="41.182664" lon="1.499604">
        <ele>32.6</ele>
        <time>1970-01-01T02:24:58.000Z</time>
      </trkpt>
      <trkpt lat="41.182688" lon="1.499693">
        <ele>32.5</ele>
        <time>1970-01-01T02:24:59.000Z</time>
      </trkpt>
      <trkpt lat="41.182727" lon="1.499769">
        <ele>32.5</ele>
        <time>1970-01-01T02:25:00.000Z</time>
      </trkpt>
      <trkpt lat="41.182783" lon="1.499828">
        <ele>32.4</ele>
        <time>1970-01-01T02:25:01.000Z</time>
      </trkpt>
      <trkpt lat="41.182831" lon="1.499866">
        <ele>32.3</ele>
        <time>1970-01-01T02:25:02.000Z</time>
      </trkpt>
      <trkpt lat="41.182878" lon="1.499931">
        <ele>32.1</ele>
        <time>1970-01-01T02:25:03.000Z</time>
      </trkpt>
      <trkpt lat="41.182923" lon="1.500004">
        <ele>31.7</ele>
        <time>1970-01-01T02:25:04.000Z</time>
      </trkpt>
      <trkpt lat="41.182967" lon="1.500074">
        <ele>31.3</ele>
        <time>1970-01-01T02:25:05.000Z</time>
      </trkpt>
      <trkpt lat="41.182991" lon="1.500143">
        <ele>31</ele>
        <time>1970-01-01T02:25:06.000Z</time>
      </trkpt>
      <trkpt lat="41.182997" lon="1.500221">
        <ele>30.6</ele>
        <time>1970-01-01T02:25:07.000Z</time>
      </trkpt>
      <trkpt lat="41.182988" lon="1.500317">
        <ele>30.2</ele>
        <time>1970-01-01T02:25:08.000Z</time>
      </trkpt>
      <trkpt lat="41.183016" lon="1.500401">
        <ele>29.9</ele>
        <time>1970-01-01T02:25:09.000Z</time>
      </trkpt>
      <trkpt lat="41.183065" lon="1.500484">
        <ele>29.6</ele>
        <time>1970-01-01T02:25:10.000Z</time>
      </trkpt>
      <trkpt lat="41.183132" lon="1.500553">
        <ele>29.2</ele>
        <time>1970-01-01T02:25:11.000Z</time>
      </trkpt>
      <trkpt lat="41.183194" lon="1.500609">
        <ele>28.8</ele>
        <time>1970-01-01T02:25:12.000Z</time>
      </trkpt>
      <trkpt lat="41.183249" lon="1.50067">
        <ele>28.7</ele>
        <time>1970-01-01T02:25:13.000Z</time>
      </trkpt>
      <trkpt lat="41.183304" lon="1.500736">
        <ele>28.5</ele>
        <time>1970-01-01T02:25:14.000Z</time>
      </trkpt>
      <trkpt lat="41.183364" lon="1.500796">
        <ele>28.3</ele>
        <time>1970-01-01T02:25:15.000Z</time>
      </trkpt>
      <trkpt lat="41.183424" lon="1.500852">
        <ele>28.1</ele>
        <time>1970-01-01T02:25:16.000Z</time>
      </trkpt>
      <trkpt lat="41.183478" lon="1.500906">
        <ele>28</ele>
        <time>1970-01-01T02:25:17.000Z</time>
      </trkpt>
      <trkpt lat="41.18353" lon="1.500955">
        <ele>27.9</ele>
        <time>1970-01-01T02:25:18.000Z</time>
      </trkpt>
      <trkpt lat="41.18358" lon="1.501005">
        <ele>27.7</ele>
        <time>1970-01-01T02:25:19.000Z</time>
      </trkpt>
      <trkpt lat="41.183631" lon="1.501053">
        <ele>27.7</ele>
        <time>1970-01-01T02:25:20.000Z</time>
      </trkpt>
      <trkpt lat="41.183684" lon="1.501097">
        <ele>27.6</ele>
        <time>1970-01-01T02:25:21.000Z</time>
      </trkpt>
      <trkpt lat="41.183737" lon="1.501131">
        <ele>27.5</ele>
        <time>1970-01-01T02:25:22.000Z</time>
      </trkpt>
      <trkpt lat="41.183783" lon="1.501176">
        <ele>27.4</ele>
        <time>1970-01-01T02:25:23.000Z</time>
      </trkpt>
      <trkpt lat="41.183828" lon="1.501221">
        <ele>27.4</ele>
        <time>1970-01-01T02:25:24.000Z</time>
      </trkpt>
      <trkpt lat="41.183845" lon="1.501296">
        <ele>27.4</ele>
        <time>1970-01-01T02:25:25.000Z</time>
      </trkpt>
      <trkpt lat="41.183867" lon="1.501372">
        <ele>27.4</ele>
        <time>1970-01-01T02:25:26.000Z</time>
      </trkpt>
      <trkpt lat="41.183901" lon="1.501444">
        <ele>27.4</ele>
        <time>1970-01-01T02:25:27.000Z</time>
      </trkpt>
      <trkpt lat="41.183927" lon="1.501505">
        <ele>27.4</ele>
        <time>1970-01-01T02:25:28.000Z</time>
      </trkpt>
      <trkpt lat="41.183946" lon="1.501539">
        <ele>27.4</ele>
        <time>1970-01-01T02:25:29.000Z</time>
      </trkpt>
      <trkpt lat="41.183962" lon="1.501568">
        <ele>27.4</ele>
        <time>1970-01-01T02:25:30.000Z</time>
      </trkpt>
      <trkpt lat="41.183977" lon="1.501639">
        <ele>26.9</ele>
        <time>1970-01-01T02:25:32.000Z</time>
      </trkpt>
      <trkpt lat="41.183992" lon="1.501685">
        <ele>26.6</ele>
        <time>1970-01-01T02:25:33.000Z</time>
      </trkpt>
      <trkpt lat="41.184013" lon="1.501735">
        <ele>26.3</ele>
        <time>1970-01-01T02:25:34.000Z</time>
      </trkpt>
      <trkpt lat="41.184032" lon="1.501781">
        <ele>26</ele>
        <time>1970-01-01T02:25:35.000Z</time>
      </trkpt>
      <trkpt lat="41.184044" lon="1.50184">
        <ele>25.9</ele>
        <time>1970-01-01T02:25:36.000Z</time>
      </trkpt>
      <trkpt lat="41.184059" lon="1.501894">
        <ele>25.8</ele>
        <time>1970-01-01T02:25:37.000Z</time>
      </trkpt>
      <trkpt lat="41.184088" lon="1.501944">
        <ele>25.9</ele>
        <time>1970-01-01T02:25:38.000Z</time>
      </trkpt>
      <trkpt lat="41.184127" lon="1.501969">
        <ele>26.1</ele>
        <time>1970-01-01T02:25:39.000Z</time>
      </trkpt>
      <trkpt lat="41.184159" lon="1.501971">
        <ele>26.2</ele>
        <time>1970-01-01T02:25:41.000Z</time>
      </trkpt>
      <trkpt lat="41.184187" lon="1.501954">
        <ele>26.4</ele>
        <time>1970-01-01T02:25:42.000Z</time>
      </trkpt>
      <trkpt lat="41.184241" lon="1.50194">
        <ele>26.8</ele>
        <time>1970-01-01T02:25:44.000Z</time>
      </trkpt>
      <trkpt lat="41.184276" lon="1.501942">
        <ele>27.2</ele>
        <time>1970-01-01T02:25:45.000Z</time>
      </trkpt>
      <trkpt lat="41.184314" lon="1.501947">
        <ele>27.5</ele>
        <time>1970-01-01T02:25:46.000Z</time>
      </trkpt>
      <trkpt lat="41.184342" lon="1.501964">
        <ele>27.8</ele>
        <time>1970-01-01T02:25:47.000Z</time>
      </trkpt>
      <trkpt lat="41.184375" lon="1.501978">
        <ele>28.1</ele>
        <time>1970-01-01T02:25:48.000Z</time>
      </trkpt>
      <trkpt lat="41.184406" lon="1.501989">
        <ele>28.4</ele>
        <time>1970-01-01T02:25:49.000Z</time>
      </trkpt>
      <trkpt lat="41.184433" lon="1.50198">
        <ele>28.7</ele>
        <time>1970-01-01T02:25:50.000Z</time>
      </trkpt>
      <trkpt lat="41.184482" lon="1.501968">
        <ele>29.2</ele>
        <time>1970-01-01T02:25:52.000Z</time>
      </trkpt>
      <trkpt lat="41.184534" lon="1.501974">
        <ele>29.7</ele>
        <time>1970-01-01T02:25:54.000Z</time>
      </trkpt>
      <trkpt lat="41.184568" lon="1.501998">
        <ele>32.4</ele>
        <time>1970-01-01T02:25:55.000Z</time>
      </trkpt>
      <trkpt lat="41.184592" lon="1.50202">
        <ele>32.5</ele>
        <time>1970-01-01T02:25:56.000Z</time>
      </trkpt>
      <trkpt lat="41.184619" lon="1.502068">
        <ele>32.7</ele>
        <time>1970-01-01T02:25:58.000Z</time>
      </trkpt>
      <trkpt lat="41.184602" lon="1.502103">
        <ele>32.8</ele>
        <time>1970-01-01T02:25:59.000Z</time>
      </trkpt>
      <trkpt lat="41.184565" lon="1.502132">
        <ele>33</ele>
        <time>1970-01-01T02:26:00.000Z</time>
      </trkpt>
      <trkpt lat="41.18453" lon="1.502148">
        <ele>33.1</ele>
        <time>1970-01-01T02:26:01.000Z</time>
      </trkpt>
      <trkpt lat="41.184482" lon="1.502172">
        <ele>33.1</ele>
        <time>1970-01-01T02:26:02.000Z</time>
      </trkpt>
      <trkpt lat="41.184443" lon="1.502226">
        <ele>33.2</ele>
        <time>1970-01-01T02:26:03.000Z</time>
      </trkpt>
      <trkpt lat="41.184413" lon="1.502273">
        <ele>33.2</ele>
        <time>1970-01-01T02:26:04.000Z</time>
      </trkpt>
      <trkpt lat="41.184407" lon="1.502326">
        <ele>33.1</ele>
        <time>1970-01-01T02:26:05.000Z</time>
      </trkpt>
      <trkpt lat="41.184391" lon="1.502373">
        <ele>33.1</ele>
        <time>1970-01-01T02:26:06.000Z</time>
      </trkpt>
      <trkpt lat="41.184375" lon="1.502428">
        <ele>33.1</ele>
        <time>1970-01-01T02:26:07.000Z</time>
      </trkpt>
      <trkpt lat="41.184337" lon="1.502479">
        <ele>33</ele>
        <time>1970-01-01T02:26:08.000Z</time>
      </trkpt>
      <trkpt lat="41.184302" lon="1.502532">
        <ele>33</ele>
        <time>1970-01-01T02:26:09.000Z</time>
      </trkpt>
      <trkpt lat="41.184278" lon="1.502594">
        <ele>33</ele>
        <time>1970-01-01T02:26:10.000Z</time>
      </trkpt>
      <trkpt lat="41.18425" lon="1.502654">
        <ele>32.9</ele>
        <time>1970-01-01T02:26:11.000Z</time>
      </trkpt>
      <trkpt lat="41.184227" lon="1.502722">
        <ele>32.9</ele>
        <time>1970-01-01T02:26:12.000Z</time>
      </trkpt>
      <trkpt lat="41.184221" lon="1.50278">
        <ele>32.9</ele>
        <time>1970-01-01T02:26:13.000Z</time>
      </trkpt>
      <trkpt lat="41.184214" lon="1.502843">
        <ele>32.9</ele>
        <time>1970-01-01T02:26:14.000Z</time>
      </trkpt>
      <trkpt lat="41.18419" lon="1.502905">
        <ele>32.9</ele>
        <time>1970-01-01T02:26:15.000Z</time>
      </trkpt>
      <trkpt lat="41.184178" lon="1.502971">
        <ele>32.8</ele>
        <time>1970-01-01T02:26:16.000Z</time>
      </trkpt>
      <trkpt lat="41.184163" lon="1.503033">
        <ele>32.8</ele>
        <time>1970-01-01T02:26:17.000Z</time>
      </trkpt>
      <trkpt lat="41.184115" lon="1.503084">
        <ele>32.8</ele>
        <time>1970-01-01T02:26:18.000Z</time>
      </trkpt>
      <trkpt lat="41.184079" lon="1.503144">
        <ele>32.8</ele>
        <time>1970-01-01T02:26:19.000Z</time>
      </trkpt>
      <trkpt lat="41.184043" lon="1.503202">
        <ele>32.8</ele>
        <time>1970-01-01T02:26:20.000Z</time>
      </trkpt>
      <trkpt lat="41.184012" lon="1.503253">
        <ele>32.8</ele>
        <time>1970-01-01T02:26:21.000Z</time>
      </trkpt>
      <trkpt lat="41.183978" lon="1.503308">
        <ele>32.8</ele>
        <time>1970-01-01T02:26:22.000Z</time>
      </trkpt>
      <trkpt lat="41.183952" lon="1.503383">
        <ele>32.7</ele>
        <time>1970-01-01T02:26:23.000Z</time>
      </trkpt>
      <trkpt lat="41.183942" lon="1.503447">
        <ele>32.7</ele>
        <time>1970-01-01T02:26:24.000Z</time>
      </trkpt>
      <trkpt lat="41.183942" lon="1.503524">
        <ele>32.6</ele>
        <time>1970-01-01T02:26:25.000Z</time>
      </trkpt>
      <trkpt lat="41.183936" lon="1.503571">
        <ele>32.6</ele>
        <time>1970-01-01T02:26:26.000Z</time>
      </trkpt>
      <trkpt lat="41.18393" lon="1.503619">
        <ele>32.5</ele>
        <time>1970-01-01T02:26:28.000Z</time>
      </trkpt>
      <trkpt lat="41.183895" lon="1.503694">
        <ele>32.4</ele>
        <time>1970-01-01T02:26:30.000Z</time>
      </trkpt>
      <trkpt lat="41.183862" lon="1.503743">
        <ele>32.2</ele>
        <time>1970-01-01T02:26:31.000Z</time>
      </trkpt>
      <trkpt lat="41.183823" lon="1.503777">
        <ele>32</ele>
        <time>1970-01-01T02:26:32.000Z</time>
      </trkpt>
      <trkpt lat="41.183784" lon="1.503801">
        <ele>31.8</ele>
        <time>1970-01-01T02:26:33.000Z</time>
      </trkpt>
      <trkpt lat="41.18376" lon="1.503843">
        <ele>31.6</ele>
        <time>1970-01-01T02:26:34.000Z</time>
      </trkpt>
      <trkpt lat="41.183749" lon="1.503909">
        <ele>31.4</ele>
        <time>1970-01-01T02:26:35.000Z</time>
      </trkpt>
      <trkpt lat="41.183736" lon="1.50397">
        <ele>31</ele>
        <time>1970-01-01T02:26:36.000Z</time>
      </trkpt>
      <trkpt lat="41.183733" lon="1.504044">
        <ele>30.6</ele>
        <time>1970-01-01T02:26:37.000Z</time>
      </trkpt>
      <trkpt lat="41.18371" lon="1.504095">
        <ele>30.2</ele>
        <time>1970-01-01T02:26:38.000Z</time>
      </trkpt>
      <trkpt lat="41.183711" lon="1.504147">
        <ele>29.9</ele>
        <time>1970-01-01T02:26:39.000Z</time>
      </trkpt>
      <trkpt lat="41.183715" lon="1.504198">
        <ele>29.5</ele>
        <time>1970-01-01T02:26:40.000Z</time>
      </trkpt>
      <trkpt lat="41.183723" lon="1.504241">
        <ele>29.2</ele>
        <time>1970-01-01T02:26:41.000Z</time>
      </trkpt>
      <trkpt lat="41.183759" lon="1.50428">
        <ele>28.8</ele>
        <time>1970-01-01T02:26:42.000Z</time>
      </trkpt>
      <trkpt lat="41.183802" lon="1.504321">
        <ele>28.5</ele>
        <time>1970-01-01T02:26:43.000Z</time>
      </trkpt>
      <trkpt lat="41.183819" lon="1.504371">
        <ele>28.2</ele>
        <time>1970-01-01T02:26:44.000Z</time>
      </trkpt>
      <trkpt lat="41.183818" lon="1.504449">
        <ele>27.9</ele>
        <time>1970-01-01T02:26:45.000Z</time>
      </trkpt>
      <trkpt lat="41.183827" lon="1.504519">
        <ele>27.6</ele>
        <time>1970-01-01T02:26:46.000Z</time>
      </trkpt>
      <trkpt lat="41.183831" lon="1.504584">
        <ele>27.5</ele>
        <time>1970-01-01T02:26:47.000Z</time>
      </trkpt>
      <trkpt lat="41.183834" lon="1.504657">
        <ele>27.5</ele>
        <time>1970-01-01T02:26:48.000Z</time>
      </trkpt>
      <trkpt lat="41.183873" lon="1.504708">
        <ele>27.7</ele>
        <time>1970-01-01T02:26:49.000Z</time>
      </trkpt>
      <trkpt lat="41.183911" lon="1.504733">
        <ele>27.9</ele>
        <time>1970-01-01T02:26:50.000Z</time>
      </trkpt>
      <trkpt lat="41.183933" lon="1.504782">
        <ele>28.2</ele>
        <time>1970-01-01T02:26:51.000Z</time>
      </trkpt>
      <trkpt lat="41.183956" lon="1.504813">
        <ele>28.4</ele>
        <time>1970-01-01T02:26:52.000Z</time>
      </trkpt>
      <trkpt lat="41.184004" lon="1.504835">
        <ele>28.8</ele>
        <time>1970-01-01T02:26:54.000Z</time>
      </trkpt>
      <trkpt lat="41.184036" lon="1.504851">
        <ele>29</ele>
        <time>1970-01-01T02:26:55.000Z</time>
      </trkpt>
      <trkpt lat="41.184077" lon="1.504871">
        <ele>29.4</ele>
        <time>1970-01-01T02:26:56.000Z</time>
      </trkpt>
      <trkpt lat="41.184112" lon="1.504891">
        <ele>29.6</ele>
        <time>1970-01-01T02:26:57.000Z</time>
      </trkpt>
      <trkpt lat="41.184145" lon="1.504908">
        <ele>29.8</ele>
        <time>1970-01-01T02:26:58.000Z</time>
      </trkpt>
      <trkpt lat="41.184183" lon="1.504914">
        <ele>30</ele>
        <time>1970-01-01T02:26:59.000Z</time>
      </trkpt>
      <trkpt lat="41.18422" lon="1.504913">
        <ele>30.1</ele>
        <time>1970-01-01T02:27:00.000Z</time>
      </trkpt>
      <trkpt lat="41.184259" lon="1.504909">
        <ele>30.2</ele>
        <time>1970-01-01T02:27:01.000Z</time>
      </trkpt>
      <trkpt lat="41.184296" lon="1.504905">
        <ele>30.3</ele>
        <time>1970-01-01T02:27:02.000Z</time>
      </trkpt>
      <trkpt lat="41.184334" lon="1.504898">
        <ele>30.4</ele>
        <time>1970-01-01T02:27:03.000Z</time>
      </trkpt>
      <trkpt lat="41.18437" lon="1.504918">
        <ele>30.5</ele>
        <time>1970-01-01T02:27:04.000Z</time>
      </trkpt>
      <trkpt lat="41.184395" lon="1.504935">
        <ele>30.6</ele>
        <time>1970-01-01T02:27:05.000Z</time>
      </trkpt>
      <trkpt lat="41.184424" lon="1.504943">
        <ele>30.6</ele>
        <time>1970-01-01T02:27:06.000Z</time>
      </trkpt>
      <trkpt lat="41.184459" lon="1.504945">
        <ele>30.7</ele>
        <time>1970-01-01T02:27:07.000Z</time>
      </trkpt>
      <trkpt lat="41.184494" lon="1.504958">
        <ele>30.8</ele>
        <time>1970-01-01T02:27:08.000Z</time>
      </trkpt>
      <trkpt lat="41.184528" lon="1.504976">
        <ele>30.9</ele>
        <time>1970-01-01T02:27:09.000Z</time>
      </trkpt>
      <trkpt lat="41.184588" lon="1.504972">
        <ele>31.3</ele>
        <time>1970-01-01T02:27:10.000Z</time>
      </trkpt>
      <trkpt lat="41.184634" lon="1.504978">
        <ele>31.6</ele>
        <time>1970-01-01T02:27:11.000Z</time>
      </trkpt>
      <trkpt lat="41.184679" lon="1.504971">
        <ele>32</ele>
        <time>1970-01-01T02:27:12.000Z</time>
      </trkpt>
      <trkpt lat="41.184713" lon="1.504987">
        <ele>32.4</ele>
        <time>1970-01-01T02:27:13.000Z</time>
      </trkpt>
      <trkpt lat="41.184742" lon="1.505007">
        <ele>32.7</ele>
        <time>1970-01-01T02:27:14.000Z</time>
      </trkpt>
      <trkpt lat="41.184771" lon="1.505031">
        <ele>33.1</ele>
        <time>1970-01-01T02:27:15.000Z</time>
      </trkpt>
      <trkpt lat="41.184802" lon="1.50507">
        <ele>33.5</ele>
        <time>1970-01-01T02:27:17.000Z</time>
      </trkpt>
      <trkpt lat="41.18485" lon="1.505106">
        <ele>33.9</ele>
        <time>1970-01-01T02:27:19.000Z</time>
      </trkpt>
      <trkpt lat="41.184876" lon="1.505135">
        <ele>34.2</ele>
        <time>1970-01-01T02:27:21.000Z</time>
      </trkpt>
      <trkpt lat="41.184888" lon="1.505206">
        <ele>34.6</ele>
        <time>1970-01-01T02:27:23.000Z</time>
      </trkpt>
      <trkpt lat="41.184896" lon="1.505252">
        <ele>34.7</ele>
        <time>1970-01-01T02:27:24.000Z</time>
      </trkpt>
      <trkpt lat="41.184899" lon="1.505301">
        <ele>34.9</ele>
        <time>1970-01-01T02:27:25.000Z</time>
      </trkpt>
      <trkpt lat="41.18492" lon="1.505358">
        <ele>35</ele>
        <time>1970-01-01T02:27:26.000Z</time>
      </trkpt>
      <trkpt lat="41.184931" lon="1.505428">
        <ele>35.2</ele>
        <time>1970-01-01T02:27:27.000Z</time>
      </trkpt>
      <trkpt lat="41.184947" lon="1.505486">
        <ele>35.4</ele>
        <time>1970-01-01T02:27:28.000Z</time>
      </trkpt>
      <trkpt lat="41.184954" lon="1.505543">
        <ele>35.5</ele>
        <time>1970-01-01T02:27:29.000Z</time>
      </trkpt>
      <trkpt lat="41.184964" lon="1.505598">
        <ele>35.7</ele>
        <time>1970-01-01T02:27:30.000Z</time>
      </trkpt>
      <trkpt lat="41.184971" lon="1.505664">
        <ele>36</ele>
        <time>1970-01-01T02:27:31.000Z</time>
      </trkpt>
      <trkpt lat="41.184973" lon="1.505738">
        <ele>36.2</ele>
        <time>1970-01-01T02:27:32.000Z</time>
      </trkpt>
      <trkpt lat="41.184967" lon="1.505819">
        <ele>36.4</ele>
        <time>1970-01-01T02:27:33.000Z</time>
      </trkpt>
      <trkpt lat="41.184964" lon="1.505893">
        <ele>36.5</ele>
        <time>1970-01-01T02:27:34.000Z</time>
      </trkpt>
      <trkpt lat="41.184965" lon="1.505959">
        <ele>36.6</ele>
        <time>1970-01-01T02:27:35.000Z</time>
      </trkpt>
      <trkpt lat="41.184968" lon="1.506033">
        <ele>36.6</ele>
        <time>1970-01-01T02:27:36.000Z</time>
      </trkpt>
      <trkpt lat="41.184968" lon="1.50612">
        <ele>36.6</ele>
        <time>1970-01-01T02:27:37.000Z</time>
      </trkpt>
      <trkpt lat="41.184969" lon="1.506196">
        <ele>36.7</ele>
        <time>1970-01-01T02:27:38.000Z</time>
      </trkpt>
      <trkpt lat="41.184962" lon="1.506262">
        <ele>36.7</ele>
        <time>1970-01-01T02:27:39.000Z</time>
      </trkpt>
      <trkpt lat="41.184947" lon="1.50632">
        <ele>36.7</ele>
        <time>1970-01-01T02:27:40.000Z</time>
      </trkpt>
      <trkpt lat="41.18491" lon="1.506368">
        <ele>36.6</ele>
        <time>1970-01-01T02:27:41.000Z</time>
      </trkpt>
      <trkpt lat="41.18487" lon="1.506429">
        <ele>36.6</ele>
        <time>1970-01-01T02:27:42.000Z</time>
      </trkpt>
      <trkpt lat="41.184804" lon="1.506458">
        <ele>36.5</ele>
        <time>1970-01-01T02:27:43.000Z</time>
      </trkpt>
      <trkpt lat="41.184746" lon="1.506505">
        <ele>36.5</ele>
        <time>1970-01-01T02:27:44.000Z</time>
      </trkpt>
      <trkpt lat="41.184687" lon="1.506563">
        <ele>36.4</ele>
        <time>1970-01-01T02:27:45.000Z</time>
      </trkpt>
      <trkpt lat="41.184639" lon="1.506635">
        <ele>36.2</ele>
        <time>1970-01-01T02:27:46.000Z</time>
      </trkpt>
      <trkpt lat="41.184613" lon="1.506717">
        <ele>36.1</ele>
        <time>1970-01-01T02:27:47.000Z</time>
      </trkpt>
      <trkpt lat="41.184616" lon="1.506795">
        <ele>36</ele>
        <time>1970-01-01T02:27:48.000Z</time>
      </trkpt>
      <trkpt lat="41.184621" lon="1.506871">
        <ele>35.9</ele>
        <time>1970-01-01T02:27:49.000Z</time>
      </trkpt>
      <trkpt lat="41.184625" lon="1.506969">
        <ele>35.7</ele>
        <time>1970-01-01T02:27:50.000Z</time>
      </trkpt>
      <trkpt lat="41.18463" lon="1.507063">
        <ele>35.6</ele>
        <time>1970-01-01T02:27:51.000Z</time>
      </trkpt>
      <trkpt lat="41.184629" lon="1.507148">
        <ele>35.3</ele>
        <time>1970-01-01T02:27:52.000Z</time>
      </trkpt>
      <trkpt lat="41.184633" lon="1.507232">
        <ele>35.1</ele>
        <time>1970-01-01T02:27:53.000Z</time>
      </trkpt>
      <trkpt lat="41.184647" lon="1.507315">
        <ele>35</ele>
        <time>1970-01-01T02:27:54.000Z</time>
      </trkpt>
      <trkpt lat="41.184686" lon="1.507378">
        <ele>34.8</ele>
        <time>1970-01-01T02:27:55.000Z</time>
      </trkpt>
      <trkpt lat="41.184684" lon="1.507442">
        <ele>34.7</ele>
        <time>1970-01-01T02:27:56.000Z</time>
      </trkpt>
      <trkpt lat="41.184682" lon="1.507521">
        <ele>34.6</ele>
        <time>1970-01-01T02:27:57.000Z</time>
      </trkpt>
      <trkpt lat="41.184648" lon="1.507596">
        <ele>34.5</ele>
        <time>1970-01-01T02:27:58.000Z</time>
      </trkpt>
      <trkpt lat="41.184613" lon="1.507655">
        <ele>34.4</ele>
        <time>1970-01-01T02:27:59.000Z</time>
      </trkpt>
      <trkpt lat="41.184592" lon="1.507717">
        <ele>34.4</ele>
        <time>1970-01-01T02:28:00.000Z</time>
      </trkpt>
      <trkpt lat="41.184597" lon="1.50781">
        <ele>34.3</ele>
        <time>1970-01-01T02:28:01.000Z</time>
      </trkpt>
      <trkpt lat="41.184614" lon="1.507888">
        <ele>34.3</ele>
        <time>1970-01-01T02:28:02.000Z</time>
      </trkpt>
      <trkpt lat="41.184648" lon="1.507961">
        <ele>34.2</ele>
        <time>1970-01-01T02:28:03.000Z</time>
      </trkpt>
      <trkpt lat="41.184692" lon="1.508026">
        <ele>34.2</ele>
        <time>1970-01-01T02:28:04.000Z</time>
      </trkpt>
      <trkpt lat="41.184736" lon="1.508071">
        <ele>34.2</ele>
        <time>1970-01-01T02:28:05.000Z</time>
      </trkpt>
      <trkpt lat="41.184773" lon="1.508135">
        <ele>34.2</ele>
        <time>1970-01-01T02:28:06.000Z</time>
      </trkpt>
      <trkpt lat="41.184819" lon="1.508215">
        <ele>34.3</ele>
        <time>1970-01-01T02:28:07.000Z</time>
      </trkpt>
      <trkpt lat="41.184869" lon="1.508285">
        <ele>34.4</ele>
        <time>1970-01-01T02:28:08.000Z</time>
      </trkpt>
      <trkpt lat="41.184925" lon="1.50835">
        <ele>34.5</ele>
        <time>1970-01-01T02:28:09.000Z</time>
      </trkpt>
      <trkpt lat="41.18498" lon="1.508418">
        <ele>34.7</ele>
        <time>1970-01-01T02:28:10.000Z</time>
      </trkpt>
      <trkpt lat="41.18503" lon="1.508479">
        <ele>34.8</ele>
        <time>1970-01-01T02:28:11.000Z</time>
      </trkpt>
      <trkpt lat="41.18508" lon="1.508542">
        <ele>34.9</ele>
        <time>1970-01-01T02:28:12.000Z</time>
      </trkpt>
      <trkpt lat="41.185132" lon="1.508598">
        <ele>35.1</ele>
        <time>1970-01-01T02:28:13.000Z</time>
      </trkpt>
      <trkpt lat="41.185194" lon="1.508644">
        <ele>35.4</ele>
        <time>1970-01-01T02:28:14.000Z</time>
      </trkpt>
      <trkpt lat="41.185245" lon="1.508686">
        <ele>35.5</ele>
        <time>1970-01-01T02:28:15.000Z</time>
      </trkpt>
      <trkpt lat="41.185295" lon="1.508741">
        <ele>35.7</ele>
        <time>1970-01-01T02:28:16.000Z</time>
      </trkpt>
      <trkpt lat="41.185327" lon="1.508803">
        <ele>35.8</ele>
        <time>1970-01-01T02:28:17.000Z</time>
      </trkpt>
      <trkpt lat="41.185334" lon="1.508869">
        <ele>35.6</ele>
        <time>1970-01-01T02:28:18.000Z</time>
      </trkpt>
      <trkpt lat="41.18533" lon="1.508939">
        <ele>35.4</ele>
        <time>1970-01-01T02:28:19.000Z</time>
      </trkpt>
      <trkpt lat="41.185321" lon="1.509022">
        <ele>35.1</ele>
        <time>1970-01-01T02:28:20.000Z</time>
      </trkpt>
      <trkpt lat="41.18534" lon="1.509085">
        <ele>35</ele>
        <time>1970-01-01T02:28:21.000Z</time>
      </trkpt>
      <trkpt lat="41.185373" lon="1.509139">
        <ele>34.8</ele>
        <time>1970-01-01T02:28:22.000Z</time>
      </trkpt>
      <trkpt lat="41.185404" lon="1.509181">
        <ele>34.6</ele>
        <time>1970-01-01T02:28:23.000Z</time>
      </trkpt>
      <trkpt lat="41.185438" lon="1.509215">
        <ele>34.4</ele>
        <time>1970-01-01T02:28:24.000Z</time>
      </trkpt>
      <trkpt lat="41.185482" lon="1.509242">
        <ele>34.3</ele>
        <time>1970-01-01T02:28:25.000Z</time>
      </trkpt>
      <trkpt lat="41.18553" lon="1.509266">
        <ele>34.2</ele>
        <time>1970-01-01T02:28:26.000Z</time>
      </trkpt>
      <trkpt lat="41.185577" lon="1.509287">
        <ele>34.1</ele>
        <time>1970-01-01T02:28:27.000Z</time>
      </trkpt>
      <trkpt lat="41.185619" lon="1.509311">
        <ele>33.9</ele>
        <time>1970-01-01T02:28:28.000Z</time>
      </trkpt>
      <trkpt lat="41.185661" lon="1.509332">
        <ele>33.8</ele>
        <time>1970-01-01T02:28:29.000Z</time>
      </trkpt>
      <trkpt lat="41.185712" lon="1.509349">
        <ele>33.7</ele>
        <time>1970-01-01T02:28:30.000Z</time>
      </trkpt>
      <trkpt lat="41.18576" lon="1.509372">
        <ele>33.6</ele>
        <time>1970-01-01T02:28:31.000Z</time>
      </trkpt>
      <trkpt lat="41.185807" lon="1.509402">
        <ele>33.2</ele>
        <time>1970-01-01T02:28:32.000Z</time>
      </trkpt>
      <trkpt lat="41.185855" lon="1.509437">
        <ele>32.9</ele>
        <time>1970-01-01T02:28:33.000Z</time>
      </trkpt>
      <trkpt lat="41.1859" lon="1.509479">
        <ele>32.5</ele>
        <time>1970-01-01T02:28:34.000Z</time>
      </trkpt>
      <trkpt lat="41.185941" lon="1.509553">
        <ele>32.1</ele>
        <time>1970-01-01T02:28:35.000Z</time>
      </trkpt>
      <trkpt lat="41.18595" lon="1.509646">
        <ele>31.6</ele>
        <time>1970-01-01T02:28:36.000Z</time>
      </trkpt>
      <trkpt lat="41.185964" lon="1.509755">
        <ele>31</ele>
        <time>1970-01-01T02:28:37.000Z</time>
      </trkpt>
      <trkpt lat="41.185979" lon="1.509857">
        <ele>30.4</ele>
        <time>1970-01-01T02:28:38.000Z</time>
      </trkpt>
      <trkpt lat="41.185995" lon="1.50996">
        <ele>29.9</ele>
        <time>1970-01-01T02:28:39.000Z</time>
      </trkpt>
      <trkpt lat="41.186007" lon="1.510058">
        <ele>29.4</ele>
        <time>1970-01-01T02:28:40.000Z</time>
      </trkpt>
      <trkpt lat="41.18602" lon="1.510168">
        <ele>28.9</ele>
        <time>1970-01-01T02:28:41.000Z</time>
      </trkpt>
      <trkpt lat="41.186031" lon="1.510273">
        <ele>28.4</ele>
        <time>1970-01-01T02:28:42.000Z</time>
      </trkpt>
      <trkpt lat="41.186041" lon="1.510387">
        <ele>27.9</ele>
        <time>1970-01-01T02:28:43.000Z</time>
      </trkpt>
      <trkpt lat="41.186052" lon="1.510506">
        <ele>27.5</ele>
        <time>1970-01-01T02:28:44.000Z</time>
      </trkpt>
      <trkpt lat="41.18606" lon="1.510602">
        <ele>27.3</ele>
        <time>1970-01-01T02:28:45.000Z</time>
      </trkpt>
      <trkpt lat="41.186069" lon="1.510696">
        <ele>27.1</ele>
        <time>1970-01-01T02:28:46.000Z</time>
      </trkpt>
      <trkpt lat="41.186079" lon="1.510785">
        <ele>26.8</ele>
        <time>1970-01-01T02:28:47.000Z</time>
      </trkpt>
      <trkpt lat="41.186086" lon="1.51087">
        <ele>26.6</ele>
        <time>1970-01-01T02:28:48.000Z</time>
      </trkpt>
      <trkpt lat="41.186093" lon="1.510953">
        <ele>26.5</ele>
        <time>1970-01-01T02:28:49.000Z</time>
      </trkpt>
      <trkpt lat="41.186097" lon="1.511038">
        <ele>26.3</ele>
        <time>1970-01-01T02:28:50.000Z</time>
      </trkpt>
      <trkpt lat="41.186101" lon="1.511118">
        <ele>26.2</ele>
        <time>1970-01-01T02:28:51.000Z</time>
      </trkpt>
      <trkpt lat="41.186104" lon="1.511192">
        <ele>26.1</ele>
        <time>1970-01-01T02:28:52.000Z</time>
      </trkpt>
      <trkpt lat="41.18611" lon="1.511263">
        <ele>26</ele>
        <time>1970-01-01T02:28:53.000Z</time>
      </trkpt>
      <trkpt lat="41.186122" lon="1.511326">
        <ele>25.9</ele>
        <time>1970-01-01T02:28:54.000Z</time>
      </trkpt>
      <trkpt lat="41.18615" lon="1.511374">
        <ele>25.8</ele>
        <time>1970-01-01T02:28:55.000Z</time>
      </trkpt>
      <trkpt lat="41.186171" lon="1.511429">
        <ele>25.8</ele>
        <time>1970-01-01T02:28:56.000Z</time>
      </trkpt>
      <trkpt lat="41.186207" lon="1.511482">
        <ele>25.7</ele>
        <time>1970-01-01T02:28:57.000Z</time>
      </trkpt>
      <trkpt lat="41.186251" lon="1.511539">
        <ele>25.6</ele>
        <time>1970-01-01T02:28:58.000Z</time>
      </trkpt>
      <trkpt lat="41.186291" lon="1.511599">
        <ele>25.6</ele>
        <time>1970-01-01T02:28:59.000Z</time>
      </trkpt>
      <trkpt lat="41.186343" lon="1.511656">
        <ele>25.6</ele>
        <time>1970-01-01T02:29:00.000Z</time>
      </trkpt>
      <trkpt lat="41.186389" lon="1.51172">
        <ele>25.5</ele>
        <time>1970-01-01T02:29:01.000Z</time>
      </trkpt>
      <trkpt lat="41.186431" lon="1.511788">
        <ele>25.5</ele>
        <time>1970-01-01T02:29:02.000Z</time>
      </trkpt>
      <trkpt lat="41.186471" lon="1.511856">
        <ele>25.5</ele>
        <time>1970-01-01T02:29:03.000Z</time>
      </trkpt>
      <trkpt lat="41.186507" lon="1.511925">
        <ele>25.5</ele>
        <time>1970-01-01T02:29:04.000Z</time>
      </trkpt>
      <trkpt lat="41.186545" lon="1.511988">
        <ele>25.5</ele>
        <time>1970-01-01T02:29:05.000Z</time>
      </trkpt>
      <trkpt lat="41.186585" lon="1.512053">
        <ele>25.5</ele>
        <time>1970-01-01T02:29:06.000Z</time>
      </trkpt>
      <trkpt lat="41.186627" lon="1.512126">
        <ele>25.6</ele>
        <time>1970-01-01T02:29:07.000Z</time>
      </trkpt>
      <trkpt lat="41.186669" lon="1.512186">
        <ele>25.6</ele>
        <time>1970-01-01T02:29:08.000Z</time>
      </trkpt>
      <trkpt lat="41.186712" lon="1.51225">
        <ele>25.6</ele>
        <time>1970-01-01T02:29:09.000Z</time>
      </trkpt>
      <trkpt lat="41.18675" lon="1.512305">
        <ele>25.6</ele>
        <time>1970-01-01T02:29:10.000Z</time>
      </trkpt>
      <trkpt lat="41.186781" lon="1.51236">
        <ele>25.6</ele>
        <time>1970-01-01T02:29:11.000Z</time>
      </trkpt>
      <trkpt lat="41.186816" lon="1.512421">
        <ele>25.6</ele>
        <time>1970-01-01T02:29:12.000Z</time>
      </trkpt>
      <trkpt lat="41.18685" lon="1.512484">
        <ele>25.6</ele>
        <time>1970-01-01T02:29:13.000Z</time>
      </trkpt>
      <trkpt lat="41.186875" lon="1.512532">
        <ele>25.6</ele>
        <time>1970-01-01T02:29:14.000Z</time>
      </trkpt>
      <trkpt lat="41.186903" lon="1.512583">
        <ele>25.7</ele>
        <time>1970-01-01T02:29:15.000Z</time>
      </trkpt>
      <trkpt lat="41.186927" lon="1.512635">
        <ele>25.8</ele>
        <time>1970-01-01T02:29:16.000Z</time>
      </trkpt>
      <trkpt lat="41.186949" lon="1.512671">
        <ele>25.8</ele>
        <time>1970-01-01T02:29:17.000Z</time>
      </trkpt>
      <trkpt lat="41.186966" lon="1.512718">
        <ele>25.9</ele>
        <time>1970-01-01T02:29:18.000Z</time>
      </trkpt>
      <trkpt lat="41.186993" lon="1.512782">
        <ele>26</ele>
        <time>1970-01-01T02:29:19.000Z</time>
      </trkpt>
      <trkpt lat="41.187014" lon="1.512837">
        <ele>26.1</ele>
        <time>1970-01-01T02:29:20.000Z</time>
      </trkpt>
      <trkpt lat="41.187039" lon="1.512886">
        <ele>26.3</ele>
        <time>1970-01-01T02:29:21.000Z</time>
      </trkpt>
      <trkpt lat="41.187064" lon="1.512934">
        <ele>26.5</ele>
        <time>1970-01-01T02:29:22.000Z</time>
      </trkpt>
      <trkpt lat="41.187093" lon="1.512988">
        <ele>26.6</ele>
        <time>1970-01-01T02:29:23.000Z</time>
      </trkpt>
      <trkpt lat="41.187123" lon="1.513036">
        <ele>26.8</ele>
        <time>1970-01-01T02:29:24.000Z</time>
      </trkpt>
      <trkpt lat="41.187156" lon="1.513092">
        <ele>26.9</ele>
        <time>1970-01-01T02:29:25.000Z</time>
      </trkpt>
      <trkpt lat="41.187192" lon="1.51315">
        <ele>27.1</ele>
        <time>1970-01-01T02:29:26.000Z</time>
      </trkpt>
      <trkpt lat="41.187225" lon="1.513204">
        <ele>27.2</ele>
        <time>1970-01-01T02:29:27.000Z</time>
      </trkpt>
      <trkpt lat="41.187261" lon="1.513259">
        <ele>27.3</ele>
        <time>1970-01-01T02:29:28.000Z</time>
      </trkpt>
      <trkpt lat="41.187295" lon="1.513315">
        <ele>27.5</ele>
        <time>1970-01-01T02:29:29.000Z</time>
      </trkpt>
      <trkpt lat="41.18732" lon="1.513376">
        <ele>27.6</ele>
        <time>1970-01-01T02:29:30.000Z</time>
      </trkpt>
      <trkpt lat="41.187365" lon="1.513454">
        <ele>27.8</ele>
        <time>1970-01-01T02:29:31.000Z</time>
      </trkpt>
      <trkpt lat="41.187396" lon="1.513512">
        <ele>27.9</ele>
        <time>1970-01-01T02:29:32.000Z</time>
      </trkpt>
      <trkpt lat="41.187428" lon="1.513567">
        <ele>28</ele>
        <time>1970-01-01T02:29:33.000Z</time>
      </trkpt>
      <trkpt lat="41.18745" lon="1.51362">
        <ele>28.1</ele>
        <time>1970-01-01T02:29:34.000Z</time>
      </trkpt>
      <trkpt lat="41.187475" lon="1.513681">
        <ele>28.2</ele>
        <time>1970-01-01T02:29:35.000Z</time>
      </trkpt>
      <trkpt lat="41.187504" lon="1.513741">
        <ele>28.4</ele>
        <time>1970-01-01T02:29:36.000Z</time>
      </trkpt>
      <trkpt lat="41.187536" lon="1.513799">
        <ele>28.5</ele>
        <time>1970-01-01T02:29:37.000Z</time>
      </trkpt>
      <trkpt lat="41.187562" lon="1.513851">
        <ele>28.6</ele>
        <time>1970-01-01T02:29:38.000Z</time>
      </trkpt>
      <trkpt lat="41.187604" lon="1.513911">
        <ele>28.7</ele>
        <time>1970-01-01T02:29:39.000Z</time>
      </trkpt>
      <trkpt lat="41.187631" lon="1.513965">
        <ele>28.8</ele>
        <time>1970-01-01T02:29:40.000Z</time>
      </trkpt>
      <trkpt lat="41.187655" lon="1.514021">
        <ele>28.8</ele>
        <time>1970-01-01T02:29:41.000Z</time>
      </trkpt>
      <trkpt lat="41.187684" lon="1.514072">
        <ele>28.9</ele>
        <time>1970-01-01T02:29:42.000Z</time>
      </trkpt>
      <trkpt lat="41.187722" lon="1.514124">
        <ele>28.9</ele>
        <time>1970-01-01T02:29:43.000Z</time>
      </trkpt>
      <trkpt lat="41.187751" lon="1.514186">
        <ele>29</ele>
        <time>1970-01-01T02:29:44.000Z</time>
      </trkpt>
      <trkpt lat="41.187782" lon="1.514251">
        <ele>29.1</ele>
        <time>1970-01-01T02:29:45.000Z</time>
      </trkpt>
      <trkpt lat="41.18781" lon="1.514313">
        <ele>29.1</ele>
        <time>1970-01-01T02:29:46.000Z</time>
      </trkpt>
      <trkpt lat="41.187846" lon="1.514372">
        <ele>29.2</ele>
        <time>1970-01-01T02:29:47.000Z</time>
      </trkpt>
      <trkpt lat="41.187864" lon="1.51442">
        <ele>29.2</ele>
        <time>1970-01-01T02:29:48.000Z</time>
      </trkpt>
      <trkpt lat="41.187892" lon="1.514478">
        <ele>29.2</ele>
        <time>1970-01-01T02:29:49.000Z</time>
      </trkpt>
      <trkpt lat="41.187923" lon="1.514538">
        <ele>29.2</ele>
        <time>1970-01-01T02:29:50.000Z</time>
      </trkpt>
      <trkpt lat="41.187951" lon="1.514595">
        <ele>29.2</ele>
        <time>1970-01-01T02:29:51.000Z</time>
      </trkpt>
      <trkpt lat="41.187976" lon="1.514659">
        <ele>29.2</ele>
        <time>1970-01-01T02:29:52.000Z</time>
      </trkpt>
      <trkpt lat="41.188" lon="1.514725">
        <ele>29.2</ele>
        <time>1970-01-01T02:29:53.000Z</time>
      </trkpt>
      <trkpt lat="41.188028" lon="1.514792">
        <ele>29.2</ele>
        <time>1970-01-01T02:29:54.000Z</time>
      </trkpt>
      <trkpt lat="41.188053" lon="1.514855">
        <ele>29.2</ele>
        <time>1970-01-01T02:29:55.000Z</time>
      </trkpt>
      <trkpt lat="41.188078" lon="1.514916">
        <ele>29.2</ele>
        <time>1970-01-01T02:29:56.000Z</time>
      </trkpt>
      <trkpt lat="41.188104" lon="1.514977">
        <ele>29.2</ele>
        <time>1970-01-01T02:29:57.000Z</time>
      </trkpt>
      <trkpt lat="41.188135" lon="1.515045">
        <ele>29.1</ele>
        <time>1970-01-01T02:29:58.000Z</time>
      </trkpt>
      <trkpt lat="41.188159" lon="1.515105">
        <ele>29.1</ele>
        <time>1970-01-01T02:29:59.000Z</time>
      </trkpt>
      <trkpt lat="41.188186" lon="1.515174">
        <ele>29.1</ele>
        <time>1970-01-01T02:30:00.000Z</time>
      </trkpt>
      <trkpt lat="41.188212" lon="1.515243">
        <ele>29.2</ele>
        <time>1970-01-01T02:30:01.000Z</time>
      </trkpt>
      <trkpt lat="41.188245" lon="1.515305">
        <ele>29.2</ele>
        <time>1970-01-01T02:30:02.000Z</time>
      </trkpt>
      <trkpt lat="41.18828" lon="1.515361">
        <ele>29.2</ele>
        <time>1970-01-01T02:30:03.000Z</time>
      </trkpt>
      <trkpt lat="41.188318" lon="1.515414">
        <ele>29.2</ele>
        <time>1970-01-01T02:30:04.000Z</time>
      </trkpt>
      <trkpt lat="41.188341" lon="1.515477">
        <ele>29.2</ele>
        <time>1970-01-01T02:30:05.000Z</time>
      </trkpt>
      <trkpt lat="41.188378" lon="1.51554">
        <ele>29.2</ele>
        <time>1970-01-01T02:30:06.000Z</time>
      </trkpt>
      <trkpt lat="41.1884" lon="1.515597">
        <ele>29.2</ele>
        <time>1970-01-01T02:30:07.000Z</time>
      </trkpt>
      <trkpt lat="41.188419" lon="1.515649">
        <ele>29.2</ele>
        <time>1970-01-01T02:30:08.000Z</time>
      </trkpt>
      <trkpt lat="41.188442" lon="1.515711">
        <ele>29.3</ele>
        <time>1970-01-01T02:30:09.000Z</time>
      </trkpt>
      <trkpt lat="41.188471" lon="1.515765">
        <ele>29.4</ele>
        <time>1970-01-01T02:30:10.000Z</time>
      </trkpt>
      <trkpt lat="41.188498" lon="1.515821">
        <ele>29.5</ele>
        <time>1970-01-01T02:30:11.000Z</time>
      </trkpt>
      <trkpt lat="41.188524" lon="1.515883">
        <ele>29.6</ele>
        <time>1970-01-01T02:30:12.000Z</time>
      </trkpt>
      <trkpt lat="41.188551" lon="1.51595">
        <ele>29.8</ele>
        <time>1970-01-01T02:30:13.000Z</time>
      </trkpt>
      <trkpt lat="41.188564" lon="1.516021">
        <ele>29.9</ele>
        <time>1970-01-01T02:30:14.000Z</time>
      </trkpt>
      <trkpt lat="41.1886" lon="1.516082">
        <ele>30</ele>
        <time>1970-01-01T02:30:15.000Z</time>
      </trkpt>
      <trkpt lat="41.188625" lon="1.516143">
        <ele>30.1</ele>
        <time>1970-01-01T02:30:16.000Z</time>
      </trkpt>
      <trkpt lat="41.188652" lon="1.516212">
        <ele>30.2</ele>
        <time>1970-01-01T02:30:17.000Z</time>
      </trkpt>
      <trkpt lat="41.188672" lon="1.516278">
        <ele>30.4</ele>
        <time>1970-01-01T02:30:18.000Z</time>
      </trkpt>
      <trkpt lat="41.188697" lon="1.516345">
        <ele>30.5</ele>
        <time>1970-01-01T02:30:19.000Z</time>
      </trkpt>
      <trkpt lat="41.188725" lon="1.516403">
        <ele>30.5</ele>
        <time>1970-01-01T02:30:20.000Z</time>
      </trkpt>
      <trkpt lat="41.188756" lon="1.516459">
        <ele>30.7</ele>
        <time>1970-01-01T02:30:21.000Z</time>
      </trkpt>
      <trkpt lat="41.188783" lon="1.516515">
        <ele>30.8</ele>
        <time>1970-01-01T02:30:22.000Z</time>
      </trkpt>
      <trkpt lat="41.18881" lon="1.516561">
        <ele>30.9</ele>
        <time>1970-01-01T02:30:23.000Z</time>
      </trkpt>
      <trkpt lat="41.188832" lon="1.516599">
        <ele>31</ele>
        <time>1970-01-01T02:30:24.000Z</time>
      </trkpt>
      <trkpt lat="41.188861" lon="1.516632">
        <ele>31.1</ele>
        <time>1970-01-01T02:30:25.000Z</time>
      </trkpt>
      <trkpt lat="41.188889" lon="1.516655">
        <ele>31.9</ele>
        <time>1970-01-01T02:30:26.000Z</time>
      </trkpt>
      <trkpt lat="41.188931" lon="1.516667">
        <ele>32.2</ele>
        <time>1970-01-01T02:30:27.000Z</time>
      </trkpt>
      <trkpt lat="41.188973" lon="1.51669">
        <ele>32.6</ele>
        <time>1970-01-01T02:30:28.000Z</time>
      </trkpt>
      <trkpt lat="41.189008" lon="1.51671">
        <ele>32.9</ele>
        <time>1970-01-01T02:30:29.000Z</time>
      </trkpt>
      <trkpt lat="41.189047" lon="1.516725">
        <ele>33.3</ele>
        <time>1970-01-01T02:30:30.000Z</time>
      </trkpt>
      <trkpt lat="41.189082" lon="1.516747">
        <ele>33.6</ele>
        <time>1970-01-01T02:30:31.000Z</time>
      </trkpt>
      <trkpt lat="41.189122" lon="1.516777">
        <ele>33.9</ele>
        <time>1970-01-01T02:30:32.000Z</time>
      </trkpt>
      <trkpt lat="41.189164" lon="1.51679">
        <ele>34.2</ele>
        <time>1970-01-01T02:30:33.000Z</time>
      </trkpt>
      <trkpt lat="41.1892" lon="1.516808">
        <ele>34.5</ele>
        <time>1970-01-01T02:30:34.000Z</time>
      </trkpt>
      <trkpt lat="41.189231" lon="1.516828">
        <ele>34.8</ele>
        <time>1970-01-01T02:30:35.000Z</time>
      </trkpt>
      <trkpt lat="41.189265" lon="1.516845">
        <ele>35.1</ele>
        <time>1970-01-01T02:30:36.000Z</time>
      </trkpt>
      <trkpt lat="41.189303" lon="1.516869">
        <ele>35.5</ele>
        <time>1970-01-01T02:30:37.000Z</time>
      </trkpt>
      <trkpt lat="41.189337" lon="1.516895">
        <ele>35.8</ele>
        <time>1970-01-01T02:30:38.000Z</time>
      </trkpt>
      <trkpt lat="41.189378" lon="1.516953">
        <ele>36.2</ele>
        <time>1970-01-01T02:30:40.000Z</time>
      </trkpt>
      <trkpt lat="41.189405" lon="1.516986">
        <ele>36.4</ele>
        <time>1970-01-01T02:30:41.000Z</time>
      </trkpt>
      <trkpt lat="41.18943" lon="1.517023">
        <ele>36.5</ele>
        <time>1970-01-01T02:30:42.000Z</time>
      </trkpt>
      <trkpt lat="41.189455" lon="1.517066">
        <ele>36.7</ele>
        <time>1970-01-01T02:30:43.000Z</time>
      </trkpt>
      <trkpt lat="41.189483" lon="1.517096">
        <ele>36.8</ele>
        <time>1970-01-01T02:30:44.000Z</time>
      </trkpt>
      <trkpt lat="41.189507" lon="1.517127">
        <ele>36.8</ele>
        <time>1970-01-01T02:30:45.000Z</time>
      </trkpt>
      <trkpt lat="41.189531" lon="1.517166">
        <ele>36.9</ele>
        <time>1970-01-01T02:30:46.000Z</time>
      </trkpt>
      <trkpt lat="41.189553" lon="1.517203">
        <ele>37</ele>
        <time>1970-01-01T02:30:47.000Z</time>
      </trkpt>
      <trkpt lat="41.189578" lon="1.517237">
        <ele>37.1</ele>
        <time>1970-01-01T02:30:48.000Z</time>
      </trkpt>
      <trkpt lat="41.189606" lon="1.517273">
        <ele>37.2</ele>
        <time>1970-01-01T02:30:49.000Z</time>
      </trkpt>
      <trkpt lat="41.189637" lon="1.517312">
        <ele>37.3</ele>
        <time>1970-01-01T02:30:50.000Z</time>
      </trkpt>
      <trkpt lat="41.189663" lon="1.517353">
        <ele>37.3</ele>
        <time>1970-01-01T02:30:51.000Z</time>
      </trkpt>
      <trkpt lat="41.189694" lon="1.517378">
        <ele>37.5</ele>
        <time>1970-01-01T02:30:52.000Z</time>
      </trkpt>
      <trkpt lat="41.189728" lon="1.517395">
        <ele>37.7</ele>
        <time>1970-01-01T02:30:53.000Z</time>
      </trkpt>
      <trkpt lat="41.189771" lon="1.517394">
        <ele>37.9</ele>
        <time>1970-01-01T02:30:54.000Z</time>
      </trkpt>
      <trkpt lat="41.189801" lon="1.517366">
        <ele>38.1</ele>
        <time>1970-01-01T02:30:55.000Z</time>
      </trkpt>
      <trkpt lat="41.189834" lon="1.517354">
        <ele>38.2</ele>
        <time>1970-01-01T02:30:56.000Z</time>
      </trkpt>
      <trkpt lat="41.189868" lon="1.517336">
        <ele>38.4</ele>
        <time>1970-01-01T02:30:57.000Z</time>
      </trkpt>
      <trkpt lat="41.189901" lon="1.517311">
        <ele>38.5</ele>
        <time>1970-01-01T02:30:58.000Z</time>
      </trkpt>
      <trkpt lat="41.189932" lon="1.517289">
        <ele>38.7</ele>
        <time>1970-01-01T02:30:59.000Z</time>
      </trkpt>
      <trkpt lat="41.189959" lon="1.517264">
        <ele>38.8</ele>
        <time>1970-01-01T02:31:00.000Z</time>
      </trkpt>
      <trkpt lat="41.189983" lon="1.517236">
        <ele>39</ele>
        <time>1970-01-01T02:31:01.000Z</time>
      </trkpt>
      <trkpt lat="41.190019" lon="1.517206">
        <ele>39.2</ele>
        <time>1970-01-01T02:31:02.000Z</time>
      </trkpt>
      <trkpt lat="41.190051" lon="1.517169">
        <ele>39.3</ele>
        <time>1970-01-01T02:31:03.000Z</time>
      </trkpt>
      <trkpt lat="41.190089" lon="1.51714">
        <ele>39.5</ele>
        <time>1970-01-01T02:31:04.000Z</time>
      </trkpt>
      <trkpt lat="41.190129" lon="1.517113">
        <ele>39.7</ele>
        <time>1970-01-01T02:31:05.000Z</time>
      </trkpt>
      <trkpt lat="41.190162" lon="1.517083">
        <ele>39.9</ele>
        <time>1970-01-01T02:31:06.000Z</time>
      </trkpt>
      <trkpt lat="41.190202" lon="1.517053">
        <ele>40.1</ele>
        <time>1970-01-01T02:31:07.000Z</time>
      </trkpt>
      <trkpt lat="41.190231" lon="1.517026">
        <ele>40.2</ele>
        <time>1970-01-01T02:31:08.000Z</time>
      </trkpt>
      <trkpt lat="41.190266" lon="1.516996">
        <ele>40.4</ele>
        <time>1970-01-01T02:31:09.000Z</time>
      </trkpt>
      <trkpt lat="41.190297" lon="1.516964">
        <ele>40.6</ele>
        <time>1970-01-01T02:31:10.000Z</time>
      </trkpt>
      <trkpt lat="41.190337" lon="1.516927">
        <ele>40.8</ele>
        <time>1970-01-01T02:31:11.000Z</time>
      </trkpt>
      <trkpt lat="41.190368" lon="1.516902">
        <ele>40.9</ele>
        <time>1970-01-01T02:31:12.000Z</time>
      </trkpt>
      <trkpt lat="41.190406" lon="1.516884">
        <ele>41.1</ele>
        <time>1970-01-01T02:31:13.000Z</time>
      </trkpt>
      <trkpt lat="41.190439" lon="1.516854">
        <ele>41.2</ele>
        <time>1970-01-01T02:31:14.000Z</time>
      </trkpt>
      <trkpt lat="41.190475" lon="1.516827">
        <ele>41.5</ele>
        <time>1970-01-01T02:31:15.000Z</time>
      </trkpt>
      <trkpt lat="41.190502" lon="1.5168">
        <ele>41.7</ele>
        <time>1970-01-01T02:31:16.000Z</time>
      </trkpt>
      <trkpt lat="41.190531" lon="1.516773">
        <ele>41.8</ele>
        <time>1970-01-01T02:31:17.000Z</time>
      </trkpt>
      <trkpt lat="41.190563" lon="1.516748">
        <ele>42</ele>
        <time>1970-01-01T02:31:18.000Z</time>
      </trkpt>
      <trkpt lat="41.190591" lon="1.516723">
        <ele>42.1</ele>
        <time>1970-01-01T02:31:19.000Z</time>
      </trkpt>
      <trkpt lat="41.190617" lon="1.516701">
        <ele>42.2</ele>
        <time>1970-01-01T02:31:20.000Z</time>
      </trkpt>
      <trkpt lat="41.190643" lon="1.516685">
        <ele>42.3</ele>
        <time>1970-01-01T02:31:21.000Z</time>
      </trkpt>
      <trkpt lat="41.190675" lon="1.516656">
        <ele>42.5</ele>
        <time>1970-01-01T02:31:22.000Z</time>
      </trkpt>
      <trkpt lat="41.190709" lon="1.516634">
        <ele>42.5</ele>
        <time>1970-01-01T02:31:23.000Z</time>
      </trkpt>
      <trkpt lat="41.190736" lon="1.516619">
        <ele>42.5</ele>
        <time>1970-01-01T02:31:24.000Z</time>
      </trkpt>
      <trkpt lat="41.190756" lon="1.516572">
        <ele>42.8</ele>
        <time>1970-01-01T02:31:25.000Z</time>
      </trkpt>
      <trkpt lat="41.190779" lon="1.516551">
        <ele>42.8</ele>
        <time>1970-01-01T02:31:26.000Z</time>
      </trkpt>
      <trkpt lat="41.190811" lon="1.51655">
        <ele>42.8</ele>
        <time>1970-01-01T02:31:28.000Z</time>
      </trkpt>
      <trkpt lat="41.190829" lon="1.51658">
        <ele>42.8</ele>
        <time>1970-01-01T02:31:29.000Z</time>
      </trkpt>
      <trkpt lat="41.190854" lon="1.51662">
        <ele>42.9</ele>
        <time>1970-01-01T02:31:30.000Z</time>
      </trkpt>
      <trkpt lat="41.190871" lon="1.516657">
        <ele>42.9</ele>
        <time>1970-01-01T02:31:31.000Z</time>
      </trkpt>
      <trkpt lat="41.190892" lon="1.516707">
        <ele>42.9</ele>
        <time>1970-01-01T02:31:32.000Z</time>
      </trkpt>
      <trkpt lat="41.190908" lon="1.51676">
        <ele>42.9</ele>
        <time>1970-01-01T02:31:33.000Z</time>
      </trkpt>
      <trkpt lat="41.19093" lon="1.516809">
        <ele>42.9</ele>
        <time>1970-01-01T02:31:34.000Z</time>
      </trkpt>
      <trkpt lat="41.190949" lon="1.516872">
        <ele>42.9</ele>
        <time>1970-01-01T02:31:35.000Z</time>
      </trkpt>
      <trkpt lat="41.191" lon="1.516934">
        <ele>42.9</ele>
        <time>1970-01-01T02:31:36.000Z</time>
      </trkpt>
      <trkpt lat="41.191039" lon="1.516998">
        <ele>43</ele>
        <time>1970-01-01T02:31:37.000Z</time>
      </trkpt>
      <trkpt lat="41.191079" lon="1.517059">
        <ele>43</ele>
        <time>1970-01-01T02:31:38.000Z</time>
      </trkpt>
      <trkpt lat="41.191132" lon="1.517135">
        <ele>43</ele>
        <time>1970-01-01T02:31:39.000Z</time>
      </trkpt>
      <trkpt lat="41.191166" lon="1.517209">
        <ele>43.1</ele>
        <time>1970-01-01T02:31:40.000Z</time>
      </trkpt>
      <trkpt lat="41.191207" lon="1.517286">
        <ele>42.8</ele>
        <time>1970-01-01T02:31:41.000Z</time>
      </trkpt>
      <trkpt lat="41.191246" lon="1.517361">
        <ele>42.7</ele>
        <time>1970-01-01T02:31:42.000Z</time>
      </trkpt>
      <trkpt lat="41.191285" lon="1.517442">
        <ele>42.4</ele>
        <time>1970-01-01T02:31:43.000Z</time>
      </trkpt>
      <trkpt lat="41.191324" lon="1.517517">
        <ele>42.2</ele>
        <time>1970-01-01T02:31:44.000Z</time>
      </trkpt>
      <trkpt lat="41.191353" lon="1.517579">
        <ele>42</ele>
        <time>1970-01-01T02:31:45.000Z</time>
      </trkpt>
      <trkpt lat="41.191401" lon="1.51764">
        <ele>41.7</ele>
        <time>1970-01-01T02:31:46.000Z</time>
      </trkpt>
      <trkpt lat="41.191428" lon="1.517697">
        <ele>41.4</ele>
        <time>1970-01-01T02:31:47.000Z</time>
      </trkpt>
      <trkpt lat="41.191458" lon="1.517756">
        <ele>41</ele>
        <time>1970-01-01T02:31:48.000Z</time>
      </trkpt>
      <trkpt lat="41.191487" lon="1.517814">
        <ele>40.5</ele>
        <time>1970-01-01T02:31:49.000Z</time>
      </trkpt>
      <trkpt lat="41.19151" lon="1.517867">
        <ele>40.2</ele>
        <time>1970-01-01T02:31:50.000Z</time>
      </trkpt>
      <trkpt lat="41.191529" lon="1.517905">
        <ele>40</ele>
        <time>1970-01-01T02:31:51.000Z</time>
      </trkpt>
      <trkpt lat="41.191545" lon="1.517936">
        <ele>39.8</ele>
        <time>1970-01-01T02:31:52.000Z</time>
      </trkpt>
      <trkpt lat="41.191579" lon="1.51798">
        <ele>39.4</ele>
        <time>1970-01-01T02:31:54.000Z</time>
      </trkpt>
      <trkpt lat="41.191612" lon="1.518012">
        <ele>39.2</ele>
        <time>1970-01-01T02:31:55.000Z</time>
      </trkpt>
      <trkpt lat="41.191639" lon="1.518057">
        <ele>39.1</ele>
        <time>1970-01-01T02:31:56.000Z</time>
      </trkpt>
      <trkpt lat="41.191663" lon="1.518095">
        <ele>38.9</ele>
        <time>1970-01-01T02:31:57.000Z</time>
      </trkpt>
      <trkpt lat="41.191692" lon="1.518136">
        <ele>38.7</ele>
        <time>1970-01-01T02:31:58.000Z</time>
      </trkpt>
      <trkpt lat="41.191722" lon="1.518184">
        <ele>38.5</ele>
        <time>1970-01-01T02:31:59.000Z</time>
      </trkpt>
      <trkpt lat="41.19175" lon="1.518225">
        <ele>38.3</ele>
        <time>1970-01-01T02:32:00.000Z</time>
      </trkpt>
      <trkpt lat="41.191768" lon="1.518258">
        <ele>38.2</ele>
        <time>1970-01-01T02:32:01.000Z</time>
      </trkpt>
      <trkpt lat="41.191794" lon="1.518286">
        <ele>38</ele>
        <time>1970-01-01T02:32:02.000Z</time>
      </trkpt>
      <trkpt lat="41.191827" lon="1.518332">
        <ele>37.8</ele>
        <time>1970-01-01T02:32:03.000Z</time>
      </trkpt>
      <trkpt lat="41.191861" lon="1.518381">
        <ele>37.5</ele>
        <time>1970-01-01T02:32:04.000Z</time>
      </trkpt>
      <trkpt lat="41.191885" lon="1.518398">
        <ele>37.4</ele>
        <time>1970-01-01T02:32:05.000Z</time>
      </trkpt>
      <trkpt lat="41.191907" lon="1.518436">
        <ele>37.2</ele>
        <time>1970-01-01T02:32:06.000Z</time>
      </trkpt>
      <trkpt lat="41.191936" lon="1.51848">
        <ele>37</ele>
        <time>1970-01-01T02:32:07.000Z</time>
      </trkpt>
      <trkpt lat="41.191957" lon="1.518517">
        <ele>36.8</ele>
        <time>1970-01-01T02:32:08.000Z</time>
      </trkpt>
      <trkpt lat="41.191987" lon="1.518566">
        <ele>36.6</ele>
        <time>1970-01-01T02:32:09.000Z</time>
      </trkpt>
      <trkpt lat="41.192016" lon="1.518617">
        <ele>36.5</ele>
        <time>1970-01-01T02:32:10.000Z</time>
      </trkpt>
      <trkpt lat="41.192051" lon="1.518665">
        <ele>36.5</ele>
        <time>1970-01-01T02:32:11.000Z</time>
      </trkpt>
      <trkpt lat="41.192082" lon="1.518712">
        <ele>36.4</ele>
        <time>1970-01-01T02:32:12.000Z</time>
      </trkpt>
      <trkpt lat="41.19212" lon="1.518767">
        <ele>36.4</ele>
        <time>1970-01-01T02:32:13.000Z</time>
      </trkpt>
      <trkpt lat="41.192167" lon="1.518829">
        <ele>36.3</ele>
        <time>1970-01-01T02:32:14.000Z</time>
      </trkpt>
      <trkpt lat="41.192211" lon="1.518878">
        <ele>36.2</ele>
        <time>1970-01-01T02:32:15.000Z</time>
      </trkpt>
      <trkpt lat="41.192264" lon="1.518903">
        <ele>36.3</ele>
        <time>1970-01-01T02:32:16.000Z</time>
      </trkpt>
      <trkpt lat="41.192311" lon="1.518912">
        <ele>36.5</ele>
        <time>1970-01-01T02:32:17.000Z</time>
      </trkpt>
      <trkpt lat="41.192359" lon="1.5189">
        <ele>36.6</ele>
        <time>1970-01-01T02:32:18.000Z</time>
      </trkpt>
      <trkpt lat="41.192404" lon="1.518894">
        <ele>36.7</ele>
        <time>1970-01-01T02:32:19.000Z</time>
      </trkpt>
      <trkpt lat="41.192444" lon="1.518886">
        <ele>37</ele>
        <time>1970-01-01T02:32:20.000Z</time>
      </trkpt>
      <trkpt lat="41.192488" lon="1.518889">
        <ele>37.2</ele>
        <time>1970-01-01T02:32:21.000Z</time>
      </trkpt>
      <trkpt lat="41.192529" lon="1.518885">
        <ele>37.4</ele>
        <time>1970-01-01T02:32:22.000Z</time>
      </trkpt>
      <trkpt lat="41.192578" lon="1.518887">
        <ele>37.6</ele>
        <time>1970-01-01T02:32:23.000Z</time>
      </trkpt>
      <trkpt lat="41.192627" lon="1.518891">
        <ele>37.8</ele>
        <time>1970-01-01T02:32:24.000Z</time>
      </trkpt>
      <trkpt lat="41.192673" lon="1.5189">
        <ele>37.9</ele>
        <time>1970-01-01T02:32:25.000Z</time>
      </trkpt>
      <trkpt lat="41.192717" lon="1.518904">
        <ele>38.1</ele>
        <time>1970-01-01T02:32:26.000Z</time>
      </trkpt>
      <trkpt lat="41.192763" lon="1.518911">
        <ele>38.3</ele>
        <time>1970-01-01T02:32:27.000Z</time>
      </trkpt>
      <trkpt lat="41.192814" lon="1.518916">
        <ele>38.5</ele>
        <time>1970-01-01T02:32:28.000Z</time>
      </trkpt>
      <trkpt lat="41.19286" lon="1.518927">
        <ele>38.6</ele>
        <time>1970-01-01T02:32:29.000Z</time>
      </trkpt>
      <trkpt lat="41.19291" lon="1.518941">
        <ele>38.7</ele>
        <time>1970-01-01T02:32:30.000Z</time>
      </trkpt>
      <trkpt lat="41.192958" lon="1.518951">
        <ele>38.7</ele>
        <time>1970-01-01T02:32:31.000Z</time>
      </trkpt>
      <trkpt lat="41.193008" lon="1.518948">
        <ele>38.7</ele>
        <time>1970-01-01T02:32:32.000Z</time>
      </trkpt>
      <trkpt lat="41.193053" lon="1.518933">
        <ele>38.7</ele>
        <time>1970-01-01T02:32:33.000Z</time>
      </trkpt>
      <trkpt lat="41.193091" lon="1.518916">
        <ele>38.7</ele>
        <time>1970-01-01T02:32:34.000Z</time>
      </trkpt>
      <trkpt lat="41.193136" lon="1.518904">
        <ele>38.8</ele>
        <time>1970-01-01T02:32:35.000Z</time>
      </trkpt>
      <trkpt lat="41.19318" lon="1.5189">
        <ele>38.8</ele>
        <time>1970-01-01T02:32:36.000Z</time>
      </trkpt>
      <trkpt lat="41.19322" lon="1.518887">
        <ele>38.9</ele>
        <time>1970-01-01T02:32:37.000Z</time>
      </trkpt>
      <trkpt lat="41.19327" lon="1.518887">
        <ele>39</ele>
        <time>1970-01-01T02:32:38.000Z</time>
      </trkpt>
      <trkpt lat="41.193316" lon="1.5189">
        <ele>39.2</ele>
        <time>1970-01-01T02:32:39.000Z</time>
      </trkpt>
      <trkpt lat="41.193365" lon="1.51892">
        <ele>39.3</ele>
        <time>1970-01-01T02:32:40.000Z</time>
      </trkpt>
      <trkpt lat="41.193422" lon="1.518937">
        <ele>39.7</ele>
        <time>1970-01-01T02:32:41.000Z</time>
      </trkpt>
      <trkpt lat="41.193475" lon="1.518953">
        <ele>40</ele>
        <time>1970-01-01T02:32:42.000Z</time>
      </trkpt>
      <trkpt lat="41.193526" lon="1.518962">
        <ele>40.2</ele>
        <time>1970-01-01T02:32:43.000Z</time>
      </trkpt>
      <trkpt lat="41.193569" lon="1.518975">
        <ele>40.4</ele>
        <time>1970-01-01T02:32:44.000Z</time>
      </trkpt>
      <trkpt lat="41.193617" lon="1.518987">
        <ele>40.5</ele>
        <time>1970-01-01T02:32:45.000Z</time>
      </trkpt>
      <trkpt lat="41.193666" lon="1.518994">
        <ele>40.6</ele>
        <time>1970-01-01T02:32:46.000Z</time>
      </trkpt>
      <trkpt lat="41.19372" lon="1.51899">
        <ele>40.7</ele>
        <time>1970-01-01T02:32:47.000Z</time>
      </trkpt>
      <trkpt lat="41.193773" lon="1.519003">
        <ele>40.8</ele>
        <time>1970-01-01T02:32:48.000Z</time>
      </trkpt>
      <trkpt lat="41.193818" lon="1.519007">
        <ele>40.9</ele>
        <time>1970-01-01T02:32:49.000Z</time>
      </trkpt>
      <trkpt lat="41.193863" lon="1.519012">
        <ele>41</ele>
        <time>1970-01-01T02:32:50.000Z</time>
      </trkpt>
      <trkpt lat="41.193908" lon="1.519017">
        <ele>41.1</ele>
        <time>1970-01-01T02:32:51.000Z</time>
      </trkpt>
      <trkpt lat="41.193955" lon="1.519016">
        <ele>41.1</ele>
        <time>1970-01-01T02:32:52.000Z</time>
      </trkpt>
      <trkpt lat="41.19401" lon="1.519003">
        <ele>41.3</ele>
        <time>1970-01-01T02:32:53.000Z</time>
      </trkpt>
      <trkpt lat="41.194066" lon="1.518994">
        <ele>41.4</ele>
        <time>1970-01-01T02:32:54.000Z</time>
      </trkpt>
      <trkpt lat="41.194116" lon="1.518967">
        <ele>41.5</ele>
        <time>1970-01-01T02:32:55.000Z</time>
      </trkpt>
      <trkpt lat="41.194165" lon="1.518927">
        <ele>41.6</ele>
        <time>1970-01-01T02:32:56.000Z</time>
      </trkpt>
      <trkpt lat="41.19421" lon="1.518905">
        <ele>41.8</ele>
        <time>1970-01-01T02:32:57.000Z</time>
      </trkpt>
      <trkpt lat="41.194242" lon="1.518879">
        <ele>41.9</ele>
        <time>1970-01-01T02:32:58.000Z</time>
      </trkpt>
      <trkpt lat="41.194293" lon="1.518852">
        <ele>42</ele>
        <time>1970-01-01T02:32:59.000Z</time>
      </trkpt>
      <trkpt lat="41.194339" lon="1.518825">
        <ele>42.1</ele>
        <time>1970-01-01T02:33:00.000Z</time>
      </trkpt>
      <trkpt lat="41.194388" lon="1.518791">
        <ele>42.3</ele>
        <time>1970-01-01T02:33:01.000Z</time>
      </trkpt>
      <trkpt lat="41.194429" lon="1.518759">
        <ele>42.4</ele>
        <time>1970-01-01T02:33:02.000Z</time>
      </trkpt>
      <trkpt lat="41.194465" lon="1.518721">
        <ele>42.6</ele>
        <time>1970-01-01T02:33:03.000Z</time>
      </trkpt>
      <trkpt lat="41.194504" lon="1.518685">
        <ele>42.8</ele>
        <time>1970-01-01T02:33:04.000Z</time>
      </trkpt>
      <trkpt lat="41.194536" lon="1.518652">
        <ele>42.9</ele>
        <time>1970-01-01T02:33:05.000Z</time>
      </trkpt>
      <trkpt lat="41.19457" lon="1.518625">
        <ele>43.1</ele>
        <time>1970-01-01T02:33:06.000Z</time>
      </trkpt>
      <trkpt lat="41.194612" lon="1.51859">
        <ele>43.2</ele>
        <time>1970-01-01T02:33:07.000Z</time>
      </trkpt>
      <trkpt lat="41.19465" lon="1.518561">
        <ele>43.4</ele>
        <time>1970-01-01T02:33:08.000Z</time>
      </trkpt>
      <trkpt lat="41.19469" lon="1.518526">
        <ele>43.6</ele>
        <time>1970-01-01T02:33:09.000Z</time>
      </trkpt>
      <trkpt lat="41.194728" lon="1.518488">
        <ele>43.8</ele>
        <time>1970-01-01T02:33:10.000Z</time>
      </trkpt>
      <trkpt lat="41.194767" lon="1.518454">
        <ele>44</ele>
        <time>1970-01-01T02:33:11.000Z</time>
      </trkpt>
      <trkpt lat="41.194792" lon="1.518423">
        <ele>44.2</ele>
        <time>1970-01-01T02:33:12.000Z</time>
      </trkpt>
      <trkpt lat="41.194832" lon="1.518406">
        <ele>44.5</ele>
        <time>1970-01-01T02:33:13.000Z</time>
      </trkpt>
      <trkpt lat="41.194868" lon="1.518384">
        <ele>44.6</ele>
        <time>1970-01-01T02:33:14.000Z</time>
      </trkpt>
      <trkpt lat="41.194904" lon="1.518357">
        <ele>44.8</ele>
        <time>1970-01-01T02:33:15.000Z</time>
      </trkpt>
      <trkpt lat="41.194937" lon="1.518325">
        <ele>45</ele>
        <time>1970-01-01T02:33:16.000Z</time>
      </trkpt>
      <trkpt lat="41.194972" lon="1.518295">
        <ele>45.2</ele>
        <time>1970-01-01T02:33:17.000Z</time>
      </trkpt>
      <trkpt lat="41.195009" lon="1.518258">
        <ele>45.3</ele>
        <time>1970-01-01T02:33:18.000Z</time>
      </trkpt>
      <trkpt lat="41.195045" lon="1.518234">
        <ele>45.5</ele>
        <time>1970-01-01T02:33:19.000Z</time>
      </trkpt>
      <trkpt lat="41.19508" lon="1.518222">
        <ele>45.7</ele>
        <time>1970-01-01T02:33:20.000Z</time>
      </trkpt>
      <trkpt lat="41.195116" lon="1.518249">
        <ele>45.9</ele>
        <time>1970-01-01T02:33:21.000Z</time>
      </trkpt>
      <trkpt lat="41.19516" lon="1.518292">
        <ele>45.6</ele>
        <time>1970-01-01T02:33:22.000Z</time>
      </trkpt>
      <trkpt lat="41.195194" lon="1.518352">
        <ele>45.5</ele>
        <time>1970-01-01T02:33:23.000Z</time>
      </trkpt>
      <trkpt lat="41.195229" lon="1.518411">
        <ele>45.3</ele>
        <time>1970-01-01T02:33:24.000Z</time>
      </trkpt>
      <trkpt lat="41.195269" lon="1.518468">
        <ele>45.1</ele>
        <time>1970-01-01T02:33:25.000Z</time>
      </trkpt>
      <trkpt lat="41.195321" lon="1.518526">
        <ele>44.8</ele>
        <time>1970-01-01T02:33:26.000Z</time>
      </trkpt>
      <trkpt lat="41.195363" lon="1.518592">
        <ele>44.7</ele>
        <time>1970-01-01T02:33:27.000Z</time>
      </trkpt>
      <trkpt lat="41.195403" lon="1.518648">
        <ele>44.5</ele>
        <time>1970-01-01T02:33:28.000Z</time>
      </trkpt>
      <trkpt lat="41.195462" lon="1.518698">
        <ele>44.4</ele>
        <time>1970-01-01T02:33:29.000Z</time>
      </trkpt>
      <trkpt lat="41.195499" lon="1.518775">
        <ele>44.2</ele>
        <time>1970-01-01T02:33:30.000Z</time>
      </trkpt>
      <trkpt lat="41.195546" lon="1.518831">
        <ele>44</ele>
        <time>1970-01-01T02:33:31.000Z</time>
      </trkpt>
      <trkpt lat="41.195598" lon="1.518887">
        <ele>43.8</ele>
        <time>1970-01-01T02:33:32.000Z</time>
      </trkpt>
      <trkpt lat="41.195648" lon="1.518939">
        <ele>43.6</ele>
        <time>1970-01-01T02:33:33.000Z</time>
      </trkpt>
      <trkpt lat="41.195703" lon="1.518997">
        <ele>43.3</ele>
        <time>1970-01-01T02:33:34.000Z</time>
      </trkpt>
      <trkpt lat="41.195764" lon="1.519075">
        <ele>42.9</ele>
        <time>1970-01-01T02:33:35.000Z</time>
      </trkpt>
      <trkpt lat="41.195797" lon="1.519128">
        <ele>42.7</ele>
        <time>1970-01-01T02:33:36.000Z</time>
      </trkpt>
      <trkpt lat="41.195843" lon="1.519186">
        <ele>42.4</ele>
        <time>1970-01-01T02:33:37.000Z</time>
      </trkpt>
      <trkpt lat="41.195896" lon="1.519253">
        <ele>42.2</ele>
        <time>1970-01-01T02:33:38.000Z</time>
      </trkpt>
      <trkpt lat="41.195957" lon="1.519329">
        <ele>42</ele>
        <time>1970-01-01T02:33:39.000Z</time>
      </trkpt>
      <trkpt lat="41.195995" lon="1.519372">
        <ele>41.8</ele>
        <time>1970-01-01T02:33:40.000Z</time>
      </trkpt>
      <trkpt lat="41.196035" lon="1.519423">
        <ele>41.7</ele>
        <time>1970-01-01T02:33:41.000Z</time>
      </trkpt>
      <trkpt lat="41.196073" lon="1.519474">
        <ele>41.5</ele>
        <time>1970-01-01T02:33:42.000Z</time>
      </trkpt>
      <trkpt lat="41.196117" lon="1.51954">
        <ele>41.3</ele>
        <time>1970-01-01T02:33:43.000Z</time>
      </trkpt>
      <trkpt lat="41.196154" lon="1.519597">
        <ele>41.1</ele>
        <time>1970-01-01T02:33:44.000Z</time>
      </trkpt>
      <trkpt lat="41.196197" lon="1.519646">
        <ele>41</ele>
        <time>1970-01-01T02:33:45.000Z</time>
      </trkpt>
      <trkpt lat="41.196242" lon="1.519711">
        <ele>40.9</ele>
        <time>1970-01-01T02:33:46.000Z</time>
      </trkpt>
      <trkpt lat="41.196293" lon="1.519772">
        <ele>40.7</ele>
        <time>1970-01-01T02:33:47.000Z</time>
      </trkpt>
      <trkpt lat="41.196334" lon="1.519814">
        <ele>40.6</ele>
        <time>1970-01-01T02:33:48.000Z</time>
      </trkpt>
      <trkpt lat="41.196379" lon="1.519862">
        <ele>40.5</ele>
        <time>1970-01-01T02:33:49.000Z</time>
      </trkpt>
      <trkpt lat="41.196428" lon="1.519917">
        <ele>40.4</ele>
        <time>1970-01-01T02:33:50.000Z</time>
      </trkpt>
      <trkpt lat="41.196477" lon="1.519974">
        <ele>40.3</ele>
        <time>1970-01-01T02:33:51.000Z</time>
      </trkpt>
      <trkpt lat="41.196526" lon="1.520029">
        <ele>40.1</ele>
        <time>1970-01-01T02:33:52.000Z</time>
      </trkpt>
      <trkpt lat="41.196564" lon="1.520073">
        <ele>40</ele>
        <time>1970-01-01T02:33:53.000Z</time>
      </trkpt>
      <trkpt lat="41.196607" lon="1.520127">
        <ele>39.8</ele>
        <time>1970-01-01T02:33:54.000Z</time>
      </trkpt>
      <trkpt lat="41.196653" lon="1.52018">
        <ele>39.6</ele>
        <time>1970-01-01T02:33:55.000Z</time>
      </trkpt>
      <trkpt lat="41.196697" lon="1.520229">
        <ele>39.4</ele>
        <time>1970-01-01T02:33:56.000Z</time>
      </trkpt>
      <trkpt lat="41.196738" lon="1.520271">
        <ele>39.2</ele>
        <time>1970-01-01T02:33:57.000Z</time>
      </trkpt>
      <trkpt lat="41.196788" lon="1.520301">
        <ele>39</ele>
        <time>1970-01-01T02:33:58.000Z</time>
      </trkpt>
      <trkpt lat="41.196841" lon="1.520331">
        <ele>38.8</ele>
        <time>1970-01-01T02:33:59.000Z</time>
      </trkpt>
      <trkpt lat="41.196911" lon="1.520365">
        <ele>38.4</ele>
        <time>1970-01-01T02:34:00.000Z</time>
      </trkpt>
      <trkpt lat="41.196964" lon="1.520403">
        <ele>38.1</ele>
        <time>1970-01-01T02:34:01.000Z</time>
      </trkpt>
      <trkpt lat="41.197018" lon="1.520428">
        <ele>37.9</ele>
        <time>1970-01-01T02:34:02.000Z</time>
      </trkpt>
      <trkpt lat="41.197061" lon="1.520438">
        <ele>37.6</ele>
        <time>1970-01-01T02:34:03.000Z</time>
      </trkpt>
      <trkpt lat="41.197117" lon="1.52045">
        <ele>37.8</ele>
        <time>1970-01-01T02:34:04.000Z</time>
      </trkpt>
      <trkpt lat="41.197172" lon="1.52043">
        <ele>38</ele>
        <time>1970-01-01T02:34:05.000Z</time>
      </trkpt>
      <trkpt lat="41.197226" lon="1.520395">
        <ele>38.2</ele>
        <time>1970-01-01T02:34:06.000Z</time>
      </trkpt>
      <trkpt lat="41.197268" lon="1.520357">
        <ele>38.3</ele>
        <time>1970-01-01T02:34:07.000Z</time>
      </trkpt>
      <trkpt lat="41.197309" lon="1.52031">
        <ele>38.4</ele>
        <time>1970-01-01T02:34:08.000Z</time>
      </trkpt>
      <trkpt lat="41.197349" lon="1.520258">
        <ele>38.6</ele>
        <time>1970-01-01T02:34:09.000Z</time>
      </trkpt>
      <trkpt lat="41.197392" lon="1.520212">
        <ele>38.7</ele>
        <time>1970-01-01T02:34:10.000Z</time>
      </trkpt>
      <trkpt lat="41.197432" lon="1.520166">
        <ele>38.9</ele>
        <time>1970-01-01T02:34:11.000Z</time>
      </trkpt>
      <trkpt lat="41.197471" lon="1.520127">
        <ele>39</ele>
        <time>1970-01-01T02:34:12.000Z</time>
      </trkpt>
      <trkpt lat="41.197504" lon="1.520087">
        <ele>39.1</ele>
        <time>1970-01-01T02:34:13.000Z</time>
      </trkpt>
      <trkpt lat="41.197544" lon="1.52004">
        <ele>39.2</ele>
        <time>1970-01-01T02:34:14.000Z</time>
      </trkpt>
      <trkpt lat="41.197576" lon="1.52">
        <ele>39.3</ele>
        <time>1970-01-01T02:34:15.000Z</time>
      </trkpt>
      <trkpt lat="41.197613" lon="1.519963">
        <ele>39.4</ele>
        <time>1970-01-01T02:34:16.000Z</time>
      </trkpt>
      <trkpt lat="41.197664" lon="1.519928">
        <ele>39.5</ele>
        <time>1970-01-01T02:34:17.000Z</time>
      </trkpt>
      <trkpt lat="41.197708" lon="1.519907">
        <ele>39.6</ele>
        <time>1970-01-01T02:34:18.000Z</time>
      </trkpt>
      <trkpt lat="41.197754" lon="1.519886">
        <ele>39.7</ele>
        <time>1970-01-01T02:34:19.000Z</time>
      </trkpt>
      <trkpt lat="41.197811" lon="1.519861">
        <ele>39.9</ele>
        <time>1970-01-01T02:34:20.000Z</time>
      </trkpt>
      <trkpt lat="41.197866" lon="1.519829">
        <ele>40</ele>
        <time>1970-01-01T02:34:21.000Z</time>
      </trkpt>
      <trkpt lat="41.197903" lon="1.519786">
        <ele>40.1</ele>
        <time>1970-01-01T02:34:22.000Z</time>
      </trkpt>
      <trkpt lat="41.197925" lon="1.519747">
        <ele>40.2</ele>
        <time>1970-01-01T02:34:23.000Z</time>
      </trkpt>
      <trkpt lat="41.197953" lon="1.519691">
        <ele>40.3</ele>
        <time>1970-01-01T02:34:24.000Z</time>
      </trkpt>
      <trkpt lat="41.197984" lon="1.519629">
        <ele>40.4</ele>
        <time>1970-01-01T02:34:25.000Z</time>
      </trkpt>
      <trkpt lat="41.198014" lon="1.519568">
        <ele>40.5</ele>
        <time>1970-01-01T02:34:26.000Z</time>
      </trkpt>
      <trkpt lat="41.198037" lon="1.51951">
        <ele>40.6</ele>
        <time>1970-01-01T02:34:27.000Z</time>
      </trkpt>
      <trkpt lat="41.198061" lon="1.519458">
        <ele>40.7</ele>
        <time>1970-01-01T02:34:28.000Z</time>
      </trkpt>
      <trkpt lat="41.198081" lon="1.519404">
        <ele>40.8</ele>
        <time>1970-01-01T02:34:29.000Z</time>
      </trkpt>
      <trkpt lat="41.198104" lon="1.519352">
        <ele>40.9</ele>
        <time>1970-01-01T02:34:30.000Z</time>
      </trkpt>
      <trkpt lat="41.198133" lon="1.519292">
        <ele>41</ele>
        <time>1970-01-01T02:34:31.000Z</time>
      </trkpt>
      <trkpt lat="41.198159" lon="1.519241">
        <ele>41</ele>
        <time>1970-01-01T02:34:32.000Z</time>
      </trkpt>
      <trkpt lat="41.198183" lon="1.519194">
        <ele>41.1</ele>
        <time>1970-01-01T02:34:33.000Z</time>
      </trkpt>
      <trkpt lat="41.19821" lon="1.519145">
        <ele>41.2</ele>
        <time>1970-01-01T02:34:34.000Z</time>
      </trkpt>
      <trkpt lat="41.198235" lon="1.519103">
        <ele>41.2</ele>
        <time>1970-01-01T02:34:35.000Z</time>
      </trkpt>
      <trkpt lat="41.198263" lon="1.519055">
        <ele>41.3</ele>
        <time>1970-01-01T02:34:36.000Z</time>
      </trkpt>
      <trkpt lat="41.198288" lon="1.51899">
        <ele>41.3</ele>
        <time>1970-01-01T02:34:37.000Z</time>
      </trkpt>
      <trkpt lat="41.198317" lon="1.51894">
        <ele>41.4</ele>
        <time>1970-01-01T02:34:38.000Z</time>
      </trkpt>
      <trkpt lat="41.198353" lon="1.518884">
        <ele>41.4</ele>
        <time>1970-01-01T02:34:39.000Z</time>
      </trkpt>
      <trkpt lat="41.198393" lon="1.518825">
        <ele>41.5</ele>
        <time>1970-01-01T02:34:40.000Z</time>
      </trkpt>
      <trkpt lat="41.198425" lon="1.518766">
        <ele>41.5</ele>
        <time>1970-01-01T02:34:41.000Z</time>
      </trkpt>
      <trkpt lat="41.19845" lon="1.5187">
        <ele>41.6</ele>
        <time>1970-01-01T02:34:42.000Z</time>
      </trkpt>
      <trkpt lat="41.198486" lon="1.518642">
        <ele>41.7</ele>
        <time>1970-01-01T02:34:43.000Z</time>
      </trkpt>
      <trkpt lat="41.198521" lon="1.518577">
        <ele>41.8</ele>
        <time>1970-01-01T02:34:44.000Z</time>
      </trkpt>
      <trkpt lat="41.198555" lon="1.518516">
        <ele>41.9</ele>
        <time>1970-01-01T02:34:45.000Z</time>
      </trkpt>
      <trkpt lat="41.198587" lon="1.518456">
        <ele>42</ele>
        <time>1970-01-01T02:34:46.000Z</time>
      </trkpt>
      <trkpt lat="41.198619" lon="1.518396">
        <ele>42.2</ele>
        <time>1970-01-01T02:34:47.000Z</time>
      </trkpt>
      <trkpt lat="41.198642" lon="1.518344">
        <ele>42.3</ele>
        <time>1970-01-01T02:34:48.000Z</time>
      </trkpt>
      <trkpt lat="41.198667" lon="1.518286">
        <ele>42.4</ele>
        <time>1970-01-01T02:34:49.000Z</time>
      </trkpt>
      <trkpt lat="41.19869" lon="1.518231">
        <ele>42.5</ele>
        <time>1970-01-01T02:34:50.000Z</time>
      </trkpt>
      <trkpt lat="41.198733" lon="1.518177">
        <ele>42.7</ele>
        <time>1970-01-01T02:34:51.000Z</time>
      </trkpt>
      <trkpt lat="41.198769" lon="1.51812">
        <ele>42.9</ele>
        <time>1970-01-01T02:34:52.000Z</time>
      </trkpt>
      <trkpt lat="41.198809" lon="1.518064">
        <ele>43.1</ele>
        <time>1970-01-01T02:34:53.000Z</time>
      </trkpt>
      <trkpt lat="41.198846" lon="1.518013">
        <ele>43.2</ele>
        <time>1970-01-01T02:34:54.000Z</time>
      </trkpt>
      <trkpt lat="41.198881" lon="1.51796">
        <ele>43.4</ele>
        <time>1970-01-01T02:34:55.000Z</time>
      </trkpt>
      <trkpt lat="41.198916" lon="1.517908">
        <ele>43.6</ele>
        <time>1970-01-01T02:34:56.000Z</time>
      </trkpt>
      <trkpt lat="41.198948" lon="1.517865">
        <ele>43.7</ele>
        <time>1970-01-01T02:34:57.000Z</time>
      </trkpt>
      <trkpt lat="41.198984" lon="1.517824">
        <ele>43.8</ele>
        <time>1970-01-01T02:34:58.000Z</time>
      </trkpt>
      <trkpt lat="41.199015" lon="1.517789">
        <ele>44</ele>
        <time>1970-01-01T02:34:59.000Z</time>
      </trkpt>
      <trkpt lat="41.19905" lon="1.517749">
        <ele>44.1</ele>
        <time>1970-01-01T02:35:00.000Z</time>
      </trkpt>
      <trkpt lat="41.199082" lon="1.517712">
        <ele>44.2</ele>
        <time>1970-01-01T02:35:01.000Z</time>
      </trkpt>
      <trkpt lat="41.199116" lon="1.517674">
        <ele>44.3</ele>
        <time>1970-01-01T02:35:02.000Z</time>
      </trkpt>
      <trkpt lat="41.199144" lon="1.517633">
        <ele>44.4</ele>
        <time>1970-01-01T02:35:03.000Z</time>
      </trkpt>
      <trkpt lat="41.19917" lon="1.517578">
        <ele>44.5</ele>
        <time>1970-01-01T02:35:04.000Z</time>
      </trkpt>
      <trkpt lat="41.19921" lon="1.517524">
        <ele>44.7</ele>
        <time>1970-01-01T02:35:05.000Z</time>
      </trkpt>
      <trkpt lat="41.199239" lon="1.517474">
        <ele>44.8</ele>
        <time>1970-01-01T02:35:06.000Z</time>
      </trkpt>
      <trkpt lat="41.199262" lon="1.51741">
        <ele>44.9</ele>
        <time>1970-01-01T02:35:07.000Z</time>
      </trkpt>
      <trkpt lat="41.199288" lon="1.517348">
        <ele>45</ele>
        <time>1970-01-01T02:35:08.000Z</time>
      </trkpt>
      <trkpt lat="41.199318" lon="1.517303">
        <ele>45.1</ele>
        <time>1970-01-01T02:35:09.000Z</time>
      </trkpt>
      <trkpt lat="41.199337" lon="1.517253">
        <ele>45.2</ele>
        <time>1970-01-01T02:35:10.000Z</time>
      </trkpt>
      <trkpt lat="41.199356" lon="1.517203">
        <ele>45.2</ele>
        <time>1970-01-01T02:35:11.000Z</time>
      </trkpt>
      <trkpt lat="41.199378" lon="1.517152">
        <ele>45.3</ele>
        <time>1970-01-01T02:35:12.000Z</time>
      </trkpt>
      <trkpt lat="41.199406" lon="1.517101">
        <ele>45.4</ele>
        <time>1970-01-01T02:35:13.000Z</time>
      </trkpt>
      <trkpt lat="41.199439" lon="1.517047">
        <ele>45.5</ele>
        <time>1970-01-01T02:35:14.000Z</time>
      </trkpt>
      <trkpt lat="41.199463" lon="1.516997">
        <ele>45.6</ele>
        <time>1970-01-01T02:35:15.000Z</time>
      </trkpt>
      <trkpt lat="41.199494" lon="1.516944">
        <ele>45.7</ele>
        <time>1970-01-01T02:35:16.000Z</time>
      </trkpt>
      <trkpt lat="41.199523" lon="1.516892">
        <ele>45.8</ele>
        <time>1970-01-01T02:35:17.000Z</time>
      </trkpt>
      <trkpt lat="41.199555" lon="1.516839">
        <ele>45.9</ele>
        <time>1970-01-01T02:35:18.000Z</time>
      </trkpt>
      <trkpt lat="41.199586" lon="1.516775">
        <ele>46</ele>
        <time>1970-01-01T02:35:19.000Z</time>
      </trkpt>
      <trkpt lat="41.19963" lon="1.51672">
        <ele>46.1</ele>
        <time>1970-01-01T02:35:20.000Z</time>
      </trkpt>
      <trkpt lat="41.199666" lon="1.516666">
        <ele>46.2</ele>
        <time>1970-01-01T02:35:21.000Z</time>
      </trkpt>
      <trkpt lat="41.1997" lon="1.516609">
        <ele>46.2</ele>
        <time>1970-01-01T02:35:22.000Z</time>
      </trkpt>
      <trkpt lat="41.199733" lon="1.516555">
        <ele>46.3</ele>
        <time>1970-01-01T02:35:23.000Z</time>
      </trkpt>
      <trkpt lat="41.199759" lon="1.5165">
        <ele>46.3</ele>
        <time>1970-01-01T02:35:24.000Z</time>
      </trkpt>
      <trkpt lat="41.199785" lon="1.51644">
        <ele>46.4</ele>
        <time>1970-01-01T02:35:25.000Z</time>
      </trkpt>
      <trkpt lat="41.199805" lon="1.516377">
        <ele>46.4</ele>
        <time>1970-01-01T02:35:26.000Z</time>
      </trkpt>
      <trkpt lat="41.19983" lon="1.516322">
        <ele>46.4</ele>
        <time>1970-01-01T02:35:27.000Z</time>
      </trkpt>
      <trkpt lat="41.199856" lon="1.516276">
        <ele>46.3</ele>
        <time>1970-01-01T02:35:28.000Z</time>
      </trkpt>
      <trkpt lat="41.19988" lon="1.516224">
        <ele>46.3</ele>
        <time>1970-01-01T02:35:29.000Z</time>
      </trkpt>
      <trkpt lat="41.199902" lon="1.516171">
        <ele>46.2</ele>
        <time>1970-01-01T02:35:30.000Z</time>
      </trkpt>
      <trkpt lat="41.199926" lon="1.516124">
        <ele>46.2</ele>
        <time>1970-01-01T02:35:31.000Z</time>
      </trkpt>
      <trkpt lat="41.19995" lon="1.516081">
        <ele>46.1</ele>
        <time>1970-01-01T02:35:32.000Z</time>
      </trkpt>
      <trkpt lat="41.199986" lon="1.516048">
        <ele>46.1</ele>
        <time>1970-01-01T02:35:33.000Z</time>
      </trkpt>
      <trkpt lat="41.20003" lon="1.516028">
        <ele>46</ele>
        <time>1970-01-01T02:35:34.000Z</time>
      </trkpt>
      <trkpt lat="41.200078" lon="1.51607">
        <ele>45.8</ele>
        <time>1970-01-01T02:35:35.000Z</time>
      </trkpt>
      <trkpt lat="41.200125" lon="1.516123">
        <ele>45.8</ele>
        <time>1970-01-01T02:35:36.000Z</time>
      </trkpt>
      <trkpt lat="41.200171" lon="1.516164">
        <ele>46.2</ele>
        <time>1970-01-01T02:35:37.000Z</time>
      </trkpt>
      <trkpt lat="41.200213" lon="1.516198">
        <ele>46.3</ele>
        <time>1970-01-01T02:35:38.000Z</time>
      </trkpt>
      <trkpt lat="41.200578" lon="1.516453">
        <ele>47.2</ele>
        <time>1970-01-01T02:35:46.000Z</time>
      </trkpt>
      <trkpt lat="41.200614" lon="1.516499">
        <ele>47.3</ele>
        <time>1970-01-01T02:35:47.000Z</time>
      </trkpt>
      <trkpt lat="41.200656" lon="1.516539">
        <ele>47.4</ele>
        <time>1970-01-01T02:35:48.000Z</time>
      </trkpt>
      <trkpt lat="41.200656" lon="1.516643">
        <ele>47.3</ele>
        <time>1970-01-01T02:35:49.000Z</time>
      </trkpt>
      <trkpt lat="41.200659" lon="1.516726">
        <ele>47.1</ele>
        <time>1970-01-01T02:35:50.000Z</time>
      </trkpt>
      <trkpt lat="41.200722" lon="1.516822">
        <ele>46.9</ele>
        <time>1970-01-01T02:35:51.000Z</time>
      </trkpt>
      <trkpt lat="41.20075" lon="1.516883">
        <ele>46.7</ele>
        <time>1970-01-01T02:35:52.000Z</time>
      </trkpt>
      <trkpt lat="41.200772" lon="1.516939">
        <ele>46.6</ele>
        <time>1970-01-01T02:35:53.000Z</time>
      </trkpt>
      <trkpt lat="41.2008" lon="1.517002">
        <ele>46.5</ele>
        <time>1970-01-01T02:35:54.000Z</time>
      </trkpt>
      <trkpt lat="41.20082" lon="1.517064">
        <ele>46.4</ele>
        <time>1970-01-01T02:35:55.000Z</time>
      </trkpt>
      <trkpt lat="41.200842" lon="1.517134">
        <ele>46.3</ele>
        <time>1970-01-01T02:35:56.000Z</time>
      </trkpt>
      <trkpt lat="41.200856" lon="1.517187">
        <ele>46.3</ele>
        <time>1970-01-01T02:35:57.000Z</time>
      </trkpt>
      <trkpt lat="41.200872" lon="1.517241">
        <ele>46.2</ele>
        <time>1970-01-01T02:35:58.000Z</time>
      </trkpt>
      <trkpt lat="41.200908" lon="1.517291">
        <ele>46.1</ele>
        <time>1970-01-01T02:35:59.000Z</time>
      </trkpt>
      <trkpt lat="41.200948" lon="1.517338">
        <ele>46.1</ele>
        <time>1970-01-01T02:36:00.000Z</time>
      </trkpt>
      <trkpt lat="41.200986" lon="1.51738">
        <ele>46.4</ele>
        <time>1970-01-01T02:36:01.000Z</time>
      </trkpt>
      <trkpt lat="41.201029" lon="1.517422">
        <ele>46.7</ele>
        <time>1970-01-01T02:36:02.000Z</time>
      </trkpt>
      <trkpt lat="41.201071" lon="1.517458">
        <ele>47</ele>
        <time>1970-01-01T02:36:03.000Z</time>
      </trkpt>
      <trkpt lat="41.201121" lon="1.5175">
        <ele>47.4</ele>
        <time>1970-01-01T02:36:04.000Z</time>
      </trkpt>
      <trkpt lat="41.20116" lon="1.517529">
        <ele>47.6</ele>
        <time>1970-01-01T02:36:05.000Z</time>
      </trkpt>
      <trkpt lat="41.201221" lon="1.517566">
        <ele>47.9</ele>
        <time>1970-01-01T02:36:06.000Z</time>
      </trkpt>
      <trkpt lat="41.201274" lon="1.5176">
        <ele>48.2</ele>
        <time>1970-01-01T02:36:07.000Z</time>
      </trkpt>
      <trkpt lat="41.201328" lon="1.517631">
        <ele>48.3</ele>
        <time>1970-01-01T02:36:08.000Z</time>
      </trkpt>
      <trkpt lat="41.201379" lon="1.51765">
        <ele>48.5</ele>
        <time>1970-01-01T02:36:09.000Z</time>
      </trkpt>
      <trkpt lat="41.201428" lon="1.517675">
        <ele>48.6</ele>
        <time>1970-01-01T02:36:10.000Z</time>
      </trkpt>
      <trkpt lat="41.201477" lon="1.517706">
        <ele>49.2</ele>
        <time>1970-01-01T02:36:11.000Z</time>
      </trkpt>
      <trkpt lat="41.201527" lon="1.517744">
        <ele>49.5</ele>
        <time>1970-01-01T02:36:12.000Z</time>
      </trkpt>
      <trkpt lat="41.201573" lon="1.51778">
        <ele>49.8</ele>
        <time>1970-01-01T02:36:13.000Z</time>
      </trkpt>
      <trkpt lat="41.201637" lon="1.51781">
        <ele>50.1</ele>
        <time>1970-01-01T02:36:14.000Z</time>
      </trkpt>
      <trkpt lat="41.201686" lon="1.51784">
        <ele>50.4</ele>
        <time>1970-01-01T02:36:15.000Z</time>
      </trkpt>
      <trkpt lat="41.201728" lon="1.517867">
        <ele>50.5</ele>
        <time>1970-01-01T02:36:16.000Z</time>
      </trkpt>
      <trkpt lat="41.201779" lon="1.517894">
        <ele>50.7</ele>
        <time>1970-01-01T02:36:17.000Z</time>
      </trkpt>
      <trkpt lat="41.201816" lon="1.517939">
        <ele>50.9</ele>
        <time>1970-01-01T02:36:18.000Z</time>
      </trkpt>
      <trkpt lat="41.201859" lon="1.517991">
        <ele>51.1</ele>
        <time>1970-01-01T02:36:19.000Z</time>
      </trkpt>
      <trkpt lat="41.201897" lon="1.518048">
        <ele>51.2</ele>
        <time>1970-01-01T02:36:20.000Z</time>
      </trkpt>
      <trkpt lat="41.201925" lon="1.518094">
        <ele>51.3</ele>
        <time>1970-01-01T02:36:21.000Z</time>
      </trkpt>
      <trkpt lat="41.201968" lon="1.518153">
        <ele>51.4</ele>
        <time>1970-01-01T02:36:22.000Z</time>
      </trkpt>
      <trkpt lat="41.201995" lon="1.518213">
        <ele>51.5</ele>
        <time>1970-01-01T02:36:23.000Z</time>
      </trkpt>
      <trkpt lat="41.202017" lon="1.518267">
        <ele>51.5</ele>
        <time>1970-01-01T02:36:24.000Z</time>
      </trkpt>
      <trkpt lat="41.202041" lon="1.518319">
        <ele>51.6</ele>
        <time>1970-01-01T02:36:25.000Z</time>
      </trkpt>
      <trkpt lat="41.202064" lon="1.518366">
        <ele>51.6</ele>
        <time>1970-01-01T02:36:26.000Z</time>
      </trkpt>
      <trkpt lat="41.202092" lon="1.518405">
        <ele>51.7</ele>
        <time>1970-01-01T02:36:27.000Z</time>
      </trkpt>
      <trkpt lat="41.202115" lon="1.518457">
        <ele>51.7</ele>
        <time>1970-01-01T02:36:28.000Z</time>
      </trkpt>
      <trkpt lat="41.202141" lon="1.518494">
        <ele>51.8</ele>
        <time>1970-01-01T02:36:29.000Z</time>
      </trkpt>
      <trkpt lat="41.202174" lon="1.518523">
        <ele>52.5</ele>
        <time>1970-01-01T02:36:30.000Z</time>
      </trkpt>
      <trkpt lat="41.202207" lon="1.518541">
        <ele>53.1</ele>
        <time>1970-01-01T02:36:31.000Z</time>
      </trkpt>
      <trkpt lat="41.202235" lon="1.518516">
        <ele>53.6</ele>
        <time>1970-01-01T02:36:32.000Z</time>
      </trkpt>
      <trkpt lat="41.20225" lon="1.518442">
        <ele>54.5</ele>
        <time>1970-01-01T02:36:33.000Z</time>
      </trkpt>
      <trkpt lat="41.20225" lon="1.518378">
        <ele>55.1</ele>
        <time>1970-01-01T02:36:34.000Z</time>
      </trkpt>
      <trkpt lat="41.202269" lon="1.518317">
        <ele>55.8</ele>
        <time>1970-01-01T02:36:35.000Z</time>
      </trkpt>
      <trkpt lat="41.202279" lon="1.518249">
        <ele>56.5</ele>
        <time>1970-01-01T02:36:36.000Z</time>
      </trkpt>
      <trkpt lat="41.202296" lon="1.518198">
        <ele>57.1</ele>
        <time>1970-01-01T02:36:37.000Z</time>
      </trkpt>
      <trkpt lat="41.202303" lon="1.518148">
        <ele>57.6</ele>
        <time>1970-01-01T02:36:38.000Z</time>
      </trkpt>
      <trkpt lat="41.202318" lon="1.518097">
        <ele>58.2</ele>
        <time>1970-01-01T02:36:39.000Z</time>
      </trkpt>
      <trkpt lat="41.202332" lon="1.518041">
        <ele>58.7</ele>
        <time>1970-01-01T02:36:40.000Z</time>
      </trkpt>
      <trkpt lat="41.202339" lon="1.517988">
        <ele>59.4</ele>
        <time>1970-01-01T02:36:41.000Z</time>
      </trkpt>
      <trkpt lat="41.202347" lon="1.51794">
        <ele>59.1</ele>
        <time>1970-01-01T02:36:42.000Z</time>
      </trkpt>
      <trkpt lat="41.20236" lon="1.517908">
        <ele>58.8</ele>
        <time>1970-01-01T02:36:43.000Z</time>
      </trkpt>
      <trkpt lat="41.202373" lon="1.517874">
        <ele>58.5</ele>
        <time>1970-01-01T02:36:44.000Z</time>
      </trkpt>
      <trkpt lat="41.202391" lon="1.517836">
        <ele>58.2</ele>
        <time>1970-01-01T02:36:45.000Z</time>
      </trkpt>
      <trkpt lat="41.202357" lon="1.517846">
        <ele>57.8</ele>
        <time>1970-01-01T02:36:56.000Z</time>
      </trkpt>
      <trkpt lat="41.202343" lon="1.517893">
        <ele>57.4</ele>
        <time>1970-01-01T02:37:59.000Z</time>
      </trkpt>
      <trkpt lat="41.202329" lon="1.517939">
        <ele>57</ele>
        <time>1970-01-01T02:38:00.000Z</time>
      </trkpt>
      <trkpt lat="41.202317" lon="1.517995">
        <ele>56.6</ele>
        <time>1970-01-01T02:38:01.000Z</time>
      </trkpt>
      <trkpt lat="41.202304" lon="1.518058">
        <ele>56</ele>
        <time>1970-01-01T02:38:02.000Z</time>
      </trkpt>
      <trkpt lat="41.20229" lon="1.51812">
        <ele>55.5</ele>
        <time>1970-01-01T02:38:03.000Z</time>
      </trkpt>
      <trkpt lat="41.202271" lon="1.518184">
        <ele>54.9</ele>
        <time>1970-01-01T02:38:04.000Z</time>
      </trkpt>
      <trkpt lat="41.202255" lon="1.518251">
        <ele>54.3</ele>
        <time>1970-01-01T02:38:05.000Z</time>
      </trkpt>
      <trkpt lat="41.202244" lon="1.518313">
        <ele>53.8</ele>
        <time>1970-01-01T02:38:06.000Z</time>
      </trkpt>
      <trkpt lat="41.202222" lon="1.518379">
        <ele>53.1</ele>
        <time>1970-01-01T02:38:07.000Z</time>
      </trkpt>
      <trkpt lat="41.202218" lon="1.518441">
        <ele>52.5</ele>
        <time>1970-01-01T02:38:08.000Z</time>
      </trkpt>
      <trkpt lat="41.202215" lon="1.518489">
        <ele>51.9</ele>
        <time>1970-01-01T02:38:09.000Z</time>
      </trkpt>
      <trkpt lat="41.202245" lon="1.518526">
        <ele>51.3</ele>
        <time>1970-01-01T02:38:10.000Z</time>
      </trkpt>
      <trkpt lat="41.202281" lon="1.518563">
        <ele>51.2</ele>
        <time>1970-01-01T02:38:11.000Z</time>
      </trkpt>
      <trkpt lat="41.202316" lon="1.518604">
        <ele>51.5</ele>
        <time>1970-01-01T02:38:12.000Z</time>
      </trkpt>
      <trkpt lat="41.202353" lon="1.518635">
        <ele>51.7</ele>
        <time>1970-01-01T02:38:13.000Z</time>
      </trkpt>
      <trkpt lat="41.202387" lon="1.518664">
        <ele>51.8</ele>
        <time>1970-01-01T02:38:14.000Z</time>
      </trkpt>
      <trkpt lat="41.202422" lon="1.518685">
        <ele>52</ele>
        <time>1970-01-01T02:38:15.000Z</time>
      </trkpt>
      <trkpt lat="41.202462" lon="1.518702">
        <ele>52.1</ele>
        <time>1970-01-01T02:38:16.000Z</time>
      </trkpt>
      <trkpt lat="41.202496" lon="1.518724">
        <ele>52.2</ele>
        <time>1970-01-01T02:38:17.000Z</time>
      </trkpt>
      <trkpt lat="41.202538" lon="1.518744">
        <ele>52.4</ele>
        <time>1970-01-01T02:38:18.000Z</time>
      </trkpt>
      <trkpt lat="41.20258" lon="1.518749">
        <ele>52.5</ele>
        <time>1970-01-01T02:38:19.000Z</time>
      </trkpt>
      <trkpt lat="41.20262" lon="1.518765">
        <ele>52.7</ele>
        <time>1970-01-01T02:38:20.000Z</time>
      </trkpt>
      <trkpt lat="41.202657" lon="1.518789">
        <ele>52.8</ele>
        <time>1970-01-01T02:38:21.000Z</time>
      </trkpt>
      <trkpt lat="41.202691" lon="1.518816">
        <ele>52.9</ele>
        <time>1970-01-01T02:38:22.000Z</time>
      </trkpt>
      <trkpt lat="41.202725" lon="1.518838">
        <ele>53</ele>
        <time>1970-01-01T02:38:23.000Z</time>
      </trkpt>
      <trkpt lat="41.20276" lon="1.518857">
        <ele>53.2</ele>
        <time>1970-01-01T02:38:24.000Z</time>
      </trkpt>
      <trkpt lat="41.202795" lon="1.518869">
        <ele>53.3</ele>
        <time>1970-01-01T02:38:25.000Z</time>
      </trkpt>
      <trkpt lat="41.202831" lon="1.518882">
        <ele>53.4</ele>
        <time>1970-01-01T02:38:26.000Z</time>
      </trkpt>
      <trkpt lat="41.202868" lon="1.518905">
        <ele>53.5</ele>
        <time>1970-01-01T02:38:27.000Z</time>
      </trkpt>
      <trkpt lat="41.202904" lon="1.518926">
        <ele>53.6</ele>
        <time>1970-01-01T02:38:28.000Z</time>
      </trkpt>
      <trkpt lat="41.202944" lon="1.518942">
        <ele>53.6</ele>
        <time>1970-01-01T02:38:29.000Z</time>
      </trkpt>
      <trkpt lat="41.202982" lon="1.518963">
        <ele>53.7</ele>
        <time>1970-01-01T02:38:30.000Z</time>
      </trkpt>
      <trkpt lat="41.20302" lon="1.518983">
        <ele>53.8</ele>
        <time>1970-01-01T02:38:31.000Z</time>
      </trkpt>
      <trkpt lat="41.203055" lon="1.519002">
        <ele>53.9</ele>
        <time>1970-01-01T02:38:32.000Z</time>
      </trkpt>
      <trkpt lat="41.203098" lon="1.519024">
        <ele>53.9</ele>
        <time>1970-01-01T02:38:33.000Z</time>
      </trkpt>
      <trkpt lat="41.203134" lon="1.519041">
        <ele>54</ele>
        <time>1970-01-01T02:38:34.000Z</time>
      </trkpt>
      <trkpt lat="41.203183" lon="1.519067">
        <ele>54.1</ele>
        <time>1970-01-01T02:38:35.000Z</time>
      </trkpt>
      <trkpt lat="41.203225" lon="1.519091">
        <ele>54.1</ele>
        <time>1970-01-01T02:38:36.000Z</time>
      </trkpt>
      <trkpt lat="41.203262" lon="1.519116">
        <ele>54.2</ele>
        <time>1970-01-01T02:38:37.000Z</time>
      </trkpt>
      <trkpt lat="41.203303" lon="1.519148">
        <ele>54.2</ele>
        <time>1970-01-01T02:38:38.000Z</time>
      </trkpt>
      <trkpt lat="41.203338" lon="1.519171">
        <ele>54.3</ele>
        <time>1970-01-01T02:38:39.000Z</time>
      </trkpt>
      <trkpt lat="41.203371" lon="1.519189">
        <ele>54.3</ele>
        <time>1970-01-01T02:38:40.000Z</time>
      </trkpt>
      <trkpt lat="41.203407" lon="1.51921">
        <ele>54.4</ele>
        <time>1970-01-01T02:38:41.000Z</time>
      </trkpt>
      <trkpt lat="41.203449" lon="1.519235">
        <ele>54.5</ele>
        <time>1970-01-01T02:38:42.000Z</time>
      </trkpt>
      <trkpt lat="41.203491" lon="1.519259">
        <ele>54.5</ele>
        <time>1970-01-01T02:38:43.000Z</time>
      </trkpt>
      <trkpt lat="41.203533" lon="1.519284">
        <ele>54.6</ele>
        <time>1970-01-01T02:38:44.000Z</time>
      </trkpt>
      <trkpt lat="41.203573" lon="1.519302">
        <ele>54.7</ele>
        <time>1970-01-01T02:38:45.000Z</time>
      </trkpt>
      <trkpt lat="41.20361" lon="1.519322">
        <ele>54.7</ele>
        <time>1970-01-01T02:38:46.000Z</time>
      </trkpt>
      <trkpt lat="41.203666" lon="1.519352">
        <ele>54.8</ele>
        <time>1970-01-01T02:38:47.000Z</time>
      </trkpt>
      <trkpt lat="41.203708" lon="1.519381">
        <ele>54.9</ele>
        <time>1970-01-01T02:38:48.000Z</time>
      </trkpt>
      <trkpt lat="41.203746" lon="1.519413">
        <ele>55</ele>
        <time>1970-01-01T02:38:49.000Z</time>
      </trkpt>
      <trkpt lat="41.203788" lon="1.519444">
        <ele>55.1</ele>
        <time>1970-01-01T02:38:50.000Z</time>
      </trkpt>
      <trkpt lat="41.203823" lon="1.519477">
        <ele>55.1</ele>
        <time>1970-01-01T02:38:51.000Z</time>
      </trkpt>
      <trkpt lat="41.203865" lon="1.519504">
        <ele>55.2</ele>
        <time>1970-01-01T02:38:52.000Z</time>
      </trkpt>
      <trkpt lat="41.203913" lon="1.519538">
        <ele>55.3</ele>
        <time>1970-01-01T02:38:53.000Z</time>
      </trkpt>
      <trkpt lat="41.203962" lon="1.519568">
        <ele>55.4</ele>
        <time>1970-01-01T02:38:54.000Z</time>
      </trkpt>
      <trkpt lat="41.203995" lon="1.519605">
        <ele>55.4</ele>
        <time>1970-01-01T02:38:55.000Z</time>
      </trkpt>
      <trkpt lat="41.204039" lon="1.519639">
        <ele>55.5</ele>
        <time>1970-01-01T02:38:56.000Z</time>
      </trkpt>
      <trkpt lat="41.204085" lon="1.519672">
        <ele>55.6</ele>
        <time>1970-01-01T02:38:57.000Z</time>
      </trkpt>
      <trkpt lat="41.204131" lon="1.519708">
        <ele>55.6</ele>
        <time>1970-01-01T02:38:58.000Z</time>
      </trkpt>
      <trkpt lat="41.20418" lon="1.51974">
        <ele>55.7</ele>
        <time>1970-01-01T02:38:59.000Z</time>
      </trkpt>
      <trkpt lat="41.204226" lon="1.519774">
        <ele>55.8</ele>
        <time>1970-01-01T02:39:00.000Z</time>
      </trkpt>
      <trkpt lat="41.204267" lon="1.519797">
        <ele>55.8</ele>
        <time>1970-01-01T02:39:01.000Z</time>
      </trkpt>
      <trkpt lat="41.204308" lon="1.519824">
        <ele>55.9</ele>
        <time>1970-01-01T02:39:02.000Z</time>
      </trkpt>
      <trkpt lat="41.204346" lon="1.51985">
        <ele>56</ele>
        <time>1970-01-01T02:39:03.000Z</time>
      </trkpt>
      <trkpt lat="41.204392" lon="1.519872">
        <ele>56</ele>
        <time>1970-01-01T02:39:04.000Z</time>
      </trkpt>
      <trkpt lat="41.204438" lon="1.519902">
        <ele>56.1</ele>
        <time>1970-01-01T02:39:05.000Z</time>
      </trkpt>
      <trkpt lat="41.204484" lon="1.51993">
        <ele>56.2</ele>
        <time>1970-01-01T02:39:06.000Z</time>
      </trkpt>
      <trkpt lat="41.20453" lon="1.519957">
        <ele>56.3</ele>
        <time>1970-01-01T02:39:07.000Z</time>
      </trkpt>
      <trkpt lat="41.204572" lon="1.519993">
        <ele>56.4</ele>
        <time>1970-01-01T02:39:08.000Z</time>
      </trkpt>
      <trkpt lat="41.204618" lon="1.520026">
        <ele>56.5</ele>
        <time>1970-01-01T02:39:09.000Z</time>
      </trkpt>
      <trkpt lat="41.204661" lon="1.520053">
        <ele>56.5</ele>
        <time>1970-01-01T02:39:10.000Z</time>
      </trkpt>
      <trkpt lat="41.204706" lon="1.520083">
        <ele>56.6</ele>
        <time>1970-01-01T02:39:11.000Z</time>
      </trkpt>
      <trkpt lat="41.204768" lon="1.520114">
        <ele>56.8</ele>
        <time>1970-01-01T02:39:12.000Z</time>
      </trkpt>
      <trkpt lat="41.204813" lon="1.52014">
        <ele>56.9</ele>
        <time>1970-01-01T02:39:13.000Z</time>
      </trkpt>
      <trkpt lat="41.204859" lon="1.520174">
        <ele>57</ele>
        <time>1970-01-01T02:39:14.000Z</time>
      </trkpt>
      <trkpt lat="41.204898" lon="1.520207">
        <ele>57.1</ele>
        <time>1970-01-01T02:39:15.000Z</time>
      </trkpt>
      <trkpt lat="41.204942" lon="1.520222">
        <ele>57.2</ele>
        <time>1970-01-01T02:39:16.000Z</time>
      </trkpt>
      <trkpt lat="41.204985" lon="1.520254">
        <ele>57.3</ele>
        <time>1970-01-01T02:39:17.000Z</time>
      </trkpt>
      <trkpt lat="41.205029" lon="1.520283">
        <ele>57.4</ele>
        <time>1970-01-01T02:39:18.000Z</time>
      </trkpt>
      <trkpt lat="41.205067" lon="1.52032">
        <ele>57.5</ele>
        <time>1970-01-01T02:39:19.000Z</time>
      </trkpt>
      <trkpt lat="41.20511" lon="1.520351">
        <ele>57.6</ele>
        <time>1970-01-01T02:39:20.000Z</time>
      </trkpt>
      <trkpt lat="41.20515" lon="1.520391">
        <ele>57.6</ele>
        <time>1970-01-01T02:39:21.000Z</time>
      </trkpt>
      <trkpt lat="41.205195" lon="1.520425">
        <ele>57.7</ele>
        <time>1970-01-01T02:39:22.000Z</time>
      </trkpt>
      <trkpt lat="41.205235" lon="1.520468">
        <ele>57.7</ele>
        <time>1970-01-01T02:39:23.000Z</time>
      </trkpt>
      <trkpt lat="41.205278" lon="1.520508">
        <ele>57.7</ele>
        <time>1970-01-01T02:39:24.000Z</time>
      </trkpt>
      <trkpt lat="41.205313" lon="1.520549">
        <ele>57.7</ele>
        <time>1970-01-01T02:39:25.000Z</time>
      </trkpt>
      <trkpt lat="41.20535" lon="1.520581">
        <ele>57.7</ele>
        <time>1970-01-01T02:39:26.000Z</time>
      </trkpt>
      <trkpt lat="41.205391" lon="1.520616">
        <ele>57.6</ele>
        <time>1970-01-01T02:39:27.000Z</time>
      </trkpt>
      <trkpt lat="41.205431" lon="1.520653">
        <ele>57.6</ele>
        <time>1970-01-01T02:39:28.000Z</time>
      </trkpt>
      <trkpt lat="41.205474" lon="1.520693">
        <ele>57.5</ele>
        <time>1970-01-01T02:39:29.000Z</time>
      </trkpt>
      <trkpt lat="41.205513" lon="1.520728">
        <ele>57.4</ele>
        <time>1970-01-01T02:39:30.000Z</time>
      </trkpt>
      <trkpt lat="41.205556" lon="1.520771">
        <ele>57.2</ele>
        <time>1970-01-01T02:39:31.000Z</time>
      </trkpt>
      <trkpt lat="41.205597" lon="1.520811">
        <ele>57</ele>
        <time>1970-01-01T02:39:32.000Z</time>
      </trkpt>
      <trkpt lat="41.205646" lon="1.52084">
        <ele>56.8</ele>
        <time>1970-01-01T02:39:33.000Z</time>
      </trkpt>
      <trkpt lat="41.205698" lon="1.52087">
        <ele>56.5</ele>
        <time>1970-01-01T02:39:34.000Z</time>
      </trkpt>
      <trkpt lat="41.205753" lon="1.520895">
        <ele>56.2</ele>
        <time>1970-01-01T02:39:35.000Z</time>
      </trkpt>
      <trkpt lat="41.205808" lon="1.520912">
        <ele>56</ele>
        <time>1970-01-01T02:39:36.000Z</time>
      </trkpt>
      <trkpt lat="41.205859" lon="1.520934">
        <ele>55.8</ele>
        <time>1970-01-01T02:39:37.000Z</time>
      </trkpt>
      <trkpt lat="41.205913" lon="1.520963">
        <ele>55.5</ele>
        <time>1970-01-01T02:39:38.000Z</time>
      </trkpt>
      <trkpt lat="41.20597" lon="1.520981">
        <ele>55.3</ele>
        <time>1970-01-01T02:39:39.000Z</time>
      </trkpt>
      <trkpt lat="41.206019" lon="1.521001">
        <ele>55.1</ele>
        <time>1970-01-01T02:39:40.000Z</time>
      </trkpt>
      <trkpt lat="41.206072" lon="1.52103">
        <ele>54.9</ele>
        <time>1970-01-01T02:39:41.000Z</time>
      </trkpt>
      <trkpt lat="41.206123" lon="1.521049">
        <ele>54.8</ele>
        <time>1970-01-01T02:39:42.000Z</time>
      </trkpt>
      <trkpt lat="41.206174" lon="1.521075">
        <ele>54.6</ele>
        <time>1970-01-01T02:39:43.000Z</time>
      </trkpt>
      <trkpt lat="41.206227" lon="1.521101">
        <ele>54.6</ele>
        <time>1970-01-01T02:39:44.000Z</time>
      </trkpt>
      <trkpt lat="41.206288" lon="1.521144">
        <ele>54.7</ele>
        <time>1970-01-01T02:39:45.000Z</time>
      </trkpt>
      <trkpt lat="41.206346" lon="1.521179">
        <ele>54.7</ele>
        <time>1970-01-01T02:39:46.000Z</time>
      </trkpt>
      <trkpt lat="41.206405" lon="1.521205">
        <ele>54.8</ele>
        <time>1970-01-01T02:39:47.000Z</time>
      </trkpt>
      <trkpt lat="41.206459" lon="1.521229">
        <ele>54.8</ele>
        <time>1970-01-01T02:39:48.000Z</time>
      </trkpt>
      <trkpt lat="41.206514" lon="1.52125">
        <ele>54.9</ele>
        <time>1970-01-01T02:39:49.000Z</time>
      </trkpt>
      <trkpt lat="41.206567" lon="1.521272">
        <ele>54.9</ele>
        <time>1970-01-01T02:39:50.000Z</time>
      </trkpt>
      <trkpt lat="41.206615" lon="1.521293">
        <ele>55</ele>
        <time>1970-01-01T02:39:51.000Z</time>
      </trkpt>
      <trkpt lat="41.206661" lon="1.521308">
        <ele>55.1</ele>
        <time>1970-01-01T02:39:52.000Z</time>
      </trkpt>
      <trkpt lat="41.206711" lon="1.521332">
        <ele>55.2</ele>
        <time>1970-01-01T02:39:53.000Z</time>
      </trkpt>
      <trkpt lat="41.206768" lon="1.521356">
        <ele>55.4</ele>
        <time>1970-01-01T02:39:54.000Z</time>
      </trkpt>
      <trkpt lat="41.20682" lon="1.521378">
        <ele>55.6</ele>
        <time>1970-01-01T02:39:55.000Z</time>
      </trkpt>
      <trkpt lat="41.206875" lon="1.521399">
        <ele>55.9</ele>
        <time>1970-01-01T02:39:56.000Z</time>
      </trkpt>
      <trkpt lat="41.206928" lon="1.521427">
        <ele>56.1</ele>
        <time>1970-01-01T02:39:57.000Z</time>
      </trkpt>
      <trkpt lat="41.206981" lon="1.521451">
        <ele>56.4</ele>
        <time>1970-01-01T02:39:58.000Z</time>
      </trkpt>
      <trkpt lat="41.20703" lon="1.521488">
        <ele>56.7</ele>
        <time>1970-01-01T02:39:59.000Z</time>
      </trkpt>
      <trkpt lat="41.207079" lon="1.521518">
        <ele>57</ele>
        <time>1970-01-01T02:40:00.000Z</time>
      </trkpt>
      <trkpt lat="41.207131" lon="1.521546">
        <ele>57.3</ele>
        <time>1970-01-01T02:40:01.000Z</time>
      </trkpt>
      <trkpt lat="41.207176" lon="1.521573">
        <ele>57.6</ele>
        <time>1970-01-01T02:40:02.000Z</time>
      </trkpt>
      <trkpt lat="41.207215" lon="1.521591">
        <ele>57.8</ele>
        <time>1970-01-01T02:40:03.000Z</time>
      </trkpt>
      <trkpt lat="41.207257" lon="1.521618">
        <ele>58</ele>
        <time>1970-01-01T02:40:04.000Z</time>
      </trkpt>
      <trkpt lat="41.207296" lon="1.521644">
        <ele>58.3</ele>
        <time>1970-01-01T02:40:05.000Z</time>
      </trkpt>
      <trkpt lat="41.207335" lon="1.521671">
        <ele>58.5</ele>
        <time>1970-01-01T02:40:06.000Z</time>
      </trkpt>
      <trkpt lat="41.207373" lon="1.521703">
        <ele>58.8</ele>
        <time>1970-01-01T02:40:07.000Z</time>
      </trkpt>
      <trkpt lat="41.207407" lon="1.521735">
        <ele>59</ele>
        <time>1970-01-01T02:40:08.000Z</time>
      </trkpt>
      <trkpt lat="41.207446" lon="1.521765">
        <ele>59.2</ele>
        <time>1970-01-01T02:40:09.000Z</time>
      </trkpt>
      <trkpt lat="41.207488" lon="1.521791">
        <ele>59.5</ele>
        <time>1970-01-01T02:40:10.000Z</time>
      </trkpt>
      <trkpt lat="41.207519" lon="1.521817">
        <ele>59.7</ele>
        <time>1970-01-01T02:40:11.000Z</time>
      </trkpt>
      <trkpt lat="41.207555" lon="1.521843">
        <ele>59.9</ele>
        <time>1970-01-01T02:40:12.000Z</time>
      </trkpt>
      <trkpt lat="41.207583" lon="1.521871">
        <ele>60</ele>
        <time>1970-01-01T02:40:13.000Z</time>
      </trkpt>
      <trkpt lat="41.207616" lon="1.521896">
        <ele>60.1</ele>
        <time>1970-01-01T02:40:14.000Z</time>
      </trkpt>
      <trkpt lat="41.207674" lon="1.521938">
        <ele>60.3</ele>
        <time>1970-01-01T02:40:15.000Z</time>
      </trkpt>
      <trkpt lat="41.207698" lon="1.521974">
        <ele>60.4</ele>
        <time>1970-01-01T02:40:16.000Z</time>
      </trkpt>
      <trkpt lat="41.207723" lon="1.522012">
        <ele>60.5</ele>
        <time>1970-01-01T02:40:17.000Z</time>
      </trkpt>
      <trkpt lat="41.20775" lon="1.522044">
        <ele>60.6</ele>
        <time>1970-01-01T02:40:18.000Z</time>
      </trkpt>
      <trkpt lat="41.207769" lon="1.522094">
        <ele>60.7</ele>
        <time>1970-01-01T02:40:19.000Z</time>
      </trkpt>
      <trkpt lat="41.207786" lon="1.522156">
        <ele>60.8</ele>
        <time>1970-01-01T02:40:20.000Z</time>
      </trkpt>
      <trkpt lat="41.207802" lon="1.522212">
        <ele>61</ele>
        <time>1970-01-01T02:40:21.000Z</time>
      </trkpt>
      <trkpt lat="41.207826" lon="1.522262">
        <ele>61.2</ele>
        <time>1970-01-01T02:40:22.000Z</time>
      </trkpt>
      <trkpt lat="41.207869" lon="1.522308">
        <ele>61.3</ele>
        <time>1970-01-01T02:40:23.000Z</time>
      </trkpt>
      <trkpt lat="41.207911" lon="1.522337">
        <ele>61.4</ele>
        <time>1970-01-01T02:40:24.000Z</time>
      </trkpt>
      <trkpt lat="41.20796" lon="1.522347">
        <ele>61.5</ele>
        <time>1970-01-01T02:40:25.000Z</time>
      </trkpt>
      <trkpt lat="41.208004" lon="1.522347">
        <ele>61.6</ele>
        <time>1970-01-01T02:40:26.000Z</time>
      </trkpt>
      <trkpt lat="41.20805" lon="1.522352">
        <ele>61.9</ele>
        <time>1970-01-01T02:40:27.000Z</time>
      </trkpt>
      <trkpt lat="41.208102" lon="1.522348">
        <ele>62</ele>
        <time>1970-01-01T02:40:28.000Z</time>
      </trkpt>
      <trkpt lat="41.208157" lon="1.522354">
        <ele>62</ele>
        <time>1970-01-01T02:40:29.000Z</time>
      </trkpt>
      <trkpt lat="41.208206" lon="1.522367">
        <ele>62</ele>
        <time>1970-01-01T02:40:30.000Z</time>
      </trkpt>
      <trkpt lat="41.208255" lon="1.522388">
        <ele>62</ele>
        <time>1970-01-01T02:40:31.000Z</time>
      </trkpt>
      <trkpt lat="41.208298" lon="1.522418">
        <ele>62</ele>
        <time>1970-01-01T02:40:32.000Z</time>
      </trkpt>
      <trkpt lat="41.208342" lon="1.522451">
        <ele>62</ele>
        <time>1970-01-01T02:40:33.000Z</time>
      </trkpt>
      <trkpt lat="41.208381" lon="1.522474">
        <ele>62</ele>
        <time>1970-01-01T02:40:34.000Z</time>
      </trkpt>
      <trkpt lat="41.208423" lon="1.5225">
        <ele>61.9</ele>
        <time>1970-01-01T02:40:35.000Z</time>
      </trkpt>
      <trkpt lat="41.20846" lon="1.522526">
        <ele>61.9</ele>
        <time>1970-01-01T02:40:36.000Z</time>
      </trkpt>
      <trkpt lat="41.20851" lon="1.522554">
        <ele>61.9</ele>
        <time>1970-01-01T02:40:37.000Z</time>
      </trkpt>
      <trkpt lat="41.208556" lon="1.522588">
        <ele>61.8</ele>
        <time>1970-01-01T02:40:38.000Z</time>
      </trkpt>
      <trkpt lat="41.208602" lon="1.522628">
        <ele>61.8</ele>
        <time>1970-01-01T02:40:39.000Z</time>
      </trkpt>
      <trkpt lat="41.208647" lon="1.522667">
        <ele>61.7</ele>
        <time>1970-01-01T02:40:40.000Z</time>
      </trkpt>
      <trkpt lat="41.208689" lon="1.522704">
        <ele>61.6</ele>
        <time>1970-01-01T02:40:41.000Z</time>
      </trkpt>
      <trkpt lat="41.208737" lon="1.522739">
        <ele>61.5</ele>
        <time>1970-01-01T02:40:42.000Z</time>
      </trkpt>
      <trkpt lat="41.208788" lon="1.522774">
        <ele>61.4</ele>
        <time>1970-01-01T02:40:43.000Z</time>
      </trkpt>
      <trkpt lat="41.208832" lon="1.522806">
        <ele>61.3</ele>
        <time>1970-01-01T02:40:44.000Z</time>
      </trkpt>
      <trkpt lat="41.208873" lon="1.522838">
        <ele>61.3</ele>
        <time>1970-01-01T02:40:45.000Z</time>
      </trkpt>
      <trkpt lat="41.208924" lon="1.522873">
        <ele>61.2</ele>
        <time>1970-01-01T02:40:46.000Z</time>
      </trkpt>
      <trkpt lat="41.208972" lon="1.522906">
        <ele>61.1</ele>
        <time>1970-01-01T02:40:47.000Z</time>
      </trkpt>
      <trkpt lat="41.209016" lon="1.522937">
        <ele>61</ele>
        <time>1970-01-01T02:40:48.000Z</time>
      </trkpt>
      <trkpt lat="41.20906" lon="1.522972">
        <ele>60.8</ele>
        <time>1970-01-01T02:40:49.000Z</time>
      </trkpt>
      <trkpt lat="41.209101" lon="1.523006">
        <ele>60.7</ele>
        <time>1970-01-01T02:40:50.000Z</time>
      </trkpt>
      <trkpt lat="41.209143" lon="1.523045">
        <ele>60.6</ele>
        <time>1970-01-01T02:40:51.000Z</time>
      </trkpt>
      <trkpt lat="41.209186" lon="1.523078">
        <ele>60.4</ele>
        <time>1970-01-01T02:40:52.000Z</time>
      </trkpt>
      <trkpt lat="41.209235" lon="1.523122">
        <ele>60.2</ele>
        <time>1970-01-01T02:40:53.000Z</time>
      </trkpt>
      <trkpt lat="41.209284" lon="1.523168">
        <ele>60.1</ele>
        <time>1970-01-01T02:40:54.000Z</time>
      </trkpt>
      <trkpt lat="41.209333" lon="1.523207">
        <ele>59.9</ele>
        <time>1970-01-01T02:40:55.000Z</time>
      </trkpt>
      <trkpt lat="41.209378" lon="1.52324">
        <ele>59.8</ele>
        <time>1970-01-01T02:40:56.000Z</time>
      </trkpt>
      <trkpt lat="41.20943" lon="1.523278">
        <ele>59.7</ele>
        <time>1970-01-01T02:40:57.000Z</time>
      </trkpt>
      <trkpt lat="41.209478" lon="1.523318">
        <ele>59.6</ele>
        <time>1970-01-01T02:40:58.000Z</time>
      </trkpt>
      <trkpt lat="41.209536" lon="1.523357">
        <ele>59.4</ele>
        <time>1970-01-01T02:40:59.000Z</time>
      </trkpt>
      <trkpt lat="41.209593" lon="1.523386">
        <ele>59.3</ele>
        <time>1970-01-01T02:41:00.000Z</time>
      </trkpt>
      <trkpt lat="41.209646" lon="1.523422">
        <ele>59.2</ele>
        <time>1970-01-01T02:41:01.000Z</time>
      </trkpt>
      <trkpt lat="41.209697" lon="1.523458">
        <ele>59</ele>
        <time>1970-01-01T02:41:02.000Z</time>
      </trkpt>
      <trkpt lat="41.209741" lon="1.523498">
        <ele>58.9</ele>
        <time>1970-01-01T02:41:03.000Z</time>
      </trkpt>
      <trkpt lat="41.209787" lon="1.523541">
        <ele>58.8</ele>
        <time>1970-01-01T02:41:04.000Z</time>
      </trkpt>
      <trkpt lat="41.209836" lon="1.523599">
        <ele>58.6</ele>
        <time>1970-01-01T02:41:05.000Z</time>
      </trkpt>
      <trkpt lat="41.209881" lon="1.523656">
        <ele>58.5</ele>
        <time>1970-01-01T02:41:06.000Z</time>
      </trkpt>
      <trkpt lat="41.209923" lon="1.523702">
        <ele>58.4</ele>
        <time>1970-01-01T02:41:07.000Z</time>
      </trkpt>
      <trkpt lat="41.209964" lon="1.523752">
        <ele>58.3</ele>
        <time>1970-01-01T02:41:08.000Z</time>
      </trkpt>
      <trkpt lat="41.210009" lon="1.523805">
        <ele>58.2</ele>
        <time>1970-01-01T02:41:09.000Z</time>
      </trkpt>
      <trkpt lat="41.210058" lon="1.523852">
        <ele>58.1</ele>
        <time>1970-01-01T02:41:10.000Z</time>
      </trkpt>
      <trkpt lat="41.210113" lon="1.523897">
        <ele>57.9</ele>
        <time>1970-01-01T02:41:11.000Z</time>
      </trkpt>
      <trkpt lat="41.21016" lon="1.523944">
        <ele>57.8</ele>
        <time>1970-01-01T02:41:12.000Z</time>
      </trkpt>
      <trkpt lat="41.210205" lon="1.523991">
        <ele>57.7</ele>
        <time>1970-01-01T02:41:13.000Z</time>
      </trkpt>
      <trkpt lat="41.210256" lon="1.524045">
        <ele>57.6</ele>
        <time>1970-01-01T02:41:14.000Z</time>
      </trkpt>
      <trkpt lat="41.210301" lon="1.524095">
        <ele>57.5</ele>
        <time>1970-01-01T02:41:15.000Z</time>
      </trkpt>
      <trkpt lat="41.210351" lon="1.52415">
        <ele>57.3</ele>
        <time>1970-01-01T02:41:16.000Z</time>
      </trkpt>
      <trkpt lat="41.210398" lon="1.524203">
        <ele>57.2</ele>
        <time>1970-01-01T02:41:17.000Z</time>
      </trkpt>
      <trkpt lat="41.210443" lon="1.524253">
        <ele>57.1</ele>
        <time>1970-01-01T02:41:18.000Z</time>
      </trkpt>
      <trkpt lat="41.210488" lon="1.524299">
        <ele>57</ele>
        <time>1970-01-01T02:41:19.000Z</time>
      </trkpt>
      <trkpt lat="41.210531" lon="1.524345">
        <ele>56.9</ele>
        <time>1970-01-01T02:41:20.000Z</time>
      </trkpt>
      <trkpt lat="41.210584" lon="1.524387">
        <ele>56.8</ele>
        <time>1970-01-01T02:41:21.000Z</time>
      </trkpt>
      <trkpt lat="41.210642" lon="1.524425">
        <ele>56.7</ele>
        <time>1970-01-01T02:41:22.000Z</time>
      </trkpt>
      <trkpt lat="41.210693" lon="1.524455">
        <ele>56.6</ele>
        <time>1970-01-01T02:41:23.000Z</time>
      </trkpt>
      <trkpt lat="41.210761" lon="1.52448">
        <ele>56.5</ele>
        <time>1970-01-01T02:41:24.000Z</time>
      </trkpt>
      <trkpt lat="41.210824" lon="1.5245">
        <ele>56.3</ele>
        <time>1970-01-01T02:41:25.000Z</time>
      </trkpt>
      <trkpt lat="41.210891" lon="1.524521">
        <ele>56.2</ele>
        <time>1970-01-01T02:41:26.000Z</time>
      </trkpt>
      <trkpt lat="41.210961" lon="1.524539">
        <ele>56.1</ele>
        <time>1970-01-01T02:41:27.000Z</time>
      </trkpt>
      <trkpt lat="41.211033" lon="1.524554">
        <ele>55.9</ele>
        <time>1970-01-01T02:41:28.000Z</time>
      </trkpt>
      <trkpt lat="41.211099" lon="1.524574">
        <ele>55.8</ele>
        <time>1970-01-01T02:41:29.000Z</time>
      </trkpt>
      <trkpt lat="41.211165" lon="1.524592">
        <ele>55.6</ele>
        <time>1970-01-01T02:41:30.000Z</time>
      </trkpt>
      <trkpt lat="41.211229" lon="1.524619">
        <ele>55.3</ele>
        <time>1970-01-01T02:41:31.000Z</time>
      </trkpt>
      <trkpt lat="41.211298" lon="1.524648">
        <ele>55.1</ele>
        <time>1970-01-01T02:41:32.000Z</time>
      </trkpt>
      <trkpt lat="41.211371" lon="1.524688">
        <ele>54.8</ele>
        <time>1970-01-01T02:41:33.000Z</time>
      </trkpt>
      <trkpt lat="41.211444" lon="1.524742">
        <ele>54.5</ele>
        <time>1970-01-01T02:41:34.000Z</time>
      </trkpt>
      <trkpt lat="41.211512" lon="1.524804">
        <ele>54.2</ele>
        <time>1970-01-01T02:41:35.000Z</time>
      </trkpt>
      <trkpt lat="41.211584" lon="1.524864">
        <ele>53.9</ele>
        <time>1970-01-01T02:41:36.000Z</time>
      </trkpt>
      <trkpt lat="41.211658" lon="1.524921">
        <ele>53.6</ele>
        <time>1970-01-01T02:41:37.000Z</time>
      </trkpt>
      <trkpt lat="41.211732" lon="1.524981">
        <ele>53.3</ele>
        <time>1970-01-01T02:41:38.000Z</time>
      </trkpt>
      <trkpt lat="41.211807" lon="1.525038">
        <ele>53</ele>
        <time>1970-01-01T02:41:39.000Z</time>
      </trkpt>
      <trkpt lat="41.211883" lon="1.525093">
        <ele>52.6</ele>
        <time>1970-01-01T02:41:40.000Z</time>
      </trkpt>
      <trkpt lat="41.211961" lon="1.525144">
        <ele>52.3</ele>
        <time>1970-01-01T02:41:41.000Z</time>
      </trkpt>
      <trkpt lat="41.212039" lon="1.525195">
        <ele>51.9</ele>
        <time>1970-01-01T02:41:42.000Z</time>
      </trkpt>
      <trkpt lat="41.212118" lon="1.52525">
        <ele>50.9</ele>
        <time>1970-01-01T02:41:43.000Z</time>
      </trkpt>
      <trkpt lat="41.212197" lon="1.525311">
        <ele>50.6</ele>
        <time>1970-01-01T02:41:44.000Z</time>
      </trkpt>
      <trkpt lat="41.212273" lon="1.525378">
        <ele>50.3</ele>
        <time>1970-01-01T02:41:45.000Z</time>
      </trkpt>
      <trkpt lat="41.21234" lon="1.525454">
        <ele>50.1</ele>
        <time>1970-01-01T02:41:46.000Z</time>
      </trkpt>
      <trkpt lat="41.212403" lon="1.525534">
        <ele>49.9</ele>
        <time>1970-01-01T02:41:47.000Z</time>
      </trkpt>
      <trkpt lat="41.212466" lon="1.525613">
        <ele>49.6</ele>
        <time>1970-01-01T02:41:48.000Z</time>
      </trkpt>
      <trkpt lat="41.212526" lon="1.525697">
        <ele>49.4</ele>
        <time>1970-01-01T02:41:49.000Z</time>
      </trkpt>
      <trkpt lat="41.212585" lon="1.525778">
        <ele>49.1</ele>
        <time>1970-01-01T02:41:50.000Z</time>
      </trkpt>
      <trkpt lat="41.212645" lon="1.525857">
        <ele>48.9</ele>
        <time>1970-01-01T02:41:51.000Z</time>
      </trkpt>
      <trkpt lat="41.212703" lon="1.525937">
        <ele>48.7</ele>
        <time>1970-01-01T02:41:52.000Z</time>
      </trkpt>
      <trkpt lat="41.212756" lon="1.52602">
        <ele>48.5</ele>
        <time>1970-01-01T02:41:53.000Z</time>
      </trkpt>
      <trkpt lat="41.212804" lon="1.526103">
        <ele>48.2</ele>
        <time>1970-01-01T02:41:54.000Z</time>
      </trkpt>
      <trkpt lat="41.212855" lon="1.52618">
        <ele>48</ele>
        <time>1970-01-01T02:41:55.000Z</time>
      </trkpt>
      <trkpt lat="41.212906" lon="1.526258">
        <ele>47.7</ele>
        <time>1970-01-01T02:41:56.000Z</time>
      </trkpt>
      <trkpt lat="41.21296" lon="1.526334">
        <ele>47.5</ele>
        <time>1970-01-01T02:41:57.000Z</time>
      </trkpt>
      <trkpt lat="41.213021" lon="1.5264">
        <ele>47.3</ele>
        <time>1970-01-01T02:41:58.000Z</time>
      </trkpt>
      <trkpt lat="41.213082" lon="1.52647">
        <ele>47</ele>
        <time>1970-01-01T02:41:59.000Z</time>
      </trkpt>
      <trkpt lat="41.213143" lon="1.526539">
        <ele>46.8</ele>
        <time>1970-01-01T02:42:00.000Z</time>
      </trkpt>
      <trkpt lat="41.213205" lon="1.526608">
        <ele>46.4</ele>
        <time>1970-01-01T02:42:01.000Z</time>
      </trkpt>
      <trkpt lat="41.213264" lon="1.526681">
        <ele>46.1</ele>
        <time>1970-01-01T02:42:02.000Z</time>
      </trkpt>
      <trkpt lat="41.213325" lon="1.526752">
        <ele>45.9</ele>
        <time>1970-01-01T02:42:03.000Z</time>
      </trkpt>
      <trkpt lat="41.213383" lon="1.526824">
        <ele>45.7</ele>
        <time>1970-01-01T02:42:04.000Z</time>
      </trkpt>
      <trkpt lat="41.213441" lon="1.526895">
        <ele>45.4</ele>
        <time>1970-01-01T02:42:05.000Z</time>
      </trkpt>
      <trkpt lat="41.213498" lon="1.526963">
        <ele>45</ele>
        <time>1970-01-01T02:42:06.000Z</time>
      </trkpt>
      <trkpt lat="41.213556" lon="1.52703">
        <ele>44.7</ele>
        <time>1970-01-01T02:42:07.000Z</time>
      </trkpt>
      <trkpt lat="41.213614" lon="1.527095">
        <ele>44.7</ele>
        <time>1970-01-01T02:42:08.000Z</time>
      </trkpt>
      <trkpt lat="41.21367" lon="1.527161">
        <ele>44.7</ele>
        <time>1970-01-01T02:42:09.000Z</time>
      </trkpt>
      <trkpt lat="41.213722" lon="1.52723">
        <ele>44.7</ele>
        <time>1970-01-01T02:42:10.000Z</time>
      </trkpt>
      <trkpt lat="41.213773" lon="1.527297">
        <ele>44.6</ele>
        <time>1970-01-01T02:42:11.000Z</time>
      </trkpt>
      <trkpt lat="41.213825" lon="1.527364">
        <ele>44.5</ele>
        <time>1970-01-01T02:42:12.000Z</time>
      </trkpt>
      <trkpt lat="41.213876" lon="1.527428">
        <ele>44.4</ele>
        <time>1970-01-01T02:42:13.000Z</time>
      </trkpt>
      <trkpt lat="41.213925" lon="1.527492">
        <ele>44.3</ele>
        <time>1970-01-01T02:42:14.000Z</time>
      </trkpt>
      <trkpt lat="41.213968" lon="1.527553">
        <ele>44.2</ele>
        <time>1970-01-01T02:42:15.000Z</time>
      </trkpt>
      <trkpt lat="41.214001" lon="1.527608">
        <ele>44.2</ele>
        <time>1970-01-01T02:42:16.000Z</time>
      </trkpt>
      <trkpt lat="41.214023" lon="1.527659">
        <ele>44.2</ele>
        <time>1970-01-01T02:42:17.000Z</time>
      </trkpt>
      <trkpt lat="41.214048" lon="1.527711">
        <ele>44.2</ele>
        <time>1970-01-01T02:42:18.000Z</time>
      </trkpt>
      <trkpt lat="41.214064" lon="1.527772">
        <ele>44.2</ele>
        <time>1970-01-01T02:42:19.000Z</time>
      </trkpt>
      <trkpt lat="41.214076" lon="1.527833">
        <ele>44.2</ele>
        <time>1970-01-01T02:42:20.000Z</time>
      </trkpt>
      <trkpt lat="41.2141" lon="1.527882">
        <ele>44.2</ele>
        <time>1970-01-01T02:42:21.000Z</time>
      </trkpt>
      <trkpt lat="41.214144" lon="1.527919">
        <ele>44.2</ele>
        <time>1970-01-01T02:42:22.000Z</time>
      </trkpt>
      <trkpt lat="41.214175" lon="1.527944">
        <ele>44.2</ele>
        <time>1970-01-01T02:42:23.000Z</time>
      </trkpt>
      <trkpt lat="41.214184" lon="1.527895">
        <ele>44.2</ele>
        <time>1970-01-01T02:42:24.000Z</time>
      </trkpt>
      <trkpt lat="41.214195" lon="1.527825">
        <ele>44.2</ele>
        <time>1970-01-01T02:42:25.000Z</time>
      </trkpt>
      <trkpt lat="41.214217" lon="1.527755">
        <ele>44.2</ele>
        <time>1970-01-01T02:42:26.000Z</time>
      </trkpt>
      <trkpt lat="41.214248" lon="1.527698">
        <ele>44.3</ele>
        <time>1970-01-01T02:42:27.000Z</time>
      </trkpt>
      <trkpt lat="41.214274" lon="1.527632">
        <ele>44.3</ele>
        <time>1970-01-01T02:42:28.000Z</time>
      </trkpt>
      <trkpt lat="41.214304" lon="1.527574">
        <ele>44.3</ele>
        <time>1970-01-01T02:42:29.000Z</time>
      </trkpt>
      <trkpt lat="41.214333" lon="1.527517">
        <ele>44.3</ele>
        <time>1970-01-01T02:42:30.000Z</time>
      </trkpt>
      <trkpt lat="41.214356" lon="1.527455">
        <ele>44.3</ele>
        <time>1970-01-01T02:42:31.000Z</time>
      </trkpt>
      <trkpt lat="41.214378" lon="1.527395">
        <ele>44.3</ele>
        <time>1970-01-01T02:42:32.000Z</time>
      </trkpt>
      <trkpt lat="41.214397" lon="1.52733">
        <ele>44.3</ele>
        <time>1970-01-01T02:42:33.000Z</time>
      </trkpt>
      <trkpt lat="41.214418" lon="1.527265">
        <ele>44.4</ele>
        <time>1970-01-01T02:42:34.000Z</time>
      </trkpt>
      <trkpt lat="41.214452" lon="1.527202">
        <ele>44.5</ele>
        <time>1970-01-01T02:42:35.000Z</time>
      </trkpt>
      <trkpt lat="41.214483" lon="1.527149">
        <ele>44.6</ele>
        <time>1970-01-01T02:42:36.000Z</time>
      </trkpt>
      <trkpt lat="41.214516" lon="1.527093">
        <ele>44.7</ele>
        <time>1970-01-01T02:42:37.000Z</time>
      </trkpt>
      <trkpt lat="41.214551" lon="1.527034">
        <ele>44.8</ele>
        <time>1970-01-01T02:42:38.000Z</time>
      </trkpt>
      <trkpt lat="41.214579" lon="1.526965">
        <ele>44.9</ele>
        <time>1970-01-01T02:42:39.000Z</time>
      </trkpt>
      <trkpt lat="41.21461" lon="1.526905">
        <ele>45</ele>
        <time>1970-01-01T02:42:40.000Z</time>
      </trkpt>
      <trkpt lat="41.214654" lon="1.526841">
        <ele>45.3</ele>
        <time>1970-01-01T02:42:41.000Z</time>
      </trkpt>
      <trkpt lat="41.214676" lon="1.526794">
        <ele>45.5</ele>
        <time>1970-01-01T02:42:42.000Z</time>
      </trkpt>
      <trkpt lat="41.214713" lon="1.526738">
        <ele>45.7</ele>
        <time>1970-01-01T02:42:43.000Z</time>
      </trkpt>
      <trkpt lat="41.21475" lon="1.526675">
        <ele>46</ele>
        <time>1970-01-01T02:42:44.000Z</time>
      </trkpt>
      <trkpt lat="41.214779" lon="1.52662">
        <ele>46.2</ele>
        <time>1970-01-01T02:42:45.000Z</time>
      </trkpt>
      <trkpt lat="41.214809" lon="1.526573">
        <ele>46.4</ele>
        <time>1970-01-01T02:42:46.000Z</time>
      </trkpt>
      <trkpt lat="41.214845" lon="1.526514">
        <ele>46.6</ele>
        <time>1970-01-01T02:42:47.000Z</time>
      </trkpt>
      <trkpt lat="41.214886" lon="1.526457">
        <ele>46.8</ele>
        <time>1970-01-01T02:42:48.000Z</time>
      </trkpt>
      <trkpt lat="41.214922" lon="1.526403">
        <ele>47</ele>
        <time>1970-01-01T02:42:49.000Z</time>
      </trkpt>
      <trkpt lat="41.21496" lon="1.526357">
        <ele>47.2</ele>
        <time>1970-01-01T02:42:50.000Z</time>
      </trkpt>
      <trkpt lat="41.214998" lon="1.526316">
        <ele>47.3</ele>
        <time>1970-01-01T02:42:51.000Z</time>
      </trkpt>
      <trkpt lat="41.215052" lon="1.526241">
        <ele>47.5</ele>
        <time>1970-01-01T02:42:53.000Z</time>
      </trkpt>
      <trkpt lat="41.215086" lon="1.526204">
        <ele>47.6</ele>
        <time>1970-01-01T02:42:54.000Z</time>
      </trkpt>
      <trkpt lat="41.21512" lon="1.526179">
        <ele>47.6</ele>
        <time>1970-01-01T02:42:55.000Z</time>
      </trkpt>
      <trkpt lat="41.21516" lon="1.526136">
        <ele>47.7</ele>
        <time>1970-01-01T02:42:56.000Z</time>
      </trkpt>
      <trkpt lat="41.215199" lon="1.5261">
        <ele>47.7</ele>
        <time>1970-01-01T02:42:57.000Z</time>
      </trkpt>
      <trkpt lat="41.215248" lon="1.52606">
        <ele>47.8</ele>
        <time>1970-01-01T02:42:58.000Z</time>
      </trkpt>
      <trkpt lat="41.215291" lon="1.526038">
        <ele>47.8</ele>
        <time>1970-01-01T02:42:59.000Z</time>
      </trkpt>
      <trkpt lat="41.215334" lon="1.52601">
        <ele>47.9</ele>
        <time>1970-01-01T02:43:00.000Z</time>
      </trkpt>
      <trkpt lat="41.215383" lon="1.525976">
        <ele>47.9</ele>
        <time>1970-01-01T02:43:01.000Z</time>
      </trkpt>
      <trkpt lat="41.215422" lon="1.525951">
        <ele>47.9</ele>
        <time>1970-01-01T02:43:02.000Z</time>
      </trkpt>
      <trkpt lat="41.215472" lon="1.525936">
        <ele>47.9</ele>
        <time>1970-01-01T02:43:03.000Z</time>
      </trkpt>
      <trkpt lat="41.215518" lon="1.525912">
        <ele>47.9</ele>
        <time>1970-01-01T02:43:04.000Z</time>
      </trkpt>
      <trkpt lat="41.215562" lon="1.525895">
        <ele>47.9</ele>
        <time>1970-01-01T02:43:05.000Z</time>
      </trkpt>
      <trkpt lat="41.215618" lon="1.525878">
        <ele>47.9</ele>
        <time>1970-01-01T02:43:07.000Z</time>
      </trkpt>
      <trkpt lat="41.215661" lon="1.525874">
        <ele>47.9</ele>
        <time>1970-01-01T02:43:08.000Z</time>
      </trkpt>
      <trkpt lat="41.215714" lon="1.525867">
        <ele>48</ele>
        <time>1970-01-01T02:43:09.000Z</time>
      </trkpt>
      <trkpt lat="41.215765" lon="1.525866">
        <ele>48.4</ele>
        <time>1970-01-01T02:43:10.000Z</time>
      </trkpt>
      <trkpt lat="41.215813" lon="1.525853">
        <ele>48.4</ele>
        <time>1970-01-01T02:43:11.000Z</time>
      </trkpt>
      <trkpt lat="41.215853" lon="1.525828">
        <ele>48.4</ele>
        <time>1970-01-01T02:43:12.000Z</time>
      </trkpt>
      <trkpt lat="41.215893" lon="1.525775">
        <ele>48.5</ele>
        <time>1970-01-01T02:43:13.000Z</time>
      </trkpt>
      <trkpt lat="41.215892" lon="1.525706">
        <ele>48.5</ele>
        <time>1970-01-01T02:43:14.000Z</time>
      </trkpt>
      <trkpt lat="41.215903" lon="1.525644">
        <ele>48.7</ele>
        <time>1970-01-01T02:43:15.000Z</time>
      </trkpt>
      <trkpt lat="41.215916" lon="1.525577">
        <ele>48.8</ele>
        <time>1970-01-01T02:43:16.000Z</time>
      </trkpt>
      <trkpt lat="41.215929" lon="1.525521">
        <ele>48.9</ele>
        <time>1970-01-01T02:43:17.000Z</time>
      </trkpt>
      <trkpt lat="41.215949" lon="1.525463">
        <ele>49.4</ele>
        <time>1970-01-01T02:43:18.000Z</time>
      </trkpt>
      <trkpt lat="41.215963" lon="1.525402">
        <ele>49.6</ele>
        <time>1970-01-01T02:43:19.000Z</time>
      </trkpt>
      <trkpt lat="41.215995" lon="1.525361">
        <ele>49.8</ele>
        <time>1970-01-01T02:43:20.000Z</time>
      </trkpt>
      <trkpt lat="41.216026" lon="1.525331">
        <ele>50</ele>
        <time>1970-01-01T02:43:21.000Z</time>
      </trkpt>
      <trkpt lat="41.216066" lon="1.525308">
        <ele>50.1</ele>
        <time>1970-01-01T02:43:22.000Z</time>
      </trkpt>
      <trkpt lat="41.216113" lon="1.525282">
        <ele>50.3</ele>
        <time>1970-01-01T02:43:23.000Z</time>
      </trkpt>
      <trkpt lat="41.216155" lon="1.525244">
        <ele>50.5</ele>
        <time>1970-01-01T02:43:24.000Z</time>
      </trkpt>
      <trkpt lat="41.216195" lon="1.52521">
        <ele>50.7</ele>
        <time>1970-01-01T02:43:25.000Z</time>
      </trkpt>
      <trkpt lat="41.21624" lon="1.525188">
        <ele>50.8</ele>
        <time>1970-01-01T02:43:26.000Z</time>
      </trkpt>
      <trkpt lat="41.216285" lon="1.525166">
        <ele>51</ele>
        <time>1970-01-01T02:43:27.000Z</time>
      </trkpt>
      <trkpt lat="41.216326" lon="1.525148">
        <ele>51.1</ele>
        <time>1970-01-01T02:43:28.000Z</time>
      </trkpt>
      <trkpt lat="41.216366" lon="1.525132">
        <ele>51.2</ele>
        <time>1970-01-01T02:43:29.000Z</time>
      </trkpt>
      <trkpt lat="41.216404" lon="1.525112">
        <ele>51.5</ele>
        <time>1970-01-01T02:43:30.000Z</time>
      </trkpt>
      <trkpt lat="41.21644" lon="1.525089">
        <ele>51.6</ele>
        <time>1970-01-01T02:43:31.000Z</time>
      </trkpt>
      <trkpt lat="41.216477" lon="1.525053">
        <ele>51.8</ele>
        <time>1970-01-01T02:43:32.000Z</time>
      </trkpt>
      <trkpt lat="41.216518" lon="1.525028">
        <ele>52</ele>
        <time>1970-01-01T02:43:33.000Z</time>
      </trkpt>
      <trkpt lat="41.216561" lon="1.525">
        <ele>52.2</ele>
        <time>1970-01-01T02:43:34.000Z</time>
      </trkpt>
      <trkpt lat="41.216602" lon="1.524977">
        <ele>52.5</ele>
        <time>1970-01-01T02:43:35.000Z</time>
      </trkpt>
      <trkpt lat="41.21665" lon="1.524945">
        <ele>52.7</ele>
        <time>1970-01-01T02:43:36.000Z</time>
      </trkpt>
      <trkpt lat="41.216691" lon="1.524921">
        <ele>52.9</ele>
        <time>1970-01-01T02:43:37.000Z</time>
      </trkpt>
      <trkpt lat="41.216729" lon="1.524895">
        <ele>53.1</ele>
        <time>1970-01-01T02:43:38.000Z</time>
      </trkpt>
      <trkpt lat="41.216777" lon="1.524871">
        <ele>53.4</ele>
        <time>1970-01-01T02:43:39.000Z</time>
      </trkpt>
      <trkpt lat="41.216822" lon="1.524843">
        <ele>53.6</ele>
        <time>1970-01-01T02:43:40.000Z</time>
      </trkpt>
      <trkpt lat="41.216861" lon="1.524814">
        <ele>53.9</ele>
        <time>1970-01-01T02:43:41.000Z</time>
      </trkpt>
      <trkpt lat="41.216898" lon="1.524795">
        <ele>54</ele>
        <time>1970-01-01T02:43:42.000Z</time>
      </trkpt>
      <trkpt lat="41.216934" lon="1.524768">
        <ele>54.3</ele>
        <time>1970-01-01T02:43:43.000Z</time>
      </trkpt>
      <trkpt lat="41.216971" lon="1.524739">
        <ele>54.5</ele>
        <time>1970-01-01T02:43:44.000Z</time>
      </trkpt>
      <trkpt lat="41.217002" lon="1.524715">
        <ele>54.7</ele>
        <time>1970-01-01T02:43:45.000Z</time>
      </trkpt>
      <trkpt lat="41.217048" lon="1.524694">
        <ele>54.9</ele>
        <time>1970-01-01T02:43:46.000Z</time>
      </trkpt>
      <trkpt lat="41.217081" lon="1.524667">
        <ele>55.1</ele>
        <time>1970-01-01T02:43:47.000Z</time>
      </trkpt>
      <trkpt lat="41.217119" lon="1.524651">
        <ele>55.4</ele>
        <time>1970-01-01T02:43:48.000Z</time>
      </trkpt>
      <trkpt lat="41.217153" lon="1.524632">
        <ele>55.6</ele>
        <time>1970-01-01T02:43:49.000Z</time>
      </trkpt>
      <trkpt lat="41.217187" lon="1.524612">
        <ele>55.8</ele>
        <time>1970-01-01T02:43:50.000Z</time>
      </trkpt>
      <trkpt lat="41.217228" lon="1.524586">
        <ele>56.1</ele>
        <time>1970-01-01T02:43:51.000Z</time>
      </trkpt>
      <trkpt lat="41.217267" lon="1.524555">
        <ele>56.4</ele>
        <time>1970-01-01T02:43:52.000Z</time>
      </trkpt>
      <trkpt lat="41.2173" lon="1.52455">
        <ele>56.6</ele>
        <time>1970-01-01T02:43:53.000Z</time>
      </trkpt>
      <trkpt lat="41.217329" lon="1.524568">
        <ele>56.8</ele>
        <time>1970-01-01T02:43:54.000Z</time>
      </trkpt>
      <trkpt lat="41.217339" lon="1.524617">
        <ele>56.7</ele>
        <time>1970-01-01T02:43:55.000Z</time>
      </trkpt>
      <trkpt lat="41.217357" lon="1.524667">
        <ele>56.7</ele>
        <time>1970-01-01T02:43:56.000Z</time>
      </trkpt>
      <trkpt lat="41.217373" lon="1.524725">
        <ele>56.7</ele>
        <time>1970-01-01T02:43:57.000Z</time>
      </trkpt>
      <trkpt lat="41.217386" lon="1.524779">
        <ele>56.7</ele>
        <time>1970-01-01T02:43:58.000Z</time>
      </trkpt>
      <trkpt lat="41.217392" lon="1.524835">
        <ele>56.7</ele>
        <time>1970-01-01T02:43:59.000Z</time>
      </trkpt>
      <trkpt lat="41.217388" lon="1.524888">
        <ele>56.7</ele>
        <time>1970-01-01T02:44:00.000Z</time>
      </trkpt>
      <trkpt lat="41.217397" lon="1.524946">
        <ele>56.8</ele>
        <time>1970-01-01T02:44:01.000Z</time>
      </trkpt>
      <trkpt lat="41.217426" lon="1.525006">
        <ele>56.8</ele>
        <time>1970-01-01T02:44:02.000Z</time>
      </trkpt>
      <trkpt lat="41.217448" lon="1.525062">
        <ele>56.9</ele>
        <time>1970-01-01T02:44:03.000Z</time>
      </trkpt>
      <trkpt lat="41.217484" lon="1.525125">
        <ele>56.9</ele>
        <time>1970-01-01T02:44:04.000Z</time>
      </trkpt>
      <trkpt lat="41.217504" lon="1.525177">
        <ele>57</ele>
        <time>1970-01-01T02:44:05.000Z</time>
      </trkpt>
      <trkpt lat="41.217517" lon="1.525238">
        <ele>57</ele>
        <time>1970-01-01T02:44:06.000Z</time>
      </trkpt>
      <trkpt lat="41.217538" lon="1.525283">
        <ele>57.1</ele>
        <time>1970-01-01T02:44:07.000Z</time>
      </trkpt>
      <trkpt lat="41.217553" lon="1.525328">
        <ele>57.1</ele>
        <time>1970-01-01T02:44:08.000Z</time>
      </trkpt>
      <trkpt lat="41.217564" lon="1.525385">
        <ele>57.2</ele>
        <time>1970-01-01T02:44:09.000Z</time>
      </trkpt>
      <trkpt lat="41.217576" lon="1.525443">
        <ele>57.2</ele>
        <time>1970-01-01T02:44:10.000Z</time>
      </trkpt>
      <trkpt lat="41.217583" lon="1.525484">
        <ele>57.3</ele>
        <time>1970-01-01T02:44:11.000Z</time>
      </trkpt>
      <trkpt lat="41.217614" lon="1.525537">
        <ele>57.3</ele>
        <time>1970-01-01T02:44:13.000Z</time>
      </trkpt>
      <trkpt lat="41.21765" lon="1.52557">
        <ele>57.4</ele>
        <time>1970-01-01T02:44:15.000Z</time>
      </trkpt>
      <trkpt lat="41.217688" lon="1.525548">
        <ele>58.2</ele>
        <time>1970-01-01T02:44:17.000Z</time>
      </trkpt>
      <trkpt lat="41.21775" lon="1.525524">
        <ele>58.7</ele>
        <time>1970-01-01T02:44:19.000Z</time>
      </trkpt>
      <trkpt lat="41.21779" lon="1.525505">
        <ele>59</ele>
        <time>1970-01-01T02:44:21.000Z</time>
      </trkpt>
      <trkpt lat="41.217816" lon="1.525488">
        <ele>59.2</ele>
        <time>1970-01-01T02:44:22.000Z</time>
      </trkpt>
      <trkpt lat="41.217841" lon="1.525474">
        <ele>59.3</ele>
        <time>1970-01-01T02:44:23.000Z</time>
      </trkpt>
      <trkpt lat="41.217887" lon="1.525448">
        <ele>59.4</ele>
        <time>1970-01-01T02:44:25.000Z</time>
      </trkpt>
      <trkpt lat="41.217912" lon="1.525428">
        <ele>59.5</ele>
        <time>1970-01-01T02:44:26.000Z</time>
      </trkpt>
      <trkpt lat="41.217952" lon="1.525398">
        <ele>59.5</ele>
        <time>1970-01-01T02:44:28.000Z</time>
      </trkpt>
      <trkpt lat="41.217989" lon="1.525375">
        <ele>59.3</ele>
        <time>1970-01-01T02:44:30.000Z</time>
      </trkpt>
      <trkpt lat="41.218028" lon="1.525364">
        <ele>59.1</ele>
        <time>1970-01-01T02:44:32.000Z</time>
      </trkpt>
      <trkpt lat="41.21803" lon="1.525404">
        <ele>59</ele>
        <time>1970-01-01T02:44:36.000Z</time>
      </trkpt>
      <trkpt lat="41.218002" lon="1.525379">
        <ele>58.8</ele>
        <time>1970-01-01T02:44:42.000Z</time>
      </trkpt>
      <trkpt lat="41.218592" lon="1.529292">
        <ele>56.6</ele>
        <time>1970-01-01T00:00:00.000Z</time>
      </trkpt>
      <trkpt lat="41.218591" lon="1.52929">
        <ele>56.6</ele>
        <time>1970-01-01T00:00:01.000Z</time>
      </trkpt>
      <trkpt lat="41.218551" lon="1.529313">
        <ele>56.3</ele>
        <time>1970-01-01T00:00:06.000Z</time>
      </trkpt>
      <trkpt lat="41.218534" lon="1.529336">
        <ele>56.1</ele>
        <time>1970-01-01T00:00:07.000Z</time>
      </trkpt>
      <trkpt lat="41.218443" lon="1.529469">
        <ele>55.1</ele>
        <time>1970-01-01T00:00:11.000Z</time>
      </trkpt>
      <trkpt lat="41.218229" lon="1.529723">
        <ele>52.7</ele>
        <time>1970-01-01T00:00:17.000Z</time>
      </trkpt>
      <trkpt lat="41.218139" lon="1.529745">
        <ele>52</ele>
        <time>1970-01-01T00:00:19.000Z</time>
      </trkpt>
      <trkpt lat="41.218099" lon="1.529727">
        <ele>51.9</ele>
        <time>1970-01-01T00:00:20.000Z</time>
      </trkpt>
      <trkpt lat="41.218027" lon="1.529655">
        <ele>51.9</ele>
        <time>1970-01-01T00:00:22.000Z</time>
      </trkpt>
      <trkpt lat="41.217949" lon="1.529576">
        <ele>51.8</ele>
        <time>1970-01-01T00:00:24.000Z</time>
      </trkpt>
      <trkpt lat="41.217908" lon="1.529537">
        <ele>51.7</ele>
        <time>1970-01-01T00:00:25.000Z</time>
      </trkpt>
      <trkpt lat="41.217869" lon="1.529496">
        <ele>51.7</ele>
        <time>1970-01-01T00:00:26.000Z</time>
      </trkpt>
      <trkpt lat="41.217791" lon="1.529414">
        <ele>51.6</ele>
        <time>1970-01-01T00:00:28.000Z</time>
      </trkpt>
      <trkpt lat="41.217709" lon="1.529335">
        <ele>51.4</ele>
        <time>1970-01-01T00:00:30.000Z</time>
      </trkpt>
      <trkpt lat="41.21759" lon="1.529219">
        <ele>51.1</ele>
        <time>1970-01-01T00:00:33.000Z</time>
      </trkpt>
      <trkpt lat="41.217419" lon="1.529064">
        <ele>51</ele>
        <time>1970-01-01T00:00:37.000Z</time>
      </trkpt>
      <trkpt lat="41.217253" lon="1.528923">
        <ele>51.1</ele>
        <time>1970-01-01T00:00:41.000Z</time>
      </trkpt>
      <trkpt lat="41.217212" lon="1.528882">
        <ele>51.2</ele>
        <time>1970-01-01T00:00:42.000Z</time>
      </trkpt>
      <trkpt lat="41.217018" lon="1.528685">
        <ele>51.2</ele>
        <time>1970-01-01T00:00:47.000Z</time>
      </trkpt>
      <trkpt lat="41.216957" lon="1.528635">
        <ele>51.2</ele>
        <time>1970-01-01T00:00:49.000Z</time>
      </trkpt>
      <trkpt lat="41.216923" lon="1.528626">
        <ele>51.2</ele>
        <time>1970-01-01T00:00:50.000Z</time>
      </trkpt>
      <trkpt lat="41.216892" lon="1.528627">
        <ele>51.1</ele>
        <time>1970-01-01T00:00:51.000Z</time>
      </trkpt>
      <trkpt lat="41.21682" lon="1.528663">
        <ele>51</ele>
        <time>1970-01-01T00:00:55.000Z</time>
      </trkpt>
      <trkpt lat="41.216802" lon="1.528673">
        <ele>51</ele>
        <time>1970-01-01T00:00:56.000Z</time>
      </trkpt>
      <trkpt lat="41.216716" lon="1.528688">
        <ele>50.8</ele>
        <time>1970-01-01T00:00:59.000Z</time>
      </trkpt>
      <trkpt lat="41.216598" lon="1.528699">
        <ele>50.2</ele>
        <time>1970-01-01T00:01:02.000Z</time>
      </trkpt>
      <trkpt lat="41.21656" lon="1.52867">
        <ele>50.3</ele>
        <time>1970-01-01T00:01:03.000Z</time>
      </trkpt>
      <trkpt lat="41.216503" lon="1.528492">
        <ele>50.3</ele>
        <time>1970-01-01T00:01:06.000Z</time>
      </trkpt>
      <trkpt lat="41.21649" lon="1.528424">
        <ele>50.3</ele>
        <time>1970-01-01T00:01:07.000Z</time>
      </trkpt>
      <trkpt lat="41.216468" lon="1.528289">
        <ele>50.4</ele>
        <time>1970-01-01T00:01:09.000Z</time>
      </trkpt>
      <trkpt lat="41.21645" lon="1.528157">
        <ele>50.4</ele>
        <time>1970-01-01T00:01:11.000Z</time>
      </trkpt>
      <trkpt lat="41.216449" lon="1.528084">
        <ele>50.4</ele>
        <time>1970-01-01T00:01:12.000Z</time>
      </trkpt>
      <trkpt lat="41.216451" lon="1.527939">
        <ele>50.3</ele>
        <time>1970-01-01T00:01:14.000Z</time>
      </trkpt>
      <trkpt lat="41.21644" lon="1.527472">
        <ele>49.9</ele>
        <time>1970-01-01T00:01:20.000Z</time>
      </trkpt>
      <trkpt lat="41.216382" lon="1.52697">
        <ele>49.6</ele>
        <time>1970-01-01T00:01:27.000Z</time>
      </trkpt>
      <trkpt lat="41.216254" lon="1.526601">
        <ele>49.7</ele>
        <time>1970-01-01T00:01:33.000Z</time>
      </trkpt>
      <trkpt lat="41.216107" lon="1.526337">
        <ele>50</ele>
        <time>1970-01-01T00:01:38.000Z</time>
      </trkpt>
      <trkpt lat="41.216036" lon="1.526244">
        <ele>50.1</ele>
        <time>1970-01-01T00:01:40.000Z</time>
      </trkpt>
      <trkpt lat="41.215919" lon="1.526047">
        <ele>50.3</ele>
        <time>1970-01-01T00:01:44.000Z</time>
      </trkpt>
      <trkpt lat="41.215889" lon="1.525932">
        <ele>50.4</ele>
        <time>1970-01-01T00:01:46.000Z</time>
      </trkpt>
      <trkpt lat="41.215878" lon="1.525813">
        <ele>50.5</ele>
        <time>1970-01-01T00:01:48.000Z</time>
      </trkpt>
      <trkpt lat="41.215871" lon="1.525755">
        <ele>50.8</ele>
        <time>1970-01-01T00:01:49.000Z</time>
      </trkpt>
      <trkpt lat="41.215833" lon="1.525646">
        <ele>50.8</ele>
        <time>1970-01-01T00:01:51.000Z</time>
      </trkpt>
      <trkpt lat="41.21572" lon="1.525535">
        <ele>50.7</ele>
        <time>1970-01-01T00:01:54.000Z</time>
      </trkpt>
      <trkpt lat="41.215685" lon="1.525494">
        <ele>50.8</ele>
        <time>1970-01-01T00:01:55.000Z</time>
      </trkpt>
      <trkpt lat="41.215637" lon="1.525329">
        <ele>50.8</ele>
        <time>1970-01-01T00:01:58.000Z</time>
      </trkpt>
      <trkpt lat="41.215534" lon="1.524667">
        <ele>51.6</ele>
        <time>1970-01-01T00:02:09.000Z</time>
      </trkpt>
      <trkpt lat="41.215498" lon="1.524431">
        <ele>52</ele>
        <time>1970-01-01T00:02:13.000Z</time>
      </trkpt>
      <trkpt lat="41.215448" lon="1.524067">
        <ele>52.6</ele>
        <time>1970-01-01T00:02:19.000Z</time>
      </trkpt>
      <trkpt lat="41.215425" lon="1.523888">
        <ele>52.8</ele>
        <time>1970-01-01T00:02:22.000Z</time>
      </trkpt>
      <trkpt lat="41.21543" lon="1.523829">
        <ele>52.8</ele>
        <time>1970-01-01T00:02:23.000Z</time>
      </trkpt>
      <trkpt lat="41.215451" lon="1.523781">
        <ele>52.9</ele>
        <time>1970-01-01T00:02:24.000Z</time>
      </trkpt>
      <trkpt lat="41.215575" lon="1.52369">
        <ele>53.4</ele>
        <time>1970-01-01T00:02:27.000Z</time>
      </trkpt>
      <trkpt lat="41.215608" lon="1.523644">
        <ele>53.5</ele>
        <time>1970-01-01T00:02:28.000Z</time>
      </trkpt>
      <trkpt lat="41.215638" lon="1.523459">
        <ele>54</ele>
        <time>1970-01-01T00:02:31.000Z</time>
      </trkpt>
      <trkpt lat="41.215651" lon="1.52307">
        <ele>54.8</ele>
        <time>1970-01-01T00:02:37.000Z</time>
      </trkpt>
      <trkpt lat="41.215657" lon="1.52294">
        <ele>55</ele>
        <time>1970-01-01T00:02:39.000Z</time>
      </trkpt>
      <trkpt lat="41.21567" lon="1.522752">
        <ele>55.2</ele>
        <time>1970-01-01T00:02:42.000Z</time>
      </trkpt>
      <trkpt lat="41.215675" lon="1.522627">
        <ele>55.3</ele>
        <time>1970-01-01T00:02:44.000Z</time>
      </trkpt>
      <trkpt lat="41.215683" lon="1.52244">
        <ele>55.6</ele>
        <time>1970-01-01T00:02:47.000Z</time>
      </trkpt>
      <trkpt lat="41.215695" lon="1.52219">
        <ele>56.3</ele>
        <time>1970-01-01T00:02:51.000Z</time>
      </trkpt>
      <trkpt lat="41.215708" lon="1.52194">
        <ele>56.9</ele>
        <time>1970-01-01T00:02:55.000Z</time>
      </trkpt>
      <trkpt lat="41.215716" lon="1.521754">
        <ele>57.4</ele>
        <time>1970-01-01T00:02:58.000Z</time>
      </trkpt>
      <trkpt lat="41.215735" lon="1.521309">
        <ele>58.5</ele>
        <time>1970-01-01T00:03:05.000Z</time>
      </trkpt>
      <trkpt lat="41.215739" lon="1.521247">
        <ele>58.7</ele>
        <time>1970-01-01T00:03:06.000Z</time>
      </trkpt>
      <trkpt lat="41.21575" lon="1.520826">
        <ele>59.9</ele>
        <time>1970-01-01T00:03:13.000Z</time>
      </trkpt>
      <trkpt lat="41.215751" lon="1.520767">
        <ele>60.1</ele>
        <time>1970-01-01T00:03:14.000Z</time>
      </trkpt>
      <trkpt lat="41.215745" lon="1.520244">
        <ele>61.5</ele>
        <time>1970-01-01T00:03:23.000Z</time>
      </trkpt>
      <trkpt lat="41.215742" lon="1.520127">
        <ele>61.9</ele>
        <time>1970-01-01T00:03:25.000Z</time>
      </trkpt>
      <trkpt lat="41.215735" lon="1.519838">
        <ele>62.7</ele>
        <time>1970-01-01T00:03:30.000Z</time>
      </trkpt>
      <trkpt lat="41.215733" lon="1.519724">
        <ele>63</ele>
        <time>1970-01-01T00:03:32.000Z</time>
      </trkpt>
      <trkpt lat="41.215727" lon="1.519498">
        <ele>63.5</ele>
        <time>1970-01-01T00:03:36.000Z</time>
      </trkpt>
      <trkpt lat="41.215718" lon="1.519162">
        <ele>64.2</ele>
        <time>1970-01-01T00:03:42.000Z</time>
      </trkpt>
      <trkpt lat="41.215718" lon="1.519105">
        <ele>64.3</ele>
        <time>1970-01-01T00:03:43.000Z</time>
      </trkpt>
      <trkpt lat="41.215706" lon="1.51858">
        <ele>65.4</ele>
        <time>1970-01-01T00:03:52.000Z</time>
      </trkpt>
      <trkpt lat="41.215696" lon="1.518293">
        <ele>66</ele>
        <time>1970-01-01T00:03:57.000Z</time>
      </trkpt>
      <trkpt lat="41.215691" lon="1.518064">
        <ele>66.6</ele>
        <time>1970-01-01T00:04:01.000Z</time>
      </trkpt>
      <trkpt lat="41.215688" lon="1.518008">
        <ele>66.7</ele>
        <time>1970-01-01T00:04:02.000Z</time>
      </trkpt>
      <trkpt lat="41.21564" lon="1.517737">
        <ele>67.5</ele>
        <time>1970-01-01T00:04:07.000Z</time>
      </trkpt>
      <trkpt lat="41.215613" lon="1.517632">
        <ele>67.8</ele>
        <time>1970-01-01T00:04:09.000Z</time>
      </trkpt>
      <trkpt lat="41.215533" lon="1.517369">
        <ele>68.7</ele>
        <time>1970-01-01T00:04:15.000Z</time>
      </trkpt>
      <trkpt lat="41.215506" lon="1.517272">
        <ele>69</ele>
        <time>1970-01-01T00:04:17.000Z</time>
      </trkpt>
      <trkpt lat="41.215447" lon="1.517081">
        <ele>69.8</ele>
        <time>1970-01-01T00:04:21.000Z</time>
      </trkpt>
      <trkpt lat="41.215435" lon="1.517032">
        <ele>70.1</ele>
        <time>1970-01-01T00:04:22.000Z</time>
      </trkpt>
      <trkpt lat="41.21537" lon="1.516792">
        <ele>71.2</ele>
        <time>1970-01-01T00:04:27.000Z</time>
      </trkpt>
      <trkpt lat="41.215344" lon="1.516698">
        <ele>71.6</ele>
        <time>1970-01-01T00:04:29.000Z</time>
      </trkpt>
      <trkpt lat="41.215283" lon="1.516466">
        <ele>72.7</ele>
        <time>1970-01-01T00:04:34.000Z</time>
      </trkpt>
      <trkpt lat="41.21523" lon="1.516277">
        <ele>73.5</ele>
        <time>1970-01-01T00:04:38.000Z</time>
      </trkpt>
      <trkpt lat="41.215178" lon="1.516082">
        <ele>74.2</ele>
        <time>1970-01-01T00:04:42.000Z</time>
      </trkpt>
      <trkpt lat="41.215137" lon="1.515891">
        <ele>74.7</ele>
        <time>1970-01-01T00:04:46.000Z</time>
      </trkpt>
      <trkpt lat="41.215138" lon="1.515841">
        <ele>74.7</ele>
        <time>1970-01-01T00:04:47.000Z</time>
      </trkpt>
      <trkpt lat="41.215173" lon="1.515535">
        <ele>74.9</ele>
        <time>1970-01-01T00:04:53.000Z</time>
      </trkpt>
      <trkpt lat="41.215169" lon="1.515434">
        <ele>75.2</ele>
        <time>1970-01-01T00:04:55.000Z</time>
      </trkpt>
      <trkpt lat="41.21513" lon="1.515295">
        <ele>75.6</ele>
        <time>1970-01-01T00:04:58.000Z</time>
      </trkpt>
      <trkpt lat="41.215001" lon="1.514994">
        <ele>76.6</ele>
        <time>1970-01-01T00:05:05.000Z</time>
      </trkpt>
      <trkpt lat="41.214981" lon="1.514952">
        <ele>76.7</ele>
        <time>1970-01-01T00:05:06.000Z</time>
      </trkpt>
      <trkpt lat="41.214867" lon="1.514739">
        <ele>77.4</ele>
        <time>1970-01-01T00:05:11.000Z</time>
      </trkpt>
      <trkpt lat="41.214821" lon="1.514651">
        <ele>77.7</ele>
        <time>1970-01-01T00:05:13.000Z</time>
      </trkpt>
      <trkpt lat="41.214722" lon="1.51447">
        <ele>78.3</ele>
        <time>1970-01-01T00:05:17.000Z</time>
      </trkpt>
      <trkpt lat="41.214629" lon="1.514292">
        <ele>79</ele>
        <time>1970-01-01T00:05:21.000Z</time>
      </trkpt>
      <trkpt lat="41.214586" lon="1.5142">
        <ele>79.3</ele>
        <time>1970-01-01T00:05:23.000Z</time>
      </trkpt>
      <trkpt lat="41.21449" lon="1.514027">
        <ele>79.9</ele>
        <time>1970-01-01T00:05:27.000Z</time>
      </trkpt>
      <trkpt lat="41.214467" lon="1.513981">
        <ele>80.1</ele>
        <time>1970-01-01T00:05:28.000Z</time>
      </trkpt>
      <trkpt lat="41.214315" lon="1.513731">
        <ele>81.2</ele>
        <time>1970-01-01T00:05:34.000Z</time>
      </trkpt>
      <trkpt lat="41.21407" lon="1.513554">
        <ele>82.2</ele>
        <time>1970-01-01T00:05:41.000Z</time>
      </trkpt>
      <trkpt lat="41.213807" lon="1.513361">
        <ele>83.2</ele>
        <time>1970-01-01T00:05:48.000Z</time>
      </trkpt>
      <trkpt lat="41.213771" lon="1.513329">
        <ele>83.4</ele>
        <time>1970-01-01T00:05:49.000Z</time>
      </trkpt>
      <trkpt lat="41.213545" lon="1.513089">
        <ele>84.7</ele>
        <time>1970-01-01T00:05:56.000Z</time>
      </trkpt>
      <trkpt lat="41.213325" lon="1.513014">
        <ele>86.1</ele>
        <time>1970-01-01T00:06:02.000Z</time>
      </trkpt>
      <trkpt lat="41.213288" lon="1.513013">
        <ele>86.4</ele>
        <time>1970-01-01T00:06:03.000Z</time>
      </trkpt>
      <trkpt lat="41.213144" lon="1.51301">
        <ele>87.3</ele>
        <time>1970-01-01T00:06:07.000Z</time>
      </trkpt>
      <trkpt lat="41.213107" lon="1.513011">
        <ele>87.6</ele>
        <time>1970-01-01T00:06:08.000Z</time>
      </trkpt>
      <trkpt lat="41.213031" lon="1.51302">
        <ele>88</ele>
        <time>1970-01-01T00:06:10.000Z</time>
      </trkpt>
      <trkpt lat="41.212991" lon="1.513026">
        <ele>88.2</ele>
        <time>1970-01-01T00:06:11.000Z</time>
      </trkpt>
      <trkpt lat="41.212867" lon="1.513043">
        <ele>88.6</ele>
        <time>1970-01-01T00:06:14.000Z</time>
      </trkpt>
      <trkpt lat="41.212781" lon="1.513055">
        <ele>88.8</ele>
        <time>1970-01-01T00:06:16.000Z</time>
      </trkpt>
      <trkpt lat="41.212735" lon="1.513057">
        <ele>88.8</ele>
        <time>1970-01-01T00:06:17.000Z</time>
      </trkpt>
      <trkpt lat="41.212688" lon="1.513053">
        <ele>88.9</ele>
        <time>1970-01-01T00:06:18.000Z</time>
      </trkpt>
      <trkpt lat="41.212552" lon="1.512994">
        <ele>89</ele>
        <time>1970-01-01T00:06:21.000Z</time>
      </trkpt>
      <trkpt lat="41.212513" lon="1.51296">
        <ele>89</ele>
        <time>1970-01-01T00:06:22.000Z</time>
      </trkpt>
      <trkpt lat="41.212449" lon="1.512802">
        <ele>89.1</ele>
        <time>1970-01-01T00:06:25.000Z</time>
      </trkpt>
      <trkpt lat="41.212461" lon="1.51262">
        <ele>89</ele>
        <time>1970-01-01T00:06:28.000Z</time>
      </trkpt>
      <trkpt lat="41.212468" lon="1.512559">
        <ele>89</ele>
        <time>1970-01-01T00:06:29.000Z</time>
      </trkpt>
      <trkpt lat="41.212474" lon="1.512499">
        <ele>89</ele>
        <time>1970-01-01T00:06:30.000Z</time>
      </trkpt>
      <trkpt lat="41.21249" lon="1.512375">
        <ele>89</ele>
        <time>1970-01-01T00:06:32.000Z</time>
      </trkpt>
      <trkpt lat="41.212514" lon="1.51218">
        <ele>89</ele>
        <time>1970-01-01T00:06:35.000Z</time>
      </trkpt>
      <trkpt lat="41.212522" lon="1.512114">
        <ele>89</ele>
        <time>1970-01-01T00:06:36.000Z</time>
      </trkpt>
      <trkpt lat="41.212537" lon="1.512052">
        <ele>89</ele>
        <time>1970-01-01T00:06:37.000Z</time>
      </trkpt>
      <trkpt lat="41.212652" lon="1.511949">
        <ele>88.9</ele>
        <time>1970-01-01T00:06:40.000Z</time>
      </trkpt>
      <trkpt lat="41.212851" lon="1.511984">
        <ele>88.7</ele>
        <time>1970-01-01T00:06:44.000Z</time>
      </trkpt>
      <trkpt lat="41.21309" lon="1.512072">
        <ele>88.2</ele>
        <time>1970-01-01T00:06:48.000Z</time>
      </trkpt>
      <trkpt lat="41.213157" lon="1.512095">
        <ele>88</ele>
        <time>1970-01-01T00:06:49.000Z</time>
      </trkpt>
      <trkpt lat="41.213293" lon="1.512134">
        <ele>87.7</ele>
        <time>1970-01-01T00:06:51.000Z</time>
      </trkpt>
      <trkpt lat="41.213494" lon="1.512188">
        <ele>87.3</ele>
        <time>1970-01-01T00:06:54.000Z</time>
      </trkpt>
      <trkpt lat="41.213694" lon="1.512243">
        <ele>87</ele>
        <time>1970-01-01T00:06:57.000Z</time>
      </trkpt>
      <trkpt lat="41.213829" lon="1.512283">
        <ele>86.8</ele>
        <time>1970-01-01T00:06:59.000Z</time>
      </trkpt>
      <trkpt lat="41.213897" lon="1.512304">
        <ele>86.7</ele>
        <time>1970-01-01T00:07:00.000Z</time>
      </trkpt>
      <trkpt lat="41.213964" lon="1.512328">
        <ele>86.6</ele>
        <time>1970-01-01T00:07:01.000Z</time>
      </trkpt>
      <trkpt lat="41.214033" lon="1.512351">
        <ele>86.4</ele>
        <time>1970-01-01T00:07:02.000Z</time>
      </trkpt>
      <trkpt lat="41.21417" lon="1.512394">
        <ele>86.1</ele>
        <time>1970-01-01T00:07:04.000Z</time>
      </trkpt>
      <trkpt lat="41.214313" lon="1.512437">
        <ele>85.7</ele>
        <time>1970-01-01T00:07:06.000Z</time>
      </trkpt>
      <trkpt lat="41.214827" lon="1.512612">
        <ele>84.8</ele>
        <time>1970-01-01T00:07:13.000Z</time>
      </trkpt>
      <trkpt lat="41.214895" lon="1.512639">
        <ele>84.7</ele>
        <time>1970-01-01T00:07:14.000Z</time>
      </trkpt>
      <trkpt lat="41.215166" lon="1.512723">
        <ele>84.5</ele>
        <time>1970-01-01T00:07:18.000Z</time>
      </trkpt>
      <trkpt lat="41.215305" lon="1.512759">
        <ele>84.5</ele>
        <time>1970-01-01T00:07:20.000Z</time>
      </trkpt>
      <trkpt lat="41.215579" lon="1.512853">
        <ele>84.4</ele>
        <time>1970-01-01T00:07:24.000Z</time>
      </trkpt>
      <trkpt lat="41.215833" lon="1.512952">
        <ele>84.3</ele>
        <time>1970-01-01T00:07:28.000Z</time>
      </trkpt>
      <trkpt lat="41.216012" lon="1.513023">
        <ele>84.3</ele>
        <time>1970-01-01T00:07:31.000Z</time>
      </trkpt>
      <trkpt lat="41.216373" lon="1.513172">
        <ele>84.2</ele>
        <time>1970-01-01T00:07:37.000Z</time>
      </trkpt>
      <trkpt lat="41.216492" lon="1.51322">
        <ele>84.1</ele>
        <time>1970-01-01T00:07:39.000Z</time>
      </trkpt>
      <trkpt lat="41.216602" lon="1.513226">
        <ele>84.1</ele>
        <time>1970-01-01T00:07:41.000Z</time>
      </trkpt>
      <trkpt lat="41.216642" lon="1.513201">
        <ele>84.3</ele>
        <time>1970-01-01T00:07:42.000Z</time>
      </trkpt>
      <trkpt lat="41.216689" lon="1.513123">
        <ele>84.7</ele>
        <time>1970-01-01T00:07:44.000Z</time>
      </trkpt>
      <trkpt lat="41.216729" lon="1.513038">
        <ele>85.2</ele>
        <time>1970-01-01T00:07:46.000Z</time>
      </trkpt>
      <trkpt lat="41.216779" lon="1.512904">
        <ele>86.2</ele>
        <time>1970-01-01T00:07:49.000Z</time>
      </trkpt>
      <trkpt lat="41.216793" lon="1.512811">
        <ele>86.9</ele>
        <time>1970-01-01T00:07:51.000Z</time>
      </trkpt>
      <trkpt lat="41.216797" lon="1.512767">
        <ele>87.2</ele>
        <time>1970-01-01T00:07:52.000Z</time>
      </trkpt>
      <trkpt lat="41.216799" lon="1.512633">
        <ele>88.1</ele>
        <time>1970-01-01T00:07:55.000Z</time>
      </trkpt>
      <trkpt lat="41.216798" lon="1.512591">
        <ele>88.4</ele>
        <time>1970-01-01T00:07:56.000Z</time>
      </trkpt>
      <trkpt lat="41.216795" lon="1.512507">
        <ele>89</ele>
        <time>1970-01-01T00:07:58.000Z</time>
      </trkpt>
      <trkpt lat="41.216797" lon="1.512466">
        <ele>89.3</ele>
        <time>1970-01-01T00:07:59.000Z</time>
      </trkpt>
      <trkpt lat="41.216795" lon="1.512341">
        <ele>90.2</ele>
        <time>1970-01-01T00:08:02.000Z</time>
      </trkpt>
      <trkpt lat="41.216793" lon="1.512258">
        <ele>90.8</ele>
        <time>1970-01-01T00:08:04.000Z</time>
      </trkpt>
      <trkpt lat="41.216792" lon="1.512217">
        <ele>91.2</ele>
        <time>1970-01-01T00:08:05.000Z</time>
      </trkpt>
      <trkpt lat="41.216794" lon="1.512136">
        <ele>91.7</ele>
        <time>1970-01-01T00:08:07.000Z</time>
      </trkpt>
      <trkpt lat="41.216796" lon="1.512095">
        <ele>92</ele>
        <time>1970-01-01T00:08:08.000Z</time>
      </trkpt>
      <trkpt lat="41.216795" lon="1.511933">
        <ele>93.2</ele>
        <time>1970-01-01T00:08:12.000Z</time>
      </trkpt>
      <trkpt lat="41.216796" lon="1.511788">
        <ele>94.3</ele>
        <time>1970-01-01T00:08:16.000Z</time>
      </trkpt>
      <trkpt lat="41.216797" lon="1.511751">
        <ele>94.6</ele>
        <time>1970-01-01T00:08:17.000Z</time>
      </trkpt>
      <trkpt lat="41.2168" lon="1.511639">
        <ele>95.5</ele>
        <time>1970-01-01T00:08:20.000Z</time>
      </trkpt>
      <trkpt lat="41.216808" lon="1.511459">
        <ele>96.9</ele>
        <time>1970-01-01T00:08:25.000Z</time>
      </trkpt>
      <trkpt lat="41.216822" lon="1.511348">
        <ele>97.7</ele>
        <time>1970-01-01T00:08:28.000Z</time>
      </trkpt>
      <trkpt lat="41.216836" lon="1.51121">
        <ele>98.8</ele>
        <time>1970-01-01T00:08:32.000Z</time>
      </trkpt>
      <trkpt lat="41.216845" lon="1.511142">
        <ele>99.3</ele>
        <time>1970-01-01T00:08:34.000Z</time>
      </trkpt>
      <trkpt lat="41.21686" lon="1.511038">
        <ele>100.2</ele>
        <time>1970-01-01T00:08:37.000Z</time>
      </trkpt>
      <trkpt lat="41.216889" lon="1.510842">
        <ele>101.9</ele>
        <time>1970-01-01T00:08:43.000Z</time>
      </trkpt>
      <trkpt lat="41.216894" lon="1.510808">
        <ele>102.2</ele>
        <time>1970-01-01T00:08:44.000Z</time>
      </trkpt>
      <trkpt lat="41.216912" lon="1.51071">
        <ele>103</ele>
        <time>1970-01-01T00:08:47.000Z</time>
      </trkpt>
      <trkpt lat="41.216941" lon="1.510578">
        <ele>104.1</ele>
        <time>1970-01-01T00:08:51.000Z</time>
      </trkpt>
      <trkpt lat="41.216986" lon="1.510449">
        <ele>105.2</ele>
        <time>1970-01-01T00:08:55.000Z</time>
      </trkpt>
      <trkpt lat="41.217032" lon="1.510313">
        <ele>106.4</ele>
        <time>1970-01-01T00:08:59.000Z</time>
      </trkpt>
      <trkpt lat="41.217044" lon="1.510282">
        <ele>106.7</ele>
        <time>1970-01-01T00:09:00.000Z</time>
      </trkpt>
      <trkpt lat="41.217075" lon="1.510162">
        <ele>107.8</ele>
        <time>1970-01-01T00:09:04.000Z</time>
      </trkpt>
      <trkpt lat="41.217081" lon="1.510128">
        <ele>108.1</ele>
        <time>1970-01-01T00:09:05.000Z</time>
      </trkpt>
      <trkpt lat="41.2171" lon="1.51003">
        <ele>109</ele>
        <time>1970-01-01T00:09:08.000Z</time>
      </trkpt>
      <trkpt lat="41.217111" lon="1.509933">
        <ele>109.8</ele>
        <time>1970-01-01T00:09:11.000Z</time>
      </trkpt>
      <trkpt lat="41.217114" lon="1.50987">
        <ele>110.4</ele>
        <time>1970-01-01T00:09:13.000Z</time>
      </trkpt>
      <trkpt lat="41.217113" lon="1.509804">
        <ele>110.9</ele>
        <time>1970-01-01T00:09:15.000Z</time>
      </trkpt>
      <trkpt lat="41.217109" lon="1.509719">
        <ele>111.5</ele>
        <time>1970-01-01T00:09:18.000Z</time>
      </trkpt>
      <trkpt lat="41.217109" lon="1.50969">
        <ele>111.7</ele>
        <time>1970-01-01T00:09:19.000Z</time>
      </trkpt>
      <trkpt lat="41.217108" lon="1.509661">
        <ele>111.9</ele>
        <time>1970-01-01T00:09:20.000Z</time>
      </trkpt>
      <trkpt lat="41.217107" lon="1.50963">
        <ele>112</ele>
        <time>1970-01-01T00:09:21.000Z</time>
      </trkpt>
      <trkpt lat="41.217073" lon="1.5095">
        <ele>112.5</ele>
        <time>1970-01-01T00:09:25.000Z</time>
      </trkpt>
      <trkpt lat="41.217062" lon="1.509466">
        <ele>112.5</ele>
        <time>1970-01-01T00:09:26.000Z</time>
      </trkpt>
      <trkpt lat="41.217014" lon="1.509365">
        <ele>112.5</ele>
        <time>1970-01-01T00:09:29.000Z</time>
      </trkpt>
      <trkpt lat="41.216958" lon="1.509241">
        <ele>112.5</ele>
        <time>1970-01-01T00:09:32.000Z</time>
      </trkpt>
      <trkpt lat="41.21685" lon="1.509014">
        <ele>112.7</ele>
        <time>1970-01-01T00:09:37.000Z</time>
      </trkpt>
      <trkpt lat="41.21681" lon="1.508917">
        <ele>112.8</ele>
        <time>1970-01-01T00:09:39.000Z</time>
      </trkpt>
      <trkpt lat="41.216772" lon="1.508779">
        <ele>113.1</ele>
        <time>1970-01-01T00:09:42.000Z</time>
      </trkpt>
      <trkpt lat="41.216733" lon="1.508687">
        <ele>113.3</ele>
        <time>1970-01-01T00:09:44.000Z</time>
      </trkpt>
      <trkpt lat="41.216629" lon="1.508563">
        <ele>113.5</ele>
        <time>1970-01-01T00:09:47.000Z</time>
      </trkpt>
      <trkpt lat="41.216582" lon="1.508473">
        <ele>113.6</ele>
        <time>1970-01-01T00:09:49.000Z</time>
      </trkpt>
      <trkpt lat="41.216417" lon="1.508205">
        <ele>113.9</ele>
        <time>1970-01-01T00:09:56.000Z</time>
      </trkpt>
      <trkpt lat="41.216372" lon="1.508131">
        <ele>113.9</ele>
        <time>1970-01-01T00:09:58.000Z</time>
      </trkpt>
      <trkpt lat="41.216376" lon="1.508085">
        <ele>114</ele>
        <time>1970-01-01T00:09:59.000Z</time>
      </trkpt>
      <trkpt lat="41.216457" lon="1.507964">
        <ele>114.2</ele>
        <time>1970-01-01T00:10:02.000Z</time>
      </trkpt>
      <trkpt lat="41.216492" lon="1.507922">
        <ele>114.3</ele>
        <time>1970-01-01T00:10:03.000Z</time>
      </trkpt>
      <trkpt lat="41.216558" lon="1.507838">
        <ele>114.5</ele>
        <time>1970-01-01T00:10:05.000Z</time>
      </trkpt>
      <trkpt lat="41.216758" lon="1.507563">
        <ele>114.9</ele>
        <time>1970-01-01T00:10:11.000Z</time>
      </trkpt>
      <trkpt lat="41.216879" lon="1.507395">
        <ele>114.7</ele>
        <time>1970-01-01T00:10:15.000Z</time>
      </trkpt>
      <trkpt lat="41.216896" lon="1.507352">
        <ele>114.6</ele>
        <time>1970-01-01T00:10:16.000Z</time>
      </trkpt>
      <trkpt lat="41.216894" lon="1.507307">
        <ele>114.6</ele>
        <time>1970-01-01T00:10:17.000Z</time>
      </trkpt>
      <trkpt lat="41.216813" lon="1.507">
        <ele>113.5</ele>
        <time>1970-01-01T00:10:22.000Z</time>
      </trkpt>
      <trkpt lat="41.216773" lon="1.506851">
        <ele>113</ele>
        <time>1970-01-01T00:10:24.000Z</time>
      </trkpt>
      <trkpt lat="41.216712" lon="1.506622">
        <ele>112.2</ele>
        <time>1970-01-01T00:10:27.000Z</time>
      </trkpt>
      <trkpt lat="41.216676" lon="1.506473">
        <ele>112.2</ele>
        <time>1970-01-01T00:10:29.000Z</time>
      </trkpt>
      <trkpt lat="41.21665" lon="1.506335">
        <ele>112.5</ele>
        <time>1970-01-01T00:10:31.000Z</time>
      </trkpt>
      <trkpt lat="41.216648" lon="1.506269">
        <ele>112.7</ele>
        <time>1970-01-01T00:10:32.000Z</time>
      </trkpt>
      <trkpt lat="41.216648" lon="1.506208">
        <ele>112.9</ele>
        <time>1970-01-01T00:10:33.000Z</time>
      </trkpt>
      <trkpt lat="41.216648" lon="1.50611">
        <ele>113.3</ele>
        <time>1970-01-01T00:10:35.000Z</time>
      </trkpt>
      <trkpt lat="41.216631" lon="1.505983">
        <ele>113.8</ele>
        <time>1970-01-01T00:10:38.000Z</time>
      </trkpt>
      <trkpt lat="41.216627" lon="1.505861">
        <ele>114.4</ele>
        <time>1970-01-01T00:10:41.000Z</time>
      </trkpt>
      <trkpt lat="41.216611" lon="1.505751">
        <ele>114.9</ele>
        <time>1970-01-01T00:10:44.000Z</time>
      </trkpt>
      <trkpt lat="41.21661" lon="1.505718">
        <ele>115.1</ele>
        <time>1970-01-01T00:10:45.000Z</time>
      </trkpt>
      <trkpt lat="41.216643" lon="1.505634">
        <ele>115.6</ele>
        <time>1970-01-01T00:10:48.000Z</time>
      </trkpt>
      <trkpt lat="41.216667" lon="1.505622">
        <ele>115.7</ele>
        <time>1970-01-01T00:10:49.000Z</time>
      </trkpt>
      <trkpt lat="41.216724" lon="1.505612">
        <ele>116.1</ele>
        <time>1970-01-01T00:10:51.000Z</time>
      </trkpt>
      <trkpt lat="41.216784" lon="1.505601">
        <ele>116.5</ele>
        <time>1970-01-01T00:10:53.000Z</time>
      </trkpt>
      <trkpt lat="41.216841" lon="1.505574">
        <ele>116.9</ele>
        <time>1970-01-01T00:10:55.000Z</time>
      </trkpt>
      <trkpt lat="41.216935" lon="1.50547">
        <ele>117.7</ele>
        <time>1970-01-01T00:10:59.000Z</time>
      </trkpt>
      <trkpt lat="41.216952" lon="1.505438">
        <ele>117.9</ele>
        <time>1970-01-01T00:11:00.000Z</time>
      </trkpt>
      <trkpt lat="41.217017" lon="1.505266">
        <ele>119</ele>
        <time>1970-01-01T00:11:05.000Z</time>
      </trkpt>
      <trkpt lat="41.217059" lon="1.505106">
        <ele>120.3</ele>
        <time>1970-01-01T00:11:10.000Z</time>
      </trkpt>
      <trkpt lat="41.217069" lon="1.505074">
        <ele>120.6</ele>
        <time>1970-01-01T00:11:11.000Z</time>
      </trkpt>
      <trkpt lat="41.217079" lon="1.50504">
        <ele>121</ele>
        <time>1970-01-01T00:11:12.000Z</time>
      </trkpt>
      <trkpt lat="41.217111" lon="1.50495">
        <ele>121.9</ele>
        <time>1970-01-01T00:11:15.000Z</time>
      </trkpt>
      <trkpt lat="41.217136" lon="1.50487">
        <ele>122.8</ele>
        <time>1970-01-01T00:11:18.000Z</time>
      </trkpt>
      <trkpt lat="41.217148" lon="1.504845">
        <ele>123.1</ele>
        <time>1970-01-01T00:11:19.000Z</time>
      </trkpt>
      <trkpt lat="41.217185" lon="1.504775">
        <ele>124</ele>
        <time>1970-01-01T00:11:22.000Z</time>
      </trkpt>
      <trkpt lat="41.217195" lon="1.504753">
        <ele>124.3</ele>
        <time>1970-01-01T00:11:23.000Z</time>
      </trkpt>
      <trkpt lat="41.217205" lon="1.50473">
        <ele>124.6</ele>
        <time>1970-01-01T00:11:24.000Z</time>
      </trkpt>
      <trkpt lat="41.21722" lon="1.504708">
        <ele>124.9</ele>
        <time>1970-01-01T00:11:25.000Z</time>
      </trkpt>
      <trkpt lat="41.217255" lon="1.504673">
        <ele>125.5</ele>
        <time>1970-01-01T00:11:27.000Z</time>
      </trkpt>
      <trkpt lat="41.217271" lon="1.504655">
        <ele>125.8</ele>
        <time>1970-01-01T00:11:28.000Z</time>
      </trkpt>
      <trkpt lat="41.2173" lon="1.504593">
        <ele>126.6</ele>
        <time>1970-01-01T00:11:31.000Z</time>
      </trkpt>
      <trkpt lat="41.217326" lon="1.504549">
        <ele>127.2</ele>
        <time>1970-01-01T00:11:33.000Z</time>
      </trkpt>
      <trkpt lat="41.217342" lon="1.504531">
        <ele>127.4</ele>
        <time>1970-01-01T00:11:34.000Z</time>
      </trkpt>
      <trkpt lat="41.217389" lon="1.504446">
        <ele>128.4</ele>
        <time>1970-01-01T00:11:38.000Z</time>
      </trkpt>
      <trkpt lat="41.217393" lon="1.504419">
        <ele>128.7</ele>
        <time>1970-01-01T00:11:39.000Z</time>
      </trkpt>
      <trkpt lat="41.217379" lon="1.504323">
        <ele>129.6</ele>
        <time>1970-01-01T00:11:43.000Z</time>
      </trkpt>
      <trkpt lat="41.217414" lon="1.504181">
        <ele>130.7</ele>
        <time>1970-01-01T00:11:48.000Z</time>
      </trkpt>
      <trkpt lat="41.21743" lon="1.504157">
        <ele>130.9</ele>
        <time>1970-01-01T00:11:49.000Z</time>
      </trkpt>
      <trkpt lat="41.217505" lon="1.504051">
        <ele>131.7</ele>
        <time>1970-01-01T00:11:54.000Z</time>
      </trkpt>
      <trkpt lat="41.217535" lon="1.504014">
        <ele>131.9</ele>
        <time>1970-01-01T00:11:56.000Z</time>
      </trkpt>
      <trkpt lat="41.217587" lon="1.503974">
        <ele>132.6</ele>
        <time>1970-01-01T00:11:59.000Z</time>
      </trkpt>
      <trkpt lat="41.217639" lon="1.503949">
        <ele>133.2</ele>
        <time>1970-01-01T00:12:02.000Z</time>
      </trkpt>
      <trkpt lat="41.217671" lon="1.503922">
        <ele>133.6</ele>
        <time>1970-01-01T00:12:04.000Z</time>
      </trkpt>
      <trkpt lat="41.217738" lon="1.503868">
        <ele>134.5</ele>
        <time>1970-01-01T00:12:08.000Z</time>
      </trkpt>
      <trkpt lat="41.217757" lon="1.503852">
        <ele>134.8</ele>
        <time>1970-01-01T00:12:09.000Z</time>
      </trkpt>
      <trkpt lat="41.217817" lon="1.503809">
        <ele>135.6</ele>
        <time>1970-01-01T00:12:12.000Z</time>
      </trkpt>
      <trkpt lat="41.217874" lon="1.503781">
        <ele>136.3</ele>
        <time>1970-01-01T00:12:15.000Z</time>
      </trkpt>
      <trkpt lat="41.217891" lon="1.503764">
        <ele>136.5</ele>
        <time>1970-01-01T00:12:16.000Z</time>
      </trkpt>
      <trkpt lat="41.217983" lon="1.503699">
        <ele>137.6</ele>
        <time>1970-01-01T00:12:21.000Z</time>
      </trkpt>
      <trkpt lat="41.218021" lon="1.503669">
        <ele>138.1</ele>
        <time>1970-01-01T00:12:23.000Z</time>
      </trkpt>
      <trkpt lat="41.218059" lon="1.503631">
        <ele>138.5</ele>
        <time>1970-01-01T00:12:25.000Z</time>
      </trkpt>
      <trkpt lat="41.218147" lon="1.503515">
        <ele>139.6</ele>
        <time>1970-01-01T00:12:31.000Z</time>
      </trkpt>
      <trkpt lat="41.218236" lon="1.503435">
        <ele>140.4</ele>
        <time>1970-01-01T00:12:36.000Z</time>
      </trkpt>
      <trkpt lat="41.218258" lon="1.503422">
        <ele>140.5</ele>
        <time>1970-01-01T00:12:37.000Z</time>
      </trkpt>
      <trkpt lat="41.218329" lon="1.503385">
        <ele>140.9</ele>
        <time>1970-01-01T00:12:40.000Z</time>
      </trkpt>
      <trkpt lat="41.218436" lon="1.503346">
        <ele>141.2</ele>
        <time>1970-01-01T00:12:44.000Z</time>
      </trkpt>
      <trkpt lat="41.218468" lon="1.503332">
        <ele>141.3</ele>
        <time>1970-01-01T00:12:45.000Z</time>
      </trkpt>
      <trkpt lat="41.218637" lon="1.503272">
        <ele>141.5</ele>
        <time>1970-01-01T00:12:50.000Z</time>
      </trkpt>
      <trkpt lat="41.218709" lon="1.503256">
        <ele>141.5</ele>
        <time>1970-01-01T00:12:52.000Z</time>
      </trkpt>
      <trkpt lat="41.218914" lon="1.503239">
        <ele>141.5</ele>
        <time>1970-01-01T00:12:57.000Z</time>
      </trkpt>
      <trkpt lat="41.219009" lon="1.503228">
        <ele>141.5</ele>
        <time>1970-01-01T00:12:59.000Z</time>
      </trkpt>
      <trkpt lat="41.21915" lon="1.503195">
        <ele>141.4</ele>
        <time>1970-01-01T00:13:02.000Z</time>
      </trkpt>
      <trkpt lat="41.219238" lon="1.503165">
        <ele>141.4</ele>
        <time>1970-01-01T00:13:04.000Z</time>
      </trkpt>
      <trkpt lat="41.219282" lon="1.503154">
        <ele>141.4</ele>
        <time>1970-01-01T00:13:05.000Z</time>
      </trkpt>
      <trkpt lat="41.219325" lon="1.503143">
        <ele>141.4</ele>
        <time>1970-01-01T00:13:06.000Z</time>
      </trkpt>
      <trkpt lat="41.219543" lon="1.503118">
        <ele>141.6</ele>
        <time>1970-01-01T00:13:11.000Z</time>
      </trkpt>
      <trkpt lat="41.219584" lon="1.503115">
        <ele>141.7</ele>
        <time>1970-01-01T00:13:12.000Z</time>
      </trkpt>
      <trkpt lat="41.219787" lon="1.503113">
        <ele>142.2</ele>
        <time>1970-01-01T00:13:17.000Z</time>
      </trkpt>
      <trkpt lat="41.219871" lon="1.503109">
        <ele>142.6</ele>
        <time>1970-01-01T00:13:19.000Z</time>
      </trkpt>
      <trkpt lat="41.219911" lon="1.503099">
        <ele>142.7</ele>
        <time>1970-01-01T00:13:20.000Z</time>
      </trkpt>
      <trkpt lat="41.219951" lon="1.503082">
        <ele>142.9</ele>
        <time>1970-01-01T00:13:21.000Z</time>
      </trkpt>
      <trkpt lat="41.219989" lon="1.503057">
        <ele>143.2</ele>
        <time>1970-01-01T00:13:22.000Z</time>
      </trkpt>
      <trkpt lat="41.220192" lon="1.502915">
        <ele>144.5</ele>
        <time>1970-01-01T00:13:28.000Z</time>
      </trkpt>
      <trkpt lat="41.220224" lon="1.502899">
        <ele>144.8</ele>
        <time>1970-01-01T00:13:29.000Z</time>
      </trkpt>
      <trkpt lat="41.220394" lon="1.502834">
        <ele>145.9</ele>
        <time>1970-01-01T00:13:34.000Z</time>
      </trkpt>
      <trkpt lat="41.220541" lon="1.502706">
        <ele>146.8</ele>
        <time>1970-01-01T00:13:39.000Z</time>
      </trkpt>
      <trkpt lat="41.220573" lon="1.502688">
        <ele>146.9</ele>
        <time>1970-01-01T00:13:40.000Z</time>
      </trkpt>
      <trkpt lat="41.220762" lon="1.502614">
        <ele>147.5</ele>
        <time>1970-01-01T00:13:45.000Z</time>
      </trkpt>
      <trkpt lat="41.220804" lon="1.502605">
        <ele>147.6</ele>
        <time>1970-01-01T00:13:46.000Z</time>
      </trkpt>
      <trkpt lat="41.220919" lon="1.502577">
        <ele>147.7</ele>
        <time>1970-01-01T00:13:49.000Z</time>
      </trkpt>
      <trkpt lat="41.220996" lon="1.502551">
        <ele>147.8</ele>
        <time>1970-01-01T00:13:51.000Z</time>
      </trkpt>
      <trkpt lat="41.22116" lon="1.502502">
        <ele>148</ele>
        <time>1970-01-01T00:13:55.000Z</time>
      </trkpt>
      <trkpt lat="41.221242" lon="1.50247">
        <ele>148.1</ele>
        <time>1970-01-01T00:13:57.000Z</time>
      </trkpt>
      <trkpt lat="41.221286" lon="1.502456">
        <ele>148.2</ele>
        <time>1970-01-01T00:13:58.000Z</time>
      </trkpt>
      <trkpt lat="41.221423" lon="1.502416">
        <ele>148.1</ele>
        <time>1970-01-01T00:14:01.000Z</time>
      </trkpt>
      <trkpt lat="41.221635" lon="1.502358">
        <ele>147.6</ele>
        <time>1970-01-01T00:14:05.000Z</time>
      </trkpt>
      <trkpt lat="41.221805" lon="1.50234">
        <ele>147</ele>
        <time>1970-01-01T00:14:08.000Z</time>
      </trkpt>
      <trkpt lat="41.221928" lon="1.502344">
        <ele>146.5</ele>
        <time>1970-01-01T00:14:10.000Z</time>
      </trkpt>
      <trkpt lat="41.221991" lon="1.502355">
        <ele>146.2</ele>
        <time>1970-01-01T00:14:11.000Z</time>
      </trkpt>
      <trkpt lat="41.222183" lon="1.502365">
        <ele>145.2</ele>
        <time>1970-01-01T00:14:14.000Z</time>
      </trkpt>
      <trkpt lat="41.222326" lon="1.502352">
        <ele>144.3</ele>
        <time>1970-01-01T00:14:16.000Z</time>
      </trkpt>
      <trkpt lat="41.222405" lon="1.502352">
        <ele>143.7</ele>
        <time>1970-01-01T00:14:17.000Z</time>
      </trkpt>
      <trkpt lat="41.222564" lon="1.502325">
        <ele>142.7</ele>
        <time>1970-01-01T00:14:19.000Z</time>
      </trkpt>
      <trkpt lat="41.222641" lon="1.502294">
        <ele>142.3</ele>
        <time>1970-01-01T00:14:20.000Z</time>
      </trkpt>
      <trkpt lat="41.222781" lon="1.50223">
        <ele>141.9</ele>
        <time>1970-01-01T00:14:22.000Z</time>
      </trkpt>
      <trkpt lat="41.22289" lon="1.502125">
        <ele>141.7</ele>
        <time>1970-01-01T00:14:24.000Z</time>
      </trkpt>
      <trkpt lat="41.222928" lon="1.50206">
        <ele>141.7</ele>
        <time>1970-01-01T00:14:25.000Z</time>
      </trkpt>
      <trkpt lat="41.222959" lon="1.501996">
        <ele>141.8</ele>
        <time>1970-01-01T00:14:26.000Z</time>
      </trkpt>
      <trkpt lat="41.222991" lon="1.501944">
        <ele>141.9</ele>
        <time>1970-01-01T00:14:27.000Z</time>
      </trkpt>
      <trkpt lat="41.223025" lon="1.501892">
        <ele>142</ele>
        <time>1970-01-01T00:14:28.000Z</time>
      </trkpt>
      <trkpt lat="41.223094" lon="1.501799">
        <ele>142.4</ele>
        <time>1970-01-01T00:14:30.000Z</time>
      </trkpt>
      <trkpt lat="41.223169" lon="1.501662">
        <ele>143</ele>
        <time>1970-01-01T00:14:33.000Z</time>
      </trkpt>
      <trkpt lat="41.22323" lon="1.501521">
        <ele>143.4</ele>
        <time>1970-01-01T00:14:36.000Z</time>
      </trkpt>
      <trkpt lat="41.223275" lon="1.501445">
        <ele>143.7</ele>
        <time>1970-01-01T00:14:38.000Z</time>
      </trkpt>
      <trkpt lat="41.223297" lon="1.501407">
        <ele>143.8</ele>
        <time>1970-01-01T00:14:39.000Z</time>
      </trkpt>
      <trkpt lat="41.223338" lon="1.501334">
        <ele>144.2</ele>
        <time>1970-01-01T00:14:41.000Z</time>
      </trkpt>
      <trkpt lat="41.223383" lon="1.501259">
        <ele>144.6</ele>
        <time>1970-01-01T00:14:43.000Z</time>
      </trkpt>
      <trkpt lat="41.223429" lon="1.501194">
        <ele>144.9</ele>
        <time>1970-01-01T00:14:45.000Z</time>
      </trkpt>
      <trkpt lat="41.223472" lon="1.501124">
        <ele>145.3</ele>
        <time>1970-01-01T00:14:47.000Z</time>
      </trkpt>
      <trkpt lat="41.223518" lon="1.501012">
        <ele>145.9</ele>
        <time>1970-01-01T00:14:50.000Z</time>
      </trkpt>
      <trkpt lat="41.223497" lon="1.500807">
        <ele>146.8</ele>
        <time>1970-01-01T00:14:55.000Z</time>
      </trkpt>
      <trkpt lat="41.223469" lon="1.500671">
        <ele>147.5</ele>
        <time>1970-01-01T00:14:58.000Z</time>
      </trkpt>
      <trkpt lat="41.223431" lon="1.500558">
        <ele>148.1</ele>
        <time>1970-01-01T00:15:01.000Z</time>
      </trkpt>
      <trkpt lat="41.223343" lon="1.500367">
        <ele>149.2</ele>
        <time>1970-01-01T00:15:07.000Z</time>
      </trkpt>
      <trkpt lat="41.22333" lon="1.500328">
        <ele>149.4</ele>
        <time>1970-01-01T00:15:08.000Z</time>
      </trkpt>
      <trkpt lat="41.223255" lon="1.500135">
        <ele>150.4</ele>
        <time>1970-01-01T00:15:13.000Z</time>
      </trkpt>
      <trkpt lat="41.223196" lon="1.499942">
        <ele>151.4</ele>
        <time>1970-01-01T00:15:18.000Z</time>
      </trkpt>
      <trkpt lat="41.223191" lon="1.499905">
        <ele>151.6</ele>
        <time>1970-01-01T00:15:19.000Z</time>
      </trkpt>
      <trkpt lat="41.223214" lon="1.499753">
        <ele>152.4</ele>
        <time>1970-01-01T00:15:23.000Z</time>
      </trkpt>
      <trkpt lat="41.223243" lon="1.49969">
        <ele>152.8</ele>
        <time>1970-01-01T00:15:25.000Z</time>
      </trkpt>
      <trkpt lat="41.22333" lon="1.499545">
        <ele>153.7</ele>
        <time>1970-01-01T00:15:30.000Z</time>
      </trkpt>
      <trkpt lat="41.223347" lon="1.499512">
        <ele>153.9</ele>
        <time>1970-01-01T00:15:31.000Z</time>
      </trkpt>
      <trkpt lat="41.223391" lon="1.499382">
        <ele>154.6</ele>
        <time>1970-01-01T00:15:35.000Z</time>
      </trkpt>
      <trkpt lat="41.223403" lon="1.499349">
        <ele>154.8</ele>
        <time>1970-01-01T00:15:36.000Z</time>
      </trkpt>
      <trkpt lat="41.223485" lon="1.499186">
        <ele>155.7</ele>
        <time>1970-01-01T00:15:41.000Z</time>
      </trkpt>
      <trkpt lat="41.223548" lon="1.499043">
        <ele>156.2</ele>
        <time>1970-01-01T00:15:45.000Z</time>
      </trkpt>
      <trkpt lat="41.223546" lon="1.499005">
        <ele>156.2</ele>
        <time>1970-01-01T00:15:46.000Z</time>
      </trkpt>
      <trkpt lat="41.223474" lon="1.498814">
        <ele>156.9</ele>
        <time>1970-01-01T00:15:52.000Z</time>
      </trkpt>
      <trkpt lat="41.223456" lon="1.49879">
        <ele>157</ele>
        <time>1970-01-01T00:15:53.000Z</time>
      </trkpt>
      <trkpt lat="41.223394" lon="1.498725">
        <ele>157.5</ele>
        <time>1970-01-01T00:15:56.000Z</time>
      </trkpt>
      <trkpt lat="41.223353" lon="1.498685">
        <ele>157.9</ele>
        <time>1970-01-01T00:15:58.000Z</time>
      </trkpt>
      <trkpt lat="41.223331" lon="1.498663">
        <ele>158.1</ele>
        <time>1970-01-01T00:15:59.000Z</time>
      </trkpt>
      <trkpt lat="41.223209" lon="1.498523">
        <ele>159.5</ele>
        <time>1970-01-01T00:16:05.000Z</time>
      </trkpt>
      <trkpt lat="41.223141" lon="1.498439">
        <ele>160.4</ele>
        <time>1970-01-01T00:16:09.000Z</time>
      </trkpt>
      <trkpt lat="41.223103" lon="1.498388">
        <ele>160.9</ele>
        <time>1970-01-01T00:16:11.000Z</time>
      </trkpt>
      <trkpt lat="41.223047" lon="1.498258">
        <ele>162</ele>
        <time>1970-01-01T00:16:15.000Z</time>
      </trkpt>
      <trkpt lat="41.223046" lon="1.498221">
        <ele>162.3</ele>
        <time>1970-01-01T00:16:16.000Z</time>
      </trkpt>
      <trkpt lat="41.223057" lon="1.498053">
        <ele>163.4</ele>
        <time>1970-01-01T00:16:21.000Z</time>
      </trkpt>
      <trkpt lat="41.223104" lon="1.497903">
        <ele>164.5</ele>
        <time>1970-01-01T00:16:25.000Z</time>
      </trkpt>
      <trkpt lat="41.223118" lon="1.497869">
        <ele>164.7</ele>
        <time>1970-01-01T00:16:26.000Z</time>
      </trkpt>
      <trkpt lat="41.223133" lon="1.497803">
        <ele>165.3</ele>
        <time>1970-01-01T00:16:28.000Z</time>
      </trkpt>
      <trkpt lat="41.223144" lon="1.497699">
        <ele>166.2</ele>
        <time>1970-01-01T00:16:31.000Z</time>
      </trkpt>
      <trkpt lat="41.223164" lon="1.497641">
        <ele>166.8</ele>
        <time>1970-01-01T00:16:33.000Z</time>
      </trkpt>
      <trkpt lat="41.2232" lon="1.497556">
        <ele>167.8</ele>
        <time>1970-01-01T00:16:36.000Z</time>
      </trkpt>
      <trkpt lat="41.223237" lon="1.497448">
        <ele>168.8</ele>
        <time>1970-01-01T00:16:40.000Z</time>
      </trkpt>
      <trkpt lat="41.22324" lon="1.497416">
        <ele>169.1</ele>
        <time>1970-01-01T00:16:41.000Z</time>
      </trkpt>
      <trkpt lat="41.223251" lon="1.49735">
        <ele>169.6</ele>
        <time>1970-01-01T00:16:43.000Z</time>
      </trkpt>
      <trkpt lat="41.223251" lon="1.497319">
        <ele>169.8</ele>
        <time>1970-01-01T00:16:44.000Z</time>
      </trkpt>
      <trkpt lat="41.223243" lon="1.497253">
        <ele>170.2</ele>
        <time>1970-01-01T00:16:46.000Z</time>
      </trkpt>
      <trkpt lat="41.22324" lon="1.497224">
        <ele>170.4</ele>
        <time>1970-01-01T00:16:47.000Z</time>
      </trkpt>
      <trkpt lat="41.223229" lon="1.497144">
        <ele>170.8</ele>
        <time>1970-01-01T00:16:50.000Z</time>
      </trkpt>
      <trkpt lat="41.223226" lon="1.497089">
        <ele>171</ele>
        <time>1970-01-01T00:16:52.000Z</time>
      </trkpt>
      <trkpt lat="41.223217" lon="1.497029">
        <ele>171.3</ele>
        <time>1970-01-01T00:16:54.000Z</time>
      </trkpt>
      <trkpt lat="41.223182" lon="1.496898">
        <ele>171.7</ele>
        <time>1970-01-01T00:16:58.000Z</time>
      </trkpt>
      <trkpt lat="41.223153" lon="1.49673">
        <ele>172.1</ele>
        <time>1970-01-01T00:17:02.000Z</time>
      </trkpt>
      <trkpt lat="41.223141" lon="1.496693">
        <ele>172.2</ele>
        <time>1970-01-01T00:17:03.000Z</time>
      </trkpt>
      <trkpt lat="41.223048" lon="1.496597">
        <ele>172.7</ele>
        <time>1970-01-01T00:17:08.000Z</time>
      </trkpt>
      <trkpt lat="41.222891" lon="1.496574">
        <ele>173.4</ele>
        <time>1970-01-01T00:17:13.000Z</time>
      </trkpt>
      <trkpt lat="41.222806" lon="1.496507">
        <ele>174</ele>
        <time>1970-01-01T00:17:17.000Z</time>
      </trkpt>
      <trkpt lat="41.222792" lon="1.496473">
        <ele>174.1</ele>
        <time>1970-01-01T00:17:18.000Z</time>
      </trkpt>
      <trkpt lat="41.222731" lon="1.496283">
        <ele>175</ele>
        <time>1970-01-01T00:17:23.000Z</time>
      </trkpt>
      <trkpt lat="41.222729" lon="1.49625">
        <ele>175.1</ele>
        <time>1970-01-01T00:17:24.000Z</time>
      </trkpt>
      <trkpt lat="41.222738" lon="1.496144">
        <ele>175.6</ele>
        <time>1970-01-01T00:17:27.000Z</time>
      </trkpt>
      <trkpt lat="41.222833" lon="1.495934">
        <ele>176.7</ele>
        <time>1970-01-01T00:17:33.000Z</time>
      </trkpt>
      <trkpt lat="41.22287" lon="1.495888">
        <ele>177</ele>
        <time>1970-01-01T00:17:35.000Z</time>
      </trkpt>
      <trkpt lat="41.22289" lon="1.495832">
        <ele>177.3</ele>
        <time>1970-01-01T00:17:37.000Z</time>
      </trkpt>
      <trkpt lat="41.222967" lon="1.49565">
        <ele>178.3</ele>
        <time>1970-01-01T00:17:43.000Z</time>
      </trkpt>
      <trkpt lat="41.223005" lon="1.495601">
        <ele>178.6</ele>
        <time>1970-01-01T00:17:45.000Z</time>
      </trkpt>
      <trkpt lat="41.223059" lon="1.495537">
        <ele>179</ele>
        <time>1970-01-01T00:17:48.000Z</time>
      </trkpt>
      <trkpt lat="41.2231" lon="1.495498">
        <ele>179.4</ele>
        <time>1970-01-01T00:17:50.000Z</time>
      </trkpt>
      <trkpt lat="41.223223" lon="1.495467">
        <ele>180.2</ele>
        <time>1970-01-01T00:17:55.000Z</time>
      </trkpt>
      <trkpt lat="41.223247" lon="1.495473">
        <ele>180.3</ele>
        <time>1970-01-01T00:17:56.000Z</time>
      </trkpt>
      <trkpt lat="41.223362" lon="1.495518">
        <ele>181</ele>
        <time>1970-01-01T00:18:01.000Z</time>
      </trkpt>
      <trkpt lat="41.223432" lon="1.495621">
        <ele>181.7</ele>
        <time>1970-01-01T00:18:05.000Z</time>
      </trkpt>
      <trkpt lat="41.22344" lon="1.495653">
        <ele>181.8</ele>
        <time>1970-01-01T00:18:06.000Z</time>
      </trkpt>
      <trkpt lat="41.223509" lon="1.495794">
        <ele>182.8</ele>
        <time>1970-01-01T00:18:11.000Z</time>
      </trkpt>
      <trkpt lat="41.223569" lon="1.495819">
        <ele>183.3</ele>
        <time>1970-01-01T00:18:14.000Z</time>
      </trkpt>
      <trkpt lat="41.223608" lon="1.495814">
        <ele>183.6</ele>
        <time>1970-01-01T00:18:16.000Z</time>
      </trkpt>
      <trkpt lat="41.223718" lon="1.495746">
        <ele>184.5</ele>
        <time>1970-01-01T00:18:21.000Z</time>
      </trkpt>
      <trkpt lat="41.223822" lon="1.495603">
        <ele>185.5</ele>
        <time>1970-01-01T00:18:26.000Z</time>
      </trkpt>
      <trkpt lat="41.223843" lon="1.495575">
        <ele>185.7</ele>
        <time>1970-01-01T00:18:27.000Z</time>
      </trkpt>
      <trkpt lat="41.223991" lon="1.495363">
        <ele>187.1</ele>
        <time>1970-01-01T00:18:35.000Z</time>
      </trkpt>
      <trkpt lat="41.224022" lon="1.495312">
        <ele>187.5</ele>
        <time>1970-01-01T00:18:37.000Z</time>
      </trkpt>
      <trkpt lat="41.224068" lon="1.495212">
        <ele>188.2</ele>
        <time>1970-01-01T00:18:41.000Z</time>
      </trkpt>
      <trkpt lat="41.224074" lon="1.495182">
        <ele>188.4</ele>
        <time>1970-01-01T00:18:42.000Z</time>
      </trkpt>
      <trkpt lat="41.224089" lon="1.49504">
        <ele>189.3</ele>
        <time>1970-01-01T00:18:47.000Z</time>
      </trkpt>
      <trkpt lat="41.224086" lon="1.495009">
        <ele>189.4</ele>
        <time>1970-01-01T00:18:48.000Z</time>
      </trkpt>
      <trkpt lat="41.224081" lon="1.494799">
        <ele>190.8</ele>
        <time>1970-01-01T00:18:55.000Z</time>
      </trkpt>
      <trkpt lat="41.224089" lon="1.494712">
        <ele>191.5</ele>
        <time>1970-01-01T00:18:58.000Z</time>
      </trkpt>
      <trkpt lat="41.224101" lon="1.494692">
        <ele>191.7</ele>
        <time>1970-01-01T00:18:59.000Z</time>
      </trkpt>
      <trkpt lat="41.224117" lon="1.494677">
        <ele>191.9</ele>
        <time>1970-01-01T00:19:00.000Z</time>
      </trkpt>
      <trkpt lat="41.224168" lon="1.494633">
        <ele>192.6</ele>
        <time>1970-01-01T00:19:03.000Z</time>
      </trkpt>
      <trkpt lat="41.224204" lon="1.494617">
        <ele>192.9</ele>
        <time>1970-01-01T00:19:05.000Z</time>
      </trkpt>
      <trkpt lat="41.224225" lon="1.494614">
        <ele>193.1</ele>
        <time>1970-01-01T00:19:06.000Z</time>
      </trkpt>
      <trkpt lat="41.224287" lon="1.494631">
        <ele>193.7</ele>
        <time>1970-01-01T00:19:09.000Z</time>
      </trkpt>
      <trkpt lat="41.224353" lon="1.494659">
        <ele>194.3</ele>
        <time>1970-01-01T00:19:12.000Z</time>
      </trkpt>
      <trkpt lat="41.224395" lon="1.494678">
        <ele>194.7</ele>
        <time>1970-01-01T00:19:14.000Z</time>
      </trkpt>
      <trkpt lat="41.224511" lon="1.494708">
        <ele>195.8</ele>
        <time>1970-01-01T00:19:19.000Z</time>
      </trkpt>
      <trkpt lat="41.224532" lon="1.494701">
        <ele>196</ele>
        <time>1970-01-01T00:19:20.000Z</time>
      </trkpt>
      <trkpt lat="41.224656" lon="1.494627">
        <ele>197.1</ele>
        <time>1970-01-01T00:19:26.000Z</time>
      </trkpt>
      <trkpt lat="41.224733" lon="1.494579">
        <ele>197.9</ele>
        <time>1970-01-01T00:19:30.000Z</time>
      </trkpt>
      <trkpt lat="41.224769" lon="1.494551">
        <ele>198.3</ele>
        <time>1970-01-01T00:19:32.000Z</time>
      </trkpt>
      <trkpt lat="41.224829" lon="1.494515">
        <ele>198.8</ele>
        <time>1970-01-01T00:19:35.000Z</time>
      </trkpt>
      <trkpt lat="41.224913" lon="1.49449">
        <ele>199.6</ele>
        <time>1970-01-01T00:19:39.000Z</time>
      </trkpt>
      <trkpt lat="41.224935" lon="1.494487">
        <ele>199.8</ele>
        <time>1970-01-01T00:19:40.000Z</time>
      </trkpt>
      <trkpt lat="41.225058" lon="1.494499">
        <ele>201</ele>
        <time>1970-01-01T00:19:46.000Z</time>
      </trkpt>
      <trkpt lat="41.225079" lon="1.494501">
        <ele>201.2</ele>
        <time>1970-01-01T00:19:47.000Z</time>
      </trkpt>
      <trkpt lat="41.225135" lon="1.494516">
        <ele>201.7</ele>
        <time>1970-01-01T00:19:50.000Z</time>
      </trkpt>
      <trkpt lat="41.225194" lon="1.494523">
        <ele>202.3</ele>
        <time>1970-01-01T00:19:53.000Z</time>
      </trkpt>
      <trkpt lat="41.225251" lon="1.494491">
        <ele>202.9</ele>
        <time>1970-01-01T00:19:56.000Z</time>
      </trkpt>
      <trkpt lat="41.225305" lon="1.494434">
        <ele>203.6</ele>
        <time>1970-01-01T00:19:59.000Z</time>
      </trkpt>
      <trkpt lat="41.225345" lon="1.494397">
        <ele>204</ele>
        <time>1970-01-01T00:20:01.000Z</time>
      </trkpt>
      <trkpt lat="41.22547" lon="1.494275">
        <ele>205.5</ele>
        <time>1970-01-01T00:20:07.000Z</time>
      </trkpt>
      <trkpt lat="41.225575" lon="1.494145">
        <ele>207.1</ele>
        <time>1970-01-01T00:20:14.000Z</time>
      </trkpt>
      <trkpt lat="41.22563" lon="1.49408">
        <ele>208</ele>
        <time>1970-01-01T00:20:17.000Z</time>
      </trkpt>
      <trkpt lat="41.225687" lon="1.494021">
        <ele>208.9</ele>
        <time>1970-01-01T00:20:20.000Z</time>
      </trkpt>
      <trkpt lat="41.225727" lon="1.49399">
        <ele>209.5</ele>
        <time>1970-01-01T00:20:22.000Z</time>
      </trkpt>
      <trkpt lat="41.225818" lon="1.493924">
        <ele>211.1</ele>
        <time>1970-01-01T00:20:27.000Z</time>
      </trkpt>
      <trkpt lat="41.22587" lon="1.493869">
        <ele>212.2</ele>
        <time>1970-01-01T00:20:30.000Z</time>
      </trkpt>
      <trkpt lat="41.225893" lon="1.493831">
        <ele>212.7</ele>
        <time>1970-01-01T00:20:32.000Z</time>
      </trkpt>
      <trkpt lat="41.225898" lon="1.493808">
        <ele>213</ele>
        <time>1970-01-01T00:20:33.000Z</time>
      </trkpt>
      <trkpt lat="41.225925" lon="1.493705">
        <ele>214.3</ele>
        <time>1970-01-01T00:20:37.000Z</time>
      </trkpt>
      <trkpt lat="41.225946" lon="1.493663">
        <ele>214.9</ele>
        <time>1970-01-01T00:20:39.000Z</time>
      </trkpt>
      <trkpt lat="41.225978" lon="1.493628">
        <ele>215.5</ele>
        <time>1970-01-01T00:20:41.000Z</time>
      </trkpt>
      <trkpt lat="41.225991" lon="1.493606">
        <ele>215.8</ele>
        <time>1970-01-01T00:20:42.000Z</time>
      </trkpt>
      <trkpt lat="41.226025" lon="1.493547">
        <ele>216.6</ele>
        <time>1970-01-01T00:20:45.000Z</time>
      </trkpt>
      <trkpt lat="41.226052" lon="1.493503">
        <ele>217.1</ele>
        <time>1970-01-01T00:20:47.000Z</time>
      </trkpt>
      <trkpt lat="41.226067" lon="1.49348">
        <ele>217.4</ele>
        <time>1970-01-01T00:20:48.000Z</time>
      </trkpt>
      <trkpt lat="41.226108" lon="1.493418">
        <ele>218.1</ele>
        <time>1970-01-01T00:20:51.000Z</time>
      </trkpt>
      <trkpt lat="41.226142" lon="1.49336">
        <ele>218.7</ele>
        <time>1970-01-01T00:20:54.000Z</time>
      </trkpt>
      <trkpt lat="41.226154" lon="1.493319">
        <ele>219</ele>
        <time>1970-01-01T00:20:56.000Z</time>
      </trkpt>
      <trkpt lat="41.226185" lon="1.493212">
        <ele>219.8</ele>
        <time>1970-01-01T00:21:00.000Z</time>
      </trkpt>
      <trkpt lat="41.226193" lon="1.49319">
        <ele>219.9</ele>
        <time>1970-01-01T00:21:01.000Z</time>
      </trkpt>
      <trkpt lat="41.226222" lon="1.4931">
        <ele>220.6</ele>
        <time>1970-01-01T00:21:05.000Z</time>
      </trkpt>
      <trkpt lat="41.226242" lon="1.493053">
        <ele>220.9</ele>
        <time>1970-01-01T00:21:07.000Z</time>
      </trkpt>
      <trkpt lat="41.226344" lon="1.492892">
        <ele>222.4</ele>
        <time>1970-01-01T00:21:14.000Z</time>
      </trkpt>
      <trkpt lat="41.226359" lon="1.492868">
        <ele>222.6</ele>
        <time>1970-01-01T00:21:15.000Z</time>
      </trkpt>
      <trkpt lat="41.226412" lon="1.492756">
        <ele>223.7</ele>
        <time>1970-01-01T00:21:20.000Z</time>
      </trkpt>
      <trkpt lat="41.226422" lon="1.492738">
        <ele>223.9</ele>
        <time>1970-01-01T00:21:21.000Z</time>
      </trkpt>
      <trkpt lat="41.226451" lon="1.492694">
        <ele>224.5</ele>
        <time>1970-01-01T00:21:23.000Z</time>
      </trkpt>
      <trkpt lat="41.226468" lon="1.492675">
        <ele>224.8</ele>
        <time>1970-01-01T00:21:24.000Z</time>
      </trkpt>
      <trkpt lat="41.226481" lon="1.492663">
        <ele>225</ele>
        <time>1970-01-01T00:21:25.000Z</time>
      </trkpt>
      <trkpt lat="41.226491" lon="1.492654">
        <ele>225.2</ele>
        <time>1970-01-01T00:21:26.000Z</time>
      </trkpt>
      <trkpt lat="41.226527" lon="1.492586">
        <ele>226</ele>
        <time>1970-01-01T00:21:30.000Z</time>
      </trkpt>
      <trkpt lat="41.226544" lon="1.492507">
        <ele>226.8</ele>
        <time>1970-01-01T00:21:33.000Z</time>
      </trkpt>
      <trkpt lat="41.226569" lon="1.492444">
        <ele>227.5</ele>
        <time>1970-01-01T00:21:35.000Z</time>
      </trkpt>
      <trkpt lat="41.226577" lon="1.492408">
        <ele>227.8</ele>
        <time>1970-01-01T00:21:36.000Z</time>
      </trkpt>
      <trkpt lat="41.226565" lon="1.49227">
        <ele>229.2</ele>
        <time>1970-01-01T00:21:40.000Z</time>
      </trkpt>
      <trkpt lat="41.226555" lon="1.492244">
        <ele>229.6</ele>
        <time>1970-01-01T00:21:41.000Z</time>
      </trkpt>
      <trkpt lat="41.226539" lon="1.492194">
        <ele>230.3</ele>
        <time>1970-01-01T00:21:43.000Z</time>
      </trkpt>
      <trkpt lat="41.226526" lon="1.49214">
        <ele>231.2</ele>
        <time>1970-01-01T00:21:47.000Z</time>
      </trkpt>
      <trkpt lat="41.226522" lon="1.492131">
        <ele>231.3</ele>
        <time>1970-01-01T00:21:50.000Z</time>
      </trkpt>
      <trkpt lat="41.226523" lon="1.49213">
        <ele>231.4</ele>
        <time>1970-01-01T00:21:52.000Z</time>
      </trkpt>
      <trkpt lat="41.226522" lon="1.492127">
        <ele>231.4</ele>
        <time>1970-01-01T00:21:54.000Z</time>
      </trkpt>
      <trkpt lat="41.226523" lon="1.492118">
        <ele>231.6</ele>
        <time>1970-01-01T00:21:56.000Z</time>
      </trkpt>
      <trkpt lat="41.22652" lon="1.492107">
        <ele>231.8</ele>
        <time>1970-01-01T00:21:59.000Z</time>
      </trkpt>
      <trkpt lat="41.226513" lon="1.492092">
        <ele>232.1</ele>
        <time>1970-01-01T00:22:02.000Z</time>
      </trkpt>
      <trkpt lat="41.226504" lon="1.492065">
        <ele>232.6</ele>
        <time>1970-01-01T00:22:05.000Z</time>
      </trkpt>
      <trkpt lat="41.226496" lon="1.492037">
        <ele>233.2</ele>
        <time>1970-01-01T00:22:07.000Z</time>
      </trkpt>
      <trkpt lat="41.226498" lon="1.492011">
        <ele>233.6</ele>
        <time>1970-01-01T00:22:10.000Z</time>
      </trkpt>
      <trkpt lat="41.22651" lon="1.492003">
        <ele>234</ele>
        <time>1970-01-01T00:22:14.000Z</time>
      </trkpt>
      <trkpt lat="41.226518" lon="1.492">
        <ele>234.2</ele>
        <time>1970-01-01T00:22:15.000Z</time>
      </trkpt>
      <trkpt lat="41.226552" lon="1.491951">
        <ele>235.4</ele>
        <time>1970-01-01T00:22:21.000Z</time>
      </trkpt>
      <trkpt lat="41.226561" lon="1.49193">
        <ele>235.9</ele>
        <time>1970-01-01T00:22:23.000Z</time>
      </trkpt>
      <trkpt lat="41.226583" lon="1.491887">
        <ele>236.8</ele>
        <time>1970-01-01T00:22:30.000Z</time>
      </trkpt>
      <trkpt lat="41.226611" lon="1.491854">
        <ele>237.6</ele>
        <time>1970-01-01T00:22:36.000Z</time>
      </trkpt>
      <trkpt lat="41.226614" lon="1.491844">
        <ele>237.7</ele>
        <time>1970-01-01T00:22:37.000Z</time>
      </trkpt>
      <trkpt lat="41.226617" lon="1.491829">
        <ele>238.4</ele>
        <time>1970-01-01T00:22:39.000Z</time>
      </trkpt>
      <trkpt lat="41.226611" lon="1.491814">
        <ele>238.5</ele>
        <time>1970-01-01T00:22:41.000Z</time>
      </trkpt>
      <trkpt lat="41.226594" lon="1.491787">
        <ele>238.8</ele>
        <time>1970-01-01T00:22:45.000Z</time>
      </trkpt>
      <trkpt lat="41.226596" lon="1.49176">
        <ele>239</ele>
        <time>1970-01-01T00:22:48.000Z</time>
      </trkpt>
      <trkpt lat="41.226604" lon="1.491737">
        <ele>239.3</ele>
        <time>1970-01-01T00:22:50.000Z</time>
      </trkpt>
      <trkpt lat="41.226614" lon="1.491694">
        <ele>239.7</ele>
        <time>1970-01-01T00:22:55.000Z</time>
      </trkpt>
      <trkpt lat="41.226612" lon="1.491675">
        <ele>239.8</ele>
        <time>1970-01-01T00:22:57.000Z</time>
      </trkpt>
      <trkpt lat="41.226619" lon="1.49163">
        <ele>240.2</ele>
        <time>1970-01-01T00:23:02.000Z</time>
      </trkpt>
      <trkpt lat="41.226624" lon="1.491615">
        <ele>240.4</ele>
        <time>1970-01-01T00:23:04.000Z</time>
      </trkpt>
      <trkpt lat="41.226639" lon="1.491609">
        <ele>240.6</ele>
        <time>1970-01-01T00:23:08.000Z</time>
      </trkpt>
      <trkpt lat="41.226662" lon="1.491616">
        <ele>240.8</ele>
        <time>1970-01-01T00:23:11.000Z</time>
      </trkpt>
      <trkpt lat="41.226678" lon="1.491624">
        <ele>241</ele>
        <time>1970-01-01T00:23:13.000Z</time>
      </trkpt>
      <trkpt lat="41.226735" lon="1.491639">
        <ele>241.6</ele>
        <time>1970-01-01T00:23:18.000Z</time>
      </trkpt>
      <trkpt lat="41.226788" lon="1.49164">
        <ele>242.1</ele>
        <time>1970-01-01T00:23:21.000Z</time>
      </trkpt>
      <trkpt lat="41.226824" lon="1.49165">
        <ele>242.3</ele>
        <time>1970-01-01T00:23:23.000Z</time>
      </trkpt>
      <trkpt lat="41.226845" lon="1.491661">
        <ele>242.5</ele>
        <time>1970-01-01T00:23:24.000Z</time>
      </trkpt>
      <trkpt lat="41.226868" lon="1.491666">
        <ele>242.7</ele>
        <time>1970-01-01T00:23:25.000Z</time>
      </trkpt>
      <trkpt lat="41.226948" lon="1.491647">
        <ele>243.4</ele>
        <time>1970-01-01T00:23:28.000Z</time>
      </trkpt>
      <trkpt lat="41.227059" lon="1.491579">
        <ele>244.7</ele>
        <time>1970-01-01T00:23:33.000Z</time>
      </trkpt>
      <trkpt lat="41.227088" lon="1.491541">
        <ele>245.2</ele>
        <time>1970-01-01T00:23:35.000Z</time>
      </trkpt>
      <trkpt lat="41.227113" lon="1.491492">
        <ele>245.8</ele>
        <time>1970-01-01T00:23:38.000Z</time>
      </trkpt>
      <trkpt lat="41.227115" lon="1.491489">
        <ele>245.9</ele>
        <time>1970-01-01T00:23:40.000Z</time>
      </trkpt>
      <trkpt lat="41.227115" lon="1.491487">
        <ele>245.9</ele>
        <time>1970-01-01T00:23:41.000Z</time>
      </trkpt>
      <trkpt lat="41.227116" lon="1.491484">
        <ele>245.9</ele>
        <time>1970-01-01T00:23:42.000Z</time>
      </trkpt>
      <trkpt lat="41.227121" lon="1.491472">
        <ele>246.1</ele>
        <time>1970-01-01T00:23:44.000Z</time>
      </trkpt>
      <trkpt lat="41.227132" lon="1.491462">
        <ele>246.3</ele>
        <time>1970-01-01T00:23:48.000Z</time>
      </trkpt>
      <trkpt lat="41.227133" lon="1.491459">
        <ele>246.3</ele>
        <time>1970-01-01T00:23:49.000Z</time>
      </trkpt>
      <trkpt lat="41.227144" lon="1.491444">
        <ele>246.5</ele>
        <time>1970-01-01T00:23:51.000Z</time>
      </trkpt>
      <trkpt lat="41.227159" lon="1.491421">
        <ele>246.9</ele>
        <time>1970-01-01T00:23:54.000Z</time>
      </trkpt>
      <trkpt lat="41.227188" lon="1.49139">
        <ele>247.5</ele>
        <time>1970-01-01T00:23:57.000Z</time>
      </trkpt>
      <trkpt lat="41.227213" lon="1.491354">
        <ele>248</ele>
        <time>1970-01-01T00:23:59.000Z</time>
      </trkpt>
      <trkpt lat="41.227234" lon="1.491282">
        <ele>248.9</ele>
        <time>1970-01-01T00:24:02.000Z</time>
      </trkpt>
      <trkpt lat="41.227255" lon="1.491242">
        <ele>249.4</ele>
        <time>1970-01-01T00:24:04.000Z</time>
      </trkpt>
      <trkpt lat="41.227269" lon="1.49123">
        <ele>249.7</ele>
        <time>1970-01-01T00:24:05.000Z</time>
      </trkpt>
      <trkpt lat="41.227284" lon="1.491225">
        <ele>249.9</ele>
        <time>1970-01-01T00:24:06.000Z</time>
      </trkpt>
      <trkpt lat="41.227338" lon="1.491223">
        <ele>250.5</ele>
        <time>1970-01-01T00:24:09.000Z</time>
      </trkpt>
      <trkpt lat="41.227359" lon="1.491231">
        <ele>250.8</ele>
        <time>1970-01-01T00:24:10.000Z</time>
      </trkpt>
      <trkpt lat="41.227429" lon="1.491298">
        <ele>251.1</ele>
        <time>1970-01-01T00:24:13.000Z</time>
      </trkpt>
      <trkpt lat="41.227454" lon="1.491329">
        <ele>251.2</ele>
        <time>1970-01-01T00:24:14.000Z</time>
      </trkpt>
      <trkpt lat="41.227478" lon="1.491359">
        <ele>251.3</ele>
        <time>1970-01-01T00:24:15.000Z</time>
      </trkpt>
      <trkpt lat="41.227594" lon="1.491467">
        <ele>251.9</ele>
        <time>1970-01-01T00:24:20.000Z</time>
      </trkpt>
      <trkpt lat="41.227703" lon="1.491516">
        <ele>252.7</ele>
        <time>1970-01-01T00:24:25.000Z</time>
      </trkpt>
      <trkpt lat="41.227736" lon="1.491518">
        <ele>253</ele>
        <time>1970-01-01T00:24:27.000Z</time>
      </trkpt>
      <trkpt lat="41.227752" lon="1.491529">
        <ele>253.1</ele>
        <time>1970-01-01T00:24:28.000Z</time>
      </trkpt>
      <trkpt lat="41.227786" lon="1.491554">
        <ele>253.4</ele>
        <time>1970-01-01T00:24:30.000Z</time>
      </trkpt>
      <trkpt lat="41.227819" lon="1.491554">
        <ele>253.6</ele>
        <time>1970-01-01T00:24:32.000Z</time>
      </trkpt>
      <trkpt lat="41.227849" lon="1.491528">
        <ele>253.9</ele>
        <time>1970-01-01T00:24:34.000Z</time>
      </trkpt>
      <trkpt lat="41.227867" lon="1.491517">
        <ele>254</ele>
        <time>1970-01-01T00:24:35.000Z</time>
      </trkpt>
      <trkpt lat="41.227927" lon="1.491568">
        <ele>254.3</ele>
        <time>1970-01-01T00:24:39.000Z</time>
      </trkpt>
      <trkpt lat="41.227952" lon="1.491642">
        <ele>254.5</ele>
        <time>1970-01-01T00:24:41.000Z</time>
      </trkpt>
      <trkpt lat="41.227995" lon="1.491711">
        <ele>254.7</ele>
        <time>1970-01-01T00:24:43.000Z</time>
      </trkpt>
      <trkpt lat="41.228082" lon="1.491865">
        <ele>254.9</ele>
        <time>1970-01-01T00:24:48.000Z</time>
      </trkpt>
      <trkpt lat="41.228181" lon="1.491986">
        <ele>255.7</ele>
        <time>1970-01-01T00:24:55.000Z</time>
      </trkpt>
      <trkpt lat="41.228235" lon="1.492051">
        <ele>256.5</ele>
        <time>1970-01-01T00:25:00.000Z</time>
      </trkpt>
      <trkpt lat="41.228258" lon="1.492089">
        <ele>257</ele>
        <time>1970-01-01T00:25:02.000Z</time>
      </trkpt>
      <trkpt lat="41.22827" lon="1.492107">
        <ele>257.2</ele>
        <time>1970-01-01T00:25:03.000Z</time>
      </trkpt>
      <trkpt lat="41.228283" lon="1.492126">
        <ele>257.5</ele>
        <time>1970-01-01T00:25:04.000Z</time>
      </trkpt>
      <trkpt lat="41.228292" lon="1.492146">
        <ele>257.8</ele>
        <time>1970-01-01T00:25:05.000Z</time>
      </trkpt>
      <trkpt lat="41.228303" lon="1.492187">
        <ele>258.4</ele>
        <time>1970-01-01T00:25:07.000Z</time>
      </trkpt>
      <trkpt lat="41.228308" lon="1.492208">
        <ele>258.7</ele>
        <time>1970-01-01T00:25:08.000Z</time>
      </trkpt>
      <trkpt lat="41.22832" lon="1.492251">
        <ele>259.3</ele>
        <time>1970-01-01T00:25:10.000Z</time>
      </trkpt>
      <trkpt lat="41.228325" lon="1.492266">
        <ele>259.5</ele>
        <time>1970-01-01T00:25:11.000Z</time>
      </trkpt>
      <trkpt lat="41.22833" lon="1.492277">
        <ele>259.7</ele>
        <time>1970-01-01T00:25:12.000Z</time>
      </trkpt>
      <trkpt lat="41.228345" lon="1.492298">
        <ele>260.2</ele>
        <time>1970-01-01T00:25:14.000Z</time>
      </trkpt>
      <trkpt lat="41.228364" lon="1.492326">
        <ele>260.7</ele>
        <time>1970-01-01T00:25:16.000Z</time>
      </trkpt>
      <trkpt lat="41.228373" lon="1.492336">
        <ele>260.9</ele>
        <time>1970-01-01T00:25:17.000Z</time>
      </trkpt>
      <trkpt lat="41.228381" lon="1.492339">
        <ele>261.1</ele>
        <time>1970-01-01T00:25:18.000Z</time>
      </trkpt>
      <trkpt lat="41.228412" lon="1.492328">
        <ele>261.7</ele>
        <time>1970-01-01T00:25:20.000Z</time>
      </trkpt>
      <trkpt lat="41.228459" lon="1.492315">
        <ele>262.7</ele>
        <time>1970-01-01T00:25:23.000Z</time>
      </trkpt>
      <trkpt lat="41.228537" lon="1.492299">
        <ele>264</ele>
        <time>1970-01-01T00:25:27.000Z</time>
      </trkpt>
      <trkpt lat="41.228558" lon="1.492298">
        <ele>264.3</ele>
        <time>1970-01-01T00:25:28.000Z</time>
      </trkpt>
      <trkpt lat="41.228612" lon="1.492303">
        <ele>265</ele>
        <time>1970-01-01T00:25:31.000Z</time>
      </trkpt>
      <trkpt lat="41.228664" lon="1.492282">
        <ele>265.6</ele>
        <time>1970-01-01T00:25:34.000Z</time>
      </trkpt>
      <trkpt lat="41.2287" lon="1.492272">
        <ele>266</ele>
        <time>1970-01-01T00:25:36.000Z</time>
      </trkpt>
      <trkpt lat="41.228764" lon="1.492262">
        <ele>266.6</ele>
        <time>1970-01-01T00:25:40.000Z</time>
      </trkpt>
      <trkpt lat="41.228797" lon="1.492258">
        <ele>267</ele>
        <time>1970-01-01T00:25:42.000Z</time>
      </trkpt>
      <trkpt lat="41.228871" lon="1.492247">
        <ele>267.8</ele>
        <time>1970-01-01T00:25:47.000Z</time>
      </trkpt>
      <trkpt lat="41.228888" lon="1.492246">
        <ele>268</ele>
        <time>1970-01-01T00:25:48.000Z</time>
      </trkpt>
      <trkpt lat="41.228954" lon="1.492238">
        <ele>268.8</ele>
        <time>1970-01-01T00:25:52.000Z</time>
      </trkpt>
      <trkpt lat="41.22897" lon="1.492236">
        <ele>269</ele>
        <time>1970-01-01T00:25:53.000Z</time>
      </trkpt>
      <trkpt lat="41.229021" lon="1.492218">
        <ele>269.7</ele>
        <time>1970-01-01T00:25:56.000Z</time>
      </trkpt>
      <trkpt lat="41.22906" lon="1.492211">
        <ele>270.2</ele>
        <time>1970-01-01T00:25:58.000Z</time>
      </trkpt>
      <trkpt lat="41.229079" lon="1.492218">
        <ele>270.5</ele>
        <time>1970-01-01T00:25:59.000Z</time>
      </trkpt>
      <trkpt lat="41.229093" lon="1.49223">
        <ele>270.7</ele>
        <time>1970-01-01T00:26:00.000Z</time>
      </trkpt>
      <trkpt lat="41.229119" lon="1.492248">
        <ele>271.1</ele>
        <time>1970-01-01T00:26:02.000Z</time>
      </trkpt>
      <trkpt lat="41.229135" lon="1.492255">
        <ele>271.3</ele>
        <time>1970-01-01T00:26:03.000Z</time>
      </trkpt>
      <trkpt lat="41.22917" lon="1.49226">
        <ele>271.8</ele>
        <time>1970-01-01T00:26:05.000Z</time>
      </trkpt>
      <trkpt lat="41.229205" lon="1.492263">
        <ele>272.2</ele>
        <time>1970-01-01T00:26:07.000Z</time>
      </trkpt>
      <trkpt lat="41.22922" lon="1.492272">
        <ele>272.4</ele>
        <time>1970-01-01T00:26:08.000Z</time>
      </trkpt>
      <trkpt lat="41.229273" lon="1.492302">
        <ele>273.1</ele>
        <time>1970-01-01T00:26:11.000Z</time>
      </trkpt>
      <trkpt lat="41.229319" lon="1.492321">
        <ele>273.5</ele>
        <time>1970-01-01T00:26:13.000Z</time>
      </trkpt>
      <trkpt lat="41.229343" lon="1.492324">
        <ele>273.6</ele>
        <time>1970-01-01T00:26:14.000Z</time>
      </trkpt>
      <trkpt lat="41.22937" lon="1.492326">
        <ele>273.8</ele>
        <time>1970-01-01T00:26:17.000Z</time>
      </trkpt>
      <trkpt lat="41.229378" lon="1.492323">
        <ele>273.8</ele>
        <time>1970-01-01T00:26:19.000Z</time>
      </trkpt>
      <trkpt lat="41.229438" lon="1.492315">
        <ele>274.1</ele>
        <time>1970-01-01T00:26:22.000Z</time>
      </trkpt>
      <trkpt lat="41.22956" lon="1.492242">
        <ele>272.5</ele>
        <time>1970-01-01T00:26:26.000Z</time>
      </trkpt>
      <trkpt lat="41.229671" lon="1.49228">
        <ele>271.1</ele>
        <time>1970-01-01T00:26:29.000Z</time>
      </trkpt>
      <trkpt lat="41.229749" lon="1.492365">
        <ele>269.7</ele>
        <time>1970-01-01T00:26:32.000Z</time>
      </trkpt>
      <trkpt lat="41.229782" lon="1.492385">
        <ele>269.1</ele>
        <time>1970-01-01T00:26:33.000Z</time>
      </trkpt>
      <trkpt lat="41.229867" lon="1.492415">
        <ele>267.7</ele>
        <time>1970-01-01T00:26:35.000Z</time>
      </trkpt>
      <trkpt lat="41.229913" lon="1.492438">
        <ele>266.8</ele>
        <time>1970-01-01T00:26:36.000Z</time>
      </trkpt>
      <trkpt lat="41.229958" lon="1.492466">
        <ele>266</ele>
        <time>1970-01-01T00:26:37.000Z</time>
      </trkpt>
      <trkpt lat="41.230001" lon="1.492493">
        <ele>265.2</ele>
        <time>1970-01-01T00:26:38.000Z</time>
      </trkpt>
      <trkpt lat="41.230038" lon="1.492526">
        <ele>264.5</ele>
        <time>1970-01-01T00:26:39.000Z</time>
      </trkpt>
      <trkpt lat="41.23007" lon="1.492563">
        <ele>263.8</ele>
        <time>1970-01-01T00:26:40.000Z</time>
      </trkpt>
      <trkpt lat="41.23014" lon="1.492647">
        <ele>262.2</ele>
        <time>1970-01-01T00:26:42.000Z</time>
      </trkpt>
      <trkpt lat="41.23022" lon="1.492719">
        <ele>260.4</ele>
        <time>1970-01-01T00:26:44.000Z</time>
      </trkpt>
      <trkpt lat="41.230282" lon="1.492813">
        <ele>258.6</ele>
        <time>1970-01-01T00:26:46.000Z</time>
      </trkpt>
      <trkpt lat="41.230315" lon="1.492865">
        <ele>257.7</ele>
        <time>1970-01-01T00:26:47.000Z</time>
      </trkpt>
      <trkpt lat="41.230343" lon="1.492918">
        <ele>256.9</ele>
        <time>1970-01-01T00:26:48.000Z</time>
      </trkpt>
      <trkpt lat="41.230364" lon="1.492972">
        <ele>256.2</ele>
        <time>1970-01-01T00:26:49.000Z</time>
      </trkpt>
      <trkpt lat="41.230402" lon="1.493082">
        <ele>255.1</ele>
        <time>1970-01-01T00:26:51.000Z</time>
      </trkpt>
      <trkpt lat="41.230441" lon="1.493142">
        <ele>254.5</ele>
        <time>1970-01-01T00:26:53.000Z</time>
      </trkpt>
      <trkpt lat="41.23047" lon="1.493162">
        <ele>254.2</ele>
        <time>1970-01-01T00:26:54.000Z</time>
      </trkpt>
      <trkpt lat="41.23054" lon="1.493186">
        <ele>253.6</ele>
        <time>1970-01-01T00:26:56.000Z</time>
      </trkpt>
      <trkpt lat="41.230605" lon="1.493195">
        <ele>253</ele>
        <time>1970-01-01T00:26:58.000Z</time>
      </trkpt>
      <trkpt lat="41.230659" lon="1.493234">
        <ele>252.5</ele>
        <time>1970-01-01T00:27:00.000Z</time>
      </trkpt>
      <trkpt lat="41.230722" lon="1.493267">
        <ele>252</ele>
        <time>1970-01-01T00:27:02.000Z</time>
      </trkpt>
      <trkpt lat="41.230759" lon="1.49328">
        <ele>251.8</ele>
        <time>1970-01-01T00:27:03.000Z</time>
      </trkpt>
      <trkpt lat="41.230797" lon="1.493298">
        <ele>251.5</ele>
        <time>1970-01-01T00:27:04.000Z</time>
      </trkpt>
      <trkpt lat="41.230901" lon="1.493319">
        <ele>250.8</ele>
        <time>1970-01-01T00:27:07.000Z</time>
      </trkpt>
      <trkpt lat="41.230978" lon="1.493286">
        <ele>250.4</ele>
        <time>1970-01-01T00:27:10.000Z</time>
      </trkpt>
      <trkpt lat="41.230996" lon="1.493274">
        <ele>250.4</ele>
        <time>1970-01-01T00:27:11.000Z</time>
      </trkpt>
      <trkpt lat="41.231025" lon="1.493228">
        <ele>250.2</ele>
        <time>1970-01-01T00:27:13.000Z</time>
      </trkpt>
      <trkpt lat="41.231023" lon="1.493153">
        <ele>250</ele>
        <time>1970-01-01T00:27:15.000Z</time>
      </trkpt>
      <trkpt lat="41.23104" lon="1.492961">
        <ele>249.6</ele>
        <time>1970-01-01T00:27:20.000Z</time>
      </trkpt>
      <trkpt lat="41.231051" lon="1.492919">
        <ele>249.5</ele>
        <time>1970-01-01T00:27:21.000Z</time>
      </trkpt>
      <trkpt lat="41.231137" lon="1.492745">
        <ele>249.1</ele>
        <time>1970-01-01T00:27:25.000Z</time>
      </trkpt>
      <trkpt lat="41.231261" lon="1.492561">
        <ele>248.7</ele>
        <time>1970-01-01T00:27:30.000Z</time>
      </trkpt>
      <trkpt lat="41.231292" lon="1.492486">
        <ele>248.5</ele>
        <time>1970-01-01T00:27:32.000Z</time>
      </trkpt>
      <trkpt lat="41.231351" lon="1.492389">
        <ele>248</ele>
        <time>1970-01-01T00:27:35.000Z</time>
      </trkpt>
      <trkpt lat="41.231465" lon="1.492276">
        <ele>246.7</ele>
        <time>1970-01-01T00:27:39.000Z</time>
      </trkpt>
      <trkpt lat="41.231499" lon="1.492233">
        <ele>246.2</ele>
        <time>1970-01-01T00:27:40.000Z</time>
      </trkpt>
      <trkpt lat="41.2316" lon="1.492104">
        <ele>244.4</ele>
        <time>1970-01-01T00:27:43.000Z</time>
      </trkpt>
      <trkpt lat="41.231662" lon="1.492045">
        <ele>243.4</ele>
        <time>1970-01-01T00:27:45.000Z</time>
      </trkpt>
      <trkpt lat="41.231691" lon="1.492011">
        <ele>242.9</ele>
        <time>1970-01-01T00:27:46.000Z</time>
      </trkpt>
      <trkpt lat="41.231721" lon="1.491982">
        <ele>242.4</ele>
        <time>1970-01-01T00:27:47.000Z</time>
      </trkpt>
      <trkpt lat="41.231745" lon="1.491951">
        <ele>242</ele>
        <time>1970-01-01T00:27:48.000Z</time>
      </trkpt>
      <trkpt lat="41.231782" lon="1.491864">
        <ele>241</ele>
        <time>1970-01-01T00:27:50.000Z</time>
      </trkpt>
      <trkpt lat="41.231801" lon="1.491817">
        <ele>240.5</ele>
        <time>1970-01-01T00:27:51.000Z</time>
      </trkpt>
      <trkpt lat="41.231827" lon="1.49178">
        <ele>239.9</ele>
        <time>1970-01-01T00:27:52.000Z</time>
      </trkpt>
      <trkpt lat="41.231887" lon="1.491717">
        <ele>238.6</ele>
        <time>1970-01-01T00:27:54.000Z</time>
      </trkpt>
      <trkpt lat="41.231914" lon="1.491686">
        <ele>237.9</ele>
        <time>1970-01-01T00:27:55.000Z</time>
      </trkpt>
      <trkpt lat="41.231936" lon="1.491657">
        <ele>237.3</ele>
        <time>1970-01-01T00:27:56.000Z</time>
      </trkpt>
      <trkpt lat="41.23199" lon="1.491572">
        <ele>235.6</ele>
        <time>1970-01-01T00:27:59.000Z</time>
      </trkpt>
      <trkpt lat="41.232048" lon="1.491454">
        <ele>233.4</ele>
        <time>1970-01-01T00:28:02.000Z</time>
      </trkpt>
      <trkpt lat="41.232065" lon="1.491423">
        <ele>232.9</ele>
        <time>1970-01-01T00:28:03.000Z</time>
      </trkpt>
      <trkpt lat="41.232079" lon="1.491397">
        <ele>232.4</ele>
        <time>1970-01-01T00:28:04.000Z</time>
      </trkpt>
      <trkpt lat="41.232096" lon="1.491371">
        <ele>231.9</ele>
        <time>1970-01-01T00:28:05.000Z</time>
      </trkpt>
      <trkpt lat="41.232123" lon="1.491298">
        <ele>230.7</ele>
        <time>1970-01-01T00:28:07.000Z</time>
      </trkpt>
      <trkpt lat="41.232121" lon="1.491253">
        <ele>230.1</ele>
        <time>1970-01-01T00:28:08.000Z</time>
      </trkpt>
      <trkpt lat="41.232118" lon="1.491208">
        <ele>229.5</ele>
        <time>1970-01-01T00:28:09.000Z</time>
      </trkpt>
      <trkpt lat="41.232146" lon="1.491129">
        <ele>228.4</ele>
        <time>1970-01-01T00:28:11.000Z</time>
      </trkpt>
      <trkpt lat="41.232175" lon="1.491104">
        <ele>227.8</ele>
        <time>1970-01-01T00:28:12.000Z</time>
      </trkpt>
      <trkpt lat="41.232204" lon="1.491077">
        <ele>227.3</ele>
        <time>1970-01-01T00:28:13.000Z</time>
      </trkpt>
      <trkpt lat="41.232257" lon="1.491002">
        <ele>226.5</ele>
        <time>1970-01-01T00:28:15.000Z</time>
      </trkpt>
      <trkpt lat="41.232285" lon="1.490976">
        <ele>226.1</ele>
        <time>1970-01-01T00:28:16.000Z</time>
      </trkpt>
      <trkpt lat="41.232314" lon="1.490972">
        <ele>225.9</ele>
        <time>1970-01-01T00:28:17.000Z</time>
      </trkpt>
      <trkpt lat="41.232382" lon="1.490969">
        <ele>225.4</ele>
        <time>1970-01-01T00:28:19.000Z</time>
      </trkpt>
      <trkpt lat="41.232483" lon="1.490999">
        <ele>224.7</ele>
        <time>1970-01-01T00:28:22.000Z</time>
      </trkpt>
      <trkpt lat="41.232518" lon="1.491022">
        <ele>224.5</ele>
        <time>1970-01-01T00:28:23.000Z</time>
      </trkpt>
      <trkpt lat="41.232627" lon="1.491037">
        <ele>223.7</ele>
        <time>1970-01-01T00:28:26.000Z</time>
      </trkpt>
      <trkpt lat="41.232664" lon="1.491037">
        <ele>223.4</ele>
        <time>1970-01-01T00:28:27.000Z</time>
      </trkpt>
      <trkpt lat="41.232774" lon="1.490997">
        <ele>222.4</ele>
        <time>1970-01-01T00:28:30.000Z</time>
      </trkpt>
      <trkpt lat="41.232813" lon="1.490966">
        <ele>222</ele>
        <time>1970-01-01T00:28:31.000Z</time>
      </trkpt>
      <trkpt lat="41.232899" lon="1.490908">
        <ele>221.1</ele>
        <time>1970-01-01T00:28:33.000Z</time>
      </trkpt>
      <trkpt lat="41.232997" lon="1.490866">
        <ele>220.3</ele>
        <time>1970-01-01T00:28:35.000Z</time>
      </trkpt>
      <trkpt lat="41.233056" lon="1.490844">
        <ele>219.8</ele>
        <time>1970-01-01T00:28:36.000Z</time>
      </trkpt>
      <trkpt lat="41.233114" lon="1.49082">
        <ele>219.4</ele>
        <time>1970-01-01T00:28:37.000Z</time>
      </trkpt>
      <trkpt lat="41.233223" lon="1.490759">
        <ele>218.7</ele>
        <time>1970-01-01T00:28:39.000Z</time>
      </trkpt>
      <trkpt lat="41.233328" lon="1.490699">
        <ele>218.1</ele>
        <time>1970-01-01T00:28:41.000Z</time>
      </trkpt>
      <trkpt lat="41.233374" lon="1.490678">
        <ele>217.9</ele>
        <time>1970-01-01T00:28:42.000Z</time>
      </trkpt>
      <trkpt lat="41.233458" lon="1.490659">
        <ele>217.7</ele>
        <time>1970-01-01T00:28:44.000Z</time>
      </trkpt>
      <trkpt lat="41.233497" lon="1.49065">
        <ele>217.5</ele>
        <time>1970-01-01T00:28:45.000Z</time>
      </trkpt>
      <trkpt lat="41.23364" lon="1.490628">
        <ele>216.9</ele>
        <time>1970-01-01T00:28:49.000Z</time>
      </trkpt>
      <trkpt lat="41.233722" lon="1.490618">
        <ele>216.6</ele>
        <time>1970-01-01T00:28:51.000Z</time>
      </trkpt>
      <trkpt lat="41.233767" lon="1.490603">
        <ele>216.4</ele>
        <time>1970-01-01T00:28:52.000Z</time>
      </trkpt>
      <trkpt lat="41.233945" lon="1.490517">
        <ele>215.6</ele>
        <time>1970-01-01T00:28:56.000Z</time>
      </trkpt>
      <trkpt lat="41.233981" lon="1.490493">
        <ele>215.4</ele>
        <time>1970-01-01T00:28:57.000Z</time>
      </trkpt>
      <trkpt lat="41.234052" lon="1.490449">
        <ele>215.1</ele>
        <time>1970-01-01T00:28:59.000Z</time>
      </trkpt>
      <trkpt lat="41.234124" lon="1.490399">
        <ele>214.7</ele>
        <time>1970-01-01T00:29:01.000Z</time>
      </trkpt>
      <trkpt lat="41.234163" lon="1.490371">
        <ele>214.5</ele>
        <time>1970-01-01T00:29:02.000Z</time>
      </trkpt>
      <trkpt lat="41.234353" lon="1.490198">
        <ele>213.4</ele>
        <time>1970-01-01T00:29:07.000Z</time>
      </trkpt>
      <trkpt lat="41.234397" lon="1.490109">
        <ele>213.1</ele>
        <time>1970-01-01T00:29:09.000Z</time>
      </trkpt>
      <trkpt lat="41.234452" lon="1.489924">
        <ele>212.2</ele>
        <time>1970-01-01T00:29:13.000Z</time>
      </trkpt>
      <trkpt lat="41.234463" lon="1.489871">
        <ele>211.9</ele>
        <time>1970-01-01T00:29:14.000Z</time>
      </trkpt>
      <trkpt lat="41.234511" lon="1.48973">
        <ele>210.6</ele>
        <time>1970-01-01T00:29:17.000Z</time>
      </trkpt>
      <trkpt lat="41.234569" lon="1.489623">
        <ele>209.4</ele>
        <time>1970-01-01T00:29:21.000Z</time>
      </trkpt>
      <trkpt lat="41.234624" lon="1.4895">
        <ele>207.9</ele>
        <time>1970-01-01T00:29:24.000Z</time>
      </trkpt>
      <trkpt lat="41.234663" lon="1.489419">
        <ele>207</ele>
        <time>1970-01-01T00:29:26.000Z</time>
      </trkpt>
      <trkpt lat="41.234686" lon="1.489392">
        <ele>206.7</ele>
        <time>1970-01-01T00:29:27.000Z</time>
      </trkpt>
      <trkpt lat="41.234713" lon="1.489373">
        <ele>206.3</ele>
        <time>1970-01-01T00:29:28.000Z</time>
      </trkpt>
      <trkpt lat="41.23474" lon="1.489354">
        <ele>206</ele>
        <time>1970-01-01T00:29:29.000Z</time>
      </trkpt>
      <trkpt lat="41.234768" lon="1.489337">
        <ele>205.7</ele>
        <time>1970-01-01T00:29:30.000Z</time>
      </trkpt>
      <trkpt lat="41.234798" lon="1.48933">
        <ele>205.5</ele>
        <time>1970-01-01T00:29:31.000Z</time>
      </trkpt>
      <trkpt lat="41.234858" lon="1.489332">
        <ele>205.1</ele>
        <time>1970-01-01T00:29:33.000Z</time>
      </trkpt>
      <trkpt lat="41.23488" lon="1.489319">
        <ele>204.9</ele>
        <time>1970-01-01T00:29:34.000Z</time>
      </trkpt>
      <trkpt lat="41.234869" lon="1.489263">
        <ele>204.5</ele>
        <time>1970-01-01T00:29:36.000Z</time>
      </trkpt>
      <trkpt lat="41.234776" lon="1.489152">
        <ele>203.4</ele>
        <time>1970-01-01T00:29:39.000Z</time>
      </trkpt>
      <trkpt lat="41.234733" lon="1.48911">
        <ele>202.9</ele>
        <time>1970-01-01T00:29:40.000Z</time>
      </trkpt>
      <trkpt lat="41.234693" lon="1.489064">
        <ele>202.5</ele>
        <time>1970-01-01T00:29:41.000Z</time>
      </trkpt>
      <trkpt lat="41.234663" lon="1.489013">
        <ele>202.1</ele>
        <time>1970-01-01T00:29:42.000Z</time>
      </trkpt>
      <trkpt lat="41.234646" lon="1.488958">
        <ele>201.9</ele>
        <time>1970-01-01T00:29:43.000Z</time>
      </trkpt>
      <trkpt lat="41.234554" lon="1.488734">
        <ele>200.5</ele>
        <time>1970-01-01T00:29:47.000Z</time>
      </trkpt>
      <trkpt lat="41.234529" lon="1.488673">
        <ele>200.1</ele>
        <time>1970-01-01T00:29:48.000Z</time>
      </trkpt>
      <trkpt lat="41.234529" lon="1.488542">
        <ele>199.3</ele>
        <time>1970-01-01T00:29:50.000Z</time>
      </trkpt>
      <trkpt lat="41.23459" lon="1.488344">
        <ele>198.2</ele>
        <time>1970-01-01T00:29:53.000Z</time>
      </trkpt>
      <trkpt lat="41.234638" lon="1.488216">
        <ele>197.7</ele>
        <time>1970-01-01T00:29:55.000Z</time>
      </trkpt>
      <trkpt lat="41.234653" lon="1.488148">
        <ele>197.3</ele>
        <time>1970-01-01T00:29:56.000Z</time>
      </trkpt>
      <trkpt lat="41.234652" lon="1.487997">
        <ele>196.6</ele>
        <time>1970-01-01T00:29:58.000Z</time>
      </trkpt>
      <trkpt lat="41.234654" lon="1.487857">
        <ele>195.5</ele>
        <time>1970-01-01T00:30:00.000Z</time>
      </trkpt>
      <trkpt lat="41.234682" lon="1.48771">
        <ele>194.1</ele>
        <time>1970-01-01T00:30:02.000Z</time>
      </trkpt>
      <trkpt lat="41.234688" lon="1.487636">
        <ele>193.4</ele>
        <time>1970-01-01T00:30:03.000Z</time>
      </trkpt>
      <trkpt lat="41.234673" lon="1.487479">
        <ele>191.9</ele>
        <time>1970-01-01T00:30:05.000Z</time>
      </trkpt>
      <trkpt lat="41.234658" lon="1.487404">
        <ele>191.1</ele>
        <time>1970-01-01T00:30:06.000Z</time>
      </trkpt>
      <trkpt lat="41.234648" lon="1.487326">
        <ele>190.2</ele>
        <time>1970-01-01T00:30:07.000Z</time>
      </trkpt>
      <trkpt lat="41.234648" lon="1.487175">
        <ele>188.4</ele>
        <time>1970-01-01T00:30:09.000Z</time>
      </trkpt>
      <trkpt lat="41.234659" lon="1.487117">
        <ele>187.6</ele>
        <time>1970-01-01T00:30:10.000Z</time>
      </trkpt>
      <trkpt lat="41.234706" lon="1.487049">
        <ele>186.3</ele>
        <time>1970-01-01T00:30:12.000Z</time>
      </trkpt>
      <trkpt lat="41.234747" lon="1.48704">
        <ele>185.6</ele>
        <time>1970-01-01T00:30:13.000Z</time>
      </trkpt>
      <trkpt lat="41.234867" lon="1.487065">
        <ele>183.7</ele>
        <time>1970-01-01T00:30:15.000Z</time>
      </trkpt>
      <trkpt lat="41.234932" lon="1.487081">
        <ele>182.9</ele>
        <time>1970-01-01T00:30:16.000Z</time>
      </trkpt>
      <trkpt lat="41.234993" lon="1.487088">
        <ele>182.2</ele>
        <time>1970-01-01T00:30:17.000Z</time>
      </trkpt>
      <trkpt lat="41.235091" lon="1.48704">
        <ele>181.4</ele>
        <time>1970-01-01T00:30:19.000Z</time>
      </trkpt>
      <trkpt lat="41.235161" lon="1.486935">
        <ele>180.8</ele>
        <time>1970-01-01T00:30:21.000Z</time>
      </trkpt>
      <trkpt lat="41.235224" lon="1.486829">
        <ele>180.7</ele>
        <time>1970-01-01T00:30:23.000Z</time>
      </trkpt>
      <trkpt lat="41.235259" lon="1.48677">
        <ele>180.8</ele>
        <time>1970-01-01T00:30:24.000Z</time>
      </trkpt>
      <trkpt lat="41.235294" lon="1.486712">
        <ele>180.9</ele>
        <time>1970-01-01T00:30:25.000Z</time>
      </trkpt>
      <trkpt lat="41.235371" lon="1.486614">
        <ele>181.2</ele>
        <time>1970-01-01T00:30:27.000Z</time>
      </trkpt>
      <trkpt lat="41.23545" lon="1.486554">
        <ele>181.3</ele>
        <time>1970-01-01T00:30:29.000Z</time>
      </trkpt>
      <trkpt lat="41.23549" lon="1.486531">
        <ele>181.3</ele>
        <time>1970-01-01T00:30:30.000Z</time>
      </trkpt>
      <trkpt lat="41.235717" lon="1.486396">
        <ele>180.9</ele>
        <time>1970-01-01T00:30:35.000Z</time>
      </trkpt>
      <trkpt lat="41.235837" lon="1.48624">
        <ele>179.6</ele>
        <time>1970-01-01T00:30:38.000Z</time>
      </trkpt>
      <trkpt lat="41.235873" lon="1.486178">
        <ele>179</ele>
        <time>1970-01-01T00:30:39.000Z</time>
      </trkpt>
      <trkpt lat="41.235954" lon="1.486072">
        <ele>177.7</ele>
        <time>1970-01-01T00:30:41.000Z</time>
      </trkpt>
      <trkpt lat="41.236043" lon="1.485983">
        <ele>176.1</ele>
        <time>1970-01-01T00:30:43.000Z</time>
      </trkpt>
      <trkpt lat="41.236128" lon="1.485897">
        <ele>174.5</ele>
        <time>1970-01-01T00:30:45.000Z</time>
      </trkpt>
      <trkpt lat="41.236201" lon="1.485821">
        <ele>173.4</ele>
        <time>1970-01-01T00:30:47.000Z</time>
      </trkpt>
      <trkpt lat="41.236243" lon="1.48573">
        <ele>172.6</ele>
        <time>1970-01-01T00:30:49.000Z</time>
      </trkpt>
      <trkpt lat="41.236273" lon="1.485619">
        <ele>171.8</ele>
        <time>1970-01-01T00:30:51.000Z</time>
      </trkpt>
      <trkpt lat="41.236291" lon="1.485566">
        <ele>171.8</ele>
        <time>1970-01-01T00:30:52.000Z</time>
      </trkpt>
      <trkpt lat="41.23631" lon="1.48551">
        <ele>171.8</ele>
        <time>1970-01-01T00:30:53.000Z</time>
      </trkpt>
      <trkpt lat="41.236358" lon="1.485406">
        <ele>171.8</ele>
        <time>1970-01-01T00:30:55.000Z</time>
      </trkpt>
      <trkpt lat="41.236413" lon="1.4853">
        <ele>171.9</ele>
        <time>1970-01-01T00:30:57.000Z</time>
      </trkpt>
      <trkpt lat="41.236507" lon="1.485155">
        <ele>172</ele>
        <time>1970-01-01T00:31:00.000Z</time>
      </trkpt>
      <trkpt lat="41.23654" lon="1.48511">
        <ele>172.1</ele>
        <time>1970-01-01T00:31:01.000Z</time>
      </trkpt>
      <trkpt lat="41.236646" lon="1.48498">
        <ele>172.4</ele>
        <time>1970-01-01T00:31:04.000Z</time>
      </trkpt>
      <trkpt lat="41.236734" lon="1.484937">
        <ele>172.6</ele>
        <time>1970-01-01T00:31:06.000Z</time>
      </trkpt>
      <trkpt lat="41.236914" lon="1.48501">
        <ele>173</ele>
        <time>1970-01-01T00:31:10.000Z</time>
      </trkpt>
      <trkpt lat="41.237112" lon="1.485088">
        <ele>173.5</ele>
        <time>1970-01-01T00:31:14.000Z</time>
      </trkpt>
      <trkpt lat="41.237164" lon="1.485093">
        <ele>173.6</ele>
        <time>1970-01-01T00:31:15.000Z</time>
      </trkpt>
      <trkpt lat="41.237216" lon="1.485094">
        <ele>173.7</ele>
        <time>1970-01-01T00:31:16.000Z</time>
      </trkpt>
      <trkpt lat="41.237372" lon="1.485077">
        <ele>174</ele>
        <time>1970-01-01T00:31:19.000Z</time>
      </trkpt>
      <trkpt lat="41.237472" lon="1.485039">
        <ele>174.3</ele>
        <time>1970-01-01T00:31:21.000Z</time>
      </trkpt>
      <trkpt lat="41.237708" lon="1.484908">
        <ele>175.2</ele>
        <time>1970-01-01T00:31:26.000Z</time>
      </trkpt>
      <trkpt lat="41.237796" lon="1.484854">
        <ele>175.6</ele>
        <time>1970-01-01T00:31:28.000Z</time>
      </trkpt>
      <trkpt lat="41.238007" lon="1.484709">
        <ele>176.8</ele>
        <time>1970-01-01T00:31:33.000Z</time>
      </trkpt>
      <trkpt lat="41.238044" lon="1.484672">
        <ele>177.1</ele>
        <time>1970-01-01T00:31:34.000Z</time>
      </trkpt>
      <trkpt lat="41.238078" lon="1.48463">
        <ele>177.3</ele>
        <time>1970-01-01T00:31:35.000Z</time>
      </trkpt>
      <trkpt lat="41.238165" lon="1.48449">
        <ele>178</ele>
        <time>1970-01-01T00:31:38.000Z</time>
      </trkpt>
      <trkpt lat="41.238189" lon="1.48444">
        <ele>178.2</ele>
        <time>1970-01-01T00:31:39.000Z</time>
      </trkpt>
      <trkpt lat="41.238234" lon="1.484339">
        <ele>178.6</ele>
        <time>1970-01-01T00:31:41.000Z</time>
      </trkpt>
      <trkpt lat="41.238257" lon="1.484288">
        <ele>178.8</ele>
        <time>1970-01-01T00:31:42.000Z</time>
      </trkpt>
      <trkpt lat="41.238329" lon="1.484139">
        <ele>179.3</ele>
        <time>1970-01-01T00:31:45.000Z</time>
      </trkpt>
      <trkpt lat="41.238387" lon="1.48405">
        <ele>179.5</ele>
        <time>1970-01-01T00:31:47.000Z</time>
      </trkpt>
      <trkpt lat="41.238422" lon="1.484016">
        <ele>179.6</ele>
        <time>1970-01-01T00:31:48.000Z</time>
      </trkpt>
      <trkpt lat="41.238554" lon="1.484003">
        <ele>179.7</ele>
        <time>1970-01-01T00:31:51.000Z</time>
      </trkpt>
      <trkpt lat="41.238643" lon="1.484035">
        <ele>179.6</ele>
        <time>1970-01-01T00:31:53.000Z</time>
      </trkpt>
      <trkpt lat="41.238776" lon="1.484103">
        <ele>179.5</ele>
        <time>1970-01-01T00:31:56.000Z</time>
      </trkpt>
      <trkpt lat="41.238818" lon="1.484135">
        <ele>179.5</ele>
        <time>1970-01-01T00:31:57.000Z</time>
      </trkpt>
      <trkpt lat="41.238901" lon="1.484209">
        <ele>179.5</ele>
        <time>1970-01-01T00:31:59.000Z</time>
      </trkpt>
      <trkpt lat="41.239092" lon="1.484439">
        <ele>179.6</ele>
        <time>1970-01-01T00:32:04.000Z</time>
      </trkpt>
      <trkpt lat="41.23921" lon="1.484575">
        <ele>179.7</ele>
        <time>1970-01-01T00:32:07.000Z</time>
      </trkpt>
      <trkpt lat="41.239427" lon="1.484749">
        <ele>179.9</ele>
        <time>1970-01-01T00:32:12.000Z</time>
      </trkpt>
      <trkpt lat="41.239734" lon="1.484837">
        <ele>180.3</ele>
        <time>1970-01-01T00:32:18.000Z</time>
      </trkpt>
      <trkpt lat="41.239838" lon="1.484843">
        <ele>180.4</ele>
        <time>1970-01-01T00:32:20.000Z</time>
      </trkpt>
      <trkpt lat="41.239942" lon="1.484827">
        <ele>180.5</ele>
        <time>1970-01-01T00:32:22.000Z</time>
      </trkpt>
      <trkpt lat="41.239994" lon="1.484815">
        <ele>180.6</ele>
        <time>1970-01-01T00:32:23.000Z</time>
      </trkpt>
      <trkpt lat="41.240201" lon="1.484748">
        <ele>180.7</ele>
        <time>1970-01-01T00:32:27.000Z</time>
      </trkpt>
      <trkpt lat="41.240358" lon="1.484699">
        <ele>180.9</ele>
        <time>1970-01-01T00:32:30.000Z</time>
      </trkpt>
      <trkpt lat="41.240566" lon="1.484657">
        <ele>181.1</ele>
        <time>1970-01-01T00:32:34.000Z</time>
      </trkpt>
      <trkpt lat="41.240669" lon="1.484685">
        <ele>181.3</ele>
        <time>1970-01-01T00:32:36.000Z</time>
      </trkpt>
      <trkpt lat="41.240717" lon="1.484708">
        <ele>181.3</ele>
        <time>1970-01-01T00:32:37.000Z</time>
      </trkpt>
      <trkpt lat="41.240879" lon="1.484861">
        <ele>181.8</ele>
        <time>1970-01-01T00:32:41.000Z</time>
      </trkpt>
      <trkpt lat="41.240914" lon="1.484909">
        <ele>182</ele>
        <time>1970-01-01T00:32:42.000Z</time>
      </trkpt>
      <trkpt lat="41.241145" lon="1.48525">
        <ele>183.1</ele>
        <time>1970-01-01T00:32:49.000Z</time>
      </trkpt>
      <trkpt lat="41.241183" lon="1.485286">
        <ele>183.3</ele>
        <time>1970-01-01T00:32:50.000Z</time>
      </trkpt>
      <trkpt lat="41.241352" lon="1.485328">
        <ele>184</ele>
        <time>1970-01-01T00:32:54.000Z</time>
      </trkpt>
      <trkpt lat="41.241575" lon="1.485312">
        <ele>184.8</ele>
        <time>1970-01-01T00:32:59.000Z</time>
      </trkpt>
      <trkpt lat="41.241712" lon="1.485299">
        <ele>185.1</ele>
        <time>1970-01-01T00:33:02.000Z</time>
      </trkpt>
      <trkpt lat="41.242083" lon="1.485203">
        <ele>186.1</ele>
        <time>1970-01-01T00:33:10.000Z</time>
      </trkpt>
      <trkpt lat="41.242179" lon="1.48518">
        <ele>186.4</ele>
        <time>1970-01-01T00:33:12.000Z</time>
      </trkpt>
      <trkpt lat="41.242328" lon="1.485181">
        <ele>186.7</ele>
        <time>1970-01-01T00:33:15.000Z</time>
      </trkpt>
      <trkpt lat="41.242377" lon="1.485194">
        <ele>186.8</ele>
        <time>1970-01-01T00:33:16.000Z</time>
      </trkpt>
      <trkpt lat="41.242565" lon="1.485275">
        <ele>187.3</ele>
        <time>1970-01-01T00:33:20.000Z</time>
      </trkpt>
      <trkpt lat="41.242703" lon="1.485322">
        <ele>187.7</ele>
        <time>1970-01-01T00:33:23.000Z</time>
      </trkpt>
      <trkpt lat="41.242789" lon="1.48534">
        <ele>187.9</ele>
        <time>1970-01-01T00:33:25.000Z</time>
      </trkpt>
      <trkpt lat="41.242893" lon="1.485345">
        <ele>188.2</ele>
        <time>1970-01-01T00:33:28.000Z</time>
      </trkpt>
      <trkpt lat="41.242912" lon="1.485329">
        <ele>188.2</ele>
        <time>1970-01-01T00:33:29.000Z</time>
      </trkpt>
      <trkpt lat="41.242926" lon="1.485278">
        <ele>189</ele>
        <time>1970-01-01T00:33:31.000Z</time>
      </trkpt>
      <trkpt lat="41.242935" lon="1.485224">
        <ele>189.4</ele>
        <time>1970-01-01T00:33:33.000Z</time>
      </trkpt>
      <trkpt lat="41.242948" lon="1.48515">
        <ele>190.2</ele>
        <time>1970-01-01T00:33:36.000Z</time>
      </trkpt>
      <trkpt lat="41.242949" lon="1.485125">
        <ele>190.4</ele>
        <time>1970-01-01T00:33:37.000Z</time>
      </trkpt>
      <trkpt lat="41.242948" lon="1.485071">
        <ele>191</ele>
        <time>1970-01-01T00:33:39.000Z</time>
      </trkpt>
      <trkpt lat="41.242945" lon="1.485">
        <ele>191.9</ele>
        <time>1970-01-01T00:33:42.000Z</time>
      </trkpt>
      <trkpt lat="41.242941" lon="1.484974">
        <ele>192.2</ele>
        <time>1970-01-01T00:33:43.000Z</time>
      </trkpt>
      <trkpt lat="41.242933" lon="1.48492">
        <ele>192.8</ele>
        <time>1970-01-01T00:33:45.000Z</time>
      </trkpt>
      <trkpt lat="41.242927" lon="1.484838">
        <ele>193.8</ele>
        <time>1970-01-01T00:33:48.000Z</time>
      </trkpt>
      <trkpt lat="41.242919" lon="1.484791">
        <ele>194.4</ele>
        <time>1970-01-01T00:33:50.000Z</time>
      </trkpt>
      <trkpt lat="41.242907" lon="1.484741">
        <ele>195</ele>
        <time>1970-01-01T00:33:52.000Z</time>
      </trkpt>
      <trkpt lat="41.242892" lon="1.484675">
        <ele>195.8</ele>
        <time>1970-01-01T00:33:55.000Z</time>
      </trkpt>
      <trkpt lat="41.242882" lon="1.484623">
        <ele>196.5</ele>
        <time>1970-01-01T00:33:57.000Z</time>
      </trkpt>
      <trkpt lat="41.24287" lon="1.484541">
        <ele>197.4</ele>
        <time>1970-01-01T00:34:00.000Z</time>
      </trkpt>
      <trkpt lat="41.242865" lon="1.484491">
        <ele>198</ele>
        <time>1970-01-01T00:34:02.000Z</time>
      </trkpt>
      <trkpt lat="41.242863" lon="1.484465">
        <ele>198.3</ele>
        <time>1970-01-01T00:34:03.000Z</time>
      </trkpt>
      <trkpt lat="41.242864" lon="1.484415">
        <ele>198.9</ele>
        <time>1970-01-01T00:34:05.000Z</time>
      </trkpt>
      <trkpt lat="41.242867" lon="1.484327">
        <ele>199.9</ele>
        <time>1970-01-01T00:34:09.000Z</time>
      </trkpt>
      <trkpt lat="41.242868" lon="1.484306">
        <ele>200.2</ele>
        <time>1970-01-01T00:34:10.000Z</time>
      </trkpt>
      <trkpt lat="41.242868" lon="1.48424">
        <ele>200.9</ele>
        <time>1970-01-01T00:34:13.000Z</time>
      </trkpt>
      <trkpt lat="41.242879" lon="1.484174">
        <ele>201.7</ele>
        <time>1970-01-01T00:34:16.000Z</time>
      </trkpt>
      <trkpt lat="41.242877" lon="1.484132">
        <ele>202.2</ele>
        <time>1970-01-01T00:34:18.000Z</time>
      </trkpt>
      <trkpt lat="41.242874" lon="1.48411">
        <ele>202.5</ele>
        <time>1970-01-01T00:34:19.000Z</time>
      </trkpt>
      <trkpt lat="41.242862" lon="1.484011">
        <ele>203.5</ele>
        <time>1970-01-01T00:34:23.000Z</time>
      </trkpt>
      <trkpt lat="41.242861" lon="1.483986">
        <ele>203.8</ele>
        <time>1970-01-01T00:34:24.000Z</time>
      </trkpt>
      <trkpt lat="41.242853" lon="1.483936">
        <ele>204.3</ele>
        <time>1970-01-01T00:34:26.000Z</time>
      </trkpt>
      <trkpt lat="41.24285" lon="1.48386">
        <ele>205</ele>
        <time>1970-01-01T00:34:29.000Z</time>
      </trkpt>
      <trkpt lat="41.242847" lon="1.483835">
        <ele>205.3</ele>
        <time>1970-01-01T00:34:30.000Z</time>
      </trkpt>
      <trkpt lat="41.242833" lon="1.483759">
        <ele>205.8</ele>
        <time>1970-01-01T00:34:33.000Z</time>
      </trkpt>
      <trkpt lat="41.242824" lon="1.483733">
        <ele>206</ele>
        <time>1970-01-01T00:34:34.000Z</time>
      </trkpt>
      <trkpt lat="41.242805" lon="1.483611">
        <ele>206.4</ele>
        <time>1970-01-01T00:34:38.000Z</time>
      </trkpt>
      <trkpt lat="41.242811" lon="1.483549">
        <ele>206.7</ele>
        <time>1970-01-01T00:34:40.000Z</time>
      </trkpt>
      <trkpt lat="41.242807" lon="1.48349">
        <ele>207.1</ele>
        <time>1970-01-01T00:34:42.000Z</time>
      </trkpt>
      <trkpt lat="41.2428" lon="1.483347">
        <ele>208.3</ele>
        <time>1970-01-01T00:34:47.000Z</time>
      </trkpt>
      <trkpt lat="41.242794" lon="1.483196">
        <ele>209.9</ele>
        <time>1970-01-01T00:34:52.000Z</time>
      </trkpt>
      <trkpt lat="41.242789" lon="1.483161">
        <ele>210.3</ele>
        <time>1970-01-01T00:34:53.000Z</time>
      </trkpt>
      <trkpt lat="41.242764" lon="1.483043">
        <ele>211.8</ele>
        <time>1970-01-01T00:34:57.000Z</time>
      </trkpt>
      <trkpt lat="41.242742" lon="1.482992">
        <ele>212.5</ele>
        <time>1970-01-01T00:34:59.000Z</time>
      </trkpt>
      <trkpt lat="41.242724" lon="1.482975">
        <ele>212.8</ele>
        <time>1970-01-01T00:35:00.000Z</time>
      </trkpt>
      <trkpt lat="41.242699" lon="1.482969">
        <ele>213.2</ele>
        <time>1970-01-01T00:35:01.000Z</time>
      </trkpt>
      <trkpt lat="41.24264" lon="1.482959">
        <ele>213.9</ele>
        <time>1970-01-01T00:35:03.000Z</time>
      </trkpt>
      <trkpt lat="41.242609" lon="1.48295">
        <ele>214.3</ele>
        <time>1970-01-01T00:35:04.000Z</time>
      </trkpt>
      <trkpt lat="41.242528" lon="1.482879">
        <ele>215.2</ele>
        <time>1970-01-01T00:35:07.000Z</time>
      </trkpt>
      <trkpt lat="41.242329" lon="1.482674">
        <ele>216.3</ele>
        <time>1970-01-01T00:35:15.000Z</time>
      </trkpt>
      <trkpt lat="41.242303" lon="1.482632">
        <ele>216.4</ele>
        <time>1970-01-01T00:35:16.000Z</time>
      </trkpt>
      <trkpt lat="41.242277" lon="1.48258">
        <ele>216.4</ele>
        <time>1970-01-01T00:35:17.000Z</time>
      </trkpt>
      <trkpt lat="41.242218" lon="1.482452">
        <ele>216.3</ele>
        <time>1970-01-01T00:35:19.000Z</time>
      </trkpt>
      <trkpt lat="41.242109" lon="1.482241">
        <ele>216.1</ele>
        <time>1970-01-01T00:35:22.000Z</time>
      </trkpt>
      <trkpt lat="41.242067" lon="1.482196">
        <ele>216.1</ele>
        <time>1970-01-01T00:35:23.000Z</time>
      </trkpt>
      <trkpt lat="41.241894" lon="1.482088">
        <ele>216.5</ele>
        <time>1970-01-01T00:35:28.000Z</time>
      </trkpt>
      <trkpt lat="41.241749" lon="1.482041">
        <ele>217.8</ele>
        <time>1970-01-01T00:35:34.000Z</time>
      </trkpt>
      <trkpt lat="41.241666" lon="1.481942">
        <ele>219.4</ele>
        <time>1970-01-01T00:35:40.000Z</time>
      </trkpt>
      <trkpt lat="41.241643" lon="1.481896">
        <ele>220</ele>
        <time>1970-01-01T00:35:42.000Z</time>
      </trkpt>
      <trkpt lat="41.241604" lon="1.481821">
        <ele>221.1</ele>
        <time>1970-01-01T00:35:45.000Z</time>
      </trkpt>
      <trkpt lat="41.241592" lon="1.481794">
        <ele>221.5</ele>
        <time>1970-01-01T00:35:46.000Z</time>
      </trkpt>
      <trkpt lat="41.241555" lon="1.481714">
        <ele>222.6</ele>
        <time>1970-01-01T00:35:49.000Z</time>
      </trkpt>
      <trkpt lat="41.24151" lon="1.481645">
        <ele>223.6</ele>
        <time>1970-01-01T00:35:52.000Z</time>
      </trkpt>
      <trkpt lat="41.241471" lon="1.481616">
        <ele>224.2</ele>
        <time>1970-01-01T00:35:54.000Z</time>
      </trkpt>
      <trkpt lat="41.241423" lon="1.481607">
        <ele>225</ele>
        <time>1970-01-01T00:35:56.000Z</time>
      </trkpt>
      <trkpt lat="41.241329" lon="1.481606">
        <ele>226.3</ele>
        <time>1970-01-01T00:36:00.000Z</time>
      </trkpt>
      <trkpt lat="41.241308" lon="1.481601">
        <ele>226.6</ele>
        <time>1970-01-01T00:36:01.000Z</time>
      </trkpt>
      <trkpt lat="41.241216" lon="1.481587">
        <ele>227.8</ele>
        <time>1970-01-01T00:36:05.000Z</time>
      </trkpt>
      <trkpt lat="41.241193" lon="1.481581">
        <ele>228.1</ele>
        <time>1970-01-01T00:36:06.000Z</time>
      </trkpt>
      <trkpt lat="41.241125" lon="1.48156">
        <ele>229.1</ele>
        <time>1970-01-01T00:36:09.000Z</time>
      </trkpt>
      <trkpt lat="41.24105" lon="1.481543">
        <ele>230.1</ele>
        <time>1970-01-01T00:36:12.000Z</time>
      </trkpt>
      <trkpt lat="41.241024" lon="1.481544">
        <ele>230.5</ele>
        <time>1970-01-01T00:36:13.000Z</time>
      </trkpt>
      <trkpt lat="41.240964" lon="1.481548">
        <ele>231.2</ele>
        <time>1970-01-01T00:36:15.000Z</time>
      </trkpt>
      <trkpt lat="41.240851" lon="1.481549">
        <ele>232.5</ele>
        <time>1970-01-01T00:36:19.000Z</time>
      </trkpt>
      <trkpt lat="41.240826" lon="1.481554">
        <ele>232.7</ele>
        <time>1970-01-01T00:36:20.000Z</time>
      </trkpt>
      <trkpt lat="41.240758" lon="1.481574">
        <ele>233.5</ele>
        <time>1970-01-01T00:36:23.000Z</time>
      </trkpt>
      <trkpt lat="41.240667" lon="1.481596">
        <ele>234.4</ele>
        <time>1970-01-01T00:36:27.000Z</time>
      </trkpt>
      <trkpt lat="41.2406" lon="1.481617">
        <ele>235.1</ele>
        <time>1970-01-01T00:36:30.000Z</time>
      </trkpt>
      <trkpt lat="41.240579" lon="1.48162">
        <ele>235.3</ele>
        <time>1970-01-01T00:36:31.000Z</time>
      </trkpt>
      <trkpt lat="41.240503" lon="1.481572">
        <ele>236.2</ele>
        <time>1970-01-01T00:36:35.000Z</time>
      </trkpt>
      <trkpt lat="41.240467" lon="1.481545">
        <ele>236.7</ele>
        <time>1970-01-01T00:36:37.000Z</time>
      </trkpt>
      <trkpt lat="41.240376" lon="1.481489">
        <ele>237.7</ele>
        <time>1970-01-01T00:36:41.000Z</time>
      </trkpt>
      <trkpt lat="41.240284" lon="1.481441">
        <ele>238.4</ele>
        <time>1970-01-01T00:36:45.000Z</time>
      </trkpt>
      <trkpt lat="41.240195" lon="1.481387">
        <ele>238.9</ele>
        <time>1970-01-01T00:36:49.000Z</time>
      </trkpt>
      <trkpt lat="41.240006" lon="1.481278">
        <ele>239.5</ele>
        <time>1970-01-01T00:36:56.000Z</time>
      </trkpt>
      <trkpt lat="41.239957" lon="1.481232">
        <ele>239.6</ele>
        <time>1970-01-01T00:36:58.000Z</time>
      </trkpt>
      <trkpt lat="41.239917" lon="1.481156">
        <ele>239.7</ele>
        <time>1970-01-01T00:37:00.000Z</time>
      </trkpt>
      <trkpt lat="41.239885" lon="1.481036">
        <ele>239.8</ele>
        <time>1970-01-01T00:37:03.000Z</time>
      </trkpt>
      <trkpt lat="41.23986" lon="1.480914">
        <ele>239.8</ele>
        <time>1970-01-01T00:37:06.000Z</time>
      </trkpt>
      <trkpt lat="41.239827" lon="1.480801">
        <ele>239.9</ele>
        <time>1970-01-01T00:37:09.000Z</time>
      </trkpt>
      <trkpt lat="41.239795" lon="1.480737">
        <ele>239.9</ele>
        <time>1970-01-01T00:37:11.000Z</time>
      </trkpt>
      <trkpt lat="41.239775" lon="1.480712">
        <ele>239.9</ele>
        <time>1970-01-01T00:37:12.000Z</time>
      </trkpt>
      <trkpt lat="41.239725" lon="1.480687">
        <ele>240</ele>
        <time>1970-01-01T00:37:14.000Z</time>
      </trkpt>
      <trkpt lat="41.239675" lon="1.480692">
        <ele>240</ele>
        <time>1970-01-01T00:37:16.000Z</time>
      </trkpt>
      <trkpt lat="41.239597" lon="1.480703">
        <ele>240.1</ele>
        <time>1970-01-01T00:37:19.000Z</time>
      </trkpt>
      <trkpt lat="41.239545" lon="1.480679">
        <ele>240.2</ele>
        <time>1970-01-01T00:37:21.000Z</time>
      </trkpt>
      <trkpt lat="41.239474" lon="1.480541">
        <ele>240.3</ele>
        <time>1970-01-01T00:37:26.000Z</time>
      </trkpt>
      <trkpt lat="41.239451" lon="1.480491">
        <ele>240.4</ele>
        <time>1970-01-01T00:37:28.000Z</time>
      </trkpt>
      <trkpt lat="41.239393" lon="1.480452">
        <ele>241</ele>
        <time>1970-01-01T00:37:31.000Z</time>
      </trkpt>
      <trkpt lat="41.239372" lon="1.480443">
        <ele>241.1</ele>
        <time>1970-01-01T00:37:32.000Z</time>
      </trkpt>
      <trkpt lat="41.239309" lon="1.480423">
        <ele>241.7</ele>
        <time>1970-01-01T00:37:35.000Z</time>
      </trkpt>
      <trkpt lat="41.239259" lon="1.480429">
        <ele>242.2</ele>
        <time>1970-01-01T00:37:37.000Z</time>
      </trkpt>
      <trkpt lat="41.239234" lon="1.480442">
        <ele>242.5</ele>
        <time>1970-01-01T00:37:38.000Z</time>
      </trkpt>
      <trkpt lat="41.239151" lon="1.480497">
        <ele>243.5</ele>
        <time>1970-01-01T00:37:41.000Z</time>
      </trkpt>
      <trkpt lat="41.23909" lon="1.480441">
        <ele>244.3</ele>
        <time>1970-01-01T00:37:44.000Z</time>
      </trkpt>
      <trkpt lat="41.239083" lon="1.480411">
        <ele>244.5</ele>
        <time>1970-01-01T00:37:45.000Z</time>
      </trkpt>
      <trkpt lat="41.239086" lon="1.480326">
        <ele>245.1</ele>
        <time>1970-01-01T00:37:48.000Z</time>
      </trkpt>
      <trkpt lat="41.239136" lon="1.480175">
        <ele>246.3</ele>
        <time>1970-01-01T00:37:53.000Z</time>
      </trkpt>
      <trkpt lat="41.239154" lon="1.480148">
        <ele>246.6</ele>
        <time>1970-01-01T00:37:54.000Z</time>
      </trkpt>
      <trkpt lat="41.239173" lon="1.480123">
        <ele>246.9</ele>
        <time>1970-01-01T00:37:55.000Z</time>
      </trkpt>
      <trkpt lat="41.239279" lon="1.480019">
        <ele>248.4</ele>
        <time>1970-01-01T00:38:00.000Z</time>
      </trkpt>
      <trkpt lat="41.239399" lon="1.479986">
        <ele>249.9</ele>
        <time>1970-01-01T00:38:05.000Z</time>
      </trkpt>
      <trkpt lat="41.239485" lon="1.479917">
        <ele>251.5</ele>
        <time>1970-01-01T00:38:10.000Z</time>
      </trkpt>
      <trkpt lat="41.239504" lon="1.479847">
        <ele>252.4</ele>
        <time>1970-01-01T00:38:13.000Z</time>
      </trkpt>
      <trkpt lat="41.239513" lon="1.4798">
        <ele>252.9</ele>
        <time>1970-01-01T00:38:15.000Z</time>
      </trkpt>
      <trkpt lat="41.239536" lon="1.479732">
        <ele>253.9</ele>
        <time>1970-01-01T00:38:18.000Z</time>
      </trkpt>
      <trkpt lat="41.239542" lon="1.479708">
        <ele>254.2</ele>
        <time>1970-01-01T00:38:19.000Z</time>
      </trkpt>
      <trkpt lat="41.239557" lon="1.479665">
        <ele>254.8</ele>
        <time>1970-01-01T00:38:21.000Z</time>
      </trkpt>
      <trkpt lat="41.239598" lon="1.479556">
        <ele>256.3</ele>
        <time>1970-01-01T00:38:26.000Z</time>
      </trkpt>
      <trkpt lat="41.239607" lon="1.479534">
        <ele>256.6</ele>
        <time>1970-01-01T00:38:27.000Z</time>
      </trkpt>
      <trkpt lat="41.239626" lon="1.479496">
        <ele>257.1</ele>
        <time>1970-01-01T00:38:29.000Z</time>
      </trkpt>
      <trkpt lat="41.239658" lon="1.479446">
        <ele>257.9</ele>
        <time>1970-01-01T00:38:32.000Z</time>
      </trkpt>
      <trkpt lat="41.23969" lon="1.479401">
        <ele>258.6</ele>
        <time>1970-01-01T00:38:35.000Z</time>
      </trkpt>
      <trkpt lat="41.239725" lon="1.479364">
        <ele>259.3</ele>
        <time>1970-01-01T00:38:38.000Z</time>
      </trkpt>
      <trkpt lat="41.239773" lon="1.479348">
        <ele>259.9</ele>
        <time>1970-01-01T00:38:41.000Z</time>
      </trkpt>
      <trkpt lat="41.239791" lon="1.479343">
        <ele>260.2</ele>
        <time>1970-01-01T00:38:42.000Z</time>
      </trkpt>
      <trkpt lat="41.239812" lon="1.479339">
        <ele>260.4</ele>
        <time>1970-01-01T00:38:43.000Z</time>
      </trkpt>
      <trkpt lat="41.239854" lon="1.479331">
        <ele>260.9</ele>
        <time>1970-01-01T00:38:45.000Z</time>
      </trkpt>
      <trkpt lat="41.239917" lon="1.479314">
        <ele>261.6</ele>
        <time>1970-01-01T00:38:48.000Z</time>
      </trkpt>
      <trkpt lat="41.239937" lon="1.479311">
        <ele>261.8</ele>
        <time>1970-01-01T00:38:49.000Z</time>
      </trkpt>
      <trkpt lat="41.240024" lon="1.479265">
        <ele>262.6</ele>
        <time>1970-01-01T00:38:54.000Z</time>
      </trkpt>
      <trkpt lat="41.240037" lon="1.479248">
        <ele>262.7</ele>
        <time>1970-01-01T00:38:55.000Z</time>
      </trkpt>
      <trkpt lat="41.240142" lon="1.479147">
        <ele>263.7</ele>
        <time>1970-01-01T00:39:01.000Z</time>
      </trkpt>
      <trkpt lat="41.240188" lon="1.479103">
        <ele>264</ele>
        <time>1970-01-01T00:39:03.000Z</time>
      </trkpt>
      <trkpt lat="41.240304" lon="1.479044">
        <ele>265</ele>
        <time>1970-01-01T00:39:07.000Z</time>
      </trkpt>
      <trkpt lat="41.240365" lon="1.479045">
        <ele>265.4</ele>
        <time>1970-01-01T00:39:09.000Z</time>
      </trkpt>
      <trkpt lat="41.24044" lon="1.479063">
        <ele>266</ele>
        <time>1970-01-01T00:39:12.000Z</time>
      </trkpt>
      <trkpt lat="41.240543" lon="1.479156">
        <ele>267</ele>
        <time>1970-01-01T00:39:17.000Z</time>
      </trkpt>
      <trkpt lat="41.240582" lon="1.479206">
        <ele>267.5</ele>
        <time>1970-01-01T00:39:19.000Z</time>
      </trkpt>
      <trkpt lat="41.240668" lon="1.479281">
        <ele>268.4</ele>
        <time>1970-01-01T00:39:23.000Z</time>
      </trkpt>
      <trkpt lat="41.240691" lon="1.479291">
        <ele>268.6</ele>
        <time>1970-01-01T00:39:24.000Z</time>
      </trkpt>
      <trkpt lat="41.240814" lon="1.479371">
        <ele>269.6</ele>
        <time>1970-01-01T00:39:30.000Z</time>
      </trkpt>
      <trkpt lat="41.240857" lon="1.479505">
        <ele>268.9</ele>
        <time>1970-01-01T00:39:35.000Z</time>
      </trkpt>
      <trkpt lat="41.240871" lon="1.479529">
        <ele>269.2</ele>
        <time>1970-01-01T00:39:36.000Z</time>
      </trkpt>
      <trkpt lat="41.240914" lon="1.479596">
        <ele>269</ele>
        <time>1970-01-01T00:39:39.000Z</time>
      </trkpt>
      <trkpt lat="41.240969" lon="1.479686">
        <ele>269.1</ele>
        <time>1970-01-01T00:39:43.000Z</time>
      </trkpt>
      <trkpt lat="41.24106" lon="1.479764">
        <ele>269.2</ele>
        <time>1970-01-01T00:39:47.000Z</time>
      </trkpt>
      <trkpt lat="41.241185" lon="1.479836">
        <ele>270.3</ele>
        <time>1970-01-01T00:39:52.000Z</time>
      </trkpt>
      <trkpt lat="41.241351" lon="1.47992">
        <ele>271</ele>
        <time>1970-01-01T00:39:59.000Z</time>
      </trkpt>
      <trkpt lat="41.241412" lon="1.479982">
        <ele>270.8</ele>
        <time>1970-01-01T00:40:02.000Z</time>
      </trkpt>
      <trkpt lat="41.241448" lon="1.480006">
        <ele>271.4</ele>
        <time>1970-01-01T00:40:04.000Z</time>
      </trkpt>
      <trkpt lat="41.241565" lon="1.480034">
        <ele>271.9</ele>
        <time>1970-01-01T00:40:09.000Z</time>
      </trkpt>
      <trkpt lat="41.241617" lon="1.480004">
        <ele>273.2</ele>
        <time>1970-01-01T00:40:11.000Z</time>
      </trkpt>
      <trkpt lat="41.241696" lon="1.479974">
        <ele>274.4</ele>
        <time>1970-01-01T00:40:14.000Z</time>
      </trkpt>
      <trkpt lat="41.241851" lon="1.48003">
        <ele>273.9</ele>
        <time>1970-01-01T00:40:19.000Z</time>
      </trkpt>
      <trkpt lat="41.241874" lon="1.480042">
        <ele>274.3</ele>
        <time>1970-01-01T00:40:20.000Z</time>
      </trkpt>
      <trkpt lat="41.241986" lon="1.480069">
        <ele>274.1</ele>
        <time>1970-01-01T00:40:25.000Z</time>
      </trkpt>
      <trkpt lat="41.242111" lon="1.479979">
        <ele>275.5</ele>
        <time>1970-01-01T00:40:30.000Z</time>
      </trkpt>
      <trkpt lat="41.242257" lon="1.4799">
        <ele>276.5</ele>
        <time>1970-01-01T00:40:34.000Z</time>
      </trkpt>
      <trkpt lat="41.242297" lon="1.47989">
        <ele>277.3</ele>
        <time>1970-01-01T00:40:35.000Z</time>
      </trkpt>
      <trkpt lat="41.242338" lon="1.479887">
        <ele>277.5</ele>
        <time>1970-01-01T00:40:36.000Z</time>
      </trkpt>
      <trkpt lat="41.242551" lon="1.479891">
        <ele>276.3</ele>
        <time>1970-01-01T00:40:42.000Z</time>
      </trkpt>
      <trkpt lat="41.242606" lon="1.479823">
        <ele>277.3</ele>
        <time>1970-01-01T00:40:46.000Z</time>
      </trkpt>
      <trkpt lat="41.242607" lon="1.479801">
        <ele>277.6</ele>
        <time>1970-01-01T00:40:47.000Z</time>
      </trkpt>
      <trkpt lat="41.24258" lon="1.479732">
        <ele>278.4</ele>
        <time>1970-01-01T00:40:50.000Z</time>
      </trkpt>
      <trkpt lat="41.242546" lon="1.479696">
        <ele>278.9</ele>
        <time>1970-01-01T00:40:52.000Z</time>
      </trkpt>
      <trkpt lat="41.242531" lon="1.479647">
        <ele>279.5</ele>
        <time>1970-01-01T00:40:54.000Z</time>
      </trkpt>
      <trkpt lat="41.242529" lon="1.47962">
        <ele>279.7</ele>
        <time>1970-01-01T00:40:55.000Z</time>
      </trkpt>
      <trkpt lat="41.242522" lon="1.479452">
        <ele>281.3</ele>
        <time>1970-01-01T00:41:01.000Z</time>
      </trkpt>
      <trkpt lat="41.242518" lon="1.479422">
        <ele>281.5</ele>
        <time>1970-01-01T00:41:02.000Z</time>
      </trkpt>
      <trkpt lat="41.242511" lon="1.479391">
        <ele>281.8</ele>
        <time>1970-01-01T00:41:03.000Z</time>
      </trkpt>
      <trkpt lat="41.24249" lon="1.479295">
        <ele>282.6</ele>
        <time>1970-01-01T00:41:06.000Z</time>
      </trkpt>
      <trkpt lat="41.242466" lon="1.47924">
        <ele>283.2</ele>
        <time>1970-01-01T00:41:08.000Z</time>
      </trkpt>
      <trkpt lat="41.242445" lon="1.479222">
        <ele>283.5</ele>
        <time>1970-01-01T00:41:09.000Z</time>
      </trkpt>
      <trkpt lat="41.242397" lon="1.479197">
        <ele>284.1</ele>
        <time>1970-01-01T00:41:11.000Z</time>
      </trkpt>
      <trkpt lat="41.242348" lon="1.479175">
        <ele>284.6</ele>
        <time>1970-01-01T00:41:13.000Z</time>
      </trkpt>
      <trkpt lat="41.242253" lon="1.479148">
        <ele>285.9</ele>
        <time>1970-01-01T00:41:17.000Z</time>
      </trkpt>
      <trkpt lat="41.242166" lon="1.479122">
        <ele>287.1</ele>
        <time>1970-01-01T00:41:21.000Z</time>
      </trkpt>
      <trkpt lat="41.242107" lon="1.479089">
        <ele>287.9</ele>
        <time>1970-01-01T00:41:24.000Z</time>
      </trkpt>
      <trkpt lat="41.242091" lon="1.479071">
        <ele>288.2</ele>
        <time>1970-01-01T00:41:25.000Z</time>
      </trkpt>
      <trkpt lat="41.24206" lon="1.478999">
        <ele>289.1</ele>
        <time>1970-01-01T00:41:28.000Z</time>
      </trkpt>
      <trkpt lat="41.242058" lon="1.47897">
        <ele>289.4</ele>
        <time>1970-01-01T00:41:29.000Z</time>
      </trkpt>
      <trkpt lat="41.242063" lon="1.478909">
        <ele>289.9</ele>
        <time>1970-01-01T00:41:31.000Z</time>
      </trkpt>
      <trkpt lat="41.24208" lon="1.478818">
        <ele>290.8</ele>
        <time>1970-01-01T00:41:34.000Z</time>
      </trkpt>
      <trkpt lat="41.242094" lon="1.478756">
        <ele>291.3</ele>
        <time>1970-01-01T00:41:36.000Z</time>
      </trkpt>
      <trkpt lat="41.242099" lon="1.478722">
        <ele>291.6</ele>
        <time>1970-01-01T00:41:37.000Z</time>
      </trkpt>
      <trkpt lat="41.242092" lon="1.478621">
        <ele>292.2</ele>
        <time>1970-01-01T00:41:40.000Z</time>
      </trkpt>
      <trkpt lat="41.242073" lon="1.478594">
        <ele>292.4</ele>
        <time>1970-01-01T00:41:41.000Z</time>
      </trkpt>
      <trkpt lat="41.241977" lon="1.478504">
        <ele>293</ele>
        <time>1970-01-01T00:41:45.000Z</time>
      </trkpt>
      <trkpt lat="41.241862" lon="1.478392">
        <ele>293.4</ele>
        <time>1970-01-01T00:41:50.000Z</time>
      </trkpt>
      <trkpt lat="41.241696" lon="1.478238">
        <ele>293.8</ele>
        <time>1970-01-01T00:41:57.000Z</time>
      </trkpt>
      <trkpt lat="41.241605" lon="1.478144">
        <ele>294.4</ele>
        <time>1970-01-01T00:42:01.000Z</time>
      </trkpt>
      <trkpt lat="41.241558" lon="1.478095">
        <ele>294.8</ele>
        <time>1970-01-01T00:42:03.000Z</time>
      </trkpt>
      <trkpt lat="41.241444" lon="1.477958">
        <ele>296.3</ele>
        <time>1970-01-01T00:42:08.000Z</time>
      </trkpt>
      <trkpt lat="41.241398" lon="1.477912">
        <ele>296.9</ele>
        <time>1970-01-01T00:42:10.000Z</time>
      </trkpt>
      <trkpt lat="41.241325" lon="1.477849">
        <ele>297.8</ele>
        <time>1970-01-01T00:42:13.000Z</time>
      </trkpt>
      <trkpt lat="41.241253" lon="1.477788">
        <ele>298.7</ele>
        <time>1970-01-01T00:42:16.000Z</time>
      </trkpt>
      <trkpt lat="41.241211" lon="1.477745">
        <ele>299.3</ele>
        <time>1970-01-01T00:42:18.000Z</time>
      </trkpt>
      <trkpt lat="41.24119" lon="1.477726">
        <ele>299.6</ele>
        <time>1970-01-01T00:42:19.000Z</time>
      </trkpt>
      <trkpt lat="41.241072" lon="1.47762">
        <ele>300.9</ele>
        <time>1970-01-01T00:42:24.000Z</time>
      </trkpt>
      <trkpt lat="41.241022" lon="1.477571">
        <ele>301.4</ele>
        <time>1970-01-01T00:42:26.000Z</time>
      </trkpt>
      <trkpt lat="41.240972" lon="1.477519">
        <ele>301.9</ele>
        <time>1970-01-01T00:42:28.000Z</time>
      </trkpt>
      <trkpt lat="41.240878" lon="1.477402">
        <ele>302.6</ele>
        <time>1970-01-01T00:42:32.000Z</time>
      </trkpt>
      <trkpt lat="41.240842" lon="1.477338">
        <ele>303</ele>
        <time>1970-01-01T00:42:34.000Z</time>
      </trkpt>
      <trkpt lat="41.240814" lon="1.477142">
        <ele>303.8</ele>
        <time>1970-01-01T00:42:39.000Z</time>
      </trkpt>
      <trkpt lat="41.240803" lon="1.477054">
        <ele>304.1</ele>
        <time>1970-01-01T00:42:41.000Z</time>
      </trkpt>
      <trkpt lat="41.240753" lon="1.476939">
        <ele>304.7</ele>
        <time>1970-01-01T00:42:44.000Z</time>
      </trkpt>
      <trkpt lat="41.240705" lon="1.476875">
        <ele>305.1</ele>
        <time>1970-01-01T00:42:46.000Z</time>
      </trkpt>
      <trkpt lat="41.240618" lon="1.476814">
        <ele>305.7</ele>
        <time>1970-01-01T00:42:49.000Z</time>
      </trkpt>
      <trkpt lat="41.240539" lon="1.47677">
        <ele>306.3</ele>
        <time>1970-01-01T00:42:52.000Z</time>
      </trkpt>
      <trkpt lat="41.240442" lon="1.47671">
        <ele>307.1</ele>
        <time>1970-01-01T00:42:56.000Z</time>
      </trkpt>
      <trkpt lat="41.240393" lon="1.476666">
        <ele>307.5</ele>
        <time>1970-01-01T00:42:58.000Z</time>
      </trkpt>
      <trkpt lat="41.240298" lon="1.476565">
        <ele>308.1</ele>
        <time>1970-01-01T00:43:02.000Z</time>
      </trkpt>
      <trkpt lat="41.240228" lon="1.476477">
        <ele>308.4</ele>
        <time>1970-01-01T00:43:05.000Z</time>
      </trkpt>
      <trkpt lat="41.240187" lon="1.476413">
        <ele>308.6</ele>
        <time>1970-01-01T00:43:07.000Z</time>
      </trkpt>
      <trkpt lat="41.240163" lon="1.476306">
        <ele>309.2</ele>
        <time>1970-01-01T00:43:10.000Z</time>
      </trkpt>
      <trkpt lat="41.240225" lon="1.476194">
        <ele>310.4</ele>
        <time>1970-01-01T00:43:15.000Z</time>
      </trkpt>
      <trkpt lat="41.240308" lon="1.476195">
        <ele>311.6</ele>
        <time>1970-01-01T00:43:19.000Z</time>
      </trkpt>
      <trkpt lat="41.240344" lon="1.476224">
        <ele>312.2</ele>
        <time>1970-01-01T00:43:21.000Z</time>
      </trkpt>
      <trkpt lat="41.240363" lon="1.476241">
        <ele>312.6</ele>
        <time>1970-01-01T00:43:22.000Z</time>
      </trkpt>
      <trkpt lat="41.240422" lon="1.476288">
        <ele>313.7</ele>
        <time>1970-01-01T00:43:25.000Z</time>
      </trkpt>
      <trkpt lat="41.240479" lon="1.47633">
        <ele>314.7</ele>
        <time>1970-01-01T00:43:28.000Z</time>
      </trkpt>
      <trkpt lat="41.240529" lon="1.476365">
        <ele>315.6</ele>
        <time>1970-01-01T00:43:31.000Z</time>
      </trkpt>
      <trkpt lat="41.240581" lon="1.4764">
        <ele>316.4</ele>
        <time>1970-01-01T00:43:34.000Z</time>
      </trkpt>
      <trkpt lat="41.240603" lon="1.476409">
        <ele>316.7</ele>
        <time>1970-01-01T00:43:35.000Z</time>
      </trkpt>
      <trkpt lat="41.240666" lon="1.476437">
        <ele>317.6</ele>
        <time>1970-01-01T00:43:38.000Z</time>
      </trkpt>
      <trkpt lat="41.240769" lon="1.476477">
        <ele>318.8</ele>
        <time>1970-01-01T00:43:42.000Z</time>
      </trkpt>
      <trkpt lat="41.240887" lon="1.476557">
        <ele>320</ele>
        <time>1970-01-01T00:43:46.000Z</time>
      </trkpt>
      <trkpt lat="41.240947" lon="1.476599">
        <ele>320.4</ele>
        <time>1970-01-01T00:43:48.000Z</time>
      </trkpt>
      <trkpt lat="41.241118" lon="1.476778">
        <ele>321.7</ele>
        <time>1970-01-01T00:43:54.000Z</time>
      </trkpt>
      <trkpt lat="41.241144" lon="1.476809">
        <ele>321.9</ele>
        <time>1970-01-01T00:43:55.000Z</time>
      </trkpt>
      <trkpt lat="41.241263" lon="1.476871">
        <ele>322.9</ele>
        <time>1970-01-01T00:43:59.000Z</time>
      </trkpt>
      <trkpt lat="41.24138" lon="1.476877">
        <ele>324.2</ele>
        <time>1970-01-01T00:44:03.000Z</time>
      </trkpt>
      <trkpt lat="41.241435" lon="1.47688">
        <ele>324.9</ele>
        <time>1970-01-01T00:44:05.000Z</time>
      </trkpt>
      <trkpt lat="41.241464" lon="1.476885">
        <ele>325.3</ele>
        <time>1970-01-01T00:44:06.000Z</time>
      </trkpt>
      <trkpt lat="41.24156" lon="1.476894">
        <ele>326.5</ele>
        <time>1970-01-01T00:44:09.000Z</time>
      </trkpt>
      <trkpt lat="41.241624" lon="1.4769">
        <ele>327.2</ele>
        <time>1970-01-01T00:44:11.000Z</time>
      </trkpt>
      <trkpt lat="41.241653" lon="1.4769">
        <ele>327.5</ele>
        <time>1970-01-01T00:44:12.000Z</time>
      </trkpt>
      <trkpt lat="41.24174" lon="1.476896">
        <ele>328.5</ele>
        <time>1970-01-01T00:44:15.000Z</time>
      </trkpt>
      <trkpt lat="41.241832" lon="1.47683">
        <ele>329.6</ele>
        <time>1970-01-01T00:44:19.000Z</time>
      </trkpt>
      <trkpt lat="41.241862" lon="1.476774">
        <ele>330.2</ele>
        <time>1970-01-01T00:44:21.000Z</time>
      </trkpt>
      <trkpt lat="41.241889" lon="1.476676">
        <ele>331.2</ele>
        <time>1970-01-01T00:44:24.000Z</time>
      </trkpt>
      <trkpt lat="41.241888" lon="1.476639">
        <ele>331.6</ele>
        <time>1970-01-01T00:44:25.000Z</time>
      </trkpt>
      <trkpt lat="41.241864" lon="1.476575">
        <ele>332.4</ele>
        <time>1970-01-01T00:44:27.000Z</time>
      </trkpt>
      <trkpt lat="41.241829" lon="1.476532">
        <ele>333.1</ele>
        <time>1970-01-01T00:44:29.000Z</time>
      </trkpt>
      <trkpt lat="41.241805" lon="1.476517">
        <ele>333.5</ele>
        <time>1970-01-01T00:44:30.000Z</time>
      </trkpt>
      <trkpt lat="41.241718" lon="1.47649">
        <ele>334.7</ele>
        <time>1970-01-01T00:44:33.000Z</time>
      </trkpt>
      <trkpt lat="41.241689" lon="1.476471">
        <ele>335.1</ele>
        <time>1970-01-01T00:44:34.000Z</time>
      </trkpt>
      <trkpt lat="41.241661" lon="1.476453">
        <ele>335.5</ele>
        <time>1970-01-01T00:44:35.000Z</time>
      </trkpt>
      <trkpt lat="41.241585" lon="1.476385">
        <ele>336.5</ele>
        <time>1970-01-01T00:44:38.000Z</time>
      </trkpt>
      <trkpt lat="41.241528" lon="1.476315">
        <ele>337.2</ele>
        <time>1970-01-01T00:44:41.000Z</time>
      </trkpt>
      <trkpt lat="41.241505" lon="1.476235">
        <ele>337.7</ele>
        <time>1970-01-01T00:44:44.000Z</time>
      </trkpt>
      <trkpt lat="41.241518" lon="1.476214">
        <ele>337.9</ele>
        <time>1970-01-01T00:44:45.000Z</time>
      </trkpt>
      <trkpt lat="41.241536" lon="1.4762">
        <ele>338</ele>
        <time>1970-01-01T00:44:46.000Z</time>
      </trkpt>
      <trkpt lat="41.241603" lon="1.476181">
        <ele>338.4</ele>
        <time>1970-01-01T00:44:49.000Z</time>
      </trkpt>
      <trkpt lat="41.241632" lon="1.476174">
        <ele>338.5</ele>
        <time>1970-01-01T00:44:50.000Z</time>
      </trkpt>
      <trkpt lat="41.241686" lon="1.476143">
        <ele>338.6</ele>
        <time>1970-01-01T00:44:52.000Z</time>
      </trkpt>
      <trkpt lat="41.241709" lon="1.476123">
        <ele>338.7</ele>
        <time>1970-01-01T00:44:53.000Z</time>
      </trkpt>
      <trkpt lat="41.241728" lon="1.476101">
        <ele>338.8</ele>
        <time>1970-01-01T00:44:54.000Z</time>
      </trkpt>
      <trkpt lat="41.241743" lon="1.476078">
        <ele>338.9</ele>
        <time>1970-01-01T00:44:55.000Z</time>
      </trkpt>
      <trkpt lat="41.241769" lon="1.475996">
        <ele>339</ele>
        <time>1970-01-01T00:44:58.000Z</time>
      </trkpt>
      <trkpt lat="41.241787" lon="1.475924">
        <ele>339.1</ele>
        <time>1970-01-01T00:45:00.000Z</time>
      </trkpt>
      <trkpt lat="41.241793" lon="1.47585">
        <ele>339.2</ele>
        <time>1970-01-01T00:45:02.000Z</time>
      </trkpt>
      <trkpt lat="41.241791" lon="1.47575">
        <ele>339.3</ele>
        <time>1970-01-01T00:45:05.000Z</time>
      </trkpt>
      <trkpt lat="41.241798" lon="1.475713">
        <ele>339.3</ele>
        <time>1970-01-01T00:45:06.000Z</time>
      </trkpt>
      <trkpt lat="41.241804" lon="1.475674">
        <ele>339.3</ele>
        <time>1970-01-01T00:45:07.000Z</time>
      </trkpt>
      <trkpt lat="41.241774" lon="1.475562">
        <ele>339.5</ele>
        <time>1970-01-01T00:45:10.000Z</time>
      </trkpt>
      <trkpt lat="41.241661" lon="1.475431">
        <ele>340</ele>
        <time>1970-01-01T00:45:15.000Z</time>
      </trkpt>
      <trkpt lat="41.241635" lon="1.475401">
        <ele>340</ele>
        <time>1970-01-01T00:45:16.000Z</time>
      </trkpt>
      <trkpt lat="41.241561" lon="1.475286">
        <ele>339.9</ele>
        <time>1970-01-01T00:45:19.000Z</time>
      </trkpt>
      <trkpt lat="41.241524" lon="1.475192">
        <ele>339.5</ele>
        <time>1970-01-01T00:45:21.000Z</time>
      </trkpt>
      <trkpt lat="41.241448" lon="1.475019">
        <ele>338.2</ele>
        <time>1970-01-01T00:45:25.000Z</time>
      </trkpt>
      <trkpt lat="41.241411" lon="1.474983">
        <ele>337.7</ele>
        <time>1970-01-01T00:45:26.000Z</time>
      </trkpt>
      <trkpt lat="41.241318" lon="1.474902">
        <ele>336.5</ele>
        <time>1970-01-01T00:45:28.000Z</time>
      </trkpt>
      <trkpt lat="41.241215" lon="1.474807">
        <ele>335.3</ele>
        <time>1970-01-01T00:45:30.000Z</time>
      </trkpt>
      <trkpt lat="41.241161" lon="1.474777">
        <ele>334.8</ele>
        <time>1970-01-01T00:45:31.000Z</time>
      </trkpt>
      <trkpt lat="41.241063" lon="1.474791">
        <ele>333.9</ele>
        <time>1970-01-01T00:45:33.000Z</time>
      </trkpt>
      <trkpt lat="41.241019" lon="1.474823">
        <ele>333.6</ele>
        <time>1970-01-01T00:45:34.000Z</time>
      </trkpt>
      <trkpt lat="41.240929" lon="1.474891">
        <ele>333.1</ele>
        <time>1970-01-01T00:45:36.000Z</time>
      </trkpt>
      <trkpt lat="41.240888" lon="1.474931">
        <ele>332.9</ele>
        <time>1970-01-01T00:45:37.000Z</time>
      </trkpt>
      <trkpt lat="41.240852" lon="1.474973">
        <ele>332.8</ele>
        <time>1970-01-01T00:45:38.000Z</time>
      </trkpt>
      <trkpt lat="41.240821" lon="1.475018">
        <ele>332.7</ele>
        <time>1970-01-01T00:45:39.000Z</time>
      </trkpt>
      <trkpt lat="41.240748" lon="1.475169">
        <ele>332.5</ele>
        <time>1970-01-01T00:45:42.000Z</time>
      </trkpt>
      <trkpt lat="41.240729" lon="1.475222">
        <ele>332.4</ele>
        <time>1970-01-01T00:45:43.000Z</time>
      </trkpt>
      <trkpt lat="41.240711" lon="1.475277">
        <ele>332.4</ele>
        <time>1970-01-01T00:45:44.000Z</time>
      </trkpt>
      <trkpt lat="41.240693" lon="1.475333">
        <ele>332.4</ele>
        <time>1970-01-01T00:45:45.000Z</time>
      </trkpt>
      <trkpt lat="41.24066" lon="1.475446">
        <ele>332.3</ele>
        <time>1970-01-01T00:45:47.000Z</time>
      </trkpt>
      <trkpt lat="41.240654" lon="1.47558">
        <ele>332.4</ele>
        <time>1970-01-01T00:45:49.000Z</time>
      </trkpt>
      <trkpt lat="41.240736" lon="1.475808">
        <ele>333.2</ele>
        <time>1970-01-01T00:45:53.000Z</time>
      </trkpt>
      <trkpt lat="41.240843" lon="1.475806">
        <ele>334</ele>
        <time>1970-01-01T00:45:56.000Z</time>
      </trkpt>
      <trkpt lat="41.240876" lon="1.475792">
        <ele>334.4</ele>
        <time>1970-01-01T00:45:57.000Z</time>
      </trkpt>
      <trkpt lat="41.240975" lon="1.475796">
        <ele>335.4</ele>
        <time>1970-01-01T00:46:00.000Z</time>
      </trkpt>
      <trkpt lat="41.241038" lon="1.475808">
        <ele>336</ele>
        <time>1970-01-01T00:46:02.000Z</time>
      </trkpt>
      <trkpt lat="41.241105" lon="1.475833">
        <ele>336.7</ele>
        <time>1970-01-01T00:46:05.000Z</time>
      </trkpt>
      <trkpt lat="41.241122" lon="1.47585">
        <ele>336.9</ele>
        <time>1970-01-01T00:46:06.000Z</time>
      </trkpt>
      <trkpt lat="41.241154" lon="1.475903">
        <ele>337.4</ele>
        <time>1970-01-01T00:46:08.000Z</time>
      </trkpt>
      <trkpt lat="41.241185" lon="1.475965">
        <ele>337.8</ele>
        <time>1970-01-01T00:46:10.000Z</time>
      </trkpt>
      <trkpt lat="41.241205" lon="1.475991">
        <ele>338</ele>
        <time>1970-01-01T00:46:11.000Z</time>
      </trkpt>
      <trkpt lat="41.241227" lon="1.476011">
        <ele>338.1</ele>
        <time>1970-01-01T00:46:12.000Z</time>
      </trkpt>
      <trkpt lat="41.24129" lon="1.476043">
        <ele>338.3</ele>
        <time>1970-01-01T00:46:15.000Z</time>
      </trkpt>
      <trkpt lat="41.24132" lon="1.476053">
        <ele>338.3</ele>
        <time>1970-01-01T00:46:16.000Z</time>
      </trkpt>
      <trkpt lat="41.241384" lon="1.476107">
        <ele>338.2</ele>
        <time>1970-01-01T00:46:18.000Z</time>
      </trkpt>
      <trkpt lat="41.24142" lon="1.476163">
        <ele>338.2</ele>
        <time>1970-01-01T00:46:19.000Z</time>
      </trkpt>
      <trkpt lat="41.241563" lon="1.476394">
        <ele>336.6</ele>
        <time>1970-01-01T00:46:22.000Z</time>
      </trkpt>
      <trkpt lat="41.241642" lon="1.476467">
        <ele>335.5</ele>
        <time>1970-01-01T00:46:23.000Z</time>
      </trkpt>
      <trkpt lat="41.241857" lon="1.476638">
        <ele>332.1</ele>
        <time>1970-01-01T00:46:26.000Z</time>
      </trkpt>
      <trkpt lat="41.241859" lon="1.476804">
        <ele>330.3</ele>
        <time>1970-01-01T00:46:28.000Z</time>
      </trkpt>
      <trkpt lat="41.241721" lon="1.476913">
        <ele>328.5</ele>
        <time>1970-01-01T00:46:30.000Z</time>
      </trkpt>
      <trkpt lat="41.24163" lon="1.47692">
        <ele>327.5</ele>
        <time>1970-01-01T00:46:31.000Z</time>
      </trkpt>
      <trkpt lat="41.241539" lon="1.476912">
        <ele>326.4</ele>
        <time>1970-01-01T00:46:32.000Z</time>
      </trkpt>
      <trkpt lat="41.241447" lon="1.476899">
        <ele>325.2</ele>
        <time>1970-01-01T00:46:33.000Z</time>
      </trkpt>
      <trkpt lat="41.241251" lon="1.476869">
        <ele>322.9</ele>
        <time>1970-01-01T00:46:35.000Z</time>
      </trkpt>
      <trkpt lat="41.241149" lon="1.476818">
        <ele>322</ele>
        <time>1970-01-01T00:46:36.000Z</time>
      </trkpt>
      <trkpt lat="41.241058" lon="1.476737">
        <ele>321.3</ele>
        <time>1970-01-01T00:46:37.000Z</time>
      </trkpt>
      <trkpt lat="41.240884" lon="1.476575">
        <ele>320</ele>
        <time>1970-01-01T00:46:39.000Z</time>
      </trkpt>
      <trkpt lat="41.240795" lon="1.476513">
        <ele>319.1</ele>
        <time>1970-01-01T00:46:40.000Z</time>
      </trkpt>
      <trkpt lat="41.240611" lon="1.47642">
        <ele>316.8</ele>
        <time>1970-01-01T00:46:42.000Z</time>
      </trkpt>
      <trkpt lat="41.240422" lon="1.476301">
        <ele>313.6</ele>
        <time>1970-01-01T00:46:44.000Z</time>
      </trkpt>
      <trkpt lat="41.240331" lon="1.476242">
        <ele>312</ele>
        <time>1970-01-01T00:46:45.000Z</time>
      </trkpt>
      <trkpt lat="41.240243" lon="1.476213">
        <ele>310.6</ele>
        <time>1970-01-01T00:46:46.000Z</time>
      </trkpt>
      <trkpt lat="41.240164" lon="1.476218">
        <ele>309.6</ele>
        <time>1970-01-01T00:46:47.000Z</time>
      </trkpt>
      <trkpt lat="41.240087" lon="1.476242">
        <ele>308.4</ele>
        <time>1970-01-01T00:46:48.000Z</time>
      </trkpt>
      <trkpt lat="41.24002" lon="1.476265">
        <ele>308.3</ele>
        <time>1970-01-01T00:46:49.000Z</time>
      </trkpt>
      <trkpt lat="41.239964" lon="1.476269">
        <ele>308.1</ele>
        <time>1970-01-01T00:46:50.000Z</time>
      </trkpt>
      <trkpt lat="41.239922" lon="1.476242">
        <ele>308</ele>
        <time>1970-01-01T00:46:51.000Z</time>
      </trkpt>
      <trkpt lat="41.239888" lon="1.476197">
        <ele>307.9</ele>
        <time>1970-01-01T00:46:52.000Z</time>
      </trkpt>
      <trkpt lat="41.23986" lon="1.476144">
        <ele>307.7</ele>
        <time>1970-01-01T00:46:53.000Z</time>
      </trkpt>
      <trkpt lat="41.239836" lon="1.476081">
        <ele>307.6</ele>
        <time>1970-01-01T00:46:54.000Z</time>
      </trkpt>
      <trkpt lat="41.239816" lon="1.476012">
        <ele>307.4</ele>
        <time>1970-01-01T00:46:55.000Z</time>
      </trkpt>
      <trkpt lat="41.239801" lon="1.475934">
        <ele>307.1</ele>
        <time>1970-01-01T00:46:56.000Z</time>
      </trkpt>
      <trkpt lat="41.239797" lon="1.475843">
        <ele>306.7</ele>
        <time>1970-01-01T00:46:57.000Z</time>
      </trkpt>
      <trkpt lat="41.239809" lon="1.475746">
        <ele>306.2</ele>
        <time>1970-01-01T00:46:58.000Z</time>
      </trkpt>
      <trkpt lat="41.239831" lon="1.475648">
        <ele>305.7</ele>
        <time>1970-01-01T00:46:59.000Z</time>
      </trkpt>
      <trkpt lat="41.239856" lon="1.475545">
        <ele>305.2</ele>
        <time>1970-01-01T00:47:00.000Z</time>
      </trkpt>
      <trkpt lat="41.239903" lon="1.475328">
        <ele>304.3</ele>
        <time>1970-01-01T00:47:02.000Z</time>
      </trkpt>
      <trkpt lat="41.239909" lon="1.475218">
        <ele>304</ele>
        <time>1970-01-01T00:47:03.000Z</time>
      </trkpt>
      <trkpt lat="41.239859" lon="1.475012">
        <ele>303.3</ele>
        <time>1970-01-01T00:47:05.000Z</time>
      </trkpt>
      <trkpt lat="41.239826" lon="1.474914">
        <ele>302.9</ele>
        <time>1970-01-01T00:47:06.000Z</time>
      </trkpt>
      <trkpt lat="41.239798" lon="1.474816">
        <ele>302.6</ele>
        <time>1970-01-01T00:47:07.000Z</time>
      </trkpt>
      <trkpt lat="41.239782" lon="1.474715">
        <ele>302.3</ele>
        <time>1970-01-01T00:47:08.000Z</time>
      </trkpt>
      <trkpt lat="41.23978" lon="1.474516">
        <ele>301.8</ele>
        <time>1970-01-01T00:47:10.000Z</time>
      </trkpt>
      <trkpt lat="41.239813" lon="1.47432">
        <ele>301.3</ele>
        <time>1970-01-01T00:47:12.000Z</time>
      </trkpt>
      <trkpt lat="41.239876" lon="1.474144">
        <ele>301</ele>
        <time>1970-01-01T00:47:14.000Z</time>
      </trkpt>
      <trkpt lat="41.239957" lon="1.473979">
        <ele>300.7</ele>
        <time>1970-01-01T00:47:16.000Z</time>
      </trkpt>
      <trkpt lat="41.239996" lon="1.473902">
        <ele>300.6</ele>
        <time>1970-01-01T00:47:17.000Z</time>
      </trkpt>
      <trkpt lat="41.240027" lon="1.473817">
        <ele>300.5</ele>
        <time>1970-01-01T00:47:18.000Z</time>
      </trkpt>
      <trkpt lat="41.24013" lon="1.473477">
        <ele>300.1</ele>
        <time>1970-01-01T00:47:22.000Z</time>
      </trkpt>
      <trkpt lat="41.240144" lon="1.473405">
        <ele>300.1</ele>
        <time>1970-01-01T00:47:23.000Z</time>
      </trkpt>
      <trkpt lat="41.24016" lon="1.473342">
        <ele>300.1</ele>
        <time>1970-01-01T00:47:24.000Z</time>
      </trkpt>
      <trkpt lat="41.240184" lon="1.473167">
        <ele>300.1</ele>
        <time>1970-01-01T00:47:27.000Z</time>
      </trkpt>
      <trkpt lat="41.240185" lon="1.473106">
        <ele>300.1</ele>
        <time>1970-01-01T00:47:28.000Z</time>
      </trkpt>
      <trkpt lat="41.240181" lon="1.47298">
        <ele>300.3</ele>
        <time>1970-01-01T00:47:30.000Z</time>
      </trkpt>
      <trkpt lat="41.240161" lon="1.472791">
        <ele>300.7</ele>
        <time>1970-01-01T00:47:33.000Z</time>
      </trkpt>
      <trkpt lat="41.24013" lon="1.472617">
        <ele>301.5</ele>
        <time>1970-01-01T00:47:36.000Z</time>
      </trkpt>
      <trkpt lat="41.240104" lon="1.47252">
        <ele>302.2</ele>
        <time>1970-01-01T00:47:38.000Z</time>
      </trkpt>
      <trkpt lat="41.240091" lon="1.472395">
        <ele>303.1</ele>
        <time>1970-01-01T00:47:41.000Z</time>
      </trkpt>
      <trkpt lat="41.240106" lon="1.472358">
        <ele>303.4</ele>
        <time>1970-01-01T00:47:42.000Z</time>
      </trkpt>
      <trkpt lat="41.240128" lon="1.472322">
        <ele>303.8</ele>
        <time>1970-01-01T00:47:43.000Z</time>
      </trkpt>
      <trkpt lat="41.240171" lon="1.472255">
        <ele>304.4</ele>
        <time>1970-01-01T00:47:45.000Z</time>
      </trkpt>
      <trkpt lat="41.240189" lon="1.47222">
        <ele>304.7</ele>
        <time>1970-01-01T00:47:46.000Z</time>
      </trkpt>
      <trkpt lat="41.240218" lon="1.47215">
        <ele>305.3</ele>
        <time>1970-01-01T00:47:48.000Z</time>
      </trkpt>
      <trkpt lat="41.240236" lon="1.472113">
        <ele>305.6</ele>
        <time>1970-01-01T00:47:49.000Z</time>
      </trkpt>
      <trkpt lat="41.240274" lon="1.47203">
        <ele>306.1</ele>
        <time>1970-01-01T00:47:51.000Z</time>
      </trkpt>
      <trkpt lat="41.240309" lon="1.471941">
        <ele>306.6</ele>
        <time>1970-01-01T00:47:53.000Z</time>
      </trkpt>
      <trkpt lat="41.240321" lon="1.471893">
        <ele>306.8</ele>
        <time>1970-01-01T00:47:54.000Z</time>
      </trkpt>
      <trkpt lat="41.240321" lon="1.47179">
        <ele>307.3</ele>
        <time>1970-01-01T00:47:56.000Z</time>
      </trkpt>
      <trkpt lat="41.240314" lon="1.471741">
        <ele>307.5</ele>
        <time>1970-01-01T00:47:57.000Z</time>
      </trkpt>
      <trkpt lat="41.240252" lon="1.471564">
        <ele>308.8</ele>
        <time>1970-01-01T00:48:01.000Z</time>
      </trkpt>
      <trkpt lat="41.240229" lon="1.471393">
        <ele>310.1</ele>
        <time>1970-01-01T00:48:05.000Z</time>
      </trkpt>
      <trkpt lat="41.240232" lon="1.471348">
        <ele>310.5</ele>
        <time>1970-01-01T00:48:06.000Z</time>
      </trkpt>
      <trkpt lat="41.240221" lon="1.471261">
        <ele>311.2</ele>
        <time>1970-01-01T00:48:08.000Z</time>
      </trkpt>
      <trkpt lat="41.240175" lon="1.471191">
        <ele>312</ele>
        <time>1970-01-01T00:48:10.000Z</time>
      </trkpt>
      <trkpt lat="41.240114" lon="1.471157">
        <ele>312.7</ele>
        <time>1970-01-01T00:48:12.000Z</time>
      </trkpt>
      <trkpt lat="41.240021" lon="1.471127">
        <ele>313.7</ele>
        <time>1970-01-01T00:48:15.000Z</time>
      </trkpt>
      <trkpt lat="41.239872" lon="1.47104">
        <ele>315.5</ele>
        <time>1970-01-01T00:48:20.000Z</time>
      </trkpt>
      <trkpt lat="41.23985" lon="1.471009">
        <ele>315.8</ele>
        <time>1970-01-01T00:48:21.000Z</time>
      </trkpt>
      <trkpt lat="41.239825" lon="1.470934">
        <ele>316.5</ele>
        <time>1970-01-01T00:48:23.000Z</time>
      </trkpt>
      <trkpt lat="41.239826" lon="1.470853">
        <ele>317.1</ele>
        <time>1970-01-01T00:48:25.000Z</time>
      </trkpt>
      <trkpt lat="41.239829" lon="1.47081">
        <ele>317.4</ele>
        <time>1970-01-01T00:48:26.000Z</time>
      </trkpt>
      <trkpt lat="41.239846" lon="1.470631">
        <ele>318.5</ele>
        <time>1970-01-01T00:48:30.000Z</time>
      </trkpt>
      <trkpt lat="41.239868" lon="1.470497">
        <ele>319.2</ele>
        <time>1970-01-01T00:48:33.000Z</time>
      </trkpt>
      <trkpt lat="41.239944" lon="1.470245">
        <ele>320.8</ele>
        <time>1970-01-01T00:48:39.000Z</time>
      </trkpt>
      <trkpt lat="41.23996" lon="1.470207">
        <ele>321</ele>
        <time>1970-01-01T00:48:40.000Z</time>
      </trkpt>
      <trkpt lat="41.240047" lon="1.470078">
        <ele>322.1</ele>
        <time>1970-01-01T00:48:44.000Z</time>
      </trkpt>
      <trkpt lat="41.240107" lon="1.470032">
        <ele>322.6</ele>
        <time>1970-01-01T00:48:46.000Z</time>
      </trkpt>
      <trkpt lat="41.240164" lon="1.46997">
        <ele>323.1</ele>
        <time>1970-01-01T00:48:48.000Z</time>
      </trkpt>
      <trkpt lat="41.240218" lon="1.469831">
        <ele>323.7</ele>
        <time>1970-01-01T00:48:51.000Z</time>
      </trkpt>
      <trkpt lat="41.240289" lon="1.469595">
        <ele>324.7</ele>
        <time>1970-01-01T00:48:56.000Z</time>
      </trkpt>
      <trkpt lat="41.240321" lon="1.469567">
        <ele>324.9</ele>
        <time>1970-01-01T00:48:57.000Z</time>
      </trkpt>
      <trkpt lat="41.24038" lon="1.469551">
        <ele>325.3</ele>
        <time>1970-01-01T00:48:59.000Z</time>
      </trkpt>
      <trkpt lat="41.240402" lon="1.469554">
        <ele>325.4</ele>
        <time>1970-01-01T00:49:00.000Z</time>
      </trkpt>
      <trkpt lat="41.24048" lon="1.469521">
        <ele>325.8</ele>
        <time>1970-01-01T00:49:04.000Z</time>
      </trkpt>
      <trkpt lat="41.24051" lon="1.469472">
        <ele>326.1</ele>
        <time>1970-01-01T00:49:06.000Z</time>
      </trkpt>
      <trkpt lat="41.240619" lon="1.469314">
        <ele>327.1</ele>
        <time>1970-01-01T00:49:12.000Z</time>
      </trkpt>
      <trkpt lat="41.240665" lon="1.469276">
        <ele>327.4</ele>
        <time>1970-01-01T00:49:14.000Z</time>
      </trkpt>
      <trkpt lat="41.240785" lon="1.469147">
        <ele>328.4</ele>
        <time>1970-01-01T00:49:19.000Z</time>
      </trkpt>
      <trkpt lat="41.24084" lon="1.469031">
        <ele>328.9</ele>
        <time>1970-01-01T00:49:22.000Z</time>
      </trkpt>
      <trkpt lat="41.240838" lon="1.468986">
        <ele>329.1</ele>
        <time>1970-01-01T00:49:23.000Z</time>
      </trkpt>
      <trkpt lat="41.240747" lon="1.468832">
        <ele>329.7</ele>
        <time>1970-01-01T00:49:27.000Z</time>
      </trkpt>
      <trkpt lat="41.240714" lon="1.468797">
        <ele>329.9</ele>
        <time>1970-01-01T00:49:28.000Z</time>
      </trkpt>
      <trkpt lat="41.240559" lon="1.468691">
        <ele>330.7</ele>
        <time>1970-01-01T00:49:32.000Z</time>
      </trkpt>
      <trkpt lat="41.240515" lon="1.46867">
        <ele>330.9</ele>
        <time>1970-01-01T00:49:33.000Z</time>
      </trkpt>
      <trkpt lat="41.240351" lon="1.468596">
        <ele>332.4</ele>
        <time>1970-01-01T00:49:37.000Z</time>
      </trkpt>
      <trkpt lat="41.240236" lon="1.468436">
        <ele>334.3</ele>
        <time>1970-01-01T00:49:42.000Z</time>
      </trkpt>
      <trkpt lat="41.240196" lon="1.468289">
        <ele>335.7</ele>
        <time>1970-01-01T00:49:46.000Z</time>
      </trkpt>
      <trkpt lat="41.240177" lon="1.468214">
        <ele>336.4</ele>
        <time>1970-01-01T00:49:48.000Z</time>
      </trkpt>
      <trkpt lat="41.24017" lon="1.468174">
        <ele>336.6</ele>
        <time>1970-01-01T00:49:49.000Z</time>
      </trkpt>
      <trkpt lat="41.240157" lon="1.468095">
        <ele>337.2</ele>
        <time>1970-01-01T00:49:51.000Z</time>
      </trkpt>
      <trkpt lat="41.240151" lon="1.467969">
        <ele>337.8</ele>
        <time>1970-01-01T00:49:54.000Z</time>
      </trkpt>
      <trkpt lat="41.240158" lon="1.467921">
        <ele>338</ele>
        <time>1970-01-01T00:49:55.000Z</time>
      </trkpt>
      <trkpt lat="41.240184" lon="1.467706">
        <ele>339</ele>
        <time>1970-01-01T00:49:59.000Z</time>
      </trkpt>
      <trkpt lat="41.240207" lon="1.467602">
        <ele>339.4</ele>
        <time>1970-01-01T00:50:01.000Z</time>
      </trkpt>
      <trkpt lat="41.24022" lon="1.467549">
        <ele>339.6</ele>
        <time>1970-01-01T00:50:02.000Z</time>
      </trkpt>
      <trkpt lat="41.240315" lon="1.467328">
        <ele>340.8</ele>
        <time>1970-01-01T00:50:07.000Z</time>
      </trkpt>
      <trkpt lat="41.240379" lon="1.467197">
        <ele>341.5</ele>
        <time>1970-01-01T00:50:10.000Z</time>
      </trkpt>
      <trkpt lat="41.240452" lon="1.466996">
        <ele>342.2</ele>
        <time>1970-01-01T00:50:14.000Z</time>
      </trkpt>
      <trkpt lat="41.240466" lon="1.466943">
        <ele>342.4</ele>
        <time>1970-01-01T00:50:15.000Z</time>
      </trkpt>
      <trkpt lat="41.240506" lon="1.466785">
        <ele>342.8</ele>
        <time>1970-01-01T00:50:18.000Z</time>
      </trkpt>
      <trkpt lat="41.240571" lon="1.466701">
        <ele>343</ele>
        <time>1970-01-01T00:50:20.000Z</time>
      </trkpt>
      <trkpt lat="41.240672" lon="1.466645">
        <ele>343.2</ele>
        <time>1970-01-01T00:50:22.000Z</time>
      </trkpt>
      <trkpt lat="41.240725" lon="1.466611">
        <ele>343.2</ele>
        <time>1970-01-01T00:50:23.000Z</time>
      </trkpt>
      <trkpt lat="41.240769" lon="1.466567">
        <ele>343.3</ele>
        <time>1970-01-01T00:50:24.000Z</time>
      </trkpt>
      <trkpt lat="41.240866" lon="1.466405">
        <ele>343.5</ele>
        <time>1970-01-01T00:50:27.000Z</time>
      </trkpt>
      <trkpt lat="41.24098" lon="1.466292">
        <ele>343.9</ele>
        <time>1970-01-01T00:50:30.000Z</time>
      </trkpt>
      <trkpt lat="41.241083" lon="1.4662">
        <ele>344.3</ele>
        <time>1970-01-01T00:50:33.000Z</time>
      </trkpt>
      <trkpt lat="41.241154" lon="1.466147">
        <ele>344.7</ele>
        <time>1970-01-01T00:50:35.000Z</time>
      </trkpt>
      <trkpt lat="41.241229" lon="1.466091">
        <ele>345.1</ele>
        <time>1970-01-01T00:50:37.000Z</time>
      </trkpt>
      <trkpt lat="41.241248" lon="1.466044">
        <ele>345.2</ele>
        <time>1970-01-01T00:50:38.000Z</time>
      </trkpt>
      <trkpt lat="41.241197" lon="1.465904">
        <ele>345.9</ele>
        <time>1970-01-01T00:50:41.000Z</time>
      </trkpt>
      <trkpt lat="41.241165" lon="1.465873">
        <ele>346.2</ele>
        <time>1970-01-01T00:50:42.000Z</time>
      </trkpt>
      <trkpt lat="41.241132" lon="1.465845">
        <ele>346.5</ele>
        <time>1970-01-01T00:50:43.000Z</time>
      </trkpt>
      <trkpt lat="41.241032" lon="1.465781">
        <ele>347.7</ele>
        <time>1970-01-01T00:50:46.000Z</time>
      </trkpt>
      <trkpt lat="41.240904" lon="1.465728">
        <ele>349.4</ele>
        <time>1970-01-01T00:50:50.000Z</time>
      </trkpt>
      <trkpt lat="41.240871" lon="1.46572">
        <ele>349.9</ele>
        <time>1970-01-01T00:50:51.000Z</time>
      </trkpt>
      <trkpt lat="41.240811" lon="1.465699">
        <ele>350.7</ele>
        <time>1970-01-01T00:50:53.000Z</time>
      </trkpt>
      <trkpt lat="41.240726" lon="1.465668">
        <ele>351.8</ele>
        <time>1970-01-01T00:50:56.000Z</time>
      </trkpt>
      <trkpt lat="41.240654" lon="1.465655">
        <ele>352.5</ele>
        <time>1970-01-01T00:50:58.000Z</time>
      </trkpt>
      <trkpt lat="41.240581" lon="1.465628">
        <ele>353.2</ele>
        <time>1970-01-01T00:51:00.000Z</time>
      </trkpt>
      <trkpt lat="41.240549" lon="1.465602">
        <ele>353.6</ele>
        <time>1970-01-01T00:51:01.000Z</time>
      </trkpt>
      <trkpt lat="41.240522" lon="1.465571">
        <ele>354.1</ele>
        <time>1970-01-01T00:51:02.000Z</time>
      </trkpt>
      <trkpt lat="41.240463" lon="1.465511">
        <ele>355.1</ele>
        <time>1970-01-01T00:51:04.000Z</time>
      </trkpt>
      <trkpt lat="41.240402" lon="1.465429">
        <ele>356.3</ele>
        <time>1970-01-01T00:51:07.000Z</time>
      </trkpt>
      <trkpt lat="41.240399" lon="1.465395">
        <ele>356.6</ele>
        <time>1970-01-01T00:51:08.000Z</time>
      </trkpt>
      <trkpt lat="41.240399" lon="1.465362">
        <ele>356.9</ele>
        <time>1970-01-01T00:51:09.000Z</time>
      </trkpt>
      <trkpt lat="41.240414" lon="1.465259">
        <ele>357.8</ele>
        <time>1970-01-01T00:51:12.000Z</time>
      </trkpt>
      <trkpt lat="41.240429" lon="1.465227">
        <ele>358.2</ele>
        <time>1970-01-01T00:51:13.000Z</time>
      </trkpt>
      <trkpt lat="41.24045" lon="1.465202">
        <ele>358.6</ele>
        <time>1970-01-01T00:51:14.000Z</time>
      </trkpt>
      <trkpt lat="41.240502" lon="1.465183">
        <ele>359.4</ele>
        <time>1970-01-01T00:51:16.000Z</time>
      </trkpt>
      <trkpt lat="41.240531" lon="1.465189">
        <ele>359.9</ele>
        <time>1970-01-01T00:51:17.000Z</time>
      </trkpt>
      <trkpt lat="41.240563" lon="1.465195">
        <ele>360.4</ele>
        <time>1970-01-01T00:51:18.000Z</time>
      </trkpt>
      <trkpt lat="41.240679" lon="1.465197">
        <ele>362.1</ele>
        <time>1970-01-01T00:51:21.000Z</time>
      </trkpt>
      <trkpt lat="41.240721" lon="1.465189">
        <ele>362.6</ele>
        <time>1970-01-01T00:51:22.000Z</time>
      </trkpt>
      <trkpt lat="41.24084" lon="1.465159">
        <ele>363.5</ele>
        <time>1970-01-01T00:51:25.000Z</time>
      </trkpt>
      <trkpt lat="41.240864" lon="1.465126">
        <ele>363.6</ele>
        <time>1970-01-01T00:51:26.000Z</time>
      </trkpt>
      <trkpt lat="41.240881" lon="1.465034">
        <ele>363.9</ele>
        <time>1970-01-01T00:51:28.000Z</time>
      </trkpt>
      <trkpt lat="41.240885" lon="1.464983">
        <ele>364.1</ele>
        <time>1970-01-01T00:51:29.000Z</time>
      </trkpt>
      <trkpt lat="41.240889" lon="1.464933">
        <ele>364.3</ele>
        <time>1970-01-01T00:51:30.000Z</time>
      </trkpt>
      <trkpt lat="41.240894" lon="1.464887">
        <ele>364.4</ele>
        <time>1970-01-01T00:51:31.000Z</time>
      </trkpt>
      <trkpt lat="41.24092" lon="1.464769">
        <ele>364.9</ele>
        <time>1970-01-01T00:51:34.000Z</time>
      </trkpt>
      <trkpt lat="41.240933" lon="1.464727">
        <ele>365.1</ele>
        <time>1970-01-01T00:51:35.000Z</time>
      </trkpt>
      <trkpt lat="41.240959" lon="1.464639">
        <ele>365.4</ele>
        <time>1970-01-01T00:51:37.000Z</time>
      </trkpt>
      <trkpt lat="41.240993" lon="1.464515">
        <ele>365.7</ele>
        <time>1970-01-01T00:51:40.000Z</time>
      </trkpt>
      <trkpt lat="41.241008" lon="1.464437">
        <ele>365.9</ele>
        <time>1970-01-01T00:51:42.000Z</time>
      </trkpt>
      <trkpt lat="41.24102" lon="1.464272">
        <ele>366.3</ele>
        <time>1970-01-01T00:51:46.000Z</time>
      </trkpt>
      <trkpt lat="41.24102" lon="1.464076">
        <ele>366.8</ele>
        <time>1970-01-01T00:51:51.000Z</time>
      </trkpt>
      <trkpt lat="41.24102" lon="1.46387">
        <ele>367.3</ele>
        <time>1970-01-01T00:51:57.000Z</time>
      </trkpt>
      <trkpt lat="41.241027" lon="1.463709">
        <ele>367.7</ele>
        <time>1970-01-01T00:52:01.000Z</time>
      </trkpt>
      <trkpt lat="41.241031" lon="1.463577">
        <ele>367.9</ele>
        <time>1970-01-01T00:52:04.000Z</time>
      </trkpt>
      <trkpt lat="41.241015" lon="1.463269">
        <ele>368</ele>
        <time>1970-01-01T00:52:11.000Z</time>
      </trkpt>
      <trkpt lat="41.240992" lon="1.462999">
        <ele>367.3</ele>
        <time>1970-01-01T00:52:16.000Z</time>
      </trkpt>
      <trkpt lat="41.240993" lon="1.462926">
        <ele>367</ele>
        <time>1970-01-01T00:52:17.000Z</time>
      </trkpt>
      <trkpt lat="41.241027" lon="1.462762">
        <ele>366.1</ele>
        <time>1970-01-01T00:52:19.000Z</time>
      </trkpt>
      <trkpt lat="41.241167" lon="1.462543">
        <ele>364.3</ele>
        <time>1970-01-01T00:52:22.000Z</time>
      </trkpt>
      <trkpt lat="41.241439" lon="1.462328">
        <ele>361.5</ele>
        <time>1970-01-01T00:52:26.000Z</time>
      </trkpt>
      <trkpt lat="41.241492" lon="1.462261">
        <ele>361</ele>
        <time>1970-01-01T00:52:27.000Z</time>
      </trkpt>
      <trkpt lat="41.241574" lon="1.462099">
        <ele>360.2</ele>
        <time>1970-01-01T00:52:29.000Z</time>
      </trkpt>
      <trkpt lat="41.24161" lon="1.462016">
        <ele>359.9</ele>
        <time>1970-01-01T00:52:30.000Z</time>
      </trkpt>
      <trkpt lat="41.241634" lon="1.461867">
        <ele>360.2</ele>
        <time>1970-01-01T00:52:32.000Z</time>
      </trkpt>
      <trkpt lat="41.241625" lon="1.461803">
        <ele>360.3</ele>
        <time>1970-01-01T00:52:33.000Z</time>
      </trkpt>
      <trkpt lat="41.241615" lon="1.461684">
        <ele>360.6</ele>
        <time>1970-01-01T00:52:35.000Z</time>
      </trkpt>
      <trkpt lat="41.241643" lon="1.46138">
        <ele>361</ele>
        <time>1970-01-01T00:52:41.000Z</time>
      </trkpt>
      <trkpt lat="41.241636" lon="1.46119">
        <ele>360.9</ele>
        <time>1970-01-01T00:52:45.000Z</time>
      </trkpt>
      <trkpt lat="41.241618" lon="1.461151">
        <ele>360.8</ele>
        <time>1970-01-01T00:52:46.000Z</time>
      </trkpt>
      <trkpt lat="41.241553" lon="1.460977">
        <ele>360.5</ele>
        <time>1970-01-01T00:52:50.000Z</time>
      </trkpt>
      <trkpt lat="41.241544" lon="1.460922">
        <ele>360.4</ele>
        <time>1970-01-01T00:52:51.000Z</time>
      </trkpt>
      <trkpt lat="41.241536" lon="1.4608">
        <ele>360.2</ele>
        <time>1970-01-01T00:52:53.000Z</time>
      </trkpt>
      <trkpt lat="41.241552" lon="1.460652">
        <ele>360</ele>
        <time>1970-01-01T00:52:55.000Z</time>
      </trkpt>
      <trkpt lat="41.241587" lon="1.460424">
        <ele>360.1</ele>
        <time>1970-01-01T00:52:58.000Z</time>
      </trkpt>
      <trkpt lat="41.241626" lon="1.460221">
        <ele>360.4</ele>
        <time>1970-01-01T00:53:01.000Z</time>
      </trkpt>
      <trkpt lat="41.241641" lon="1.46009">
        <ele>360.8</ele>
        <time>1970-01-01T00:53:03.000Z</time>
      </trkpt>
      <trkpt lat="41.241645" lon="1.459825">
        <ele>361.6</ele>
        <time>1970-01-01T00:53:07.000Z</time>
      </trkpt>
      <trkpt lat="41.241644" lon="1.459689">
        <ele>362.1</ele>
        <time>1970-01-01T00:53:09.000Z</time>
      </trkpt>
      <trkpt lat="41.241644" lon="1.459539">
        <ele>362.7</ele>
        <time>1970-01-01T00:53:12.000Z</time>
      </trkpt>
      <trkpt lat="41.241683" lon="1.459312">
        <ele>363.6</ele>
        <time>1970-01-01T00:53:17.000Z</time>
      </trkpt>
      <trkpt lat="41.241714" lon="1.459222">
        <ele>364</ele>
        <time>1970-01-01T00:53:19.000Z</time>
      </trkpt>
      <trkpt lat="41.241735" lon="1.459181">
        <ele>364.3</ele>
        <time>1970-01-01T00:53:20.000Z</time>
      </trkpt>
      <trkpt lat="41.241809" lon="1.458978">
        <ele>365.6</ele>
        <time>1970-01-01T00:53:25.000Z</time>
      </trkpt>
      <trkpt lat="41.241809" lon="1.458937">
        <ele>365.8</ele>
        <time>1970-01-01T00:53:26.000Z</time>
      </trkpt>
      <trkpt lat="41.241773" lon="1.458876">
        <ele>366.4</ele>
        <time>1970-01-01T00:53:28.000Z</time>
      </trkpt>
      <trkpt lat="41.241715" lon="1.458857">
        <ele>366.9</ele>
        <time>1970-01-01T00:53:30.000Z</time>
      </trkpt>
      <trkpt lat="41.241654" lon="1.458847">
        <ele>367.5</ele>
        <time>1970-01-01T00:53:32.000Z</time>
      </trkpt>
      <trkpt lat="41.241562" lon="1.458792">
        <ele>368.4</ele>
        <time>1970-01-01T00:53:35.000Z</time>
      </trkpt>
      <trkpt lat="41.241529" lon="1.458772">
        <ele>368.8</ele>
        <time>1970-01-01T00:53:36.000Z</time>
      </trkpt>
      <trkpt lat="41.241494" lon="1.458757">
        <ele>369.1</ele>
        <time>1970-01-01T00:53:37.000Z</time>
      </trkpt>
      <trkpt lat="41.241391" lon="1.458706">
        <ele>370</ele>
        <time>1970-01-01T00:53:40.000Z</time>
      </trkpt>
      <trkpt lat="41.241289" lon="1.458653">
        <ele>370.9</ele>
        <time>1970-01-01T00:53:43.000Z</time>
      </trkpt>
      <trkpt lat="41.241256" lon="1.458631">
        <ele>371.2</ele>
        <time>1970-01-01T00:53:44.000Z</time>
      </trkpt>
      <trkpt lat="41.241114" lon="1.458538">
        <ele>372.6</ele>
        <time>1970-01-01T00:53:48.000Z</time>
      </trkpt>
      <trkpt lat="41.241076" lon="1.458513">
        <ele>373</ele>
        <time>1970-01-01T00:53:49.000Z</time>
      </trkpt>
      <trkpt lat="41.241007" lon="1.458446">
        <ele>373.7</ele>
        <time>1970-01-01T00:53:51.000Z</time>
      </trkpt>
      <trkpt lat="41.240977" lon="1.45841">
        <ele>374.1</ele>
        <time>1970-01-01T00:53:52.000Z</time>
      </trkpt>
      <trkpt lat="41.240916" lon="1.458337">
        <ele>374.8</ele>
        <time>1970-01-01T00:53:54.000Z</time>
      </trkpt>
      <trkpt lat="41.240886" lon="1.458305">
        <ele>375.1</ele>
        <time>1970-01-01T00:53:55.000Z</time>
      </trkpt>
      <trkpt lat="41.240765" lon="1.458186">
        <ele>376.3</ele>
        <time>1970-01-01T00:53:59.000Z</time>
      </trkpt>
      <trkpt lat="41.240725" lon="1.458157">
        <ele>376.6</ele>
        <time>1970-01-01T00:54:00.000Z</time>
      </trkpt>
      <trkpt lat="41.240594" lon="1.458077">
        <ele>377.6</ele>
        <time>1970-01-01T00:54:03.000Z</time>
      </trkpt>
      <trkpt lat="41.240515" lon="1.458001">
        <ele>378.1</ele>
        <time>1970-01-01T00:54:05.000Z</time>
      </trkpt>
      <trkpt lat="41.240408" lon="1.457853">
        <ele>379</ele>
        <time>1970-01-01T00:54:08.000Z</time>
      </trkpt>
      <trkpt lat="41.240352" lon="1.457744">
        <ele>379.5</ele>
        <time>1970-01-01T00:54:10.000Z</time>
      </trkpt>
      <trkpt lat="41.240302" lon="1.45764">
        <ele>379.9</ele>
        <time>1970-01-01T00:54:12.000Z</time>
      </trkpt>
      <trkpt lat="41.240261" lon="1.457529">
        <ele>380.1</ele>
        <time>1970-01-01T00:54:14.000Z</time>
      </trkpt>
      <trkpt lat="41.240249" lon="1.457473">
        <ele>380.2</ele>
        <time>1970-01-01T00:54:15.000Z</time>
      </trkpt>
      <trkpt lat="41.240237" lon="1.457365">
        <ele>380.2</ele>
        <time>1970-01-01T00:54:17.000Z</time>
      </trkpt>
      <trkpt lat="41.240242" lon="1.457211">
        <ele>380</ele>
        <time>1970-01-01T00:54:20.000Z</time>
      </trkpt>
      <trkpt lat="41.240248" lon="1.457162">
        <ele>379.8</ele>
        <time>1970-01-01T00:54:21.000Z</time>
      </trkpt>
      <trkpt lat="41.240248" lon="1.456955">
        <ele>378.9</ele>
        <time>1970-01-01T00:54:25.000Z</time>
      </trkpt>
      <trkpt lat="41.240233" lon="1.456825">
        <ele>378.2</ele>
        <time>1970-01-01T00:54:27.000Z</time>
      </trkpt>
      <trkpt lat="41.240163" lon="1.456409">
        <ele>375.5</ele>
        <time>1970-01-01T00:54:32.000Z</time>
      </trkpt>
      <trkpt lat="41.240063" lon="1.455915">
        <ele>372.4</ele>
        <time>1970-01-01T00:54:37.000Z</time>
      </trkpt>
      <trkpt lat="41.240043" lon="1.455811">
        <ele>371.7</ele>
        <time>1970-01-01T00:54:38.000Z</time>
      </trkpt>
      <trkpt lat="41.240024" lon="1.455701">
        <ele>371</ele>
        <time>1970-01-01T00:54:39.000Z</time>
      </trkpt>
      <trkpt lat="41.239982" lon="1.455479">
        <ele>369.4</ele>
        <time>1970-01-01T00:54:41.000Z</time>
      </trkpt>
      <trkpt lat="41.239929" lon="1.455252">
        <ele>367.6</ele>
        <time>1970-01-01T00:54:43.000Z</time>
      </trkpt>
      <trkpt lat="41.239879" lon="1.455017">
        <ele>365.9</ele>
        <time>1970-01-01T00:54:45.000Z</time>
      </trkpt>
      <trkpt lat="41.239824" lon="1.454773">
        <ele>364.4</ele>
        <time>1970-01-01T00:54:47.000Z</time>
      </trkpt>
      <trkpt lat="41.239772" lon="1.454533">
        <ele>363.3</ele>
        <time>1970-01-01T00:54:49.000Z</time>
      </trkpt>
      <trkpt lat="41.239747" lon="1.454416">
        <ele>362.8</ele>
        <time>1970-01-01T00:54:50.000Z</time>
      </trkpt>
      <trkpt lat="41.2397" lon="1.454193">
        <ele>362.2</ele>
        <time>1970-01-01T00:54:52.000Z</time>
      </trkpt>
      <trkpt lat="41.239664" lon="1.453983">
        <ele>361.9</ele>
        <time>1970-01-01T00:54:54.000Z</time>
      </trkpt>
      <trkpt lat="41.239648" lon="1.453883">
        <ele>361.7</ele>
        <time>1970-01-01T00:54:55.000Z</time>
      </trkpt>
      <trkpt lat="41.239633" lon="1.453785">
        <ele>361.5</ele>
        <time>1970-01-01T00:54:56.000Z</time>
      </trkpt>
      <trkpt lat="41.239605" lon="1.453598">
        <ele>361.3</ele>
        <time>1970-01-01T00:54:58.000Z</time>
      </trkpt>
      <trkpt lat="41.239586" lon="1.453513">
        <ele>361.1</ele>
        <time>1970-01-01T00:54:59.000Z</time>
      </trkpt>
      <trkpt lat="41.239565" lon="1.453435">
        <ele>361</ele>
        <time>1970-01-01T00:55:00.000Z</time>
      </trkpt>
      <trkpt lat="41.239535" lon="1.453285">
        <ele>360.7</ele>
        <time>1970-01-01T00:55:02.000Z</time>
      </trkpt>
      <trkpt lat="41.239514" lon="1.453141">
        <ele>360.3</ele>
        <time>1970-01-01T00:55:04.000Z</time>
      </trkpt>
      <trkpt lat="41.239516" lon="1.453067">
        <ele>360</ele>
        <time>1970-01-01T00:55:05.000Z</time>
      </trkpt>
      <trkpt lat="41.23957" lon="1.452843">
        <ele>358.8</ele>
        <time>1970-01-01T00:55:08.000Z</time>
      </trkpt>
      <trkpt lat="41.239594" lon="1.452763">
        <ele>358.4</ele>
        <time>1970-01-01T00:55:09.000Z</time>
      </trkpt>
      <trkpt lat="41.239675" lon="1.452385">
        <ele>356.5</ele>
        <time>1970-01-01T00:55:13.000Z</time>
      </trkpt>
      <trkpt lat="41.239688" lon="1.452287">
        <ele>355.9</ele>
        <time>1970-01-01T00:55:14.000Z</time>
      </trkpt>
      <trkpt lat="41.239736" lon="1.451993">
        <ele>353.9</ele>
        <time>1970-01-01T00:55:17.000Z</time>
      </trkpt>
      <trkpt lat="41.239758" lon="1.451781">
        <ele>352.5</ele>
        <time>1970-01-01T00:55:19.000Z</time>
      </trkpt>
      <trkpt lat="41.239745" lon="1.451565">
        <ele>351.1</ele>
        <time>1970-01-01T00:55:21.000Z</time>
      </trkpt>
      <trkpt lat="41.239718" lon="1.451352">
        <ele>349.2</ele>
        <time>1970-01-01T00:55:23.000Z</time>
      </trkpt>
      <trkpt lat="41.239692" lon="1.451204">
        <ele>347.8</ele>
        <time>1970-01-01T00:55:25.000Z</time>
      </trkpt>
      <trkpt lat="41.239678" lon="1.451165">
        <ele>347.8</ele>
        <time>1970-01-01T00:55:26.000Z</time>
      </trkpt>
      <trkpt lat="41.239636" lon="1.451143">
        <ele>347.9</ele>
        <time>1970-01-01T00:55:28.000Z</time>
      </trkpt>
      <trkpt lat="41.239613" lon="1.451153">
        <ele>347.9</ele>
        <time>1970-01-01T00:55:29.000Z</time>
      </trkpt>
      <trkpt lat="41.239589" lon="1.451165">
        <ele>347.9</ele>
        <time>1970-01-01T00:55:30.000Z</time>
      </trkpt>
      <trkpt lat="41.239539" lon="1.451184">
        <ele>347.9</ele>
        <time>1970-01-01T00:55:32.000Z</time>
      </trkpt>
      <trkpt lat="41.239513" lon="1.451194">
        <ele>347.9</ele>
        <time>1970-01-01T00:55:33.000Z</time>
      </trkpt>
      <trkpt lat="41.239486" lon="1.451203">
        <ele>348</ele>
        <time>1970-01-01T00:55:34.000Z</time>
      </trkpt>
      <trkpt lat="41.23943" lon="1.451223">
        <ele>348</ele>
        <time>1970-01-01T00:55:36.000Z</time>
      </trkpt>
      <trkpt lat="41.239204" lon="1.451306">
        <ele>348</ele>
        <time>1970-01-01T00:55:43.000Z</time>
      </trkpt>
      <trkpt lat="41.238991" lon="1.451376">
        <ele>347.8</ele>
        <time>1970-01-01T00:55:48.000Z</time>
      </trkpt>
      <trkpt lat="41.238903" lon="1.451368">
        <ele>347.6</ele>
        <time>1970-01-01T00:55:50.000Z</time>
      </trkpt>
      <trkpt lat="41.238778" lon="1.451295">
        <ele>347.4</ele>
        <time>1970-01-01T00:55:53.000Z</time>
      </trkpt>
      <trkpt lat="41.23869" lon="1.451227">
        <ele>347.2</ele>
        <time>1970-01-01T00:55:55.000Z</time>
      </trkpt>
      <trkpt lat="41.238482" lon="1.450972">
        <ele>346.3</ele>
        <time>1970-01-01T00:56:01.000Z</time>
      </trkpt>
      <trkpt lat="41.23829" lon="1.450674">
        <ele>345.1</ele>
        <time>1970-01-01T00:56:07.000Z</time>
      </trkpt>
      <trkpt lat="41.238251" lon="1.450623">
        <ele>344.9</ele>
        <time>1970-01-01T00:56:08.000Z</time>
      </trkpt>
      <trkpt lat="41.238169" lon="1.450529">
        <ele>344.4</ele>
        <time>1970-01-01T00:56:10.000Z</time>
      </trkpt>
      <trkpt lat="41.238076" lon="1.450441">
        <ele>344</ele>
        <time>1970-01-01T00:56:12.000Z</time>
      </trkpt>
      <trkpt lat="41.237968" lon="1.450376">
        <ele>343.6</ele>
        <time>1970-01-01T00:56:14.000Z</time>
      </trkpt>
      <trkpt lat="41.23791" lon="1.450352">
        <ele>343.5</ele>
        <time>1970-01-01T00:56:15.000Z</time>
      </trkpt>
      <trkpt lat="41.23785" lon="1.450333">
        <ele>343.3</ele>
        <time>1970-01-01T00:56:16.000Z</time>
      </trkpt>
      <trkpt lat="41.237683" lon="1.45028">
        <ele>342.8</ele>
        <time>1970-01-01T00:56:19.000Z</time>
      </trkpt>
      <trkpt lat="41.23763" lon="1.450263">
        <ele>342.6</ele>
        <time>1970-01-01T00:56:20.000Z</time>
      </trkpt>
      <trkpt lat="41.237518" lon="1.450232">
        <ele>342.2</ele>
        <time>1970-01-01T00:56:22.000Z</time>
      </trkpt>
      <trkpt lat="41.237288" lon="1.450126">
        <ele>340.7</ele>
        <time>1970-01-01T00:56:26.000Z</time>
      </trkpt>
      <trkpt lat="41.237076" lon="1.449877">
        <ele>338.9</ele>
        <time>1970-01-01T00:56:30.000Z</time>
      </trkpt>
      <trkpt lat="41.237032" lon="1.449793">
        <ele>338.6</ele>
        <time>1970-01-01T00:56:31.000Z</time>
      </trkpt>
      <trkpt lat="41.236991" lon="1.449705">
        <ele>338.3</ele>
        <time>1970-01-01T00:56:32.000Z</time>
      </trkpt>
      <trkpt lat="41.236887" lon="1.449443">
        <ele>336.9</ele>
        <time>1970-01-01T00:56:35.000Z</time>
      </trkpt>
      <trkpt lat="41.236864" lon="1.44936">
        <ele>336.3</ele>
        <time>1970-01-01T00:56:36.000Z</time>
      </trkpt>
      <trkpt lat="41.236858" lon="1.449185">
        <ele>335.1</ele>
        <time>1970-01-01T00:56:38.000Z</time>
      </trkpt>
      <trkpt lat="41.236868" lon="1.448989">
        <ele>333.8</ele>
        <time>1970-01-01T00:56:40.000Z</time>
      </trkpt>
      <trkpt lat="41.236865" lon="1.448782">
        <ele>332.3</ele>
        <time>1970-01-01T00:56:42.000Z</time>
      </trkpt>
      <trkpt lat="41.236858" lon="1.448609">
        <ele>331</ele>
        <time>1970-01-01T00:56:44.000Z</time>
      </trkpt>
      <trkpt lat="41.236845" lon="1.448554">
        <ele>330.6</ele>
        <time>1970-01-01T00:56:45.000Z</time>
      </trkpt>
      <trkpt lat="41.236777" lon="1.448486">
        <ele>329.8</ele>
        <time>1970-01-01T00:56:47.000Z</time>
      </trkpt>
      <trkpt lat="41.23672" lon="1.448471">
        <ele>329.4</ele>
        <time>1970-01-01T00:56:48.000Z</time>
      </trkpt>
      <trkpt lat="41.23665" lon="1.448462">
        <ele>329</ele>
        <time>1970-01-01T00:56:49.000Z</time>
      </trkpt>
      <trkpt lat="41.236495" lon="1.448432">
        <ele>328.3</ele>
        <time>1970-01-01T00:56:51.000Z</time>
      </trkpt>
      <trkpt lat="41.236418" lon="1.448411">
        <ele>327.9</ele>
        <time>1970-01-01T00:56:52.000Z</time>
      </trkpt>
      <trkpt lat="41.236349" lon="1.448387">
        <ele>327.6</ele>
        <time>1970-01-01T00:56:53.000Z</time>
      </trkpt>
      <trkpt lat="41.236219" lon="1.448345">
        <ele>326.9</ele>
        <time>1970-01-01T00:56:55.000Z</time>
      </trkpt>
      <trkpt lat="41.236155" lon="1.448319">
        <ele>326.5</ele>
        <time>1970-01-01T00:56:56.000Z</time>
      </trkpt>
      <trkpt lat="41.236089" lon="1.448286">
        <ele>326</ele>
        <time>1970-01-01T00:56:57.000Z</time>
      </trkpt>
      <trkpt lat="41.235955" lon="1.44821">
        <ele>324.5</ele>
        <time>1970-01-01T00:56:59.000Z</time>
      </trkpt>
      <trkpt lat="41.235885" lon="1.448184">
        <ele>323.4</ele>
        <time>1970-01-01T00:57:00.000Z</time>
      </trkpt>
      <trkpt lat="41.235812" lon="1.448176">
        <ele>322.2</ele>
        <time>1970-01-01T00:57:01.000Z</time>
      </trkpt>
      <trkpt lat="41.235542" lon="1.448193">
        <ele>318.8</ele>
        <time>1970-01-01T00:57:04.000Z</time>
      </trkpt>
      <trkpt lat="41.235435" lon="1.448171">
        <ele>317.9</ele>
        <time>1970-01-01T00:57:05.000Z</time>
      </trkpt>
      <trkpt lat="41.235245" lon="1.448055">
        <ele>316.4</ele>
        <time>1970-01-01T00:57:07.000Z</time>
      </trkpt>
      <trkpt lat="41.235175" lon="1.447976">
        <ele>315.7</ele>
        <time>1970-01-01T00:57:08.000Z</time>
      </trkpt>
      <trkpt lat="41.235019" lon="1.447842">
        <ele>314.3</ele>
        <time>1970-01-01T00:57:10.000Z</time>
      </trkpt>
      <trkpt lat="41.234932" lon="1.447789">
        <ele>313.5</ele>
        <time>1970-01-01T00:57:11.000Z</time>
      </trkpt>
      <trkpt lat="41.234842" lon="1.447741">
        <ele>312.7</ele>
        <time>1970-01-01T00:57:12.000Z</time>
      </trkpt>
      <trkpt lat="41.234749" lon="1.447695">
        <ele>311.7</ele>
        <time>1970-01-01T00:57:13.000Z</time>
      </trkpt>
      <trkpt lat="41.234653" lon="1.447653">
        <ele>310.8</ele>
        <time>1970-01-01T00:57:14.000Z</time>
      </trkpt>
      <trkpt lat="41.234558" lon="1.447616">
        <ele>310</ele>
        <time>1970-01-01T00:57:15.000Z</time>
      </trkpt>
      <trkpt lat="41.234468" lon="1.44759">
        <ele>309.2</ele>
        <time>1970-01-01T00:57:16.000Z</time>
      </trkpt>
      <trkpt lat="41.234386" lon="1.447583">
        <ele>308.6</ele>
        <time>1970-01-01T00:57:17.000Z</time>
      </trkpt>
      <trkpt lat="41.234228" lon="1.447622">
        <ele>307.3</ele>
        <time>1970-01-01T00:57:19.000Z</time>
      </trkpt>
      <trkpt lat="41.234146" lon="1.44763">
        <ele>306.7</ele>
        <time>1970-01-01T00:57:20.000Z</time>
      </trkpt>
      <trkpt lat="41.234063" lon="1.447629">
        <ele>306</ele>
        <time>1970-01-01T00:57:21.000Z</time>
      </trkpt>
      <trkpt lat="41.233889" lon="1.447631">
        <ele>304.5</ele>
        <time>1970-01-01T00:57:23.000Z</time>
      </trkpt>
      <trkpt lat="41.233802" lon="1.447642">
        <ele>303.6</ele>
        <time>1970-01-01T00:57:24.000Z</time>
      </trkpt>
      <trkpt lat="41.233717" lon="1.447667">
        <ele>302.5</ele>
        <time>1970-01-01T00:57:25.000Z</time>
      </trkpt>
      <trkpt lat="41.233635" lon="1.447704">
        <ele>301.3</ele>
        <time>1970-01-01T00:57:26.000Z</time>
      </trkpt>
      <trkpt lat="41.233488" lon="1.447829">
        <ele>298.7</ele>
        <time>1970-01-01T00:57:28.000Z</time>
      </trkpt>
      <trkpt lat="41.23342" lon="1.447907">
        <ele>297.3</ele>
        <time>1970-01-01T00:57:29.000Z</time>
      </trkpt>
      <trkpt lat="41.233351" lon="1.447994">
        <ele>295.9</ele>
        <time>1970-01-01T00:57:30.000Z</time>
      </trkpt>
      <trkpt lat="41.233275" lon="1.448082">
        <ele>294.6</ele>
        <time>1970-01-01T00:57:31.000Z</time>
      </trkpt>
      <trkpt lat="41.233192" lon="1.448167">
        <ele>293.5</ele>
        <time>1970-01-01T00:57:32.000Z</time>
      </trkpt>
      <trkpt lat="41.233105" lon="1.448248">
        <ele>292.6</ele>
        <time>1970-01-01T00:57:33.000Z</time>
      </trkpt>
      <trkpt lat="41.233011" lon="1.448313">
        <ele>291.9</ele>
        <time>1970-01-01T00:57:34.000Z</time>
      </trkpt>
      <trkpt lat="41.23291" lon="1.448353">
        <ele>291.4</ele>
        <time>1970-01-01T00:57:35.000Z</time>
      </trkpt>
      <trkpt lat="41.232813" lon="1.448371">
        <ele>290.8</ele>
        <time>1970-01-01T00:57:36.000Z</time>
      </trkpt>
      <trkpt lat="41.232719" lon="1.448382">
        <ele>290.5</ele>
        <time>1970-01-01T00:57:37.000Z</time>
      </trkpt>
      <trkpt lat="41.232618" lon="1.448398">
        <ele>290.1</ele>
        <time>1970-01-01T00:57:38.000Z</time>
      </trkpt>
      <trkpt lat="41.232513" lon="1.448424">
        <ele>289.7</ele>
        <time>1970-01-01T00:57:39.000Z</time>
      </trkpt>
      <trkpt lat="41.232404" lon="1.448453">
        <ele>289.1</ele>
        <time>1970-01-01T00:57:40.000Z</time>
      </trkpt>
      <trkpt lat="41.23229" lon="1.448474">
        <ele>288.4</ele>
        <time>1970-01-01T00:57:41.000Z</time>
      </trkpt>
      <trkpt lat="41.232178" lon="1.448488">
        <ele>288.2</ele>
        <time>1970-01-01T00:57:42.000Z</time>
      </trkpt>
      <trkpt lat="41.232083" lon="1.448497">
        <ele>288.4</ele>
        <time>1970-01-01T00:57:43.000Z</time>
      </trkpt>
      <trkpt lat="41.231997" lon="1.448506">
        <ele>289.2</ele>
        <time>1970-01-01T00:57:44.000Z</time>
      </trkpt>
      <trkpt lat="41.231933" lon="1.448496">
        <ele>290.1</ele>
        <time>1970-01-01T00:57:45.000Z</time>
      </trkpt>
      <trkpt lat="41.231892" lon="1.448462">
        <ele>290.8</ele>
        <time>1970-01-01T00:57:46.000Z</time>
      </trkpt>
      <trkpt lat="41.231867" lon="1.448414">
        <ele>291.4</ele>
        <time>1970-01-01T00:57:47.000Z</time>
      </trkpt>
      <trkpt lat="41.231852" lon="1.448361">
        <ele>292</ele>
        <time>1970-01-01T00:57:48.000Z</time>
      </trkpt>
      <trkpt lat="41.231837" lon="1.448304">
        <ele>292.6</ele>
        <time>1970-01-01T00:57:49.000Z</time>
      </trkpt>
      <trkpt lat="41.231817" lon="1.448246">
        <ele>293.2</ele>
        <time>1970-01-01T00:57:50.000Z</time>
      </trkpt>
      <trkpt lat="41.23175" lon="1.448177">
        <ele>294.1</ele>
        <time>1970-01-01T00:57:52.000Z</time>
      </trkpt>
      <trkpt lat="41.231709" lon="1.448172">
        <ele>294.4</ele>
        <time>1970-01-01T00:57:53.000Z</time>
      </trkpt>
      <trkpt lat="41.23162" lon="1.448161">
        <ele>294.9</ele>
        <time>1970-01-01T00:57:55.000Z</time>
      </trkpt>
      <trkpt lat="41.231575" lon="1.448154">
        <ele>295</ele>
        <time>1970-01-01T00:57:56.000Z</time>
      </trkpt>
      <trkpt lat="41.231476" lon="1.448107">
        <ele>294.9</ele>
        <time>1970-01-01T00:57:58.000Z</time>
      </trkpt>
      <trkpt lat="41.23129" lon="1.447977">
        <ele>294</ele>
        <time>1970-01-01T00:58:02.000Z</time>
      </trkpt>
      <trkpt lat="41.231274" lon="1.447974">
        <ele>294</ele>
        <time>1970-01-01T00:58:05.000Z</time>
      </trkpt>
      <trkpt lat="41.231275" lon="1.447975">
        <ele>294</ele>
        <time>1970-01-01T00:58:07.000Z</time>
      </trkpt>
      <trkpt lat="41.23127" lon="1.447971">
        <ele>293.9</ele>
        <time>1970-01-01T00:58:10.000Z</time>
      </trkpt>
      <trkpt lat="41.231241" lon="1.447961">
        <ele>293.8</ele>
        <time>1970-01-01T00:58:12.000Z</time>
      </trkpt>
      <trkpt lat="41.231166" lon="1.447933">
        <ele>293.5</ele>
        <time>1970-01-01T00:58:15.000Z</time>
      </trkpt>
      <trkpt lat="41.231086" lon="1.44789">
        <ele>293.1</ele>
        <time>1970-01-01T00:58:18.000Z</time>
      </trkpt>
      <trkpt lat="41.231015" lon="1.447868">
        <ele>292.8</ele>
        <time>1970-01-01T00:58:20.000Z</time>
      </trkpt>
      <trkpt lat="41.230917" lon="1.447819">
        <ele>292.5</ele>
        <time>1970-01-01T00:58:22.000Z</time>
      </trkpt>
      <trkpt lat="41.230668" lon="1.447701">
        <ele>291.1</ele>
        <time>1970-01-01T00:58:26.000Z</time>
      </trkpt>
      <trkpt lat="41.230356" lon="1.44752">
        <ele>288.1</ele>
        <time>1970-01-01T00:58:30.000Z</time>
      </trkpt>
      <trkpt lat="41.230127" lon="1.447372">
        <ele>286.4</ele>
        <time>1970-01-01T00:58:33.000Z</time>
      </trkpt>
      <trkpt lat="41.229995" lon="1.44729">
        <ele>286</ele>
        <time>1970-01-01T00:58:35.000Z</time>
      </trkpt>
      <trkpt lat="41.229877" lon="1.447232">
        <ele>286.3</ele>
        <time>1970-01-01T00:58:37.000Z</time>
      </trkpt>
      <trkpt lat="41.229766" lon="1.447195">
        <ele>286.8</ele>
        <time>1970-01-01T00:58:39.000Z</time>
      </trkpt>
      <trkpt lat="41.229653" lon="1.447162">
        <ele>287.2</ele>
        <time>1970-01-01T00:58:41.000Z</time>
      </trkpt>
      <trkpt lat="41.229488" lon="1.447052">
        <ele>287.5</ele>
        <time>1970-01-01T00:58:44.000Z</time>
      </trkpt>
      <trkpt lat="41.229271" lon="1.446807">
        <ele>286.1</ele>
        <time>1970-01-01T00:58:48.000Z</time>
      </trkpt>
      <trkpt lat="41.229045" lon="1.446715">
        <ele>283.1</ele>
        <time>1970-01-01T00:58:51.000Z</time>
      </trkpt>
      <trkpt lat="41.228759" lon="1.446642">
        <ele>278.2</ele>
        <time>1970-01-01T00:58:55.000Z</time>
      </trkpt>
      <trkpt lat="41.228683" lon="1.446639">
        <ele>276.7</ele>
        <time>1970-01-01T00:58:56.000Z</time>
      </trkpt>
      <trkpt lat="41.228604" lon="1.446633">
        <ele>275</ele>
        <time>1970-01-01T00:58:57.000Z</time>
      </trkpt>
      <trkpt lat="41.228529" lon="1.446614">
        <ele>273.5</ele>
        <time>1970-01-01T00:58:58.000Z</time>
      </trkpt>
      <trkpt lat="41.228468" lon="1.446574">
        <ele>272.4</ele>
        <time>1970-01-01T00:58:59.000Z</time>
      </trkpt>
      <trkpt lat="41.228409" lon="1.446524">
        <ele>271.4</ele>
        <time>1970-01-01T00:59:00.000Z</time>
      </trkpt>
      <trkpt lat="41.22835" lon="1.446469">
        <ele>270.5</ele>
        <time>1970-01-01T00:59:01.000Z</time>
      </trkpt>
      <trkpt lat="41.228293" lon="1.446406">
        <ele>269.8</ele>
        <time>1970-01-01T00:59:02.000Z</time>
      </trkpt>
      <trkpt lat="41.228239" lon="1.446336">
        <ele>269.2</ele>
        <time>1970-01-01T00:59:03.000Z</time>
      </trkpt>
      <trkpt lat="41.228192" lon="1.446263">
        <ele>268.7</ele>
        <time>1970-01-01T00:59:04.000Z</time>
      </trkpt>
      <trkpt lat="41.228146" lon="1.446187">
        <ele>268.2</ele>
        <time>1970-01-01T00:59:05.000Z</time>
      </trkpt>
      <trkpt lat="41.228103" lon="1.446109">
        <ele>267.8</ele>
        <time>1970-01-01T00:59:06.000Z</time>
      </trkpt>
      <trkpt lat="41.228063" lon="1.446027">
        <ele>267.5</ele>
        <time>1970-01-01T00:59:07.000Z</time>
      </trkpt>
      <trkpt lat="41.228027" lon="1.445942">
        <ele>267.1</ele>
        <time>1970-01-01T00:59:08.000Z</time>
      </trkpt>
      <trkpt lat="41.227948" lon="1.445776">
        <ele>266.4</ele>
        <time>1970-01-01T00:59:10.000Z</time>
      </trkpt>
      <trkpt lat="41.227854" lon="1.445638">
        <ele>265.4</ele>
        <time>1970-01-01T00:59:12.000Z</time>
      </trkpt>
      <trkpt lat="41.227797" lon="1.445609">
        <ele>264.9</ele>
        <time>1970-01-01T00:59:13.000Z</time>
      </trkpt>
      <trkpt lat="41.227683" lon="1.445656">
        <ele>263.9</ele>
        <time>1970-01-01T00:59:15.000Z</time>
      </trkpt>
      <trkpt lat="41.227584" lon="1.445861">
        <ele>262</ele>
        <time>1970-01-01T00:59:18.000Z</time>
      </trkpt>
      <trkpt lat="41.227592" lon="1.445932">
        <ele>261.5</ele>
        <time>1970-01-01T00:59:19.000Z</time>
      </trkpt>
      <trkpt lat="41.227649" lon="1.446068">
        <ele>260.3</ele>
        <time>1970-01-01T00:59:21.000Z</time>
      </trkpt>
      <trkpt lat="41.227687" lon="1.446137">
        <ele>259.8</ele>
        <time>1970-01-01T00:59:22.000Z</time>
      </trkpt>
      <trkpt lat="41.227728" lon="1.446205">
        <ele>259.3</ele>
        <time>1970-01-01T00:59:23.000Z</time>
      </trkpt>
      <trkpt lat="41.227851" lon="1.446453">
        <ele>257.6</ele>
        <time>1970-01-01T00:59:26.000Z</time>
      </trkpt>
      <trkpt lat="41.227924" lon="1.446666">
        <ele>255.9</ele>
        <time>1970-01-01T00:59:28.000Z</time>
      </trkpt>
      <trkpt lat="41.227954" lon="1.446791">
        <ele>254.8</ele>
        <time>1970-01-01T00:59:29.000Z</time>
      </trkpt>
      <trkpt lat="41.227979" lon="1.446922">
        <ele>253.6</ele>
        <time>1970-01-01T00:59:30.000Z</time>
      </trkpt>
      <trkpt lat="41.228007" lon="1.44716">
        <ele>251.6</ele>
        <time>1970-01-01T00:59:32.000Z</time>
      </trkpt>
      <trkpt lat="41.228005" lon="1.447261">
        <ele>250.6</ele>
        <time>1970-01-01T00:59:33.000Z</time>
      </trkpt>
      <trkpt lat="41.227981" lon="1.44746">
        <ele>248.4</ele>
        <time>1970-01-01T00:59:35.000Z</time>
      </trkpt>
      <trkpt lat="41.227963" lon="1.447549">
        <ele>247.2</ele>
        <time>1970-01-01T00:59:36.000Z</time>
      </trkpt>
      <trkpt lat="41.227937" lon="1.447629">
        <ele>246.1</ele>
        <time>1970-01-01T00:59:37.000Z</time>
      </trkpt>
      <trkpt lat="41.227896" lon="1.447693">
        <ele>245.1</ele>
        <time>1970-01-01T00:59:38.000Z</time>
      </trkpt>
      <trkpt lat="41.227767" lon="1.447796">
        <ele>242.4</ele>
        <time>1970-01-01T00:59:40.000Z</time>
      </trkpt>
      <trkpt lat="41.227697" lon="1.447838">
        <ele>241</ele>
        <time>1970-01-01T00:59:41.000Z</time>
      </trkpt>
      <trkpt lat="41.22763" lon="1.447869">
        <ele>239.7</ele>
        <time>1970-01-01T00:59:42.000Z</time>
      </trkpt>
      <trkpt lat="41.227564" lon="1.447885">
        <ele>238.4</ele>
        <time>1970-01-01T00:59:43.000Z</time>
      </trkpt>
      <trkpt lat="41.227495" lon="1.447886">
        <ele>237.2</ele>
        <time>1970-01-01T00:59:44.000Z</time>
      </trkpt>
      <trkpt lat="41.227421" lon="1.447874">
        <ele>236</ele>
        <time>1970-01-01T00:59:45.000Z</time>
      </trkpt>
      <trkpt lat="41.227343" lon="1.447851">
        <ele>234.6</ele>
        <time>1970-01-01T00:59:46.000Z</time>
      </trkpt>
      <trkpt lat="41.227265" lon="1.447825">
        <ele>233.3</ele>
        <time>1970-01-01T00:59:47.000Z</time>
      </trkpt>
      <trkpt lat="41.227191" lon="1.447806">
        <ele>232</ele>
        <time>1970-01-01T00:59:48.000Z</time>
      </trkpt>
      <trkpt lat="41.227123" lon="1.447799">
        <ele>231.1</ele>
        <time>1970-01-01T00:59:49.000Z</time>
      </trkpt>
      <trkpt lat="41.227064" lon="1.447787">
        <ele>230.4</ele>
        <time>1970-01-01T00:59:50.000Z</time>
      </trkpt>
      <trkpt lat="41.227021" lon="1.447759">
        <ele>229.9</ele>
        <time>1970-01-01T00:59:51.000Z</time>
      </trkpt>
      <trkpt lat="41.226997" lon="1.447712">
        <ele>229.6</ele>
        <time>1970-01-01T00:59:52.000Z</time>
      </trkpt>
      <trkpt lat="41.226991" lon="1.447651">
        <ele>229.3</ele>
        <time>1970-01-01T00:59:53.000Z</time>
      </trkpt>
      <trkpt lat="41.226993" lon="1.447587">
        <ele>228.9</ele>
        <time>1970-01-01T00:59:54.000Z</time>
      </trkpt>
      <trkpt lat="41.226995" lon="1.447521">
        <ele>228.6</ele>
        <time>1970-01-01T00:59:55.000Z</time>
      </trkpt>
      <trkpt lat="41.226986" lon="1.447456">
        <ele>228.3</ele>
        <time>1970-01-01T00:59:56.000Z</time>
      </trkpt>
      <trkpt lat="41.226958" lon="1.447391">
        <ele>227.9</ele>
        <time>1970-01-01T00:59:57.000Z</time>
      </trkpt>
      <trkpt lat="41.226914" lon="1.447341">
        <ele>227.5</ele>
        <time>1970-01-01T00:59:58.000Z</time>
      </trkpt>
      <trkpt lat="41.22686" lon="1.447305">
        <ele>227.2</ele>
        <time>1970-01-01T00:59:59.000Z</time>
      </trkpt>
      <trkpt lat="41.2268" lon="1.447274">
        <ele>226.9</ele>
        <time>1970-01-01T01:00:00.000Z</time>
      </trkpt>
      <trkpt lat="41.226738" lon="1.447247">
        <ele>226.6</ele>
        <time>1970-01-01T01:00:01.000Z</time>
      </trkpt>
      <trkpt lat="41.226511" lon="1.447136">
        <ele>226</ele>
        <time>1970-01-01T01:00:05.000Z</time>
      </trkpt>
      <trkpt lat="41.22646" lon="1.447109">
        <ele>226</ele>
        <time>1970-01-01T01:00:06.000Z</time>
      </trkpt>
      <trkpt lat="41.226372" lon="1.447061">
        <ele>225.9</ele>
        <time>1970-01-01T01:00:08.000Z</time>
      </trkpt>
      <trkpt lat="41.226294" lon="1.447021">
        <ele>225.8</ele>
        <time>1970-01-01T01:00:10.000Z</time>
      </trkpt>
      <trkpt lat="41.226256" lon="1.446993">
        <ele>225.8</ele>
        <time>1970-01-01T01:00:11.000Z</time>
      </trkpt>
      <trkpt lat="41.226202" lon="1.446904">
        <ele>225.8</ele>
        <time>1970-01-01T01:00:13.000Z</time>
      </trkpt>
      <trkpt lat="41.226188" lon="1.446854">
        <ele>225.7</ele>
        <time>1970-01-01T01:00:14.000Z</time>
      </trkpt>
      <trkpt lat="41.226176" lon="1.446805">
        <ele>225.7</ele>
        <time>1970-01-01T01:00:15.000Z</time>
      </trkpt>
      <trkpt lat="41.226098" lon="1.446562">
        <ele>225.2</ele>
        <time>1970-01-01T01:00:20.000Z</time>
      </trkpt>
      <trkpt lat="41.226034" lon="1.446344">
        <ele>224.4</ele>
        <time>1970-01-01T01:00:23.000Z</time>
      </trkpt>
      <trkpt lat="41.225987" lon="1.446172">
        <ele>223.7</ele>
        <time>1970-01-01T01:00:25.000Z</time>
      </trkpt>
      <trkpt lat="41.225933" lon="1.446014">
        <ele>223</ele>
        <time>1970-01-01T01:00:27.000Z</time>
      </trkpt>
      <trkpt lat="41.225849" lon="1.445787">
        <ele>221.9</ele>
        <time>1970-01-01T01:00:30.000Z</time>
      </trkpt>
      <trkpt lat="41.225831" lon="1.445707">
        <ele>221.6</ele>
        <time>1970-01-01T01:00:31.000Z</time>
      </trkpt>
      <trkpt lat="41.225796" lon="1.445461">
        <ele>220.6</ele>
        <time>1970-01-01T01:00:34.000Z</time>
      </trkpt>
      <trkpt lat="41.225693" lon="1.445149">
        <ele>219.3</ele>
        <time>1970-01-01T01:00:38.000Z</time>
      </trkpt>
      <trkpt lat="41.225579" lon="1.444836">
        <ele>217.7</ele>
        <time>1970-01-01T01:00:42.000Z</time>
      </trkpt>
      <trkpt lat="41.225536" lon="1.44477">
        <ele>217.3</ele>
        <time>1970-01-01T01:00:43.000Z</time>
      </trkpt>
      <trkpt lat="41.225416" lon="1.444673">
        <ele>216.4</ele>
        <time>1970-01-01T01:00:45.000Z</time>
      </trkpt>
      <trkpt lat="41.225353" lon="1.444625">
        <ele>215.9</ele>
        <time>1970-01-01T01:00:46.000Z</time>
      </trkpt>
      <trkpt lat="41.225233" lon="1.444505">
        <ele>214.9</ele>
        <time>1970-01-01T01:00:48.000Z</time>
      </trkpt>
      <trkpt lat="41.225171" lon="1.444445">
        <ele>214.2</ele>
        <time>1970-01-01T01:00:49.000Z</time>
      </trkpt>
      <trkpt lat="41.225101" lon="1.444396">
        <ele>213.5</ele>
        <time>1970-01-01T01:00:50.000Z</time>
      </trkpt>
      <trkpt lat="41.225023" lon="1.444361">
        <ele>212.9</ele>
        <time>1970-01-01T01:00:51.000Z</time>
      </trkpt>
      <trkpt lat="41.224798" lon="1.44427">
        <ele>211.6</ele>
        <time>1970-01-01T01:00:54.000Z</time>
      </trkpt>
      <trkpt lat="41.224671" lon="1.444128">
        <ele>210.3</ele>
        <time>1970-01-01T01:00:56.000Z</time>
      </trkpt>
      <trkpt lat="41.224611" lon="1.444048">
        <ele>209.5</ele>
        <time>1970-01-01T01:00:57.000Z</time>
      </trkpt>
      <trkpt lat="41.224554" lon="1.443962">
        <ele>208.7</ele>
        <time>1970-01-01T01:00:58.000Z</time>
      </trkpt>
      <trkpt lat="41.224497" lon="1.443874">
        <ele>208</ele>
        <time>1970-01-01T01:00:59.000Z</time>
      </trkpt>
      <trkpt lat="41.224384" lon="1.443686">
        <ele>206.4</ele>
        <time>1970-01-01T01:01:01.000Z</time>
      </trkpt>
      <trkpt lat="41.224279" lon="1.443504">
        <ele>204.9</ele>
        <time>1970-01-01T01:01:03.000Z</time>
      </trkpt>
      <trkpt lat="41.224225" lon="1.443418">
        <ele>204.2</ele>
        <time>1970-01-01T01:01:04.000Z</time>
      </trkpt>
      <trkpt lat="41.224168" lon="1.443335">
        <ele>203.7</ele>
        <time>1970-01-01T01:01:05.000Z</time>
      </trkpt>
      <trkpt lat="41.224044" lon="1.443169">
        <ele>202.6</ele>
        <time>1970-01-01T01:01:07.000Z</time>
      </trkpt>
      <trkpt lat="41.223914" lon="1.442991">
        <ele>200.8</ele>
        <time>1970-01-01T01:01:09.000Z</time>
      </trkpt>
      <trkpt lat="41.223852" lon="1.442898">
        <ele>200</ele>
        <time>1970-01-01T01:01:10.000Z</time>
      </trkpt>
      <trkpt lat="41.22379" lon="1.442804">
        <ele>199.5</ele>
        <time>1970-01-01T01:01:11.000Z</time>
      </trkpt>
      <trkpt lat="41.223723" lon="1.442715">
        <ele>198.6</ele>
        <time>1970-01-01T01:01:12.000Z</time>
      </trkpt>
      <trkpt lat="41.223572" lon="1.442552">
        <ele>196.5</ele>
        <time>1970-01-01T01:01:14.000Z</time>
      </trkpt>
      <trkpt lat="41.223495" lon="1.442475">
        <ele>195.3</ele>
        <time>1970-01-01T01:01:15.000Z</time>
      </trkpt>
      <trkpt lat="41.223423" lon="1.442403">
        <ele>194.4</ele>
        <time>1970-01-01T01:01:16.000Z</time>
      </trkpt>
      <trkpt lat="41.223356" lon="1.442343">
        <ele>193.6</ele>
        <time>1970-01-01T01:01:17.000Z</time>
      </trkpt>
      <trkpt lat="41.223294" lon="1.442298">
        <ele>193.1</ele>
        <time>1970-01-01T01:01:18.000Z</time>
      </trkpt>
      <trkpt lat="41.22323" lon="1.44227">
        <ele>192.6</ele>
        <time>1970-01-01T01:01:19.000Z</time>
      </trkpt>
      <trkpt lat="41.223097" lon="1.442223">
        <ele>192.2</ele>
        <time>1970-01-01T01:01:21.000Z</time>
      </trkpt>
      <trkpt lat="41.223035" lon="1.442187">
        <ele>191.9</ele>
        <time>1970-01-01T01:01:22.000Z</time>
      </trkpt>
      <trkpt lat="41.222975" lon="1.442139">
        <ele>191.2</ele>
        <time>1970-01-01T01:01:23.000Z</time>
      </trkpt>
      <trkpt lat="41.222915" lon="1.442084">
        <ele>190.5</ele>
        <time>1970-01-01T01:01:24.000Z</time>
      </trkpt>
      <trkpt lat="41.222797" lon="1.441965">
        <ele>188.9</ele>
        <time>1970-01-01T01:01:26.000Z</time>
      </trkpt>
      <trkpt lat="41.222616" lon="1.441768">
        <ele>187.5</ele>
        <time>1970-01-01T01:01:29.000Z</time>
      </trkpt>
      <trkpt lat="41.222556" lon="1.441695">
        <ele>187.2</ele>
        <time>1970-01-01T01:01:30.000Z</time>
      </trkpt>
      <trkpt lat="41.222438" lon="1.441544">
        <ele>186.4</ele>
        <time>1970-01-01T01:01:32.000Z</time>
      </trkpt>
      <trkpt lat="41.222312" lon="1.441397">
        <ele>185.1</ele>
        <time>1970-01-01T01:01:34.000Z</time>
      </trkpt>
      <trkpt lat="41.22214" lon="1.441181">
        <ele>183</ele>
        <time>1970-01-01T01:01:37.000Z</time>
      </trkpt>
      <trkpt lat="41.222101" lon="1.44112">
        <ele>182.5</ele>
        <time>1970-01-01T01:01:38.000Z</time>
      </trkpt>
      <trkpt lat="41.222066" lon="1.441061">
        <ele>182</ele>
        <time>1970-01-01T01:01:39.000Z</time>
      </trkpt>
      <trkpt lat="41.222011" lon="1.440932">
        <ele>181.2</ele>
        <time>1970-01-01T01:01:41.000Z</time>
      </trkpt>
      <trkpt lat="41.221984" lon="1.440876">
        <ele>180.9</ele>
        <time>1970-01-01T01:01:42.000Z</time>
      </trkpt>
      <trkpt lat="41.221959" lon="1.440825">
        <ele>180.6</ele>
        <time>1970-01-01T01:01:43.000Z</time>
      </trkpt>
      <trkpt lat="41.221946" lon="1.440667">
        <ele>179.6</ele>
        <time>1970-01-01T01:01:46.000Z</time>
      </trkpt>
      <trkpt lat="41.221954" lon="1.440609">
        <ele>179.2</ele>
        <time>1970-01-01T01:01:47.000Z</time>
      </trkpt>
      <trkpt lat="41.221979" lon="1.440488">
        <ele>178.3</ele>
        <time>1970-01-01T01:01:49.000Z</time>
      </trkpt>
      <trkpt lat="41.222031" lon="1.440304">
        <ele>176.5</ele>
        <time>1970-01-01T01:01:52.000Z</time>
      </trkpt>
      <trkpt lat="41.222181" lon="1.440126">
        <ele>174.8</ele>
        <time>1970-01-01T01:01:56.000Z</time>
      </trkpt>
      <trkpt lat="41.222312" lon="1.440153">
        <ele>174.4</ele>
        <time>1970-01-01T01:01:58.000Z</time>
      </trkpt>
      <trkpt lat="41.222441" lon="1.440226">
        <ele>174</ele>
        <time>1970-01-01T01:02:00.000Z</time>
      </trkpt>
      <trkpt lat="41.222566" lon="1.440214">
        <ele>173.7</ele>
        <time>1970-01-01T01:02:02.000Z</time>
      </trkpt>
      <trkpt lat="41.222598" lon="1.440154">
        <ele>173.1</ele>
        <time>1970-01-01T01:02:03.000Z</time>
      </trkpt>
      <trkpt lat="41.222599" lon="1.440075">
        <ele>173.1</ele>
        <time>1970-01-01T01:02:04.000Z</time>
      </trkpt>
      <trkpt lat="41.222575" lon="1.440005">
        <ele>173</ele>
        <time>1970-01-01T01:02:05.000Z</time>
      </trkpt>
      <trkpt lat="41.222533" lon="1.439955">
        <ele>173</ele>
        <time>1970-01-01T01:02:06.000Z</time>
      </trkpt>
      <trkpt lat="41.222486" lon="1.439911">
        <ele>172.9</ele>
        <time>1970-01-01T01:02:07.000Z</time>
      </trkpt>
      <trkpt lat="41.222442" lon="1.439864">
        <ele>172.9</ele>
        <time>1970-01-01T01:02:08.000Z</time>
      </trkpt>
      <trkpt lat="41.222226" lon="1.43963">
        <ele>172.6</ele>
        <time>1970-01-01T01:02:13.000Z</time>
      </trkpt>
      <trkpt lat="41.221865" lon="1.439383">
        <ele>172.3</ele>
        <time>1970-01-01T01:02:20.000Z</time>
      </trkpt>
      <trkpt lat="41.221585" lon="1.439236">
        <ele>172</ele>
        <time>1970-01-01T01:02:25.000Z</time>
      </trkpt>
      <trkpt lat="41.221474" lon="1.439173">
        <ele>171.8</ele>
        <time>1970-01-01T01:02:27.000Z</time>
      </trkpt>
      <trkpt lat="41.221362" lon="1.439113">
        <ele>171.6</ele>
        <time>1970-01-01T01:02:29.000Z</time>
      </trkpt>
      <trkpt lat="41.22107" lon="1.43897">
        <ele>170.8</ele>
        <time>1970-01-01T01:02:34.000Z</time>
      </trkpt>
      <trkpt lat="41.221009" lon="1.438942">
        <ele>170.5</ele>
        <time>1970-01-01T01:02:35.000Z</time>
      </trkpt>
      <trkpt lat="41.220533" lon="1.438813">
        <ele>168.5</ele>
        <time>1970-01-01T01:02:42.000Z</time>
      </trkpt>
      <trkpt lat="41.220386" lon="1.438801">
        <ele>167.9</ele>
        <time>1970-01-01T01:02:44.000Z</time>
      </trkpt>
      <trkpt lat="41.220073" lon="1.438816">
        <ele>166.7</ele>
        <time>1970-01-01T01:02:48.000Z</time>
      </trkpt>
      <trkpt lat="41.219992" lon="1.438825">
        <ele>166.4</ele>
        <time>1970-01-01T01:02:49.000Z</time>
      </trkpt>
      <trkpt lat="41.219752" lon="1.438855">
        <ele>166</ele>
        <time>1970-01-01T01:02:52.000Z</time>
      </trkpt>
      <trkpt lat="41.219599" lon="1.438878">
        <ele>165.5</ele>
        <time>1970-01-01T01:02:54.000Z</time>
      </trkpt>
      <trkpt lat="41.219448" lon="1.438901">
        <ele>164.6</ele>
        <time>1970-01-01T01:02:56.000Z</time>
      </trkpt>
      <trkpt lat="41.219372" lon="1.43891">
        <ele>164.1</ele>
        <time>1970-01-01T01:02:57.000Z</time>
      </trkpt>
      <trkpt lat="41.219221" lon="1.438926">
        <ele>163.3</ele>
        <time>1970-01-01T01:02:59.000Z</time>
      </trkpt>
      <trkpt lat="41.219065" lon="1.438942">
        <ele>162.9</ele>
        <time>1970-01-01T01:03:01.000Z</time>
      </trkpt>
      <trkpt lat="41.218906" lon="1.438957">
        <ele>162.6</ele>
        <time>1970-01-01T01:03:03.000Z</time>
      </trkpt>
      <trkpt lat="41.218673" lon="1.438978">
        <ele>162</ele>
        <time>1970-01-01T01:03:06.000Z</time>
      </trkpt>
      <trkpt lat="41.218448" lon="1.439002">
        <ele>161.4</ele>
        <time>1970-01-01T01:03:09.000Z</time>
      </trkpt>
      <trkpt lat="41.218162" lon="1.439035">
        <ele>161</ele>
        <time>1970-01-01T01:03:13.000Z</time>
      </trkpt>
      <trkpt lat="41.218093" lon="1.439048">
        <ele>160.9</ele>
        <time>1970-01-01T01:03:14.000Z</time>
      </trkpt>
      <trkpt lat="41.217706" lon="1.439146">
        <ele>160.1</ele>
        <time>1970-01-01T01:03:20.000Z</time>
      </trkpt>
      <trkpt lat="41.217579" lon="1.439186">
        <ele>159.5</ele>
        <time>1970-01-01T01:03:22.000Z</time>
      </trkpt>
      <trkpt lat="41.217238" lon="1.439283">
        <ele>157.5</ele>
        <time>1970-01-01T01:03:27.000Z</time>
      </trkpt>
      <trkpt lat="41.217166" lon="1.439309">
        <ele>157</ele>
        <time>1970-01-01T01:03:28.000Z</time>
      </trkpt>
      <trkpt lat="41.216757" lon="1.439408">
        <ele>154.1</ele>
        <time>1970-01-01T01:03:33.000Z</time>
      </trkpt>
      <trkpt lat="41.21638" lon="1.439381">
        <ele>151.3</ele>
        <time>1970-01-01T01:03:37.000Z</time>
      </trkpt>
      <trkpt lat="41.216284" lon="1.439359">
        <ele>150.7</ele>
        <time>1970-01-01T01:03:38.000Z</time>
      </trkpt>
      <trkpt lat="41.216187" lon="1.439333">
        <ele>150.2</ele>
        <time>1970-01-01T01:03:39.000Z</time>
      </trkpt>
      <trkpt lat="41.216001" lon="1.439272">
        <ele>149.8</ele>
        <time>1970-01-01T01:03:41.000Z</time>
      </trkpt>
      <trkpt lat="41.215824" lon="1.439202">
        <ele>149.4</ele>
        <time>1970-01-01T01:03:43.000Z</time>
      </trkpt>
      <trkpt lat="41.21574" lon="1.43917">
        <ele>149.1</ele>
        <time>1970-01-01T01:03:44.000Z</time>
      </trkpt>
      <trkpt lat="41.215661" lon="1.43914">
        <ele>148.7</ele>
        <time>1970-01-01T01:03:45.000Z</time>
      </trkpt>
      <trkpt lat="41.215512" lon="1.439078">
        <ele>148.1</ele>
        <time>1970-01-01T01:03:47.000Z</time>
      </trkpt>
      <trkpt lat="41.215373" lon="1.439009">
        <ele>147.5</ele>
        <time>1970-01-01T01:03:49.000Z</time>
      </trkpt>
      <trkpt lat="41.215304" lon="1.438971">
        <ele>147.1</ele>
        <time>1970-01-01T01:03:50.000Z</time>
      </trkpt>
      <trkpt lat="41.215168" lon="1.438896">
        <ele>146.4</ele>
        <time>1970-01-01T01:03:52.000Z</time>
      </trkpt>
      <trkpt lat="41.215031" lon="1.438823">
        <ele>145.8</ele>
        <time>1970-01-01T01:03:54.000Z</time>
      </trkpt>
      <trkpt lat="41.214743" lon="1.438713">
        <ele>145.1</ele>
        <time>1970-01-01T01:03:58.000Z</time>
      </trkpt>
      <trkpt lat="41.214667" lon="1.438703">
        <ele>144.9</ele>
        <time>1970-01-01T01:03:59.000Z</time>
      </trkpt>
      <trkpt lat="41.214439" lon="1.438713">
        <ele>144.4</ele>
        <time>1970-01-01T01:04:02.000Z</time>
      </trkpt>
      <trkpt lat="41.214365" lon="1.438727">
        <ele>144.2</ele>
        <time>1970-01-01T01:04:03.000Z</time>
      </trkpt>
      <trkpt lat="41.214293" lon="1.438748">
        <ele>144.1</ele>
        <time>1970-01-01T01:04:04.000Z</time>
      </trkpt>
      <trkpt lat="41.21415" lon="1.438805">
        <ele>143.8</ele>
        <time>1970-01-01T01:04:06.000Z</time>
      </trkpt>
      <trkpt lat="41.214082" lon="1.438841">
        <ele>143.7</ele>
        <time>1970-01-01T01:04:07.000Z</time>
      </trkpt>
      <trkpt lat="41.214016" lon="1.43888">
        <ele>143.6</ele>
        <time>1970-01-01T01:04:08.000Z</time>
      </trkpt>
      <trkpt lat="41.21383" lon="1.439005">
        <ele>143.2</ele>
        <time>1970-01-01T01:04:11.000Z</time>
      </trkpt>
      <trkpt lat="41.213771" lon="1.439046">
        <ele>143.1</ele>
        <time>1970-01-01T01:04:12.000Z</time>
      </trkpt>
      <trkpt lat="41.213599" lon="1.439192">
        <ele>142.8</ele>
        <time>1970-01-01T01:04:15.000Z</time>
      </trkpt>
      <trkpt lat="41.213505" lon="1.439314">
        <ele>142.7</ele>
        <time>1970-01-01T01:04:17.000Z</time>
      </trkpt>
      <trkpt lat="41.213438" lon="1.439457">
        <ele>142.5</ele>
        <time>1970-01-01T01:04:19.000Z</time>
      </trkpt>
      <trkpt lat="41.213388" lon="1.439606">
        <ele>142.3</ele>
        <time>1970-01-01T01:04:21.000Z</time>
      </trkpt>
      <trkpt lat="41.213364" lon="1.439683">
        <ele>142.2</ele>
        <time>1970-01-01T01:04:22.000Z</time>
      </trkpt>
      <trkpt lat="41.213288" lon="1.439902">
        <ele>141.8</ele>
        <time>1970-01-01T01:04:25.000Z</time>
      </trkpt>
      <trkpt lat="41.213163" lon="1.440047">
        <ele>141.3</ele>
        <time>1970-01-01T01:04:28.000Z</time>
      </trkpt>
      <trkpt lat="41.213119" lon="1.44009">
        <ele>141.1</ele>
        <time>1970-01-01T01:04:29.000Z</time>
      </trkpt>
      <trkpt lat="41.213028" lon="1.440187">
        <ele>140.6</ele>
        <time>1970-01-01T01:04:31.000Z</time>
      </trkpt>
      <trkpt lat="41.212935" lon="1.440302">
        <ele>140.1</ele>
        <time>1970-01-01T01:04:33.000Z</time>
      </trkpt>
      <trkpt lat="41.212885" lon="1.44036">
        <ele>139.9</ele>
        <time>1970-01-01T01:04:34.000Z</time>
      </trkpt>
      <trkpt lat="41.212608" lon="1.440655">
        <ele>139</ele>
        <time>1970-01-01T01:04:39.000Z</time>
      </trkpt>
      <trkpt lat="41.212549" lon="1.440708">
        <ele>138.9</ele>
        <time>1970-01-01T01:04:40.000Z</time>
      </trkpt>
      <trkpt lat="41.212492" lon="1.440753">
        <ele>138.9</ele>
        <time>1970-01-01T01:04:41.000Z</time>
      </trkpt>
      <trkpt lat="41.212406" lon="1.440793">
        <ele>138.8</ele>
        <time>1970-01-01T01:04:43.000Z</time>
      </trkpt>
      <trkpt lat="41.212349" lon="1.440834">
        <ele>138.7</ele>
        <time>1970-01-01T01:04:45.000Z</time>
      </trkpt>
      <trkpt lat="41.212337" lon="1.440868">
        <ele>138.7</ele>
        <time>1970-01-01T01:04:46.000Z</time>
      </trkpt>
      <trkpt lat="41.212343" lon="1.440906">
        <ele>138.5</ele>
        <time>1970-01-01T01:04:47.000Z</time>
      </trkpt>
      <trkpt lat="41.21238" lon="1.440968">
        <ele>138.5</ele>
        <time>1970-01-01T01:04:49.000Z</time>
      </trkpt>
      <trkpt lat="41.212414" lon="1.441037">
        <ele>140.6</ele>
        <time>1970-01-01T01:04:51.000Z</time>
      </trkpt>
      <trkpt lat="41.212437" lon="1.441106">
        <ele>140.9</ele>
        <time>1970-01-01T01:04:53.000Z</time>
      </trkpt>
      <trkpt lat="41.212446" lon="1.441134">
        <ele>141</ele>
        <time>1970-01-01T01:04:54.000Z</time>
      </trkpt>
      <trkpt lat="41.212462" lon="1.441199">
        <ele>141.3</ele>
        <time>1970-01-01T01:04:57.000Z</time>
      </trkpt>
      <trkpt lat="41.212461" lon="1.441229">
        <ele>141.4</ele>
        <time>1970-01-01T01:04:59.000Z</time>
      </trkpt>
      <trkpt lat="41.212475" lon="1.44124">
        <ele>141.5</ele>
        <time>1970-01-01T01:06:02.000Z</time>
      </trkpt>
      <trkpt lat="41.212482" lon="1.441255">
        <ele>141.6</ele>
        <time>1970-01-01T01:06:03.000Z</time>
      </trkpt>
      <trkpt lat="41.212504" lon="1.44127">
        <ele>141.7</ele>
        <time>1970-01-01T01:06:05.000Z</time>
      </trkpt>
      <trkpt lat="41.212533" lon="1.441297">
        <ele>142.4</ele>
        <time>1970-01-01T01:06:08.000Z</time>
      </trkpt>
      <trkpt lat="41.212535" lon="1.441345">
        <ele>142.5</ele>
        <time>1970-01-01T01:06:10.000Z</time>
      </trkpt>
      <trkpt lat="41.212524" lon="1.441417">
        <ele>142.6</ele>
        <time>1970-01-01T01:06:14.000Z</time>
      </trkpt>
      <trkpt lat="41.212531" lon="1.441435">
        <ele>142.6</ele>
        <time>1970-01-01T01:06:15.000Z</time>
      </trkpt>
      <trkpt lat="41.212577" lon="1.441488">
        <ele>143.5</ele>
        <time>1970-01-01T01:06:19.000Z</time>
      </trkpt>
      <trkpt lat="41.212589" lon="1.44149">
        <ele>143.7</ele>
        <time>1970-01-01T01:06:20.000Z</time>
      </trkpt>
      <trkpt lat="41.212623" lon="1.441517">
        <ele>144.3</ele>
        <time>1970-01-01T01:06:23.000Z</time>
      </trkpt>
      <trkpt lat="41.212651" lon="1.441522">
        <ele>144.8</ele>
        <time>1970-01-01T01:06:25.000Z</time>
      </trkpt>
      <trkpt lat="41.212728" lon="1.441545">
        <ele>146.3</ele>
        <time>1970-01-01T01:06:30.000Z</time>
      </trkpt>
      <trkpt lat="41.212745" lon="1.441546">
        <ele>146.6</ele>
        <time>1970-01-01T01:06:31.000Z</time>
      </trkpt>
      <trkpt lat="41.212761" lon="1.441545">
        <ele>146.9</ele>
        <time>1970-01-01T01:06:32.000Z</time>
      </trkpt>
      <trkpt lat="41.212777" lon="1.441543">
        <ele>147.3</ele>
        <time>1970-01-01T01:06:33.000Z</time>
      </trkpt>
      <trkpt lat="41.212822" lon="1.441557">
        <ele>148.2</ele>
        <time>1970-01-01T01:06:36.000Z</time>
      </trkpt>
      <trkpt lat="41.212869" lon="1.441581">
        <ele>149.2</ele>
        <time>1970-01-01T01:06:39.000Z</time>
      </trkpt>
      <trkpt lat="41.212883" lon="1.441592">
        <ele>150.1</ele>
        <time>1970-01-01T01:06:40.000Z</time>
      </trkpt>
      <trkpt lat="41.212936" lon="1.441623">
        <ele>150.3</ele>
        <time>1970-01-01T01:06:44.000Z</time>
      </trkpt>
      <trkpt lat="41.21295" lon="1.44163">
        <ele>150.3</ele>
        <time>1970-01-01T01:06:45.000Z</time>
      </trkpt>
      <trkpt lat="41.212963" lon="1.441644">
        <ele>150.4</ele>
        <time>1970-01-01T01:06:46.000Z</time>
      </trkpt>
      <trkpt lat="41.21304" lon="1.441682">
        <ele>151.5</ele>
        <time>1970-01-01T01:06:50.000Z</time>
      </trkpt>
      <trkpt lat="41.213059" lon="1.441691">
        <ele>151.8</ele>
        <time>1970-01-01T01:06:51.000Z</time>
      </trkpt>
      <trkpt lat="41.213119" lon="1.441712">
        <ele>152.8</ele>
        <time>1970-01-01T01:06:54.000Z</time>
      </trkpt>
      <trkpt lat="41.213154" lon="1.441727">
        <ele>153.5</ele>
        <time>1970-01-01T01:06:56.000Z</time>
      </trkpt>
      <trkpt lat="41.213173" lon="1.441732">
        <ele>153.8</ele>
        <time>1970-01-01T01:06:57.000Z</time>
      </trkpt>
      <trkpt lat="41.213229" lon="1.441735">
        <ele>154.8</ele>
        <time>1970-01-01T01:07:00.000Z</time>
      </trkpt>
      <trkpt lat="41.213246" lon="1.441742">
        <ele>155.1</ele>
        <time>1970-01-01T01:07:01.000Z</time>
      </trkpt>
      <trkpt lat="41.213283" lon="1.441769">
        <ele>155.8</ele>
        <time>1970-01-01T01:07:03.000Z</time>
      </trkpt>
      <trkpt lat="41.213336" lon="1.441799">
        <ele>156.6</ele>
        <time>1970-01-01T01:07:06.000Z</time>
      </trkpt>
      <trkpt lat="41.213358" lon="1.441801">
        <ele>156.8</ele>
        <time>1970-01-01T01:07:07.000Z</time>
      </trkpt>
      <trkpt lat="41.213428" lon="1.441802">
        <ele>157.7</ele>
        <time>1970-01-01T01:07:10.000Z</time>
      </trkpt>
      <trkpt lat="41.213496" lon="1.441824">
        <ele>158.7</ele>
        <time>1970-01-01T01:07:13.000Z</time>
      </trkpt>
      <trkpt lat="41.213516" lon="1.441839">
        <ele>159</ele>
        <time>1970-01-01T01:07:14.000Z</time>
      </trkpt>
      <trkpt lat="41.213587" lon="1.441912">
        <ele>160.3</ele>
        <time>1970-01-01T01:07:18.000Z</time>
      </trkpt>
      <trkpt lat="41.213624" lon="1.44194">
        <ele>160.4</ele>
        <time>1970-01-01T01:07:20.000Z</time>
      </trkpt>
      <trkpt lat="41.213685" lon="1.44194">
        <ele>161.2</ele>
        <time>1970-01-01T01:07:23.000Z</time>
      </trkpt>
      <trkpt lat="41.213729" lon="1.441946">
        <ele>161.4</ele>
        <time>1970-01-01T01:07:25.000Z</time>
      </trkpt>
      <trkpt lat="41.213768" lon="1.441975">
        <ele>161.7</ele>
        <time>1970-01-01T01:07:27.000Z</time>
      </trkpt>
      <trkpt lat="41.213789" lon="1.441986">
        <ele>161.9</ele>
        <time>1970-01-01T01:07:28.000Z</time>
      </trkpt>
      <trkpt lat="41.213832" lon="1.441997">
        <ele>162.2</ele>
        <time>1970-01-01T01:07:30.000Z</time>
      </trkpt>
      <trkpt lat="41.213874" lon="1.442013">
        <ele>162.6</ele>
        <time>1970-01-01T01:07:32.000Z</time>
      </trkpt>
      <trkpt lat="41.213916" lon="1.44202">
        <ele>163</ele>
        <time>1970-01-01T01:07:34.000Z</time>
      </trkpt>
      <trkpt lat="41.213937" lon="1.442015">
        <ele>163.2</ele>
        <time>1970-01-01T01:07:35.000Z</time>
      </trkpt>
      <trkpt lat="41.213959" lon="1.442012">
        <ele>163.4</ele>
        <time>1970-01-01T01:07:36.000Z</time>
      </trkpt>
      <trkpt lat="41.214041" lon="1.442027">
        <ele>164.2</ele>
        <time>1970-01-01T01:07:40.000Z</time>
      </trkpt>
      <trkpt lat="41.214057" lon="1.442041">
        <ele>164.4</ele>
        <time>1970-01-01T01:07:41.000Z</time>
      </trkpt>
      <trkpt lat="41.214093" lon="1.442074">
        <ele>164.9</ele>
        <time>1970-01-01T01:07:43.000Z</time>
      </trkpt>
      <trkpt lat="41.214117" lon="1.442081">
        <ele>165.2</ele>
        <time>1970-01-01T01:07:44.000Z</time>
      </trkpt>
      <trkpt lat="41.214158" lon="1.442093">
        <ele>165.7</ele>
        <time>1970-01-01T01:07:46.000Z</time>
      </trkpt>
      <trkpt lat="41.214199" lon="1.442107">
        <ele>166.2</ele>
        <time>1970-01-01T01:07:48.000Z</time>
      </trkpt>
      <trkpt lat="41.214298" lon="1.442128">
        <ele>167</ele>
        <time>1970-01-01T01:07:52.000Z</time>
      </trkpt>
      <trkpt lat="41.214408" lon="1.442149">
        <ele>167.9</ele>
        <time>1970-01-01T01:07:57.000Z</time>
      </trkpt>
      <trkpt lat="41.214449" lon="1.442143">
        <ele>168.3</ele>
        <time>1970-01-01T01:07:59.000Z</time>
      </trkpt>
      <trkpt lat="41.214515" lon="1.442153">
        <ele>169.1</ele>
        <time>1970-01-01T01:08:02.000Z</time>
      </trkpt>
      <trkpt lat="41.214582" lon="1.442191">
        <ele>170</ele>
        <time>1970-01-01T01:08:05.000Z</time>
      </trkpt>
      <trkpt lat="41.21465" lon="1.442213">
        <ele>170.8</ele>
        <time>1970-01-01T01:08:08.000Z</time>
      </trkpt>
      <trkpt lat="41.214739" lon="1.442239">
        <ele>171.8</ele>
        <time>1970-01-01T01:08:12.000Z</time>
      </trkpt>
      <trkpt lat="41.214762" lon="1.442244">
        <ele>172.1</ele>
        <time>1970-01-01T01:08:13.000Z</time>
      </trkpt>
      <trkpt lat="41.214851" lon="1.442268">
        <ele>173.1</ele>
        <time>1970-01-01T01:08:17.000Z</time>
      </trkpt>
      <trkpt lat="41.214896" lon="1.442266">
        <ele>173.5</ele>
        <time>1970-01-01T01:08:19.000Z</time>
      </trkpt>
      <trkpt lat="41.214957" lon="1.442293">
        <ele>174</ele>
        <time>1970-01-01T01:08:22.000Z</time>
      </trkpt>
      <trkpt lat="41.215019" lon="1.442324">
        <ele>174.7</ele>
        <time>1970-01-01T01:08:25.000Z</time>
      </trkpt>
      <trkpt lat="41.21504" lon="1.442332">
        <ele>175</ele>
        <time>1970-01-01T01:08:26.000Z</time>
      </trkpt>
      <trkpt lat="41.215117" lon="1.442385">
        <ele>176.2</ele>
        <time>1970-01-01T01:08:30.000Z</time>
      </trkpt>
      <trkpt lat="41.215151" lon="1.442421">
        <ele>176.9</ele>
        <time>1970-01-01T01:08:32.000Z</time>
      </trkpt>
      <trkpt lat="41.215199" lon="1.442484">
        <ele>178</ele>
        <time>1970-01-01T01:08:35.000Z</time>
      </trkpt>
      <trkpt lat="41.21523" lon="1.442533">
        <ele>178.8</ele>
        <time>1970-01-01T01:08:37.000Z</time>
      </trkpt>
      <trkpt lat="41.215261" lon="1.44258">
        <ele>179.5</ele>
        <time>1970-01-01T01:08:39.000Z</time>
      </trkpt>
      <trkpt lat="41.215294" lon="1.442628">
        <ele>180.3</ele>
        <time>1970-01-01T01:08:41.000Z</time>
      </trkpt>
      <trkpt lat="41.215353" lon="1.442685">
        <ele>181.3</ele>
        <time>1970-01-01T01:08:44.000Z</time>
      </trkpt>
      <trkpt lat="41.215378" lon="1.442692">
        <ele>181.6</ele>
        <time>1970-01-01T01:08:45.000Z</time>
      </trkpt>
      <trkpt lat="41.215431" lon="1.442695">
        <ele>182.5</ele>
        <time>1970-01-01T01:08:47.000Z</time>
      </trkpt>
      <trkpt lat="41.215487" lon="1.442702">
        <ele>182.6</ele>
        <time>1970-01-01T01:08:49.000Z</time>
      </trkpt>
      <trkpt lat="41.215546" lon="1.44271">
        <ele>182.9</ele>
        <time>1970-01-01T01:08:51.000Z</time>
      </trkpt>
      <trkpt lat="41.215576" lon="1.442714">
        <ele>183</ele>
        <time>1970-01-01T01:08:52.000Z</time>
      </trkpt>
      <trkpt lat="41.215634" lon="1.442717">
        <ele>183.4</ele>
        <time>1970-01-01T01:08:54.000Z</time>
      </trkpt>
      <trkpt lat="41.21578" lon="1.442732">
        <ele>184.2</ele>
        <time>1970-01-01T01:08:59.000Z</time>
      </trkpt>
      <trkpt lat="41.215862" lon="1.442745">
        <ele>184.7</ele>
        <time>1970-01-01T01:09:02.000Z</time>
      </trkpt>
      <trkpt lat="41.215893" lon="1.442785">
        <ele>184.9</ele>
        <time>1970-01-01T01:09:04.000Z</time>
      </trkpt>
      <trkpt lat="41.215913" lon="1.442828">
        <ele>185.1</ele>
        <time>1970-01-01T01:09:06.000Z</time>
      </trkpt>
      <trkpt lat="41.215969" lon="1.442923">
        <ele>186.2</ele>
        <time>1970-01-01T01:09:11.000Z</time>
      </trkpt>
      <trkpt lat="41.216014" lon="1.443046">
        <ele>187.8</ele>
        <time>1970-01-01T01:09:17.000Z</time>
      </trkpt>
      <trkpt lat="41.216033" lon="1.443101">
        <ele>188.6</ele>
        <time>1970-01-01T01:09:20.000Z</time>
      </trkpt>
      <trkpt lat="41.216043" lon="1.443144">
        <ele>189.2</ele>
        <time>1970-01-01T01:09:22.000Z</time>
      </trkpt>
      <trkpt lat="41.216053" lon="1.443168">
        <ele>189.5</ele>
        <time>1970-01-01T01:09:23.000Z</time>
      </trkpt>
      <trkpt lat="41.216069" lon="1.443214">
        <ele>190.1</ele>
        <time>1970-01-01T01:09:25.000Z</time>
      </trkpt>
      <trkpt lat="41.216074" lon="1.443281">
        <ele>190.9</ele>
        <time>1970-01-01T01:09:28.000Z</time>
      </trkpt>
      <trkpt lat="41.216081" lon="1.443303">
        <ele>191.2</ele>
        <time>1970-01-01T01:09:29.000Z</time>
      </trkpt>
      <trkpt lat="41.216093" lon="1.443348">
        <ele>191.8</ele>
        <time>1970-01-01T01:09:31.000Z</time>
      </trkpt>
      <trkpt lat="41.216105" lon="1.443419">
        <ele>192.6</ele>
        <time>1970-01-01T01:09:34.000Z</time>
      </trkpt>
      <trkpt lat="41.216111" lon="1.443442">
        <ele>192.8</ele>
        <time>1970-01-01T01:09:35.000Z</time>
      </trkpt>
      <trkpt lat="41.216116" lon="1.443467">
        <ele>193</ele>
        <time>1970-01-01T01:09:36.000Z</time>
      </trkpt>
      <trkpt lat="41.216126" lon="1.443519">
        <ele>193.5</ele>
        <time>1970-01-01T01:09:38.000Z</time>
      </trkpt>
      <trkpt lat="41.21615" lon="1.443597">
        <ele>194.2</ele>
        <time>1970-01-01T01:09:41.000Z</time>
      </trkpt>
      <trkpt lat="41.216198" lon="1.443688">
        <ele>194.9</ele>
        <time>1970-01-01T01:09:45.000Z</time>
      </trkpt>
      <trkpt lat="41.216346" lon="1.443881">
        <ele>196.2</ele>
        <time>1970-01-01T01:09:54.000Z</time>
      </trkpt>
      <trkpt lat="41.216452" lon="1.444056">
        <ele>196.8</ele>
        <time>1970-01-01T01:10:00.000Z</time>
      </trkpt>
      <trkpt lat="41.216473" lon="1.444092">
        <ele>197</ele>
        <time>1970-01-01T01:10:01.000Z</time>
      </trkpt>
      <trkpt lat="41.216547" lon="1.444336">
        <ele>197.6</ele>
        <time>1970-01-01T01:10:07.000Z</time>
      </trkpt>
      <trkpt lat="41.216522" lon="1.444564">
        <ele>198.3</ele>
        <time>1970-01-01T01:10:14.000Z</time>
      </trkpt>
      <trkpt lat="41.216504" lon="1.444626">
        <ele>198.4</ele>
        <time>1970-01-01T01:10:16.000Z</time>
      </trkpt>
      <trkpt lat="41.216484" lon="1.444742">
        <ele>198.5</ele>
        <time>1970-01-01T01:10:19.000Z</time>
      </trkpt>
      <trkpt lat="41.21648" lon="1.444788">
        <ele>198.4</ele>
        <time>1970-01-01T01:10:20.000Z</time>
      </trkpt>
      <trkpt lat="41.216468" lon="1.444895">
        <ele>198.3</ele>
        <time>1970-01-01T01:10:22.000Z</time>
      </trkpt>
      <trkpt lat="41.216449" lon="1.445088">
        <ele>198</ele>
        <time>1970-01-01T01:10:25.000Z</time>
      </trkpt>
      <trkpt lat="41.216451" lon="1.445157">
        <ele>197.9</ele>
        <time>1970-01-01T01:10:26.000Z</time>
      </trkpt>
      <trkpt lat="41.216488" lon="1.445341">
        <ele>197.9</ele>
        <time>1970-01-01T01:10:29.000Z</time>
      </trkpt>
      <trkpt lat="41.216509" lon="1.445391">
        <ele>198</ele>
        <time>1970-01-01T01:10:30.000Z</time>
      </trkpt>
      <trkpt lat="41.216533" lon="1.445436">
        <ele>198.1</ele>
        <time>1970-01-01T01:10:31.000Z</time>
      </trkpt>
      <trkpt lat="41.216576" lon="1.44552">
        <ele>198.5</ele>
        <time>1970-01-01T01:10:33.000Z</time>
      </trkpt>
      <trkpt lat="41.216643" lon="1.445629">
        <ele>199.1</ele>
        <time>1970-01-01T01:10:36.000Z</time>
      </trkpt>
      <trkpt lat="41.216696" lon="1.445724">
        <ele>199.7</ele>
        <time>1970-01-01T01:10:39.000Z</time>
      </trkpt>
      <trkpt lat="41.21674" lon="1.445814">
        <ele>200.4</ele>
        <time>1970-01-01T01:10:42.000Z</time>
      </trkpt>
      <trkpt lat="41.216774" lon="1.445899">
        <ele>200.9</ele>
        <time>1970-01-01T01:10:45.000Z</time>
      </trkpt>
      <trkpt lat="41.216792" lon="1.445964">
        <ele>201.3</ele>
        <time>1970-01-01T01:10:47.000Z</time>
      </trkpt>
      <trkpt lat="41.216797" lon="1.445999">
        <ele>201.5</ele>
        <time>1970-01-01T01:10:48.000Z</time>
      </trkpt>
      <trkpt lat="41.216828" lon="1.446157">
        <ele>202.3</ele>
        <time>1970-01-01T01:10:52.000Z</time>
      </trkpt>
      <trkpt lat="41.216852" lon="1.446271">
        <ele>202.8</ele>
        <time>1970-01-01T01:10:55.000Z</time>
      </trkpt>
      <trkpt lat="41.216878" lon="1.446375">
        <ele>203.4</ele>
        <time>1970-01-01T01:10:58.000Z</time>
      </trkpt>
      <trkpt lat="41.216905" lon="1.446464">
        <ele>204</ele>
        <time>1970-01-01T01:11:01.000Z</time>
      </trkpt>
      <trkpt lat="41.216935" lon="1.446574">
        <ele>204.9</ele>
        <time>1970-01-01T01:11:05.000Z</time>
      </trkpt>
      <trkpt lat="41.216956" lon="1.446674">
        <ele>205.6</ele>
        <time>1970-01-01T01:11:08.000Z</time>
      </trkpt>
      <trkpt lat="41.216962" lon="1.446704">
        <ele>205.9</ele>
        <time>1970-01-01T01:11:09.000Z</time>
      </trkpt>
      <trkpt lat="41.216993" lon="1.446868">
        <ele>207.1</ele>
        <time>1970-01-01T01:11:15.000Z</time>
      </trkpt>
      <trkpt lat="41.216999" lon="1.446895">
        <ele>207.3</ele>
        <time>1970-01-01T01:11:16.000Z</time>
      </trkpt>
      <trkpt lat="41.217053" lon="1.447068">
        <ele>208.7</ele>
        <time>1970-01-01T01:11:22.000Z</time>
      </trkpt>
      <trkpt lat="41.217064" lon="1.447184">
        <ele>209.7</ele>
        <time>1970-01-01T01:11:26.000Z</time>
      </trkpt>
      <trkpt lat="41.217067" lon="1.447209">
        <ele>209.9</ele>
        <time>1970-01-01T01:11:27.000Z</time>
      </trkpt>
      <trkpt lat="41.217066" lon="1.447234">
        <ele>210.1</ele>
        <time>1970-01-01T01:11:28.000Z</time>
      </trkpt>
      <trkpt lat="41.217052" lon="1.447342">
        <ele>211</ele>
        <time>1970-01-01T01:11:32.000Z</time>
      </trkpt>
      <trkpt lat="41.217051" lon="1.447371">
        <ele>211.3</ele>
        <time>1970-01-01T01:11:33.000Z</time>
      </trkpt>
      <trkpt lat="41.21706" lon="1.447512">
        <ele>212.8</ele>
        <time>1970-01-01T01:11:38.000Z</time>
      </trkpt>
      <trkpt lat="41.217075" lon="1.447619">
        <ele>214.1</ele>
        <time>1970-01-01T01:11:42.000Z</time>
      </trkpt>
      <trkpt lat="41.217093" lon="1.447674">
        <ele>214.7</ele>
        <time>1970-01-01T01:11:44.000Z</time>
      </trkpt>
      <trkpt lat="41.217101" lon="1.447699">
        <ele>215.1</ele>
        <time>1970-01-01T01:11:45.000Z</time>
      </trkpt>
      <trkpt lat="41.217133" lon="1.447787">
        <ele>216.2</ele>
        <time>1970-01-01T01:11:49.000Z</time>
      </trkpt>
      <trkpt lat="41.217144" lon="1.447808">
        <ele>216.5</ele>
        <time>1970-01-01T01:11:50.000Z</time>
      </trkpt>
      <trkpt lat="41.217189" lon="1.447878">
        <ele>217.5</ele>
        <time>1970-01-01T01:11:54.000Z</time>
      </trkpt>
      <trkpt lat="41.217224" lon="1.447926">
        <ele>218.3</ele>
        <time>1970-01-01T01:11:57.000Z</time>
      </trkpt>
      <trkpt lat="41.217253" lon="1.447964">
        <ele>218.9</ele>
        <time>1970-01-01T01:12:00.000Z</time>
      </trkpt>
      <trkpt lat="41.217257" lon="1.447985">
        <ele>219.2</ele>
        <time>1970-01-01T01:12:01.000Z</time>
      </trkpt>
      <trkpt lat="41.21726" lon="1.448008">
        <ele>219.4</ele>
        <time>1970-01-01T01:12:02.000Z</time>
      </trkpt>
      <trkpt lat="41.217279" lon="1.448101">
        <ele>220.5</ele>
        <time>1970-01-01T01:12:06.000Z</time>
      </trkpt>
      <trkpt lat="41.217287" lon="1.448158">
        <ele>221.2</ele>
        <time>1970-01-01T01:12:08.000Z</time>
      </trkpt>
      <trkpt lat="41.217286" lon="1.448213">
        <ele>221.7</ele>
        <time>1970-01-01T01:12:10.000Z</time>
      </trkpt>
      <trkpt lat="41.217285" lon="1.448237">
        <ele>222</ele>
        <time>1970-01-01T01:12:11.000Z</time>
      </trkpt>
      <trkpt lat="41.21728" lon="1.448302">
        <ele>222.6</ele>
        <time>1970-01-01T01:12:14.000Z</time>
      </trkpt>
      <trkpt lat="41.217276" lon="1.448327">
        <ele>222.9</ele>
        <time>1970-01-01T01:12:15.000Z</time>
      </trkpt>
      <trkpt lat="41.217247" lon="1.44846">
        <ele>224.4</ele>
        <time>1970-01-01T01:12:21.000Z</time>
      </trkpt>
      <trkpt lat="41.217253" lon="1.448569">
        <ele>225.7</ele>
        <time>1970-01-01T01:12:26.000Z</time>
      </trkpt>
      <trkpt lat="41.217273" lon="1.448628">
        <ele>226.4</ele>
        <time>1970-01-01T01:12:29.000Z</time>
      </trkpt>
      <trkpt lat="41.217282" lon="1.448645">
        <ele>226.7</ele>
        <time>1970-01-01T01:12:30.000Z</time>
      </trkpt>
      <trkpt lat="41.217326" lon="1.448704">
        <ele>227.7</ele>
        <time>1970-01-01T01:12:34.000Z</time>
      </trkpt>
      <trkpt lat="41.217338" lon="1.448709">
        <ele>227.9</ele>
        <time>1970-01-01T01:12:35.000Z</time>
      </trkpt>
      <trkpt lat="41.217352" lon="1.448711">
        <ele>228.1</ele>
        <time>1970-01-01T01:12:36.000Z</time>
      </trkpt>
      <trkpt lat="41.217386" lon="1.448748">
        <ele>228.8</ele>
        <time>1970-01-01T01:12:39.000Z</time>
      </trkpt>
      <trkpt lat="41.217411" lon="1.448777">
        <ele>229.3</ele>
        <time>1970-01-01T01:12:41.000Z</time>
      </trkpt>
      <trkpt lat="41.217445" lon="1.448818">
        <ele>230</ele>
        <time>1970-01-01T01:12:44.000Z</time>
      </trkpt>
      <trkpt lat="41.217488" lon="1.448894">
        <ele>231</ele>
        <time>1970-01-01T01:12:48.000Z</time>
      </trkpt>
      <trkpt lat="41.21752" lon="1.448987">
        <ele>232.1</ele>
        <time>1970-01-01T01:12:52.000Z</time>
      </trkpt>
      <trkpt lat="41.217521" lon="1.449031">
        <ele>232.5</ele>
        <time>1970-01-01T01:12:54.000Z</time>
      </trkpt>
      <trkpt lat="41.217523" lon="1.449052">
        <ele>232.7</ele>
        <time>1970-01-01T01:12:55.000Z</time>
      </trkpt>
      <trkpt lat="41.217527" lon="1.449074">
        <ele>232.9</ele>
        <time>1970-01-01T01:12:56.000Z</time>
      </trkpt>
      <trkpt lat="41.21752" lon="1.449137">
        <ele>233.5</ele>
        <time>1970-01-01T01:12:59.000Z</time>
      </trkpt>
      <trkpt lat="41.217517" lon="1.449162">
        <ele>233.7</ele>
        <time>1970-01-01T01:13:00.000Z</time>
      </trkpt>
      <trkpt lat="41.217518" lon="1.449214">
        <ele>234.2</ele>
        <time>1970-01-01T01:13:02.000Z</time>
      </trkpt>
      <trkpt lat="41.217518" lon="1.449263">
        <ele>234.6</ele>
        <time>1970-01-01T01:13:04.000Z</time>
      </trkpt>
      <trkpt lat="41.217524" lon="1.449286">
        <ele>234.8</ele>
        <time>1970-01-01T01:13:05.000Z</time>
      </trkpt>
      <trkpt lat="41.217561" lon="1.449361">
        <ele>235.6</ele>
        <time>1970-01-01T01:13:09.000Z</time>
      </trkpt>
      <trkpt lat="41.217571" lon="1.449385">
        <ele>235.9</ele>
        <time>1970-01-01T01:13:10.000Z</time>
      </trkpt>
      <trkpt lat="41.217591" lon="1.449434">
        <ele>236.4</ele>
        <time>1970-01-01T01:13:12.000Z</time>
      </trkpt>
      <trkpt lat="41.217618" lon="1.449527">
        <ele>237.2</ele>
        <time>1970-01-01T01:13:16.000Z</time>
      </trkpt>
      <trkpt lat="41.217643" lon="1.449592">
        <ele>237.7</ele>
        <time>1970-01-01T01:13:19.000Z</time>
      </trkpt>
      <trkpt lat="41.217671" lon="1.449654">
        <ele>238.3</ele>
        <time>1970-01-01T01:13:22.000Z</time>
      </trkpt>
      <trkpt lat="41.217742" lon="1.449762">
        <ele>239.3</ele>
        <time>1970-01-01T01:13:28.000Z</time>
      </trkpt>
      <trkpt lat="41.21781" lon="1.449884">
        <ele>240.2</ele>
        <time>1970-01-01T01:13:33.000Z</time>
      </trkpt>
      <trkpt lat="41.217827" lon="1.449937">
        <ele>240.6</ele>
        <time>1970-01-01T01:13:35.000Z</time>
      </trkpt>
      <trkpt lat="41.21789" lon="1.45012">
        <ele>241.8</ele>
        <time>1970-01-01T01:13:41.000Z</time>
      </trkpt>
      <trkpt lat="41.217908" lon="1.450176">
        <ele>242.3</ele>
        <time>1970-01-01T01:13:43.000Z</time>
      </trkpt>
      <trkpt lat="41.217954" lon="1.450309">
        <ele>243.4</ele>
        <time>1970-01-01T01:13:48.000Z</time>
      </trkpt>
      <trkpt lat="41.217973" lon="1.450398">
        <ele>244.4</ele>
        <time>1970-01-01T01:13:51.000Z</time>
      </trkpt>
      <trkpt lat="41.217975" lon="1.450474">
        <ele>245.3</ele>
        <time>1970-01-01T01:13:54.000Z</time>
      </trkpt>
      <trkpt lat="41.217967" lon="1.450498">
        <ele>245.6</ele>
        <time>1970-01-01T01:13:55.000Z</time>
      </trkpt>
      <trkpt lat="41.217927" lon="1.450552">
        <ele>246.5</ele>
        <time>1970-01-01T01:13:58.000Z</time>
      </trkpt>
      <trkpt lat="41.217891" lon="1.450571">
        <ele>247.2</ele>
        <time>1970-01-01T01:14:00.000Z</time>
      </trkpt>
      <trkpt lat="41.217846" lon="1.450604">
        <ele>248.2</ele>
        <time>1970-01-01T01:14:03.000Z</time>
      </trkpt>
      <trkpt lat="41.217817" lon="1.450628">
        <ele>248.8</ele>
        <time>1970-01-01T01:14:05.000Z</time>
      </trkpt>
      <trkpt lat="41.217804" lon="1.450637">
        <ele>249.1</ele>
        <time>1970-01-01T01:14:06.000Z</time>
      </trkpt>
      <trkpt lat="41.21776" lon="1.450667">
        <ele>250.1</ele>
        <time>1970-01-01T01:14:09.000Z</time>
      </trkpt>
      <trkpt lat="41.217707" lon="1.450712">
        <ele>251.4</ele>
        <time>1970-01-01T01:14:13.000Z</time>
      </trkpt>
      <trkpt lat="41.217692" lon="1.450716">
        <ele>251.7</ele>
        <time>1970-01-01T01:14:14.000Z</time>
      </trkpt>
      <trkpt lat="41.21765" lon="1.450726">
        <ele>252.6</ele>
        <time>1970-01-01T01:14:17.000Z</time>
      </trkpt>
      <trkpt lat="41.217626" lon="1.450741">
        <ele>253.2</ele>
        <time>1970-01-01T01:14:19.000Z</time>
      </trkpt>
      <trkpt lat="41.217611" lon="1.450749">
        <ele>253.5</ele>
        <time>1970-01-01T01:14:20.000Z</time>
      </trkpt>
      <trkpt lat="41.217568" lon="1.450778">
        <ele>254.5</ele>
        <time>1970-01-01T01:14:23.000Z</time>
      </trkpt>
      <trkpt lat="41.2175" lon="1.450811">
        <ele>256</ele>
        <time>1970-01-01T01:14:27.000Z</time>
      </trkpt>
      <trkpt lat="41.217421" lon="1.450826">
        <ele>257.7</ele>
        <time>1970-01-01T01:14:32.000Z</time>
      </trkpt>
      <trkpt lat="41.217352" lon="1.450834">
        <ele>259.2</ele>
        <time>1970-01-01T01:14:36.000Z</time>
      </trkpt>
      <trkpt lat="41.217289" lon="1.450823">
        <ele>260.5</ele>
        <time>1970-01-01T01:14:40.000Z</time>
      </trkpt>
      <trkpt lat="41.217274" lon="1.450824">
        <ele>260.9</ele>
        <time>1970-01-01T01:14:41.000Z</time>
      </trkpt>
      <trkpt lat="41.217228" lon="1.450833">
        <ele>261.8</ele>
        <time>1970-01-01T01:14:44.000Z</time>
      </trkpt>
      <trkpt lat="41.21717" lon="1.45084">
        <ele>263</ele>
        <time>1970-01-01T01:14:48.000Z</time>
      </trkpt>
      <trkpt lat="41.217081" lon="1.450848">
        <ele>264.8</ele>
        <time>1970-01-01T01:14:54.000Z</time>
      </trkpt>
      <trkpt lat="41.217065" lon="1.450844">
        <ele>265.2</ele>
        <time>1970-01-01T01:14:55.000Z</time>
      </trkpt>
      <trkpt lat="41.217033" lon="1.450831">
        <ele>265.9</ele>
        <time>1970-01-01T01:14:57.000Z</time>
      </trkpt>
      <trkpt lat="41.216954" lon="1.450833">
        <ele>267.4</ele>
        <time>1970-01-01T01:15:02.000Z</time>
      </trkpt>
      <trkpt lat="41.216893" lon="1.450831">
        <ele>268.7</ele>
        <time>1970-01-01T01:15:06.000Z</time>
      </trkpt>
      <trkpt lat="41.216847" lon="1.450836">
        <ele>269.6</ele>
        <time>1970-01-01T01:15:09.000Z</time>
      </trkpt>
      <trkpt lat="41.216829" lon="1.450838">
        <ele>269.9</ele>
        <time>1970-01-01T01:15:10.000Z</time>
      </trkpt>
      <trkpt lat="41.216795" lon="1.450837">
        <ele>270.6</ele>
        <time>1970-01-01T01:15:12.000Z</time>
      </trkpt>
      <trkpt lat="41.216753" lon="1.450816">
        <ele>271.5</ele>
        <time>1970-01-01T01:15:15.000Z</time>
      </trkpt>
      <trkpt lat="41.216742" lon="1.450809">
        <ele>271.7</ele>
        <time>1970-01-01T01:15:16.000Z</time>
      </trkpt>
      <trkpt lat="41.21673" lon="1.450805">
        <ele>272</ele>
        <time>1970-01-01T01:15:17.000Z</time>
      </trkpt>
      <trkpt lat="41.216689" lon="1.450815">
        <ele>272.8</ele>
        <time>1970-01-01T01:15:20.000Z</time>
      </trkpt>
      <trkpt lat="41.216662" lon="1.450821">
        <ele>273.3</ele>
        <time>1970-01-01T01:15:22.000Z</time>
      </trkpt>
      <trkpt lat="41.216636" lon="1.450811">
        <ele>273.8</ele>
        <time>1970-01-01T01:15:24.000Z</time>
      </trkpt>
      <trkpt lat="41.216588" lon="1.450818">
        <ele>274.6</ele>
        <time>1970-01-01T01:15:27.000Z</time>
      </trkpt>
      <trkpt lat="41.216535" lon="1.45081">
        <ele>275.4</ele>
        <time>1970-01-01T01:15:30.000Z</time>
      </trkpt>
      <trkpt lat="41.216502" lon="1.45082">
        <ele>275.9</ele>
        <time>1970-01-01T01:15:32.000Z</time>
      </trkpt>
      <trkpt lat="41.216487" lon="1.450834">
        <ele>276.2</ele>
        <time>1970-01-01T01:15:33.000Z</time>
      </trkpt>
      <trkpt lat="41.216472" lon="1.450847">
        <ele>276.4</ele>
        <time>1970-01-01T01:15:34.000Z</time>
      </trkpt>
      <trkpt lat="41.21641" lon="1.450905">
        <ele>277.3</ele>
        <time>1970-01-01T01:15:38.000Z</time>
      </trkpt>
      <trkpt lat="41.216399" lon="1.450927">
        <ele>277.6</ele>
        <time>1970-01-01T01:15:39.000Z</time>
      </trkpt>
      <trkpt lat="41.216379" lon="1.450997">
        <ele>278.2</ele>
        <time>1970-01-01T01:15:42.000Z</time>
      </trkpt>
      <trkpt lat="41.216361" lon="1.451035">
        <ele>278.5</ele>
        <time>1970-01-01T01:15:44.000Z</time>
      </trkpt>
      <trkpt lat="41.216355" lon="1.45106">
        <ele>278.7</ele>
        <time>1970-01-01T01:15:45.000Z</time>
      </trkpt>
      <trkpt lat="41.21635" lon="1.451113">
        <ele>279</ele>
        <time>1970-01-01T01:15:47.000Z</time>
      </trkpt>
      <trkpt lat="41.216362" lon="1.451174">
        <ele>279.4</ele>
        <time>1970-01-01T01:15:50.000Z</time>
      </trkpt>
      <trkpt lat="41.216375" lon="1.451206">
        <ele>279.6</ele>
        <time>1970-01-01T01:15:52.000Z</time>
      </trkpt>
      <trkpt lat="41.216385" lon="1.451221">
        <ele>279.7</ele>
        <time>1970-01-01T01:15:53.000Z</time>
      </trkpt>
      <trkpt lat="41.216438" lon="1.451231">
        <ele>279.9</ele>
        <time>1970-01-01T01:15:56.000Z</time>
      </trkpt>
      <trkpt lat="41.216455" lon="1.451222">
        <ele>279.9</ele>
        <time>1970-01-01T01:15:57.000Z</time>
      </trkpt>
      <trkpt lat="41.216451" lon="1.451193">
        <ele>279.9</ele>
        <time>1970-01-01T01:16:00.000Z</time>
      </trkpt>
      <trkpt lat="41.21639" lon="1.451233">
        <ele>279.9</ele>
        <time>1970-01-01T01:16:05.000Z</time>
      </trkpt>
      <trkpt lat="41.216376" lon="1.451238">
        <ele>279.9</ele>
        <time>1970-01-01T01:16:06.000Z</time>
      </trkpt>
      <trkpt lat="41.216353" lon="1.451234">
        <ele>279.9</ele>
        <time>1970-01-01T01:16:08.000Z</time>
      </trkpt>
      <trkpt lat="41.216353" lon="1.451205">
        <ele>279.9</ele>
        <time>1970-01-01T01:16:10.000Z</time>
      </trkpt>
      <trkpt lat="41.216361" lon="1.451193">
        <ele>279.8</ele>
        <time>1970-01-01T01:16:11.000Z</time>
      </trkpt>
      <trkpt lat="41.21639" lon="1.451193">
        <ele>279.8</ele>
        <time>1970-01-01T01:16:13.000Z</time>
      </trkpt>
      <trkpt lat="41.216406" lon="1.451203">
        <ele>279.8</ele>
        <time>1970-01-01T01:16:14.000Z</time>
      </trkpt>
      <trkpt lat="41.216442" lon="1.451213">
        <ele>279.8</ele>
        <time>1970-01-01T01:16:16.000Z</time>
      </trkpt>
      <trkpt lat="41.216491" lon="1.451208">
        <ele>279.8</ele>
        <time>1970-01-01T01:16:18.000Z</time>
      </trkpt>
      <trkpt lat="41.216519" lon="1.451203">
        <ele>279.8</ele>
        <time>1970-01-01T01:16:19.000Z</time>
      </trkpt>
      <trkpt lat="41.216578" lon="1.451187">
        <ele>279.8</ele>
        <time>1970-01-01T01:16:21.000Z</time>
      </trkpt>
      <trkpt lat="41.21667" lon="1.451155">
        <ele>279.8</ele>
        <time>1970-01-01T01:16:24.000Z</time>
      </trkpt>
      <trkpt lat="41.216704" lon="1.451152">
        <ele>279.8</ele>
        <time>1970-01-01T01:16:25.000Z</time>
      </trkpt>
      <trkpt lat="41.216812" lon="1.451199">
        <ele>279.9</ele>
        <time>1970-01-01T01:16:28.000Z</time>
      </trkpt>
      <trkpt lat="41.216848" lon="1.451225">
        <ele>279.9</ele>
        <time>1970-01-01T01:16:29.000Z</time>
      </trkpt>
      <trkpt lat="41.217109" lon="1.451486">
        <ele>280.5</ele>
        <time>1970-01-01T01:16:37.000Z</time>
      </trkpt>
      <trkpt lat="41.21728" lon="1.451758">
        <ele>281.3</ele>
        <time>1970-01-01T01:16:44.000Z</time>
      </trkpt>
      <trkpt lat="41.217343" lon="1.451854">
        <ele>281.7</ele>
        <time>1970-01-01T01:16:47.000Z</time>
      </trkpt>
      <trkpt lat="41.217386" lon="1.4519">
        <ele>281.9</ele>
        <time>1970-01-01T01:16:49.000Z</time>
      </trkpt>
      <trkpt lat="41.21741" lon="1.451917">
        <ele>282</ele>
        <time>1970-01-01T01:16:50.000Z</time>
      </trkpt>
      <trkpt lat="41.217574" lon="1.451977">
        <ele>282.9</ele>
        <time>1970-01-01T01:16:56.000Z</time>
      </trkpt>
      <trkpt lat="41.217723" lon="1.45202">
        <ele>283.8</ele>
        <time>1970-01-01T01:17:01.000Z</time>
      </trkpt>
      <trkpt lat="41.217788" lon="1.452039">
        <ele>284.1</ele>
        <time>1970-01-01T01:17:03.000Z</time>
      </trkpt>
      <trkpt lat="41.217857" lon="1.452057">
        <ele>284.3</ele>
        <time>1970-01-01T01:17:05.000Z</time>
      </trkpt>
      <trkpt lat="41.218003" lon="1.452079">
        <ele>284.7</ele>
        <time>1970-01-01T01:17:09.000Z</time>
      </trkpt>
      <trkpt lat="41.218041" lon="1.452086">
        <ele>284.7</ele>
        <time>1970-01-01T01:17:10.000Z</time>
      </trkpt>
      <trkpt lat="41.218393" lon="1.452125">
        <ele>285.4</ele>
        <time>1970-01-01T01:17:19.000Z</time>
      </trkpt>
      <trkpt lat="41.218669" lon="1.452216">
        <ele>286.2</ele>
        <time>1970-01-01T01:17:27.000Z</time>
      </trkpt>
      <trkpt lat="41.218729" lon="1.452245">
        <ele>286.5</ele>
        <time>1970-01-01T01:17:29.000Z</time>
      </trkpt>
      <trkpt lat="41.21888" lon="1.452346">
        <ele>286.9</ele>
        <time>1970-01-01T01:17:34.000Z</time>
      </trkpt>
      <trkpt lat="41.218911" lon="1.452374">
        <ele>287</ele>
        <time>1970-01-01T01:17:35.000Z</time>
      </trkpt>
      <trkpt lat="41.219026" lon="1.452523">
        <ele>287.1</ele>
        <time>1970-01-01T01:17:39.000Z</time>
      </trkpt>
      <trkpt lat="41.219075" lon="1.452617">
        <ele>287.1</ele>
        <time>1970-01-01T01:17:41.000Z</time>
      </trkpt>
      <trkpt lat="41.219137" lon="1.452772">
        <ele>287</ele>
        <time>1970-01-01T01:17:44.000Z</time>
      </trkpt>
      <trkpt lat="41.219171" lon="1.452946">
        <ele>286.9</ele>
        <time>1970-01-01T01:17:47.000Z</time>
      </trkpt>
      <trkpt lat="41.219175" lon="1.453007">
        <ele>286.9</ele>
        <time>1970-01-01T01:17:48.000Z</time>
      </trkpt>
      <trkpt lat="41.219172" lon="1.453192">
        <ele>286.9</ele>
        <time>1970-01-01T01:17:51.000Z</time>
      </trkpt>
      <trkpt lat="41.219152" lon="1.45331">
        <ele>286.9</ele>
        <time>1970-01-01T01:17:53.000Z</time>
      </trkpt>
      <trkpt lat="41.21906" lon="1.453686">
        <ele>287.2</ele>
        <time>1970-01-01T01:18:00.000Z</time>
      </trkpt>
      <trkpt lat="41.219049" lon="1.453732">
        <ele>287.3</ele>
        <time>1970-01-01T01:18:01.000Z</time>
      </trkpt>
      <trkpt lat="41.218979" lon="1.454046">
        <ele>287</ele>
        <time>1970-01-01T01:18:07.000Z</time>
      </trkpt>
      <trkpt lat="41.218961" lon="1.454107">
        <ele>286.9</ele>
        <time>1970-01-01T01:18:08.000Z</time>
      </trkpt>
      <trkpt lat="41.218863" lon="1.454368">
        <ele>286</ele>
        <time>1970-01-01T01:18:12.000Z</time>
      </trkpt>
      <trkpt lat="41.218728" lon="1.454771">
        <ele>282</ele>
        <time>1970-01-01T01:18:17.000Z</time>
      </trkpt>
      <trkpt lat="41.21871" lon="1.454863">
        <ele>281</ele>
        <time>1970-01-01T01:18:18.000Z</time>
      </trkpt>
      <trkpt lat="41.218739" lon="1.455028">
        <ele>279.5</ele>
        <time>1970-01-01T01:18:20.000Z</time>
      </trkpt>
      <trkpt lat="41.218778" lon="1.455084">
        <ele>279.4</ele>
        <time>1970-01-01T01:18:21.000Z</time>
      </trkpt>
      <trkpt lat="41.218823" lon="1.45512">
        <ele>279.3</ele>
        <time>1970-01-01T01:18:22.000Z</time>
      </trkpt>
      <trkpt lat="41.218875" lon="1.455136">
        <ele>279</ele>
        <time>1970-01-01T01:18:23.000Z</time>
      </trkpt>
      <trkpt lat="41.218931" lon="1.455141">
        <ele>278.8</ele>
        <time>1970-01-01T01:18:24.000Z</time>
      </trkpt>
      <trkpt lat="41.21899" lon="1.455143">
        <ele>278.4</ele>
        <time>1970-01-01T01:18:25.000Z</time>
      </trkpt>
      <trkpt lat="41.219048" lon="1.455146">
        <ele>278.1</ele>
        <time>1970-01-01T01:18:26.000Z</time>
      </trkpt>
      <trkpt lat="41.219107" lon="1.45515">
        <ele>277.8</ele>
        <time>1970-01-01T01:18:27.000Z</time>
      </trkpt>
      <trkpt lat="41.219164" lon="1.455152">
        <ele>277.6</ele>
        <time>1970-01-01T01:18:28.000Z</time>
      </trkpt>
      <trkpt lat="41.219219" lon="1.455154">
        <ele>277.3</ele>
        <time>1970-01-01T01:18:29.000Z</time>
      </trkpt>
      <trkpt lat="41.219329" lon="1.455153">
        <ele>277</ele>
        <time>1970-01-01T01:18:31.000Z</time>
      </trkpt>
      <trkpt lat="41.219495" lon="1.455143">
        <ele>276.6</ele>
        <time>1970-01-01T01:18:34.000Z</time>
      </trkpt>
      <trkpt lat="41.219639" lon="1.45508">
        <ele>276.1</ele>
        <time>1970-01-01T01:18:37.000Z</time>
      </trkpt>
      <trkpt lat="41.219684" lon="1.455053">
        <ele>276</ele>
        <time>1970-01-01T01:18:38.000Z</time>
      </trkpt>
      <trkpt lat="41.219731" lon="1.455029">
        <ele>275.8</ele>
        <time>1970-01-01T01:18:39.000Z</time>
      </trkpt>
      <trkpt lat="41.219995" lon="1.454888">
        <ele>274.4</ele>
        <time>1970-01-01T01:18:44.000Z</time>
      </trkpt>
      <trkpt lat="41.220113" lon="1.45484">
        <ele>273.7</ele>
        <time>1970-01-01T01:18:46.000Z</time>
      </trkpt>
      <trkpt lat="41.220304" lon="1.454835">
        <ele>271.7</ele>
        <time>1970-01-01T01:18:49.000Z</time>
      </trkpt>
      <trkpt lat="41.220446" lon="1.454889">
        <ele>269.6</ele>
        <time>1970-01-01T01:18:51.000Z</time>
      </trkpt>
      <trkpt lat="41.220585" lon="1.454942">
        <ele>267.6</ele>
        <time>1970-01-01T01:18:53.000Z</time>
      </trkpt>
      <trkpt lat="41.220645" lon="1.45497">
        <ele>266.8</ele>
        <time>1970-01-01T01:18:54.000Z</time>
      </trkpt>
      <trkpt lat="41.22072" lon="1.455034">
        <ele>265.9</ele>
        <time>1970-01-01T01:18:56.000Z</time>
      </trkpt>
      <trkpt lat="41.220765" lon="1.455113">
        <ele>265.2</ele>
        <time>1970-01-01T01:18:58.000Z</time>
      </trkpt>
      <trkpt lat="41.220798" lon="1.455222">
        <ele>264.3</ele>
        <time>1970-01-01T01:19:00.000Z</time>
      </trkpt>
      <trkpt lat="41.220788" lon="1.455352">
        <ele>263.1</ele>
        <time>1970-01-01T01:19:02.000Z</time>
      </trkpt>
      <trkpt lat="41.22076" lon="1.455415">
        <ele>262.4</ele>
        <time>1970-01-01T01:19:03.000Z</time>
      </trkpt>
      <trkpt lat="41.220725" lon="1.45548">
        <ele>261.8</ele>
        <time>1970-01-01T01:19:04.000Z</time>
      </trkpt>
      <trkpt lat="41.220682" lon="1.455543">
        <ele>261.2</ele>
        <time>1970-01-01T01:19:05.000Z</time>
      </trkpt>
      <trkpt lat="41.220575" lon="1.455655">
        <ele>260.1</ele>
        <time>1970-01-01T01:19:07.000Z</time>
      </trkpt>
      <trkpt lat="41.220497" lon="1.455746">
        <ele>259.2</ele>
        <time>1970-01-01T01:19:09.000Z</time>
      </trkpt>
      <trkpt lat="41.220498" lon="1.455778">
        <ele>258.9</ele>
        <time>1970-01-01T01:19:10.000Z</time>
      </trkpt>
      <trkpt lat="41.220515" lon="1.455801">
        <ele>258.7</ele>
        <time>1970-01-01T01:19:11.000Z</time>
      </trkpt>
      <trkpt lat="41.220573" lon="1.455814">
        <ele>258.1</ele>
        <time>1970-01-01T01:19:13.000Z</time>
      </trkpt>
      <trkpt lat="41.220644" lon="1.455794">
        <ele>257.5</ele>
        <time>1970-01-01T01:19:15.000Z</time>
      </trkpt>
      <trkpt lat="41.220687" lon="1.455778">
        <ele>257.1</ele>
        <time>1970-01-01T01:19:16.000Z</time>
      </trkpt>
      <trkpt lat="41.220735" lon="1.455757">
        <ele>256.7</ele>
        <time>1970-01-01T01:19:17.000Z</time>
      </trkpt>
      <trkpt lat="41.220832" lon="1.455714">
        <ele>255.9</ele>
        <time>1970-01-01T01:19:19.000Z</time>
      </trkpt>
      <trkpt lat="41.221006" lon="1.455634">
        <ele>254.7</ele>
        <time>1970-01-01T01:19:22.000Z</time>
      </trkpt>
      <trkpt lat="41.221067" lon="1.455603">
        <ele>254.3</ele>
        <time>1970-01-01T01:19:23.000Z</time>
      </trkpt>
      <trkpt lat="41.221192" lon="1.45552">
        <ele>253.6</ele>
        <time>1970-01-01T01:19:25.000Z</time>
      </trkpt>
      <trkpt lat="41.221292" lon="1.45538">
        <ele>252.9</ele>
        <time>1970-01-01T01:19:27.000Z</time>
      </trkpt>
      <trkpt lat="41.221353" lon="1.455226">
        <ele>252.5</ele>
        <time>1970-01-01T01:19:29.000Z</time>
      </trkpt>
      <trkpt lat="41.221402" lon="1.45512">
        <ele>252.2</ele>
        <time>1970-01-01T01:19:31.000Z</time>
      </trkpt>
      <trkpt lat="41.221423" lon="1.455106">
        <ele>252.2</ele>
        <time>1970-01-01T01:19:32.000Z</time>
      </trkpt>
      <trkpt lat="41.221471" lon="1.45511">
        <ele>252.1</ele>
        <time>1970-01-01T01:19:34.000Z</time>
      </trkpt>
      <trkpt lat="41.221499" lon="1.455112">
        <ele>252.1</ele>
        <time>1970-01-01T01:19:35.000Z</time>
      </trkpt>
      <trkpt lat="41.221596" lon="1.455106">
        <ele>252.4</ele>
        <time>1970-01-01T01:19:38.000Z</time>
      </trkpt>
      <trkpt lat="41.221665" lon="1.455094">
        <ele>252.8</ele>
        <time>1970-01-01T01:19:40.000Z</time>
      </trkpt>
      <trkpt lat="41.221752" lon="1.455071">
        <ele>253.6</ele>
        <time>1970-01-01T01:19:43.000Z</time>
      </trkpt>
      <trkpt lat="41.221801" lon="1.455045">
        <ele>254.2</ele>
        <time>1970-01-01T01:19:45.000Z</time>
      </trkpt>
      <trkpt lat="41.221849" lon="1.455018">
        <ele>254.8</ele>
        <time>1970-01-01T01:19:47.000Z</time>
      </trkpt>
      <trkpt lat="41.221908" lon="1.45498">
        <ele>255.7</ele>
        <time>1970-01-01T01:19:50.000Z</time>
      </trkpt>
      <trkpt lat="41.22193" lon="1.454966">
        <ele>256</ele>
        <time>1970-01-01T01:19:51.000Z</time>
      </trkpt>
      <trkpt lat="41.221952" lon="1.454952">
        <ele>256.3</ele>
        <time>1970-01-01T01:19:52.000Z</time>
      </trkpt>
      <trkpt lat="41.221997" lon="1.454931">
        <ele>257</ele>
        <time>1970-01-01T01:19:54.000Z</time>
      </trkpt>
      <trkpt lat="41.222019" lon="1.454924">
        <ele>257.3</ele>
        <time>1970-01-01T01:19:55.000Z</time>
      </trkpt>
      <trkpt lat="41.222062" lon="1.454908">
        <ele>258</ele>
        <time>1970-01-01T01:19:57.000Z</time>
      </trkpt>
      <trkpt lat="41.222083" lon="1.454902">
        <ele>258.3</ele>
        <time>1970-01-01T01:19:58.000Z</time>
      </trkpt>
      <trkpt lat="41.222102" lon="1.454898">
        <ele>258.6</ele>
        <time>1970-01-01T01:19:59.000Z</time>
      </trkpt>
      <trkpt lat="41.222157" lon="1.454886">
        <ele>259.5</ele>
        <time>1970-01-01T01:20:02.000Z</time>
      </trkpt>
      <trkpt lat="41.222198" lon="1.45487">
        <ele>260.2</ele>
        <time>1970-01-01T01:20:04.000Z</time>
      </trkpt>
      <trkpt lat="41.222236" lon="1.454848">
        <ele>260.9</ele>
        <time>1970-01-01T01:20:06.000Z</time>
      </trkpt>
      <trkpt lat="41.222253" lon="1.454838">
        <ele>261.2</ele>
        <time>1970-01-01T01:20:07.000Z</time>
      </trkpt>
      <trkpt lat="41.222293" lon="1.45482">
        <ele>261.9</ele>
        <time>1970-01-01T01:20:09.000Z</time>
      </trkpt>
      <trkpt lat="41.222347" lon="1.454794">
        <ele>262.8</ele>
        <time>1970-01-01T01:20:12.000Z</time>
      </trkpt>
      <trkpt lat="41.222437" lon="1.454741">
        <ele>264.3</ele>
        <time>1970-01-01T01:20:17.000Z</time>
      </trkpt>
      <trkpt lat="41.22248" lon="1.45471">
        <ele>265</ele>
        <time>1970-01-01T01:20:20.000Z</time>
      </trkpt>
      <trkpt lat="41.222495" lon="1.454698">
        <ele>265.2</ele>
        <time>1970-01-01T01:20:21.000Z</time>
      </trkpt>
      <trkpt lat="41.222563" lon="1.454654">
        <ele>266.2</ele>
        <time>1970-01-01T01:20:25.000Z</time>
      </trkpt>
      <trkpt lat="41.222615" lon="1.454619">
        <ele>266.9</ele>
        <time>1970-01-01T01:20:28.000Z</time>
      </trkpt>
      <trkpt lat="41.222668" lon="1.454591">
        <ele>267.4</ele>
        <time>1970-01-01T01:20:31.000Z</time>
      </trkpt>
      <trkpt lat="41.222687" lon="1.454582">
        <ele>267.6</ele>
        <time>1970-01-01T01:20:32.000Z</time>
      </trkpt>
      <trkpt lat="41.222723" lon="1.454556">
        <ele>267.9</ele>
        <time>1970-01-01T01:20:34.000Z</time>
      </trkpt>
      <trkpt lat="41.22281" lon="1.454535">
        <ele>268.4</ele>
        <time>1970-01-01T01:20:38.000Z</time>
      </trkpt>
      <trkpt lat="41.222895" lon="1.454529">
        <ele>268.5</ele>
        <time>1970-01-01T01:20:41.000Z</time>
      </trkpt>
      <trkpt lat="41.222959" lon="1.454531">
        <ele>268.4</ele>
        <time>1970-01-01T01:20:43.000Z</time>
      </trkpt>
      <trkpt lat="41.223072" lon="1.454557">
        <ele>268</ele>
        <time>1970-01-01T01:20:46.000Z</time>
      </trkpt>
      <trkpt lat="41.2232" lon="1.454584">
        <ele>267.4</ele>
        <time>1970-01-01T01:20:49.000Z</time>
      </trkpt>
      <trkpt lat="41.223347" lon="1.454609">
        <ele>266.8</ele>
        <time>1970-01-01T01:20:52.000Z</time>
      </trkpt>
      <trkpt lat="41.223446" lon="1.454616">
        <ele>266.5</ele>
        <time>1970-01-01T01:20:54.000Z</time>
      </trkpt>
      <trkpt lat="41.223616" lon="1.454623">
        <ele>266.5</ele>
        <time>1970-01-01T01:20:58.000Z</time>
      </trkpt>
      <trkpt lat="41.223794" lon="1.454717">
        <ele>266.7</ele>
        <time>1970-01-01T01:21:03.000Z</time>
      </trkpt>
      <trkpt lat="41.223863" lon="1.454769">
        <ele>266.8</ele>
        <time>1970-01-01T01:21:05.000Z</time>
      </trkpt>
      <trkpt lat="41.223936" lon="1.454816">
        <ele>266.9</ele>
        <time>1970-01-01T01:21:07.000Z</time>
      </trkpt>
      <trkpt lat="41.224046" lon="1.454889">
        <ele>267.1</ele>
        <time>1970-01-01T01:21:10.000Z</time>
      </trkpt>
      <trkpt lat="41.224085" lon="1.454913">
        <ele>267.2</ele>
        <time>1970-01-01T01:21:11.000Z</time>
      </trkpt>
      <trkpt lat="41.224278" lon="1.455027">
        <ele>267.6</ele>
        <time>1970-01-01T01:21:16.000Z</time>
      </trkpt>
      <trkpt lat="41.224357" lon="1.455061">
        <ele>267.9</ele>
        <time>1970-01-01T01:21:18.000Z</time>
      </trkpt>
      <trkpt lat="41.224437" lon="1.455068">
        <ele>268.3</ele>
        <time>1970-01-01T01:21:20.000Z</time>
      </trkpt>
      <trkpt lat="41.224511" lon="1.455057">
        <ele>268.7</ele>
        <time>1970-01-01T01:21:22.000Z</time>
      </trkpt>
      <trkpt lat="41.224635" lon="1.455035">
        <ele>269.4</ele>
        <time>1970-01-01T01:21:26.000Z</time>
      </trkpt>
      <trkpt lat="41.224762" lon="1.455074">
        <ele>269.9</ele>
        <time>1970-01-01T01:21:30.000Z</time>
      </trkpt>
      <trkpt lat="41.224833" lon="1.455113">
        <ele>269.9</ele>
        <time>1970-01-01T01:21:32.000Z</time>
      </trkpt>
      <trkpt lat="41.224869" lon="1.455142">
        <ele>269.9</ele>
        <time>1970-01-01T01:21:33.000Z</time>
      </trkpt>
      <trkpt lat="41.225059" lon="1.455317">
        <ele>269.2</ele>
        <time>1970-01-01T01:21:38.000Z</time>
      </trkpt>
      <trkpt lat="41.225091" lon="1.455361">
        <ele>269</ele>
        <time>1970-01-01T01:21:39.000Z</time>
      </trkpt>
      <trkpt lat="41.225121" lon="1.455411">
        <ele>268.8</ele>
        <time>1970-01-01T01:21:40.000Z</time>
      </trkpt>
      <trkpt lat="41.225177" lon="1.455517">
        <ele>268.2</ele>
        <time>1970-01-01T01:21:42.000Z</time>
      </trkpt>
      <trkpt lat="41.225204" lon="1.455579">
        <ele>267.8</ele>
        <time>1970-01-01T01:21:43.000Z</time>
      </trkpt>
      <trkpt lat="41.225231" lon="1.455647">
        <ele>267.4</ele>
        <time>1970-01-01T01:21:44.000Z</time>
      </trkpt>
      <trkpt lat="41.225324" lon="1.455881">
        <ele>265.6</ele>
        <time>1970-01-01T01:21:47.000Z</time>
      </trkpt>
      <trkpt lat="41.225357" lon="1.455962">
        <ele>264.9</ele>
        <time>1970-01-01T01:21:48.000Z</time>
      </trkpt>
      <trkpt lat="41.225391" lon="1.456044">
        <ele>264.1</ele>
        <time>1970-01-01T01:21:49.000Z</time>
      </trkpt>
      <trkpt lat="41.225451" lon="1.456197">
        <ele>262.7</ele>
        <time>1970-01-01T01:21:51.000Z</time>
      </trkpt>
      <trkpt lat="41.225471" lon="1.456269">
        <ele>262.1</ele>
        <time>1970-01-01T01:21:52.000Z</time>
      </trkpt>
      <trkpt lat="41.225487" lon="1.456336">
        <ele>261.8</ele>
        <time>1970-01-01T01:21:53.000Z</time>
      </trkpt>
      <trkpt lat="41.225506" lon="1.4564">
        <ele>261.3</ele>
        <time>1970-01-01T01:21:54.000Z</time>
      </trkpt>
      <trkpt lat="41.22553" lon="1.456459">
        <ele>261.3</ele>
        <time>1970-01-01T01:21:55.000Z</time>
      </trkpt>
      <trkpt lat="41.22555" lon="1.456518">
        <ele>261.3</ele>
        <time>1970-01-01T01:21:56.000Z</time>
      </trkpt>
      <trkpt lat="41.225562" lon="1.456578">
        <ele>261.4</ele>
        <time>1970-01-01T01:21:57.000Z</time>
      </trkpt>
      <trkpt lat="41.225568" lon="1.456637">
        <ele>261.4</ele>
        <time>1970-01-01T01:21:58.000Z</time>
      </trkpt>
      <trkpt lat="41.225576" lon="1.456697">
        <ele>261.3</ele>
        <time>1970-01-01T01:21:59.000Z</time>
      </trkpt>
      <trkpt lat="41.225599" lon="1.456814">
        <ele>261.2</ele>
        <time>1970-01-01T01:22:01.000Z</time>
      </trkpt>
      <trkpt lat="41.225641" lon="1.456929">
        <ele>260.9</ele>
        <time>1970-01-01T01:22:03.000Z</time>
      </trkpt>
      <trkpt lat="41.225666" lon="1.456989">
        <ele>260.7</ele>
        <time>1970-01-01T01:22:04.000Z</time>
      </trkpt>
      <trkpt lat="41.225835" lon="1.457411">
        <ele>259.5</ele>
        <time>1970-01-01T01:22:10.000Z</time>
      </trkpt>
      <trkpt lat="41.225897" lon="1.457705">
        <ele>259.2</ele>
        <time>1970-01-01T01:22:13.000Z</time>
      </trkpt>
      <trkpt lat="41.225943" lon="1.457905">
        <ele>258.9</ele>
        <time>1970-01-01T01:22:15.000Z</time>
      </trkpt>
      <trkpt lat="41.226034" lon="1.458081">
        <ele>258.7</ele>
        <time>1970-01-01T01:22:17.000Z</time>
      </trkpt>
      <trkpt lat="41.22609" lon="1.458161">
        <ele>258.7</ele>
        <time>1970-01-01T01:22:18.000Z</time>
      </trkpt>
      <trkpt lat="41.226146" lon="1.458241">
        <ele>258.7</ele>
        <time>1970-01-01T01:22:19.000Z</time>
      </trkpt>
      <trkpt lat="41.226196" lon="1.458326">
        <ele>258.7</ele>
        <time>1970-01-01T01:22:20.000Z</time>
      </trkpt>
      <trkpt lat="41.226235" lon="1.458417">
        <ele>258.8</ele>
        <time>1970-01-01T01:22:21.000Z</time>
      </trkpt>
      <trkpt lat="41.226259" lon="1.458512">
        <ele>258.9</ele>
        <time>1970-01-01T01:22:22.000Z</time>
      </trkpt>
      <trkpt lat="41.22627" lon="1.458695">
        <ele>259.3</ele>
        <time>1970-01-01T01:22:24.000Z</time>
      </trkpt>
      <trkpt lat="41.226252" lon="1.458863">
        <ele>259.7</ele>
        <time>1970-01-01T01:22:26.000Z</time>
      </trkpt>
      <trkpt lat="41.226237" lon="1.458947">
        <ele>259.9</ele>
        <time>1970-01-01T01:22:27.000Z</time>
      </trkpt>
      <trkpt lat="41.226215" lon="1.459113">
        <ele>260.3</ele>
        <time>1970-01-01T01:22:29.000Z</time>
      </trkpt>
      <trkpt lat="41.226222" lon="1.459264">
        <ele>260.6</ele>
        <time>1970-01-01T01:22:31.000Z</time>
      </trkpt>
      <trkpt lat="41.226266" lon="1.459393">
        <ele>261.1</ele>
        <time>1970-01-01T01:22:33.000Z</time>
      </trkpt>
      <trkpt lat="41.226325" lon="1.459494">
        <ele>261.8</ele>
        <time>1970-01-01T01:22:35.000Z</time>
      </trkpt>
      <trkpt lat="41.226398" lon="1.45957">
        <ele>262.3</ele>
        <time>1970-01-01T01:22:37.000Z</time>
      </trkpt>
      <trkpt lat="41.226476" lon="1.459626">
        <ele>262.8</ele>
        <time>1970-01-01T01:22:39.000Z</time>
      </trkpt>
      <trkpt lat="41.226515" lon="1.459653">
        <ele>263</ele>
        <time>1970-01-01T01:22:40.000Z</time>
      </trkpt>
      <trkpt lat="41.226552" lon="1.459683">
        <ele>263.1</ele>
        <time>1970-01-01T01:22:41.000Z</time>
      </trkpt>
      <trkpt lat="41.226587" lon="1.459717">
        <ele>263.3</ele>
        <time>1970-01-01T01:22:42.000Z</time>
      </trkpt>
      <trkpt lat="41.226653" lon="1.459798">
        <ele>263.5</ele>
        <time>1970-01-01T01:22:44.000Z</time>
      </trkpt>
      <trkpt lat="41.22668" lon="1.459845">
        <ele>263.5</ele>
        <time>1970-01-01T01:22:45.000Z</time>
      </trkpt>
      <trkpt lat="41.226704" lon="1.459895">
        <ele>263.5</ele>
        <time>1970-01-01T01:22:46.000Z</time>
      </trkpt>
      <trkpt lat="41.226771" lon="1.460062">
        <ele>263.1</ele>
        <time>1970-01-01T01:22:49.000Z</time>
      </trkpt>
      <trkpt lat="41.226795" lon="1.460118">
        <ele>262.9</ele>
        <time>1970-01-01T01:22:50.000Z</time>
      </trkpt>
      <trkpt lat="41.226824" lon="1.460166">
        <ele>262.6</ele>
        <time>1970-01-01T01:22:51.000Z</time>
      </trkpt>
      <trkpt lat="41.226993" lon="1.460359">
        <ele>260.7</ele>
        <time>1970-01-01T01:22:55.000Z</time>
      </trkpt>
      <trkpt lat="41.227053" lon="1.460414">
        <ele>260</ele>
        <time>1970-01-01T01:22:56.000Z</time>
      </trkpt>
      <trkpt lat="41.227267" lon="1.460595">
        <ele>258.4</ele>
        <time>1970-01-01T01:22:59.000Z</time>
      </trkpt>
      <trkpt lat="41.227334" lon="1.460676">
        <ele>258</ele>
        <time>1970-01-01T01:23:00.000Z</time>
      </trkpt>
      <trkpt lat="41.227462" lon="1.460963">
        <ele>257.1</ele>
        <time>1970-01-01T01:23:03.000Z</time>
      </trkpt>
      <trkpt lat="41.227582" lon="1.461235">
        <ele>255.6</ele>
        <time>1970-01-01T01:23:06.000Z</time>
      </trkpt>
      <trkpt lat="41.227639" lon="1.461309">
        <ele>255</ele>
        <time>1970-01-01T01:23:07.000Z</time>
      </trkpt>
      <trkpt lat="41.227704" lon="1.461375">
        <ele>254.1</ele>
        <time>1970-01-01T01:23:08.000Z</time>
      </trkpt>
      <trkpt lat="41.227862" lon="1.46146">
        <ele>252.1</ele>
        <time>1970-01-01T01:23:10.000Z</time>
      </trkpt>
      <trkpt lat="41.228138" lon="1.461517">
        <ele>249.9</ele>
        <time>1970-01-01T01:23:13.000Z</time>
      </trkpt>
      <trkpt lat="41.228293" lon="1.461662">
        <ele>249.9</ele>
        <time>1970-01-01T01:23:15.000Z</time>
      </trkpt>
      <trkpt lat="41.228384" lon="1.461867">
        <ele>250.8</ele>
        <time>1970-01-01T01:23:17.000Z</time>
      </trkpt>
      <trkpt lat="41.228404" lon="1.461965">
        <ele>251.3</ele>
        <time>1970-01-01T01:23:18.000Z</time>
      </trkpt>
      <trkpt lat="41.228419" lon="1.462057">
        <ele>251.8</ele>
        <time>1970-01-01T01:23:19.000Z</time>
      </trkpt>
      <trkpt lat="41.228435" lon="1.462143">
        <ele>252.1</ele>
        <time>1970-01-01T01:23:20.000Z</time>
      </trkpt>
      <trkpt lat="41.228457" lon="1.462225">
        <ele>252.4</ele>
        <time>1970-01-01T01:23:21.000Z</time>
      </trkpt>
      <trkpt lat="41.228485" lon="1.4623">
        <ele>252.6</ele>
        <time>1970-01-01T01:23:22.000Z</time>
      </trkpt>
      <trkpt lat="41.228651" lon="1.462518">
        <ele>252.7</ele>
        <time>1970-01-01T01:23:26.000Z</time>
      </trkpt>
      <trkpt lat="41.22881" lon="1.462663">
        <ele>252.5</ele>
        <time>1970-01-01T01:23:29.000Z</time>
      </trkpt>
      <trkpt lat="41.228894" lon="1.462816">
        <ele>252.9</ele>
        <time>1970-01-01T01:23:31.000Z</time>
      </trkpt>
      <trkpt lat="41.22893" lon="1.463088">
        <ele>254.1</ele>
        <time>1970-01-01T01:23:34.000Z</time>
      </trkpt>
      <trkpt lat="41.228905" lon="1.463245">
        <ele>255.1</ele>
        <time>1970-01-01T01:23:36.000Z</time>
      </trkpt>
      <trkpt lat="41.228875" lon="1.463384">
        <ele>256.2</ele>
        <time>1970-01-01T01:23:38.000Z</time>
      </trkpt>
      <trkpt lat="41.228859" lon="1.463447">
        <ele>256.8</ele>
        <time>1970-01-01T01:23:39.000Z</time>
      </trkpt>
      <trkpt lat="41.22885" lon="1.46351">
        <ele>257.4</ele>
        <time>1970-01-01T01:23:40.000Z</time>
      </trkpt>
      <trkpt lat="41.228857" lon="1.463633">
        <ele>258.5</ele>
        <time>1970-01-01T01:23:42.000Z</time>
      </trkpt>
      <trkpt lat="41.228876" lon="1.463752">
        <ele>259.7</ele>
        <time>1970-01-01T01:23:44.000Z</time>
      </trkpt>
      <trkpt lat="41.228888" lon="1.463807">
        <ele>260.2</ele>
        <time>1970-01-01T01:23:45.000Z</time>
      </trkpt>
      <trkpt lat="41.228904" lon="1.46386">
        <ele>260.8</ele>
        <time>1970-01-01T01:23:46.000Z</time>
      </trkpt>
      <trkpt lat="41.22894" lon="1.463957">
        <ele>261.8</ele>
        <time>1970-01-01T01:23:48.000Z</time>
      </trkpt>
      <trkpt lat="41.228984" lon="1.464047">
        <ele>262.7</ele>
        <time>1970-01-01T01:23:50.000Z</time>
      </trkpt>
      <trkpt lat="41.229024" lon="1.464136">
        <ele>263.7</ele>
        <time>1970-01-01T01:23:52.000Z</time>
      </trkpt>
      <trkpt lat="41.229064" lon="1.464221">
        <ele>264.6</ele>
        <time>1970-01-01T01:23:54.000Z</time>
      </trkpt>
      <trkpt lat="41.229086" lon="1.464263">
        <ele>265.1</ele>
        <time>1970-01-01T01:23:55.000Z</time>
      </trkpt>
      <trkpt lat="41.229133" lon="1.464337">
        <ele>265.9</ele>
        <time>1970-01-01T01:23:57.000Z</time>
      </trkpt>
      <trkpt lat="41.229186" lon="1.464406">
        <ele>266.8</ele>
        <time>1970-01-01T01:23:59.000Z</time>
      </trkpt>
      <trkpt lat="41.229212" lon="1.464445">
        <ele>267.2</ele>
        <time>1970-01-01T01:24:00.000Z</time>
      </trkpt>
      <trkpt lat="41.229236" lon="1.464489">
        <ele>267.6</ele>
        <time>1970-01-01T01:24:01.000Z</time>
      </trkpt>
      <trkpt lat="41.229276" lon="1.464578">
        <ele>268.6</ele>
        <time>1970-01-01T01:24:03.000Z</time>
      </trkpt>
      <trkpt lat="41.229295" lon="1.464625">
        <ele>269</ele>
        <time>1970-01-01T01:24:04.000Z</time>
      </trkpt>
      <trkpt lat="41.229321" lon="1.464723">
        <ele>270</ele>
        <time>1970-01-01T01:24:06.000Z</time>
      </trkpt>
      <trkpt lat="41.229334" lon="1.464822">
        <ele>270.9</ele>
        <time>1970-01-01T01:24:08.000Z</time>
      </trkpt>
      <trkpt lat="41.229333" lon="1.464871">
        <ele>271.4</ele>
        <time>1970-01-01T01:24:09.000Z</time>
      </trkpt>
      <trkpt lat="41.22933" lon="1.464922">
        <ele>271.9</ele>
        <time>1970-01-01T01:24:10.000Z</time>
      </trkpt>
      <trkpt lat="41.229322" lon="1.464974">
        <ele>272.4</ele>
        <time>1970-01-01T01:24:11.000Z</time>
      </trkpt>
      <trkpt lat="41.229296" lon="1.465123">
        <ele>273.8</ele>
        <time>1970-01-01T01:24:14.000Z</time>
      </trkpt>
      <trkpt lat="41.229284" lon="1.465174">
        <ele>274.4</ele>
        <time>1970-01-01T01:24:15.000Z</time>
      </trkpt>
      <trkpt lat="41.229261" lon="1.465276">
        <ele>275.4</ele>
        <time>1970-01-01T01:24:17.000Z</time>
      </trkpt>
      <trkpt lat="41.229252" lon="1.465329">
        <ele>275.9</ele>
        <time>1970-01-01T01:24:18.000Z</time>
      </trkpt>
      <trkpt lat="41.229234" lon="1.46543">
        <ele>276.9</ele>
        <time>1970-01-01T01:24:20.000Z</time>
      </trkpt>
      <trkpt lat="41.229224" lon="1.46548">
        <ele>277.4</ele>
        <time>1970-01-01T01:24:21.000Z</time>
      </trkpt>
      <trkpt lat="41.229216" lon="1.465535">
        <ele>277.9</ele>
        <time>1970-01-01T01:24:22.000Z</time>
      </trkpt>
      <trkpt lat="41.229202" lon="1.465647">
        <ele>278.9</ele>
        <time>1970-01-01T01:24:24.000Z</time>
      </trkpt>
      <trkpt lat="41.229181" lon="1.465754">
        <ele>279.7</ele>
        <time>1970-01-01T01:24:26.000Z</time>
      </trkpt>
      <trkpt lat="41.22917" lon="1.465808">
        <ele>280.1</ele>
        <time>1970-01-01T01:24:27.000Z</time>
      </trkpt>
      <trkpt lat="41.229144" lon="1.465917">
        <ele>280.8</ele>
        <time>1970-01-01T01:24:29.000Z</time>
      </trkpt>
      <trkpt lat="41.229129" lon="1.466033">
        <ele>281.3</ele>
        <time>1970-01-01T01:24:31.000Z</time>
      </trkpt>
      <trkpt lat="41.229125" lon="1.466088">
        <ele>281.4</ele>
        <time>1970-01-01T01:24:32.000Z</time>
      </trkpt>
      <trkpt lat="41.229129" lon="1.466198">
        <ele>281.6</ele>
        <time>1970-01-01T01:24:34.000Z</time>
      </trkpt>
      <trkpt lat="41.22915" lon="1.466304">
        <ele>281.6</ele>
        <time>1970-01-01T01:24:36.000Z</time>
      </trkpt>
      <trkpt lat="41.229168" lon="1.466355">
        <ele>281.6</ele>
        <time>1970-01-01T01:24:37.000Z</time>
      </trkpt>
      <trkpt lat="41.22919" lon="1.466404">
        <ele>281.5</ele>
        <time>1970-01-01T01:24:38.000Z</time>
      </trkpt>
      <trkpt lat="41.229289" lon="1.466533">
        <ele>281.3</ele>
        <time>1970-01-01T01:24:41.000Z</time>
      </trkpt>
      <trkpt lat="41.229375" lon="1.466614">
        <ele>281</ele>
        <time>1970-01-01T01:24:43.000Z</time>
      </trkpt>
      <trkpt lat="41.229415" lon="1.466667">
        <ele>280.7</ele>
        <time>1970-01-01T01:24:44.000Z</time>
      </trkpt>
      <trkpt lat="41.229451" lon="1.466734">
        <ele>280.2</ele>
        <time>1970-01-01T01:24:45.000Z</time>
      </trkpt>
      <trkpt lat="41.229501" lon="1.467017">
        <ele>278.4</ele>
        <time>1970-01-01T01:24:48.000Z</time>
      </trkpt>
      <trkpt lat="41.229526" lon="1.467374">
        <ele>276</ele>
        <time>1970-01-01T01:24:51.000Z</time>
      </trkpt>
      <trkpt lat="41.229538" lon="1.46751">
        <ele>275</ele>
        <time>1970-01-01T01:24:52.000Z</time>
      </trkpt>
      <trkpt lat="41.229549" lon="1.467654">
        <ele>274</ele>
        <time>1970-01-01T01:24:53.000Z</time>
      </trkpt>
      <trkpt lat="41.229576" lon="1.467952">
        <ele>271.9</ele>
        <time>1970-01-01T01:24:55.000Z</time>
      </trkpt>
      <trkpt lat="41.229616" lon="1.468263">
        <ele>269.5</ele>
        <time>1970-01-01T01:24:57.000Z</time>
      </trkpt>
      <trkpt lat="41.229644" lon="1.468423">
        <ele>268.3</ele>
        <time>1970-01-01T01:24:58.000Z</time>
      </trkpt>
      <trkpt lat="41.229681" lon="1.468583">
        <ele>267</ele>
        <time>1970-01-01T01:24:59.000Z</time>
      </trkpt>
      <trkpt lat="41.229736" lon="1.468734">
        <ele>265.8</ele>
        <time>1970-01-01T01:25:00.000Z</time>
      </trkpt>
      <trkpt lat="41.229807" lon="1.468874">
        <ele>264.5</ele>
        <time>1970-01-01T01:25:01.000Z</time>
      </trkpt>
      <trkpt lat="41.229885" lon="1.468997">
        <ele>263.3</ele>
        <time>1970-01-01T01:25:02.000Z</time>
      </trkpt>
      <trkpt lat="41.229955" lon="1.46911">
        <ele>262.4</ele>
        <time>1970-01-01T01:25:03.000Z</time>
      </trkpt>
      <trkpt lat="41.230015" lon="1.469359">
        <ele>261.2</ele>
        <time>1970-01-01T01:25:05.000Z</time>
      </trkpt>
      <trkpt lat="41.229995" lon="1.469485">
        <ele>260.6</ele>
        <time>1970-01-01T01:25:06.000Z</time>
      </trkpt>
      <trkpt lat="41.229958" lon="1.469604">
        <ele>259.9</ele>
        <time>1970-01-01T01:25:07.000Z</time>
      </trkpt>
      <trkpt lat="41.229919" lon="1.469723">
        <ele>259.2</ele>
        <time>1970-01-01T01:25:08.000Z</time>
      </trkpt>
      <trkpt lat="41.229887" lon="1.469847">
        <ele>258.4</ele>
        <time>1970-01-01T01:25:09.000Z</time>
      </trkpt>
      <trkpt lat="41.229868" lon="1.469978">
        <ele>257.5</ele>
        <time>1970-01-01T01:25:10.000Z</time>
      </trkpt>
      <trkpt lat="41.229866" lon="1.470118">
        <ele>256.5</ele>
        <time>1970-01-01T01:25:11.000Z</time>
      </trkpt>
      <trkpt lat="41.229882" lon="1.470261">
        <ele>255.6</ele>
        <time>1970-01-01T01:25:12.000Z</time>
      </trkpt>
      <trkpt lat="41.229919" lon="1.470403">
        <ele>254.8</ele>
        <time>1970-01-01T01:25:13.000Z</time>
      </trkpt>
      <trkpt lat="41.229974" lon="1.470538">
        <ele>254</ele>
        <time>1970-01-01T01:25:14.000Z</time>
      </trkpt>
      <trkpt lat="41.230043" lon="1.470661">
        <ele>253.4</ele>
        <time>1970-01-01T01:25:15.000Z</time>
      </trkpt>
      <trkpt lat="41.230113" lon="1.470777">
        <ele>253</ele>
        <time>1970-01-01T01:25:16.000Z</time>
      </trkpt>
      <trkpt lat="41.23017" lon="1.470901">
        <ele>252.5</ele>
        <time>1970-01-01T01:25:17.000Z</time>
      </trkpt>
      <trkpt lat="41.230206" lon="1.471036">
        <ele>252.1</ele>
        <time>1970-01-01T01:25:18.000Z</time>
      </trkpt>
      <trkpt lat="41.230218" lon="1.471175">
        <ele>251.6</ele>
        <time>1970-01-01T01:25:19.000Z</time>
      </trkpt>
      <trkpt lat="41.230214" lon="1.471314">
        <ele>251</ele>
        <time>1970-01-01T01:25:20.000Z</time>
      </trkpt>
      <trkpt lat="41.23018" lon="1.471588">
        <ele>249.9</ele>
        <time>1970-01-01T01:25:22.000Z</time>
      </trkpt>
      <trkpt lat="41.230157" lon="1.471724">
        <ele>249.3</ele>
        <time>1970-01-01T01:25:23.000Z</time>
      </trkpt>
      <trkpt lat="41.230137" lon="1.47186">
        <ele>248.6</ele>
        <time>1970-01-01T01:25:24.000Z</time>
      </trkpt>
      <trkpt lat="41.230117" lon="1.471997">
        <ele>247.9</ele>
        <time>1970-01-01T01:25:25.000Z</time>
      </trkpt>
      <trkpt lat="41.230097" lon="1.472136">
        <ele>247.2</ele>
        <time>1970-01-01T01:25:26.000Z</time>
      </trkpt>
      <trkpt lat="41.23002" lon="1.472549">
        <ele>245.3</ele>
        <time>1970-01-01T01:25:29.000Z</time>
      </trkpt>
      <trkpt lat="41.229995" lon="1.472684">
        <ele>244.6</ele>
        <time>1970-01-01T01:25:30.000Z</time>
      </trkpt>
      <trkpt lat="41.229965" lon="1.47296">
        <ele>242.7</ele>
        <time>1970-01-01T01:25:32.000Z</time>
      </trkpt>
      <trkpt lat="41.229963" lon="1.473102">
        <ele>241.4</ele>
        <time>1970-01-01T01:25:33.000Z</time>
      </trkpt>
      <trkpt lat="41.229965" lon="1.47325">
        <ele>240.1</ele>
        <time>1970-01-01T01:25:34.000Z</time>
      </trkpt>
      <trkpt lat="41.229963" lon="1.473405">
        <ele>238.8</ele>
        <time>1970-01-01T01:25:35.000Z</time>
      </trkpt>
      <trkpt lat="41.229951" lon="1.473729">
        <ele>236.2</ele>
        <time>1970-01-01T01:25:37.000Z</time>
      </trkpt>
      <trkpt lat="41.22994" lon="1.473896">
        <ele>234.9</ele>
        <time>1970-01-01T01:25:38.000Z</time>
      </trkpt>
      <trkpt lat="41.229931" lon="1.474061">
        <ele>233.6</ele>
        <time>1970-01-01T01:25:39.000Z</time>
      </trkpt>
      <trkpt lat="41.229929" lon="1.474227">
        <ele>232.1</ele>
        <time>1970-01-01T01:25:40.000Z</time>
      </trkpt>
      <trkpt lat="41.229938" lon="1.474394">
        <ele>230.7</ele>
        <time>1970-01-01T01:25:41.000Z</time>
      </trkpt>
      <trkpt lat="41.229961" lon="1.47456">
        <ele>229.5</ele>
        <time>1970-01-01T01:25:42.000Z</time>
      </trkpt>
      <trkpt lat="41.230001" lon="1.474719">
        <ele>228.7</ele>
        <time>1970-01-01T01:25:43.000Z</time>
      </trkpt>
      <trkpt lat="41.23006" lon="1.474865">
        <ele>227.9</ele>
        <time>1970-01-01T01:25:44.000Z</time>
      </trkpt>
      <trkpt lat="41.230129" lon="1.475">
        <ele>227.3</ele>
        <time>1970-01-01T01:25:45.000Z</time>
      </trkpt>
      <trkpt lat="41.230202" lon="1.47513">
        <ele>226.7</ele>
        <time>1970-01-01T01:25:46.000Z</time>
      </trkpt>
      <trkpt lat="41.230275" lon="1.475256">
        <ele>226.2</ele>
        <time>1970-01-01T01:25:47.000Z</time>
      </trkpt>
      <trkpt lat="41.230345" lon="1.475382">
        <ele>225.8</ele>
        <time>1970-01-01T01:25:48.000Z</time>
      </trkpt>
      <trkpt lat="41.23041" lon="1.475508">
        <ele>225.4</ele>
        <time>1970-01-01T01:25:49.000Z</time>
      </trkpt>
      <trkpt lat="41.230469" lon="1.475634">
        <ele>224.9</ele>
        <time>1970-01-01T01:25:50.000Z</time>
      </trkpt>
      <trkpt lat="41.230524" lon="1.475758">
        <ele>224.4</ele>
        <time>1970-01-01T01:25:51.000Z</time>
      </trkpt>
      <trkpt lat="41.230626" lon="1.476001">
        <ele>222.9</ele>
        <time>1970-01-01T01:25:53.000Z</time>
      </trkpt>
      <trkpt lat="41.230676" lon="1.476119">
        <ele>222</ele>
        <time>1970-01-01T01:25:54.000Z</time>
      </trkpt>
      <trkpt lat="41.230784" lon="1.476354">
        <ele>220.1</ele>
        <time>1970-01-01T01:25:56.000Z</time>
      </trkpt>
      <trkpt lat="41.230841" lon="1.476471">
        <ele>219.3</ele>
        <time>1970-01-01T01:25:57.000Z</time>
      </trkpt>
      <trkpt lat="41.230903" lon="1.476588">
        <ele>218.4</ele>
        <time>1970-01-01T01:25:58.000Z</time>
      </trkpt>
      <trkpt lat="41.231104" lon="1.476933">
        <ele>216.1</ele>
        <time>1970-01-01T01:26:01.000Z</time>
      </trkpt>
      <trkpt lat="41.231234" lon="1.477171">
        <ele>214.3</ele>
        <time>1970-01-01T01:26:03.000Z</time>
      </trkpt>
      <trkpt lat="41.231299" lon="1.477295">
        <ele>213.3</ele>
        <time>1970-01-01T01:26:04.000Z</time>
      </trkpt>
      <trkpt lat="41.231368" lon="1.477416">
        <ele>212.5</ele>
        <time>1970-01-01T01:26:05.000Z</time>
      </trkpt>
      <trkpt lat="41.231447" lon="1.477529">
        <ele>211.9</ele>
        <time>1970-01-01T01:26:06.000Z</time>
      </trkpt>
      <trkpt lat="41.231538" lon="1.477621">
        <ele>211.4</ele>
        <time>1970-01-01T01:26:07.000Z</time>
      </trkpt>
      <trkpt lat="41.231736" lon="1.477738">
        <ele>210.9</ele>
        <time>1970-01-01T01:26:09.000Z</time>
      </trkpt>
      <trkpt lat="41.231838" lon="1.47778">
        <ele>210.5</ele>
        <time>1970-01-01T01:26:10.000Z</time>
      </trkpt>
      <trkpt lat="41.231937" lon="1.477822">
        <ele>210.2</ele>
        <time>1970-01-01T01:26:11.000Z</time>
      </trkpt>
      <trkpt lat="41.232031" lon="1.477874">
        <ele>209.8</ele>
        <time>1970-01-01T01:26:12.000Z</time>
      </trkpt>
      <trkpt lat="41.232116" lon="1.477939">
        <ele>209.5</ele>
        <time>1970-01-01T01:26:13.000Z</time>
      </trkpt>
      <trkpt lat="41.232193" lon="1.478013">
        <ele>209.2</ele>
        <time>1970-01-01T01:26:14.000Z</time>
      </trkpt>
      <trkpt lat="41.232267" lon="1.478088">
        <ele>208.9</ele>
        <time>1970-01-01T01:26:15.000Z</time>
      </trkpt>
      <trkpt lat="41.232338" lon="1.47816">
        <ele>208.5</ele>
        <time>1970-01-01T01:26:16.000Z</time>
      </trkpt>
      <trkpt lat="41.232408" lon="1.478228">
        <ele>208.2</ele>
        <time>1970-01-01T01:26:17.000Z</time>
      </trkpt>
      <trkpt lat="41.23255" lon="1.478343">
        <ele>207.5</ele>
        <time>1970-01-01T01:26:19.000Z</time>
      </trkpt>
      <trkpt lat="41.232623" lon="1.478392">
        <ele>207.2</ele>
        <time>1970-01-01T01:26:20.000Z</time>
      </trkpt>
      <trkpt lat="41.232699" lon="1.478433">
        <ele>206.8</ele>
        <time>1970-01-01T01:26:21.000Z</time>
      </trkpt>
      <trkpt lat="41.232779" lon="1.478462">
        <ele>206.4</ele>
        <time>1970-01-01T01:26:22.000Z</time>
      </trkpt>
      <trkpt lat="41.23286" lon="1.478475">
        <ele>206</ele>
        <time>1970-01-01T01:26:23.000Z</time>
      </trkpt>
      <trkpt lat="41.233028" lon="1.478468">
        <ele>205.2</ele>
        <time>1970-01-01T01:26:25.000Z</time>
      </trkpt>
      <trkpt lat="41.2332" lon="1.478429">
        <ele>204.7</ele>
        <time>1970-01-01T01:26:27.000Z</time>
      </trkpt>
      <trkpt lat="41.233283" lon="1.478389">
        <ele>204.5</ele>
        <time>1970-01-01T01:26:28.000Z</time>
      </trkpt>
      <trkpt lat="41.233513" lon="1.478241">
        <ele>204</ele>
        <time>1970-01-01T01:26:31.000Z</time>
      </trkpt>
      <trkpt lat="41.233671" lon="1.478196">
        <ele>203.6</ele>
        <time>1970-01-01T01:26:33.000Z</time>
      </trkpt>
      <trkpt lat="41.233747" lon="1.478212">
        <ele>203.4</ele>
        <time>1970-01-01T01:26:34.000Z</time>
      </trkpt>
      <trkpt lat="41.233875" lon="1.478298">
        <ele>202.8</ele>
        <time>1970-01-01T01:26:36.000Z</time>
      </trkpt>
      <trkpt lat="41.233929" lon="1.478357">
        <ele>202.5</ele>
        <time>1970-01-01T01:26:37.000Z</time>
      </trkpt>
      <trkpt lat="41.233979" lon="1.478423">
        <ele>202.1</ele>
        <time>1970-01-01T01:26:38.000Z</time>
      </trkpt>
      <trkpt lat="41.234077" lon="1.478568">
        <ele>201.4</ele>
        <time>1970-01-01T01:26:40.000Z</time>
      </trkpt>
      <trkpt lat="41.234126" lon="1.478645">
        <ele>201.1</ele>
        <time>1970-01-01T01:26:41.000Z</time>
      </trkpt>
      <trkpt lat="41.234226" lon="1.478805">
        <ele>200.5</ele>
        <time>1970-01-01T01:26:43.000Z</time>
      </trkpt>
      <trkpt lat="41.234327" lon="1.478965">
        <ele>200</ele>
        <time>1970-01-01T01:26:45.000Z</time>
      </trkpt>
      <trkpt lat="41.234547" lon="1.479266">
        <ele>199.1</ele>
        <time>1970-01-01T01:26:49.000Z</time>
      </trkpt>
      <trkpt lat="41.234613" lon="1.479326">
        <ele>198.9</ele>
        <time>1970-01-01T01:26:50.000Z</time>
      </trkpt>
      <trkpt lat="41.234822" lon="1.479479">
        <ele>198.4</ele>
        <time>1970-01-01T01:26:53.000Z</time>
      </trkpt>
      <trkpt lat="41.235029" lon="1.47962">
        <ele>197.8</ele>
        <time>1970-01-01T01:26:56.000Z</time>
      </trkpt>
      <trkpt lat="41.235097" lon="1.479668">
        <ele>197.6</ele>
        <time>1970-01-01T01:26:57.000Z</time>
      </trkpt>
      <trkpt lat="41.235229" lon="1.479757">
        <ele>197.1</ele>
        <time>1970-01-01T01:26:59.000Z</time>
      </trkpt>
      <trkpt lat="41.235358" lon="1.479837">
        <ele>196.6</ele>
        <time>1970-01-01T01:27:01.000Z</time>
      </trkpt>
      <trkpt lat="41.235477" lon="1.479926">
        <ele>195.8</ele>
        <time>1970-01-01T01:27:03.000Z</time>
      </trkpt>
      <trkpt lat="41.23553" lon="1.479983">
        <ele>195.3</ele>
        <time>1970-01-01T01:27:04.000Z</time>
      </trkpt>
      <trkpt lat="41.235618" lon="1.480127">
        <ele>194.1</ele>
        <time>1970-01-01T01:27:06.000Z</time>
      </trkpt>
      <trkpt lat="41.23565" lon="1.480219">
        <ele>193.5</ele>
        <time>1970-01-01T01:27:07.000Z</time>
      </trkpt>
      <trkpt lat="41.235677" lon="1.480322">
        <ele>193</ele>
        <time>1970-01-01T01:27:08.000Z</time>
      </trkpt>
      <trkpt lat="41.235713" lon="1.480423">
        <ele>192.6</ele>
        <time>1970-01-01T01:27:09.000Z</time>
      </trkpt>
      <trkpt lat="41.235768" lon="1.480508">
        <ele>192.4</ele>
        <time>1970-01-01T01:27:10.000Z</time>
      </trkpt>
      <trkpt lat="41.235923" lon="1.480599">
        <ele>192.4</ele>
        <time>1970-01-01T01:27:12.000Z</time>
      </trkpt>
      <trkpt lat="41.236007" lon="1.480621">
        <ele>192.5</ele>
        <time>1970-01-01T01:27:13.000Z</time>
      </trkpt>
      <trkpt lat="41.236166" lon="1.480681">
        <ele>192.7</ele>
        <time>1970-01-01T01:27:15.000Z</time>
      </trkpt>
      <trkpt lat="41.236233" lon="1.480739">
        <ele>192.8</ele>
        <time>1970-01-01T01:27:16.000Z</time>
      </trkpt>
      <trkpt lat="41.236285" lon="1.480815">
        <ele>192.9</ele>
        <time>1970-01-01T01:27:17.000Z</time>
      </trkpt>
      <trkpt lat="41.236352" lon="1.48098">
        <ele>193</ele>
        <time>1970-01-01T01:27:19.000Z</time>
      </trkpt>
      <trkpt lat="41.236373" lon="1.481058">
        <ele>193.1</ele>
        <time>1970-01-01T01:27:20.000Z</time>
      </trkpt>
      <trkpt lat="41.236424" lon="1.481277">
        <ele>193.1</ele>
        <time>1970-01-01T01:27:23.000Z</time>
      </trkpt>
      <trkpt lat="41.236471" lon="1.481494">
        <ele>192.8</ele>
        <time>1970-01-01T01:27:26.000Z</time>
      </trkpt>
      <trkpt lat="41.23653" lon="1.48172">
        <ele>192.4</ele>
        <time>1970-01-01T01:27:29.000Z</time>
      </trkpt>
      <trkpt lat="41.236594" lon="1.481862">
        <ele>192.1</ele>
        <time>1970-01-01T01:27:31.000Z</time>
      </trkpt>
      <trkpt lat="41.236727" lon="1.482064">
        <ele>191.6</ele>
        <time>1970-01-01T01:27:34.000Z</time>
      </trkpt>
      <trkpt lat="41.236831" lon="1.48219">
        <ele>191.1</ele>
        <time>1970-01-01T01:27:36.000Z</time>
      </trkpt>
      <trkpt lat="41.237247" lon="1.482692">
        <ele>188.6</ele>
        <time>1970-01-01T01:27:44.000Z</time>
      </trkpt>
      <trkpt lat="41.2373" lon="1.482758">
        <ele>188.1</ele>
        <time>1970-01-01T01:27:45.000Z</time>
      </trkpt>
      <trkpt lat="41.237416" lon="1.482894">
        <ele>187.1</ele>
        <time>1970-01-01T01:27:47.000Z</time>
      </trkpt>
      <trkpt lat="41.237543" lon="1.483034">
        <ele>185.9</ele>
        <time>1970-01-01T01:27:49.000Z</time>
      </trkpt>
      <trkpt lat="41.237813" lon="1.483339">
        <ele>183.6</ele>
        <time>1970-01-01T01:27:53.000Z</time>
      </trkpt>
      <trkpt lat="41.237884" lon="1.483417">
        <ele>182.9</ele>
        <time>1970-01-01T01:27:54.000Z</time>
      </trkpt>
      <trkpt lat="41.237955" lon="1.483494">
        <ele>182.3</ele>
        <time>1970-01-01T01:27:55.000Z</time>
      </trkpt>
      <trkpt lat="41.238025" lon="1.48357">
        <ele>181.7</ele>
        <time>1970-01-01T01:27:56.000Z</time>
      </trkpt>
      <trkpt lat="41.238166" lon="1.483717">
        <ele>181</ele>
        <time>1970-01-01T01:27:58.000Z</time>
      </trkpt>
      <trkpt lat="41.23824" lon="1.483791">
        <ele>180.7</ele>
        <time>1970-01-01T01:27:59.000Z</time>
      </trkpt>
      <trkpt lat="41.238318" lon="1.483863">
        <ele>180.3</ele>
        <time>1970-01-01T01:28:00.000Z</time>
      </trkpt>
      <trkpt lat="41.238401" lon="1.483929">
        <ele>180</ele>
        <time>1970-01-01T01:28:01.000Z</time>
      </trkpt>
      <trkpt lat="41.238489" lon="1.483989">
        <ele>179.7</ele>
        <time>1970-01-01T01:28:02.000Z</time>
      </trkpt>
      <trkpt lat="41.238658" lon="1.484088">
        <ele>179.6</ele>
        <time>1970-01-01T01:28:04.000Z</time>
      </trkpt>
      <trkpt lat="41.238735" lon="1.484138">
        <ele>179.5</ele>
        <time>1970-01-01T01:28:05.000Z</time>
      </trkpt>
      <trkpt lat="41.238876" lon="1.484244">
        <ele>179.5</ele>
        <time>1970-01-01T01:28:07.000Z</time>
      </trkpt>
      <trkpt lat="41.238996" lon="1.484362">
        <ele>179.5</ele>
        <time>1970-01-01T01:28:09.000Z</time>
      </trkpt>
      <trkpt lat="41.239048" lon="1.484423">
        <ele>179.6</ele>
        <time>1970-01-01T01:28:10.000Z</time>
      </trkpt>
      <trkpt lat="41.239192" lon="1.484589">
        <ele>179.7</ele>
        <time>1970-01-01T01:28:13.000Z</time>
      </trkpt>
      <trkpt lat="41.239284" lon="1.484689">
        <ele>179.8</ele>
        <time>1970-01-01T01:28:15.000Z</time>
      </trkpt>
      <trkpt lat="41.239333" lon="1.484733">
        <ele>179.8</ele>
        <time>1970-01-01T01:28:16.000Z</time>
      </trkpt>
      <trkpt lat="41.239436" lon="1.484795">
        <ele>180</ele>
        <time>1970-01-01T01:28:18.000Z</time>
      </trkpt>
      <trkpt lat="41.239545" lon="1.48483">
        <ele>180.1</ele>
        <time>1970-01-01T01:28:20.000Z</time>
      </trkpt>
      <trkpt lat="41.239705" lon="1.484874">
        <ele>180.3</ele>
        <time>1970-01-01T01:28:23.000Z</time>
      </trkpt>
      <trkpt lat="41.239868" lon="1.484886">
        <ele>180.4</ele>
        <time>1970-01-01T01:28:26.000Z</time>
      </trkpt>
      <trkpt lat="41.239974" lon="1.484871">
        <ele>180.5</ele>
        <time>1970-01-01T01:28:28.000Z</time>
      </trkpt>
      <trkpt lat="41.240078" lon="1.484845">
        <ele>180.6</ele>
        <time>1970-01-01T01:28:30.000Z</time>
      </trkpt>
      <trkpt lat="41.240184" lon="1.484812">
        <ele>180.7</ele>
        <time>1970-01-01T01:28:32.000Z</time>
      </trkpt>
      <trkpt lat="41.240288" lon="1.484776">
        <ele>180.8</ele>
        <time>1970-01-01T01:28:34.000Z</time>
      </trkpt>
      <trkpt lat="41.240447" lon="1.484728">
        <ele>181</ele>
        <time>1970-01-01T01:28:37.000Z</time>
      </trkpt>
      <trkpt lat="41.240556" lon="1.484706">
        <ele>181.1</ele>
        <time>1970-01-01T01:28:39.000Z</time>
      </trkpt>
      <trkpt lat="41.240713" lon="1.484739">
        <ele>181.3</ele>
        <time>1970-01-01T01:28:42.000Z</time>
      </trkpt>
      <trkpt lat="41.240759" lon="1.484769">
        <ele>181.4</ele>
        <time>1970-01-01T01:28:43.000Z</time>
      </trkpt>
      <trkpt lat="41.240801" lon="1.484806">
        <ele>181.6</ele>
        <time>1970-01-01T01:28:44.000Z</time>
      </trkpt>
      <trkpt lat="41.240877" lon="1.484888">
        <ele>181.8</ele>
        <time>1970-01-01T01:28:46.000Z</time>
      </trkpt>
      <trkpt lat="41.240947" lon="1.484981">
        <ele>182.1</ele>
        <time>1970-01-01T01:28:48.000Z</time>
      </trkpt>
      <trkpt lat="41.241045" lon="1.485135">
        <ele>182.6</ele>
        <time>1970-01-01T01:28:51.000Z</time>
      </trkpt>
      <trkpt lat="41.241113" lon="1.485238">
        <ele>182.9</ele>
        <time>1970-01-01T01:28:53.000Z</time>
      </trkpt>
      <trkpt lat="41.24115" lon="1.485286">
        <ele>183.1</ele>
        <time>1970-01-01T01:28:54.000Z</time>
      </trkpt>
      <trkpt lat="41.241191" lon="1.485324">
        <ele>183.4</ele>
        <time>1970-01-01T01:28:55.000Z</time>
      </trkpt>
      <trkpt lat="41.241279" lon="1.485365">
        <ele>183.8</ele>
        <time>1970-01-01T01:28:57.000Z</time>
      </trkpt>
      <trkpt lat="41.241369" lon="1.485371">
        <ele>184.1</ele>
        <time>1970-01-01T01:28:59.000Z</time>
      </trkpt>
      <trkpt lat="41.241554" lon="1.485357">
        <ele>184.7</ele>
        <time>1970-01-01T01:29:03.000Z</time>
      </trkpt>
      <trkpt lat="41.241745" lon="1.485332">
        <ele>185.2</ele>
        <time>1970-01-01T01:29:07.000Z</time>
      </trkpt>
      <trkpt lat="41.241933" lon="1.485296">
        <ele>185.7</ele>
        <time>1970-01-01T01:29:11.000Z</time>
      </trkpt>
      <trkpt lat="41.242069" lon="1.485251">
        <ele>186.1</ele>
        <time>1970-01-01T01:29:14.000Z</time>
      </trkpt>
      <trkpt lat="41.242208" lon="1.485218">
        <ele>186.5</ele>
        <time>1970-01-01T01:29:17.000Z</time>
      </trkpt>
      <trkpt lat="41.242391" lon="1.485239">
        <ele>186.9</ele>
        <time>1970-01-01T01:29:21.000Z</time>
      </trkpt>
      <trkpt lat="41.242435" lon="1.485257">
        <ele>187</ele>
        <time>1970-01-01T01:29:22.000Z</time>
      </trkpt>
      <trkpt lat="41.242568" lon="1.485314">
        <ele>187.3</ele>
        <time>1970-01-01T01:29:25.000Z</time>
      </trkpt>
      <trkpt lat="41.242775" lon="1.485382">
        <ele>187.9</ele>
        <time>1970-01-01T01:29:30.000Z</time>
      </trkpt>
      <trkpt lat="41.243094" lon="1.485414">
        <ele>187.9</ele>
        <time>1970-01-01T01:29:38.000Z</time>
      </trkpt>
      <trkpt lat="41.243401" lon="1.485382">
        <ele>187.5</ele>
        <time>1970-01-01T01:29:43.000Z</time>
      </trkpt>
      <trkpt lat="41.243466" lon="1.485388">
        <ele>187.4</ele>
        <time>1970-01-01T01:29:44.000Z</time>
      </trkpt>
      <trkpt lat="41.243646" lon="1.485454">
        <ele>187.2</ele>
        <time>1970-01-01T01:29:47.000Z</time>
      </trkpt>
      <trkpt lat="41.243834" lon="1.485581">
        <ele>187.1</ele>
        <time>1970-01-01T01:29:51.000Z</time>
      </trkpt>
      <trkpt lat="41.243873" lon="1.485613">
        <ele>187</ele>
        <time>1970-01-01T01:29:52.000Z</time>
      </trkpt>
      <trkpt lat="41.24402" lon="1.485727">
        <ele>186.8</ele>
        <time>1970-01-01T01:29:56.000Z</time>
      </trkpt>
      <trkpt lat="41.244082" lon="1.485783">
        <ele>186.6</ele>
        <time>1970-01-01T01:29:58.000Z</time>
      </trkpt>
      <trkpt lat="41.244143" lon="1.48584">
        <ele>186.3</ele>
        <time>1970-01-01T01:30:00.000Z</time>
      </trkpt>
      <trkpt lat="41.244209" lon="1.485894">
        <ele>185.9</ele>
        <time>1970-01-01T01:30:02.000Z</time>
      </trkpt>
      <trkpt lat="41.244244" lon="1.485928">
        <ele>185.6</ele>
        <time>1970-01-01T01:30:03.000Z</time>
      </trkpt>
      <trkpt lat="41.244312" lon="1.486033">
        <ele>185</ele>
        <time>1970-01-01T01:30:05.000Z</time>
      </trkpt>
      <trkpt lat="41.244396" lon="1.486228">
        <ele>184</ele>
        <time>1970-01-01T01:30:08.000Z</time>
      </trkpt>
      <trkpt lat="41.24446" lon="1.486369">
        <ele>183.6</ele>
        <time>1970-01-01T01:30:10.000Z</time>
      </trkpt>
      <trkpt lat="41.244494" lon="1.486446">
        <ele>183.5</ele>
        <time>1970-01-01T01:30:11.000Z</time>
      </trkpt>
      <trkpt lat="41.244528" lon="1.486529">
        <ele>183.1</ele>
        <time>1970-01-01T01:30:12.000Z</time>
      </trkpt>
      <trkpt lat="41.244561" lon="1.486617">
        <ele>182.7</ele>
        <time>1970-01-01T01:30:13.000Z</time>
      </trkpt>
      <trkpt lat="41.244593" lon="1.486709">
        <ele>182.1</ele>
        <time>1970-01-01T01:30:14.000Z</time>
      </trkpt>
      <trkpt lat="41.244617" lon="1.486809">
        <ele>181.5</ele>
        <time>1970-01-01T01:30:15.000Z</time>
      </trkpt>
      <trkpt lat="41.244629" lon="1.486913">
        <ele>180.7</ele>
        <time>1970-01-01T01:30:16.000Z</time>
      </trkpt>
      <trkpt lat="41.244627" lon="1.48702">
        <ele>180</ele>
        <time>1970-01-01T01:30:17.000Z</time>
      </trkpt>
      <trkpt lat="41.244618" lon="1.487133">
        <ele>179.3</ele>
        <time>1970-01-01T01:30:18.000Z</time>
      </trkpt>
      <trkpt lat="41.244601" lon="1.487368">
        <ele>177.8</ele>
        <time>1970-01-01T01:30:20.000Z</time>
      </trkpt>
      <trkpt lat="41.244617" lon="1.487751">
        <ele>175.2</ele>
        <time>1970-01-01T01:30:23.000Z</time>
      </trkpt>
      <trkpt lat="41.244641" lon="1.487878">
        <ele>174.3</ele>
        <time>1970-01-01T01:30:24.000Z</time>
      </trkpt>
      <trkpt lat="41.24468" lon="1.487999">
        <ele>173.5</ele>
        <time>1970-01-01T01:30:25.000Z</time>
      </trkpt>
      <trkpt lat="41.244789" lon="1.488232">
        <ele>171.9</ele>
        <time>1970-01-01T01:30:27.000Z</time>
      </trkpt>
      <trkpt lat="41.244911" lon="1.488472">
        <ele>170.9</ele>
        <time>1970-01-01T01:30:29.000Z</time>
      </trkpt>
      <trkpt lat="41.245025" lon="1.48873">
        <ele>169.5</ele>
        <time>1970-01-01T01:30:31.000Z</time>
      </trkpt>
      <trkpt lat="41.245078" lon="1.488863">
        <ele>168.8</ele>
        <time>1970-01-01T01:30:32.000Z</time>
      </trkpt>
      <trkpt lat="41.245171" lon="1.489131">
        <ele>167.4</ele>
        <time>1970-01-01T01:30:34.000Z</time>
      </trkpt>
      <trkpt lat="41.245255" lon="1.489398">
        <ele>166.1</ele>
        <time>1970-01-01T01:30:36.000Z</time>
      </trkpt>
      <trkpt lat="41.245326" lon="1.489636">
        <ele>165</ele>
        <time>1970-01-01T01:30:38.000Z</time>
      </trkpt>
      <trkpt lat="41.245355" lon="1.489731">
        <ele>164.6</ele>
        <time>1970-01-01T01:30:39.000Z</time>
      </trkpt>
      <trkpt lat="41.245387" lon="1.48981">
        <ele>164.4</ele>
        <time>1970-01-01T01:30:40.000Z</time>
      </trkpt>
      <trkpt lat="41.245421" lon="1.489889">
        <ele>164.1</ele>
        <time>1970-01-01T01:30:41.000Z</time>
      </trkpt>
      <trkpt lat="41.245461" lon="1.490078">
        <ele>163.6</ele>
        <time>1970-01-01T01:30:43.000Z</time>
      </trkpt>
      <trkpt lat="41.245475" lon="1.490188">
        <ele>163.1</ele>
        <time>1970-01-01T01:30:44.000Z</time>
      </trkpt>
      <trkpt lat="41.245481" lon="1.490308">
        <ele>162.5</ele>
        <time>1970-01-01T01:30:45.000Z</time>
      </trkpt>
      <trkpt lat="41.245468" lon="1.490557">
        <ele>161.3</ele>
        <time>1970-01-01T01:30:47.000Z</time>
      </trkpt>
      <trkpt lat="41.245441" lon="1.490816">
        <ele>160.1</ele>
        <time>1970-01-01T01:30:49.000Z</time>
      </trkpt>
      <trkpt lat="41.245393" lon="1.491362">
        <ele>157.5</ele>
        <time>1970-01-01T01:30:53.000Z</time>
      </trkpt>
      <trkpt lat="41.245388" lon="1.491502">
        <ele>156.9</ele>
        <time>1970-01-01T01:30:54.000Z</time>
      </trkpt>
      <trkpt lat="41.245386" lon="1.491639">
        <ele>156.6</ele>
        <time>1970-01-01T01:30:55.000Z</time>
      </trkpt>
      <trkpt lat="41.245383" lon="1.492002">
        <ele>155.9</ele>
        <time>1970-01-01T01:30:58.000Z</time>
      </trkpt>
      <trkpt lat="41.245387" lon="1.492121">
        <ele>155.2</ele>
        <time>1970-01-01T01:30:59.000Z</time>
      </trkpt>
      <trkpt lat="41.245414" lon="1.492237">
        <ele>155</ele>
        <time>1970-01-01T01:31:00.000Z</time>
      </trkpt>
      <trkpt lat="41.245462" lon="1.492345">
        <ele>154.1</ele>
        <time>1970-01-01T01:31:01.000Z</time>
      </trkpt>
      <trkpt lat="41.245519" lon="1.492446">
        <ele>153.6</ele>
        <time>1970-01-01T01:31:02.000Z</time>
      </trkpt>
      <trkpt lat="41.24557" lon="1.492552">
        <ele>153</ele>
        <time>1970-01-01T01:31:03.000Z</time>
      </trkpt>
      <trkpt lat="41.245612" lon="1.492665">
        <ele>152.8</ele>
        <time>1970-01-01T01:31:04.000Z</time>
      </trkpt>
      <trkpt lat="41.245648" lon="1.492781">
        <ele>152.5</ele>
        <time>1970-01-01T01:31:05.000Z</time>
      </trkpt>
      <trkpt lat="41.245682" lon="1.492898">
        <ele>152.3</ele>
        <time>1970-01-01T01:31:06.000Z</time>
      </trkpt>
      <trkpt lat="41.245745" lon="1.493122">
        <ele>151.9</ele>
        <time>1970-01-01T01:31:08.000Z</time>
      </trkpt>
      <trkpt lat="41.245813" lon="1.493333">
        <ele>151.6</ele>
        <time>1970-01-01T01:31:10.000Z</time>
      </trkpt>
      <trkpt lat="41.245853" lon="1.493433">
        <ele>151.5</ele>
        <time>1970-01-01T01:31:11.000Z</time>
      </trkpt>
      <trkpt lat="41.245999" lon="1.493696">
        <ele>151.4</ele>
        <time>1970-01-01T01:31:14.000Z</time>
      </trkpt>
      <trkpt lat="41.246055" lon="1.493771">
        <ele>151.3</ele>
        <time>1970-01-01T01:31:15.000Z</time>
      </trkpt>
      <trkpt lat="41.246239" lon="1.493959">
        <ele>151</ele>
        <time>1970-01-01T01:31:18.000Z</time>
      </trkpt>
      <trkpt lat="41.246363" lon="1.494082">
        <ele>150.6</ele>
        <time>1970-01-01T01:31:20.000Z</time>
      </trkpt>
      <trkpt lat="41.24655" lon="1.494267">
        <ele>149.8</ele>
        <time>1970-01-01T01:31:23.000Z</time>
      </trkpt>
      <trkpt lat="41.246728" lon="1.49449">
        <ele>148.8</ele>
        <time>1970-01-01T01:31:26.000Z</time>
      </trkpt>
      <trkpt lat="41.246883" lon="1.494918">
        <ele>147.1</ele>
        <time>1970-01-01T01:31:30.000Z</time>
      </trkpt>
      <trkpt lat="41.246932" lon="1.495289">
        <ele>145.4</ele>
        <time>1970-01-01T01:31:33.000Z</time>
      </trkpt>
      <trkpt lat="41.246952" lon="1.495541">
        <ele>144.3</ele>
        <time>1970-01-01T01:31:35.000Z</time>
      </trkpt>
      <trkpt lat="41.246962" lon="1.495667">
        <ele>143.8</ele>
        <time>1970-01-01T01:31:36.000Z</time>
      </trkpt>
      <trkpt lat="41.246973" lon="1.495793">
        <ele>143.2</ele>
        <time>1970-01-01T01:31:37.000Z</time>
      </trkpt>
      <trkpt lat="41.246998" lon="1.496043">
        <ele>142.1</ele>
        <time>1970-01-01T01:31:39.000Z</time>
      </trkpt>
      <trkpt lat="41.247013" lon="1.496172">
        <ele>141.6</ele>
        <time>1970-01-01T01:31:40.000Z</time>
      </trkpt>
      <trkpt lat="41.247045" lon="1.496438">
        <ele>140.3</ele>
        <time>1970-01-01T01:31:42.000Z</time>
      </trkpt>
      <trkpt lat="41.247083" lon="1.496711">
        <ele>139</ele>
        <time>1970-01-01T01:31:44.000Z</time>
      </trkpt>
      <trkpt lat="41.247151" lon="1.497122">
        <ele>137.2</ele>
        <time>1970-01-01T01:31:47.000Z</time>
      </trkpt>
      <trkpt lat="41.247197" lon="1.497394">
        <ele>136.1</ele>
        <time>1970-01-01T01:31:49.000Z</time>
      </trkpt>
      <trkpt lat="41.247219" lon="1.49753">
        <ele>135.5</ele>
        <time>1970-01-01T01:31:50.000Z</time>
      </trkpt>
      <trkpt lat="41.24726" lon="1.497806">
        <ele>134.3</ele>
        <time>1970-01-01T01:31:52.000Z</time>
      </trkpt>
      <trkpt lat="41.247286" lon="1.498087">
        <ele>133.1</ele>
        <time>1970-01-01T01:31:54.000Z</time>
      </trkpt>
      <trkpt lat="41.247289" lon="1.498366">
        <ele>132.1</ele>
        <time>1970-01-01T01:31:56.000Z</time>
      </trkpt>
      <trkpt lat="41.247276" lon="1.49864">
        <ele>131.2</ele>
        <time>1970-01-01T01:31:58.000Z</time>
      </trkpt>
      <trkpt lat="41.247258" lon="1.49891">
        <ele>130.4</ele>
        <time>1970-01-01T01:32:00.000Z</time>
      </trkpt>
      <trkpt lat="41.247242" lon="1.499174">
        <ele>129.7</ele>
        <time>1970-01-01T01:32:02.000Z</time>
      </trkpt>
      <trkpt lat="41.247235" lon="1.499303">
        <ele>129.4</ele>
        <time>1970-01-01T01:32:03.000Z</time>
      </trkpt>
      <trkpt lat="41.247226" lon="1.49943">
        <ele>129.2</ele>
        <time>1970-01-01T01:32:04.000Z</time>
      </trkpt>
      <trkpt lat="41.247214" lon="1.499554">
        <ele>128.9</ele>
        <time>1970-01-01T01:32:05.000Z</time>
      </trkpt>
      <trkpt lat="41.247191" lon="1.499799">
        <ele>128.3</ele>
        <time>1970-01-01T01:32:07.000Z</time>
      </trkpt>
      <trkpt lat="41.247177" lon="1.500047">
        <ele>127.8</ele>
        <time>1970-01-01T01:32:09.000Z</time>
      </trkpt>
      <trkpt lat="41.247176" lon="1.50017">
        <ele>127.6</ele>
        <time>1970-01-01T01:32:10.000Z</time>
      </trkpt>
      <trkpt lat="41.24718" lon="1.50041">
        <ele>127.1</ele>
        <time>1970-01-01T01:32:12.000Z</time>
      </trkpt>
      <trkpt lat="41.247176" lon="1.500527">
        <ele>126.9</ele>
        <time>1970-01-01T01:32:13.000Z</time>
      </trkpt>
      <trkpt lat="41.247166" lon="1.500643">
        <ele>126.7</ele>
        <time>1970-01-01T01:32:14.000Z</time>
      </trkpt>
      <trkpt lat="41.247151" lon="1.500756">
        <ele>126.5</ele>
        <time>1970-01-01T01:32:15.000Z</time>
      </trkpt>
      <trkpt lat="41.247064" lon="1.501076">
        <ele>125.9</ele>
        <time>1970-01-01T01:32:18.000Z</time>
      </trkpt>
      <trkpt lat="41.246956" lon="1.501387">
        <ele>125.3</ele>
        <time>1970-01-01T01:32:21.000Z</time>
      </trkpt>
      <trkpt lat="41.246926" lon="1.501497">
        <ele>125</ele>
        <time>1970-01-01T01:32:22.000Z</time>
      </trkpt>
      <trkpt lat="41.246894" lon="1.50173">
        <ele>124.6</ele>
        <time>1970-01-01T01:32:24.000Z</time>
      </trkpt>
      <trkpt lat="41.246891" lon="1.501848">
        <ele>124.4</ele>
        <time>1970-01-01T01:32:25.000Z</time>
      </trkpt>
      <trkpt lat="41.246921" lon="1.502317">
        <ele>123.7</ele>
        <time>1970-01-01T01:32:29.000Z</time>
      </trkpt>
      <trkpt lat="41.246944" lon="1.502543">
        <ele>123.3</ele>
        <time>1970-01-01T01:32:31.000Z</time>
      </trkpt>
      <trkpt lat="41.24698" lon="1.502977">
        <ele>122.4</ele>
        <time>1970-01-01T01:32:35.000Z</time>
      </trkpt>
      <trkpt lat="41.24698" lon="1.503085">
        <ele>122.2</ele>
        <time>1970-01-01T01:32:36.000Z</time>
      </trkpt>
      <trkpt lat="41.246935" lon="1.503396">
        <ele>121.5</ele>
        <time>1970-01-01T01:32:39.000Z</time>
      </trkpt>
      <trkpt lat="41.246911" lon="1.503495">
        <ele>121.2</ele>
        <time>1970-01-01T01:32:40.000Z</time>
      </trkpt>
      <trkpt lat="41.246885" lon="1.503594">
        <ele>121</ele>
        <time>1970-01-01T01:32:41.000Z</time>
      </trkpt>
      <trkpt lat="41.246834" lon="1.503902">
        <ele>120</ele>
        <time>1970-01-01T01:32:44.000Z</time>
      </trkpt>
      <trkpt lat="41.246829" lon="1.504008">
        <ele>119.8</ele>
        <time>1970-01-01T01:32:45.000Z</time>
      </trkpt>
      <trkpt lat="41.246876" lon="1.504432">
        <ele>119.1</ele>
        <time>1970-01-01T01:32:49.000Z</time>
      </trkpt>
      <trkpt lat="41.246898" lon="1.504537">
        <ele>118.9</ele>
        <time>1970-01-01T01:32:50.000Z</time>
      </trkpt>
      <trkpt lat="41.247047" lon="1.50514">
        <ele>117.5</ele>
        <time>1970-01-01T01:32:56.000Z</time>
      </trkpt>
      <trkpt lat="41.247067" lon="1.505241">
        <ele>117.3</ele>
        <time>1970-01-01T01:32:57.000Z</time>
      </trkpt>
      <trkpt lat="41.24712" lon="1.505554">
        <ele>116.7</ele>
        <time>1970-01-01T01:33:00.000Z</time>
      </trkpt>
      <trkpt lat="41.247135" lon="1.505661">
        <ele>116.5</ele>
        <time>1970-01-01T01:33:01.000Z</time>
      </trkpt>
      <trkpt lat="41.247161" lon="1.505876">
        <ele>116.1</ele>
        <time>1970-01-01T01:33:03.000Z</time>
      </trkpt>
      <trkpt lat="41.247176" lon="1.505982">
        <ele>115.8</ele>
        <time>1970-01-01T01:33:04.000Z</time>
      </trkpt>
      <trkpt lat="41.24722" lon="1.506298">
        <ele>115.2</ele>
        <time>1970-01-01T01:33:07.000Z</time>
      </trkpt>
      <trkpt lat="41.247252" lon="1.506505">
        <ele>114.9</ele>
        <time>1970-01-01T01:33:09.000Z</time>
      </trkpt>
      <trkpt lat="41.247273" lon="1.506606">
        <ele>114.7</ele>
        <time>1970-01-01T01:33:10.000Z</time>
      </trkpt>
      <trkpt lat="41.247293" lon="1.506704">
        <ele>114.6</ele>
        <time>1970-01-01T01:33:11.000Z</time>
      </trkpt>
      <trkpt lat="41.247318" lon="1.5068">
        <ele>114.4</ele>
        <time>1970-01-01T01:33:12.000Z</time>
      </trkpt>
      <trkpt lat="41.247416" lon="1.507071">
        <ele>113.7</ele>
        <time>1970-01-01T01:33:15.000Z</time>
      </trkpt>
      <trkpt lat="41.247482" lon="1.507247">
        <ele>113.3</ele>
        <time>1970-01-01T01:33:17.000Z</time>
      </trkpt>
      <trkpt lat="41.247611" lon="1.507598">
        <ele>112.6</ele>
        <time>1970-01-01T01:33:21.000Z</time>
      </trkpt>
      <trkpt lat="41.247656" lon="1.507777">
        <ele>112.3</ele>
        <time>1970-01-01T01:33:23.000Z</time>
      </trkpt>
      <trkpt lat="41.247775" lon="1.508238">
        <ele>111.2</ele>
        <time>1970-01-01T01:33:28.000Z</time>
      </trkpt>
      <trkpt lat="41.247854" lon="1.508511">
        <ele>110.7</ele>
        <time>1970-01-01T01:33:31.000Z</time>
      </trkpt>
      <trkpt lat="41.247907" lon="1.508697">
        <ele>110.3</ele>
        <time>1970-01-01T01:33:33.000Z</time>
      </trkpt>
      <trkpt lat="41.248074" lon="1.509155">
        <ele>109.3</ele>
        <time>1970-01-01T01:33:38.000Z</time>
      </trkpt>
      <trkpt lat="41.248109" lon="1.509244">
        <ele>109.1</ele>
        <time>1970-01-01T01:33:39.000Z</time>
      </trkpt>
      <trkpt lat="41.24818" lon="1.509421">
        <ele>108.8</ele>
        <time>1970-01-01T01:33:41.000Z</time>
      </trkpt>
      <trkpt lat="41.248215" lon="1.509509">
        <ele>108.6</ele>
        <time>1970-01-01T01:33:42.000Z</time>
      </trkpt>
      <trkpt lat="41.248287" lon="1.509683">
        <ele>108.3</ele>
        <time>1970-01-01T01:33:44.000Z</time>
      </trkpt>
      <trkpt lat="41.248324" lon="1.50977">
        <ele>108.1</ele>
        <time>1970-01-01T01:33:45.000Z</time>
      </trkpt>
      <trkpt lat="41.248438" lon="1.51012">
        <ele>107.4</ele>
        <time>1970-01-01T01:33:49.000Z</time>
      </trkpt>
      <trkpt lat="41.248445" lon="1.510213">
        <ele>107.1</ele>
        <time>1970-01-01T01:33:50.000Z</time>
      </trkpt>
      <trkpt lat="41.248455" lon="1.510414">
        <ele>106.1</ele>
        <time>1970-01-01T01:33:52.000Z</time>
      </trkpt>
      <trkpt lat="41.248504" lon="1.510609">
        <ele>105</ele>
        <time>1970-01-01T01:33:54.000Z</time>
      </trkpt>
      <trkpt lat="41.248529" lon="1.510701">
        <ele>104.5</ele>
        <time>1970-01-01T01:33:55.000Z</time>
      </trkpt>
      <trkpt lat="41.248608" lon="1.511038">
        <ele>102.9</ele>
        <time>1970-01-01T01:33:58.000Z</time>
      </trkpt>
      <trkpt lat="41.248638" lon="1.511159">
        <ele>102.6</ele>
        <time>1970-01-01T01:33:59.000Z</time>
      </trkpt>
      <trkpt lat="41.248691" lon="1.511403">
        <ele>102.2</ele>
        <time>1970-01-01T01:34:01.000Z</time>
      </trkpt>
      <trkpt lat="41.248714" lon="1.511525">
        <ele>102.1</ele>
        <time>1970-01-01T01:34:02.000Z</time>
      </trkpt>
      <trkpt lat="41.248749" lon="1.511767">
        <ele>102</ele>
        <time>1970-01-01T01:34:04.000Z</time>
      </trkpt>
      <trkpt lat="41.248757" lon="1.511886">
        <ele>102</ele>
        <time>1970-01-01T01:34:05.000Z</time>
      </trkpt>
      <trkpt lat="41.248759" lon="1.512">
        <ele>102</ele>
        <time>1970-01-01T01:34:06.000Z</time>
      </trkpt>
      <trkpt lat="41.248754" lon="1.512109">
        <ele>102.1</ele>
        <time>1970-01-01T01:34:07.000Z</time>
      </trkpt>
      <trkpt lat="41.248745" lon="1.512207">
        <ele>102.1</ele>
        <time>1970-01-01T01:34:08.000Z</time>
      </trkpt>
      <trkpt lat="41.248721" lon="1.512543">
        <ele>102.2</ele>
        <time>1970-01-01T01:34:12.000Z</time>
      </trkpt>
      <trkpt lat="41.248714" lon="1.512694">
        <ele>102.4</ele>
        <time>1970-01-01T01:34:14.000Z</time>
      </trkpt>
      <trkpt lat="41.248713" lon="1.512773">
        <ele>102.4</ele>
        <time>1970-01-01T01:34:15.000Z</time>
      </trkpt>
      <trkpt lat="41.248707" lon="1.512926">
        <ele>102.5</ele>
        <time>1970-01-01T01:34:17.000Z</time>
      </trkpt>
      <trkpt lat="41.248697" lon="1.513132">
        <ele>102.5</ele>
        <time>1970-01-01T01:34:20.000Z</time>
      </trkpt>
      <trkpt lat="41.248689" lon="1.513198">
        <ele>102.5</ele>
        <time>1970-01-01T01:34:21.000Z</time>
      </trkpt>
      <trkpt lat="41.248583" lon="1.51371">
        <ele>102.2</ele>
        <time>1970-01-01T01:34:28.000Z</time>
      </trkpt>
      <trkpt lat="41.248532" lon="1.513868">
        <ele>102.1</ele>
        <time>1970-01-01T01:34:30.000Z</time>
      </trkpt>
      <trkpt lat="41.248415" lon="1.514073">
        <ele>102</ele>
        <time>1970-01-01T01:34:33.000Z</time>
      </trkpt>
      <trkpt lat="41.248318" lon="1.514191">
        <ele>102</ele>
        <time>1970-01-01T01:34:35.000Z</time>
      </trkpt>
      <trkpt lat="41.248121" lon="1.514427">
        <ele>101.7</ele>
        <time>1970-01-01T01:34:39.000Z</time>
      </trkpt>
      <trkpt lat="41.24807" lon="1.514483">
        <ele>101.6</ele>
        <time>1970-01-01T01:34:40.000Z</time>
      </trkpt>
      <trkpt lat="41.247966" lon="1.514594">
        <ele>101.4</ele>
        <time>1970-01-01T01:34:42.000Z</time>
      </trkpt>
      <trkpt lat="41.247648" lon="1.514925">
        <ele>101</ele>
        <time>1970-01-01T01:34:48.000Z</time>
      </trkpt>
      <trkpt lat="41.24743" lon="1.51514">
        <ele>100.8</ele>
        <time>1970-01-01T01:34:52.000Z</time>
      </trkpt>
      <trkpt lat="41.247375" lon="1.515192">
        <ele>100.7</ele>
        <time>1970-01-01T01:34:53.000Z</time>
      </trkpt>
      <trkpt lat="41.24727" lon="1.515304">
        <ele>100.6</ele>
        <time>1970-01-01T01:34:55.000Z</time>
      </trkpt>
      <trkpt lat="41.247063" lon="1.515515">
        <ele>100.6</ele>
        <time>1970-01-01T01:34:59.000Z</time>
      </trkpt>
      <trkpt lat="41.24701" lon="1.515562">
        <ele>100.6</ele>
        <time>1970-01-01T01:35:00.000Z</time>
      </trkpt>
      <trkpt lat="41.246954" lon="1.515604">
        <ele>100.5</ele>
        <time>1970-01-01T01:35:01.000Z</time>
      </trkpt>
      <trkpt lat="41.246895" lon="1.515639">
        <ele>100.5</ele>
        <time>1970-01-01T01:35:02.000Z</time>
      </trkpt>
      <trkpt lat="41.246714" lon="1.515673">
        <ele>100.5</ele>
        <time>1970-01-01T01:35:05.000Z</time>
      </trkpt>
      <trkpt lat="41.246653" lon="1.515675">
        <ele>100.5</ele>
        <time>1970-01-01T01:35:06.000Z</time>
      </trkpt>
      <trkpt lat="41.246236" lon="1.515752">
        <ele>100.4</ele>
        <time>1970-01-01T01:35:13.000Z</time>
      </trkpt>
      <trkpt lat="41.246132" lon="1.515801">
        <ele>100.3</ele>
        <time>1970-01-01T01:35:15.000Z</time>
      </trkpt>
      <trkpt lat="41.245984" lon="1.515919">
        <ele>100.3</ele>
        <time>1970-01-01T01:35:18.000Z</time>
      </trkpt>
      <trkpt lat="41.245846" lon="1.516158">
        <ele>100.3</ele>
        <time>1970-01-01T01:35:22.000Z</time>
      </trkpt>
      <trkpt lat="41.245819" lon="1.516227">
        <ele>100.3</ele>
        <time>1970-01-01T01:35:23.000Z</time>
      </trkpt>
      <trkpt lat="41.245626" lon="1.516699">
        <ele>99.9</ele>
        <time>1970-01-01T01:35:30.000Z</time>
      </trkpt>
      <trkpt lat="41.2454" lon="1.517203">
        <ele>99.4</ele>
        <time>1970-01-01T01:35:38.000Z</time>
      </trkpt>
      <trkpt lat="41.245344" lon="1.517555">
        <ele>99.1</ele>
        <time>1970-01-01T01:35:43.000Z</time>
      </trkpt>
      <trkpt lat="41.24522" lon="1.518083">
        <ele>98.7</ele>
        <time>1970-01-01T01:35:50.000Z</time>
      </trkpt>
      <trkpt lat="41.24498" lon="1.518718">
        <ele>98</ele>
        <time>1970-01-01T01:35:59.000Z</time>
      </trkpt>
      <trkpt lat="41.244891" lon="1.518933">
        <ele>97.7</ele>
        <time>1970-01-01T01:36:02.000Z</time>
      </trkpt>
      <trkpt lat="41.244778" lon="1.519142">
        <ele>97.5</ele>
        <time>1970-01-01T01:36:05.000Z</time>
      </trkpt>
      <trkpt lat="41.244738" lon="1.519211">
        <ele>97.3</ele>
        <time>1970-01-01T01:36:06.000Z</time>
      </trkpt>
      <trkpt lat="41.244449" lon="1.519674">
        <ele>96.4</ele>
        <time>1970-01-01T01:36:13.000Z</time>
      </trkpt>
      <trkpt lat="41.244379" lon="1.519798">
        <ele>96.1</ele>
        <time>1970-01-01T01:36:15.000Z</time>
      </trkpt>
      <trkpt lat="41.244253" lon="1.519969">
        <ele>95.8</ele>
        <time>1970-01-01T01:36:18.000Z</time>
      </trkpt>
      <trkpt lat="41.244218" lon="1.520029">
        <ele>95.7</ele>
        <time>1970-01-01T01:36:19.000Z</time>
      </trkpt>
      <trkpt lat="41.244188" lon="1.520078">
        <ele>95.6</ele>
        <time>1970-01-01T01:36:20.000Z</time>
      </trkpt>
      <trkpt lat="41.244159" lon="1.520113">
        <ele>95.6</ele>
        <time>1970-01-01T01:36:21.000Z</time>
      </trkpt>
      <trkpt lat="41.244126" lon="1.520142">
        <ele>95.5</ele>
        <time>1970-01-01T01:36:22.000Z</time>
      </trkpt>
      <trkpt lat="41.244051" lon="1.52021">
        <ele>95.3</ele>
        <time>1970-01-01T01:36:24.000Z</time>
      </trkpt>
      <trkpt lat="41.243961" lon="1.520276">
        <ele>95.1</ele>
        <time>1970-01-01T01:36:26.000Z</time>
      </trkpt>
      <trkpt lat="41.243914" lon="1.520309">
        <ele>95</ele>
        <time>1970-01-01T01:36:27.000Z</time>
      </trkpt>
      <trkpt lat="41.243688" lon="1.52049">
        <ele>94.2</ele>
        <time>1970-01-01T01:36:32.000Z</time>
      </trkpt>
      <trkpt lat="41.243551" lon="1.520602">
        <ele>93.7</ele>
        <time>1970-01-01T01:36:35.000Z</time>
      </trkpt>
      <trkpt lat="41.243161" lon="1.520897">
        <ele>92.2</ele>
        <time>1970-01-01T01:36:42.000Z</time>
      </trkpt>
      <trkpt lat="41.2431" lon="1.520943">
        <ele>92.1</ele>
        <time>1970-01-01T01:36:43.000Z</time>
      </trkpt>
      <trkpt lat="41.24304" lon="1.521">
        <ele>91.7</ele>
        <time>1970-01-01T01:36:44.000Z</time>
      </trkpt>
      <trkpt lat="41.242933" lon="1.52115">
        <ele>91.3</ele>
        <time>1970-01-01T01:36:46.000Z</time>
      </trkpt>
      <trkpt lat="41.242828" lon="1.521316">
        <ele>91.1</ele>
        <time>1970-01-01T01:36:48.000Z</time>
      </trkpt>
      <trkpt lat="41.242723" lon="1.521474">
        <ele>91</ele>
        <time>1970-01-01T01:36:50.000Z</time>
      </trkpt>
      <trkpt lat="41.242557" lon="1.521682">
        <ele>90.7</ele>
        <time>1970-01-01T01:36:53.000Z</time>
      </trkpt>
      <trkpt lat="41.242499" lon="1.521737">
        <ele>90.6</ele>
        <time>1970-01-01T01:36:54.000Z</time>
      </trkpt>
      <trkpt lat="41.242313" lon="1.52186">
        <ele>90.3</ele>
        <time>1970-01-01T01:36:57.000Z</time>
      </trkpt>
      <trkpt lat="41.242135" lon="1.521942">
        <ele>90</ele>
        <time>1970-01-01T01:37:00.000Z</time>
      </trkpt>
      <trkpt lat="41.242029" lon="1.521995">
        <ele>89.7</ele>
        <time>1970-01-01T01:37:02.000Z</time>
      </trkpt>
      <trkpt lat="41.241925" lon="1.522062">
        <ele>89.4</ele>
        <time>1970-01-01T01:37:04.000Z</time>
      </trkpt>
      <trkpt lat="41.241837" lon="1.522089">
        <ele>89.1</ele>
        <time>1970-01-01T01:37:06.000Z</time>
      </trkpt>
      <trkpt lat="41.241732" lon="1.522206">
        <ele>88.8</ele>
        <time>1970-01-01T01:37:09.000Z</time>
      </trkpt>
      <trkpt lat="41.241694" lon="1.522262">
        <ele>88.6</ele>
        <time>1970-01-01T01:37:10.000Z</time>
      </trkpt>
      <trkpt lat="41.241602" lon="1.522364">
        <ele>88.3</ele>
        <time>1970-01-01T01:37:12.000Z</time>
      </trkpt>
      <trkpt lat="41.241553" lon="1.522412">
        <ele>88.2</ele>
        <time>1970-01-01T01:37:13.000Z</time>
      </trkpt>
      <trkpt lat="41.241306" lon="1.522644">
        <ele>87.8</ele>
        <time>1970-01-01T01:37:18.000Z</time>
      </trkpt>
      <trkpt lat="41.241237" lon="1.522757">
        <ele>87.8</ele>
        <time>1970-01-01T01:37:20.000Z</time>
      </trkpt>
      <trkpt lat="41.241195" lon="1.522812">
        <ele>87.8</ele>
        <time>1970-01-01T01:37:21.000Z</time>
      </trkpt>
      <trkpt lat="41.241094" lon="1.522901">
        <ele>87.8</ele>
        <time>1970-01-01T01:37:23.000Z</time>
      </trkpt>
      <trkpt lat="41.241042" lon="1.522947">
        <ele>87.8</ele>
        <time>1970-01-01T01:37:24.000Z</time>
      </trkpt>
      <trkpt lat="41.240944" lon="1.523045">
        <ele>87.8</ele>
        <time>1970-01-01T01:37:26.000Z</time>
      </trkpt>
      <trkpt lat="41.240806" lon="1.523191">
        <ele>87.8</ele>
        <time>1970-01-01T01:37:29.000Z</time>
      </trkpt>
      <trkpt lat="41.240765" lon="1.523246">
        <ele>87.9</ele>
        <time>1970-01-01T01:37:30.000Z</time>
      </trkpt>
      <trkpt lat="41.240722" lon="1.5233">
        <ele>87.9</ele>
        <time>1970-01-01T01:37:31.000Z</time>
      </trkpt>
      <trkpt lat="41.240492" lon="1.523527">
        <ele>88</ele>
        <time>1970-01-01T01:37:36.000Z</time>
      </trkpt>
      <trkpt lat="41.240276" lon="1.523605">
        <ele>88</ele>
        <time>1970-01-01T01:37:40.000Z</time>
      </trkpt>
      <trkpt lat="41.24017" lon="1.523641">
        <ele>88</ele>
        <time>1970-01-01T01:37:42.000Z</time>
      </trkpt>
      <trkpt lat="41.240074" lon="1.52371">
        <ele>88</ele>
        <time>1970-01-01T01:37:44.000Z</time>
      </trkpt>
      <trkpt lat="41.240029" lon="1.523754">
        <ele>88</ele>
        <time>1970-01-01T01:37:45.000Z</time>
      </trkpt>
      <trkpt lat="41.239988" lon="1.523801">
        <ele>88</ele>
        <time>1970-01-01T01:37:46.000Z</time>
      </trkpt>
      <trkpt lat="41.239909" lon="1.523902">
        <ele>88</ele>
        <time>1970-01-01T01:37:48.000Z</time>
      </trkpt>
      <trkpt lat="41.239762" lon="1.524116">
        <ele>87.9</ele>
        <time>1970-01-01T01:37:52.000Z</time>
      </trkpt>
      <trkpt lat="41.239717" lon="1.524165">
        <ele>87.8</ele>
        <time>1970-01-01T01:37:53.000Z</time>
      </trkpt>
      <trkpt lat="41.239554" lon="1.524285">
        <ele>87.8</ele>
        <time>1970-01-01T01:37:56.000Z</time>
      </trkpt>
      <trkpt lat="41.239497" lon="1.524313">
        <ele>87.8</ele>
        <time>1970-01-01T01:37:57.000Z</time>
      </trkpt>
      <trkpt lat="41.239396" lon="1.524336">
        <ele>88</ele>
        <time>1970-01-01T01:37:59.000Z</time>
      </trkpt>
      <trkpt lat="41.239208" lon="1.524374">
        <ele>88.2</ele>
        <time>1970-01-01T01:38:03.000Z</time>
      </trkpt>
      <trkpt lat="41.239116" lon="1.524384">
        <ele>88.3</ele>
        <time>1970-01-01T01:38:05.000Z</time>
      </trkpt>
      <trkpt lat="41.238878" lon="1.524405">
        <ele>88</ele>
        <time>1970-01-01T01:38:10.000Z</time>
      </trkpt>
      <trkpt lat="41.23877" lon="1.524434">
        <ele>87.8</ele>
        <time>1970-01-01T01:38:12.000Z</time>
      </trkpt>
      <trkpt lat="41.238657" lon="1.524461">
        <ele>87.7</ele>
        <time>1970-01-01T01:38:14.000Z</time>
      </trkpt>
      <trkpt lat="41.23849" lon="1.524465">
        <ele>87.6</ele>
        <time>1970-01-01T01:38:17.000Z</time>
      </trkpt>
      <trkpt lat="41.238439" lon="1.524448">
        <ele>87.7</ele>
        <time>1970-01-01T01:38:18.000Z</time>
      </trkpt>
      <trkpt lat="41.23839" lon="1.524434">
        <ele>87.7</ele>
        <time>1970-01-01T01:38:19.000Z</time>
      </trkpt>
      <trkpt lat="41.238296" lon="1.524413">
        <ele>87.8</ele>
        <time>1970-01-01T01:38:21.000Z</time>
      </trkpt>
      <trkpt lat="41.238247" lon="1.524399">
        <ele>87.8</ele>
        <time>1970-01-01T01:38:22.000Z</time>
      </trkpt>
      <trkpt lat="41.238149" lon="1.52438">
        <ele>87.9</ele>
        <time>1970-01-01T01:38:24.000Z</time>
      </trkpt>
      <trkpt lat="41.238059" lon="1.524399">
        <ele>88</ele>
        <time>1970-01-01T01:38:26.000Z</time>
      </trkpt>
      <trkpt lat="41.237877" lon="1.524428">
        <ele>88.4</ele>
        <time>1970-01-01T01:38:30.000Z</time>
      </trkpt>
      <trkpt lat="41.237799" lon="1.524396">
        <ele>88.8</ele>
        <time>1970-01-01T01:38:32.000Z</time>
      </trkpt>
      <trkpt lat="41.237754" lon="1.524231">
        <ele>89.5</ele>
        <time>1970-01-01T01:38:36.000Z</time>
      </trkpt>
      <trkpt lat="41.237746" lon="1.524187">
        <ele>89.7</ele>
        <time>1970-01-01T01:38:37.000Z</time>
      </trkpt>
      <trkpt lat="41.237705" lon="1.524076">
        <ele>90.4</ele>
        <time>1970-01-01T01:38:40.000Z</time>
      </trkpt>
      <trkpt lat="41.237684" lon="1.524049">
        <ele>90.6</ele>
        <time>1970-01-01T01:38:41.000Z</time>
      </trkpt>
      <trkpt lat="41.237662" lon="1.524024">
        <ele>90.8</ele>
        <time>1970-01-01T01:38:42.000Z</time>
      </trkpt>
      <trkpt lat="41.237615" lon="1.523927">
        <ele>91.5</ele>
        <time>1970-01-01T01:38:45.000Z</time>
      </trkpt>
      <trkpt lat="41.237612" lon="1.523888">
        <ele>91.7</ele>
        <time>1970-01-01T01:38:46.000Z</time>
      </trkpt>
      <trkpt lat="41.237614" lon="1.52385">
        <ele>92</ele>
        <time>1970-01-01T01:38:47.000Z</time>
      </trkpt>
      <trkpt lat="41.237627" lon="1.523784">
        <ele>92.4</ele>
        <time>1970-01-01T01:38:49.000Z</time>
      </trkpt>
      <trkpt lat="41.237642" lon="1.52372">
        <ele>92.9</ele>
        <time>1970-01-01T01:38:51.000Z</time>
      </trkpt>
      <trkpt lat="41.237655" lon="1.523616">
        <ele>93.6</ele>
        <time>1970-01-01T01:38:54.000Z</time>
      </trkpt>
      <trkpt lat="41.237653" lon="1.523554">
        <ele>94.1</ele>
        <time>1970-01-01T01:38:56.000Z</time>
      </trkpt>
      <trkpt lat="41.237651" lon="1.523525">
        <ele>94.3</ele>
        <time>1970-01-01T01:38:57.000Z</time>
      </trkpt>
      <trkpt lat="41.237633" lon="1.523433">
        <ele>95</ele>
        <time>1970-01-01T01:39:00.000Z</time>
      </trkpt>
      <trkpt lat="41.237613" lon="1.523373">
        <ele>95.4</ele>
        <time>1970-01-01T01:39:03.000Z</time>
      </trkpt>
      <trkpt lat="41.237608" lon="1.523356">
        <ele>95.6</ele>
        <time>1970-01-01T01:39:07.000Z</time>
      </trkpt>
      <trkpt lat="41.2376" lon="1.523356">
        <ele>95.6</ele>
        <time>1970-01-01T01:39:30.000Z</time>
      </trkpt>
      <trkpt lat="41.237598" lon="1.523354">
        <ele>95.7</ele>
        <time>1970-01-01T01:39:32.000Z</time>
      </trkpt>
      <trkpt lat="41.237581" lon="1.523302">
        <ele>96</ele>
        <time>1970-01-01T01:39:36.000Z</time>
      </trkpt>
      <trkpt lat="41.237569" lon="1.523234">
        <ele>96.4</ele>
        <time>1970-01-01T01:39:39.000Z</time>
      </trkpt>
      <trkpt lat="41.237563" lon="1.523173">
        <ele>96.7</ele>
        <time>1970-01-01T01:39:41.000Z</time>
      </trkpt>
      <trkpt lat="41.237542" lon="1.523114">
        <ele>97</ele>
        <time>1970-01-01T01:39:43.000Z</time>
      </trkpt>
      <trkpt lat="41.237488" lon="1.522978">
        <ele>97.8</ele>
        <time>1970-01-01T01:39:47.000Z</time>
      </trkpt>
      <trkpt lat="41.23748" lon="1.522935">
        <ele>98</ele>
        <time>1970-01-01T01:39:48.000Z</time>
      </trkpt>
      <trkpt lat="41.237467" lon="1.522802">
        <ele>98.6</ele>
        <time>1970-01-01T01:39:51.000Z</time>
      </trkpt>
      <trkpt lat="41.237469" lon="1.52276">
        <ele>98.8</ele>
        <time>1970-01-01T01:39:52.000Z</time>
      </trkpt>
      <trkpt lat="41.237481" lon="1.522681">
        <ele>99.2</ele>
        <time>1970-01-01T01:39:54.000Z</time>
      </trkpt>
      <trkpt lat="41.237489" lon="1.522644">
        <ele>99.3</ele>
        <time>1970-01-01T01:39:55.000Z</time>
      </trkpt>
      <trkpt lat="41.237499" lon="1.522574">
        <ele>99.6</ele>
        <time>1970-01-01T01:39:57.000Z</time>
      </trkpt>
      <trkpt lat="41.237498" lon="1.522536">
        <ele>99.8</ele>
        <time>1970-01-01T01:39:58.000Z</time>
      </trkpt>
      <trkpt lat="41.237489" lon="1.52246">
        <ele>100</ele>
        <time>1970-01-01T01:40:00.000Z</time>
      </trkpt>
      <trkpt lat="41.23743" lon="1.522359">
        <ele>100.3</ele>
        <time>1970-01-01T01:40:03.000Z</time>
      </trkpt>
      <trkpt lat="41.237404" lon="1.522323">
        <ele>100.4</ele>
        <time>1970-01-01T01:40:04.000Z</time>
      </trkpt>
      <trkpt lat="41.237312" lon="1.522155">
        <ele>100.8</ele>
        <time>1970-01-01T01:40:08.000Z</time>
      </trkpt>
      <trkpt lat="41.237293" lon="1.522111">
        <ele>100.9</ele>
        <time>1970-01-01T01:40:09.000Z</time>
      </trkpt>
      <trkpt lat="41.237222" lon="1.521888">
        <ele>101.8</ele>
        <time>1970-01-01T01:40:14.000Z</time>
      </trkpt>
      <trkpt lat="41.237087" lon="1.5217">
        <ele>102.8</ele>
        <time>1970-01-01T01:40:20.000Z</time>
      </trkpt>
      <trkpt lat="41.237032" lon="1.521644">
        <ele>103.2</ele>
        <time>1970-01-01T01:40:22.000Z</time>
      </trkpt>
      <trkpt lat="41.236923" lon="1.521501">
        <ele>104.1</ele>
        <time>1970-01-01T01:40:27.000Z</time>
      </trkpt>
      <trkpt lat="41.236898" lon="1.521428">
        <ele>104.5</ele>
        <time>1970-01-01T01:40:29.000Z</time>
      </trkpt>
      <trkpt lat="41.236893" lon="1.521352">
        <ele>104.9</ele>
        <time>1970-01-01T01:40:31.000Z</time>
      </trkpt>
      <trkpt lat="41.23687" lon="1.521216">
        <ele>105.7</ele>
        <time>1970-01-01T01:40:35.000Z</time>
      </trkpt>
      <trkpt lat="41.236852" lon="1.521186">
        <ele>105.9</ele>
        <time>1970-01-01T01:40:36.000Z</time>
      </trkpt>
      <trkpt lat="41.236788" lon="1.521094">
        <ele>106.6</ele>
        <time>1970-01-01T01:40:39.000Z</time>
      </trkpt>
      <trkpt lat="41.23674" lon="1.521">
        <ele>107.3</ele>
        <time>1970-01-01T01:40:42.000Z</time>
      </trkpt>
      <trkpt lat="41.236726" lon="1.520969">
        <ele>107.6</ele>
        <time>1970-01-01T01:40:43.000Z</time>
      </trkpt>
      <trkpt lat="41.23666" lon="1.520788">
        <ele>108.9</ele>
        <time>1970-01-01T01:40:49.000Z</time>
      </trkpt>
      <trkpt lat="41.236643" lon="1.520725">
        <ele>109.2</ele>
        <time>1970-01-01T01:40:51.000Z</time>
      </trkpt>
      <trkpt lat="41.23662" lon="1.52056">
        <ele>109.9</ele>
        <time>1970-01-01T01:40:56.000Z</time>
      </trkpt>
      <trkpt lat="41.236593" lon="1.520418">
        <ele>110.2</ele>
        <time>1970-01-01T01:41:00.000Z</time>
      </trkpt>
      <trkpt lat="41.236587" lon="1.520374">
        <ele>110.2</ele>
        <time>1970-01-01T01:41:02.000Z</time>
      </trkpt>
      <trkpt lat="41.236594" lon="1.520318">
        <ele>110.3</ele>
        <time>1970-01-01T01:41:05.000Z</time>
      </trkpt>
      <trkpt lat="41.236597" lon="1.520243">
        <ele>110.5</ele>
        <time>1970-01-01T01:41:08.000Z</time>
      </trkpt>
      <trkpt lat="41.236525" lon="1.520163">
        <ele>110.7</ele>
        <time>1970-01-01T01:41:12.000Z</time>
      </trkpt>
      <trkpt lat="41.236459" lon="1.52012">
        <ele>110.8</ele>
        <time>1970-01-01T01:41:14.000Z</time>
      </trkpt>
      <trkpt lat="41.236426" lon="1.520095">
        <ele>110.9</ele>
        <time>1970-01-01T01:41:15.000Z</time>
      </trkpt>
      <trkpt lat="41.236332" lon="1.519998">
        <ele>111</ele>
        <time>1970-01-01T01:41:18.000Z</time>
      </trkpt>
      <trkpt lat="41.236162" lon="1.519778">
        <ele>111.4</ele>
        <time>1970-01-01T01:41:24.000Z</time>
      </trkpt>
      <trkpt lat="41.236099" lon="1.519713">
        <ele>111.5</ele>
        <time>1970-01-01T01:41:26.000Z</time>
      </trkpt>
      <trkpt lat="41.235916" lon="1.519568">
        <ele>111.4</ele>
        <time>1970-01-01T01:41:31.000Z</time>
      </trkpt>
      <trkpt lat="41.235878" lon="1.51953">
        <ele>111.4</ele>
        <time>1970-01-01T01:41:32.000Z</time>
      </trkpt>
      <trkpt lat="41.235749" lon="1.519433">
        <ele>111</ele>
        <time>1970-01-01T01:41:35.000Z</time>
      </trkpt>
      <trkpt lat="41.235695" lon="1.519419">
        <ele>110.8</ele>
        <time>1970-01-01T01:41:36.000Z</time>
      </trkpt>
      <trkpt lat="41.23558" lon="1.519414">
        <ele>110.4</ele>
        <time>1970-01-01T01:41:38.000Z</time>
      </trkpt>
      <trkpt lat="41.235474" lon="1.519408">
        <ele>110.1</ele>
        <time>1970-01-01T01:41:40.000Z</time>
      </trkpt>
      <trkpt lat="41.235434" lon="1.519401">
        <ele>110</ele>
        <time>1970-01-01T01:41:41.000Z</time>
      </trkpt>
      <trkpt lat="41.235405" lon="1.519388">
        <ele>110</ele>
        <time>1970-01-01T01:41:42.000Z</time>
      </trkpt>
      <trkpt lat="41.235379" lon="1.519341">
        <ele>109.9</ele>
        <time>1970-01-01T01:41:44.000Z</time>
      </trkpt>
      <trkpt lat="41.235382" lon="1.519253">
        <ele>109.9</ele>
        <time>1970-01-01T01:41:47.000Z</time>
      </trkpt>
      <trkpt lat="41.235387" lon="1.519189">
        <ele>109.9</ele>
        <time>1970-01-01T01:41:49.000Z</time>
      </trkpt>
      <trkpt lat="41.235434" lon="1.518993">
        <ele>110.5</ele>
        <time>1970-01-01T01:41:55.000Z</time>
      </trkpt>
      <trkpt lat="41.235449" lon="1.518826">
        <ele>111.2</ele>
        <time>1970-01-01T01:42:00.000Z</time>
      </trkpt>
      <trkpt lat="41.235434" lon="1.51872">
        <ele>111.8</ele>
        <time>1970-01-01T01:42:03.000Z</time>
      </trkpt>
      <trkpt lat="41.235402" lon="1.518615">
        <ele>112.3</ele>
        <time>1970-01-01T01:42:06.000Z</time>
      </trkpt>
      <trkpt lat="41.235393" lon="1.518519">
        <ele>112.7</ele>
        <time>1970-01-01T01:42:09.000Z</time>
      </trkpt>
      <trkpt lat="41.23539" lon="1.518452">
        <ele>113</ele>
        <time>1970-01-01T01:42:11.000Z</time>
      </trkpt>
      <trkpt lat="41.235399" lon="1.51831">
        <ele>113.7</ele>
        <time>1970-01-01T01:42:15.000Z</time>
      </trkpt>
      <trkpt lat="41.2354" lon="1.518242">
        <ele>114</ele>
        <time>1970-01-01T01:42:17.000Z</time>
      </trkpt>
      <trkpt lat="41.235434" lon="1.5181">
        <ele>114.7</ele>
        <time>1970-01-01T01:42:22.000Z</time>
      </trkpt>
      <trkpt lat="41.235442" lon="1.518071">
        <ele>114.8</ele>
        <time>1970-01-01T01:42:23.000Z</time>
      </trkpt>
      <trkpt lat="41.235472" lon="1.517888">
        <ele>115.7</ele>
        <time>1970-01-01T01:42:29.000Z</time>
      </trkpt>
      <trkpt lat="41.235476" lon="1.517852">
        <ele>115.9</ele>
        <time>1970-01-01T01:42:30.000Z</time>
      </trkpt>
      <trkpt lat="41.235485" lon="1.517677">
        <ele>116.8</ele>
        <time>1970-01-01T01:42:35.000Z</time>
      </trkpt>
      <trkpt lat="41.23549" lon="1.517648">
        <ele>117</ele>
        <time>1970-01-01T01:42:36.000Z</time>
      </trkpt>
      <trkpt lat="41.235496" lon="1.517522">
        <ele>117.8</ele>
        <time>1970-01-01T01:42:40.000Z</time>
      </trkpt>
      <trkpt lat="41.235493" lon="1.517453">
        <ele>118.2</ele>
        <time>1970-01-01T01:42:42.000Z</time>
      </trkpt>
      <trkpt lat="41.235498" lon="1.517354">
        <ele>118.9</ele>
        <time>1970-01-01T01:42:45.000Z</time>
      </trkpt>
      <trkpt lat="41.235509" lon="1.517291">
        <ele>119.4</ele>
        <time>1970-01-01T01:42:47.000Z</time>
      </trkpt>
      <trkpt lat="41.235528" lon="1.517198">
        <ele>120</ele>
        <time>1970-01-01T01:42:50.000Z</time>
      </trkpt>
      <trkpt lat="41.235554" lon="1.517087">
        <ele>120.7</ele>
        <time>1970-01-01T01:42:54.000Z</time>
      </trkpt>
      <trkpt lat="41.235596" lon="1.516982">
        <ele>121.4</ele>
        <time>1970-01-01T01:42:58.000Z</time>
      </trkpt>
      <trkpt lat="41.235616" lon="1.516925">
        <ele>121.8</ele>
        <time>1970-01-01T01:43:00.000Z</time>
      </trkpt>
      <trkpt lat="41.235675" lon="1.51673">
        <ele>122.8</ele>
        <time>1970-01-01T01:43:06.000Z</time>
      </trkpt>
      <trkpt lat="41.235715" lon="1.516492">
        <ele>124</ele>
        <time>1970-01-01T01:43:13.000Z</time>
      </trkpt>
      <trkpt lat="41.235721" lon="1.516457">
        <ele>124.1</ele>
        <time>1970-01-01T01:43:14.000Z</time>
      </trkpt>
      <trkpt lat="41.235724" lon="1.516335">
        <ele>124.7</ele>
        <time>1970-01-01T01:43:19.000Z</time>
      </trkpt>
      <trkpt lat="41.235722" lon="1.51633">
        <ele>124.7</ele>
        <time>1970-01-01T01:43:20.000Z</time>
      </trkpt>
      <trkpt lat="41.235697" lon="1.516332">
        <ele>124.9</ele>
        <time>1970-01-01T01:43:22.000Z</time>
      </trkpt>
      <trkpt lat="41.235653" lon="1.516339">
        <ele>125.1</ele>
        <time>1970-01-01T01:43:25.000Z</time>
      </trkpt>
      <trkpt lat="41.23561" lon="1.516338">
        <ele>125.4</ele>
        <time>1970-01-01T01:43:27.000Z</time>
      </trkpt>
      <trkpt lat="41.235574" lon="1.516345">
        <ele>125.6</ele>
        <time>1970-01-01T01:43:30.000Z</time>
      </trkpt>
      <trkpt lat="41.235593" lon="1.516347">
        <ele>125.7</ele>
        <time>1970-01-01T01:43:35.000Z</time>
      </trkpt>
      <trkpt lat="41.235613" lon="1.516349">
        <ele>125.8</ele>
        <time>1970-01-01T01:43:37.000Z</time>
      </trkpt>
      <trkpt lat="41.235654" lon="1.516341">
        <ele>126</ele>
        <time>1970-01-01T01:43:40.000Z</time>
      </trkpt>
      <trkpt lat="41.235681" lon="1.516325">
        <ele>126.7</ele>
        <time>1970-01-01T01:43:42.000Z</time>
      </trkpt>
      <trkpt lat="41.235702" lon="1.516288">
        <ele>126.7</ele>
        <time>1970-01-01T01:43:44.000Z</time>
      </trkpt>
      <trkpt lat="41.235721" lon="1.516208">
        <ele>127.7</ele>
        <time>1970-01-01T01:43:47.000Z</time>
      </trkpt>
      <trkpt lat="41.235762" lon="1.516023">
        <ele>130.1</ele>
        <time>1970-01-01T01:43:52.000Z</time>
      </trkpt>
      <trkpt lat="41.235768" lon="1.515989">
        <ele>130.1</ele>
        <time>1970-01-01T01:43:53.000Z</time>
      </trkpt>
      <trkpt lat="41.235799" lon="1.515839">
        <ele>131.9</ele>
        <time>1970-01-01T01:43:58.000Z</time>
      </trkpt>
      <trkpt lat="41.235805" lon="1.515811">
        <ele>132.6</ele>
        <time>1970-01-01T01:43:59.000Z</time>
      </trkpt>
      <trkpt lat="41.235816" lon="1.515754">
        <ele>132.9</ele>
        <time>1970-01-01T01:44:01.000Z</time>
      </trkpt>
      <trkpt lat="41.235819" lon="1.515721">
        <ele>133.1</ele>
        <time>1970-01-01T01:44:02.000Z</time>
      </trkpt>
      <trkpt lat="41.235822" lon="1.515612">
        <ele>133.5</ele>
        <time>1970-01-01T01:44:05.000Z</time>
      </trkpt>
      <trkpt lat="41.235854" lon="1.515509">
        <ele>134.1</ele>
        <time>1970-01-01T01:44:08.000Z</time>
      </trkpt>
      <trkpt lat="41.235873" lon="1.515454">
        <ele>134.3</ele>
        <time>1970-01-01T01:44:10.000Z</time>
      </trkpt>
      <trkpt lat="41.235904" lon="1.515326">
        <ele>134.8</ele>
        <time>1970-01-01T01:44:14.000Z</time>
      </trkpt>
      <trkpt lat="41.23591" lon="1.515291">
        <ele>135.1</ele>
        <time>1970-01-01T01:44:15.000Z</time>
      </trkpt>
      <trkpt lat="41.235912" lon="1.515255">
        <ele>135.1</ele>
        <time>1970-01-01T01:44:16.000Z</time>
      </trkpt>
      <trkpt lat="41.235947" lon="1.515112">
        <ele>136.4</ele>
        <time>1970-01-01T01:44:20.000Z</time>
      </trkpt>
      <trkpt lat="41.235956" lon="1.51508">
        <ele>136.7</ele>
        <time>1970-01-01T01:44:21.000Z</time>
      </trkpt>
      <trkpt lat="41.235985" lon="1.514954">
        <ele>137.7</ele>
        <time>1970-01-01T01:44:25.000Z</time>
      </trkpt>
      <trkpt lat="41.236038" lon="1.51481">
        <ele>139.3</ele>
        <time>1970-01-01T01:44:30.000Z</time>
      </trkpt>
      <trkpt lat="41.236075" lon="1.514707">
        <ele>140.8</ele>
        <time>1970-01-01T01:44:34.000Z</time>
      </trkpt>
      <trkpt lat="41.236087" lon="1.514683">
        <ele>141.5</ele>
        <time>1970-01-01T01:44:35.000Z</time>
      </trkpt>
      <trkpt lat="41.2361" lon="1.514658">
        <ele>141.4</ele>
        <time>1970-01-01T01:44:36.000Z</time>
      </trkpt>
      <trkpt lat="41.23613" lon="1.514578">
        <ele>142.6</ele>
        <time>1970-01-01T01:44:39.000Z</time>
      </trkpt>
      <trkpt lat="41.236157" lon="1.51451">
        <ele>143.4</ele>
        <time>1970-01-01T01:44:42.000Z</time>
      </trkpt>
      <trkpt lat="41.236168" lon="1.514483">
        <ele>143.4</ele>
        <time>1970-01-01T01:44:43.000Z</time>
      </trkpt>
      <trkpt lat="41.236232" lon="1.514342">
        <ele>144.7</ele>
        <time>1970-01-01T01:44:48.000Z</time>
      </trkpt>
      <trkpt lat="41.236261" lon="1.514293">
        <ele>144.9</ele>
        <time>1970-01-01T01:44:50.000Z</time>
      </trkpt>
      <trkpt lat="41.236349" lon="1.514131">
        <ele>146.6</ele>
        <time>1970-01-01T01:44:55.000Z</time>
      </trkpt>
      <trkpt lat="41.236361" lon="1.514093">
        <ele>147.1</ele>
        <time>1970-01-01T01:44:56.000Z</time>
      </trkpt>
      <trkpt lat="41.236404" lon="1.513942">
        <ele>148.7</ele>
        <time>1970-01-01T01:45:00.000Z</time>
      </trkpt>
      <trkpt lat="41.236436" lon="1.513846">
        <ele>149.9</ele>
        <time>1970-01-01T01:45:03.000Z</time>
      </trkpt>
      <trkpt lat="41.236431" lon="1.51381">
        <ele>150.4</ele>
        <time>1970-01-01T01:45:04.000Z</time>
      </trkpt>
      <trkpt lat="41.236424" lon="1.513776">
        <ele>150.8</ele>
        <time>1970-01-01T01:45:05.000Z</time>
      </trkpt>
      <trkpt lat="41.236391" lon="1.513665">
        <ele>152.3</ele>
        <time>1970-01-01T01:45:09.000Z</time>
      </trkpt>
      <trkpt lat="41.236383" lon="1.513604">
        <ele>152.8</ele>
        <time>1970-01-01T01:45:11.000Z</time>
      </trkpt>
      <trkpt lat="41.236384" lon="1.513578">
        <ele>153.3</ele>
        <time>1970-01-01T01:45:12.000Z</time>
      </trkpt>
      <trkpt lat="41.236374" lon="1.513625">
        <ele>152.4</ele>
        <time>1970-01-01T01:45:14.000Z</time>
      </trkpt>
      <trkpt lat="41.236356" lon="1.513709">
        <ele>151.8</ele>
        <time>1970-01-01T01:45:15.000Z</time>
      </trkpt>
      <trkpt lat="41.236339" lon="1.513792">
        <ele>151</ele>
        <time>1970-01-01T01:45:18.000Z</time>
      </trkpt>
      <trkpt lat="41.236322" lon="1.513875">
        <ele>149.8</ele>
        <time>1970-01-01T01:45:22.000Z</time>
      </trkpt>
      <trkpt lat="41.236305" lon="1.513958">
        <ele>148.8</ele>
        <time>1970-01-01T01:45:24.000Z</time>
      </trkpt>
      <trkpt lat="41.236287" lon="1.514042">
        <ele>147.6</ele>
        <time>1970-01-01T01:45:32.000Z</time>
      </trkpt>
      <trkpt lat="41.23627" lon="1.514125">
        <ele>146.9</ele>
        <time>1970-01-01T01:45:35.000Z</time>
      </trkpt>
      <trkpt lat="41.236253" lon="1.514208">
        <ele>146.2</ele>
        <time>1970-01-01T01:45:39.000Z</time>
      </trkpt>
      <trkpt lat="41.236236" lon="1.514291">
        <ele>145.1</ele>
        <time>1970-01-01T01:45:41.000Z</time>
      </trkpt>
      <trkpt lat="41.236218" lon="1.514375">
        <ele>144.4</ele>
        <time>1970-01-01T01:46:29.000Z</time>
      </trkpt>
      <trkpt lat="41.236201" lon="1.514458">
        <ele>143.4</ele>
        <time>1970-01-01T01:46:30.000Z</time>
      </trkpt>
      <trkpt lat="41.236144" lon="1.514588">
        <ele>142.3</ele>
        <time>1970-01-01T01:46:32.000Z</time>
      </trkpt>
      <trkpt lat="41.236082" lon="1.514739">
        <ele>140.5</ele>
        <time>1970-01-01T01:46:34.000Z</time>
      </trkpt>
      <trkpt lat="41.236053" lon="1.51482">
        <ele>139</ele>
        <time>1970-01-01T01:46:35.000Z</time>
      </trkpt>
      <trkpt lat="41.236035" lon="1.514897">
        <ele>137.8</ele>
        <time>1970-01-01T01:46:36.000Z</time>
      </trkpt>
      <trkpt lat="41.236019" lon="1.514963">
        <ele>136.9</ele>
        <time>1970-01-01T01:46:37.000Z</time>
      </trkpt>
      <trkpt lat="41.235979" lon="1.515097">
        <ele>136</ele>
        <time>1970-01-01T01:46:39.000Z</time>
      </trkpt>
      <trkpt lat="41.235943" lon="1.515239">
        <ele>135.1</ele>
        <time>1970-01-01T01:46:41.000Z</time>
      </trkpt>
      <trkpt lat="41.23592" lon="1.515304">
        <ele>134.4</ele>
        <time>1970-01-01T01:46:42.000Z</time>
      </trkpt>
      <trkpt lat="41.235872" lon="1.51544">
        <ele>133.9</ele>
        <time>1970-01-01T01:46:44.000Z</time>
      </trkpt>
      <trkpt lat="41.235855" lon="1.515509">
        <ele>133.6</ele>
        <time>1970-01-01T01:46:45.000Z</time>
      </trkpt>
      <trkpt lat="41.235845" lon="1.515592">
        <ele>133.5</ele>
        <time>1970-01-01T01:46:46.000Z</time>
      </trkpt>
      <trkpt lat="41.235838" lon="1.515673">
        <ele>133.2</ele>
        <time>1970-01-01T01:46:47.000Z</time>
      </trkpt>
      <trkpt lat="41.235823" lon="1.515742">
        <ele>132.4</ele>
        <time>1970-01-01T01:46:48.000Z</time>
      </trkpt>
      <trkpt lat="41.235798" lon="1.515888">
        <ele>131</ele>
        <time>1970-01-01T01:46:50.000Z</time>
      </trkpt>
      <trkpt lat="41.235777" lon="1.516036">
        <ele>129.6</ele>
        <time>1970-01-01T01:46:52.000Z</time>
      </trkpt>
      <trkpt lat="41.235747" lon="1.51619">
        <ele>127.9</ele>
        <time>1970-01-01T01:46:54.000Z</time>
      </trkpt>
      <trkpt lat="41.235724" lon="1.516245">
        <ele>126.8</ele>
        <time>1970-01-01T01:46:55.000Z</time>
      </trkpt>
      <trkpt lat="41.235661" lon="1.516284">
        <ele>126.1</ele>
        <time>1970-01-01T01:46:57.000Z</time>
      </trkpt>
      <trkpt lat="41.235629" lon="1.516287">
        <ele>126.2</ele>
        <time>1970-01-01T01:46:58.000Z</time>
      </trkpt>
      <trkpt lat="41.235593" lon="1.516285">
        <ele>126.3</ele>
        <time>1970-01-01T01:46:59.000Z</time>
      </trkpt>
      <trkpt lat="41.235554" lon="1.516275">
        <ele>126.4</ele>
        <time>1970-01-01T01:47:00.000Z</time>
      </trkpt>
      <trkpt lat="41.235507" lon="1.516263">
        <ele>126.5</ele>
        <time>1970-01-01T01:47:01.000Z</time>
      </trkpt>
      <trkpt lat="41.235461" lon="1.51625">
        <ele>126.6</ele>
        <time>1970-01-01T01:47:02.000Z</time>
      </trkpt>
      <trkpt lat="41.235412" lon="1.516245">
        <ele>126.6</ele>
        <time>1970-01-01T01:47:03.000Z</time>
      </trkpt>
      <trkpt lat="41.235259" lon="1.516282">
        <ele>126.7</ele>
        <time>1970-01-01T01:47:06.000Z</time>
      </trkpt>
      <trkpt lat="41.235211" lon="1.516302">
        <ele>126.7</ele>
        <time>1970-01-01T01:47:07.000Z</time>
      </trkpt>
      <trkpt lat="41.235115" lon="1.516322">
        <ele>126.7</ele>
        <time>1970-01-01T01:47:09.000Z</time>
      </trkpt>
      <trkpt lat="41.235071" lon="1.516329">
        <ele>126.7</ele>
        <time>1970-01-01T01:47:10.000Z</time>
      </trkpt>
      <trkpt lat="41.234952" lon="1.516384">
        <ele>126.7</ele>
        <time>1970-01-01T01:47:13.000Z</time>
      </trkpt>
      <trkpt lat="41.234856" lon="1.516429">
        <ele>126.6</ele>
        <time>1970-01-01T01:47:15.000Z</time>
      </trkpt>
      <trkpt lat="41.234695" lon="1.516499">
        <ele>126.5</ele>
        <time>1970-01-01T01:47:18.000Z</time>
      </trkpt>
      <trkpt lat="41.23464" lon="1.516508">
        <ele>126.5</ele>
        <time>1970-01-01T01:47:19.000Z</time>
      </trkpt>
      <trkpt lat="41.234531" lon="1.516514">
        <ele>126.7</ele>
        <time>1970-01-01T01:47:21.000Z</time>
      </trkpt>
      <trkpt lat="41.234433" lon="1.516514">
        <ele>127.2</ele>
        <time>1970-01-01T01:47:23.000Z</time>
      </trkpt>
      <trkpt lat="41.234394" lon="1.516518">
        <ele>127.4</ele>
        <time>1970-01-01T01:47:24.000Z</time>
      </trkpt>
      <trkpt lat="41.234328" lon="1.516526">
        <ele>128</ele>
        <time>1970-01-01T01:47:26.000Z</time>
      </trkpt>
      <trkpt lat="41.234301" lon="1.516525">
        <ele>128.3</ele>
        <time>1970-01-01T01:47:27.000Z</time>
      </trkpt>
      <trkpt lat="41.234276" lon="1.516523">
        <ele>128.6</ele>
        <time>1970-01-01T01:47:28.000Z</time>
      </trkpt>
      <trkpt lat="41.234251" lon="1.516522">
        <ele>128.9</ele>
        <time>1970-01-01T01:47:29.000Z</time>
      </trkpt>
      <trkpt lat="41.234205" lon="1.516518">
        <ele>129.5</ele>
        <time>1970-01-01T01:47:31.000Z</time>
      </trkpt>
      <trkpt lat="41.234163" lon="1.516514">
        <ele>130</ele>
        <time>1970-01-01T01:47:33.000Z</time>
      </trkpt>
      <trkpt lat="41.234124" lon="1.516516">
        <ele>130.5</ele>
        <time>1970-01-01T01:47:35.000Z</time>
      </trkpt>
      <trkpt lat="41.234105" lon="1.516524">
        <ele>130.7</ele>
        <time>1970-01-01T01:47:36.000Z</time>
      </trkpt>
      <trkpt lat="41.234027" lon="1.516558">
        <ele>131.5</ele>
        <time>1970-01-01T01:47:39.000Z</time>
      </trkpt>
      <trkpt lat="41.233998" lon="1.516573">
        <ele>131.8</ele>
        <time>1970-01-01T01:47:40.000Z</time>
      </trkpt>
      <trkpt lat="41.233899" lon="1.516579">
        <ele>132.3</ele>
        <time>1970-01-01T01:47:43.000Z</time>
      </trkpt>
      <trkpt lat="41.233831" lon="1.516561">
        <ele>132.5</ele>
        <time>1970-01-01T01:47:45.000Z</time>
      </trkpt>
      <trkpt lat="41.233616" lon="1.51652">
        <ele>132.6</ele>
        <time>1970-01-01T01:47:51.000Z</time>
      </trkpt>
      <trkpt lat="41.233504" lon="1.51647">
        <ele>132.6</ele>
        <time>1970-01-01T01:47:54.000Z</time>
      </trkpt>
      <trkpt lat="41.23346" lon="1.516475">
        <ele>132.6</ele>
        <time>1970-01-01T01:47:55.000Z</time>
      </trkpt>
      <trkpt lat="41.233268" lon="1.516535">
        <ele>132.4</ele>
        <time>1970-01-01T01:47:59.000Z</time>
      </trkpt>
      <trkpt lat="41.233217" lon="1.516558">
        <ele>132.3</ele>
        <time>1970-01-01T01:48:00.000Z</time>
      </trkpt>
      <trkpt lat="41.233168" lon="1.516571">
        <ele>132.3</ele>
        <time>1970-01-01T01:48:01.000Z</time>
      </trkpt>
      <trkpt lat="41.233013" lon="1.516595">
        <ele>132</ele>
        <time>1970-01-01T01:48:04.000Z</time>
      </trkpt>
      <trkpt lat="41.232962" lon="1.51661">
        <ele>131.9</ele>
        <time>1970-01-01T01:48:05.000Z</time>
      </trkpt>
      <trkpt lat="41.23283" lon="1.516701">
        <ele>131.5</ele>
        <time>1970-01-01T01:48:08.000Z</time>
      </trkpt>
      <trkpt lat="41.232795" lon="1.516748">
        <ele>131.4</ele>
        <time>1970-01-01T01:48:09.000Z</time>
      </trkpt>
      <trkpt lat="41.232751" lon="1.516847">
        <ele>131.1</ele>
        <time>1970-01-01T01:48:11.000Z</time>
      </trkpt>
      <trkpt lat="41.232741" lon="1.516908">
        <ele>131</ele>
        <time>1970-01-01T01:48:12.000Z</time>
      </trkpt>
      <trkpt lat="41.232723" lon="1.517037">
        <ele>130.7</ele>
        <time>1970-01-01T01:48:14.000Z</time>
      </trkpt>
      <trkpt lat="41.232709" lon="1.517099">
        <ele>130.6</ele>
        <time>1970-01-01T01:48:15.000Z</time>
      </trkpt>
      <trkpt lat="41.232663" lon="1.517216">
        <ele>130.3</ele>
        <time>1970-01-01T01:48:17.000Z</time>
      </trkpt>
      <trkpt lat="41.23264" lon="1.517281">
        <ele>130.2</ele>
        <time>1970-01-01T01:48:18.000Z</time>
      </trkpt>
      <trkpt lat="41.23262" lon="1.517345">
        <ele>130.1</ele>
        <time>1970-01-01T01:48:19.000Z</time>
      </trkpt>
      <trkpt lat="41.23258" lon="1.517466">
        <ele>129.8</ele>
        <time>1970-01-01T01:48:21.000Z</time>
      </trkpt>
      <trkpt lat="41.232548" lon="1.517588">
        <ele>129.7</ele>
        <time>1970-01-01T01:48:23.000Z</time>
      </trkpt>
      <trkpt lat="41.23253" lon="1.517635">
        <ele>129.6</ele>
        <time>1970-01-01T01:48:24.000Z</time>
      </trkpt>
      <trkpt lat="41.232507" lon="1.517656">
        <ele>129.6</ele>
        <time>1970-01-01T01:48:25.000Z</time>
      </trkpt>
      <trkpt lat="41.232459" lon="1.51764">
        <ele>129.5</ele>
        <time>1970-01-01T01:48:27.000Z</time>
      </trkpt>
      <trkpt lat="41.232301" lon="1.517528">
        <ele>129.6</ele>
        <time>1970-01-01T01:48:32.000Z</time>
      </trkpt>
      <trkpt lat="41.232152" lon="1.517387">
        <ele>129.8</ele>
        <time>1970-01-01T01:48:36.000Z</time>
      </trkpt>
      <trkpt lat="41.232112" lon="1.517348">
        <ele>129.8</ele>
        <time>1970-01-01T01:48:37.000Z</time>
      </trkpt>
      <trkpt lat="41.231941" lon="1.517169">
        <ele>129.9</ele>
        <time>1970-01-01T01:48:41.000Z</time>
      </trkpt>
      <trkpt lat="41.231838" lon="1.517077">
        <ele>129.9</ele>
        <time>1970-01-01T01:48:43.000Z</time>
      </trkpt>
      <trkpt lat="41.231504" lon="1.516862">
        <ele>130.2</ele>
        <time>1970-01-01T01:48:49.000Z</time>
      </trkpt>
      <trkpt lat="41.231456" lon="1.516828">
        <ele>130.4</ele>
        <time>1970-01-01T01:48:50.000Z</time>
      </trkpt>
      <trkpt lat="41.231368" lon="1.516758">
        <ele>130.7</ele>
        <time>1970-01-01T01:48:52.000Z</time>
      </trkpt>
      <trkpt lat="41.231328" lon="1.516727">
        <ele>130.8</ele>
        <time>1970-01-01T01:48:53.000Z</time>
      </trkpt>
      <trkpt lat="41.231224" lon="1.516642">
        <ele>131.4</ele>
        <time>1970-01-01T01:48:56.000Z</time>
      </trkpt>
      <trkpt lat="41.231169" lon="1.516579">
        <ele>131.7</ele>
        <time>1970-01-01T01:48:58.000Z</time>
      </trkpt>
      <trkpt lat="41.231127" lon="1.516451">
        <ele>132.3</ele>
        <time>1970-01-01T01:49:01.000Z</time>
      </trkpt>
      <trkpt lat="41.231135" lon="1.516408">
        <ele>132.5</ele>
        <time>1970-01-01T01:49:02.000Z</time>
      </trkpt>
      <trkpt lat="41.231159" lon="1.516332">
        <ele>132.8</ele>
        <time>1970-01-01T01:49:04.000Z</time>
      </trkpt>
      <trkpt lat="41.231165" lon="1.516294">
        <ele>133</ele>
        <time>1970-01-01T01:49:05.000Z</time>
      </trkpt>
      <trkpt lat="41.231156" lon="1.516261">
        <ele>133.1</ele>
        <time>1970-01-01T01:49:06.000Z</time>
      </trkpt>
      <trkpt lat="41.231079" lon="1.516204">
        <ele>133.4</ele>
        <time>1970-01-01T01:49:09.000Z</time>
      </trkpt>
      <trkpt lat="41.231047" lon="1.516186">
        <ele>133.4</ele>
        <time>1970-01-01T01:49:10.000Z</time>
      </trkpt>
      <trkpt lat="41.230982" lon="1.516148">
        <ele>133.4</ele>
        <time>1970-01-01T01:49:12.000Z</time>
      </trkpt>
      <trkpt lat="41.230845" lon="1.516081">
        <ele>133.7</ele>
        <time>1970-01-01T01:49:16.000Z</time>
      </trkpt>
      <trkpt lat="41.230812" lon="1.516065">
        <ele>133.8</ele>
        <time>1970-01-01T01:49:17.000Z</time>
      </trkpt>
      <trkpt lat="41.230595" lon="1.51599">
        <ele>134.2</ele>
        <time>1970-01-01T01:49:24.000Z</time>
      </trkpt>
      <trkpt lat="41.230399" lon="1.515952">
        <ele>135</ele>
        <time>1970-01-01T01:49:30.000Z</time>
      </trkpt>
      <trkpt lat="41.230337" lon="1.515942">
        <ele>135.5</ele>
        <time>1970-01-01T01:49:32.000Z</time>
      </trkpt>
      <trkpt lat="41.230309" lon="1.515956">
        <ele>135.5</ele>
        <time>1970-01-01T01:49:33.000Z</time>
      </trkpt>
      <trkpt lat="41.230274" lon="1.516025">
        <ele>135.4</ele>
        <time>1970-01-01T01:49:35.000Z</time>
      </trkpt>
      <trkpt lat="41.23019" lon="1.516245">
        <ele>135.1</ele>
        <time>1970-01-01T01:49:40.000Z</time>
      </trkpt>
      <trkpt lat="41.230151" lon="1.516344">
        <ele>134.9</ele>
        <time>1970-01-01T01:49:42.000Z</time>
      </trkpt>
      <trkpt lat="41.230086" lon="1.51651">
        <ele>134.1</ele>
        <time>1970-01-01T01:49:45.000Z</time>
      </trkpt>
      <trkpt lat="41.230013" lon="1.516699">
        <ele>132.8</ele>
        <time>1970-01-01T01:49:48.000Z</time>
      </trkpt>
      <trkpt lat="41.229988" lon="1.516768">
        <ele>132.3</ele>
        <time>1970-01-01T01:49:49.000Z</time>
      </trkpt>
      <trkpt lat="41.229878" lon="1.517065">
        <ele>130.3</ele>
        <time>1970-01-01T01:49:53.000Z</time>
      </trkpt>
      <trkpt lat="41.229848" lon="1.517147">
        <ele>129.8</ele>
        <time>1970-01-01T01:49:54.000Z</time>
      </trkpt>
      <trkpt lat="41.229817" lon="1.51723">
        <ele>129.3</ele>
        <time>1970-01-01T01:49:55.000Z</time>
      </trkpt>
      <trkpt lat="41.229785" lon="1.517315">
        <ele>128.8</ele>
        <time>1970-01-01T01:49:56.000Z</time>
      </trkpt>
      <trkpt lat="41.229708" lon="1.517482">
        <ele>127.8</ele>
        <time>1970-01-01T01:49:58.000Z</time>
      </trkpt>
      <trkpt lat="41.229661" lon="1.517563">
        <ele>127.3</ele>
        <time>1970-01-01T01:49:59.000Z</time>
      </trkpt>
      <trkpt lat="41.229608" lon="1.517641">
        <ele>127</ele>
        <time>1970-01-01T01:50:00.000Z</time>
      </trkpt>
      <trkpt lat="41.229498" lon="1.517772">
        <ele>126.4</ele>
        <time>1970-01-01T01:50:02.000Z</time>
      </trkpt>
      <trkpt lat="41.229377" lon="1.517839">
        <ele>126.4</ele>
        <time>1970-01-01T01:50:04.000Z</time>
      </trkpt>
      <trkpt lat="41.229315" lon="1.51784">
        <ele>126.4</ele>
        <time>1970-01-01T01:50:05.000Z</time>
      </trkpt>
      <trkpt lat="41.229202" lon="1.517843">
        <ele>126.3</ele>
        <time>1970-01-01T01:50:07.000Z</time>
      </trkpt>
      <trkpt lat="41.229153" lon="1.517858">
        <ele>126.2</ele>
        <time>1970-01-01T01:50:08.000Z</time>
      </trkpt>
      <trkpt lat="41.229083" lon="1.517949">
        <ele>125.6</ele>
        <time>1970-01-01T01:50:10.000Z</time>
      </trkpt>
      <trkpt lat="41.229062" lon="1.518014">
        <ele>125.3</ele>
        <time>1970-01-01T01:50:11.000Z</time>
      </trkpt>
      <trkpt lat="41.22904" lon="1.518085">
        <ele>124.6</ele>
        <time>1970-01-01T01:50:12.000Z</time>
      </trkpt>
      <trkpt lat="41.228974" lon="1.518323">
        <ele>122.1</ele>
        <time>1970-01-01T01:50:15.000Z</time>
      </trkpt>
      <trkpt lat="41.228951" lon="1.518409">
        <ele>120.9</ele>
        <time>1970-01-01T01:50:16.000Z</time>
      </trkpt>
      <trkpt lat="41.228826" lon="1.518904">
        <ele>116.4</ele>
        <time>1970-01-01T01:50:21.000Z</time>
      </trkpt>
      <trkpt lat="41.228767" lon="1.51913">
        <ele>113.9</ele>
        <time>1970-01-01T01:50:23.000Z</time>
      </trkpt>
      <trkpt lat="41.228707" lon="1.519368">
        <ele>111.7</ele>
        <time>1970-01-01T01:50:25.000Z</time>
      </trkpt>
      <trkpt lat="41.228643" lon="1.519618">
        <ele>109.7</ele>
        <time>1970-01-01T01:50:27.000Z</time>
      </trkpt>
      <trkpt lat="41.22861" lon="1.519744">
        <ele>108.4</ele>
        <time>1970-01-01T01:50:28.000Z</time>
      </trkpt>
      <trkpt lat="41.228576" lon="1.519872">
        <ele>106.9</ele>
        <time>1970-01-01T01:50:29.000Z</time>
      </trkpt>
      <trkpt lat="41.228544" lon="1.520002">
        <ele>105.3</ele>
        <time>1970-01-01T01:50:30.000Z</time>
      </trkpt>
      <trkpt lat="41.228512" lon="1.520133">
        <ele>104.1</ele>
        <time>1970-01-01T01:50:31.000Z</time>
      </trkpt>
      <trkpt lat="41.228481" lon="1.520266">
        <ele>103.3</ele>
        <time>1970-01-01T01:50:32.000Z</time>
      </trkpt>
      <trkpt lat="41.228449" lon="1.520401">
        <ele>102.8</ele>
        <time>1970-01-01T01:50:33.000Z</time>
      </trkpt>
      <trkpt lat="41.228413" lon="1.520535">
        <ele>102.5</ele>
        <time>1970-01-01T01:50:34.000Z</time>
      </trkpt>
      <trkpt lat="41.228344" lon="1.520808">
        <ele>100.9</ele>
        <time>1970-01-01T01:50:36.000Z</time>
      </trkpt>
      <trkpt lat="41.228308" lon="1.520947">
        <ele>99.9</ele>
        <time>1970-01-01T01:50:37.000Z</time>
      </trkpt>
      <trkpt lat="41.228272" lon="1.521087">
        <ele>98.9</ele>
        <time>1970-01-01T01:50:38.000Z</time>
      </trkpt>
      <trkpt lat="41.228236" lon="1.521227">
        <ele>97.8</ele>
        <time>1970-01-01T01:50:39.000Z</time>
      </trkpt>
      <trkpt lat="41.228201" lon="1.521364">
        <ele>96.8</ele>
        <time>1970-01-01T01:50:40.000Z</time>
      </trkpt>
      <trkpt lat="41.228133" lon="1.521632">
        <ele>94.9</ele>
        <time>1970-01-01T01:50:42.000Z</time>
      </trkpt>
      <trkpt lat="41.228101" lon="1.521761">
        <ele>94.2</ele>
        <time>1970-01-01T01:50:43.000Z</time>
      </trkpt>
      <trkpt lat="41.228035" lon="1.522009">
        <ele>93.5</ele>
        <time>1970-01-01T01:50:45.000Z</time>
      </trkpt>
      <trkpt lat="41.227973" lon="1.522243">
        <ele>92.5</ele>
        <time>1970-01-01T01:50:47.000Z</time>
      </trkpt>
      <trkpt lat="41.227942" lon="1.522358">
        <ele>91.8</ele>
        <time>1970-01-01T01:50:48.000Z</time>
      </trkpt>
      <trkpt lat="41.227912" lon="1.522473">
        <ele>91.1</ele>
        <time>1970-01-01T01:50:49.000Z</time>
      </trkpt>
      <trkpt lat="41.227852" lon="1.522702">
        <ele>89.8</ele>
        <time>1970-01-01T01:50:51.000Z</time>
      </trkpt>
      <trkpt lat="41.227793" lon="1.522927">
        <ele>88.4</ele>
        <time>1970-01-01T01:50:53.000Z</time>
      </trkpt>
      <trkpt lat="41.227737" lon="1.523144">
        <ele>87.5</ele>
        <time>1970-01-01T01:50:55.000Z</time>
      </trkpt>
      <trkpt lat="41.227709" lon="1.523242">
        <ele>87.3</ele>
        <time>1970-01-01T01:50:56.000Z</time>
      </trkpt>
      <trkpt lat="41.227676" lon="1.523329">
        <ele>87.3</ele>
        <time>1970-01-01T01:50:57.000Z</time>
      </trkpt>
      <trkpt lat="41.227589" lon="1.523457">
        <ele>87.2</ele>
        <time>1970-01-01T01:50:59.000Z</time>
      </trkpt>
      <trkpt lat="41.227549" lon="1.5235">
        <ele>87.2</ele>
        <time>1970-01-01T01:51:00.000Z</time>
      </trkpt>
      <trkpt lat="41.227496" lon="1.523557">
        <ele>86.7</ele>
        <time>1970-01-01T01:51:02.000Z</time>
      </trkpt>
      <trkpt lat="41.227476" lon="1.523573">
        <ele>86.7</ele>
        <time>1970-01-01T01:51:03.000Z</time>
      </trkpt>
      <trkpt lat="41.227409" lon="1.523594">
        <ele>86.4</ele>
        <time>1970-01-01T01:51:06.000Z</time>
      </trkpt>
      <trkpt lat="41.227361" lon="1.523584">
        <ele>86.4</ele>
        <time>1970-01-01T01:51:08.000Z</time>
      </trkpt>
      <trkpt lat="41.227336" lon="1.523572">
        <ele>86.4</ele>
        <time>1970-01-01T01:51:09.000Z</time>
      </trkpt>
      <trkpt lat="41.227306" lon="1.523557">
        <ele>86.4</ele>
        <time>1970-01-01T01:51:10.000Z</time>
      </trkpt>
      <trkpt lat="41.227273" lon="1.523535">
        <ele>86.4</ele>
        <time>1970-01-01T01:51:11.000Z</time>
      </trkpt>
      <trkpt lat="41.227235" lon="1.523507">
        <ele>86.4</ele>
        <time>1970-01-01T01:51:12.000Z</time>
      </trkpt>
      <trkpt lat="41.227198" lon="1.523476">
        <ele>86.4</ele>
        <time>1970-01-01T01:51:13.000Z</time>
      </trkpt>
      <trkpt lat="41.226945" lon="1.523231">
        <ele>86.4</ele>
        <time>1970-01-01T01:51:19.000Z</time>
      </trkpt>
      <trkpt lat="41.226612" lon="1.522914">
        <ele>86.6</ele>
        <time>1970-01-01T01:51:26.000Z</time>
      </trkpt>
      <trkpt lat="41.226523" lon="1.522821">
        <ele>86.8</ele>
        <time>1970-01-01T01:51:28.000Z</time>
      </trkpt>
      <trkpt lat="41.226404" lon="1.522671">
        <ele>86.9</ele>
        <time>1970-01-01T01:51:31.000Z</time>
      </trkpt>
      <trkpt lat="41.226299" lon="1.522515">
        <ele>87.1</ele>
        <time>1970-01-01T01:51:34.000Z</time>
      </trkpt>
      <trkpt lat="41.226207" lon="1.522348">
        <ele>87.2</ele>
        <time>1970-01-01T01:51:37.000Z</time>
      </trkpt>
      <trkpt lat="41.226149" lon="1.522236">
        <ele>87.2</ele>
        <time>1970-01-01T01:51:39.000Z</time>
      </trkpt>
      <trkpt lat="41.226066" lon="1.522063">
        <ele>87.3</ele>
        <time>1970-01-01T01:51:42.000Z</time>
      </trkpt>
      <trkpt lat="41.226039" lon="1.522006">
        <ele>87.3</ele>
        <time>1970-01-01T01:51:43.000Z</time>
      </trkpt>
      <trkpt lat="41.225929" lon="1.521707">
        <ele>87.3</ele>
        <time>1970-01-01T01:51:48.000Z</time>
      </trkpt>
      <trkpt lat="41.225884" lon="1.521589">
        <ele>87.3</ele>
        <time>1970-01-01T01:51:50.000Z</time>
      </trkpt>
      <trkpt lat="41.225783" lon="1.521363">
        <ele>87.3</ele>
        <time>1970-01-01T01:51:54.000Z</time>
      </trkpt>
      <trkpt lat="41.225704" lon="1.521202">
        <ele>87.3</ele>
        <time>1970-01-01T01:51:57.000Z</time>
      </trkpt>
      <trkpt lat="41.225591" lon="1.52101">
        <ele>87.1</ele>
        <time>1970-01-01T01:52:01.000Z</time>
      </trkpt>
      <trkpt lat="41.225501" lon="1.520862">
        <ele>86.9</ele>
        <time>1970-01-01T01:52:04.000Z</time>
      </trkpt>
      <trkpt lat="41.225434" lon="1.520758">
        <ele>86.7</ele>
        <time>1970-01-01T01:52:06.000Z</time>
      </trkpt>
      <trkpt lat="41.225299" lon="1.520668">
        <ele>86.3</ele>
        <time>1970-01-01T01:52:09.000Z</time>
      </trkpt>
      <trkpt lat="41.22519" lon="1.520701">
        <ele>86.2</ele>
        <time>1970-01-01T01:52:11.000Z</time>
      </trkpt>
      <trkpt lat="41.225134" lon="1.520733">
        <ele>86.1</ele>
        <time>1970-01-01T01:52:12.000Z</time>
      </trkpt>
      <trkpt lat="41.225077" lon="1.520766">
        <ele>85.8</ele>
        <time>1970-01-01T01:52:13.000Z</time>
      </trkpt>
      <trkpt lat="41.224962" lon="1.520832">
        <ele>85.1</ele>
        <time>1970-01-01T01:52:15.000Z</time>
      </trkpt>
      <trkpt lat="41.224792" lon="1.520907">
        <ele>84.1</ele>
        <time>1970-01-01T01:52:18.000Z</time>
      </trkpt>
      <trkpt lat="41.224738" lon="1.520916">
        <ele>83.8</ele>
        <time>1970-01-01T01:52:19.000Z</time>
      </trkpt>
      <trkpt lat="41.224689" lon="1.520924">
        <ele>83.6</ele>
        <time>1970-01-01T01:52:20.000Z</time>
      </trkpt>
      <trkpt lat="41.224644" lon="1.520942">
        <ele>83.4</ele>
        <time>1970-01-01T01:52:21.000Z</time>
      </trkpt>
      <trkpt lat="41.224562" lon="1.520996">
        <ele>82.2</ele>
        <time>1970-01-01T01:52:23.000Z</time>
      </trkpt>
      <trkpt lat="41.224534" lon="1.521021">
        <ele>81.5</ele>
        <time>1970-01-01T01:52:24.000Z</time>
      </trkpt>
      <trkpt lat="41.224512" lon="1.521034">
        <ele>81.2</ele>
        <time>1970-01-01T01:52:25.000Z</time>
      </trkpt>
      <trkpt lat="41.22449" lon="1.521037">
        <ele>80.6</ele>
        <time>1970-01-01T01:52:26.000Z</time>
      </trkpt>
      <trkpt lat="41.224466" lon="1.521038">
        <ele>80</ele>
        <time>1970-01-01T01:52:27.000Z</time>
      </trkpt>
      <trkpt lat="41.224446" lon="1.521034">
        <ele>79.7</ele>
        <time>1970-01-01T01:52:28.000Z</time>
      </trkpt>
      <trkpt lat="41.224428" lon="1.521034">
        <ele>79.1</ele>
        <time>1970-01-01T01:52:29.000Z</time>
      </trkpt>
      <trkpt lat="41.224409" lon="1.521043">
        <ele>78.8</ele>
        <time>1970-01-01T01:52:30.000Z</time>
      </trkpt>
      <trkpt lat="41.22435" lon="1.521026">
        <ele>78</ele>
        <time>1970-01-01T01:52:34.000Z</time>
      </trkpt>
      <trkpt lat="41.224334" lon="1.521008">
        <ele>77.5</ele>
        <time>1970-01-01T01:52:35.000Z</time>
      </trkpt>
      <trkpt lat="41.224321" lon="1.520998">
        <ele>77.2</ele>
        <time>1970-01-01T01:52:36.000Z</time>
      </trkpt>
      <trkpt lat="41.224309" lon="1.521003">
        <ele>76.7</ele>
        <time>1970-01-01T01:52:37.000Z</time>
      </trkpt>
      <trkpt lat="41.224275" lon="1.521033">
        <ele>76.1</ele>
        <time>1970-01-01T01:52:39.000Z</time>
      </trkpt>
      <trkpt lat="41.224224" lon="1.52109">
        <ele>75.5</ele>
        <time>1970-01-01T01:52:41.000Z</time>
      </trkpt>
      <trkpt lat="41.224183" lon="1.521167">
        <ele>74.8</ele>
        <time>1970-01-01T01:52:43.000Z</time>
      </trkpt>
      <trkpt lat="41.224163" lon="1.521265">
        <ele>74.1</ele>
        <time>1970-01-01T01:52:45.000Z</time>
      </trkpt>
      <trkpt lat="41.224089" lon="1.521462">
        <ele>73.1</ele>
        <time>1970-01-01T01:52:48.000Z</time>
      </trkpt>
      <trkpt lat="41.224057" lon="1.521537">
        <ele>72.8</ele>
        <time>1970-01-01T01:52:49.000Z</time>
      </trkpt>
      <trkpt lat="41.223947" lon="1.521778">
        <ele>72.4</ele>
        <time>1970-01-01T01:52:52.000Z</time>
      </trkpt>
      <trkpt lat="41.223947" lon="1.521778">
        <ele>72.4</ele>
        <time>1970-01-01T01:52:55.000Z</time>
      </trkpt>
      <trkpt lat="41.223947" lon="1.521778">
        <ele>72.4</ele>
        <time>1970-01-01T01:52:56.000Z</time>
      </trkpt>
      <trkpt lat="41.223717" lon="1.522057">
        <ele>72.5</ele>
        <time>1970-01-01T01:52:57.000Z</time>
      </trkpt>
      <trkpt lat="41.223615" lon="1.52212">
        <ele>72.6</ele>
        <time>1970-01-01T01:53:00.000Z</time>
      </trkpt>
      <trkpt lat="41.22359" lon="1.522126">
        <ele>72.7</ele>
        <time>1970-01-01T01:53:01.000Z</time>
      </trkpt>
      <trkpt lat="41.223571" lon="1.522137">
        <ele>72.7</ele>
        <time>1970-01-01T01:53:02.000Z</time>
      </trkpt>
      <trkpt lat="41.223557" lon="1.52215">
        <ele>72.7</ele>
        <time>1970-01-01T01:53:03.000Z</time>
      </trkpt>
      <trkpt lat="41.223547" lon="1.522159">
        <ele>72.7</ele>
        <time>1970-01-01T01:53:06.000Z</time>
      </trkpt>
      <trkpt lat="41.22355" lon="1.522162">
        <ele>72.7</ele>
        <time>1970-01-01T01:53:07.000Z</time>
      </trkpt>
      <trkpt lat="41.223554" lon="1.52217">
        <ele>72.7</ele>
        <time>1970-01-01T01:53:09.000Z</time>
      </trkpt>
      <trkpt lat="41.223557" lon="1.522169">
        <ele>72.7</ele>
        <time>1970-01-01T01:53:12.000Z</time>
      </trkpt>
      <trkpt lat="41.22356" lon="1.52217">
        <ele>72.7</ele>
        <time>1970-01-01T01:53:15.000Z</time>
      </trkpt>
      <trkpt lat="41.223562" lon="1.52217">
        <ele>72.7</ele>
        <time>1970-01-01T01:53:19.000Z</time>
      </trkpt>
      <trkpt lat="41.223562" lon="1.52217">
        <ele>72.7</ele>
        <time>1970-01-01T01:53:22.000Z</time>
      </trkpt>
      <trkpt lat="41.223539" lon="1.52219">
        <ele>72.8</ele>
        <time>1970-01-01T01:53:26.000Z</time>
      </trkpt>
      <trkpt lat="41.223522" lon="1.522211">
        <ele>72.8</ele>
        <time>1970-01-01T01:53:28.000Z</time>
      </trkpt>
      <trkpt lat="41.223504" lon="1.522249">
        <ele>72.8</ele>
        <time>1970-01-01T01:53:30.000Z</time>
      </trkpt>
      <trkpt lat="41.223418" lon="1.522326">
        <ele>73.3</ele>
        <time>1970-01-01T01:53:33.000Z</time>
      </trkpt>
      <trkpt lat="41.223339" lon="1.522428">
        <ele>73.7</ele>
        <time>1970-01-01T01:53:36.000Z</time>
      </trkpt>
      <trkpt lat="41.223294" lon="1.522479">
        <ele>73.9</ele>
        <time>1970-01-01T01:53:38.000Z</time>
      </trkpt>
      <trkpt lat="41.223274" lon="1.522501">
        <ele>74</ele>
        <time>1970-01-01T01:53:39.000Z</time>
      </trkpt>
      <trkpt lat="41.223239" lon="1.522545">
        <ele>74.2</ele>
        <time>1970-01-01T01:53:41.000Z</time>
      </trkpt>
      <trkpt lat="41.22322" lon="1.522569">
        <ele>74.3</ele>
        <time>1970-01-01T01:53:42.000Z</time>
      </trkpt>
      <trkpt lat="41.2232" lon="1.522591">
        <ele>74.5</ele>
        <time>1970-01-01T01:53:43.000Z</time>
      </trkpt>
      <trkpt lat="41.22318" lon="1.522618">
        <ele>74.6</ele>
        <time>1970-01-01T01:53:44.000Z</time>
      </trkpt>
      <trkpt lat="41.223158" lon="1.522639">
        <ele>74.7</ele>
        <time>1970-01-01T01:53:45.000Z</time>
      </trkpt>
      <trkpt lat="41.223131" lon="1.522647">
        <ele>74.9</ele>
        <time>1970-01-01T01:53:46.000Z</time>
      </trkpt>
      <trkpt lat="41.223106" lon="1.522644">
        <ele>75</ele>
        <time>1970-01-01T01:53:47.000Z</time>
      </trkpt>
      <trkpt lat="41.223041" lon="1.522698">
        <ele>75.1</ele>
        <time>1970-01-01T01:53:50.000Z</time>
      </trkpt>
      <trkpt lat="41.223" lon="1.522779">
        <ele>75.1</ele>
        <time>1970-01-01T01:53:52.000Z</time>
      </trkpt>
      <trkpt lat="41.222954" lon="1.52288">
        <ele>74.9</ele>
        <time>1970-01-01T01:53:54.000Z</time>
      </trkpt>
      <trkpt lat="41.222923" lon="1.522931">
        <ele>74.7</ele>
        <time>1970-01-01T01:53:55.000Z</time>
      </trkpt>
      <trkpt lat="41.222714" lon="1.523261">
        <ele>73.9</ele>
        <time>1970-01-01T01:54:01.000Z</time>
      </trkpt>
      <trkpt lat="41.222489" lon="1.523647">
        <ele>72.8</ele>
        <time>1970-01-01T01:54:07.000Z</time>
      </trkpt>
      <trkpt lat="41.222448" lon="1.523712">
        <ele>72.6</ele>
        <time>1970-01-01T01:54:08.000Z</time>
      </trkpt>
      <trkpt lat="41.222364" lon="1.523843">
        <ele>72.4</ele>
        <time>1970-01-01T01:54:10.000Z</time>
      </trkpt>
      <trkpt lat="41.222281" lon="1.523977">
        <ele>72</ele>
        <time>1970-01-01T01:54:12.000Z</time>
      </trkpt>
      <trkpt lat="41.222198" lon="1.524108">
        <ele>71.6</ele>
        <time>1970-01-01T01:54:14.000Z</time>
      </trkpt>
      <trkpt lat="41.222162" lon="1.524171">
        <ele>71.5</ele>
        <time>1970-01-01T01:54:15.000Z</time>
      </trkpt>
      <trkpt lat="41.222128" lon="1.524222">
        <ele>71.4</ele>
        <time>1970-01-01T01:54:16.000Z</time>
      </trkpt>
      <trkpt lat="41.222066" lon="1.524312">
        <ele>71.2</ele>
        <time>1970-01-01T01:54:18.000Z</time>
      </trkpt>
      <trkpt lat="41.222052" lon="1.524433">
        <ele>71</ele>
        <time>1970-01-01T01:54:20.000Z</time>
      </trkpt>
      <trkpt lat="41.222055" lon="1.524497">
        <ele>70.9</ele>
        <time>1970-01-01T01:54:21.000Z</time>
      </trkpt>
      <trkpt lat="41.222056" lon="1.524561">
        <ele>70.8</ele>
        <time>1970-01-01T01:54:22.000Z</time>
      </trkpt>
      <trkpt lat="41.222052" lon="1.5247">
        <ele>70.4</ele>
        <time>1970-01-01T01:54:24.000Z</time>
      </trkpt>
      <trkpt lat="41.222042" lon="1.524772">
        <ele>70.2</ele>
        <time>1970-01-01T01:54:25.000Z</time>
      </trkpt>
      <trkpt lat="41.222026" lon="1.524844">
        <ele>70.1</ele>
        <time>1970-01-01T01:54:26.000Z</time>
      </trkpt>
      <trkpt lat="41.222004" lon="1.524914">
        <ele>69.9</ele>
        <time>1970-01-01T01:54:27.000Z</time>
      </trkpt>
      <trkpt lat="41.221978" lon="1.524982">
        <ele>69.8</ele>
        <time>1970-01-01T01:54:28.000Z</time>
      </trkpt>
      <trkpt lat="41.221928" lon="1.525119">
        <ele>69.6</ele>
        <time>1970-01-01T01:54:30.000Z</time>
      </trkpt>
      <trkpt lat="41.221904" lon="1.525188">
        <ele>69.4</ele>
        <time>1970-01-01T01:54:31.000Z</time>
      </trkpt>
      <trkpt lat="41.221856" lon="1.525326">
        <ele>69.1</ele>
        <time>1970-01-01T01:54:33.000Z</time>
      </trkpt>
      <trkpt lat="41.221726" lon="1.525676">
        <ele>68.2</ele>
        <time>1970-01-01T01:54:38.000Z</time>
      </trkpt>
      <trkpt lat="41.221703" lon="1.525747">
        <ele>68.1</ele>
        <time>1970-01-01T01:54:39.000Z</time>
      </trkpt>
      <trkpt lat="41.221664" lon="1.525897">
        <ele>67.7</ele>
        <time>1970-01-01T01:54:41.000Z</time>
      </trkpt>
      <trkpt lat="41.221568" lon="1.526267">
        <ele>66.6</ele>
        <time>1970-01-01T01:54:46.000Z</time>
      </trkpt>
      <trkpt lat="41.221546" lon="1.526344">
        <ele>66.4</ele>
        <time>1970-01-01T01:54:47.000Z</time>
      </trkpt>
      <trkpt lat="41.221495" lon="1.526504">
        <ele>65.9</ele>
        <time>1970-01-01T01:54:49.000Z</time>
      </trkpt>
      <trkpt lat="41.221411" lon="1.526648">
        <ele>65.3</ele>
        <time>1970-01-01T01:54:51.000Z</time>
      </trkpt>
      <trkpt lat="41.221365" lon="1.526716">
        <ele>65.1</ele>
        <time>1970-01-01T01:54:52.000Z</time>
      </trkpt>
      <trkpt lat="41.22122" lon="1.526901">
        <ele>64.5</ele>
        <time>1970-01-01T01:54:55.000Z</time>
      </trkpt>
      <trkpt lat="41.22112" lon="1.527017">
        <ele>64</ele>
        <time>1970-01-01T01:54:57.000Z</time>
      </trkpt>
      <trkpt lat="41.221023" lon="1.527132">
        <ele>63.4</ele>
        <time>1970-01-01T01:54:59.000Z</time>
      </trkpt>
      <trkpt lat="41.22094" lon="1.527254">
        <ele>62.8</ele>
        <time>1970-01-01T01:55:01.000Z</time>
      </trkpt>
      <trkpt lat="41.220911" lon="1.527326">
        <ele>62.6</ele>
        <time>1970-01-01T01:55:02.000Z</time>
      </trkpt>
      <trkpt lat="41.220891" lon="1.527402">
        <ele>62.4</ele>
        <time>1970-01-01T01:55:03.000Z</time>
      </trkpt>
      <trkpt lat="41.22085" lon="1.527626">
        <ele>61.7</ele>
        <time>1970-01-01T01:55:06.000Z</time>
      </trkpt>
      <trkpt lat="41.220838" lon="1.527686">
        <ele>61.4</ele>
        <time>1970-01-01T01:55:07.000Z</time>
      </trkpt>
      <trkpt lat="41.220817" lon="1.527789">
        <ele>61.1</ele>
        <time>1970-01-01T01:55:10.000Z</time>
      </trkpt>
      <trkpt lat="41.220832" lon="1.527803">
        <ele>61</ele>
        <time>1970-01-01T01:55:13.000Z</time>
      </trkpt>
      <trkpt lat="41.220838" lon="1.527807">
        <ele>61</ele>
        <time>1970-01-01T01:55:15.000Z</time>
      </trkpt>
      <trkpt lat="41.220839" lon="1.527807">
        <ele>61</ele>
        <time>1970-01-01T01:55:17.000Z</time>
      </trkpt>
      <trkpt lat="41.220839" lon="1.527807">
        <ele>61</ele>
        <time>1970-01-01T01:55:20.000Z</time>
      </trkpt>
      <trkpt lat="41.220839" lon="1.527807">
        <ele>61</ele>
        <time>1970-01-01T01:55:22.000Z</time>
      </trkpt>
      <trkpt lat="41.220839" lon="1.527808">
        <ele>61</ele>
        <time>1970-01-01T01:55:25.000Z</time>
      </trkpt>
      <trkpt lat="41.220831" lon="1.527841">
        <ele>60.9</ele>
        <time>1970-01-01T01:55:28.000Z</time>
      </trkpt>
      <trkpt lat="41.220812" lon="1.527885">
        <ele>60.6</ele>
        <time>1970-01-01T01:55:30.000Z</time>
      </trkpt>
      <trkpt lat="41.220787" lon="1.527953">
        <ele>60.6</ele>
        <time>1970-01-01T01:55:32.000Z</time>
      </trkpt>
      <trkpt lat="41.220695" lon="1.52806">
        <ele>60.1</ele>
        <time>1970-01-01T01:55:36.000Z</time>
      </trkpt>
      <trkpt lat="41.220546" lon="1.528071">
        <ele>59.8</ele>
        <time>1970-01-01T01:55:40.000Z</time>
      </trkpt>
      <trkpt lat="41.22026" lon="1.528054">
        <ele>59.3</ele>
        <time>1970-01-01T01:55:46.000Z</time>
      </trkpt>
      <trkpt lat="41.220127" lon="1.528044">
        <ele>59.1</ele>
        <time>1970-01-01T01:55:49.000Z</time>
      </trkpt>
      <trkpt lat="41.220085" lon="1.52804">
        <ele>59</ele>
        <time>1970-01-01T01:55:50.000Z</time>
      </trkpt>
      <trkpt lat="41.219947" lon="1.528028">
        <ele>58.7</ele>
        <time>1970-01-01T01:55:53.000Z</time>
      </trkpt>
      <trkpt lat="41.2199" lon="1.528025">
        <ele>58.6</ele>
        <time>1970-01-01T01:55:54.000Z</time>
      </trkpt>
      <trkpt lat="41.219767" lon="1.528035">
        <ele>58.2</ele>
        <time>1970-01-01T01:55:57.000Z</time>
      </trkpt>
      <trkpt lat="41.219731" lon="1.52806">
        <ele>58.2</ele>
        <time>1970-01-01T01:55:58.000Z</time>
      </trkpt>
      <trkpt lat="41.219641" lon="1.528198">
        <ele>58.1</ele>
        <time>1970-01-01T01:56:01.000Z</time>
      </trkpt>
      <trkpt lat="41.21961" lon="1.528247">
        <ele>58.1</ele>
        <time>1970-01-01T01:56:02.000Z</time>
      </trkpt>
      <trkpt lat="41.219467" lon="1.528423">
        <ele>58</ele>
        <time>1970-01-01T01:56:06.000Z</time>
      </trkpt>
      <trkpt lat="41.219394" lon="1.528511">
        <ele>57.8</ele>
        <time>1970-01-01T01:56:08.000Z</time>
      </trkpt>
      <trkpt lat="41.219333" lon="1.528589">
        <ele>57.7</ele>
        <time>1970-01-01T01:56:10.000Z</time>
      </trkpt>
      <trkpt lat="41.219231" lon="1.528705">
        <ele>57.1</ele>
        <time>1970-01-01T01:56:13.000Z</time>
      </trkpt>
      <trkpt lat="41.219093" lon="1.528845">
        <ele>56.3</ele>
        <time>1970-01-01T01:56:17.000Z</time>
      </trkpt>
      <trkpt lat="41.219033" lon="1.52891">
        <ele>55.8</ele>
        <time>1970-01-01T01:56:19.000Z</time>
      </trkpt>
      <trkpt lat="41.219006" lon="1.528947">
        <ele>55.6</ele>
        <time>1970-01-01T01:56:20.000Z</time>
      </trkpt>
      <trkpt lat="41.218943" lon="1.529024">
        <ele>55.8</ele>
        <time>1970-01-01T01:56:22.000Z</time>
      </trkpt>
      <trkpt lat="41.218911" lon="1.529065">
        <ele>56</ele>
        <time>1970-01-01T01:56:23.000Z</time>
      </trkpt>
      <trkpt lat="41.218813" lon="1.529185">
        <ele>56.4</ele>
        <time>1970-01-01T01:56:26.000Z</time>
      </trkpt>
      <trkpt lat="41.218781" lon="1.529223">
        <ele>56.5</ele>
        <time>1970-01-01T01:56:27.000Z</time>
      </trkpt>
    </trkseg>
  </trk>
</gpx>
